<?xml version="1.0" encoding="UTF-8" standalone="no" ?>
<gpx xmlns="http://www.topografix.com/GPX/1/1" xmlns:xsi="http://www.w3.org/2001/XMLSchema-instance" xsi:schemaLocation="http://www.topografix.com/GPX/1/1 http://www.topografix.com/GPX/1/1/gpx.xsd" version="1.1" creator="VisuGPX - https://www.visugpx.com">
  <metadata>
    <name>Montagne Noire, ruines de Roquefort, St Jammes</name>
  </metadata>
  <trk>
    <name><![CDATA[Montagne Noire, ruines de Roquefort, St Jammes]]></name>
    <extensions>
      <line xmlns="http://www.topografix.com/GPX/gpx_style/0/2">
        <color>0000FF</color>
        <width>4</width>
      </line>
    </extensions>
    <trkseg>
      <trkpt lat="43.44059" lon="2.02738">
        <ele>339</ele>
        <time>2012-04-05T13:38:25Z</time>
      </trkpt>
      <trkpt lat="43.44074" lon="2.02773">
        <ele>343</ele>
        <time>2012-04-05T13:38:35Z</time>
      </trkpt>
      <trkpt lat="43.44073" lon="2.02785">
        <ele>343</ele>
        <time>2012-04-05T13:38:37Z</time>
      </trkpt>
      <trkpt lat="43.44073" lon="2.02796">
        <ele>343</ele>
        <time>2012-04-05T13:38:39Z</time>
      </trkpt>
      <trkpt lat="43.44079" lon="2.02804">
        <ele>343</ele>
        <time>2012-04-05T13:38:41Z</time>
      </trkpt>
      <trkpt lat="43.44088" lon="2.02802">
        <ele>343</ele>
        <time>2012-04-05T13:38:43Z</time>
      </trkpt>
      <trkpt lat="43.44098" lon="2.02794">
        <ele>343</ele>
        <time>2012-04-05T13:38:45Z</time>
      </trkpt>
      <trkpt lat="43.44109" lon="2.02785">
        <ele>343</ele>
        <time>2012-04-05T13:38:47Z</time>
      </trkpt>
      <trkpt lat="43.44121" lon="2.02776">
        <ele>343</ele>
        <time>2012-04-05T13:38:49Z</time>
      </trkpt>
      <trkpt lat="43.44134" lon="2.02766">
        <ele>343</ele>
        <time>2012-04-05T13:38:51Z</time>
      </trkpt>
      <trkpt lat="43.44148" lon="2.02756">
        <ele>343</ele>
        <time>2012-04-05T13:38:53Z</time>
      </trkpt>
      <trkpt lat="43.44161" lon="2.02745">
        <ele>343</ele>
        <time>2012-04-05T13:38:55Z</time>
      </trkpt>
      <trkpt lat="43.44171" lon="2.02737">
        <ele>343</ele>
        <time>2012-04-05T13:38:57Z</time>
      </trkpt>
      <trkpt lat="43.4418" lon="2.0273">
        <ele>343</ele>
        <time>2012-04-05T13:38:59Z</time>
      </trkpt>
      <trkpt lat="43.4419" lon="2.02723">
        <ele>343</ele>
        <time>2012-04-05T13:39:01Z</time>
      </trkpt>
      <trkpt lat="43.44202" lon="2.02714">
        <ele>342</ele>
        <time>2012-04-05T13:39:03Z</time>
      </trkpt>
      <trkpt lat="43.44213" lon="2.02712">
        <ele>341</ele>
        <time>2012-04-05T13:39:05Z</time>
      </trkpt>
      <trkpt lat="43.44225" lon="2.02715">
        <ele>340</ele>
        <time>2012-04-05T13:39:07Z</time>
      </trkpt>
      <trkpt lat="43.44236" lon="2.0272">
        <ele>339</ele>
        <time>2012-04-05T13:39:09Z</time>
      </trkpt>
      <trkpt lat="43.44248" lon="2.02724">
        <ele>338</ele>
        <time>2012-04-05T13:39:11Z</time>
      </trkpt>
      <trkpt lat="43.4426" lon="2.02728">
        <ele>337</ele>
        <time>2012-04-05T13:39:13Z</time>
      </trkpt>
      <trkpt lat="43.44273" lon="2.02728">
        <ele>336</ele>
        <time>2012-04-05T13:39:15Z</time>
      </trkpt>
      <trkpt lat="43.44288" lon="2.02722">
        <ele>335</ele>
        <time>2012-04-05T13:39:17Z</time>
      </trkpt>
      <trkpt lat="43.44302" lon="2.02715">
        <ele>334</ele>
        <time>2012-04-05T13:39:19Z</time>
      </trkpt>
      <trkpt lat="43.44316" lon="2.02707">
        <ele>334</ele>
        <time>2012-04-05T13:39:21Z</time>
      </trkpt>
      <trkpt lat="43.4433" lon="2.02699">
        <ele>333</ele>
        <time>2012-04-05T13:39:23Z</time>
      </trkpt>
      <trkpt lat="43.44343" lon="2.02688">
        <ele>333</ele>
        <time>2012-04-05T13:39:25Z</time>
      </trkpt>
      <trkpt lat="43.44355" lon="2.02674">
        <ele>332</ele>
        <time>2012-04-05T13:39:27Z</time>
      </trkpt>
      <trkpt lat="43.44368" lon="2.0266">
        <ele>331</ele>
        <time>2012-04-05T13:39:29Z</time>
      </trkpt>
      <trkpt lat="43.44383" lon="2.02645">
        <ele>329</ele>
        <time>2012-04-05T13:39:31Z</time>
      </trkpt>
      <trkpt lat="43.44397" lon="2.0263">
        <ele>327</ele>
        <time>2012-04-05T13:39:33Z</time>
      </trkpt>
      <trkpt lat="43.44409" lon="2.02617">
        <ele>325</ele>
        <time>2012-04-05T13:39:35Z</time>
      </trkpt>
      <trkpt lat="43.44418" lon="2.02607">
        <ele>324</ele>
        <time>2012-04-05T13:39:37Z</time>
      </trkpt>
      <trkpt lat="43.44423" lon="2.02603">
        <ele>322</ele>
        <time>2012-04-05T13:39:39Z</time>
      </trkpt>
      <trkpt lat="43.44425" lon="2.02602">
        <ele>321</ele>
        <time>2012-04-05T13:39:41Z</time>
      </trkpt>
      <trkpt lat="43.44429" lon="2.02599">
        <ele>320</ele>
        <time>2012-04-05T13:39:43Z</time>
      </trkpt>
      <trkpt lat="43.44436" lon="2.0259">
        <ele>320</ele>
        <time>2012-04-05T13:39:45Z</time>
      </trkpt>
      <trkpt lat="43.44445" lon="2.02581">
        <ele>319</ele>
        <time>2012-04-05T13:39:47Z</time>
      </trkpt>
      <trkpt lat="43.44456" lon="2.02573">
        <ele>317</ele>
        <time>2012-04-05T13:39:49Z</time>
      </trkpt>
      <trkpt lat="43.4447" lon="2.02564">
        <ele>315</ele>
        <time>2012-04-05T13:39:51Z</time>
      </trkpt>
      <trkpt lat="43.44486" lon="2.02553">
        <ele>313</ele>
        <time>2012-04-05T13:39:53Z</time>
      </trkpt>
      <trkpt lat="43.44503" lon="2.02542">
        <ele>311</ele>
        <time>2012-04-05T13:39:55Z</time>
      </trkpt>
      <trkpt lat="43.44519" lon="2.0253">
        <ele>309</ele>
        <time>2012-04-05T13:39:57Z</time>
      </trkpt>
      <trkpt lat="43.4453" lon="2.02519">
        <ele>307</ele>
        <time>2012-04-05T13:39:59Z</time>
      </trkpt>
      <trkpt lat="43.44543" lon="2.02507">
        <ele>305</ele>
        <time>2012-04-05T13:40:01Z</time>
      </trkpt>
      <trkpt lat="43.44556" lon="2.02494">
        <ele>303</ele>
        <time>2012-04-05T13:40:03Z</time>
      </trkpt>
      <trkpt lat="43.44568" lon="2.02474">
        <ele>301</ele>
        <time>2012-04-05T13:40:05Z</time>
      </trkpt>
      <trkpt lat="43.44579" lon="2.02455">
        <ele>299</ele>
        <time>2012-04-05T13:40:07Z</time>
      </trkpt>
      <trkpt lat="43.44588" lon="2.02441">
        <ele>297</ele>
        <time>2012-04-05T13:40:09Z</time>
      </trkpt>
      <trkpt lat="43.44597" lon="2.02433">
        <ele>295</ele>
        <time>2012-04-05T13:40:11Z</time>
      </trkpt>
      <trkpt lat="43.44608" lon="2.02425">
        <ele>293</ele>
        <time>2012-04-05T13:40:13Z</time>
      </trkpt>
      <trkpt lat="43.4462" lon="2.02419">
        <ele>291</ele>
        <time>2012-04-05T13:40:15Z</time>
      </trkpt>
      <trkpt lat="43.44628" lon="2.02413">
        <ele>289</ele>
        <time>2012-04-05T13:40:17Z</time>
      </trkpt>
      <trkpt lat="43.44635" lon="2.02406">
        <ele>287</ele>
        <time>2012-04-05T13:40:19Z</time>
      </trkpt>
      <trkpt lat="43.44643" lon="2.02399">
        <ele>285</ele>
        <time>2012-04-05T13:40:21Z</time>
      </trkpt>
      <trkpt lat="43.44647" lon="2.02399">
        <ele>283</ele>
        <time>2012-04-05T13:40:23Z</time>
      </trkpt>
      <trkpt lat="43.44651" lon="2.02404">
        <ele>283</ele>
        <time>2012-04-05T13:40:25Z</time>
      </trkpt>
      <trkpt lat="43.44654" lon="2.02406">
        <ele>282</ele>
        <time>2012-04-05T13:40:27Z</time>
      </trkpt>
      <trkpt lat="43.44655" lon="2.02408">
        <ele>282</ele>
        <time>2012-04-05T13:40:30Z</time>
      </trkpt>
      <trkpt lat="43.44654" lon="2.0241">
        <ele>282</ele>
        <time>2012-04-05T13:40:37Z</time>
      </trkpt>
      <trkpt lat="43.44654" lon="2.02413">
        <ele>282</ele>
        <time>2012-04-05T13:40:39Z</time>
      </trkpt>
      <trkpt lat="43.44654" lon="2.02417">
        <ele>282</ele>
        <time>2012-04-05T13:40:41Z</time>
      </trkpt>
      <trkpt lat="43.44656" lon="2.02421">
        <ele>282</ele>
        <time>2012-04-05T13:40:43Z</time>
      </trkpt>
      <trkpt lat="43.44659" lon="2.02427">
        <ele>282</ele>
        <time>2012-04-05T13:40:45Z</time>
      </trkpt>
      <trkpt lat="43.44664" lon="2.02432">
        <ele>281</ele>
        <time>2012-04-05T13:40:47Z</time>
      </trkpt>
      <trkpt lat="43.44668" lon="2.02436">
        <ele>280</ele>
        <time>2012-04-05T13:40:49Z</time>
      </trkpt>
      <trkpt lat="43.44671" lon="2.02435">
        <ele>278</ele>
        <time>2012-04-05T13:40:51Z</time>
      </trkpt>
      <trkpt lat="43.44675" lon="2.02435">
        <ele>277</ele>
        <time>2012-04-05T13:40:53Z</time>
      </trkpt>
      <trkpt lat="43.44677" lon="2.02439">
        <ele>276</ele>
        <time>2012-04-05T13:40:55Z</time>
      </trkpt>
      <trkpt lat="43.4468" lon="2.02445">
        <ele>275</ele>
        <time>2012-04-05T13:40:57Z</time>
      </trkpt>
      <trkpt lat="43.44683" lon="2.02447">
        <ele>274</ele>
        <time>2012-04-05T13:40:59Z</time>
      </trkpt>
      <trkpt lat="43.44684" lon="2.02449">
        <ele>272</ele>
        <time>2012-04-05T13:41:01Z</time>
      </trkpt>
      <trkpt lat="43.44683" lon="2.02451">
        <ele>272</ele>
        <time>2012-04-05T13:41:03Z</time>
      </trkpt>
      <trkpt lat="43.4468" lon="2.02453">
        <ele>271</ele>
        <time>2012-04-05T13:41:05Z</time>
      </trkpt>
      <trkpt lat="43.44677" lon="2.02455">
        <ele>271</ele>
        <time>2012-04-05T13:41:07Z</time>
      </trkpt>
      <trkpt lat="43.44673" lon="2.02457">
        <ele>271</ele>
        <time>2012-04-05T13:41:09Z</time>
      </trkpt>
      <trkpt lat="43.44669" lon="2.02461">
        <ele>271</ele>
        <time>2012-04-05T13:41:11Z</time>
      </trkpt>
      <trkpt lat="43.44664" lon="2.02465">
        <ele>271</ele>
        <time>2012-04-05T13:41:13Z</time>
      </trkpt>
      <trkpt lat="43.44659" lon="2.02466">
        <ele>271</ele>
        <time>2012-04-05T13:41:15Z</time>
      </trkpt>
      <trkpt lat="43.44656" lon="2.02468">
        <ele>271</ele>
        <time>2012-04-05T13:41:17Z</time>
      </trkpt>
      <trkpt lat="43.44652" lon="2.02469">
        <ele>271</ele>
        <time>2012-04-05T13:41:19Z</time>
      </trkpt>
      <trkpt lat="43.44648" lon="2.02472">
        <ele>271</ele>
        <time>2012-04-05T13:41:22Z</time>
      </trkpt>
      <trkpt lat="43.44645" lon="2.02473">
        <ele>272</ele>
        <time>2012-04-05T13:41:24Z</time>
      </trkpt>
      <trkpt lat="43.44642" lon="2.02473">
        <ele>274</ele>
        <time>2012-04-05T13:41:26Z</time>
      </trkpt>
      <trkpt lat="43.44639" lon="2.02474">
        <ele>276</ele>
        <time>2012-04-05T13:41:28Z</time>
      </trkpt>
      <trkpt lat="43.44637" lon="2.02476">
        <ele>278</ele>
        <time>2012-04-05T13:41:30Z</time>
      </trkpt>
      <trkpt lat="43.44634" lon="2.02478">
        <ele>279</ele>
        <time>2012-04-05T13:41:32Z</time>
      </trkpt>
      <trkpt lat="43.44631" lon="2.02481">
        <ele>281</ele>
        <time>2012-04-05T13:41:34Z</time>
      </trkpt>
      <trkpt lat="43.44628" lon="2.02483">
        <ele>282</ele>
        <time>2012-04-05T13:41:36Z</time>
      </trkpt>
      <trkpt lat="43.44625" lon="2.02484">
        <ele>283</ele>
        <time>2012-04-05T13:41:38Z</time>
      </trkpt>
      <trkpt lat="43.44623" lon="2.02484">
        <ele>284</ele>
        <time>2012-04-05T13:41:40Z</time>
      </trkpt>
      <trkpt lat="43.4462" lon="2.02485">
        <ele>285</ele>
        <time>2012-04-05T13:41:42Z</time>
      </trkpt>
      <trkpt lat="43.44617" lon="2.02486">
        <ele>285</ele>
        <time>2012-04-05T13:41:44Z</time>
      </trkpt>
      <trkpt lat="43.44613" lon="2.0249">
        <ele>285</ele>
        <time>2012-04-05T13:41:46Z</time>
      </trkpt>
      <trkpt lat="43.44609" lon="2.02491">
        <ele>285</ele>
        <time>2012-04-05T13:41:48Z</time>
      </trkpt>
      <trkpt lat="43.44606" lon="2.02495">
        <ele>285</ele>
        <time>2012-04-05T13:41:50Z</time>
      </trkpt>
      <trkpt lat="43.44602" lon="2.025">
        <ele>285</ele>
        <time>2012-04-05T13:41:52Z</time>
      </trkpt>
      <trkpt lat="43.44598" lon="2.02504">
        <ele>286</ele>
        <time>2012-04-05T13:41:54Z</time>
      </trkpt>
      <trkpt lat="43.44594" lon="2.02506">
        <ele>288</ele>
        <time>2012-04-05T13:41:56Z</time>
      </trkpt>
      <trkpt lat="43.44592" lon="2.02509">
        <ele>289</ele>
        <time>2012-04-05T13:41:58Z</time>
      </trkpt>
      <trkpt lat="43.44589" lon="2.02512">
        <ele>290</ele>
        <time>2012-04-05T13:42:00Z</time>
      </trkpt>
      <trkpt lat="43.44586" lon="2.02514">
        <ele>291</ele>
        <time>2012-04-05T13:42:02Z</time>
      </trkpt>
      <trkpt lat="43.44583" lon="2.02517">
        <ele>292</ele>
        <time>2012-04-05T13:42:04Z</time>
      </trkpt>
      <trkpt lat="43.4458" lon="2.02519">
        <ele>292</ele>
        <time>2012-04-05T13:42:06Z</time>
      </trkpt>
      <trkpt lat="43.44578" lon="2.02522">
        <ele>292</ele>
        <time>2012-04-05T13:42:08Z</time>
      </trkpt>
      <trkpt lat="43.44575" lon="2.02521">
        <ele>292</ele>
        <time>2012-04-05T13:42:11Z</time>
      </trkpt>
      <trkpt lat="43.44573" lon="2.02521">
        <ele>292</ele>
        <time>2012-04-05T13:42:14Z</time>
      </trkpt>
      <trkpt lat="43.44572" lon="2.0252">
        <ele>292</ele>
        <time>2012-04-05T13:42:17Z</time>
      </trkpt>
      <trkpt lat="43.44571" lon="2.0252">
        <ele>292</ele>
        <time>2012-04-05T13:42:19Z</time>
      </trkpt>
      <trkpt lat="43.44569" lon="2.02522">
        <ele>292</ele>
        <time>2012-04-05T13:42:21Z</time>
      </trkpt>
      <trkpt lat="43.44565" lon="2.02523">
        <ele>293</ele>
        <time>2012-04-05T13:42:24Z</time>
      </trkpt>
      <trkpt lat="43.44564" lon="2.02524">
        <ele>294</ele>
        <time>2012-04-05T13:42:26Z</time>
      </trkpt>
      <trkpt lat="43.44562" lon="2.02524">
        <ele>294</ele>
        <time>2012-04-05T13:42:28Z</time>
      </trkpt>
      <trkpt lat="43.44559" lon="2.02526">
        <ele>294</ele>
        <time>2012-04-05T13:42:30Z</time>
      </trkpt>
      <trkpt lat="43.44557" lon="2.02527">
        <ele>294</ele>
        <time>2012-04-05T13:42:32Z</time>
      </trkpt>
      <trkpt lat="43.44555" lon="2.02527">
        <ele>295</ele>
        <time>2012-04-05T13:42:34Z</time>
      </trkpt>
      <trkpt lat="43.44553" lon="2.02528">
        <ele>295</ele>
        <time>2012-04-05T13:42:36Z</time>
      </trkpt>
      <trkpt lat="43.44551" lon="2.02528">
        <ele>296</ele>
        <time>2012-04-05T13:42:38Z</time>
      </trkpt>
      <trkpt lat="43.44549" lon="2.02528">
        <ele>297</ele>
        <time>2012-04-05T13:42:40Z</time>
      </trkpt>
      <trkpt lat="43.44548" lon="2.02528">
        <ele>297</ele>
        <time>2012-04-05T13:42:42Z</time>
      </trkpt>
      <trkpt lat="43.44546" lon="2.02527">
        <ele>298</ele>
        <time>2012-04-05T13:42:44Z</time>
      </trkpt>
      <trkpt lat="43.44545" lon="2.02527">
        <ele>298</ele>
        <time>2012-04-05T13:42:46Z</time>
      </trkpt>
      <trkpt lat="43.44542" lon="2.02527">
        <ele>298</ele>
        <time>2012-04-05T13:42:48Z</time>
      </trkpt>
      <trkpt lat="43.4454" lon="2.02528">
        <ele>298</ele>
        <time>2012-04-05T13:42:50Z</time>
      </trkpt>
      <trkpt lat="43.44538" lon="2.02528">
        <ele>298</ele>
        <time>2012-04-05T13:42:52Z</time>
      </trkpt>
      <trkpt lat="43.44535" lon="2.02527">
        <ele>300</ele>
        <time>2012-04-05T13:42:57Z</time>
      </trkpt>
      <trkpt lat="43.44533" lon="2.02525">
        <ele>301</ele>
        <time>2012-04-05T13:42:59Z</time>
      </trkpt>
      <trkpt lat="43.44533" lon="2.02522">
        <ele>302</ele>
        <time>2012-04-05T13:43:01Z</time>
      </trkpt>
      <trkpt lat="43.44533" lon="2.02521">
        <ele>302</ele>
        <time>2012-04-05T13:43:03Z</time>
      </trkpt>
      <trkpt lat="43.44534" lon="2.02519">
        <ele>302</ele>
        <time>2012-04-05T13:43:07Z</time>
      </trkpt>
      <trkpt lat="43.44537" lon="2.02516">
        <ele>302</ele>
        <time>2012-04-05T13:43:09Z</time>
      </trkpt>
      <trkpt lat="43.4454" lon="2.02513">
        <ele>302</ele>
        <time>2012-04-05T13:43:11Z</time>
      </trkpt>
      <trkpt lat="43.44545" lon="2.02508">
        <ele>302</ele>
        <time>2012-04-05T13:43:14Z</time>
      </trkpt>
      <trkpt lat="43.44557" lon="2.02494">
        <ele>302</ele>
        <time>2012-04-05T13:43:16Z</time>
      </trkpt>
      <trkpt lat="43.44567" lon="2.02477">
        <ele>302</ele>
        <time>2012-04-05T13:43:18Z</time>
      </trkpt>
      <trkpt lat="43.44577" lon="2.0246">
        <ele>300</ele>
        <time>2012-04-05T13:43:20Z</time>
      </trkpt>
      <trkpt lat="43.44585" lon="2.02447">
        <ele>299</ele>
        <time>2012-04-05T13:43:22Z</time>
      </trkpt>
      <trkpt lat="43.44594" lon="2.02438">
        <ele>297</ele>
        <time>2012-04-05T13:43:24Z</time>
      </trkpt>
      <trkpt lat="43.44606" lon="2.0243">
        <ele>296</ele>
        <time>2012-04-05T13:43:26Z</time>
      </trkpt>
      <trkpt lat="43.44618" lon="2.02422">
        <ele>294</ele>
        <time>2012-04-05T13:43:28Z</time>
      </trkpt>
      <trkpt lat="43.44627" lon="2.02415">
        <ele>292</ele>
        <time>2012-04-05T13:43:30Z</time>
      </trkpt>
      <trkpt lat="43.44635" lon="2.02407">
        <ele>290</ele>
        <time>2012-04-05T13:43:32Z</time>
      </trkpt>
      <trkpt lat="43.44644" lon="2.02398">
        <ele>288</ele>
        <time>2012-04-05T13:43:34Z</time>
      </trkpt>
      <trkpt lat="43.4465" lon="2.02392">
        <ele>286</ele>
        <time>2012-04-05T13:43:36Z</time>
      </trkpt>
      <trkpt lat="43.44654" lon="2.02389">
        <ele>284</ele>
        <time>2012-04-05T13:43:38Z</time>
      </trkpt>
      <trkpt lat="43.44658" lon="2.02386">
        <ele>283</ele>
        <time>2012-04-05T13:43:40Z</time>
      </trkpt>
      <trkpt lat="43.44663" lon="2.02382">
        <ele>281</ele>
        <time>2012-04-05T13:43:42Z</time>
      </trkpt>
      <trkpt lat="43.44668" lon="2.02374">
        <ele>279</ele>
        <time>2012-04-05T13:43:44Z</time>
      </trkpt>
      <trkpt lat="43.44675" lon="2.02366">
        <ele>277</ele>
        <time>2012-04-05T13:43:46Z</time>
      </trkpt>
      <trkpt lat="43.44684" lon="2.02356">
        <ele>276</ele>
        <time>2012-04-05T13:43:48Z</time>
      </trkpt>
      <trkpt lat="43.44692" lon="2.02345">
        <ele>274</ele>
        <time>2012-04-05T13:43:50Z</time>
      </trkpt>
      <trkpt lat="43.44697" lon="2.02337">
        <ele>272</ele>
        <time>2012-04-05T13:43:52Z</time>
      </trkpt>
      <trkpt lat="43.44699" lon="2.02334">
        <ele>270</ele>
        <time>2012-04-05T13:43:55Z</time>
      </trkpt>
      <trkpt lat="43.447" lon="2.02336">
        <ele>269</ele>
        <time>2012-04-05T13:43:57Z</time>
      </trkpt>
      <trkpt lat="43.447" lon="2.02339">
        <ele>269</ele>
        <time>2012-04-05T13:43:59Z</time>
      </trkpt>
      <trkpt lat="43.44701" lon="2.02344">
        <ele>269</ele>
        <time>2012-04-05T13:44:01Z</time>
      </trkpt>
      <trkpt lat="43.44702" lon="2.02349">
        <ele>269</ele>
        <time>2012-04-05T13:44:03Z</time>
      </trkpt>
      <trkpt lat="43.44703" lon="2.02354">
        <ele>269</ele>
        <time>2012-04-05T13:44:05Z</time>
      </trkpt>
      <trkpt lat="43.44701" lon="2.02358">
        <ele>269</ele>
        <time>2012-04-05T13:44:07Z</time>
      </trkpt>
      <trkpt lat="43.44698" lon="2.02361">
        <ele>269</ele>
        <time>2012-04-05T13:44:09Z</time>
      </trkpt>
      <trkpt lat="43.44696" lon="2.02364">
        <ele>269</ele>
        <time>2012-04-05T13:44:11Z</time>
      </trkpt>
      <trkpt lat="43.44697" lon="2.0237">
        <ele>269</ele>
        <time>2012-04-05T13:44:13Z</time>
      </trkpt>
      <trkpt lat="43.44699" lon="2.02376">
        <ele>269</ele>
        <time>2012-04-05T13:44:15Z</time>
      </trkpt>
      <trkpt lat="43.44702" lon="2.02384">
        <ele>269</ele>
        <time>2012-04-05T13:44:17Z</time>
      </trkpt>
      <trkpt lat="43.44704" lon="2.02394">
        <ele>269</ele>
        <time>2012-04-05T13:44:19Z</time>
      </trkpt>
      <trkpt lat="43.44702" lon="2.02399">
        <ele>269</ele>
        <time>2012-04-05T13:44:21Z</time>
      </trkpt>
      <trkpt lat="43.44699" lon="2.02401">
        <ele>269</ele>
        <time>2012-04-05T13:44:25Z</time>
      </trkpt>
      <trkpt lat="43.44698" lon="2.02402">
        <ele>269</ele>
        <time>2012-04-05T13:44:27Z</time>
      </trkpt>
      <trkpt lat="43.44696" lon="2.02404">
        <ele>269</ele>
        <time>2012-04-05T13:44:29Z</time>
      </trkpt>
      <trkpt lat="43.44694" lon="2.02407">
        <ele>269</ele>
        <time>2012-04-05T13:44:31Z</time>
      </trkpt>
      <trkpt lat="43.44693" lon="2.02409">
        <ele>269</ele>
        <time>2012-04-05T13:44:33Z</time>
      </trkpt>
      <trkpt lat="43.44691" lon="2.0241">
        <ele>269</ele>
        <time>2012-04-05T13:44:35Z</time>
      </trkpt>
      <trkpt lat="43.4469" lon="2.02412">
        <ele>269</ele>
        <time>2012-04-05T13:44:37Z</time>
      </trkpt>
      <trkpt lat="43.44688" lon="2.02413">
        <ele>269</ele>
        <time>2012-04-05T13:44:39Z</time>
      </trkpt>
      <trkpt lat="43.44688" lon="2.02415">
        <ele>269</ele>
        <time>2012-04-05T13:44:42Z</time>
      </trkpt>
      <trkpt lat="43.44688" lon="2.02422">
        <ele>269</ele>
        <time>2012-04-05T13:44:44Z</time>
      </trkpt>
      <trkpt lat="43.44687" lon="2.0243">
        <ele>269</ele>
        <time>2012-04-05T13:44:46Z</time>
      </trkpt>
      <trkpt lat="43.44685" lon="2.02437">
        <ele>269</ele>
        <time>2012-04-05T13:44:48Z</time>
      </trkpt>
      <trkpt lat="43.44686" lon="2.02444">
        <ele>269</ele>
        <time>2012-04-05T13:44:50Z</time>
      </trkpt>
      <trkpt lat="43.44687" lon="2.02451">
        <ele>269</ele>
        <time>2012-04-05T13:44:52Z</time>
      </trkpt>
      <trkpt lat="43.44684" lon="2.02456">
        <ele>269</ele>
        <time>2012-04-05T13:44:54Z</time>
      </trkpt>
      <trkpt lat="43.4468" lon="2.02461">
        <ele>269</ele>
        <time>2012-04-05T13:44:56Z</time>
      </trkpt>
      <trkpt lat="43.44675" lon="2.02467">
        <ele>269</ele>
        <time>2012-04-05T13:44:58Z</time>
      </trkpt>
      <trkpt lat="43.44669" lon="2.02475">
        <ele>269</ele>
        <time>2012-04-05T13:45:00Z</time>
      </trkpt>
      <trkpt lat="43.44666" lon="2.02482">
        <ele>269</ele>
        <time>2012-04-05T13:45:02Z</time>
      </trkpt>
      <trkpt lat="43.44664" lon="2.02491">
        <ele>269</ele>
        <time>2012-04-05T13:45:04Z</time>
      </trkpt>
      <trkpt lat="43.44661" lon="2.02497">
        <ele>269</ele>
        <time>2012-04-05T13:45:06Z</time>
      </trkpt>
      <trkpt lat="43.44658" lon="2.02501">
        <ele>269</ele>
        <time>2012-04-05T13:45:08Z</time>
      </trkpt>
      <trkpt lat="43.44658" lon="2.02505">
        <ele>269</ele>
        <time>2012-04-05T13:45:10Z</time>
      </trkpt>
      <trkpt lat="43.44659" lon="2.02505">
        <ele>269</ele>
        <time>2012-04-05T13:45:12Z</time>
      </trkpt>
      <trkpt lat="43.44661" lon="2.02504">
        <ele>269</ele>
        <time>2012-04-05T13:45:16Z</time>
      </trkpt>
      <trkpt lat="43.44662" lon="2.02504">
        <ele>269</ele>
        <time>2012-04-05T13:45:20Z</time>
      </trkpt>
      <trkpt lat="43.44663" lon="2.02505">
        <ele>269</ele>
        <time>2012-04-05T13:45:24Z</time>
      </trkpt>
      <trkpt lat="43.44664" lon="2.02507">
        <ele>269</ele>
        <time>2012-04-05T13:45:26Z</time>
      </trkpt>
      <trkpt lat="43.44664" lon="2.0251">
        <ele>269</ele>
        <time>2012-04-05T13:45:28Z</time>
      </trkpt>
      <trkpt lat="43.44666" lon="2.02514">
        <ele>269</ele>
        <time>2012-04-05T13:45:30Z</time>
      </trkpt>
      <trkpt lat="43.44669" lon="2.02516">
        <ele>269</ele>
        <time>2012-04-05T13:45:32Z</time>
      </trkpt>
      <trkpt lat="43.44672" lon="2.02518">
        <ele>269</ele>
        <time>2012-04-05T13:45:34Z</time>
      </trkpt>
      <trkpt lat="43.44675" lon="2.0252">
        <ele>269</ele>
        <time>2012-04-05T13:45:36Z</time>
      </trkpt>
      <trkpt lat="43.44678" lon="2.02521">
        <ele>269</ele>
        <time>2012-04-05T13:45:38Z</time>
      </trkpt>
      <trkpt lat="43.44681" lon="2.02523">
        <ele>269</ele>
        <time>2012-04-05T13:45:40Z</time>
      </trkpt>
      <trkpt lat="43.44683" lon="2.02526">
        <ele>269</ele>
        <time>2012-04-05T13:45:42Z</time>
      </trkpt>
      <trkpt lat="43.44684" lon="2.02529">
        <ele>269</ele>
        <time>2012-04-05T13:45:44Z</time>
      </trkpt>
      <trkpt lat="43.44684" lon="2.02533">
        <ele>269</ele>
        <time>2012-04-05T13:45:46Z</time>
      </trkpt>
      <trkpt lat="43.44684" lon="2.02537">
        <ele>269</ele>
        <time>2012-04-05T13:45:48Z</time>
      </trkpt>
      <trkpt lat="43.44684" lon="2.02541">
        <ele>269</ele>
        <time>2012-04-05T13:45:50Z</time>
      </trkpt>
      <trkpt lat="43.44684" lon="2.02545">
        <ele>270</ele>
        <time>2012-04-05T13:45:52Z</time>
      </trkpt>
      <trkpt lat="43.44685" lon="2.02549">
        <ele>271</ele>
        <time>2012-04-05T13:45:54Z</time>
      </trkpt>
      <trkpt lat="43.44685" lon="2.02553">
        <ele>272</ele>
        <time>2012-04-05T13:45:56Z</time>
      </trkpt>
      <trkpt lat="43.44685" lon="2.02557">
        <ele>272</ele>
        <time>2012-04-05T13:45:58Z</time>
      </trkpt>
      <trkpt lat="43.44685" lon="2.02562">
        <ele>273</ele>
        <time>2012-04-05T13:46:00Z</time>
      </trkpt>
      <trkpt lat="43.44685" lon="2.02566">
        <ele>274</ele>
        <time>2012-04-05T13:46:02Z</time>
      </trkpt>
      <trkpt lat="43.44684" lon="2.02571">
        <ele>275</ele>
        <time>2012-04-05T13:46:04Z</time>
      </trkpt>
      <trkpt lat="43.44685" lon="2.02575">
        <ele>276</ele>
        <time>2012-04-05T13:46:06Z</time>
      </trkpt>
      <trkpt lat="43.44685" lon="2.0258">
        <ele>276</ele>
        <time>2012-04-05T13:46:08Z</time>
      </trkpt>
      <trkpt lat="43.44685" lon="2.02584">
        <ele>277</ele>
        <time>2012-04-05T13:46:10Z</time>
      </trkpt>
      <trkpt lat="43.44683" lon="2.02588">
        <ele>278</ele>
        <time>2012-04-05T13:46:12Z</time>
      </trkpt>
      <trkpt lat="43.44681" lon="2.02589">
        <ele>279</ele>
        <time>2012-04-05T13:46:14Z</time>
      </trkpt>
      <trkpt lat="43.4468" lon="2.02588">
        <ele>281</ele>
        <time>2012-04-05T13:46:17Z</time>
      </trkpt>
      <trkpt lat="43.44677" lon="2.02588">
        <ele>282</ele>
        <time>2012-04-05T13:46:19Z</time>
      </trkpt>
      <trkpt lat="43.44674" lon="2.02589">
        <ele>282</ele>
        <time>2012-04-05T13:46:21Z</time>
      </trkpt>
      <trkpt lat="43.44671" lon="2.02589">
        <ele>283</ele>
        <time>2012-04-05T13:46:23Z</time>
      </trkpt>
      <trkpt lat="43.44668" lon="2.02592">
        <ele>284</ele>
        <time>2012-04-05T13:46:26Z</time>
      </trkpt>
      <trkpt lat="43.44667" lon="2.02595">
        <ele>285</ele>
        <time>2012-04-05T13:46:28Z</time>
      </trkpt>
      <trkpt lat="43.44667" lon="2.02599">
        <ele>285</ele>
        <time>2012-04-05T13:46:30Z</time>
      </trkpt>
      <trkpt lat="43.44667" lon="2.02603">
        <ele>286</ele>
        <time>2012-04-05T13:46:32Z</time>
      </trkpt>
      <trkpt lat="43.44667" lon="2.02607">
        <ele>286</ele>
        <time>2012-04-05T13:46:34Z</time>
      </trkpt>
      <trkpt lat="43.44667" lon="2.02612">
        <ele>287</ele>
        <time>2012-04-05T13:46:36Z</time>
      </trkpt>
      <trkpt lat="43.44667" lon="2.02617">
        <ele>287</ele>
        <time>2012-04-05T13:46:38Z</time>
      </trkpt>
      <trkpt lat="43.44667" lon="2.02622">
        <ele>288</ele>
        <time>2012-04-05T13:46:40Z</time>
      </trkpt>
      <trkpt lat="43.44666" lon="2.02626">
        <ele>288</ele>
        <time>2012-04-05T13:46:42Z</time>
      </trkpt>
      <trkpt lat="43.44666" lon="2.02632">
        <ele>289</ele>
        <time>2012-04-05T13:46:44Z</time>
      </trkpt>
      <trkpt lat="43.44666" lon="2.02637">
        <ele>289</ele>
        <time>2012-04-05T13:46:46Z</time>
      </trkpt>
      <trkpt lat="43.44665" lon="2.02642">
        <ele>290</ele>
        <time>2012-04-05T13:46:48Z</time>
      </trkpt>
      <trkpt lat="43.44664" lon="2.02646">
        <ele>290</ele>
        <time>2012-04-05T13:46:50Z</time>
      </trkpt>
      <trkpt lat="43.44665" lon="2.02652">
        <ele>291</ele>
        <time>2012-04-05T13:46:52Z</time>
      </trkpt>
      <trkpt lat="43.44665" lon="2.02659">
        <ele>291</ele>
        <time>2012-04-05T13:46:54Z</time>
      </trkpt>
      <trkpt lat="43.44664" lon="2.02666">
        <ele>291</ele>
        <time>2012-04-05T13:46:56Z</time>
      </trkpt>
      <trkpt lat="43.44662" lon="2.02672">
        <ele>291</ele>
        <time>2012-04-05T13:46:58Z</time>
      </trkpt>
      <trkpt lat="43.44663" lon="2.02677">
        <ele>291</ele>
        <time>2012-04-05T13:47:00Z</time>
      </trkpt>
      <trkpt lat="43.44665" lon="2.02684">
        <ele>291</ele>
        <time>2012-04-05T13:47:02Z</time>
      </trkpt>
      <trkpt lat="43.44664" lon="2.02691">
        <ele>291</ele>
        <time>2012-04-05T13:47:04Z</time>
      </trkpt>
      <trkpt lat="43.4466" lon="2.02695">
        <ele>291</ele>
        <time>2012-04-05T13:47:06Z</time>
      </trkpt>
      <trkpt lat="43.44659" lon="2.02702">
        <ele>291</ele>
        <time>2012-04-05T13:47:08Z</time>
      </trkpt>
      <trkpt lat="43.44658" lon="2.02711">
        <ele>292</ele>
        <time>2012-04-05T13:47:10Z</time>
      </trkpt>
      <trkpt lat="43.44657" lon="2.02718">
        <ele>292</ele>
        <time>2012-04-05T13:47:12Z</time>
      </trkpt>
      <trkpt lat="43.44656" lon="2.02725">
        <ele>292</ele>
        <time>2012-04-05T13:47:14Z</time>
      </trkpt>
      <trkpt lat="43.44656" lon="2.02735">
        <ele>292</ele>
        <time>2012-04-05T13:47:16Z</time>
      </trkpt>
      <trkpt lat="43.44655" lon="2.02747">
        <ele>292</ele>
        <time>2012-04-05T13:47:18Z</time>
      </trkpt>
      <trkpt lat="43.44653" lon="2.0276">
        <ele>292</ele>
        <time>2012-04-05T13:47:20Z</time>
      </trkpt>
      <trkpt lat="43.4465" lon="2.02776">
        <ele>292</ele>
        <time>2012-04-05T13:47:22Z</time>
      </trkpt>
      <trkpt lat="43.44647" lon="2.02789">
        <ele>292</ele>
        <time>2012-04-05T13:47:24Z</time>
      </trkpt>
      <trkpt lat="43.44642" lon="2.02799">
        <ele>291</ele>
        <time>2012-04-05T13:47:26Z</time>
      </trkpt>
      <trkpt lat="43.44636" lon="2.02809">
        <ele>290</ele>
        <time>2012-04-05T13:47:28Z</time>
      </trkpt>
      <trkpt lat="43.44635" lon="2.0282">
        <ele>289</ele>
        <time>2012-04-05T13:47:30Z</time>
      </trkpt>
      <trkpt lat="43.44642" lon="2.0283">
        <ele>288</ele>
        <time>2012-04-05T13:47:32Z</time>
      </trkpt>
      <trkpt lat="43.44647" lon="2.0284">
        <ele>288</ele>
        <time>2012-04-05T13:47:34Z</time>
      </trkpt>
      <trkpt lat="43.44651" lon="2.02845">
        <ele>288</ele>
        <time>2012-04-05T13:47:36Z</time>
      </trkpt>
      <trkpt lat="43.44654" lon="2.02849">
        <ele>288</ele>
        <time>2012-04-05T13:47:38Z</time>
      </trkpt>
      <trkpt lat="43.44656" lon="2.02855">
        <ele>288</ele>
        <time>2012-04-05T13:47:40Z</time>
      </trkpt>
      <trkpt lat="43.44656" lon="2.02861">
        <ele>288</ele>
        <time>2012-04-05T13:47:42Z</time>
      </trkpt>
      <trkpt lat="43.44659" lon="2.02868">
        <ele>288</ele>
        <time>2012-04-05T13:47:44Z</time>
      </trkpt>
      <trkpt lat="43.44662" lon="2.02875">
        <ele>288</ele>
        <time>2012-04-05T13:47:46Z</time>
      </trkpt>
      <trkpt lat="43.44664" lon="2.02882">
        <ele>288</ele>
        <time>2012-04-05T13:47:48Z</time>
      </trkpt>
      <trkpt lat="43.44668" lon="2.02887">
        <ele>288</ele>
        <time>2012-04-05T13:47:50Z</time>
      </trkpt>
      <trkpt lat="43.44672" lon="2.02892">
        <ele>288</ele>
        <time>2012-04-05T13:47:52Z</time>
      </trkpt>
      <trkpt lat="43.44674" lon="2.02899">
        <ele>288</ele>
        <time>2012-04-05T13:47:54Z</time>
      </trkpt>
      <trkpt lat="43.44674" lon="2.02907">
        <ele>288</ele>
        <time>2012-04-05T13:47:56Z</time>
      </trkpt>
      <trkpt lat="43.44675" lon="2.02913">
        <ele>288</ele>
        <time>2012-04-05T13:47:58Z</time>
      </trkpt>
      <trkpt lat="43.44676" lon="2.0292">
        <ele>288</ele>
        <time>2012-04-05T13:48:00Z</time>
      </trkpt>
      <trkpt lat="43.4468" lon="2.02933">
        <ele>288</ele>
        <time>2012-04-05T13:48:03Z</time>
      </trkpt>
      <trkpt lat="43.4468" lon="2.02943">
        <ele>288</ele>
        <time>2012-04-05T13:48:05Z</time>
      </trkpt>
      <trkpt lat="43.4468" lon="2.02953">
        <ele>288</ele>
        <time>2012-04-05T13:48:07Z</time>
      </trkpt>
      <trkpt lat="43.44681" lon="2.02966">
        <ele>288</ele>
        <time>2012-04-05T13:48:09Z</time>
      </trkpt>
      <trkpt lat="43.4468" lon="2.02979">
        <ele>288</ele>
        <time>2012-04-05T13:48:11Z</time>
      </trkpt>
      <trkpt lat="43.4468" lon="2.02989">
        <ele>288</ele>
        <time>2012-04-05T13:48:13Z</time>
      </trkpt>
      <trkpt lat="43.44682" lon="2.02994">
        <ele>288</ele>
        <time>2012-04-05T13:48:15Z</time>
      </trkpt>
      <trkpt lat="43.44686" lon="2.02997">
        <ele>288</ele>
        <time>2012-04-05T13:48:17Z</time>
      </trkpt>
      <trkpt lat="43.44687" lon="2.03003">
        <ele>288</ele>
        <time>2012-04-05T13:48:19Z</time>
      </trkpt>
      <trkpt lat="43.44685" lon="2.03009">
        <ele>288</ele>
        <time>2012-04-05T13:48:21Z</time>
      </trkpt>
      <trkpt lat="43.44685" lon="2.03014">
        <ele>288</ele>
        <time>2012-04-05T13:48:23Z</time>
      </trkpt>
      <trkpt lat="43.44685" lon="2.03021">
        <ele>288</ele>
        <time>2012-04-05T13:48:25Z</time>
      </trkpt>
      <trkpt lat="43.44682" lon="2.03028">
        <ele>288</ele>
        <time>2012-04-05T13:48:27Z</time>
      </trkpt>
      <trkpt lat="43.4468" lon="2.03035">
        <ele>288</ele>
        <time>2012-04-05T13:48:29Z</time>
      </trkpt>
      <trkpt lat="43.44676" lon="2.03043">
        <ele>288</ele>
        <time>2012-04-05T13:48:31Z</time>
      </trkpt>
      <trkpt lat="43.44672" lon="2.03051">
        <ele>288</ele>
        <time>2012-04-05T13:48:33Z</time>
      </trkpt>
      <trkpt lat="43.44667" lon="2.03061">
        <ele>288</ele>
        <time>2012-04-05T13:48:35Z</time>
      </trkpt>
      <trkpt lat="43.44663" lon="2.0307">
        <ele>288</ele>
        <time>2012-04-05T13:48:37Z</time>
      </trkpt>
      <trkpt lat="43.44657" lon="2.0308">
        <ele>288</ele>
        <time>2012-04-05T13:48:39Z</time>
      </trkpt>
      <trkpt lat="43.44651" lon="2.03089">
        <ele>288</ele>
        <time>2012-04-05T13:48:41Z</time>
      </trkpt>
      <trkpt lat="43.44644" lon="2.03098">
        <ele>287</ele>
        <time>2012-04-05T13:48:43Z</time>
      </trkpt>
      <trkpt lat="43.44637" lon="2.03105">
        <ele>287</ele>
        <time>2012-04-05T13:48:45Z</time>
      </trkpt>
      <trkpt lat="43.44632" lon="2.0311">
        <ele>287</ele>
        <time>2012-04-05T13:48:47Z</time>
      </trkpt>
      <trkpt lat="43.44629" lon="2.03112">
        <ele>287</ele>
        <time>2012-04-05T13:48:49Z</time>
      </trkpt>
      <trkpt lat="43.44626" lon="2.03116">
        <ele>287</ele>
        <time>2012-04-05T13:48:51Z</time>
      </trkpt>
      <trkpt lat="43.44622" lon="2.03119">
        <ele>287</ele>
        <time>2012-04-05T13:48:53Z</time>
      </trkpt>
      <trkpt lat="43.44619" lon="2.0312">
        <ele>287</ele>
        <time>2012-04-05T13:48:55Z</time>
      </trkpt>
      <trkpt lat="43.44616" lon="2.03122">
        <ele>287</ele>
        <time>2012-04-05T13:48:57Z</time>
      </trkpt>
      <trkpt lat="43.44613" lon="2.03122">
        <ele>287</ele>
        <time>2012-04-05T13:48:59Z</time>
      </trkpt>
      <trkpt lat="43.4461" lon="2.03122">
        <ele>287</ele>
        <time>2012-04-05T13:49:01Z</time>
      </trkpt>
      <trkpt lat="43.44606" lon="2.03123">
        <ele>288</ele>
        <time>2012-04-05T13:49:03Z</time>
      </trkpt>
      <trkpt lat="43.44603" lon="2.03123">
        <ele>289</ele>
        <time>2012-04-05T13:49:05Z</time>
      </trkpt>
      <trkpt lat="43.446" lon="2.03124">
        <ele>290</ele>
        <time>2012-04-05T13:49:07Z</time>
      </trkpt>
      <trkpt lat="43.44597" lon="2.03124">
        <ele>291</ele>
        <time>2012-04-05T13:49:09Z</time>
      </trkpt>
      <trkpt lat="43.44594" lon="2.03123">
        <ele>291</ele>
        <time>2012-04-05T13:49:11Z</time>
      </trkpt>
      <trkpt lat="43.44591" lon="2.03122">
        <ele>292</ele>
        <time>2012-04-05T13:49:13Z</time>
      </trkpt>
      <trkpt lat="43.44588" lon="2.03121">
        <ele>294</ele>
        <time>2012-04-05T13:49:15Z</time>
      </trkpt>
      <trkpt lat="43.44586" lon="2.0312">
        <ele>295</ele>
        <time>2012-04-05T13:49:17Z</time>
      </trkpt>
      <trkpt lat="43.44582" lon="2.03119">
        <ele>297</ele>
        <time>2012-04-05T13:49:19Z</time>
      </trkpt>
      <trkpt lat="43.44578" lon="2.03116">
        <ele>299</ele>
        <time>2012-04-05T13:49:22Z</time>
      </trkpt>
      <trkpt lat="43.44575" lon="2.03115">
        <ele>301</ele>
        <time>2012-04-05T13:49:24Z</time>
      </trkpt>
      <trkpt lat="43.44572" lon="2.03114">
        <ele>302</ele>
        <time>2012-04-05T13:49:26Z</time>
      </trkpt>
      <trkpt lat="43.4457" lon="2.03113">
        <ele>302</ele>
        <time>2012-04-05T13:49:28Z</time>
      </trkpt>
      <trkpt lat="43.44567" lon="2.03111">
        <ele>303</ele>
        <time>2012-04-05T13:49:30Z</time>
      </trkpt>
      <trkpt lat="43.44565" lon="2.03109">
        <ele>304</ele>
        <time>2012-04-05T13:49:32Z</time>
      </trkpt>
      <trkpt lat="43.44562" lon="2.03106">
        <ele>305</ele>
        <time>2012-04-05T13:49:34Z</time>
      </trkpt>
      <trkpt lat="43.44559" lon="2.03103">
        <ele>305</ele>
        <time>2012-04-05T13:49:36Z</time>
      </trkpt>
      <trkpt lat="43.44555" lon="2.03102">
        <ele>306</ele>
        <time>2012-04-05T13:49:38Z</time>
      </trkpt>
      <trkpt lat="43.44545" lon="2.03096">
        <ele>306</ele>
        <time>2012-04-05T13:49:41Z</time>
      </trkpt>
      <trkpt lat="43.44538" lon="2.03096">
        <ele>306</ele>
        <time>2012-04-05T13:49:43Z</time>
      </trkpt>
      <trkpt lat="43.44529" lon="2.03103">
        <ele>306</ele>
        <time>2012-04-05T13:49:46Z</time>
      </trkpt>
      <trkpt lat="43.44525" lon="2.03108">
        <ele>306</ele>
        <time>2012-04-05T13:49:48Z</time>
      </trkpt>
      <trkpt lat="43.44521" lon="2.03113">
        <ele>306</ele>
        <time>2012-04-05T13:49:50Z</time>
      </trkpt>
      <trkpt lat="43.44516" lon="2.03116">
        <ele>307</ele>
        <time>2012-04-05T13:49:52Z</time>
      </trkpt>
      <trkpt lat="43.44508" lon="2.0312">
        <ele>309</ele>
        <time>2012-04-05T13:49:55Z</time>
      </trkpt>
      <trkpt lat="43.445" lon="2.03119">
        <ele>311</ele>
        <time>2012-04-05T13:49:58Z</time>
      </trkpt>
      <trkpt lat="43.44493" lon="2.03118">
        <ele>311</ele>
        <time>2012-04-05T13:50:01Z</time>
      </trkpt>
      <trkpt lat="43.44489" lon="2.03116">
        <ele>312</ele>
        <time>2012-04-05T13:50:03Z</time>
      </trkpt>
      <trkpt lat="43.44482" lon="2.03114">
        <ele>313</ele>
        <time>2012-04-05T13:50:06Z</time>
      </trkpt>
      <trkpt lat="43.44478" lon="2.03112">
        <ele>313</ele>
        <time>2012-04-05T13:50:08Z</time>
      </trkpt>
      <trkpt lat="43.44474" lon="2.03111">
        <ele>313</ele>
        <time>2012-04-05T13:50:10Z</time>
      </trkpt>
      <trkpt lat="43.44468" lon="2.03115">
        <ele>313</ele>
        <time>2012-04-05T13:50:13Z</time>
      </trkpt>
      <trkpt lat="43.44465" lon="2.03121">
        <ele>313</ele>
        <time>2012-04-05T13:50:15Z</time>
      </trkpt>
      <trkpt lat="43.44463" lon="2.03128">
        <ele>313</ele>
        <time>2012-04-05T13:50:17Z</time>
      </trkpt>
      <trkpt lat="43.44461" lon="2.03134">
        <ele>313</ele>
        <time>2012-04-05T13:50:19Z</time>
      </trkpt>
      <trkpt lat="43.44457" lon="2.03137">
        <ele>313</ele>
        <time>2012-04-05T13:50:21Z</time>
      </trkpt>
      <trkpt lat="43.44451" lon="2.03142">
        <ele>313</ele>
        <time>2012-04-05T13:50:23Z</time>
      </trkpt>
      <trkpt lat="43.44443" lon="2.03145">
        <ele>313</ele>
        <time>2012-04-05T13:50:25Z</time>
      </trkpt>
      <trkpt lat="43.4443" lon="2.03146">
        <ele>313</ele>
        <time>2012-04-05T13:50:28Z</time>
      </trkpt>
      <trkpt lat="43.44423" lon="2.03149">
        <ele>313</ele>
        <time>2012-04-05T13:50:30Z</time>
      </trkpt>
      <trkpt lat="43.44421" lon="2.03163">
        <ele>314</ele>
        <time>2012-04-05T13:50:33Z</time>
      </trkpt>
      <trkpt lat="43.44418" lon="2.03171">
        <ele>314</ele>
        <time>2012-04-05T13:50:35Z</time>
      </trkpt>
      <trkpt lat="43.44415" lon="2.03176">
        <ele>315</ele>
        <time>2012-04-05T13:50:37Z</time>
      </trkpt>
      <trkpt lat="43.44411" lon="2.03182">
        <ele>316</ele>
        <time>2012-04-05T13:50:39Z</time>
      </trkpt>
      <trkpt lat="43.44407" lon="2.03189">
        <ele>317</ele>
        <time>2012-04-05T13:50:41Z</time>
      </trkpt>
      <trkpt lat="43.44402" lon="2.03196">
        <ele>319</ele>
        <time>2012-04-05T13:50:43Z</time>
      </trkpt>
      <trkpt lat="43.44398" lon="2.03202">
        <ele>321</ele>
        <time>2012-04-05T13:50:45Z</time>
      </trkpt>
      <trkpt lat="43.44392" lon="2.03214">
        <ele>322</ele>
        <time>2012-04-05T13:50:48Z</time>
      </trkpt>
      <trkpt lat="43.44386" lon="2.03219">
        <ele>322</ele>
        <time>2012-04-05T13:50:50Z</time>
      </trkpt>
      <trkpt lat="43.44378" lon="2.03225">
        <ele>322</ele>
        <time>2012-04-05T13:50:53Z</time>
      </trkpt>
      <trkpt lat="43.44373" lon="2.03229">
        <ele>322</ele>
        <time>2012-04-05T13:50:55Z</time>
      </trkpt>
      <trkpt lat="43.44366" lon="2.03233">
        <ele>324</ele>
        <time>2012-04-05T13:50:58Z</time>
      </trkpt>
      <trkpt lat="43.4436" lon="2.03237">
        <ele>325</ele>
        <time>2012-04-05T13:51:01Z</time>
      </trkpt>
      <trkpt lat="43.44359" lon="2.03241">
        <ele>325</ele>
        <time>2012-04-05T13:51:03Z</time>
      </trkpt>
      <trkpt lat="43.44361" lon="2.0324">
        <ele>325</ele>
        <time>2012-04-05T13:51:05Z</time>
      </trkpt>
      <trkpt lat="43.44364" lon="2.03239">
        <ele>325</ele>
        <time>2012-04-05T13:51:07Z</time>
      </trkpt>
      <trkpt lat="43.44368" lon="2.03237">
        <ele>325</ele>
        <time>2012-04-05T13:51:09Z</time>
      </trkpt>
      <trkpt lat="43.44374" lon="2.03236">
        <ele>325</ele>
        <time>2012-04-05T13:51:11Z</time>
      </trkpt>
      <trkpt lat="43.44379" lon="2.03235">
        <ele>325</ele>
        <time>2012-04-05T13:51:13Z</time>
      </trkpt>
      <trkpt lat="43.44385" lon="2.03233">
        <ele>325</ele>
        <time>2012-04-05T13:51:15Z</time>
      </trkpt>
      <trkpt lat="43.4439" lon="2.03233">
        <ele>325</ele>
        <time>2012-04-05T13:51:17Z</time>
      </trkpt>
      <trkpt lat="43.44395" lon="2.0323">
        <ele>325</ele>
        <time>2012-04-05T13:51:19Z</time>
      </trkpt>
      <trkpt lat="43.44401" lon="2.03227">
        <ele>325</ele>
        <time>2012-04-05T13:51:21Z</time>
      </trkpt>
      <trkpt lat="43.44408" lon="2.03225">
        <ele>324</ele>
        <time>2012-04-05T13:51:23Z</time>
      </trkpt>
      <trkpt lat="43.44414" lon="2.03222">
        <ele>322</ele>
        <time>2012-04-05T13:51:25Z</time>
      </trkpt>
      <trkpt lat="43.44419" lon="2.03224">
        <ele>320</ele>
        <time>2012-04-05T13:51:27Z</time>
      </trkpt>
      <trkpt lat="43.44421" lon="2.03228">
        <ele>318</ele>
        <time>2012-04-05T13:51:29Z</time>
      </trkpt>
      <trkpt lat="43.44421" lon="2.03232">
        <ele>316</ele>
        <time>2012-04-05T13:51:31Z</time>
      </trkpt>
      <trkpt lat="43.44422" lon="2.03237">
        <ele>315</ele>
        <time>2012-04-05T13:51:33Z</time>
      </trkpt>
      <trkpt lat="43.44424" lon="2.03243">
        <ele>315</ele>
        <time>2012-04-05T13:51:35Z</time>
      </trkpt>
      <trkpt lat="43.44429" lon="2.03249">
        <ele>314</ele>
        <time>2012-04-05T13:51:37Z</time>
      </trkpt>
      <trkpt lat="43.44436" lon="2.03255">
        <ele>312</ele>
        <time>2012-04-05T13:51:40Z</time>
      </trkpt>
      <trkpt lat="43.44439" lon="2.03257">
        <ele>311</ele>
        <time>2012-04-05T13:51:42Z</time>
      </trkpt>
      <trkpt lat="43.44446" lon="2.03257">
        <ele>309</ele>
        <time>2012-04-05T13:51:45Z</time>
      </trkpt>
      <trkpt lat="43.4445" lon="2.03259">
        <ele>309</ele>
        <time>2012-04-05T13:51:47Z</time>
      </trkpt>
      <trkpt lat="43.44454" lon="2.0326">
        <ele>308</ele>
        <time>2012-04-05T13:51:49Z</time>
      </trkpt>
      <trkpt lat="43.44459" lon="2.03261">
        <ele>307</ele>
        <time>2012-04-05T13:51:51Z</time>
      </trkpt>
      <trkpt lat="43.44462" lon="2.03264">
        <ele>306</ele>
        <time>2012-04-05T13:51:55Z</time>
      </trkpt>
      <trkpt lat="43.44464" lon="2.03263">
        <ele>306</ele>
        <time>2012-04-05T13:51:58Z</time>
      </trkpt>
      <trkpt lat="43.44465" lon="2.03261">
        <ele>306</ele>
        <time>2012-04-05T13:52:00Z</time>
      </trkpt>
      <trkpt lat="43.44466" lon="2.03261">
        <ele>306</ele>
        <time>2012-04-05T13:52:02Z</time>
      </trkpt>
      <trkpt lat="43.44467" lon="2.03263">
        <ele>306</ele>
        <time>2012-04-05T13:52:05Z</time>
      </trkpt>
      <trkpt lat="43.44468" lon="2.03266">
        <ele>306</ele>
        <time>2012-04-05T13:52:07Z</time>
      </trkpt>
      <trkpt lat="43.44469" lon="2.03266">
        <ele>306</ele>
        <time>2012-04-05T13:52:10Z</time>
      </trkpt>
      <trkpt lat="43.44472" lon="2.03267">
        <ele>306</ele>
        <time>2012-04-05T13:52:15Z</time>
      </trkpt>
      <trkpt lat="43.44479" lon="2.0327">
        <ele>306</ele>
        <time>2012-04-05T13:52:18Z</time>
      </trkpt>
      <trkpt lat="43.44486" lon="2.03276">
        <ele>306</ele>
        <time>2012-04-05T13:52:20Z</time>
      </trkpt>
      <trkpt lat="43.44497" lon="2.03281">
        <ele>305</ele>
        <time>2012-04-05T13:52:23Z</time>
      </trkpt>
      <trkpt lat="43.44504" lon="2.03279">
        <ele>304</ele>
        <time>2012-04-05T13:52:25Z</time>
      </trkpt>
      <trkpt lat="43.44512" lon="2.03278">
        <ele>303</ele>
        <time>2012-04-05T13:52:27Z</time>
      </trkpt>
      <trkpt lat="43.44524" lon="2.03273">
        <ele>302</ele>
        <time>2012-04-05T13:52:30Z</time>
      </trkpt>
      <trkpt lat="43.44532" lon="2.03273">
        <ele>302</ele>
        <time>2012-04-05T13:52:32Z</time>
      </trkpt>
      <trkpt lat="43.4454" lon="2.03272">
        <ele>301</ele>
        <time>2012-04-05T13:52:34Z</time>
      </trkpt>
      <trkpt lat="43.4455" lon="2.03268">
        <ele>299</ele>
        <time>2012-04-05T13:52:36Z</time>
      </trkpt>
      <trkpt lat="43.4456" lon="2.03266">
        <ele>298</ele>
        <time>2012-04-05T13:52:38Z</time>
      </trkpt>
      <trkpt lat="43.44574" lon="2.03263">
        <ele>296</ele>
        <time>2012-04-05T13:52:41Z</time>
      </trkpt>
      <trkpt lat="43.44586" lon="2.03261">
        <ele>295</ele>
        <time>2012-04-05T13:52:43Z</time>
      </trkpt>
      <trkpt lat="43.44604" lon="2.0326">
        <ele>293</ele>
        <time>2012-04-05T13:52:46Z</time>
      </trkpt>
      <trkpt lat="43.44621" lon="2.03267">
        <ele>291</ele>
        <time>2012-04-05T13:52:49Z</time>
      </trkpt>
      <trkpt lat="43.4463" lon="2.03279">
        <ele>290</ele>
        <time>2012-04-05T13:52:51Z</time>
      </trkpt>
      <trkpt lat="43.44635" lon="2.03303">
        <ele>288</ele>
        <time>2012-04-05T13:52:55Z</time>
      </trkpt>
      <trkpt lat="43.44636" lon="2.03333">
        <ele>287</ele>
        <time>2012-04-05T13:52:57Z</time>
      </trkpt>
      <trkpt lat="43.44635" lon="2.03353">
        <ele>287</ele>
        <time>2012-04-05T13:52:59Z</time>
      </trkpt>
      <trkpt lat="43.44638" lon="2.03384">
        <ele>286</ele>
        <time>2012-04-05T13:53:02Z</time>
      </trkpt>
      <trkpt lat="43.4464" lon="2.03402">
        <ele>285</ele>
        <time>2012-04-05T13:53:04Z</time>
      </trkpt>
      <trkpt lat="43.4464" lon="2.03421">
        <ele>284</ele>
        <time>2012-04-05T13:53:06Z</time>
      </trkpt>
      <trkpt lat="43.4464" lon="2.03437">
        <ele>283</ele>
        <time>2012-04-05T13:53:08Z</time>
      </trkpt>
      <trkpt lat="43.44641" lon="2.03451">
        <ele>282</ele>
        <time>2012-04-05T13:53:10Z</time>
      </trkpt>
      <trkpt lat="43.44646" lon="2.03459">
        <ele>281</ele>
        <time>2012-04-05T13:53:12Z</time>
      </trkpt>
      <trkpt lat="43.44663" lon="2.03456">
        <ele>278</ele>
        <time>2012-04-05T13:53:15Z</time>
      </trkpt>
      <trkpt lat="43.4468" lon="2.03453">
        <ele>275</ele>
        <time>2012-04-05T13:53:18Z</time>
      </trkpt>
      <trkpt lat="43.44694" lon="2.03444">
        <ele>273</ele>
        <time>2012-04-05T13:53:20Z</time>
      </trkpt>
      <trkpt lat="43.44705" lon="2.0344">
        <ele>270</ele>
        <time>2012-04-05T13:53:22Z</time>
      </trkpt>
      <trkpt lat="43.44718" lon="2.03436">
        <ele>268</ele>
        <time>2012-04-05T13:53:24Z</time>
      </trkpt>
      <trkpt lat="43.44737" lon="2.03429">
        <ele>265</ele>
        <time>2012-04-05T13:53:27Z</time>
      </trkpt>
      <trkpt lat="43.4475" lon="2.03425">
        <ele>263</ele>
        <time>2012-04-05T13:53:29Z</time>
      </trkpt>
      <trkpt lat="43.44763" lon="2.03423">
        <ele>261</ele>
        <time>2012-04-05T13:53:31Z</time>
      </trkpt>
      <trkpt lat="43.44781" lon="2.03427">
        <ele>260</ele>
        <time>2012-04-05T13:53:34Z</time>
      </trkpt>
      <trkpt lat="43.44792" lon="2.03432">
        <ele>260</ele>
        <time>2012-04-05T13:53:36Z</time>
      </trkpt>
      <trkpt lat="43.44806" lon="2.03441">
        <ele>260</ele>
        <time>2012-04-05T13:53:39Z</time>
      </trkpt>
      <trkpt lat="43.44819" lon="2.0344">
        <ele>260</ele>
        <time>2012-04-05T13:53:42Z</time>
      </trkpt>
      <trkpt lat="43.44825" lon="2.03432">
        <ele>260</ele>
        <time>2012-04-05T13:53:44Z</time>
      </trkpt>
      <trkpt lat="43.44834" lon="2.03416">
        <ele>260</ele>
        <time>2012-04-05T13:53:47Z</time>
      </trkpt>
      <trkpt lat="43.4484" lon="2.03405">
        <ele>260</ele>
        <time>2012-04-05T13:53:49Z</time>
      </trkpt>
      <trkpt lat="43.44853" lon="2.03388">
        <ele>260</ele>
        <time>2012-04-05T13:53:52Z</time>
      </trkpt>
      <trkpt lat="43.4487" lon="2.03383">
        <ele>259</ele>
        <time>2012-04-05T13:53:55Z</time>
      </trkpt>
      <trkpt lat="43.44887" lon="2.03402">
        <ele>257</ele>
        <time>2012-04-05T13:53:58Z</time>
      </trkpt>
      <trkpt lat="43.44899" lon="2.03417">
        <ele>255</ele>
        <time>2012-04-05T13:54:00Z</time>
      </trkpt>
      <trkpt lat="43.44917" lon="2.03425">
        <ele>252</ele>
        <time>2012-04-05T13:54:03Z</time>
      </trkpt>
      <trkpt lat="43.44927" lon="2.03427">
        <ele>250</ele>
        <time>2012-04-05T13:54:05Z</time>
      </trkpt>
      <trkpt lat="43.44935" lon="2.03439">
        <ele>248</ele>
        <time>2012-04-05T13:54:07Z</time>
      </trkpt>
      <trkpt lat="43.44942" lon="2.03452">
        <ele>246</ele>
        <time>2012-04-05T13:54:09Z</time>
      </trkpt>
      <trkpt lat="43.44945" lon="2.03463">
        <ele>244</ele>
        <time>2012-04-05T13:54:11Z</time>
      </trkpt>
      <trkpt lat="43.44946" lon="2.03474">
        <ele>242</ele>
        <time>2012-04-05T13:54:13Z</time>
      </trkpt>
      <trkpt lat="43.44948" lon="2.03487">
        <ele>241</ele>
        <time>2012-04-05T13:54:15Z</time>
      </trkpt>
      <trkpt lat="43.44949" lon="2.03501">
        <ele>241</ele>
        <time>2012-04-05T13:54:17Z</time>
      </trkpt>
      <trkpt lat="43.44952" lon="2.03515">
        <ele>240</ele>
        <time>2012-04-05T13:54:19Z</time>
      </trkpt>
      <trkpt lat="43.44956" lon="2.0353">
        <ele>240</ele>
        <time>2012-04-05T13:54:21Z</time>
      </trkpt>
      <trkpt lat="43.44961" lon="2.03553">
        <ele>240</ele>
        <time>2012-04-05T13:54:24Z</time>
      </trkpt>
      <trkpt lat="43.44964" lon="2.03577">
        <ele>240</ele>
        <time>2012-04-05T13:54:27Z</time>
      </trkpt>
      <trkpt lat="43.44967" lon="2.036">
        <ele>240</ele>
        <time>2012-04-05T13:54:30Z</time>
      </trkpt>
      <trkpt lat="43.44969" lon="2.03616">
        <ele>240</ele>
        <time>2012-04-05T13:54:32Z</time>
      </trkpt>
      <trkpt lat="43.44971" lon="2.03633">
        <ele>240</ele>
        <time>2012-04-05T13:54:34Z</time>
      </trkpt>
      <trkpt lat="43.44972" lon="2.03651">
        <ele>240</ele>
        <time>2012-04-05T13:54:36Z</time>
      </trkpt>
      <trkpt lat="43.44975" lon="2.03678">
        <ele>240</ele>
        <time>2012-04-05T13:54:39Z</time>
      </trkpt>
      <trkpt lat="43.44978" lon="2.03696">
        <ele>240</ele>
        <time>2012-04-05T13:54:41Z</time>
      </trkpt>
      <trkpt lat="43.44981" lon="2.03715">
        <ele>240</ele>
        <time>2012-04-05T13:54:43Z</time>
      </trkpt>
      <trkpt lat="43.44982" lon="2.03733">
        <ele>240</ele>
        <time>2012-04-05T13:54:45Z</time>
      </trkpt>
      <trkpt lat="43.44983" lon="2.03752">
        <ele>240</ele>
        <time>2012-04-05T13:54:47Z</time>
      </trkpt>
      <trkpt lat="43.44985" lon="2.03769">
        <ele>240</ele>
        <time>2012-04-05T13:54:49Z</time>
      </trkpt>
      <trkpt lat="43.44986" lon="2.03787">
        <ele>240</ele>
        <time>2012-04-05T13:54:51Z</time>
      </trkpt>
      <trkpt lat="43.44988" lon="2.03806">
        <ele>240</ele>
        <time>2012-04-05T13:54:53Z</time>
      </trkpt>
      <trkpt lat="43.4499" lon="2.03824">
        <ele>240</ele>
        <time>2012-04-05T13:54:55Z</time>
      </trkpt>
      <trkpt lat="43.44993" lon="2.03851">
        <ele>240</ele>
        <time>2012-04-05T13:54:58Z</time>
      </trkpt>
      <trkpt lat="43.44995" lon="2.03869">
        <ele>240</ele>
        <time>2012-04-05T13:55:00Z</time>
      </trkpt>
      <trkpt lat="43.44998" lon="2.03896">
        <ele>240</ele>
        <time>2012-04-05T13:55:03Z</time>
      </trkpt>
      <trkpt lat="43.45" lon="2.03913">
        <ele>240</ele>
        <time>2012-04-05T13:55:05Z</time>
      </trkpt>
      <trkpt lat="43.45001" lon="2.03931">
        <ele>240</ele>
        <time>2012-04-05T13:55:07Z</time>
      </trkpt>
      <trkpt lat="43.45003" lon="2.03947">
        <ele>240</ele>
        <time>2012-04-05T13:55:09Z</time>
      </trkpt>
      <trkpt lat="43.45005" lon="2.03964">
        <ele>240</ele>
        <time>2012-04-05T13:55:11Z</time>
      </trkpt>
      <trkpt lat="43.45007" lon="2.0398">
        <ele>240</ele>
        <time>2012-04-05T13:55:13Z</time>
      </trkpt>
      <trkpt lat="43.45009" lon="2.03997">
        <ele>240</ele>
        <time>2012-04-05T13:55:15Z</time>
      </trkpt>
      <trkpt lat="43.4501" lon="2.04013">
        <ele>240</ele>
        <time>2012-04-05T13:55:17Z</time>
      </trkpt>
      <trkpt lat="43.45012" lon="2.0403">
        <ele>240</ele>
        <time>2012-04-05T13:55:19Z</time>
      </trkpt>
      <trkpt lat="43.45014" lon="2.04047">
        <ele>240</ele>
        <time>2012-04-05T13:55:21Z</time>
      </trkpt>
      <trkpt lat="43.45016" lon="2.04064">
        <ele>240</ele>
        <time>2012-04-05T13:55:23Z</time>
      </trkpt>
      <trkpt lat="43.45018" lon="2.04081">
        <ele>240</ele>
        <time>2012-04-05T13:55:25Z</time>
      </trkpt>
      <trkpt lat="43.4502" lon="2.04098">
        <ele>240</ele>
        <time>2012-04-05T13:55:27Z</time>
      </trkpt>
      <trkpt lat="43.45021" lon="2.04115">
        <ele>240</ele>
        <time>2012-04-05T13:55:29Z</time>
      </trkpt>
      <trkpt lat="43.45023" lon="2.04133">
        <ele>240</ele>
        <time>2012-04-05T13:55:31Z</time>
      </trkpt>
      <trkpt lat="43.45025" lon="2.0415">
        <ele>240</ele>
        <time>2012-04-05T13:55:33Z</time>
      </trkpt>
      <trkpt lat="43.45027" lon="2.04167">
        <ele>240</ele>
        <time>2012-04-05T13:55:35Z</time>
      </trkpt>
      <trkpt lat="43.4503" lon="2.04192">
        <ele>240</ele>
        <time>2012-04-05T13:55:38Z</time>
      </trkpt>
      <trkpt lat="43.45032" lon="2.04209">
        <ele>240</ele>
        <time>2012-04-05T13:55:40Z</time>
      </trkpt>
      <trkpt lat="43.45034" lon="2.04226">
        <ele>240</ele>
        <time>2012-04-05T13:55:42Z</time>
      </trkpt>
      <trkpt lat="43.45036" lon="2.04243">
        <ele>240</ele>
        <time>2012-04-05T13:55:44Z</time>
      </trkpt>
      <trkpt lat="43.45038" lon="2.0426">
        <ele>240</ele>
        <time>2012-04-05T13:55:46Z</time>
      </trkpt>
      <trkpt lat="43.4504" lon="2.04277">
        <ele>240</ele>
        <time>2012-04-05T13:55:48Z</time>
      </trkpt>
      <trkpt lat="43.45042" lon="2.04294">
        <ele>240</ele>
        <time>2012-04-05T13:55:50Z</time>
      </trkpt>
      <trkpt lat="43.45044" lon="2.04311">
        <ele>240</ele>
        <time>2012-04-05T13:55:52Z</time>
      </trkpt>
      <trkpt lat="43.45046" lon="2.04336">
        <ele>240</ele>
        <time>2012-04-05T13:55:55Z</time>
      </trkpt>
      <trkpt lat="43.45049" lon="2.04362">
        <ele>240</ele>
        <time>2012-04-05T13:55:58Z</time>
      </trkpt>
      <trkpt lat="43.45051" lon="2.04379">
        <ele>240</ele>
        <time>2012-04-05T13:56:00Z</time>
      </trkpt>
      <trkpt lat="43.45053" lon="2.04396">
        <ele>240</ele>
        <time>2012-04-05T13:56:02Z</time>
      </trkpt>
      <trkpt lat="43.45055" lon="2.04413">
        <ele>240</ele>
        <time>2012-04-05T13:56:04Z</time>
      </trkpt>
      <trkpt lat="43.45058" lon="2.04438">
        <ele>240</ele>
        <time>2012-04-05T13:56:07Z</time>
      </trkpt>
      <trkpt lat="43.4506" lon="2.04455">
        <ele>240</ele>
        <time>2012-04-05T13:56:09Z</time>
      </trkpt>
      <trkpt lat="43.45062" lon="2.04472">
        <ele>240</ele>
        <time>2012-04-05T13:56:11Z</time>
      </trkpt>
      <trkpt lat="43.45065" lon="2.04497">
        <ele>240</ele>
        <time>2012-04-05T13:56:14Z</time>
      </trkpt>
      <trkpt lat="43.45067" lon="2.04514">
        <ele>240</ele>
        <time>2012-04-05T13:56:16Z</time>
      </trkpt>
      <trkpt lat="43.45069" lon="2.0453">
        <ele>240</ele>
        <time>2012-04-05T13:56:18Z</time>
      </trkpt>
      <trkpt lat="43.45072" lon="2.04554">
        <ele>240</ele>
        <time>2012-04-05T13:56:21Z</time>
      </trkpt>
      <trkpt lat="43.45074" lon="2.0457">
        <ele>240</ele>
        <time>2012-04-05T13:56:23Z</time>
      </trkpt>
      <trkpt lat="43.45076" lon="2.04586">
        <ele>240</ele>
        <time>2012-04-05T13:56:25Z</time>
      </trkpt>
      <trkpt lat="43.45078" lon="2.04602">
        <ele>240</ele>
        <time>2012-04-05T13:56:27Z</time>
      </trkpt>
      <trkpt lat="43.4508" lon="2.04618">
        <ele>240</ele>
        <time>2012-04-05T13:56:29Z</time>
      </trkpt>
      <trkpt lat="43.45079" lon="2.0463">
        <ele>240</ele>
        <time>2012-04-05T13:56:31Z</time>
      </trkpt>
      <trkpt lat="43.45069" lon="2.04632">
        <ele>240</ele>
        <time>2012-04-05T13:56:34Z</time>
      </trkpt>
      <trkpt lat="43.4506" lon="2.04628">
        <ele>240</ele>
        <time>2012-04-05T13:56:36Z</time>
      </trkpt>
      <trkpt lat="43.45045" lon="2.04619">
        <ele>240</ele>
        <time>2012-04-05T13:56:39Z</time>
      </trkpt>
      <trkpt lat="43.4503" lon="2.04612">
        <ele>240</ele>
        <time>2012-04-05T13:56:42Z</time>
      </trkpt>
      <trkpt lat="43.45019" lon="2.04608">
        <ele>240</ele>
        <time>2012-04-05T13:56:44Z</time>
      </trkpt>
      <trkpt lat="43.45005" lon="2.04602">
        <ele>240</ele>
        <time>2012-04-05T13:56:47Z</time>
      </trkpt>
      <trkpt lat="43.44994" lon="2.04598">
        <ele>240</ele>
        <time>2012-04-05T13:56:49Z</time>
      </trkpt>
      <trkpt lat="43.44984" lon="2.04594">
        <ele>240</ele>
        <time>2012-04-05T13:56:51Z</time>
      </trkpt>
      <trkpt lat="43.44969" lon="2.04588">
        <ele>240</ele>
        <time>2012-04-05T13:56:54Z</time>
      </trkpt>
      <trkpt lat="43.44959" lon="2.04584">
        <ele>240</ele>
        <time>2012-04-05T13:56:56Z</time>
      </trkpt>
      <trkpt lat="43.44944" lon="2.04578">
        <ele>241</ele>
        <time>2012-04-05T13:56:59Z</time>
      </trkpt>
      <trkpt lat="43.44934" lon="2.04575">
        <ele>241</ele>
        <time>2012-04-05T13:57:01Z</time>
      </trkpt>
      <trkpt lat="43.44925" lon="2.04571">
        <ele>241</ele>
        <time>2012-04-05T13:57:03Z</time>
      </trkpt>
      <trkpt lat="43.44911" lon="2.04565">
        <ele>242</ele>
        <time>2012-04-05T13:57:06Z</time>
      </trkpt>
      <trkpt lat="43.44901" lon="2.04562">
        <ele>242</ele>
        <time>2012-04-05T13:57:08Z</time>
      </trkpt>
      <trkpt lat="43.44887" lon="2.04556">
        <ele>243</ele>
        <time>2012-04-05T13:57:11Z</time>
      </trkpt>
      <trkpt lat="43.44873" lon="2.04551">
        <ele>244</ele>
        <time>2012-04-05T13:57:14Z</time>
      </trkpt>
      <trkpt lat="43.44863" lon="2.04548">
        <ele>244</ele>
        <time>2012-04-05T13:57:16Z</time>
      </trkpt>
      <trkpt lat="43.44854" lon="2.04544">
        <ele>245</ele>
        <time>2012-04-05T13:57:18Z</time>
      </trkpt>
      <trkpt lat="43.44845" lon="2.04541">
        <ele>245</ele>
        <time>2012-04-05T13:57:20Z</time>
      </trkpt>
      <trkpt lat="43.44836" lon="2.04538">
        <ele>245</ele>
        <time>2012-04-05T13:57:22Z</time>
      </trkpt>
      <trkpt lat="43.44823" lon="2.04533">
        <ele>246</ele>
        <time>2012-04-05T13:57:25Z</time>
      </trkpt>
      <trkpt lat="43.44815" lon="2.0453">
        <ele>247</ele>
        <time>2012-04-05T13:57:27Z</time>
      </trkpt>
      <trkpt lat="43.44802" lon="2.04525">
        <ele>248</ele>
        <time>2012-04-05T13:57:30Z</time>
      </trkpt>
      <trkpt lat="43.44793" lon="2.04522">
        <ele>248</ele>
        <time>2012-04-05T13:57:32Z</time>
      </trkpt>
      <trkpt lat="43.44782" lon="2.04519">
        <ele>249</ele>
        <time>2012-04-05T13:57:35Z</time>
      </trkpt>
      <trkpt lat="43.44775" lon="2.04528">
        <ele>250</ele>
        <time>2012-04-05T13:57:38Z</time>
      </trkpt>
      <trkpt lat="43.44771" lon="2.04541">
        <ele>251</ele>
        <time>2012-04-05T13:57:41Z</time>
      </trkpt>
      <trkpt lat="43.44768" lon="2.0455">
        <ele>251</ele>
        <time>2012-04-05T13:57:43Z</time>
      </trkpt>
      <trkpt lat="43.44764" lon="2.04563">
        <ele>251</ele>
        <time>2012-04-05T13:57:46Z</time>
      </trkpt>
      <trkpt lat="43.44762" lon="2.04572">
        <ele>252</ele>
        <time>2012-04-05T13:57:48Z</time>
      </trkpt>
      <trkpt lat="43.44759" lon="2.04584">
        <ele>252</ele>
        <time>2012-04-05T13:57:51Z</time>
      </trkpt>
      <trkpt lat="43.44756" lon="2.04591">
        <ele>252</ele>
        <time>2012-04-05T13:57:53Z</time>
      </trkpt>
      <trkpt lat="43.44754" lon="2.04599">
        <ele>252</ele>
        <time>2012-04-05T13:57:55Z</time>
      </trkpt>
      <trkpt lat="43.44752" lon="2.04607">
        <ele>252</ele>
        <time>2012-04-05T13:57:57Z</time>
      </trkpt>
      <trkpt lat="43.44751" lon="2.04615">
        <ele>252</ele>
        <time>2012-04-05T13:57:59Z</time>
      </trkpt>
      <trkpt lat="43.44748" lon="2.04629">
        <ele>252</ele>
        <time>2012-04-05T13:58:02Z</time>
      </trkpt>
      <trkpt lat="43.44744" lon="2.04641">
        <ele>252</ele>
        <time>2012-04-05T13:58:04Z</time>
      </trkpt>
      <trkpt lat="43.44738" lon="2.04664">
        <ele>252</ele>
        <time>2012-04-05T13:58:07Z</time>
      </trkpt>
      <trkpt lat="43.44734" lon="2.04681">
        <ele>252</ele>
        <time>2012-04-05T13:58:09Z</time>
      </trkpt>
      <trkpt lat="43.44729" lon="2.04699">
        <ele>252</ele>
        <time>2012-04-05T13:58:11Z</time>
      </trkpt>
      <trkpt lat="43.44726" lon="2.04718">
        <ele>252</ele>
        <time>2012-04-05T13:58:13Z</time>
      </trkpt>
      <trkpt lat="43.44722" lon="2.04737">
        <ele>252</ele>
        <time>2012-04-05T13:58:15Z</time>
      </trkpt>
      <trkpt lat="43.44716" lon="2.04762">
        <ele>252</ele>
        <time>2012-04-05T13:58:18Z</time>
      </trkpt>
      <trkpt lat="43.44711" lon="2.04777">
        <ele>252</ele>
        <time>2012-04-05T13:58:20Z</time>
      </trkpt>
      <trkpt lat="43.44699" lon="2.04789">
        <ele>252</ele>
        <time>2012-04-05T13:58:23Z</time>
      </trkpt>
      <trkpt lat="43.44693" lon="2.04791">
        <ele>252</ele>
        <time>2012-04-05T13:58:25Z</time>
      </trkpt>
      <trkpt lat="43.44686" lon="2.0479">
        <ele>253</ele>
        <time>2012-04-05T13:58:28Z</time>
      </trkpt>
      <trkpt lat="43.44681" lon="2.04789">
        <ele>254</ele>
        <time>2012-04-05T13:58:30Z</time>
      </trkpt>
      <trkpt lat="43.44677" lon="2.04788">
        <ele>255</ele>
        <time>2012-04-05T13:58:33Z</time>
      </trkpt>
      <trkpt lat="43.4467" lon="2.04788">
        <ele>256</ele>
        <time>2012-04-05T13:58:35Z</time>
      </trkpt>
      <trkpt lat="43.44665" lon="2.04789">
        <ele>257</ele>
        <time>2012-04-05T13:58:37Z</time>
      </trkpt>
      <trkpt lat="43.44656" lon="2.0479">
        <ele>258</ele>
        <time>2012-04-05T13:58:40Z</time>
      </trkpt>
      <trkpt lat="43.44651" lon="2.04792">
        <ele>259</ele>
        <time>2012-04-05T13:58:42Z</time>
      </trkpt>
      <trkpt lat="43.44645" lon="2.04794">
        <ele>259</ele>
        <time>2012-04-05T13:58:44Z</time>
      </trkpt>
      <trkpt lat="43.44637" lon="2.04798">
        <ele>260</ele>
        <time>2012-04-05T13:58:47Z</time>
      </trkpt>
      <trkpt lat="43.4463" lon="2.04803">
        <ele>261</ele>
        <time>2012-04-05T13:58:50Z</time>
      </trkpt>
      <trkpt lat="43.44624" lon="2.04807">
        <ele>262</ele>
        <time>2012-04-05T13:58:52Z</time>
      </trkpt>
      <trkpt lat="43.44617" lon="2.04813">
        <ele>263</ele>
        <time>2012-04-05T13:58:55Z</time>
      </trkpt>
      <trkpt lat="43.44611" lon="2.04817">
        <ele>263</ele>
        <time>2012-04-05T13:58:57Z</time>
      </trkpt>
      <trkpt lat="43.44603" lon="2.04822">
        <ele>264</ele>
        <time>2012-04-05T13:59:00Z</time>
      </trkpt>
      <trkpt lat="43.44598" lon="2.04826">
        <ele>264</ele>
        <time>2012-04-05T13:59:02Z</time>
      </trkpt>
      <trkpt lat="43.4459" lon="2.04833">
        <ele>265</ele>
        <time>2012-04-05T13:59:05Z</time>
      </trkpt>
      <trkpt lat="43.44585" lon="2.04836">
        <ele>266</ele>
        <time>2012-04-05T13:59:07Z</time>
      </trkpt>
      <trkpt lat="43.44577" lon="2.04841">
        <ele>267</ele>
        <time>2012-04-05T13:59:10Z</time>
      </trkpt>
      <trkpt lat="43.44572" lon="2.04846">
        <ele>267</ele>
        <time>2012-04-05T13:59:12Z</time>
      </trkpt>
      <trkpt lat="43.44564" lon="2.04852">
        <ele>268</ele>
        <time>2012-04-05T13:59:15Z</time>
      </trkpt>
      <trkpt lat="43.44559" lon="2.04856">
        <ele>269</ele>
        <time>2012-04-05T13:59:17Z</time>
      </trkpt>
      <trkpt lat="43.44554" lon="2.04859">
        <ele>269</ele>
        <time>2012-04-05T13:59:19Z</time>
      </trkpt>
      <trkpt lat="43.44547" lon="2.04865">
        <ele>270</ele>
        <time>2012-04-05T13:59:22Z</time>
      </trkpt>
      <trkpt lat="43.4454" lon="2.0487">
        <ele>271</ele>
        <time>2012-04-05T13:59:25Z</time>
      </trkpt>
      <trkpt lat="43.44535" lon="2.04874">
        <ele>271</ele>
        <time>2012-04-05T13:59:27Z</time>
      </trkpt>
      <trkpt lat="43.44528" lon="2.04879">
        <ele>272</ele>
        <time>2012-04-05T13:59:30Z</time>
      </trkpt>
      <trkpt lat="43.44523" lon="2.04882">
        <ele>272</ele>
        <time>2012-04-05T13:59:32Z</time>
      </trkpt>
      <trkpt lat="43.44516" lon="2.04887">
        <ele>272</ele>
        <time>2012-04-05T13:59:35Z</time>
      </trkpt>
      <trkpt lat="43.44511" lon="2.0489">
        <ele>273</ele>
        <time>2012-04-05T13:59:37Z</time>
      </trkpt>
      <trkpt lat="43.44505" lon="2.04895">
        <ele>273</ele>
        <time>2012-04-05T13:59:40Z</time>
      </trkpt>
      <trkpt lat="43.445" lon="2.04898">
        <ele>274</ele>
        <time>2012-04-05T13:59:42Z</time>
      </trkpt>
      <trkpt lat="43.44495" lon="2.04901">
        <ele>274</ele>
        <time>2012-04-05T13:59:44Z</time>
      </trkpt>
      <trkpt lat="43.44488" lon="2.04905">
        <ele>275</ele>
        <time>2012-04-05T13:59:47Z</time>
      </trkpt>
      <trkpt lat="43.44481" lon="2.04909">
        <ele>276</ele>
        <time>2012-04-05T13:59:50Z</time>
      </trkpt>
      <trkpt lat="43.44476" lon="2.04912">
        <ele>276</ele>
        <time>2012-04-05T13:59:52Z</time>
      </trkpt>
      <trkpt lat="43.44468" lon="2.04916">
        <ele>278</ele>
        <time>2012-04-05T13:59:55Z</time>
      </trkpt>
      <trkpt lat="43.44463" lon="2.04917">
        <ele>279</ele>
        <time>2012-04-05T13:59:57Z</time>
      </trkpt>
      <trkpt lat="43.44456" lon="2.04918">
        <ele>279</ele>
        <time>2012-04-05T14:00:00Z</time>
      </trkpt>
      <trkpt lat="43.44451" lon="2.0492">
        <ele>280</ele>
        <time>2012-04-05T14:00:02Z</time>
      </trkpt>
      <trkpt lat="43.44445" lon="2.04925">
        <ele>281</ele>
        <time>2012-04-05T14:00:05Z</time>
      </trkpt>
      <trkpt lat="43.44442" lon="2.04929">
        <ele>281</ele>
        <time>2012-04-05T14:00:07Z</time>
      </trkpt>
      <trkpt lat="43.44437" lon="2.04936">
        <ele>282</ele>
        <time>2012-04-05T14:00:10Z</time>
      </trkpt>
      <trkpt lat="43.44434" lon="2.04941">
        <ele>283</ele>
        <time>2012-04-05T14:00:12Z</time>
      </trkpt>
      <trkpt lat="43.44429" lon="2.04947">
        <ele>284</ele>
        <time>2012-04-05T14:00:15Z</time>
      </trkpt>
      <trkpt lat="43.44426" lon="2.04951">
        <ele>285</ele>
        <time>2012-04-05T14:00:17Z</time>
      </trkpt>
      <trkpt lat="43.44421" lon="2.04957">
        <ele>285</ele>
        <time>2012-04-05T14:00:20Z</time>
      </trkpt>
      <trkpt lat="43.44418" lon="2.0496">
        <ele>286</ele>
        <time>2012-04-05T14:00:22Z</time>
      </trkpt>
      <trkpt lat="43.44413" lon="2.04963">
        <ele>287</ele>
        <time>2012-04-05T14:00:25Z</time>
      </trkpt>
      <trkpt lat="43.44409" lon="2.04964">
        <ele>288</ele>
        <time>2012-04-05T14:00:27Z</time>
      </trkpt>
      <trkpt lat="43.44403" lon="2.04967">
        <ele>289</ele>
        <time>2012-04-05T14:00:30Z</time>
      </trkpt>
      <trkpt lat="43.44399" lon="2.04968">
        <ele>289</ele>
        <time>2012-04-05T14:00:32Z</time>
      </trkpt>
      <trkpt lat="43.44393" lon="2.04968">
        <ele>290</ele>
        <time>2012-04-05T14:00:35Z</time>
      </trkpt>
      <trkpt lat="43.44389" lon="2.04967">
        <ele>291</ele>
        <time>2012-04-05T14:00:37Z</time>
      </trkpt>
      <trkpt lat="43.44383" lon="2.04966">
        <ele>292</ele>
        <time>2012-04-05T14:00:40Z</time>
      </trkpt>
      <trkpt lat="43.44379" lon="2.04965">
        <ele>293</ele>
        <time>2012-04-05T14:00:42Z</time>
      </trkpt>
      <trkpt lat="43.44373" lon="2.04963">
        <ele>294</ele>
        <time>2012-04-05T14:00:45Z</time>
      </trkpt>
      <trkpt lat="43.4437" lon="2.04962">
        <ele>294</ele>
        <time>2012-04-05T14:00:47Z</time>
      </trkpt>
      <trkpt lat="43.44363" lon="2.04961">
        <ele>295</ele>
        <time>2012-04-05T14:00:50Z</time>
      </trkpt>
      <trkpt lat="43.44359" lon="2.0496">
        <ele>296</ele>
        <time>2012-04-05T14:00:52Z</time>
      </trkpt>
      <trkpt lat="43.44353" lon="2.04959">
        <ele>297</ele>
        <time>2012-04-05T14:00:55Z</time>
      </trkpt>
      <trkpt lat="43.44349" lon="2.04959">
        <ele>298</ele>
        <time>2012-04-05T14:00:57Z</time>
      </trkpt>
      <trkpt lat="43.44343" lon="2.04958">
        <ele>298</ele>
        <time>2012-04-05T14:01:00Z</time>
      </trkpt>
      <trkpt lat="43.44339" lon="2.04958">
        <ele>299</ele>
        <time>2012-04-05T14:01:02Z</time>
      </trkpt>
      <trkpt lat="43.44332" lon="2.04958">
        <ele>300</ele>
        <time>2012-04-05T14:01:05Z</time>
      </trkpt>
      <trkpt lat="43.44327" lon="2.04959">
        <ele>300</ele>
        <time>2012-04-05T14:01:07Z</time>
      </trkpt>
      <trkpt lat="43.4432" lon="2.0496">
        <ele>300</ele>
        <time>2012-04-05T14:01:10Z</time>
      </trkpt>
      <trkpt lat="43.44315" lon="2.04961">
        <ele>301</ele>
        <time>2012-04-05T14:01:12Z</time>
      </trkpt>
      <trkpt lat="43.44308" lon="2.04963">
        <ele>301</ele>
        <time>2012-04-05T14:01:15Z</time>
      </trkpt>
      <trkpt lat="43.44303" lon="2.04964">
        <ele>301</ele>
        <time>2012-04-05T14:01:17Z</time>
      </trkpt>
      <trkpt lat="43.44295" lon="2.04967">
        <ele>302</ele>
        <time>2012-04-05T14:01:20Z</time>
      </trkpt>
      <trkpt lat="43.4429" lon="2.04969">
        <ele>302</ele>
        <time>2012-04-05T14:01:22Z</time>
      </trkpt>
      <trkpt lat="43.44283" lon="2.04972">
        <ele>303</ele>
        <time>2012-04-05T14:01:25Z</time>
      </trkpt>
      <trkpt lat="43.44277" lon="2.04974">
        <ele>303</ele>
        <time>2012-04-05T14:01:27Z</time>
      </trkpt>
      <trkpt lat="43.44269" lon="2.04979">
        <ele>303</ele>
        <time>2012-04-05T14:01:30Z</time>
      </trkpt>
      <trkpt lat="43.44264" lon="2.04983">
        <ele>303</ele>
        <time>2012-04-05T14:01:32Z</time>
      </trkpt>
      <trkpt lat="43.44257" lon="2.04991">
        <ele>304</ele>
        <time>2012-04-05T14:01:35Z</time>
      </trkpt>
      <trkpt lat="43.44252" lon="2.04996">
        <ele>304</ele>
        <time>2012-04-05T14:01:37Z</time>
      </trkpt>
      <trkpt lat="43.44245" lon="2.05005">
        <ele>304</ele>
        <time>2012-04-05T14:01:40Z</time>
      </trkpt>
      <trkpt lat="43.44241" lon="2.05011">
        <ele>304</ele>
        <time>2012-04-05T14:01:42Z</time>
      </trkpt>
      <trkpt lat="43.44235" lon="2.05022">
        <ele>304</ele>
        <time>2012-04-05T14:01:45Z</time>
      </trkpt>
      <trkpt lat="43.44231" lon="2.05029">
        <ele>304</ele>
        <time>2012-04-05T14:01:47Z</time>
      </trkpt>
      <trkpt lat="43.44226" lon="2.0504">
        <ele>304</ele>
        <time>2012-04-05T14:01:50Z</time>
      </trkpt>
      <trkpt lat="43.44223" lon="2.05048">
        <ele>304</ele>
        <time>2012-04-05T14:01:52Z</time>
      </trkpt>
      <trkpt lat="43.44218" lon="2.05059">
        <ele>304</ele>
        <time>2012-04-05T14:01:55Z</time>
      </trkpt>
      <trkpt lat="43.44215" lon="2.05067">
        <ele>304</ele>
        <time>2012-04-05T14:01:57Z</time>
      </trkpt>
      <trkpt lat="43.44211" lon="2.05078">
        <ele>305</ele>
        <time>2012-04-05T14:02:00Z</time>
      </trkpt>
      <trkpt lat="43.44208" lon="2.05085">
        <ele>305</ele>
        <time>2012-04-05T14:02:02Z</time>
      </trkpt>
      <trkpt lat="43.44204" lon="2.05096">
        <ele>305</ele>
        <time>2012-04-05T14:02:05Z</time>
      </trkpt>
      <trkpt lat="43.44202" lon="2.05103">
        <ele>306</ele>
        <time>2012-04-05T14:02:07Z</time>
      </trkpt>
      <trkpt lat="43.44198" lon="2.05114">
        <ele>306</ele>
        <time>2012-04-05T14:02:10Z</time>
      </trkpt>
      <trkpt lat="43.44195" lon="2.0512">
        <ele>306</ele>
        <time>2012-04-05T14:02:12Z</time>
      </trkpt>
      <trkpt lat="43.44192" lon="2.05131">
        <ele>307</ele>
        <time>2012-04-05T14:02:15Z</time>
      </trkpt>
      <trkpt lat="43.4419" lon="2.05139">
        <ele>307</ele>
        <time>2012-04-05T14:02:17Z</time>
      </trkpt>
      <trkpt lat="43.44187" lon="2.0515">
        <ele>308</ele>
        <time>2012-04-05T14:02:20Z</time>
      </trkpt>
      <trkpt lat="43.44186" lon="2.05157">
        <ele>309</ele>
        <time>2012-04-05T14:02:22Z</time>
      </trkpt>
      <trkpt lat="43.44182" lon="2.05168">
        <ele>310</ele>
        <time>2012-04-05T14:02:25Z</time>
      </trkpt>
      <trkpt lat="43.44178" lon="2.05172">
        <ele>311</ele>
        <time>2012-04-05T14:02:27Z</time>
      </trkpt>
      <trkpt lat="43.44171" lon="2.05172">
        <ele>312</ele>
        <time>2012-04-05T14:02:30Z</time>
      </trkpt>
      <trkpt lat="43.44165" lon="2.05172">
        <ele>312</ele>
        <time>2012-04-05T14:02:32Z</time>
      </trkpt>
      <trkpt lat="43.44158" lon="2.05173">
        <ele>312</ele>
        <time>2012-04-05T14:02:35Z</time>
      </trkpt>
      <trkpt lat="43.44154" lon="2.05174">
        <ele>312</ele>
        <time>2012-04-05T14:02:37Z</time>
      </trkpt>
      <trkpt lat="43.44147" lon="2.05174">
        <ele>313</ele>
        <time>2012-04-05T14:02:40Z</time>
      </trkpt>
      <trkpt lat="43.44143" lon="2.05175">
        <ele>314</ele>
        <time>2012-04-05T14:02:42Z</time>
      </trkpt>
      <trkpt lat="43.44136" lon="2.05175">
        <ele>315</ele>
        <time>2012-04-05T14:02:45Z</time>
      </trkpt>
      <trkpt lat="43.44133" lon="2.05175">
        <ele>315</ele>
        <time>2012-04-05T14:02:47Z</time>
      </trkpt>
      <trkpt lat="43.44126" lon="2.05175">
        <ele>316</ele>
        <time>2012-04-05T14:02:50Z</time>
      </trkpt>
      <trkpt lat="43.44122" lon="2.05175">
        <ele>317</ele>
        <time>2012-04-05T14:02:52Z</time>
      </trkpt>
      <trkpt lat="43.44116" lon="2.05175">
        <ele>318</ele>
        <time>2012-04-05T14:02:55Z</time>
      </trkpt>
      <trkpt lat="43.44112" lon="2.05175">
        <ele>319</ele>
        <time>2012-04-05T14:02:57Z</time>
      </trkpt>
      <trkpt lat="43.44106" lon="2.05175">
        <ele>320</ele>
        <time>2012-04-05T14:03:00Z</time>
      </trkpt>
      <trkpt lat="43.441" lon="2.05175">
        <ele>321</ele>
        <time>2012-04-05T14:03:03Z</time>
      </trkpt>
      <trkpt lat="43.44096" lon="2.05175">
        <ele>321</ele>
        <time>2012-04-05T14:03:05Z</time>
      </trkpt>
      <trkpt lat="43.44092" lon="2.05175">
        <ele>322</ele>
        <time>2012-04-05T14:03:07Z</time>
      </trkpt>
      <trkpt lat="43.44086" lon="2.05175">
        <ele>322</ele>
        <time>2012-04-05T14:03:10Z</time>
      </trkpt>
      <trkpt lat="43.44082" lon="2.05175">
        <ele>322</ele>
        <time>2012-04-05T14:03:12Z</time>
      </trkpt>
      <trkpt lat="43.44078" lon="2.05175">
        <ele>323</ele>
        <time>2012-04-05T14:03:14Z</time>
      </trkpt>
      <trkpt lat="43.44075" lon="2.05174">
        <ele>323</ele>
        <time>2012-04-05T14:03:16Z</time>
      </trkpt>
      <trkpt lat="43.44071" lon="2.05174">
        <ele>323</ele>
        <time>2012-04-05T14:03:18Z</time>
      </trkpt>
      <trkpt lat="43.44067" lon="2.05175">
        <ele>323</ele>
        <time>2012-04-05T14:03:20Z</time>
      </trkpt>
      <trkpt lat="43.44064" lon="2.05175">
        <ele>324</ele>
        <time>2012-04-05T14:03:22Z</time>
      </trkpt>
      <trkpt lat="43.44061" lon="2.05176">
        <ele>324</ele>
        <time>2012-04-05T14:03:24Z</time>
      </trkpt>
      <trkpt lat="43.44057" lon="2.05177">
        <ele>325</ele>
        <time>2012-04-05T14:03:26Z</time>
      </trkpt>
      <trkpt lat="43.44053" lon="2.05178">
        <ele>326</ele>
        <time>2012-04-05T14:03:28Z</time>
      </trkpt>
      <trkpt lat="43.44048" lon="2.0518">
        <ele>327</ele>
        <time>2012-04-05T14:03:31Z</time>
      </trkpt>
      <trkpt lat="43.44045" lon="2.05181">
        <ele>327</ele>
        <time>2012-04-05T14:03:33Z</time>
      </trkpt>
      <trkpt lat="43.4404" lon="2.05183">
        <ele>328</ele>
        <time>2012-04-05T14:03:36Z</time>
      </trkpt>
      <trkpt lat="43.44037" lon="2.05185">
        <ele>328</ele>
        <time>2012-04-05T14:03:38Z</time>
      </trkpt>
      <trkpt lat="43.44032" lon="2.05187">
        <ele>328</ele>
        <time>2012-04-05T14:03:41Z</time>
      </trkpt>
      <trkpt lat="43.44029" lon="2.05188">
        <ele>328</ele>
        <time>2012-04-05T14:03:43Z</time>
      </trkpt>
      <trkpt lat="43.44024" lon="2.0519">
        <ele>329</ele>
        <time>2012-04-05T14:03:46Z</time>
      </trkpt>
      <trkpt lat="43.44021" lon="2.05191">
        <ele>330</ele>
        <time>2012-04-05T14:03:48Z</time>
      </trkpt>
      <trkpt lat="43.44017" lon="2.05194">
        <ele>331</ele>
        <time>2012-04-05T14:03:51Z</time>
      </trkpt>
      <trkpt lat="43.44014" lon="2.05196">
        <ele>332</ele>
        <time>2012-04-05T14:03:53Z</time>
      </trkpt>
      <trkpt lat="43.44009" lon="2.05197">
        <ele>334</ele>
        <time>2012-04-05T14:03:56Z</time>
      </trkpt>
      <trkpt lat="43.44006" lon="2.05197">
        <ele>335</ele>
        <time>2012-04-05T14:03:58Z</time>
      </trkpt>
      <trkpt lat="43.44001" lon="2.05197">
        <ele>336</ele>
        <time>2012-04-05T14:04:01Z</time>
      </trkpt>
      <trkpt lat="43.43998" lon="2.05198">
        <ele>337</ele>
        <time>2012-04-05T14:04:03Z</time>
      </trkpt>
      <trkpt lat="43.43994" lon="2.052">
        <ele>338</ele>
        <time>2012-04-05T14:04:06Z</time>
      </trkpt>
      <trkpt lat="43.43991" lon="2.05201">
        <ele>339</ele>
        <time>2012-04-05T14:04:08Z</time>
      </trkpt>
      <trkpt lat="43.43987" lon="2.05202">
        <ele>340</ele>
        <time>2012-04-05T14:04:11Z</time>
      </trkpt>
      <trkpt lat="43.43983" lon="2.05204">
        <ele>340</ele>
        <time>2012-04-05T14:04:13Z</time>
      </trkpt>
      <trkpt lat="43.43979" lon="2.05206">
        <ele>341</ele>
        <time>2012-04-05T14:04:16Z</time>
      </trkpt>
      <trkpt lat="43.43975" lon="2.05207">
        <ele>342</ele>
        <time>2012-04-05T14:04:18Z</time>
      </trkpt>
      <trkpt lat="43.43971" lon="2.05209">
        <ele>343</ele>
        <time>2012-04-05T14:04:21Z</time>
      </trkpt>
      <trkpt lat="43.43967" lon="2.05211">
        <ele>343</ele>
        <time>2012-04-05T14:04:23Z</time>
      </trkpt>
      <trkpt lat="43.43964" lon="2.05212">
        <ele>344</ele>
        <time>2012-04-05T14:04:25Z</time>
      </trkpt>
      <trkpt lat="43.43958" lon="2.05214">
        <ele>344</ele>
        <time>2012-04-05T14:04:28Z</time>
      </trkpt>
      <trkpt lat="43.43953" lon="2.05217">
        <ele>345</ele>
        <time>2012-04-05T14:04:31Z</time>
      </trkpt>
      <trkpt lat="43.43948" lon="2.05218">
        <ele>346</ele>
        <time>2012-04-05T14:04:33Z</time>
      </trkpt>
      <trkpt lat="43.43942" lon="2.05221">
        <ele>346</ele>
        <time>2012-04-05T14:04:36Z</time>
      </trkpt>
      <trkpt lat="43.43938" lon="2.05223">
        <ele>347</ele>
        <time>2012-04-05T14:04:38Z</time>
      </trkpt>
      <trkpt lat="43.43933" lon="2.05228">
        <ele>348</ele>
        <time>2012-04-05T14:04:41Z</time>
      </trkpt>
      <trkpt lat="43.43929" lon="2.05232">
        <ele>348</ele>
        <time>2012-04-05T14:04:43Z</time>
      </trkpt>
      <trkpt lat="43.43923" lon="2.05238">
        <ele>349</ele>
        <time>2012-04-05T14:04:46Z</time>
      </trkpt>
      <trkpt lat="43.43919" lon="2.05242">
        <ele>349</ele>
        <time>2012-04-05T14:04:48Z</time>
      </trkpt>
      <trkpt lat="43.43916" lon="2.05245">
        <ele>350</ele>
        <time>2012-04-05T14:04:50Z</time>
      </trkpt>
      <trkpt lat="43.43912" lon="2.0525">
        <ele>351</ele>
        <time>2012-04-05T14:04:52Z</time>
      </trkpt>
      <trkpt lat="43.43908" lon="2.05256">
        <ele>351</ele>
        <time>2012-04-05T14:04:54Z</time>
      </trkpt>
      <trkpt lat="43.43903" lon="2.05264">
        <ele>351</ele>
        <time>2012-04-05T14:04:57Z</time>
      </trkpt>
      <trkpt lat="43.43899" lon="2.05269">
        <ele>351</ele>
        <time>2012-04-05T14:04:59Z</time>
      </trkpt>
      <trkpt lat="43.43893" lon="2.05278">
        <ele>351</ele>
        <time>2012-04-05T14:05:02Z</time>
      </trkpt>
      <trkpt lat="43.43889" lon="2.05282">
        <ele>351</ele>
        <time>2012-04-05T14:05:04Z</time>
      </trkpt>
      <trkpt lat="43.43884" lon="2.0529">
        <ele>352</ele>
        <time>2012-04-05T14:05:07Z</time>
      </trkpt>
      <trkpt lat="43.4388" lon="2.05294">
        <ele>352</ele>
        <time>2012-04-05T14:05:09Z</time>
      </trkpt>
      <trkpt lat="43.43874" lon="2.05301">
        <ele>352</ele>
        <time>2012-04-05T14:05:12Z</time>
      </trkpt>
      <trkpt lat="43.43871" lon="2.05306">
        <ele>353</ele>
        <time>2012-04-05T14:05:14Z</time>
      </trkpt>
      <trkpt lat="43.43866" lon="2.05312">
        <ele>354</ele>
        <time>2012-04-05T14:05:17Z</time>
      </trkpt>
      <trkpt lat="43.43863" lon="2.05315">
        <ele>354</ele>
        <time>2012-04-05T14:05:19Z</time>
      </trkpt>
      <trkpt lat="43.4386" lon="2.05321">
        <ele>355</ele>
        <time>2012-04-05T14:05:22Z</time>
      </trkpt>
      <trkpt lat="43.43858" lon="2.05325">
        <ele>356</ele>
        <time>2012-04-05T14:05:24Z</time>
      </trkpt>
      <trkpt lat="43.43855" lon="2.05331">
        <ele>358</ele>
        <time>2012-04-05T14:05:28Z</time>
      </trkpt>
      <trkpt lat="43.43853" lon="2.05334">
        <ele>359</ele>
        <time>2012-04-05T14:05:30Z</time>
      </trkpt>
      <trkpt lat="43.43852" lon="2.05337">
        <ele>360</ele>
        <time>2012-04-05T14:05:32Z</time>
      </trkpt>
      <trkpt lat="43.4385" lon="2.0534">
        <ele>361</ele>
        <time>2012-04-05T14:05:34Z</time>
      </trkpt>
      <trkpt lat="43.43846" lon="2.05345">
        <ele>363</ele>
        <time>2012-04-05T14:05:38Z</time>
      </trkpt>
      <trkpt lat="43.43844" lon="2.05348">
        <ele>364</ele>
        <time>2012-04-05T14:05:40Z</time>
      </trkpt>
      <trkpt lat="43.43841" lon="2.0535">
        <ele>365</ele>
        <time>2012-04-05T14:05:42Z</time>
      </trkpt>
      <trkpt lat="43.43838" lon="2.05353">
        <ele>366</ele>
        <time>2012-04-05T14:05:45Z</time>
      </trkpt>
      <trkpt lat="43.43837" lon="2.05359">
        <ele>367</ele>
        <time>2012-04-05T14:05:48Z</time>
      </trkpt>
      <trkpt lat="43.43838" lon="2.05364">
        <ele>368</ele>
        <time>2012-04-05T14:05:50Z</time>
      </trkpt>
      <trkpt lat="43.43838" lon="2.05378">
        <ele>368</ele>
        <time>2012-04-05T14:05:53Z</time>
      </trkpt>
      <trkpt lat="43.43839" lon="2.05392">
        <ele>368</ele>
        <time>2012-04-05T14:05:55Z</time>
      </trkpt>
      <trkpt lat="43.4384" lon="2.05417">
        <ele>368</ele>
        <time>2012-04-05T14:05:58Z</time>
      </trkpt>
      <trkpt lat="43.43845" lon="2.05434">
        <ele>368</ele>
        <time>2012-04-05T14:06:00Z</time>
      </trkpt>
      <trkpt lat="43.43851" lon="2.05454">
        <ele>368</ele>
        <time>2012-04-05T14:06:02Z</time>
      </trkpt>
      <trkpt lat="43.43861" lon="2.05473">
        <ele>368</ele>
        <time>2012-04-05T14:06:04Z</time>
      </trkpt>
      <trkpt lat="43.43873" lon="2.05493">
        <ele>370</ele>
        <time>2012-04-05T14:06:06Z</time>
      </trkpt>
      <trkpt lat="43.43883" lon="2.05513">
        <ele>372</ele>
        <time>2012-04-05T14:06:08Z</time>
      </trkpt>
      <trkpt lat="43.4389" lon="2.05532">
        <ele>372</ele>
        <time>2012-04-05T14:06:10Z</time>
      </trkpt>
      <trkpt lat="43.439" lon="2.05557">
        <ele>371</ele>
        <time>2012-04-05T14:06:13Z</time>
      </trkpt>
      <trkpt lat="43.439" lon="2.05572">
        <ele>369</ele>
        <time>2012-04-05T14:06:15Z</time>
      </trkpt>
      <trkpt lat="43.43889" lon="2.05587">
        <ele>368</ele>
        <time>2012-04-05T14:06:18Z</time>
      </trkpt>
      <trkpt lat="43.43882" lon="2.05594">
        <ele>367</ele>
        <time>2012-04-05T14:06:20Z</time>
      </trkpt>
      <trkpt lat="43.43874" lon="2.05606">
        <ele>366</ele>
        <time>2012-04-05T14:06:23Z</time>
      </trkpt>
      <trkpt lat="43.43869" lon="2.05615">
        <ele>365</ele>
        <time>2012-04-05T14:06:25Z</time>
      </trkpt>
      <trkpt lat="43.43863" lon="2.05625">
        <ele>364</ele>
        <time>2012-04-05T14:06:28Z</time>
      </trkpt>
      <trkpt lat="43.43864" lon="2.05628">
        <ele>363</ele>
        <time>2012-04-05T14:06:30Z</time>
      </trkpt>
      <trkpt lat="43.43866" lon="2.0563">
        <ele>362</ele>
        <time>2012-04-05T14:06:32Z</time>
      </trkpt>
      <trkpt lat="43.43868" lon="2.0563">
        <ele>361</ele>
        <time>2012-04-05T14:06:34Z</time>
      </trkpt>
      <trkpt lat="43.43869" lon="2.0563">
        <ele>360</ele>
        <time>2012-04-05T14:06:37Z</time>
      </trkpt>
      <trkpt lat="43.4387" lon="2.0563">
        <ele>360</ele>
        <time>2012-04-05T14:06:42Z</time>
      </trkpt>
      <trkpt lat="43.43874" lon="2.05633">
        <ele>359</ele>
        <time>2012-04-05T14:06:45Z</time>
      </trkpt>
      <trkpt lat="43.43878" lon="2.05634">
        <ele>358</ele>
        <time>2012-04-05T14:06:47Z</time>
      </trkpt>
      <trkpt lat="43.43888" lon="2.05636">
        <ele>357</ele>
        <time>2012-04-05T14:06:50Z</time>
      </trkpt>
      <trkpt lat="43.43895" lon="2.05633">
        <ele>356</ele>
        <time>2012-04-05T14:06:52Z</time>
      </trkpt>
      <trkpt lat="43.43903" lon="2.05627">
        <ele>355</ele>
        <time>2012-04-05T14:06:54Z</time>
      </trkpt>
      <trkpt lat="43.43913" lon="2.05621">
        <ele>355</ele>
        <time>2012-04-05T14:06:56Z</time>
      </trkpt>
      <trkpt lat="43.43923" lon="2.05619">
        <ele>354</ele>
        <time>2012-04-05T14:06:58Z</time>
      </trkpt>
      <trkpt lat="43.4393" lon="2.05622">
        <ele>353</ele>
        <time>2012-04-05T14:07:00Z</time>
      </trkpt>
      <trkpt lat="43.4393" lon="2.05633">
        <ele>352</ele>
        <time>2012-04-05T14:07:02Z</time>
      </trkpt>
      <trkpt lat="43.43929" lon="2.05647">
        <ele>351</ele>
        <time>2012-04-05T14:07:04Z</time>
      </trkpt>
      <trkpt lat="43.43929" lon="2.05669">
        <ele>349</ele>
        <time>2012-04-05T14:07:06Z</time>
      </trkpt>
      <trkpt lat="43.43933" lon="2.05699">
        <ele>345</ele>
        <time>2012-04-05T14:07:08Z</time>
      </trkpt>
      <trkpt lat="43.43937" lon="2.05731">
        <ele>341</ele>
        <time>2012-04-05T14:07:10Z</time>
      </trkpt>
      <trkpt lat="43.4394" lon="2.05765">
        <ele>337</ele>
        <time>2012-04-05T14:07:12Z</time>
      </trkpt>
      <trkpt lat="43.43946" lon="2.05786">
        <ele>333</ele>
        <time>2012-04-05T14:07:14Z</time>
      </trkpt>
      <trkpt lat="43.43953" lon="2.05794">
        <ele>329</ele>
        <time>2012-04-05T14:07:16Z</time>
      </trkpt>
      <trkpt lat="43.43963" lon="2.05786">
        <ele>325</ele>
        <time>2012-04-05T14:07:18Z</time>
      </trkpt>
      <trkpt lat="43.43976" lon="2.05776">
        <ele>321</ele>
        <time>2012-04-05T14:07:20Z</time>
      </trkpt>
      <trkpt lat="43.43988" lon="2.05765">
        <ele>317</ele>
        <time>2012-04-05T14:07:22Z</time>
      </trkpt>
      <trkpt lat="43.43999" lon="2.05756">
        <ele>313</ele>
        <time>2012-04-05T14:07:24Z</time>
      </trkpt>
      <trkpt lat="43.4401" lon="2.0575">
        <ele>311</ele>
        <time>2012-04-05T14:07:26Z</time>
      </trkpt>
      <trkpt lat="43.44022" lon="2.05747">
        <ele>308</ele>
        <time>2012-04-05T14:07:28Z</time>
      </trkpt>
      <trkpt lat="43.44033" lon="2.05745">
        <ele>305</ele>
        <time>2012-04-05T14:07:30Z</time>
      </trkpt>
      <trkpt lat="43.44043" lon="2.05744">
        <ele>303</ele>
        <time>2012-04-05T14:07:32Z</time>
      </trkpt>
      <trkpt lat="43.44059" lon="2.05737">
        <ele>300</ele>
        <time>2012-04-05T14:07:35Z</time>
      </trkpt>
      <trkpt lat="43.44065" lon="2.05735">
        <ele>298</ele>
        <time>2012-04-05T14:07:37Z</time>
      </trkpt>
      <trkpt lat="43.44071" lon="2.05739">
        <ele>296</ele>
        <time>2012-04-05T14:07:39Z</time>
      </trkpt>
      <trkpt lat="43.44073" lon="2.05748">
        <ele>294</ele>
        <time>2012-04-05T14:07:41Z</time>
      </trkpt>
      <trkpt lat="43.44066" lon="2.05757">
        <ele>292</ele>
        <time>2012-04-05T14:07:43Z</time>
      </trkpt>
      <trkpt lat="43.44061" lon="2.05766">
        <ele>290</ele>
        <time>2012-04-05T14:07:45Z</time>
      </trkpt>
      <trkpt lat="43.44057" lon="2.05773">
        <ele>288</ele>
        <time>2012-04-05T14:07:47Z</time>
      </trkpt>
      <trkpt lat="43.44056" lon="2.05775">
        <ele>286</ele>
        <time>2012-04-05T14:07:49Z</time>
      </trkpt>
      <trkpt lat="43.44055" lon="2.05775">
        <ele>285</ele>
        <time>2012-04-05T14:07:51Z</time>
      </trkpt>
      <trkpt lat="43.44054" lon="2.05777">
        <ele>284</ele>
        <time>2012-04-05T14:07:53Z</time>
      </trkpt>
      <trkpt lat="43.4405" lon="2.05779">
        <ele>281</ele>
        <time>2012-04-05T14:07:57Z</time>
      </trkpt>
      <trkpt lat="43.44047" lon="2.05781">
        <ele>279</ele>
        <time>2012-04-05T14:07:59Z</time>
      </trkpt>
      <trkpt lat="43.44043" lon="2.05783">
        <ele>278</ele>
        <time>2012-04-05T14:08:01Z</time>
      </trkpt>
      <trkpt lat="43.44038" lon="2.05789">
        <ele>277</ele>
        <time>2012-04-05T14:08:03Z</time>
      </trkpt>
      <trkpt lat="43.44031" lon="2.05798">
        <ele>276</ele>
        <time>2012-04-05T14:08:05Z</time>
      </trkpt>
      <trkpt lat="43.44023" lon="2.05809">
        <ele>274</ele>
        <time>2012-04-05T14:08:07Z</time>
      </trkpt>
      <trkpt lat="43.44018" lon="2.05823">
        <ele>273</ele>
        <time>2012-04-05T14:08:09Z</time>
      </trkpt>
      <trkpt lat="43.44013" lon="2.0584">
        <ele>271</ele>
        <time>2012-04-05T14:08:11Z</time>
      </trkpt>
      <trkpt lat="43.44009" lon="2.0586">
        <ele>270</ele>
        <time>2012-04-05T14:08:13Z</time>
      </trkpt>
      <trkpt lat="43.44006" lon="2.05882">
        <ele>269</ele>
        <time>2012-04-05T14:08:15Z</time>
      </trkpt>
      <trkpt lat="43.44002" lon="2.05902">
        <ele>269</ele>
        <time>2012-04-05T14:08:17Z</time>
      </trkpt>
      <trkpt lat="43.43998" lon="2.05921">
        <ele>268</ele>
        <time>2012-04-05T14:08:19Z</time>
      </trkpt>
      <trkpt lat="43.43992" lon="2.05939">
        <ele>268</ele>
        <time>2012-04-05T14:08:21Z</time>
      </trkpt>
      <trkpt lat="43.43985" lon="2.05956">
        <ele>267</ele>
        <time>2012-04-05T14:08:23Z</time>
      </trkpt>
      <trkpt lat="43.43975" lon="2.05976">
        <ele>267</ele>
        <time>2012-04-05T14:08:25Z</time>
      </trkpt>
      <trkpt lat="43.43967" lon="2.05999">
        <ele>267</ele>
        <time>2012-04-05T14:08:28Z</time>
      </trkpt>
      <trkpt lat="43.43963" lon="2.06019">
        <ele>267</ele>
        <time>2012-04-05T14:08:30Z</time>
      </trkpt>
      <trkpt lat="43.4396" lon="2.06039">
        <ele>267</ele>
        <time>2012-04-05T14:08:32Z</time>
      </trkpt>
      <trkpt lat="43.43961" lon="2.06061">
        <ele>269</ele>
        <time>2012-04-05T14:08:34Z</time>
      </trkpt>
      <trkpt lat="43.43964" lon="2.06083">
        <ele>269</ele>
        <time>2012-04-05T14:08:36Z</time>
      </trkpt>
      <trkpt lat="43.43967" lon="2.06105">
        <ele>269</ele>
        <time>2012-04-05T14:08:38Z</time>
      </trkpt>
      <trkpt lat="43.43969" lon="2.06127">
        <ele>269</ele>
        <time>2012-04-05T14:08:40Z</time>
      </trkpt>
      <trkpt lat="43.43969" lon="2.0615">
        <ele>269</ele>
        <time>2012-04-05T14:08:42Z</time>
      </trkpt>
      <trkpt lat="43.43968" lon="2.06169">
        <ele>269</ele>
        <time>2012-04-05T14:08:44Z</time>
      </trkpt>
      <trkpt lat="43.43965" lon="2.06188">
        <ele>269</ele>
        <time>2012-04-05T14:08:46Z</time>
      </trkpt>
      <trkpt lat="43.43962" lon="2.06206">
        <ele>269</ele>
        <time>2012-04-05T14:08:48Z</time>
      </trkpt>
      <trkpt lat="43.43959" lon="2.06223">
        <ele>269</ele>
        <time>2012-04-05T14:08:50Z</time>
      </trkpt>
      <trkpt lat="43.43956" lon="2.06239">
        <ele>269</ele>
        <time>2012-04-05T14:08:52Z</time>
      </trkpt>
      <trkpt lat="43.43952" lon="2.06255">
        <ele>269</ele>
        <time>2012-04-05T14:08:54Z</time>
      </trkpt>
      <trkpt lat="43.43949" lon="2.06268">
        <ele>269</ele>
        <time>2012-04-05T14:08:56Z</time>
      </trkpt>
      <trkpt lat="43.43946" lon="2.06281">
        <ele>269</ele>
        <time>2012-04-05T14:08:58Z</time>
      </trkpt>
      <trkpt lat="43.43942" lon="2.06293">
        <ele>269</ele>
        <time>2012-04-05T14:09:00Z</time>
      </trkpt>
      <trkpt lat="43.43939" lon="2.06304">
        <ele>269</ele>
        <time>2012-04-05T14:09:02Z</time>
      </trkpt>
      <trkpt lat="43.43937" lon="2.06314">
        <ele>269</ele>
        <time>2012-04-05T14:09:04Z</time>
      </trkpt>
      <trkpt lat="43.43935" lon="2.06325">
        <ele>269</ele>
        <time>2012-04-05T14:09:06Z</time>
      </trkpt>
      <trkpt lat="43.43933" lon="2.06333">
        <ele>269</ele>
        <time>2012-04-05T14:09:08Z</time>
      </trkpt>
      <trkpt lat="43.43932" lon="2.06341">
        <ele>269</ele>
        <time>2012-04-05T14:09:10Z</time>
      </trkpt>
      <trkpt lat="43.4393" lon="2.06348">
        <ele>269</ele>
        <time>2012-04-05T14:09:12Z</time>
      </trkpt>
      <trkpt lat="43.43929" lon="2.06355">
        <ele>269</ele>
        <time>2012-04-05T14:09:14Z</time>
      </trkpt>
      <trkpt lat="43.43927" lon="2.06361">
        <ele>269</ele>
        <time>2012-04-05T14:09:16Z</time>
      </trkpt>
      <trkpt lat="43.43926" lon="2.06368">
        <ele>269</ele>
        <time>2012-04-05T14:09:18Z</time>
      </trkpt>
      <trkpt lat="43.43924" lon="2.06375">
        <ele>269</ele>
        <time>2012-04-05T14:09:20Z</time>
      </trkpt>
      <trkpt lat="43.43921" lon="2.0638">
        <ele>270</ele>
        <time>2012-04-05T14:09:22Z</time>
      </trkpt>
      <trkpt lat="43.43921" lon="2.06382">
        <ele>272</ele>
        <time>2012-04-05T14:09:24Z</time>
      </trkpt>
      <trkpt lat="43.43919" lon="2.06382">
        <ele>277</ele>
        <time>2012-04-05T14:09:29Z</time>
      </trkpt>
      <trkpt lat="43.43916" lon="2.06385">
        <ele>279</ele>
        <time>2012-04-05T14:09:31Z</time>
      </trkpt>
      <trkpt lat="43.43913" lon="2.0639">
        <ele>279</ele>
        <time>2012-04-05T14:09:33Z</time>
      </trkpt>
      <trkpt lat="43.4391" lon="2.06394">
        <ele>279</ele>
        <time>2012-04-05T14:09:35Z</time>
      </trkpt>
      <trkpt lat="43.43907" lon="2.064">
        <ele>279</ele>
        <time>2012-04-05T14:09:37Z</time>
      </trkpt>
      <trkpt lat="43.43902" lon="2.06407">
        <ele>279</ele>
        <time>2012-04-05T14:09:39Z</time>
      </trkpt>
      <trkpt lat="43.43897" lon="2.06415">
        <ele>279</ele>
        <time>2012-04-05T14:09:41Z</time>
      </trkpt>
      <trkpt lat="43.43893" lon="2.06425">
        <ele>279</ele>
        <time>2012-04-05T14:09:43Z</time>
      </trkpt>
      <trkpt lat="43.43889" lon="2.06436">
        <ele>279</ele>
        <time>2012-04-05T14:09:45Z</time>
      </trkpt>
      <trkpt lat="43.43885" lon="2.06447">
        <ele>279</ele>
        <time>2012-04-05T14:09:47Z</time>
      </trkpt>
      <trkpt lat="43.43881" lon="2.06458">
        <ele>279</ele>
        <time>2012-04-05T14:09:49Z</time>
      </trkpt>
      <trkpt lat="43.43878" lon="2.0647">
        <ele>279</ele>
        <time>2012-04-05T14:09:51Z</time>
      </trkpt>
      <trkpt lat="43.43876" lon="2.06483">
        <ele>279</ele>
        <time>2012-04-05T14:09:53Z</time>
      </trkpt>
      <trkpt lat="43.43873" lon="2.06497">
        <ele>279</ele>
        <time>2012-04-05T14:09:55Z</time>
      </trkpt>
      <trkpt lat="43.43871" lon="2.0651">
        <ele>278</ele>
        <time>2012-04-05T14:09:57Z</time>
      </trkpt>
      <trkpt lat="43.43869" lon="2.06525">
        <ele>277</ele>
        <time>2012-04-05T14:09:59Z</time>
      </trkpt>
      <trkpt lat="43.43866" lon="2.06539">
        <ele>276</ele>
        <time>2012-04-05T14:10:01Z</time>
      </trkpt>
      <trkpt lat="43.43862" lon="2.06551">
        <ele>276</ele>
        <time>2012-04-05T14:10:03Z</time>
      </trkpt>
      <trkpt lat="43.43855" lon="2.06562">
        <ele>276</ele>
        <time>2012-04-05T14:10:05Z</time>
      </trkpt>
      <trkpt lat="43.43848" lon="2.06573">
        <ele>276</ele>
        <time>2012-04-05T14:10:07Z</time>
      </trkpt>
      <trkpt lat="43.43841" lon="2.06584">
        <ele>275</ele>
        <time>2012-04-05T14:10:09Z</time>
      </trkpt>
      <trkpt lat="43.43835" lon="2.06594">
        <ele>275</ele>
        <time>2012-04-05T14:10:11Z</time>
      </trkpt>
      <trkpt lat="43.4383" lon="2.06605">
        <ele>274</ele>
        <time>2012-04-05T14:10:13Z</time>
      </trkpt>
      <trkpt lat="43.43826" lon="2.06618">
        <ele>274</ele>
        <time>2012-04-05T14:10:15Z</time>
      </trkpt>
      <trkpt lat="43.43822" lon="2.0663">
        <ele>274</ele>
        <time>2012-04-05T14:10:17Z</time>
      </trkpt>
      <trkpt lat="43.43819" lon="2.06642">
        <ele>274</ele>
        <time>2012-04-05T14:10:19Z</time>
      </trkpt>
      <trkpt lat="43.43817" lon="2.06654">
        <ele>274</ele>
        <time>2012-04-05T14:10:21Z</time>
      </trkpt>
      <trkpt lat="43.43814" lon="2.06663">
        <ele>274</ele>
        <time>2012-04-05T14:10:23Z</time>
      </trkpt>
      <trkpt lat="43.43814" lon="2.06672">
        <ele>273</ele>
        <time>2012-04-05T14:10:25Z</time>
      </trkpt>
      <trkpt lat="43.4382" lon="2.06678">
        <ele>273</ele>
        <time>2012-04-05T14:10:28Z</time>
      </trkpt>
      <trkpt lat="43.43825" lon="2.0668">
        <ele>272</ele>
        <time>2012-04-05T14:10:30Z</time>
      </trkpt>
      <trkpt lat="43.43833" lon="2.06686">
        <ele>272</ele>
        <time>2012-04-05T14:10:32Z</time>
      </trkpt>
      <trkpt lat="43.43841" lon="2.06686">
        <ele>272</ele>
        <time>2012-04-05T14:10:34Z</time>
      </trkpt>
      <trkpt lat="43.43849" lon="2.06678">
        <ele>272</ele>
        <time>2012-04-05T14:10:36Z</time>
      </trkpt>
      <trkpt lat="43.43856" lon="2.06668">
        <ele>272</ele>
        <time>2012-04-05T14:10:38Z</time>
      </trkpt>
      <trkpt lat="43.43864" lon="2.06658">
        <ele>272</ele>
        <time>2012-04-05T14:10:40Z</time>
      </trkpt>
      <trkpt lat="43.43872" lon="2.06648">
        <ele>272</ele>
        <time>2012-04-05T14:10:42Z</time>
      </trkpt>
      <trkpt lat="43.4388" lon="2.06638">
        <ele>272</ele>
        <time>2012-04-05T14:10:44Z</time>
      </trkpt>
      <trkpt lat="43.43888" lon="2.06629">
        <ele>272</ele>
        <time>2012-04-05T14:10:46Z</time>
      </trkpt>
      <trkpt lat="43.43895" lon="2.06619">
        <ele>272</ele>
        <time>2012-04-05T14:10:48Z</time>
      </trkpt>
      <trkpt lat="43.43904" lon="2.06608">
        <ele>272</ele>
        <time>2012-04-05T14:10:50Z</time>
      </trkpt>
      <trkpt lat="43.43913" lon="2.06595">
        <ele>272</ele>
        <time>2012-04-05T14:10:52Z</time>
      </trkpt>
      <trkpt lat="43.43923" lon="2.06583">
        <ele>272</ele>
        <time>2012-04-05T14:10:54Z</time>
      </trkpt>
      <trkpt lat="43.43933" lon="2.0657">
        <ele>272</ele>
        <time>2012-04-05T14:10:56Z</time>
      </trkpt>
      <trkpt lat="43.43943" lon="2.06556">
        <ele>273</ele>
        <time>2012-04-05T14:10:58Z</time>
      </trkpt>
      <trkpt lat="43.43953" lon="2.06542">
        <ele>273</ele>
        <time>2012-04-05T14:11:00Z</time>
      </trkpt>
      <trkpt lat="43.43966" lon="2.06526">
        <ele>273</ele>
        <time>2012-04-05T14:11:02Z</time>
      </trkpt>
      <trkpt lat="43.43978" lon="2.06511">
        <ele>273</ele>
        <time>2012-04-05T14:11:04Z</time>
      </trkpt>
      <trkpt lat="43.4399" lon="2.06495">
        <ele>273</ele>
        <time>2012-04-05T14:11:06Z</time>
      </trkpt>
      <trkpt lat="43.44001" lon="2.0648">
        <ele>273</ele>
        <time>2012-04-05T14:11:08Z</time>
      </trkpt>
      <trkpt lat="43.44015" lon="2.06467">
        <ele>273</ele>
        <time>2012-04-05T14:11:10Z</time>
      </trkpt>
      <trkpt lat="43.44029" lon="2.06458">
        <ele>273</ele>
        <time>2012-04-05T14:11:12Z</time>
      </trkpt>
      <trkpt lat="43.44041" lon="2.06451">
        <ele>273</ele>
        <time>2012-04-05T14:11:14Z</time>
      </trkpt>
      <trkpt lat="43.44051" lon="2.06445">
        <ele>273</ele>
        <time>2012-04-05T14:11:16Z</time>
      </trkpt>
      <trkpt lat="43.4406" lon="2.06441">
        <ele>274</ele>
        <time>2012-04-05T14:11:18Z</time>
      </trkpt>
      <trkpt lat="43.44069" lon="2.06439">
        <ele>275</ele>
        <time>2012-04-05T14:11:20Z</time>
      </trkpt>
      <trkpt lat="43.44076" lon="2.06437">
        <ele>276</ele>
        <time>2012-04-05T14:11:22Z</time>
      </trkpt>
      <trkpt lat="43.44083" lon="2.06435">
        <ele>277</ele>
        <time>2012-04-05T14:11:24Z</time>
      </trkpt>
      <trkpt lat="43.44089" lon="2.06432">
        <ele>278</ele>
        <time>2012-04-05T14:11:26Z</time>
      </trkpt>
      <trkpt lat="43.44094" lon="2.0643">
        <ele>279</ele>
        <time>2012-04-05T14:11:28Z</time>
      </trkpt>
      <trkpt lat="43.44099" lon="2.06427">
        <ele>280</ele>
        <time>2012-04-05T14:11:30Z</time>
      </trkpt>
      <trkpt lat="43.44104" lon="2.06424">
        <ele>281</ele>
        <time>2012-04-05T14:11:32Z</time>
      </trkpt>
      <trkpt lat="43.44109" lon="2.06422">
        <ele>281</ele>
        <time>2012-04-05T14:11:34Z</time>
      </trkpt>
      <trkpt lat="43.44114" lon="2.0642">
        <ele>282</ele>
        <time>2012-04-05T14:11:36Z</time>
      </trkpt>
      <trkpt lat="43.44118" lon="2.06418">
        <ele>282</ele>
        <time>2012-04-05T14:11:38Z</time>
      </trkpt>
      <trkpt lat="43.44122" lon="2.06416">
        <ele>283</ele>
        <time>2012-04-05T14:11:40Z</time>
      </trkpt>
      <trkpt lat="43.44125" lon="2.06414">
        <ele>283</ele>
        <time>2012-04-05T14:11:42Z</time>
      </trkpt>
      <trkpt lat="43.44128" lon="2.06412">
        <ele>283</ele>
        <time>2012-04-05T14:11:44Z</time>
      </trkpt>
      <trkpt lat="43.44132" lon="2.0641">
        <ele>283</ele>
        <time>2012-04-05T14:11:46Z</time>
      </trkpt>
      <trkpt lat="43.44135" lon="2.06408">
        <ele>284</ele>
        <time>2012-04-05T14:11:48Z</time>
      </trkpt>
      <trkpt lat="43.44139" lon="2.06408">
        <ele>284</ele>
        <time>2012-04-05T14:11:50Z</time>
      </trkpt>
      <trkpt lat="43.44143" lon="2.06407">
        <ele>285</ele>
        <time>2012-04-05T14:11:52Z</time>
      </trkpt>
      <trkpt lat="43.44146" lon="2.06406">
        <ele>285</ele>
        <time>2012-04-05T14:11:54Z</time>
      </trkpt>
      <trkpt lat="43.4415" lon="2.06405">
        <ele>285</ele>
        <time>2012-04-05T14:11:56Z</time>
      </trkpt>
      <trkpt lat="43.44154" lon="2.06404">
        <ele>285</ele>
        <time>2012-04-05T14:11:58Z</time>
      </trkpt>
      <trkpt lat="43.44157" lon="2.06403">
        <ele>285</ele>
        <time>2012-04-05T14:12:00Z</time>
      </trkpt>
      <trkpt lat="43.44161" lon="2.06401">
        <ele>285</ele>
        <time>2012-04-05T14:12:02Z</time>
      </trkpt>
      <trkpt lat="43.44165" lon="2.064">
        <ele>285</ele>
        <time>2012-04-05T14:12:04Z</time>
      </trkpt>
      <trkpt lat="43.44168" lon="2.06399">
        <ele>286</ele>
        <time>2012-04-05T14:12:06Z</time>
      </trkpt>
      <trkpt lat="43.44172" lon="2.06397">
        <ele>287</ele>
        <time>2012-04-05T14:12:08Z</time>
      </trkpt>
      <trkpt lat="43.44175" lon="2.06396">
        <ele>287</ele>
        <time>2012-04-05T14:12:10Z</time>
      </trkpt>
      <trkpt lat="43.44178" lon="2.06396">
        <ele>288</ele>
        <time>2012-04-05T14:12:12Z</time>
      </trkpt>
      <trkpt lat="43.44181" lon="2.06394">
        <ele>288</ele>
        <time>2012-04-05T14:12:14Z</time>
      </trkpt>
      <trkpt lat="43.44183" lon="2.06394">
        <ele>289</ele>
        <time>2012-04-05T14:12:16Z</time>
      </trkpt>
      <trkpt lat="43.44187" lon="2.06392">
        <ele>289</ele>
        <time>2012-04-05T14:12:18Z</time>
      </trkpt>
      <trkpt lat="43.4419" lon="2.06391">
        <ele>290</ele>
        <time>2012-04-05T14:12:20Z</time>
      </trkpt>
      <trkpt lat="43.44193" lon="2.06389">
        <ele>290</ele>
        <time>2012-04-05T14:12:22Z</time>
      </trkpt>
      <trkpt lat="43.44197" lon="2.06386">
        <ele>290</ele>
        <time>2012-04-05T14:12:24Z</time>
      </trkpt>
      <trkpt lat="43.44201" lon="2.06385">
        <ele>291</ele>
        <time>2012-04-05T14:12:26Z</time>
      </trkpt>
      <trkpt lat="43.44204" lon="2.06384">
        <ele>292</ele>
        <time>2012-04-05T14:12:28Z</time>
      </trkpt>
      <trkpt lat="43.44207" lon="2.06384">
        <ele>293</ele>
        <time>2012-04-05T14:12:30Z</time>
      </trkpt>
      <trkpt lat="43.44211" lon="2.06385">
        <ele>293</ele>
        <time>2012-04-05T14:12:32Z</time>
      </trkpt>
      <trkpt lat="43.44214" lon="2.06384">
        <ele>294</ele>
        <time>2012-04-05T14:12:34Z</time>
      </trkpt>
      <trkpt lat="43.44217" lon="2.06384">
        <ele>294</ele>
        <time>2012-04-05T14:12:36Z</time>
      </trkpt>
      <trkpt lat="43.44221" lon="2.06384">
        <ele>296</ele>
        <time>2012-04-05T14:12:38Z</time>
      </trkpt>
      <trkpt lat="43.44224" lon="2.06384">
        <ele>296</ele>
        <time>2012-04-05T14:12:40Z</time>
      </trkpt>
      <trkpt lat="43.44227" lon="2.06385">
        <ele>297</ele>
        <time>2012-04-05T14:12:42Z</time>
      </trkpt>
      <trkpt lat="43.4423" lon="2.06387">
        <ele>298</ele>
        <time>2012-04-05T14:12:44Z</time>
      </trkpt>
      <trkpt lat="43.44233" lon="2.06388">
        <ele>298</ele>
        <time>2012-04-05T14:12:46Z</time>
      </trkpt>
      <trkpt lat="43.44236" lon="2.06388">
        <ele>299</ele>
        <time>2012-04-05T14:12:48Z</time>
      </trkpt>
      <trkpt lat="43.44239" lon="2.06391">
        <ele>299</ele>
        <time>2012-04-05T14:12:50Z</time>
      </trkpt>
      <trkpt lat="43.44242" lon="2.06392">
        <ele>299</ele>
        <time>2012-04-05T14:12:52Z</time>
      </trkpt>
      <trkpt lat="43.44245" lon="2.06392">
        <ele>299</ele>
        <time>2012-04-05T14:12:54Z</time>
      </trkpt>
      <trkpt lat="43.44248" lon="2.06392">
        <ele>299</ele>
        <time>2012-04-05T14:12:56Z</time>
      </trkpt>
      <trkpt lat="43.4425" lon="2.06392">
        <ele>299</ele>
        <time>2012-04-05T14:12:58Z</time>
      </trkpt>
      <trkpt lat="43.44254" lon="2.06391">
        <ele>299</ele>
        <time>2012-04-05T14:13:00Z</time>
      </trkpt>
      <trkpt lat="43.44258" lon="2.0639">
        <ele>299</ele>
        <time>2012-04-05T14:13:02Z</time>
      </trkpt>
      <trkpt lat="43.44259" lon="2.06389">
        <ele>299</ele>
        <time>2012-04-05T14:13:04Z</time>
      </trkpt>
      <trkpt lat="43.4426" lon="2.0639">
        <ele>300</ele>
        <time>2012-04-05T14:13:10Z</time>
      </trkpt>
      <trkpt lat="43.44262" lon="2.0639">
        <ele>300</ele>
        <time>2012-04-05T14:13:15Z</time>
      </trkpt>
      <trkpt lat="43.44262" lon="2.06387">
        <ele>300</ele>
        <time>2012-04-05T14:13:18Z</time>
      </trkpt>
      <trkpt lat="43.44262" lon="2.06386">
        <ele>300</ele>
        <time>2012-04-05T14:13:20Z</time>
      </trkpt>
      <trkpt lat="43.44262" lon="2.06384">
        <ele>302</ele>
        <time>2012-04-05T14:13:25Z</time>
      </trkpt>
      <trkpt lat="43.44261" lon="2.06382">
        <ele>304</ele>
        <time>2012-04-05T14:13:29Z</time>
      </trkpt>
      <trkpt lat="43.44262" lon="2.06379">
        <ele>307</ele>
        <time>2012-04-05T14:13:32Z</time>
      </trkpt>
      <trkpt lat="43.44262" lon="2.0638">
        <ele>309</ele>
        <time>2012-04-05T14:13:34Z</time>
      </trkpt>
      <trkpt lat="43.44263" lon="2.06382">
        <ele>309</ele>
        <time>2012-04-05T14:13:36Z</time>
      </trkpt>
      <trkpt lat="43.44263" lon="2.06384">
        <ele>309</ele>
        <time>2012-04-05T14:13:39Z</time>
      </trkpt>
      <trkpt lat="43.44265" lon="2.06383">
        <ele>309</ele>
        <time>2012-04-05T14:13:49Z</time>
      </trkpt>
      <trkpt lat="43.44268" lon="2.06382">
        <ele>307</ele>
        <time>2012-04-05T14:13:51Z</time>
      </trkpt>
      <trkpt lat="43.44273" lon="2.06381">
        <ele>306</ele>
        <time>2012-04-05T14:13:53Z</time>
      </trkpt>
      <trkpt lat="43.4428" lon="2.06377">
        <ele>305</ele>
        <time>2012-04-05T14:13:55Z</time>
      </trkpt>
      <trkpt lat="43.44287" lon="2.0637">
        <ele>304</ele>
        <time>2012-04-05T14:13:57Z</time>
      </trkpt>
      <trkpt lat="43.44296" lon="2.0636">
        <ele>303</ele>
        <time>2012-04-05T14:13:59Z</time>
      </trkpt>
      <trkpt lat="43.44307" lon="2.06349">
        <ele>302</ele>
        <time>2012-04-05T14:14:01Z</time>
      </trkpt>
      <trkpt lat="43.4432" lon="2.06339">
        <ele>300</ele>
        <time>2012-04-05T14:14:03Z</time>
      </trkpt>
      <trkpt lat="43.44336" lon="2.06332">
        <ele>298</ele>
        <time>2012-04-05T14:14:05Z</time>
      </trkpt>
      <trkpt lat="43.44354" lon="2.06327">
        <ele>296</ele>
        <time>2012-04-05T14:14:07Z</time>
      </trkpt>
      <trkpt lat="43.44372" lon="2.0632">
        <ele>294</ele>
        <time>2012-04-05T14:14:09Z</time>
      </trkpt>
      <trkpt lat="43.44391" lon="2.06313">
        <ele>292</ele>
        <time>2012-04-05T14:14:11Z</time>
      </trkpt>
      <trkpt lat="43.4441" lon="2.06309">
        <ele>290</ele>
        <time>2012-04-05T14:14:13Z</time>
      </trkpt>
      <trkpt lat="43.4443" lon="2.06307">
        <ele>288</ele>
        <time>2012-04-05T14:14:15Z</time>
      </trkpt>
      <trkpt lat="43.4445" lon="2.06305">
        <ele>286</ele>
        <time>2012-04-05T14:14:17Z</time>
      </trkpt>
      <trkpt lat="43.44469" lon="2.06304">
        <ele>284</ele>
        <time>2012-04-05T14:14:19Z</time>
      </trkpt>
      <trkpt lat="43.44487" lon="2.06303">
        <ele>282</ele>
        <time>2012-04-05T14:14:21Z</time>
      </trkpt>
      <trkpt lat="43.44505" lon="2.06305">
        <ele>280</ele>
        <time>2012-04-05T14:14:23Z</time>
      </trkpt>
      <trkpt lat="43.44522" lon="2.06305">
        <ele>278</ele>
        <time>2012-04-05T14:14:25Z</time>
      </trkpt>
      <trkpt lat="43.44546" lon="2.06306">
        <ele>277</ele>
        <time>2012-04-05T14:14:28Z</time>
      </trkpt>
      <trkpt lat="43.44559" lon="2.06311">
        <ele>277</ele>
        <time>2012-04-05T14:14:30Z</time>
      </trkpt>
      <trkpt lat="43.4457" lon="2.06321">
        <ele>277</ele>
        <time>2012-04-05T14:14:32Z</time>
      </trkpt>
      <trkpt lat="43.44579" lon="2.06331">
        <ele>277</ele>
        <time>2012-04-05T14:14:34Z</time>
      </trkpt>
      <trkpt lat="43.44586" lon="2.06339">
        <ele>277</ele>
        <time>2012-04-05T14:14:36Z</time>
      </trkpt>
      <trkpt lat="43.44592" lon="2.06346">
        <ele>277</ele>
        <time>2012-04-05T14:14:38Z</time>
      </trkpt>
      <trkpt lat="43.446" lon="2.06352">
        <ele>277</ele>
        <time>2012-04-05T14:14:40Z</time>
      </trkpt>
      <trkpt lat="43.44609" lon="2.06356">
        <ele>277</ele>
        <time>2012-04-05T14:14:42Z</time>
      </trkpt>
      <trkpt lat="43.44619" lon="2.06361">
        <ele>277</ele>
        <time>2012-04-05T14:14:44Z</time>
      </trkpt>
      <trkpt lat="43.4463" lon="2.06364">
        <ele>277</ele>
        <time>2012-04-05T14:14:46Z</time>
      </trkpt>
      <trkpt lat="43.44641" lon="2.06368">
        <ele>277</ele>
        <time>2012-04-05T14:14:48Z</time>
      </trkpt>
      <trkpt lat="43.44652" lon="2.06371">
        <ele>278</ele>
        <time>2012-04-05T14:14:50Z</time>
      </trkpt>
      <trkpt lat="43.44663" lon="2.06374">
        <ele>278</ele>
        <time>2012-04-05T14:14:52Z</time>
      </trkpt>
      <trkpt lat="43.44673" lon="2.06376">
        <ele>278</ele>
        <time>2012-04-05T14:14:54Z</time>
      </trkpt>
      <trkpt lat="43.44683" lon="2.06378">
        <ele>279</ele>
        <time>2012-04-05T14:14:56Z</time>
      </trkpt>
      <trkpt lat="43.44687" lon="2.06385">
        <ele>279</ele>
        <time>2012-04-05T14:14:58Z</time>
      </trkpt>
      <trkpt lat="43.44684" lon="2.06391">
        <ele>279</ele>
        <time>2012-04-05T14:15:00Z</time>
      </trkpt>
      <trkpt lat="43.44681" lon="2.06396">
        <ele>279</ele>
        <time>2012-04-05T14:15:02Z</time>
      </trkpt>
      <trkpt lat="43.44678" lon="2.06401">
        <ele>280</ele>
        <time>2012-04-05T14:15:04Z</time>
      </trkpt>
      <trkpt lat="43.44677" lon="2.06406">
        <ele>281</ele>
        <time>2012-04-05T14:15:06Z</time>
      </trkpt>
      <trkpt lat="43.44675" lon="2.06411">
        <ele>282</ele>
        <time>2012-04-05T14:15:08Z</time>
      </trkpt>
      <trkpt lat="43.44673" lon="2.06417">
        <ele>283</ele>
        <time>2012-04-05T14:15:10Z</time>
      </trkpt>
      <trkpt lat="43.44671" lon="2.06422">
        <ele>284</ele>
        <time>2012-04-05T14:15:12Z</time>
      </trkpt>
      <trkpt lat="43.4467" lon="2.06427">
        <ele>285</ele>
        <time>2012-04-05T14:15:14Z</time>
      </trkpt>
      <trkpt lat="43.44668" lon="2.06432">
        <ele>286</ele>
        <time>2012-04-05T14:15:16Z</time>
      </trkpt>
      <trkpt lat="43.44666" lon="2.06437">
        <ele>287</ele>
        <time>2012-04-05T14:15:18Z</time>
      </trkpt>
      <trkpt lat="43.44664" lon="2.06443">
        <ele>288</ele>
        <time>2012-04-05T14:15:20Z</time>
      </trkpt>
      <trkpt lat="43.44662" lon="2.06448">
        <ele>288</ele>
        <time>2012-04-05T14:15:22Z</time>
      </trkpt>
      <trkpt lat="43.44661" lon="2.06453">
        <ele>289</ele>
        <time>2012-04-05T14:15:24Z</time>
      </trkpt>
      <trkpt lat="43.44659" lon="2.0646">
        <ele>290</ele>
        <time>2012-04-05T14:15:27Z</time>
      </trkpt>
      <trkpt lat="43.44658" lon="2.06465">
        <ele>290</ele>
        <time>2012-04-05T14:15:29Z</time>
      </trkpt>
      <trkpt lat="43.44656" lon="2.0647">
        <ele>291</ele>
        <time>2012-04-05T14:15:31Z</time>
      </trkpt>
      <trkpt lat="43.44655" lon="2.06475">
        <ele>292</ele>
        <time>2012-04-05T14:15:33Z</time>
      </trkpt>
      <trkpt lat="43.44654" lon="2.0648">
        <ele>292</ele>
        <time>2012-04-05T14:15:35Z</time>
      </trkpt>
      <trkpt lat="43.44654" lon="2.06486">
        <ele>293</ele>
        <time>2012-04-05T14:15:37Z</time>
      </trkpt>
      <trkpt lat="43.44653" lon="2.0649">
        <ele>293</ele>
        <time>2012-04-05T14:15:39Z</time>
      </trkpt>
      <trkpt lat="43.44651" lon="2.06495">
        <ele>293</ele>
        <time>2012-04-05T14:15:41Z</time>
      </trkpt>
      <trkpt lat="43.44649" lon="2.065">
        <ele>293</ele>
        <time>2012-04-05T14:15:43Z</time>
      </trkpt>
      <trkpt lat="43.44647" lon="2.06503">
        <ele>293</ele>
        <time>2012-04-05T14:15:45Z</time>
      </trkpt>
      <trkpt lat="43.44645" lon="2.06507">
        <ele>294</ele>
        <time>2012-04-05T14:15:47Z</time>
      </trkpt>
      <trkpt lat="43.44644" lon="2.06511">
        <ele>294</ele>
        <time>2012-04-05T14:15:49Z</time>
      </trkpt>
      <trkpt lat="43.44643" lon="2.06516">
        <ele>295</ele>
        <time>2012-04-05T14:15:51Z</time>
      </trkpt>
      <trkpt lat="43.44641" lon="2.0652">
        <ele>296</ele>
        <time>2012-04-05T14:15:53Z</time>
      </trkpt>
      <trkpt lat="43.44639" lon="2.06524">
        <ele>297</ele>
        <time>2012-04-05T14:15:55Z</time>
      </trkpt>
      <trkpt lat="43.44637" lon="2.06527">
        <ele>297</ele>
        <time>2012-04-05T14:15:57Z</time>
      </trkpt>
      <trkpt lat="43.44635" lon="2.06531">
        <ele>298</ele>
        <time>2012-04-05T14:15:59Z</time>
      </trkpt>
      <trkpt lat="43.44633" lon="2.06535">
        <ele>298</ele>
        <time>2012-04-05T14:16:01Z</time>
      </trkpt>
      <trkpt lat="43.44632" lon="2.06539">
        <ele>299</ele>
        <time>2012-04-05T14:16:03Z</time>
      </trkpt>
      <trkpt lat="43.44632" lon="2.06543">
        <ele>299</ele>
        <time>2012-04-05T14:16:05Z</time>
      </trkpt>
      <trkpt lat="43.44632" lon="2.06548">
        <ele>300</ele>
        <time>2012-04-05T14:16:07Z</time>
      </trkpt>
      <trkpt lat="43.44632" lon="2.06552">
        <ele>300</ele>
        <time>2012-04-05T14:16:09Z</time>
      </trkpt>
      <trkpt lat="43.44632" lon="2.06556">
        <ele>301</ele>
        <time>2012-04-05T14:16:11Z</time>
      </trkpt>
      <trkpt lat="43.44633" lon="2.06559">
        <ele>301</ele>
        <time>2012-04-05T14:16:13Z</time>
      </trkpt>
      <trkpt lat="43.44635" lon="2.06563">
        <ele>302</ele>
        <time>2012-04-05T14:16:15Z</time>
      </trkpt>
      <trkpt lat="43.44635" lon="2.06567">
        <ele>302</ele>
        <time>2012-04-05T14:16:17Z</time>
      </trkpt>
      <trkpt lat="43.44637" lon="2.06572">
        <ele>302</ele>
        <time>2012-04-05T14:16:19Z</time>
      </trkpt>
      <trkpt lat="43.44638" lon="2.06576">
        <ele>303</ele>
        <time>2012-04-05T14:16:21Z</time>
      </trkpt>
      <trkpt lat="43.4464" lon="2.0658">
        <ele>304</ele>
        <time>2012-04-05T14:16:23Z</time>
      </trkpt>
      <trkpt lat="43.44642" lon="2.06585">
        <ele>304</ele>
        <time>2012-04-05T14:16:25Z</time>
      </trkpt>
      <trkpt lat="43.44645" lon="2.06593">
        <ele>305</ele>
        <time>2012-04-05T14:16:28Z</time>
      </trkpt>
      <trkpt lat="43.44647" lon="2.06598">
        <ele>306</ele>
        <time>2012-04-05T14:16:30Z</time>
      </trkpt>
      <trkpt lat="43.44649" lon="2.06603">
        <ele>306</ele>
        <time>2012-04-05T14:16:32Z</time>
      </trkpt>
      <trkpt lat="43.44651" lon="2.06607">
        <ele>307</ele>
        <time>2012-04-05T14:16:34Z</time>
      </trkpt>
      <trkpt lat="43.44652" lon="2.06611">
        <ele>307</ele>
        <time>2012-04-05T14:16:36Z</time>
      </trkpt>
      <trkpt lat="43.44653" lon="2.06615">
        <ele>308</ele>
        <time>2012-04-05T14:16:38Z</time>
      </trkpt>
      <trkpt lat="43.44654" lon="2.0662">
        <ele>308</ele>
        <time>2012-04-05T14:16:40Z</time>
      </trkpt>
      <trkpt lat="43.44654" lon="2.06626">
        <ele>309</ele>
        <time>2012-04-05T14:16:42Z</time>
      </trkpt>
      <trkpt lat="43.44655" lon="2.06631">
        <ele>309</ele>
        <time>2012-04-05T14:16:44Z</time>
      </trkpt>
      <trkpt lat="43.44656" lon="2.06636">
        <ele>310</ele>
        <time>2012-04-05T14:16:46Z</time>
      </trkpt>
      <trkpt lat="43.44658" lon="2.06642">
        <ele>310</ele>
        <time>2012-04-05T14:16:48Z</time>
      </trkpt>
      <trkpt lat="43.4466" lon="2.06647">
        <ele>311</ele>
        <time>2012-04-05T14:16:50Z</time>
      </trkpt>
      <trkpt lat="43.44662" lon="2.06653">
        <ele>312</ele>
        <time>2012-04-05T14:16:52Z</time>
      </trkpt>
      <trkpt lat="43.44664" lon="2.06659">
        <ele>314</ele>
        <time>2012-04-05T14:16:54Z</time>
      </trkpt>
      <trkpt lat="43.44664" lon="2.06663">
        <ele>315</ele>
        <time>2012-04-05T14:16:56Z</time>
      </trkpt>
      <trkpt lat="43.44664" lon="2.06668">
        <ele>316</ele>
        <time>2012-04-05T14:16:58Z</time>
      </trkpt>
      <trkpt lat="43.44664" lon="2.06673">
        <ele>316</ele>
        <time>2012-04-05T14:17:00Z</time>
      </trkpt>
      <trkpt lat="43.44664" lon="2.06678">
        <ele>317</ele>
        <time>2012-04-05T14:17:02Z</time>
      </trkpt>
      <trkpt lat="43.44665" lon="2.06683">
        <ele>318</ele>
        <time>2012-04-05T14:17:04Z</time>
      </trkpt>
      <trkpt lat="43.44665" lon="2.06688">
        <ele>319</ele>
        <time>2012-04-05T14:17:06Z</time>
      </trkpt>
      <trkpt lat="43.44665" lon="2.06694">
        <ele>320</ele>
        <time>2012-04-05T14:17:08Z</time>
      </trkpt>
      <trkpt lat="43.44666" lon="2.06701">
        <ele>322</ele>
        <time>2012-04-05T14:17:10Z</time>
      </trkpt>
      <trkpt lat="43.44666" lon="2.06707">
        <ele>324</ele>
        <time>2012-04-05T14:17:12Z</time>
      </trkpt>
      <trkpt lat="43.44666" lon="2.06713">
        <ele>325</ele>
        <time>2012-04-05T14:17:14Z</time>
      </trkpt>
      <trkpt lat="43.44667" lon="2.06718">
        <ele>326</ele>
        <time>2012-04-05T14:17:16Z</time>
      </trkpt>
      <trkpt lat="43.44668" lon="2.06723">
        <ele>326</ele>
        <time>2012-04-05T14:17:18Z</time>
      </trkpt>
      <trkpt lat="43.44669" lon="2.06727">
        <ele>327</ele>
        <time>2012-04-05T14:17:20Z</time>
      </trkpt>
      <trkpt lat="43.4467" lon="2.06732">
        <ele>327</ele>
        <time>2012-04-05T14:17:22Z</time>
      </trkpt>
      <trkpt lat="43.4467" lon="2.06737">
        <ele>327</ele>
        <time>2012-04-05T14:17:24Z</time>
      </trkpt>
      <trkpt lat="43.4467" lon="2.06743">
        <ele>327</ele>
        <time>2012-04-05T14:17:26Z</time>
      </trkpt>
      <trkpt lat="43.44667" lon="2.06746">
        <ele>328</ele>
        <time>2012-04-05T14:17:28Z</time>
      </trkpt>
      <trkpt lat="43.44664" lon="2.06742">
        <ele>328</ele>
        <time>2012-04-05T14:17:31Z</time>
      </trkpt>
      <trkpt lat="43.44664" lon="2.06738">
        <ele>328</ele>
        <time>2012-04-05T14:17:33Z</time>
      </trkpt>
      <trkpt lat="43.44663" lon="2.06733">
        <ele>328</ele>
        <time>2012-04-05T14:17:35Z</time>
      </trkpt>
      <trkpt lat="43.44662" lon="2.06728">
        <ele>328</ele>
        <time>2012-04-05T14:17:37Z</time>
      </trkpt>
      <trkpt lat="43.4466" lon="2.06724">
        <ele>328</ele>
        <time>2012-04-05T14:17:39Z</time>
      </trkpt>
      <trkpt lat="43.44658" lon="2.0672">
        <ele>328</ele>
        <time>2012-04-05T14:17:41Z</time>
      </trkpt>
      <trkpt lat="43.44657" lon="2.06715">
        <ele>327</ele>
        <time>2012-04-05T14:17:43Z</time>
      </trkpt>
      <trkpt lat="43.44654" lon="2.0671">
        <ele>327</ele>
        <time>2012-04-05T14:17:45Z</time>
      </trkpt>
      <trkpt lat="43.44651" lon="2.06706">
        <ele>327</ele>
        <time>2012-04-05T14:17:47Z</time>
      </trkpt>
      <trkpt lat="43.44648" lon="2.06702">
        <ele>327</ele>
        <time>2012-04-05T14:17:49Z</time>
      </trkpt>
      <trkpt lat="43.44645" lon="2.06698">
        <ele>327</ele>
        <time>2012-04-05T14:17:51Z</time>
      </trkpt>
      <trkpt lat="43.44641" lon="2.06694">
        <ele>327</ele>
        <time>2012-04-05T14:17:53Z</time>
      </trkpt>
      <trkpt lat="43.44638" lon="2.06691">
        <ele>327</ele>
        <time>2012-04-05T14:17:55Z</time>
      </trkpt>
      <trkpt lat="43.44634" lon="2.06688">
        <ele>327</ele>
        <time>2012-04-05T14:17:57Z</time>
      </trkpt>
      <trkpt lat="43.4463" lon="2.06686">
        <ele>327</ele>
        <time>2012-04-05T14:17:59Z</time>
      </trkpt>
      <trkpt lat="43.44626" lon="2.06683">
        <ele>327</ele>
        <time>2012-04-05T14:18:01Z</time>
      </trkpt>
      <trkpt lat="43.44622" lon="2.06681">
        <ele>327</ele>
        <time>2012-04-05T14:18:03Z</time>
      </trkpt>
      <trkpt lat="43.44618" lon="2.06678">
        <ele>327</ele>
        <time>2012-04-05T14:18:05Z</time>
      </trkpt>
      <trkpt lat="43.44614" lon="2.06676">
        <ele>327</ele>
        <time>2012-04-05T14:18:07Z</time>
      </trkpt>
      <trkpt lat="43.44609" lon="2.06675">
        <ele>327</ele>
        <time>2012-04-05T14:18:09Z</time>
      </trkpt>
      <trkpt lat="43.44605" lon="2.06676">
        <ele>327</ele>
        <time>2012-04-05T14:18:11Z</time>
      </trkpt>
      <trkpt lat="43.446" lon="2.06677">
        <ele>327</ele>
        <time>2012-04-05T14:18:13Z</time>
      </trkpt>
      <trkpt lat="43.44594" lon="2.06678">
        <ele>327</ele>
        <time>2012-04-05T14:18:15Z</time>
      </trkpt>
      <trkpt lat="43.44589" lon="2.06678">
        <ele>327</ele>
        <time>2012-04-05T14:18:17Z</time>
      </trkpt>
      <trkpt lat="43.44584" lon="2.06679">
        <ele>327</ele>
        <time>2012-04-05T14:18:19Z</time>
      </trkpt>
      <trkpt lat="43.44579" lon="2.0668">
        <ele>327</ele>
        <time>2012-04-05T14:18:21Z</time>
      </trkpt>
      <trkpt lat="43.44574" lon="2.0668">
        <ele>327</ele>
        <time>2012-04-05T14:18:24Z</time>
      </trkpt>
      <trkpt lat="43.44568" lon="2.06682">
        <ele>327</ele>
        <time>2012-04-05T14:18:26Z</time>
      </trkpt>
      <trkpt lat="43.44563" lon="2.0668">
        <ele>327</ele>
        <time>2012-04-05T14:18:28Z</time>
      </trkpt>
      <trkpt lat="43.44559" lon="2.06679">
        <ele>328</ele>
        <time>2012-04-05T14:18:30Z</time>
      </trkpt>
      <trkpt lat="43.44555" lon="2.06675">
        <ele>328</ele>
        <time>2012-04-05T14:18:32Z</time>
      </trkpt>
      <trkpt lat="43.44551" lon="2.06672">
        <ele>328</ele>
        <time>2012-04-05T14:18:34Z</time>
      </trkpt>
      <trkpt lat="43.44547" lon="2.06667">
        <ele>328</ele>
        <time>2012-04-05T14:18:36Z</time>
      </trkpt>
      <trkpt lat="43.44545" lon="2.06661">
        <ele>329</ele>
        <time>2012-04-05T14:18:38Z</time>
      </trkpt>
      <trkpt lat="43.44542" lon="2.06653">
        <ele>330</ele>
        <time>2012-04-05T14:18:40Z</time>
      </trkpt>
      <trkpt lat="43.44542" lon="2.06647">
        <ele>331</ele>
        <time>2012-04-05T14:18:42Z</time>
      </trkpt>
      <trkpt lat="43.44543" lon="2.0664">
        <ele>332</ele>
        <time>2012-04-05T14:18:44Z</time>
      </trkpt>
      <trkpt lat="43.44545" lon="2.06634">
        <ele>332</ele>
        <time>2012-04-05T14:18:46Z</time>
      </trkpt>
      <trkpt lat="43.44546" lon="2.06628">
        <ele>334</ele>
        <time>2012-04-05T14:18:48Z</time>
      </trkpt>
      <trkpt lat="43.44547" lon="2.06622">
        <ele>335</ele>
        <time>2012-04-05T14:18:50Z</time>
      </trkpt>
      <trkpt lat="43.44548" lon="2.06615">
        <ele>336</ele>
        <time>2012-04-05T14:18:52Z</time>
      </trkpt>
      <trkpt lat="43.44548" lon="2.06608">
        <ele>337</ele>
        <time>2012-04-05T14:18:54Z</time>
      </trkpt>
      <trkpt lat="43.44548" lon="2.06601">
        <ele>338</ele>
        <time>2012-04-05T14:18:56Z</time>
      </trkpt>
      <trkpt lat="43.44547" lon="2.06594">
        <ele>339</ele>
        <time>2012-04-05T14:18:58Z</time>
      </trkpt>
      <trkpt lat="43.44546" lon="2.06589">
        <ele>340</ele>
        <time>2012-04-05T14:19:00Z</time>
      </trkpt>
      <trkpt lat="43.44543" lon="2.06584">
        <ele>341</ele>
        <time>2012-04-05T14:19:02Z</time>
      </trkpt>
      <trkpt lat="43.44539" lon="2.06579">
        <ele>342</ele>
        <time>2012-04-05T14:19:04Z</time>
      </trkpt>
      <trkpt lat="43.44535" lon="2.06576">
        <ele>343</ele>
        <time>2012-04-05T14:19:06Z</time>
      </trkpt>
      <trkpt lat="43.44532" lon="2.06573">
        <ele>343</ele>
        <time>2012-04-05T14:19:08Z</time>
      </trkpt>
      <trkpt lat="43.44527" lon="2.06571">
        <ele>343</ele>
        <time>2012-04-05T14:19:10Z</time>
      </trkpt>
      <trkpt lat="43.44524" lon="2.06568">
        <ele>343</ele>
        <time>2012-04-05T14:19:12Z</time>
      </trkpt>
      <trkpt lat="43.44519" lon="2.06566">
        <ele>344</ele>
        <time>2012-04-05T14:19:14Z</time>
      </trkpt>
      <trkpt lat="43.44515" lon="2.06564">
        <ele>345</ele>
        <time>2012-04-05T14:19:16Z</time>
      </trkpt>
      <trkpt lat="43.44511" lon="2.06562">
        <ele>345</ele>
        <time>2012-04-05T14:19:18Z</time>
      </trkpt>
      <trkpt lat="43.44508" lon="2.0656">
        <ele>345</ele>
        <time>2012-04-05T14:19:20Z</time>
      </trkpt>
      <trkpt lat="43.44504" lon="2.06558">
        <ele>345</ele>
        <time>2012-04-05T14:19:22Z</time>
      </trkpt>
      <trkpt lat="43.445" lon="2.06556">
        <ele>345</ele>
        <time>2012-04-05T14:19:24Z</time>
      </trkpt>
      <trkpt lat="43.44496" lon="2.06554">
        <ele>345</ele>
        <time>2012-04-05T14:19:26Z</time>
      </trkpt>
      <trkpt lat="43.44491" lon="2.0655">
        <ele>345</ele>
        <time>2012-04-05T14:19:28Z</time>
      </trkpt>
      <trkpt lat="43.44488" lon="2.06547">
        <ele>345</ele>
        <time>2012-04-05T14:19:30Z</time>
      </trkpt>
      <trkpt lat="43.44484" lon="2.06546">
        <ele>345</ele>
        <time>2012-04-05T14:19:32Z</time>
      </trkpt>
      <trkpt lat="43.44479" lon="2.06548">
        <ele>345</ele>
        <time>2012-04-05T14:19:34Z</time>
      </trkpt>
      <trkpt lat="43.44477" lon="2.06552">
        <ele>346</ele>
        <time>2012-04-05T14:19:36Z</time>
      </trkpt>
      <trkpt lat="43.44478" lon="2.06557">
        <ele>347</ele>
        <time>2012-04-05T14:19:38Z</time>
      </trkpt>
      <trkpt lat="43.44481" lon="2.06559">
        <ele>348</ele>
        <time>2012-04-05T14:19:40Z</time>
      </trkpt>
      <trkpt lat="43.44484" lon="2.06561">
        <ele>350</ele>
        <time>2012-04-05T14:19:42Z</time>
      </trkpt>
      <trkpt lat="43.44489" lon="2.06564">
        <ele>350</ele>
        <time>2012-04-05T14:19:44Z</time>
      </trkpt>
      <trkpt lat="43.44492" lon="2.06567">
        <ele>351</ele>
        <time>2012-04-05T14:19:46Z</time>
      </trkpt>
      <trkpt lat="43.44496" lon="2.0657">
        <ele>352</ele>
        <time>2012-04-05T14:19:48Z</time>
      </trkpt>
      <trkpt lat="43.44498" lon="2.06575">
        <ele>353</ele>
        <time>2012-04-05T14:19:50Z</time>
      </trkpt>
      <trkpt lat="43.44501" lon="2.0658">
        <ele>353</ele>
        <time>2012-04-05T14:19:52Z</time>
      </trkpt>
      <trkpt lat="43.44504" lon="2.06585">
        <ele>355</ele>
        <time>2012-04-05T14:19:54Z</time>
      </trkpt>
      <trkpt lat="43.44505" lon="2.06591">
        <ele>356</ele>
        <time>2012-04-05T14:19:56Z</time>
      </trkpt>
      <trkpt lat="43.44506" lon="2.06597">
        <ele>357</ele>
        <time>2012-04-05T14:19:58Z</time>
      </trkpt>
      <trkpt lat="43.44507" lon="2.06603">
        <ele>358</ele>
        <time>2012-04-05T14:20:00Z</time>
      </trkpt>
      <trkpt lat="43.44508" lon="2.06609">
        <ele>359</ele>
        <time>2012-04-05T14:20:02Z</time>
      </trkpt>
      <trkpt lat="43.44508" lon="2.06614">
        <ele>361</ele>
        <time>2012-04-05T14:20:04Z</time>
      </trkpt>
      <trkpt lat="43.44506" lon="2.06619">
        <ele>362</ele>
        <time>2012-04-05T14:20:06Z</time>
      </trkpt>
      <trkpt lat="43.44503" lon="2.06625">
        <ele>363</ele>
        <time>2012-04-05T14:20:08Z</time>
      </trkpt>
      <trkpt lat="43.445" lon="2.06629">
        <ele>364</ele>
        <time>2012-04-05T14:20:10Z</time>
      </trkpt>
      <trkpt lat="43.44497" lon="2.06633">
        <ele>366</ele>
        <time>2012-04-05T14:20:12Z</time>
      </trkpt>
      <trkpt lat="43.44493" lon="2.06637">
        <ele>367</ele>
        <time>2012-04-05T14:20:14Z</time>
      </trkpt>
      <trkpt lat="43.44489" lon="2.06641">
        <ele>368</ele>
        <time>2012-04-05T14:20:16Z</time>
      </trkpt>
      <trkpt lat="43.44485" lon="2.06644">
        <ele>368</ele>
        <time>2012-04-05T14:20:18Z</time>
      </trkpt>
      <trkpt lat="43.44482" lon="2.06647">
        <ele>369</ele>
        <time>2012-04-05T14:20:20Z</time>
      </trkpt>
      <trkpt lat="43.44479" lon="2.0665">
        <ele>369</ele>
        <time>2012-04-05T14:20:22Z</time>
      </trkpt>
      <trkpt lat="43.44476" lon="2.06653">
        <ele>369</ele>
        <time>2012-04-05T14:20:24Z</time>
      </trkpt>
      <trkpt lat="43.44473" lon="2.06657">
        <ele>370</ele>
        <time>2012-04-05T14:20:26Z</time>
      </trkpt>
      <trkpt lat="43.44469" lon="2.0666">
        <ele>370</ele>
        <time>2012-04-05T14:20:28Z</time>
      </trkpt>
      <trkpt lat="43.44467" lon="2.06664">
        <ele>370</ele>
        <time>2012-04-05T14:20:30Z</time>
      </trkpt>
      <trkpt lat="43.44464" lon="2.06668">
        <ele>371</ele>
        <time>2012-04-05T14:20:32Z</time>
      </trkpt>
      <trkpt lat="43.44462" lon="2.06673">
        <ele>372</ele>
        <time>2012-04-05T14:20:34Z</time>
      </trkpt>
      <trkpt lat="43.4446" lon="2.06678">
        <ele>373</ele>
        <time>2012-04-05T14:20:36Z</time>
      </trkpt>
      <trkpt lat="43.44458" lon="2.06683">
        <ele>373</ele>
        <time>2012-04-05T14:20:38Z</time>
      </trkpt>
      <trkpt lat="43.44457" lon="2.06687">
        <ele>373</ele>
        <time>2012-04-05T14:20:40Z</time>
      </trkpt>
      <trkpt lat="43.44456" lon="2.06693">
        <ele>374</ele>
        <time>2012-04-05T14:20:42Z</time>
      </trkpt>
      <trkpt lat="43.44456" lon="2.06698">
        <ele>375</ele>
        <time>2012-04-05T14:20:44Z</time>
      </trkpt>
      <trkpt lat="43.44457" lon="2.06702">
        <ele>376</ele>
        <time>2012-04-05T14:20:46Z</time>
      </trkpt>
      <trkpt lat="43.44458" lon="2.06706">
        <ele>376</ele>
        <time>2012-04-05T14:20:48Z</time>
      </trkpt>
      <trkpt lat="43.44461" lon="2.06711">
        <ele>376</ele>
        <time>2012-04-05T14:20:50Z</time>
      </trkpt>
      <trkpt lat="43.44462" lon="2.06715">
        <ele>376</ele>
        <time>2012-04-05T14:20:52Z</time>
      </trkpt>
      <trkpt lat="43.44465" lon="2.06718">
        <ele>376</ele>
        <time>2012-04-05T14:20:54Z</time>
      </trkpt>
      <trkpt lat="43.44468" lon="2.06721">
        <ele>376</ele>
        <time>2012-04-05T14:20:56Z</time>
      </trkpt>
      <trkpt lat="43.44472" lon="2.06725">
        <ele>376</ele>
        <time>2012-04-05T14:20:58Z</time>
      </trkpt>
      <trkpt lat="43.44476" lon="2.06729">
        <ele>376</ele>
        <time>2012-04-05T14:21:00Z</time>
      </trkpt>
      <trkpt lat="43.44479" lon="2.06733">
        <ele>376</ele>
        <time>2012-04-05T14:21:02Z</time>
      </trkpt>
      <trkpt lat="43.44482" lon="2.06737">
        <ele>376</ele>
        <time>2012-04-05T14:21:04Z</time>
      </trkpt>
      <trkpt lat="43.44485" lon="2.06742">
        <ele>376</ele>
        <time>2012-04-05T14:21:06Z</time>
      </trkpt>
      <trkpt lat="43.44487" lon="2.06747">
        <ele>376</ele>
        <time>2012-04-05T14:21:08Z</time>
      </trkpt>
      <trkpt lat="43.4449" lon="2.06752">
        <ele>376</ele>
        <time>2012-04-05T14:21:10Z</time>
      </trkpt>
      <trkpt lat="43.44492" lon="2.06757">
        <ele>376</ele>
        <time>2012-04-05T14:21:12Z</time>
      </trkpt>
      <trkpt lat="43.44493" lon="2.06763">
        <ele>376</ele>
        <time>2012-04-05T14:21:14Z</time>
      </trkpt>
      <trkpt lat="43.44494" lon="2.06768">
        <ele>376</ele>
        <time>2012-04-05T14:21:16Z</time>
      </trkpt>
      <trkpt lat="43.44495" lon="2.06774">
        <ele>376</ele>
        <time>2012-04-05T14:21:18Z</time>
      </trkpt>
      <trkpt lat="43.44496" lon="2.0678">
        <ele>376</ele>
        <time>2012-04-05T14:21:20Z</time>
      </trkpt>
      <trkpt lat="43.44496" lon="2.06786">
        <ele>377</ele>
        <time>2012-04-05T14:21:22Z</time>
      </trkpt>
      <trkpt lat="43.44496" lon="2.06791">
        <ele>378</ele>
        <time>2012-04-05T14:21:24Z</time>
      </trkpt>
      <trkpt lat="43.44496" lon="2.06797">
        <ele>378</ele>
        <time>2012-04-05T14:21:26Z</time>
      </trkpt>
      <trkpt lat="43.44497" lon="2.06803">
        <ele>379</ele>
        <time>2012-04-05T14:21:28Z</time>
      </trkpt>
      <trkpt lat="43.44497" lon="2.06808">
        <ele>379</ele>
        <time>2012-04-05T14:21:30Z</time>
      </trkpt>
      <trkpt lat="43.44498" lon="2.06814">
        <ele>380</ele>
        <time>2012-04-05T14:21:32Z</time>
      </trkpt>
      <trkpt lat="43.44498" lon="2.0682">
        <ele>380</ele>
        <time>2012-04-05T14:21:34Z</time>
      </trkpt>
      <trkpt lat="43.44498" lon="2.06825">
        <ele>380</ele>
        <time>2012-04-05T14:21:36Z</time>
      </trkpt>
      <trkpt lat="43.44499" lon="2.06831">
        <ele>380</ele>
        <time>2012-04-05T14:21:38Z</time>
      </trkpt>
      <trkpt lat="43.44501" lon="2.06836">
        <ele>380</ele>
        <time>2012-04-05T14:21:40Z</time>
      </trkpt>
      <trkpt lat="43.44506" lon="2.0684">
        <ele>381</ele>
        <time>2012-04-05T14:21:42Z</time>
      </trkpt>
      <trkpt lat="43.4451" lon="2.06844">
        <ele>382</ele>
        <time>2012-04-05T14:21:44Z</time>
      </trkpt>
      <trkpt lat="43.44515" lon="2.06844">
        <ele>384</ele>
        <time>2012-04-05T14:21:46Z</time>
      </trkpt>
      <trkpt lat="43.4452" lon="2.06843">
        <ele>384</ele>
        <time>2012-04-05T14:21:48Z</time>
      </trkpt>
      <trkpt lat="43.44524" lon="2.06841">
        <ele>385</ele>
        <time>2012-04-05T14:21:50Z</time>
      </trkpt>
      <trkpt lat="43.44529" lon="2.06838">
        <ele>385</ele>
        <time>2012-04-05T14:21:52Z</time>
      </trkpt>
      <trkpt lat="43.44534" lon="2.06836">
        <ele>385</ele>
        <time>2012-04-05T14:21:54Z</time>
      </trkpt>
      <trkpt lat="43.44539" lon="2.06834">
        <ele>385</ele>
        <time>2012-04-05T14:21:56Z</time>
      </trkpt>
      <trkpt lat="43.44543" lon="2.06833">
        <ele>385</ele>
        <time>2012-04-05T14:21:58Z</time>
      </trkpt>
      <trkpt lat="43.44547" lon="2.06831">
        <ele>385</ele>
        <time>2012-04-05T14:22:00Z</time>
      </trkpt>
      <trkpt lat="43.44551" lon="2.06829">
        <ele>386</ele>
        <time>2012-04-05T14:22:02Z</time>
      </trkpt>
      <trkpt lat="43.44555" lon="2.06828">
        <ele>387</ele>
        <time>2012-04-05T14:22:04Z</time>
      </trkpt>
      <trkpt lat="43.4456" lon="2.06829">
        <ele>387</ele>
        <time>2012-04-05T14:22:06Z</time>
      </trkpt>
      <trkpt lat="43.44564" lon="2.06831">
        <ele>388</ele>
        <time>2012-04-05T14:22:08Z</time>
      </trkpt>
      <trkpt lat="43.44566" lon="2.06834">
        <ele>389</ele>
        <time>2012-04-05T14:22:10Z</time>
      </trkpt>
      <trkpt lat="43.44567" lon="2.06839">
        <ele>389</ele>
        <time>2012-04-05T14:22:12Z</time>
      </trkpt>
      <trkpt lat="43.44568" lon="2.06844">
        <ele>389</ele>
        <time>2012-04-05T14:22:14Z</time>
      </trkpt>
      <trkpt lat="43.44569" lon="2.06849">
        <ele>389</ele>
        <time>2012-04-05T14:22:16Z</time>
      </trkpt>
      <trkpt lat="43.44569" lon="2.06855">
        <ele>390</ele>
        <time>2012-04-05T14:22:18Z</time>
      </trkpt>
      <trkpt lat="43.44569" lon="2.0686">
        <ele>390</ele>
        <time>2012-04-05T14:22:20Z</time>
      </trkpt>
      <trkpt lat="43.44569" lon="2.06865">
        <ele>390</ele>
        <time>2012-04-05T14:22:22Z</time>
      </trkpt>
      <trkpt lat="43.44566" lon="2.06868">
        <ele>390</ele>
        <time>2012-04-05T14:22:24Z</time>
      </trkpt>
      <trkpt lat="43.44563" lon="2.06867">
        <ele>391</ele>
        <time>2012-04-05T14:22:26Z</time>
      </trkpt>
      <trkpt lat="43.4456" lon="2.06865">
        <ele>391</ele>
        <time>2012-04-05T14:22:28Z</time>
      </trkpt>
      <trkpt lat="43.44557" lon="2.06863">
        <ele>392</ele>
        <time>2012-04-05T14:22:30Z</time>
      </trkpt>
      <trkpt lat="43.44553" lon="2.06861">
        <ele>392</ele>
        <time>2012-04-05T14:22:32Z</time>
      </trkpt>
      <trkpt lat="43.4455" lon="2.06862">
        <ele>392</ele>
        <time>2012-04-05T14:22:34Z</time>
      </trkpt>
      <trkpt lat="43.44547" lon="2.06864">
        <ele>393</ele>
        <time>2012-04-05T14:22:36Z</time>
      </trkpt>
      <trkpt lat="43.44543" lon="2.06867">
        <ele>393</ele>
        <time>2012-04-05T14:22:38Z</time>
      </trkpt>
      <trkpt lat="43.4454" lon="2.0687">
        <ele>394</ele>
        <time>2012-04-05T14:22:40Z</time>
      </trkpt>
      <trkpt lat="43.44537" lon="2.06873">
        <ele>394</ele>
        <time>2012-04-05T14:22:42Z</time>
      </trkpt>
      <trkpt lat="43.44534" lon="2.06874">
        <ele>395</ele>
        <time>2012-04-05T14:22:44Z</time>
      </trkpt>
      <trkpt lat="43.4453" lon="2.06876">
        <ele>396</ele>
        <time>2012-04-05T14:22:46Z</time>
      </trkpt>
      <trkpt lat="43.44527" lon="2.06879">
        <ele>396</ele>
        <time>2012-04-05T14:22:48Z</time>
      </trkpt>
      <trkpt lat="43.44524" lon="2.06882">
        <ele>397</ele>
        <time>2012-04-05T14:22:50Z</time>
      </trkpt>
      <trkpt lat="43.4452" lon="2.06884">
        <ele>397</ele>
        <time>2012-04-05T14:22:52Z</time>
      </trkpt>
      <trkpt lat="43.44516" lon="2.06886">
        <ele>398</ele>
        <time>2012-04-05T14:22:54Z</time>
      </trkpt>
      <trkpt lat="43.44513" lon="2.06888">
        <ele>399</ele>
        <time>2012-04-05T14:22:56Z</time>
      </trkpt>
      <trkpt lat="43.4451" lon="2.06892">
        <ele>400</ele>
        <time>2012-04-05T14:22:58Z</time>
      </trkpt>
      <trkpt lat="43.44506" lon="2.06896">
        <ele>400</ele>
        <time>2012-04-05T14:23:00Z</time>
      </trkpt>
      <trkpt lat="43.44503" lon="2.06899">
        <ele>400</ele>
        <time>2012-04-05T14:23:02Z</time>
      </trkpt>
      <trkpt lat="43.445" lon="2.06902">
        <ele>400</ele>
        <time>2012-04-05T14:23:04Z</time>
      </trkpt>
      <trkpt lat="43.44496" lon="2.06905">
        <ele>401</ele>
        <time>2012-04-05T14:23:06Z</time>
      </trkpt>
      <trkpt lat="43.44492" lon="2.06907">
        <ele>402</ele>
        <time>2012-04-05T14:23:08Z</time>
      </trkpt>
      <trkpt lat="43.44488" lon="2.06909">
        <ele>402</ele>
        <time>2012-04-05T14:23:10Z</time>
      </trkpt>
      <trkpt lat="43.44485" lon="2.06912">
        <ele>403</ele>
        <time>2012-04-05T14:23:12Z</time>
      </trkpt>
      <trkpt lat="43.44482" lon="2.06915">
        <ele>403</ele>
        <time>2012-04-05T14:23:14Z</time>
      </trkpt>
      <trkpt lat="43.4448" lon="2.06918">
        <ele>404</ele>
        <time>2012-04-05T14:23:16Z</time>
      </trkpt>
      <trkpt lat="43.44481" lon="2.06923">
        <ele>404</ele>
        <time>2012-04-05T14:23:18Z</time>
      </trkpt>
      <trkpt lat="43.44484" lon="2.06926">
        <ele>404</ele>
        <time>2012-04-05T14:23:20Z</time>
      </trkpt>
      <trkpt lat="43.44488" lon="2.06926">
        <ele>404</ele>
        <time>2012-04-05T14:23:22Z</time>
      </trkpt>
      <trkpt lat="43.44492" lon="2.06924">
        <ele>404</ele>
        <time>2012-04-05T14:23:24Z</time>
      </trkpt>
      <trkpt lat="43.44495" lon="2.06923">
        <ele>404</ele>
        <time>2012-04-05T14:23:26Z</time>
      </trkpt>
      <trkpt lat="43.445" lon="2.0692">
        <ele>405</ele>
        <time>2012-04-05T14:23:28Z</time>
      </trkpt>
      <trkpt lat="43.44504" lon="2.06918">
        <ele>406</ele>
        <time>2012-04-05T14:23:30Z</time>
      </trkpt>
      <trkpt lat="43.44507" lon="2.06916">
        <ele>408</ele>
        <time>2012-04-05T14:23:32Z</time>
      </trkpt>
      <trkpt lat="43.44511" lon="2.06914">
        <ele>409</ele>
        <time>2012-04-05T14:23:34Z</time>
      </trkpt>
      <trkpt lat="43.44514" lon="2.06911">
        <ele>410</ele>
        <time>2012-04-05T14:23:36Z</time>
      </trkpt>
      <trkpt lat="43.44518" lon="2.06909">
        <ele>411</ele>
        <time>2012-04-05T14:23:38Z</time>
      </trkpt>
      <trkpt lat="43.44523" lon="2.06906">
        <ele>411</ele>
        <time>2012-04-05T14:23:40Z</time>
      </trkpt>
      <trkpt lat="43.44528" lon="2.06906">
        <ele>412</ele>
        <time>2012-04-05T14:23:42Z</time>
      </trkpt>
      <trkpt lat="43.44533" lon="2.06906">
        <ele>412</ele>
        <time>2012-04-05T14:23:44Z</time>
      </trkpt>
      <trkpt lat="43.44537" lon="2.06907">
        <ele>413</ele>
        <time>2012-04-05T14:23:46Z</time>
      </trkpt>
      <trkpt lat="43.44541" lon="2.06909">
        <ele>413</ele>
        <time>2012-04-05T14:23:48Z</time>
      </trkpt>
      <trkpt lat="43.44543" lon="2.06914">
        <ele>414</ele>
        <time>2012-04-05T14:23:50Z</time>
      </trkpt>
      <trkpt lat="43.44545" lon="2.06919">
        <ele>414</ele>
        <time>2012-04-05T14:23:52Z</time>
      </trkpt>
      <trkpt lat="43.44544" lon="2.06925">
        <ele>414</ele>
        <time>2012-04-05T14:23:54Z</time>
      </trkpt>
      <trkpt lat="43.44544" lon="2.06931">
        <ele>414</ele>
        <time>2012-04-05T14:23:56Z</time>
      </trkpt>
      <trkpt lat="43.44542" lon="2.06937">
        <ele>414</ele>
        <time>2012-04-05T14:23:58Z</time>
      </trkpt>
      <trkpt lat="43.4454" lon="2.06941">
        <ele>414</ele>
        <time>2012-04-05T14:24:00Z</time>
      </trkpt>
      <trkpt lat="43.44537" lon="2.06945">
        <ele>414</ele>
        <time>2012-04-05T14:24:02Z</time>
      </trkpt>
      <trkpt lat="43.44533" lon="2.06949">
        <ele>414</ele>
        <time>2012-04-05T14:24:04Z</time>
      </trkpt>
      <trkpt lat="43.44528" lon="2.06952">
        <ele>415</ele>
        <time>2012-04-05T14:24:06Z</time>
      </trkpt>
      <trkpt lat="43.44524" lon="2.06955">
        <ele>416</ele>
        <time>2012-04-05T14:24:08Z</time>
      </trkpt>
      <trkpt lat="43.4452" lon="2.06957">
        <ele>416</ele>
        <time>2012-04-05T14:24:10Z</time>
      </trkpt>
      <trkpt lat="43.44516" lon="2.0696">
        <ele>416</ele>
        <time>2012-04-05T14:24:12Z</time>
      </trkpt>
      <trkpt lat="43.44511" lon="2.06962">
        <ele>417</ele>
        <time>2012-04-05T14:24:14Z</time>
      </trkpt>
      <trkpt lat="43.44506" lon="2.06964">
        <ele>417</ele>
        <time>2012-04-05T14:24:16Z</time>
      </trkpt>
      <trkpt lat="43.44502" lon="2.06965">
        <ele>418</ele>
        <time>2012-04-05T14:24:18Z</time>
      </trkpt>
      <trkpt lat="43.44498" lon="2.06967">
        <ele>419</ele>
        <time>2012-04-05T14:24:20Z</time>
      </trkpt>
      <trkpt lat="43.44493" lon="2.06968">
        <ele>419</ele>
        <time>2012-04-05T14:24:22Z</time>
      </trkpt>
      <trkpt lat="43.44488" lon="2.06968">
        <ele>419</ele>
        <time>2012-04-05T14:24:24Z</time>
      </trkpt>
      <trkpt lat="43.44484" lon="2.06969">
        <ele>419</ele>
        <time>2012-04-05T14:24:26Z</time>
      </trkpt>
      <trkpt lat="43.44479" lon="2.06968">
        <ele>419</ele>
        <time>2012-04-05T14:24:28Z</time>
      </trkpt>
      <trkpt lat="43.44474" lon="2.06967">
        <ele>419</ele>
        <time>2012-04-05T14:24:30Z</time>
      </trkpt>
      <trkpt lat="43.4447" lon="2.06966">
        <ele>419</ele>
        <time>2012-04-05T14:24:32Z</time>
      </trkpt>
      <trkpt lat="43.44466" lon="2.06965">
        <ele>419</ele>
        <time>2012-04-05T14:24:34Z</time>
      </trkpt>
      <trkpt lat="43.44463" lon="2.06964">
        <ele>419</ele>
        <time>2012-04-05T14:24:36Z</time>
      </trkpt>
      <trkpt lat="43.44459" lon="2.06962">
        <ele>419</ele>
        <time>2012-04-05T14:24:38Z</time>
      </trkpt>
      <trkpt lat="43.44453" lon="2.0696">
        <ele>419</ele>
        <time>2012-04-05T14:24:40Z</time>
      </trkpt>
      <trkpt lat="43.4445" lon="2.06955">
        <ele>418</ele>
        <time>2012-04-05T14:24:42Z</time>
      </trkpt>
      <trkpt lat="43.44447" lon="2.06949">
        <ele>418</ele>
        <time>2012-04-05T14:24:44Z</time>
      </trkpt>
      <trkpt lat="43.44445" lon="2.06942">
        <ele>418</ele>
        <time>2012-04-05T14:24:46Z</time>
      </trkpt>
      <trkpt lat="43.44443" lon="2.06936">
        <ele>417</ele>
        <time>2012-04-05T14:24:48Z</time>
      </trkpt>
      <trkpt lat="43.44442" lon="2.0693">
        <ele>416</ele>
        <time>2012-04-05T14:24:50Z</time>
      </trkpt>
      <trkpt lat="43.4444" lon="2.06924">
        <ele>416</ele>
        <time>2012-04-05T14:24:52Z</time>
      </trkpt>
      <trkpt lat="43.44438" lon="2.06917">
        <ele>416</ele>
        <time>2012-04-05T14:24:54Z</time>
      </trkpt>
      <trkpt lat="43.44434" lon="2.0691">
        <ele>416</ele>
        <time>2012-04-05T14:24:56Z</time>
      </trkpt>
      <trkpt lat="43.44431" lon="2.06904">
        <ele>416</ele>
        <time>2012-04-05T14:24:58Z</time>
      </trkpt>
      <trkpt lat="43.44429" lon="2.06899">
        <ele>416</ele>
        <time>2012-04-05T14:25:00Z</time>
      </trkpt>
      <trkpt lat="43.44426" lon="2.06893">
        <ele>416</ele>
        <time>2012-04-05T14:25:02Z</time>
      </trkpt>
      <trkpt lat="43.44423" lon="2.06888">
        <ele>416</ele>
        <time>2012-04-05T14:25:04Z</time>
      </trkpt>
      <trkpt lat="43.44421" lon="2.06883">
        <ele>417</ele>
        <time>2012-04-05T14:25:06Z</time>
      </trkpt>
      <trkpt lat="43.44418" lon="2.06877">
        <ele>418</ele>
        <time>2012-04-05T14:25:08Z</time>
      </trkpt>
      <trkpt lat="43.44415" lon="2.06873">
        <ele>419</ele>
        <time>2012-04-05T14:25:10Z</time>
      </trkpt>
      <trkpt lat="43.44412" lon="2.06868">
        <ele>419</ele>
        <time>2012-04-05T14:25:12Z</time>
      </trkpt>
      <trkpt lat="43.44409" lon="2.06863">
        <ele>420</ele>
        <time>2012-04-05T14:25:14Z</time>
      </trkpt>
      <trkpt lat="43.44406" lon="2.0686">
        <ele>421</ele>
        <time>2012-04-05T14:25:16Z</time>
      </trkpt>
      <trkpt lat="43.44403" lon="2.06856">
        <ele>421</ele>
        <time>2012-04-05T14:25:18Z</time>
      </trkpt>
      <trkpt lat="43.444" lon="2.06852">
        <ele>421</ele>
        <time>2012-04-05T14:25:20Z</time>
      </trkpt>
      <trkpt lat="43.44396" lon="2.06848">
        <ele>422</ele>
        <time>2012-04-05T14:25:22Z</time>
      </trkpt>
      <trkpt lat="43.44393" lon="2.06845">
        <ele>422</ele>
        <time>2012-04-05T14:25:24Z</time>
      </trkpt>
      <trkpt lat="43.44389" lon="2.06842">
        <ele>422</ele>
        <time>2012-04-05T14:25:26Z</time>
      </trkpt>
      <trkpt lat="43.44386" lon="2.06838">
        <ele>422</ele>
        <time>2012-04-05T14:25:28Z</time>
      </trkpt>
      <trkpt lat="43.44382" lon="2.06834">
        <ele>422</ele>
        <time>2012-04-05T14:25:30Z</time>
      </trkpt>
      <trkpt lat="43.44378" lon="2.06831">
        <ele>422</ele>
        <time>2012-04-05T14:25:32Z</time>
      </trkpt>
      <trkpt lat="43.44375" lon="2.06828">
        <ele>423</ele>
        <time>2012-04-05T14:25:34Z</time>
      </trkpt>
      <trkpt lat="43.44371" lon="2.06826">
        <ele>423</ele>
        <time>2012-04-05T14:25:36Z</time>
      </trkpt>
      <trkpt lat="43.44367" lon="2.06823">
        <ele>424</ele>
        <time>2012-04-05T14:25:38Z</time>
      </trkpt>
      <trkpt lat="43.44364" lon="2.0682">
        <ele>424</ele>
        <time>2012-04-05T14:25:40Z</time>
      </trkpt>
      <trkpt lat="43.44359" lon="2.06818">
        <ele>425</ele>
        <time>2012-04-05T14:25:42Z</time>
      </trkpt>
      <trkpt lat="43.44355" lon="2.06817">
        <ele>425</ele>
        <time>2012-04-05T14:25:44Z</time>
      </trkpt>
      <trkpt lat="43.4435" lon="2.06815">
        <ele>426</ele>
        <time>2012-04-05T14:25:46Z</time>
      </trkpt>
      <trkpt lat="43.44346" lon="2.06814">
        <ele>426</ele>
        <time>2012-04-05T14:25:48Z</time>
      </trkpt>
      <trkpt lat="43.44342" lon="2.06812">
        <ele>427</ele>
        <time>2012-04-05T14:25:50Z</time>
      </trkpt>
      <trkpt lat="43.44339" lon="2.0681">
        <ele>428</ele>
        <time>2012-04-05T14:25:52Z</time>
      </trkpt>
      <trkpt lat="43.44335" lon="2.0681">
        <ele>428</ele>
        <time>2012-04-05T14:25:54Z</time>
      </trkpt>
      <trkpt lat="43.44331" lon="2.06813">
        <ele>428</ele>
        <time>2012-04-05T14:25:56Z</time>
      </trkpt>
      <trkpt lat="43.44329" lon="2.06817">
        <ele>428</ele>
        <time>2012-04-05T14:25:58Z</time>
      </trkpt>
      <trkpt lat="43.44329" lon="2.06821">
        <ele>428</ele>
        <time>2012-04-05T14:26:00Z</time>
      </trkpt>
      <trkpt lat="43.44331" lon="2.06825">
        <ele>428</ele>
        <time>2012-04-05T14:26:02Z</time>
      </trkpt>
      <trkpt lat="43.44333" lon="2.06828">
        <ele>430</ele>
        <time>2012-04-05T14:26:04Z</time>
      </trkpt>
      <trkpt lat="43.44336" lon="2.06831">
        <ele>431</ele>
        <time>2012-04-05T14:26:06Z</time>
      </trkpt>
      <trkpt lat="43.44338" lon="2.06834">
        <ele>433</ele>
        <time>2012-04-05T14:26:08Z</time>
      </trkpt>
      <trkpt lat="43.44341" lon="2.06838">
        <ele>433</ele>
        <time>2012-04-05T14:26:10Z</time>
      </trkpt>
      <trkpt lat="43.44342" lon="2.06842">
        <ele>434</ele>
        <time>2012-04-05T14:26:12Z</time>
      </trkpt>
      <trkpt lat="43.44344" lon="2.06846">
        <ele>434</ele>
        <time>2012-04-05T14:26:14Z</time>
      </trkpt>
      <trkpt lat="43.44346" lon="2.06851">
        <ele>435</ele>
        <time>2012-04-05T14:26:16Z</time>
      </trkpt>
      <trkpt lat="43.44347" lon="2.06856">
        <ele>435</ele>
        <time>2012-04-05T14:26:18Z</time>
      </trkpt>
      <trkpt lat="43.44349" lon="2.06861">
        <ele>435</ele>
        <time>2012-04-05T14:26:20Z</time>
      </trkpt>
      <trkpt lat="43.44351" lon="2.06866">
        <ele>436</ele>
        <time>2012-04-05T14:26:22Z</time>
      </trkpt>
      <trkpt lat="43.44353" lon="2.06871">
        <ele>436</ele>
        <time>2012-04-05T14:26:24Z</time>
      </trkpt>
      <trkpt lat="43.44355" lon="2.06876">
        <ele>436</ele>
        <time>2012-04-05T14:26:26Z</time>
      </trkpt>
      <trkpt lat="43.44357" lon="2.06882">
        <ele>437</ele>
        <time>2012-04-05T14:26:28Z</time>
      </trkpt>
      <trkpt lat="43.44359" lon="2.06887">
        <ele>437</ele>
        <time>2012-04-05T14:26:30Z</time>
      </trkpt>
      <trkpt lat="43.44361" lon="2.06893">
        <ele>438</ele>
        <time>2012-04-05T14:26:32Z</time>
      </trkpt>
      <trkpt lat="43.44364" lon="2.06898">
        <ele>439</ele>
        <time>2012-04-05T14:26:34Z</time>
      </trkpt>
      <trkpt lat="43.44367" lon="2.06904">
        <ele>439</ele>
        <time>2012-04-05T14:26:36Z</time>
      </trkpt>
      <trkpt lat="43.4437" lon="2.0691">
        <ele>440</ele>
        <time>2012-04-05T14:26:38Z</time>
      </trkpt>
      <trkpt lat="43.44373" lon="2.06917">
        <ele>440</ele>
        <time>2012-04-05T14:26:40Z</time>
      </trkpt>
      <trkpt lat="43.44375" lon="2.06926">
        <ele>441</ele>
        <time>2012-04-05T14:26:42Z</time>
      </trkpt>
      <trkpt lat="43.44376" lon="2.06935">
        <ele>442</ele>
        <time>2012-04-05T14:26:44Z</time>
      </trkpt>
      <trkpt lat="43.44376" lon="2.06945">
        <ele>442</ele>
        <time>2012-04-05T14:26:46Z</time>
      </trkpt>
      <trkpt lat="43.44376" lon="2.06955">
        <ele>443</ele>
        <time>2012-04-05T14:26:48Z</time>
      </trkpt>
      <trkpt lat="43.44376" lon="2.06965">
        <ele>444</ele>
        <time>2012-04-05T14:26:50Z</time>
      </trkpt>
      <trkpt lat="43.44377" lon="2.06975">
        <ele>446</ele>
        <time>2012-04-05T14:26:52Z</time>
      </trkpt>
      <trkpt lat="43.44375" lon="2.06984">
        <ele>447</ele>
        <time>2012-04-05T14:26:54Z</time>
      </trkpt>
      <trkpt lat="43.44374" lon="2.06994">
        <ele>449</ele>
        <time>2012-04-05T14:26:56Z</time>
      </trkpt>
      <trkpt lat="43.44372" lon="2.07002">
        <ele>450</ele>
        <time>2012-04-05T14:26:58Z</time>
      </trkpt>
      <trkpt lat="43.44371" lon="2.0701">
        <ele>451</ele>
        <time>2012-04-05T14:27:00Z</time>
      </trkpt>
      <trkpt lat="43.44368" lon="2.07014">
        <ele>452</ele>
        <time>2012-04-05T14:27:02Z</time>
      </trkpt>
      <trkpt lat="43.44366" lon="2.07016">
        <ele>452</ele>
        <time>2012-04-05T14:27:04Z</time>
      </trkpt>
      <trkpt lat="43.44363" lon="2.07014">
        <ele>452</ele>
        <time>2012-04-05T14:27:06Z</time>
      </trkpt>
      <trkpt lat="43.44361" lon="2.0701">
        <ele>452</ele>
        <time>2012-04-05T14:27:08Z</time>
      </trkpt>
      <trkpt lat="43.44361" lon="2.07005">
        <ele>452</ele>
        <time>2012-04-05T14:27:10Z</time>
      </trkpt>
      <trkpt lat="43.4436" lon="2.07001">
        <ele>452</ele>
        <time>2012-04-05T14:27:12Z</time>
      </trkpt>
      <trkpt lat="43.44359" lon="2.06996">
        <ele>452</ele>
        <time>2012-04-05T14:27:14Z</time>
      </trkpt>
      <trkpt lat="43.44359" lon="2.06991">
        <ele>452</ele>
        <time>2012-04-05T14:27:16Z</time>
      </trkpt>
      <trkpt lat="43.44359" lon="2.06987">
        <ele>452</ele>
        <time>2012-04-05T14:27:18Z</time>
      </trkpt>
      <trkpt lat="43.44359" lon="2.06982">
        <ele>452</ele>
        <time>2012-04-05T14:27:20Z</time>
      </trkpt>
      <trkpt lat="43.4436" lon="2.06977">
        <ele>452</ele>
        <time>2012-04-05T14:27:22Z</time>
      </trkpt>
      <trkpt lat="43.4436" lon="2.06971">
        <ele>452</ele>
        <time>2012-04-05T14:27:24Z</time>
      </trkpt>
      <trkpt lat="43.4436" lon="2.06965">
        <ele>452</ele>
        <time>2012-04-05T14:27:26Z</time>
      </trkpt>
      <trkpt lat="43.4436" lon="2.06958">
        <ele>451</ele>
        <time>2012-04-05T14:27:28Z</time>
      </trkpt>
      <trkpt lat="43.44358" lon="2.06952">
        <ele>451</ele>
        <time>2012-04-05T14:27:30Z</time>
      </trkpt>
      <trkpt lat="43.44355" lon="2.06947">
        <ele>451</ele>
        <time>2012-04-05T14:27:32Z</time>
      </trkpt>
      <trkpt lat="43.44352" lon="2.06944">
        <ele>451</ele>
        <time>2012-04-05T14:27:34Z</time>
      </trkpt>
      <trkpt lat="43.44349" lon="2.06941">
        <ele>451</ele>
        <time>2012-04-05T14:27:36Z</time>
      </trkpt>
      <trkpt lat="43.44345" lon="2.06938">
        <ele>451</ele>
        <time>2012-04-05T14:27:38Z</time>
      </trkpt>
      <trkpt lat="43.44341" lon="2.06937">
        <ele>451</ele>
        <time>2012-04-05T14:27:40Z</time>
      </trkpt>
      <trkpt lat="43.44337" lon="2.06933">
        <ele>451</ele>
        <time>2012-04-05T14:27:42Z</time>
      </trkpt>
      <trkpt lat="43.44334" lon="2.06931">
        <ele>451</ele>
        <time>2012-04-05T14:27:44Z</time>
      </trkpt>
      <trkpt lat="43.44331" lon="2.06928">
        <ele>451</ele>
        <time>2012-04-05T14:27:46Z</time>
      </trkpt>
      <trkpt lat="43.44328" lon="2.06925">
        <ele>451</ele>
        <time>2012-04-05T14:27:48Z</time>
      </trkpt>
      <trkpt lat="43.44324" lon="2.06924">
        <ele>451</ele>
        <time>2012-04-05T14:27:50Z</time>
      </trkpt>
      <trkpt lat="43.44321" lon="2.06924">
        <ele>451</ele>
        <time>2012-04-05T14:27:52Z</time>
      </trkpt>
      <trkpt lat="43.44319" lon="2.06924">
        <ele>451</ele>
        <time>2012-04-05T14:27:54Z</time>
      </trkpt>
      <trkpt lat="43.44316" lon="2.06925">
        <ele>452</ele>
        <time>2012-04-05T14:27:56Z</time>
      </trkpt>
      <trkpt lat="43.44312" lon="2.06925">
        <ele>453</ele>
        <time>2012-04-05T14:27:58Z</time>
      </trkpt>
      <trkpt lat="43.44309" lon="2.06925">
        <ele>453</ele>
        <time>2012-04-05T14:28:00Z</time>
      </trkpt>
      <trkpt lat="43.44306" lon="2.06926">
        <ele>454</ele>
        <time>2012-04-05T14:28:02Z</time>
      </trkpt>
      <trkpt lat="43.44302" lon="2.06926">
        <ele>455</ele>
        <time>2012-04-05T14:28:04Z</time>
      </trkpt>
      <trkpt lat="43.44299" lon="2.06928">
        <ele>455</ele>
        <time>2012-04-05T14:28:06Z</time>
      </trkpt>
      <trkpt lat="43.44296" lon="2.06929">
        <ele>456</ele>
        <time>2012-04-05T14:28:08Z</time>
      </trkpt>
      <trkpt lat="43.44293" lon="2.0693">
        <ele>456</ele>
        <time>2012-04-05T14:28:10Z</time>
      </trkpt>
      <trkpt lat="43.4429" lon="2.06932">
        <ele>457</ele>
        <time>2012-04-05T14:28:12Z</time>
      </trkpt>
      <trkpt lat="43.44287" lon="2.06934">
        <ele>458</ele>
        <time>2012-04-05T14:28:14Z</time>
      </trkpt>
      <trkpt lat="43.44285" lon="2.06936">
        <ele>459</ele>
        <time>2012-04-05T14:28:16Z</time>
      </trkpt>
      <trkpt lat="43.44283" lon="2.06939">
        <ele>460</ele>
        <time>2012-04-05T14:28:18Z</time>
      </trkpt>
      <trkpt lat="43.44281" lon="2.06941">
        <ele>461</ele>
        <time>2012-04-05T14:28:20Z</time>
      </trkpt>
      <trkpt lat="43.44278" lon="2.06943">
        <ele>462</ele>
        <time>2012-04-05T14:28:22Z</time>
      </trkpt>
      <trkpt lat="43.44276" lon="2.06945">
        <ele>464</ele>
        <time>2012-04-05T14:28:24Z</time>
      </trkpt>
      <trkpt lat="43.44274" lon="2.06947">
        <ele>465</ele>
        <time>2012-04-05T14:28:26Z</time>
      </trkpt>
      <trkpt lat="43.44271" lon="2.06949">
        <ele>466</ele>
        <time>2012-04-05T14:28:28Z</time>
      </trkpt>
      <trkpt lat="43.44269" lon="2.0695">
        <ele>467</ele>
        <time>2012-04-05T14:28:30Z</time>
      </trkpt>
      <trkpt lat="43.44265" lon="2.06951">
        <ele>468</ele>
        <time>2012-04-05T14:28:32Z</time>
      </trkpt>
      <trkpt lat="43.44262" lon="2.06952">
        <ele>469</ele>
        <time>2012-04-05T14:28:34Z</time>
      </trkpt>
      <trkpt lat="43.4426" lon="2.06953">
        <ele>469</ele>
        <time>2012-04-05T14:28:36Z</time>
      </trkpt>
      <trkpt lat="43.44257" lon="2.06953">
        <ele>470</ele>
        <time>2012-04-05T14:28:38Z</time>
      </trkpt>
      <trkpt lat="43.44253" lon="2.06953">
        <ele>470</ele>
        <time>2012-04-05T14:28:40Z</time>
      </trkpt>
      <trkpt lat="43.4425" lon="2.06954">
        <ele>471</ele>
        <time>2012-04-05T14:28:42Z</time>
      </trkpt>
      <trkpt lat="43.44247" lon="2.06956">
        <ele>471</ele>
        <time>2012-04-05T14:28:44Z</time>
      </trkpt>
      <trkpt lat="43.44245" lon="2.06958">
        <ele>472</ele>
        <time>2012-04-05T14:28:46Z</time>
      </trkpt>
      <trkpt lat="43.44243" lon="2.06961">
        <ele>473</ele>
        <time>2012-04-05T14:28:48Z</time>
      </trkpt>
      <trkpt lat="43.44241" lon="2.06965">
        <ele>474</ele>
        <time>2012-04-05T14:28:50Z</time>
      </trkpt>
      <trkpt lat="43.4424" lon="2.06969">
        <ele>475</ele>
        <time>2012-04-05T14:28:52Z</time>
      </trkpt>
      <trkpt lat="43.44239" lon="2.06973">
        <ele>475</ele>
        <time>2012-04-05T14:28:54Z</time>
      </trkpt>
      <trkpt lat="43.44239" lon="2.06977">
        <ele>476</ele>
        <time>2012-04-05T14:28:56Z</time>
      </trkpt>
      <trkpt lat="43.44238" lon="2.06981">
        <ele>476</ele>
        <time>2012-04-05T14:28:58Z</time>
      </trkpt>
      <trkpt lat="43.44238" lon="2.06985">
        <ele>477</ele>
        <time>2012-04-05T14:29:00Z</time>
      </trkpt>
      <trkpt lat="43.44239" lon="2.06989">
        <ele>478</ele>
        <time>2012-04-05T14:29:02Z</time>
      </trkpt>
      <trkpt lat="43.44239" lon="2.06993">
        <ele>478</ele>
        <time>2012-04-05T14:29:04Z</time>
      </trkpt>
      <trkpt lat="43.4424" lon="2.06997">
        <ele>478</ele>
        <time>2012-04-05T14:29:06Z</time>
      </trkpt>
      <trkpt lat="43.44241" lon="2.07001">
        <ele>479</ele>
        <time>2012-04-05T14:29:08Z</time>
      </trkpt>
      <trkpt lat="43.44241" lon="2.07005">
        <ele>479</ele>
        <time>2012-04-05T14:29:10Z</time>
      </trkpt>
      <trkpt lat="43.44242" lon="2.0701">
        <ele>480</ele>
        <time>2012-04-05T14:29:12Z</time>
      </trkpt>
      <trkpt lat="43.44243" lon="2.07014">
        <ele>481</ele>
        <time>2012-04-05T14:29:14Z</time>
      </trkpt>
      <trkpt lat="43.44244" lon="2.07018">
        <ele>481</ele>
        <time>2012-04-05T14:29:16Z</time>
      </trkpt>
      <trkpt lat="43.44244" lon="2.07022">
        <ele>482</ele>
        <time>2012-04-05T14:29:18Z</time>
      </trkpt>
      <trkpt lat="43.44245" lon="2.07026">
        <ele>483</ele>
        <time>2012-04-05T14:29:20Z</time>
      </trkpt>
      <trkpt lat="43.44246" lon="2.07031">
        <ele>484</ele>
        <time>2012-04-05T14:29:22Z</time>
      </trkpt>
      <trkpt lat="43.44246" lon="2.07035">
        <ele>485</ele>
        <time>2012-04-05T14:29:24Z</time>
      </trkpt>
      <trkpt lat="43.44247" lon="2.07039">
        <ele>485</ele>
        <time>2012-04-05T14:29:26Z</time>
      </trkpt>
      <trkpt lat="43.44247" lon="2.07043">
        <ele>486</ele>
        <time>2012-04-05T14:29:28Z</time>
      </trkpt>
      <trkpt lat="43.44249" lon="2.07047">
        <ele>486</ele>
        <time>2012-04-05T14:29:30Z</time>
      </trkpt>
      <trkpt lat="43.4425" lon="2.07051">
        <ele>487</ele>
        <time>2012-04-05T14:29:32Z</time>
      </trkpt>
      <trkpt lat="43.44252" lon="2.07055">
        <ele>487</ele>
        <time>2012-04-05T14:29:34Z</time>
      </trkpt>
      <trkpt lat="43.44253" lon="2.07059">
        <ele>487</ele>
        <time>2012-04-05T14:29:36Z</time>
      </trkpt>
      <trkpt lat="43.44253" lon="2.07064">
        <ele>488</ele>
        <time>2012-04-05T14:29:38Z</time>
      </trkpt>
      <trkpt lat="43.44254" lon="2.07068">
        <ele>488</ele>
        <time>2012-04-05T14:29:40Z</time>
      </trkpt>
      <trkpt lat="43.44255" lon="2.07072">
        <ele>488</ele>
        <time>2012-04-05T14:29:42Z</time>
      </trkpt>
      <trkpt lat="43.44256" lon="2.07077">
        <ele>488</ele>
        <time>2012-04-05T14:29:44Z</time>
      </trkpt>
      <trkpt lat="43.44257" lon="2.07082">
        <ele>489</ele>
        <time>2012-04-05T14:29:46Z</time>
      </trkpt>
      <trkpt lat="43.44258" lon="2.07087">
        <ele>489</ele>
        <time>2012-04-05T14:29:48Z</time>
      </trkpt>
      <trkpt lat="43.44258" lon="2.07092">
        <ele>490</ele>
        <time>2012-04-05T14:29:50Z</time>
      </trkpt>
      <trkpt lat="43.44259" lon="2.07097">
        <ele>490</ele>
        <time>2012-04-05T14:29:52Z</time>
      </trkpt>
      <trkpt lat="43.44259" lon="2.07102">
        <ele>491</ele>
        <time>2012-04-05T14:29:54Z</time>
      </trkpt>
      <trkpt lat="43.4426" lon="2.07107">
        <ele>491</ele>
        <time>2012-04-05T14:29:56Z</time>
      </trkpt>
      <trkpt lat="43.44261" lon="2.07113">
        <ele>491</ele>
        <time>2012-04-05T14:29:58Z</time>
      </trkpt>
      <trkpt lat="43.44262" lon="2.07119">
        <ele>491</ele>
        <time>2012-04-05T14:30:00Z</time>
      </trkpt>
      <trkpt lat="43.44263" lon="2.07124">
        <ele>491</ele>
        <time>2012-04-05T14:30:02Z</time>
      </trkpt>
      <trkpt lat="43.44263" lon="2.07129">
        <ele>491</ele>
        <time>2012-04-05T14:30:04Z</time>
      </trkpt>
      <trkpt lat="43.44264" lon="2.07133">
        <ele>491</ele>
        <time>2012-04-05T14:30:06Z</time>
      </trkpt>
      <trkpt lat="43.44264" lon="2.07138">
        <ele>491</ele>
        <time>2012-04-05T14:30:08Z</time>
      </trkpt>
      <trkpt lat="43.44265" lon="2.07143">
        <ele>491</ele>
        <time>2012-04-05T14:30:10Z</time>
      </trkpt>
      <trkpt lat="43.44265" lon="2.07148">
        <ele>491</ele>
        <time>2012-04-05T14:30:12Z</time>
      </trkpt>
      <trkpt lat="43.44266" lon="2.07154">
        <ele>491</ele>
        <time>2012-04-05T14:30:14Z</time>
      </trkpt>
      <trkpt lat="43.44266" lon="2.07159">
        <ele>491</ele>
        <time>2012-04-05T14:30:16Z</time>
      </trkpt>
      <trkpt lat="43.44267" lon="2.07164">
        <ele>491</ele>
        <time>2012-04-05T14:30:18Z</time>
      </trkpt>
      <trkpt lat="43.44267" lon="2.07169">
        <ele>491</ele>
        <time>2012-04-05T14:30:20Z</time>
      </trkpt>
      <trkpt lat="43.44267" lon="2.07173">
        <ele>491</ele>
        <time>2012-04-05T14:30:22Z</time>
      </trkpt>
      <trkpt lat="43.44268" lon="2.07178">
        <ele>491</ele>
        <time>2012-04-05T14:30:24Z</time>
      </trkpt>
      <trkpt lat="43.44267" lon="2.07183">
        <ele>491</ele>
        <time>2012-04-05T14:30:26Z</time>
      </trkpt>
      <trkpt lat="43.44267" lon="2.07188">
        <ele>491</ele>
        <time>2012-04-05T14:30:28Z</time>
      </trkpt>
      <trkpt lat="43.44267" lon="2.07193">
        <ele>491</ele>
        <time>2012-04-05T14:30:30Z</time>
      </trkpt>
      <trkpt lat="43.44267" lon="2.07198">
        <ele>491</ele>
        <time>2012-04-05T14:30:32Z</time>
      </trkpt>
      <trkpt lat="43.44267" lon="2.07203">
        <ele>491</ele>
        <time>2012-04-05T14:30:34Z</time>
      </trkpt>
      <trkpt lat="43.44267" lon="2.07208">
        <ele>491</ele>
        <time>2012-04-05T14:30:36Z</time>
      </trkpt>
      <trkpt lat="43.44266" lon="2.07213">
        <ele>492</ele>
        <time>2012-04-05T14:30:38Z</time>
      </trkpt>
      <trkpt lat="43.44266" lon="2.07218">
        <ele>493</ele>
        <time>2012-04-05T14:30:40Z</time>
      </trkpt>
      <trkpt lat="43.44265" lon="2.07223">
        <ele>494</ele>
        <time>2012-04-05T14:30:42Z</time>
      </trkpt>
      <trkpt lat="43.44265" lon="2.07227">
        <ele>495</ele>
        <time>2012-04-05T14:30:44Z</time>
      </trkpt>
      <trkpt lat="43.44264" lon="2.07231">
        <ele>497</ele>
        <time>2012-04-05T14:30:46Z</time>
      </trkpt>
      <trkpt lat="43.44263" lon="2.07235">
        <ele>498</ele>
        <time>2012-04-05T14:30:48Z</time>
      </trkpt>
      <trkpt lat="43.44261" lon="2.07239">
        <ele>500</ele>
        <time>2012-04-05T14:30:50Z</time>
      </trkpt>
      <trkpt lat="43.4426" lon="2.07242">
        <ele>501</ele>
        <time>2012-04-05T14:30:52Z</time>
      </trkpt>
      <trkpt lat="43.44257" lon="2.07246">
        <ele>501</ele>
        <time>2012-04-05T14:30:54Z</time>
      </trkpt>
      <trkpt lat="43.44256" lon="2.07249">
        <ele>502</ele>
        <time>2012-04-05T14:30:56Z</time>
      </trkpt>
      <trkpt lat="43.44256" lon="2.07252">
        <ele>502</ele>
        <time>2012-04-05T14:30:58Z</time>
      </trkpt>
      <trkpt lat="43.44255" lon="2.07256">
        <ele>503</ele>
        <time>2012-04-05T14:31:00Z</time>
      </trkpt>
      <trkpt lat="43.44255" lon="2.0726">
        <ele>503</ele>
        <time>2012-04-05T14:31:02Z</time>
      </trkpt>
      <trkpt lat="43.44255" lon="2.07265">
        <ele>503</ele>
        <time>2012-04-05T14:31:04Z</time>
      </trkpt>
      <trkpt lat="43.44254" lon="2.07268">
        <ele>503</ele>
        <time>2012-04-05T14:31:06Z</time>
      </trkpt>
      <trkpt lat="43.44253" lon="2.07273">
        <ele>503</ele>
        <time>2012-04-05T14:31:09Z</time>
      </trkpt>
      <trkpt lat="43.44253" lon="2.07278">
        <ele>503</ele>
        <time>2012-04-05T14:31:11Z</time>
      </trkpt>
      <trkpt lat="43.44253" lon="2.07283">
        <ele>503</ele>
        <time>2012-04-05T14:31:13Z</time>
      </trkpt>
      <trkpt lat="43.44253" lon="2.07287">
        <ele>503</ele>
        <time>2012-04-05T14:31:15Z</time>
      </trkpt>
      <trkpt lat="43.44253" lon="2.07291">
        <ele>503</ele>
        <time>2012-04-05T14:31:17Z</time>
      </trkpt>
      <trkpt lat="43.44252" lon="2.07295">
        <ele>503</ele>
        <time>2012-04-05T14:31:19Z</time>
      </trkpt>
      <trkpt lat="43.44252" lon="2.07299">
        <ele>504</ele>
        <time>2012-04-05T14:31:21Z</time>
      </trkpt>
      <trkpt lat="43.44252" lon="2.07303">
        <ele>505</ele>
        <time>2012-04-05T14:31:23Z</time>
      </trkpt>
      <trkpt lat="43.44252" lon="2.07306">
        <ele>506</ele>
        <time>2012-04-05T14:31:25Z</time>
      </trkpt>
      <trkpt lat="43.44252" lon="2.07312">
        <ele>509</ele>
        <time>2012-04-05T14:31:28Z</time>
      </trkpt>
      <trkpt lat="43.44252" lon="2.07317">
        <ele>510</ele>
        <time>2012-04-05T14:31:30Z</time>
      </trkpt>
      <trkpt lat="43.44251" lon="2.07322">
        <ele>511</ele>
        <time>2012-04-05T14:31:33Z</time>
      </trkpt>
      <trkpt lat="43.44251" lon="2.07323">
        <ele>512</ele>
        <time>2012-04-05T14:31:36Z</time>
      </trkpt>
      <trkpt lat="43.44251" lon="2.07325">
        <ele>512</ele>
        <time>2012-04-05T14:31:38Z</time>
      </trkpt>
      <trkpt lat="43.44251" lon="2.07328">
        <ele>513</ele>
        <time>2012-04-05T14:31:40Z</time>
      </trkpt>
      <trkpt lat="43.44251" lon="2.0733">
        <ele>513</ele>
        <time>2012-04-05T14:31:42Z</time>
      </trkpt>
      <trkpt lat="43.4425" lon="2.07333">
        <ele>514</ele>
        <time>2012-04-05T14:31:44Z</time>
      </trkpt>
      <trkpt lat="43.4425" lon="2.07335">
        <ele>514</ele>
        <time>2012-04-05T14:31:46Z</time>
      </trkpt>
      <trkpt lat="43.4425" lon="2.07337">
        <ele>514</ele>
        <time>2012-04-05T14:31:48Z</time>
      </trkpt>
      <trkpt lat="43.4425" lon="2.07342">
        <ele>514</ele>
        <time>2012-04-05T14:31:51Z</time>
      </trkpt>
      <trkpt lat="43.4425" lon="2.07344">
        <ele>514</ele>
        <time>2012-04-05T14:31:53Z</time>
      </trkpt>
      <trkpt lat="43.4425" lon="2.07347">
        <ele>514</ele>
        <time>2012-04-05T14:31:55Z</time>
      </trkpt>
      <trkpt lat="43.4425" lon="2.0735">
        <ele>514</ele>
        <time>2012-04-05T14:31:57Z</time>
      </trkpt>
      <trkpt lat="43.4425" lon="2.07353">
        <ele>514</ele>
        <time>2012-04-05T14:31:59Z</time>
      </trkpt>
      <trkpt lat="43.44251" lon="2.07355">
        <ele>514</ele>
        <time>2012-04-05T14:32:01Z</time>
      </trkpt>
      <trkpt lat="43.44251" lon="2.07358">
        <ele>514</ele>
        <time>2012-04-05T14:32:03Z</time>
      </trkpt>
      <trkpt lat="43.44252" lon="2.07362">
        <ele>514</ele>
        <time>2012-04-05T14:32:06Z</time>
      </trkpt>
      <trkpt lat="43.44252" lon="2.07365">
        <ele>514</ele>
        <time>2012-04-05T14:32:08Z</time>
      </trkpt>
      <trkpt lat="43.44252" lon="2.07368">
        <ele>514</ele>
        <time>2012-04-05T14:32:10Z</time>
      </trkpt>
      <trkpt lat="43.44253" lon="2.07371">
        <ele>514</ele>
        <time>2012-04-05T14:32:12Z</time>
      </trkpt>
      <trkpt lat="43.44254" lon="2.07374">
        <ele>514</ele>
        <time>2012-04-05T14:32:14Z</time>
      </trkpt>
      <trkpt lat="43.44254" lon="2.07377">
        <ele>514</ele>
        <time>2012-04-05T14:32:16Z</time>
      </trkpt>
      <trkpt lat="43.44254" lon="2.0738">
        <ele>514</ele>
        <time>2012-04-05T14:32:18Z</time>
      </trkpt>
      <trkpt lat="43.44254" lon="2.07382">
        <ele>514</ele>
        <time>2012-04-05T14:32:20Z</time>
      </trkpt>
      <trkpt lat="43.44254" lon="2.07385">
        <ele>515</ele>
        <time>2012-04-05T14:32:22Z</time>
      </trkpt>
      <trkpt lat="43.44255" lon="2.07388">
        <ele>515</ele>
        <time>2012-04-05T14:32:24Z</time>
      </trkpt>
      <trkpt lat="43.44255" lon="2.07392">
        <ele>515</ele>
        <time>2012-04-05T14:32:26Z</time>
      </trkpt>
      <trkpt lat="43.44254" lon="2.07395">
        <ele>515</ele>
        <time>2012-04-05T14:32:28Z</time>
      </trkpt>
      <trkpt lat="43.44254" lon="2.07398">
        <ele>515</ele>
        <time>2012-04-05T14:32:30Z</time>
      </trkpt>
      <trkpt lat="43.44255" lon="2.07402">
        <ele>515</ele>
        <time>2012-04-05T14:32:33Z</time>
      </trkpt>
      <trkpt lat="43.44256" lon="2.07404">
        <ele>515</ele>
        <time>2012-04-05T14:32:35Z</time>
      </trkpt>
      <trkpt lat="43.44257" lon="2.07406">
        <ele>515</ele>
        <time>2012-04-05T14:32:38Z</time>
      </trkpt>
      <trkpt lat="43.44256" lon="2.07405">
        <ele>515</ele>
        <time>2012-04-05T14:32:44Z</time>
      </trkpt>
      <trkpt lat="43.44255" lon="2.07405">
        <ele>515</ele>
        <time>2012-04-05T14:32:47Z</time>
      </trkpt>
      <trkpt lat="43.44256" lon="2.07405">
        <ele>515</ele>
        <time>2012-04-05T14:32:53Z</time>
      </trkpt>
      <trkpt lat="43.44257" lon="2.07405">
        <ele>515</ele>
        <time>2012-04-05T14:32:55Z</time>
      </trkpt>
      <trkpt lat="43.44258" lon="2.07405">
        <ele>515</ele>
        <time>2012-04-05T14:33:20Z</time>
      </trkpt>
      <trkpt lat="43.44258" lon="2.07403">
        <ele>515</ele>
        <time>2012-04-05T14:33:28Z</time>
      </trkpt>
      <trkpt lat="43.44258" lon="2.07402">
        <ele>515</ele>
        <time>2012-04-05T14:33:37Z</time>
      </trkpt>
      <trkpt lat="43.44259" lon="2.07401">
        <ele>516</ele>
        <time>2012-04-05T14:34:00Z</time>
      </trkpt>
      <trkpt lat="43.44259" lon="2.07403">
        <ele>516</ele>
        <time>2012-04-05T14:34:07Z</time>
      </trkpt>
      <trkpt lat="43.4426" lon="2.07404">
        <ele>515</ele>
        <time>2012-04-05T14:34:13Z</time>
      </trkpt>
      <trkpt lat="43.44261" lon="2.07405">
        <ele>513</ele>
        <time>2012-04-05T14:34:19Z</time>
      </trkpt>
      <trkpt lat="43.44261" lon="2.07406">
        <ele>512</ele>
        <time>2012-04-05T14:34:30Z</time>
      </trkpt>
      <trkpt lat="43.4426" lon="2.07406">
        <ele>512</ele>
        <time>2012-04-05T14:34:49Z</time>
      </trkpt>
      <trkpt lat="43.44259" lon="2.07407">
        <ele>512</ele>
        <time>2012-04-05T14:35:05Z</time>
      </trkpt>
      <trkpt lat="43.4426" lon="2.07408">
        <ele>512</ele>
        <time>2012-04-05T14:35:09Z</time>
      </trkpt>
      <trkpt lat="43.44262" lon="2.07406">
        <ele>512</ele>
        <time>2012-04-05T14:35:12Z</time>
      </trkpt>
      <trkpt lat="43.44262" lon="2.07405">
        <ele>513</ele>
        <time>2012-04-05T14:35:27Z</time>
      </trkpt>
      <trkpt lat="43.44262" lon="2.07403">
        <ele>514</ele>
        <time>2012-04-05T14:35:37Z</time>
      </trkpt>
      <trkpt lat="43.44261" lon="2.07405">
        <ele>516</ele>
        <time>2012-04-05T14:36:00Z</time>
      </trkpt>
      <trkpt lat="43.44261" lon="2.07406">
        <ele>516</ele>
        <time>2012-04-05T14:36:04Z</time>
      </trkpt>
      <trkpt lat="43.4426" lon="2.07407">
        <ele>516</ele>
        <time>2012-04-05T14:36:09Z</time>
      </trkpt>
      <trkpt lat="43.44258" lon="2.07407">
        <ele>516</ele>
        <time>2012-04-05T14:36:12Z</time>
      </trkpt>
      <trkpt lat="43.44258" lon="2.0741">
        <ele>516</ele>
        <time>2012-04-05T14:36:14Z</time>
      </trkpt>
      <trkpt lat="43.44258" lon="2.07411">
        <ele>516</ele>
        <time>2012-04-05T14:36:17Z</time>
      </trkpt>
      <trkpt lat="43.44259" lon="2.07412">
        <ele>516</ele>
        <time>2012-04-05T14:36:32Z</time>
      </trkpt>
      <trkpt lat="43.44261" lon="2.07414">
        <ele>516</ele>
        <time>2012-04-05T14:36:37Z</time>
      </trkpt>
      <trkpt lat="43.44262" lon="2.07416">
        <ele>516</ele>
        <time>2012-04-05T14:36:39Z</time>
      </trkpt>
      <trkpt lat="43.44263" lon="2.0742">
        <ele>516</ele>
        <time>2012-04-05T14:36:42Z</time>
      </trkpt>
      <trkpt lat="43.44263" lon="2.07423">
        <ele>516</ele>
        <time>2012-04-05T14:36:45Z</time>
      </trkpt>
      <trkpt lat="43.44263" lon="2.07425">
        <ele>516</ele>
        <time>2012-04-05T14:36:47Z</time>
      </trkpt>
      <trkpt lat="43.44264" lon="2.07428">
        <ele>516</ele>
        <time>2012-04-05T14:36:49Z</time>
      </trkpt>
      <trkpt lat="43.44266" lon="2.07432">
        <ele>516</ele>
        <time>2012-04-05T14:36:52Z</time>
      </trkpt>
      <trkpt lat="43.44267" lon="2.07434">
        <ele>516</ele>
        <time>2012-04-05T14:36:54Z</time>
      </trkpt>
      <trkpt lat="43.44267" lon="2.07436">
        <ele>516</ele>
        <time>2012-04-05T14:36:57Z</time>
      </trkpt>
      <trkpt lat="43.44269" lon="2.0744">
        <ele>516</ele>
        <time>2012-04-05T14:36:59Z</time>
      </trkpt>
      <trkpt lat="43.44272" lon="2.07448">
        <ele>516</ele>
        <time>2012-04-05T14:37:01Z</time>
      </trkpt>
      <trkpt lat="43.44275" lon="2.07457">
        <ele>516</ele>
        <time>2012-04-05T14:37:03Z</time>
      </trkpt>
      <trkpt lat="43.44275" lon="2.07461">
        <ele>516</ele>
        <time>2012-04-05T14:37:06Z</time>
      </trkpt>
      <trkpt lat="43.44275" lon="2.07463">
        <ele>516</ele>
        <time>2012-04-05T14:37:09Z</time>
      </trkpt>
      <trkpt lat="43.44275" lon="2.07465">
        <ele>516</ele>
        <time>2012-04-05T14:37:11Z</time>
      </trkpt>
      <trkpt lat="43.44274" lon="2.07467">
        <ele>516</ele>
        <time>2012-04-05T14:37:14Z</time>
      </trkpt>
      <trkpt lat="43.44273" lon="2.07469">
        <ele>516</ele>
        <time>2012-04-05T14:37:16Z</time>
      </trkpt>
      <trkpt lat="43.44273" lon="2.07471">
        <ele>516</ele>
        <time>2012-04-05T14:37:19Z</time>
      </trkpt>
      <trkpt lat="43.44272" lon="2.07473">
        <ele>516</ele>
        <time>2012-04-05T14:37:21Z</time>
      </trkpt>
      <trkpt lat="43.44272" lon="2.07475">
        <ele>516</ele>
        <time>2012-04-05T14:37:24Z</time>
      </trkpt>
      <trkpt lat="43.44271" lon="2.07477">
        <ele>516</ele>
        <time>2012-04-05T14:37:27Z</time>
      </trkpt>
      <trkpt lat="43.4427" lon="2.07478">
        <ele>516</ele>
        <time>2012-04-05T14:37:30Z</time>
      </trkpt>
      <trkpt lat="43.44269" lon="2.0748">
        <ele>517</ele>
        <time>2012-04-05T14:37:33Z</time>
      </trkpt>
      <trkpt lat="43.44268" lon="2.07481">
        <ele>518</ele>
        <time>2012-04-05T14:37:36Z</time>
      </trkpt>
      <trkpt lat="43.44267" lon="2.0748">
        <ele>518</ele>
        <time>2012-04-05T14:37:39Z</time>
      </trkpt>
      <trkpt lat="43.44267" lon="2.07481">
        <ele>520</ele>
        <time>2012-04-05T14:37:46Z</time>
      </trkpt>
      <trkpt lat="43.44266" lon="2.07483">
        <ele>520</ele>
        <time>2012-04-05T14:37:48Z</time>
      </trkpt>
      <trkpt lat="43.44266" lon="2.07485">
        <ele>520</ele>
        <time>2012-04-05T14:37:50Z</time>
      </trkpt>
      <trkpt lat="43.44265" lon="2.07487">
        <ele>520</ele>
        <time>2012-04-05T14:37:52Z</time>
      </trkpt>
      <trkpt lat="43.44265" lon="2.07488">
        <ele>520</ele>
        <time>2012-04-05T14:37:54Z</time>
      </trkpt>
      <trkpt lat="43.44264" lon="2.07491">
        <ele>521</ele>
        <time>2012-04-05T14:37:57Z</time>
      </trkpt>
      <trkpt lat="43.44263" lon="2.07493">
        <ele>521</ele>
        <time>2012-04-05T14:37:59Z</time>
      </trkpt>
      <trkpt lat="43.44263" lon="2.07495">
        <ele>521</ele>
        <time>2012-04-05T14:38:01Z</time>
      </trkpt>
      <trkpt lat="43.44263" lon="2.07497">
        <ele>521</ele>
        <time>2012-04-05T14:38:03Z</time>
      </trkpt>
      <trkpt lat="43.44263" lon="2.07499">
        <ele>521</ele>
        <time>2012-04-05T14:38:05Z</time>
      </trkpt>
      <trkpt lat="43.44263" lon="2.07503">
        <ele>521</ele>
        <time>2012-04-05T14:38:08Z</time>
      </trkpt>
      <trkpt lat="43.44263" lon="2.07505">
        <ele>521</ele>
        <time>2012-04-05T14:38:10Z</time>
      </trkpt>
      <trkpt lat="43.44263" lon="2.07506">
        <ele>521</ele>
        <time>2012-04-05T14:38:12Z</time>
      </trkpt>
      <trkpt lat="43.44263" lon="2.07508">
        <ele>521</ele>
        <time>2012-04-05T14:38:14Z</time>
      </trkpt>
      <trkpt lat="43.44264" lon="2.07512">
        <ele>521</ele>
        <time>2012-04-05T14:38:16Z</time>
      </trkpt>
      <trkpt lat="43.44263" lon="2.07515">
        <ele>521</ele>
        <time>2012-04-05T14:38:18Z</time>
      </trkpt>
      <trkpt lat="43.44262" lon="2.07519">
        <ele>521</ele>
        <time>2012-04-05T14:38:21Z</time>
      </trkpt>
      <trkpt lat="43.44262" lon="2.07521">
        <ele>521</ele>
        <time>2012-04-05T14:38:23Z</time>
      </trkpt>
      <trkpt lat="43.44262" lon="2.07524">
        <ele>521</ele>
        <time>2012-04-05T14:38:25Z</time>
      </trkpt>
      <trkpt lat="43.44262" lon="2.07529">
        <ele>521</ele>
        <time>2012-04-05T14:38:28Z</time>
      </trkpt>
      <trkpt lat="43.44262" lon="2.07532">
        <ele>521</ele>
        <time>2012-04-05T14:38:30Z</time>
      </trkpt>
      <trkpt lat="43.44262" lon="2.07535">
        <ele>521</ele>
        <time>2012-04-05T14:38:32Z</time>
      </trkpt>
      <trkpt lat="43.44262" lon="2.07538">
        <ele>521</ele>
        <time>2012-04-05T14:38:34Z</time>
      </trkpt>
      <trkpt lat="43.44262" lon="2.07541">
        <ele>521</ele>
        <time>2012-04-05T14:38:36Z</time>
      </trkpt>
      <trkpt lat="43.44262" lon="2.07544">
        <ele>521</ele>
        <time>2012-04-05T14:38:38Z</time>
      </trkpt>
      <trkpt lat="43.44261" lon="2.07547">
        <ele>521</ele>
        <time>2012-04-05T14:38:40Z</time>
      </trkpt>
      <trkpt lat="43.44261" lon="2.0755">
        <ele>521</ele>
        <time>2012-04-05T14:38:42Z</time>
      </trkpt>
      <trkpt lat="43.44261" lon="2.07552">
        <ele>521</ele>
        <time>2012-04-05T14:38:45Z</time>
      </trkpt>
      <trkpt lat="43.44262" lon="2.07557">
        <ele>522</ele>
        <time>2012-04-05T14:38:47Z</time>
      </trkpt>
      <trkpt lat="43.44262" lon="2.07565">
        <ele>522</ele>
        <time>2012-04-05T14:38:49Z</time>
      </trkpt>
      <trkpt lat="43.44261" lon="2.07571">
        <ele>522</ele>
        <time>2012-04-05T14:38:51Z</time>
      </trkpt>
      <trkpt lat="43.44261" lon="2.07578">
        <ele>522</ele>
        <time>2012-04-05T14:38:53Z</time>
      </trkpt>
      <trkpt lat="43.4426" lon="2.07583">
        <ele>522</ele>
        <time>2012-04-05T14:38:55Z</time>
      </trkpt>
      <trkpt lat="43.44258" lon="2.07587">
        <ele>523</ele>
        <time>2012-04-05T14:38:57Z</time>
      </trkpt>
      <trkpt lat="43.44257" lon="2.07591">
        <ele>523</ele>
        <time>2012-04-05T14:38:59Z</time>
      </trkpt>
      <trkpt lat="43.44255" lon="2.07598">
        <ele>523</ele>
        <time>2012-04-05T14:39:01Z</time>
      </trkpt>
      <trkpt lat="43.44252" lon="2.07606">
        <ele>523</ele>
        <time>2012-04-05T14:39:03Z</time>
      </trkpt>
      <trkpt lat="43.44252" lon="2.07611">
        <ele>523</ele>
        <time>2012-04-05T14:39:05Z</time>
      </trkpt>
      <trkpt lat="43.44251" lon="2.07615">
        <ele>523</ele>
        <time>2012-04-05T14:39:07Z</time>
      </trkpt>
      <trkpt lat="43.4425" lon="2.07621">
        <ele>524</ele>
        <time>2012-04-05T14:39:09Z</time>
      </trkpt>
      <trkpt lat="43.44248" lon="2.07625">
        <ele>525</ele>
        <time>2012-04-05T14:39:11Z</time>
      </trkpt>
      <trkpt lat="43.44246" lon="2.0763">
        <ele>526</ele>
        <time>2012-04-05T14:39:13Z</time>
      </trkpt>
      <trkpt lat="43.44244" lon="2.07635">
        <ele>526</ele>
        <time>2012-04-05T14:39:15Z</time>
      </trkpt>
      <trkpt lat="43.44241" lon="2.07642">
        <ele>527</ele>
        <time>2012-04-05T14:39:17Z</time>
      </trkpt>
      <trkpt lat="43.44239" lon="2.07649">
        <ele>528</ele>
        <time>2012-04-05T14:39:19Z</time>
      </trkpt>
      <trkpt lat="43.44236" lon="2.07656">
        <ele>528</ele>
        <time>2012-04-05T14:39:21Z</time>
      </trkpt>
      <trkpt lat="43.44232" lon="2.0766">
        <ele>528</ele>
        <time>2012-04-05T14:39:23Z</time>
      </trkpt>
      <trkpt lat="43.44226" lon="2.07664">
        <ele>528</ele>
        <time>2012-04-05T14:39:25Z</time>
      </trkpt>
      <trkpt lat="43.4422" lon="2.07671">
        <ele>528</ele>
        <time>2012-04-05T14:39:28Z</time>
      </trkpt>
      <trkpt lat="43.44216" lon="2.07674">
        <ele>528</ele>
        <time>2012-04-05T14:39:30Z</time>
      </trkpt>
      <trkpt lat="43.44212" lon="2.07678">
        <ele>528</ele>
        <time>2012-04-05T14:39:32Z</time>
      </trkpt>
      <trkpt lat="43.44209" lon="2.07682">
        <ele>529</ele>
        <time>2012-04-05T14:39:34Z</time>
      </trkpt>
      <trkpt lat="43.44206" lon="2.07685">
        <ele>529</ele>
        <time>2012-04-05T14:39:36Z</time>
      </trkpt>
      <trkpt lat="43.44203" lon="2.07689">
        <ele>529</ele>
        <time>2012-04-05T14:39:38Z</time>
      </trkpt>
      <trkpt lat="43.442" lon="2.07694">
        <ele>529</ele>
        <time>2012-04-05T14:39:40Z</time>
      </trkpt>
      <trkpt lat="43.44197" lon="2.07699">
        <ele>529</ele>
        <time>2012-04-05T14:39:42Z</time>
      </trkpt>
      <trkpt lat="43.44193" lon="2.07703">
        <ele>529</ele>
        <time>2012-04-05T14:39:44Z</time>
      </trkpt>
      <trkpt lat="43.4419" lon="2.07708">
        <ele>529</ele>
        <time>2012-04-05T14:39:46Z</time>
      </trkpt>
      <trkpt lat="43.44186" lon="2.07712">
        <ele>529</ele>
        <time>2012-04-05T14:39:48Z</time>
      </trkpt>
      <trkpt lat="43.44181" lon="2.07718">
        <ele>529</ele>
        <time>2012-04-05T14:39:50Z</time>
      </trkpt>
      <trkpt lat="43.44175" lon="2.07725">
        <ele>530</ele>
        <time>2012-04-05T14:39:52Z</time>
      </trkpt>
      <trkpt lat="43.4417" lon="2.07731">
        <ele>530</ele>
        <time>2012-04-05T14:39:54Z</time>
      </trkpt>
      <trkpt lat="43.44165" lon="2.07732">
        <ele>530</ele>
        <time>2012-04-05T14:39:56Z</time>
      </trkpt>
      <trkpt lat="43.44163" lon="2.07731">
        <ele>530</ele>
        <time>2012-04-05T14:39:58Z</time>
      </trkpt>
      <trkpt lat="43.44162" lon="2.0773">
        <ele>530</ele>
        <time>2012-04-05T14:40:00Z</time>
      </trkpt>
      <trkpt lat="43.4416" lon="2.07728">
        <ele>530</ele>
        <time>2012-04-05T14:40:02Z</time>
      </trkpt>
      <trkpt lat="43.44157" lon="2.07726">
        <ele>530</ele>
        <time>2012-04-05T14:40:04Z</time>
      </trkpt>
      <trkpt lat="43.44152" lon="2.07725">
        <ele>530</ele>
        <time>2012-04-05T14:40:06Z</time>
      </trkpt>
      <trkpt lat="43.44144" lon="2.07723">
        <ele>530</ele>
        <time>2012-04-05T14:40:08Z</time>
      </trkpt>
      <trkpt lat="43.44132" lon="2.07723">
        <ele>530</ele>
        <time>2012-04-05T14:40:10Z</time>
      </trkpt>
      <trkpt lat="43.44119" lon="2.07725">
        <ele>529</ele>
        <time>2012-04-05T14:40:12Z</time>
      </trkpt>
      <trkpt lat="43.44106" lon="2.07727">
        <ele>527</ele>
        <time>2012-04-05T14:40:14Z</time>
      </trkpt>
      <trkpt lat="43.44093" lon="2.07733">
        <ele>526</ele>
        <time>2012-04-05T14:40:16Z</time>
      </trkpt>
      <trkpt lat="43.44081" lon="2.07739">
        <ele>525</ele>
        <time>2012-04-05T14:40:18Z</time>
      </trkpt>
      <trkpt lat="43.4407" lon="2.07748">
        <ele>525</ele>
        <time>2012-04-05T14:40:20Z</time>
      </trkpt>
      <trkpt lat="43.44059" lon="2.07755">
        <ele>523</ele>
        <time>2012-04-05T14:40:22Z</time>
      </trkpt>
      <trkpt lat="43.44046" lon="2.07756">
        <ele>522</ele>
        <time>2012-04-05T14:40:24Z</time>
      </trkpt>
      <trkpt lat="43.44036" lon="2.07762">
        <ele>521</ele>
        <time>2012-04-05T14:40:26Z</time>
      </trkpt>
      <trkpt lat="43.44024" lon="2.07767">
        <ele>521</ele>
        <time>2012-04-05T14:40:28Z</time>
      </trkpt>
      <trkpt lat="43.44014" lon="2.07773">
        <ele>520</ele>
        <time>2012-04-05T14:40:30Z</time>
      </trkpt>
      <trkpt lat="43.44006" lon="2.07779">
        <ele>519</ele>
        <time>2012-04-05T14:40:32Z</time>
      </trkpt>
      <trkpt lat="43.44003" lon="2.07785">
        <ele>519</ele>
        <time>2012-04-05T14:40:34Z</time>
      </trkpt>
      <trkpt lat="43.44001" lon="2.07791">
        <ele>519</ele>
        <time>2012-04-05T14:40:36Z</time>
      </trkpt>
      <trkpt lat="43.44001" lon="2.07797">
        <ele>519</ele>
        <time>2012-04-05T14:40:38Z</time>
      </trkpt>
      <trkpt lat="43.43999" lon="2.07803">
        <ele>519</ele>
        <time>2012-04-05T14:40:40Z</time>
      </trkpt>
      <trkpt lat="43.43996" lon="2.07808">
        <ele>519</ele>
        <time>2012-04-05T14:40:42Z</time>
      </trkpt>
      <trkpt lat="43.43993" lon="2.07813">
        <ele>519</ele>
        <time>2012-04-05T14:40:44Z</time>
      </trkpt>
      <trkpt lat="43.43989" lon="2.07817">
        <ele>519</ele>
        <time>2012-04-05T14:40:46Z</time>
      </trkpt>
      <trkpt lat="43.43985" lon="2.0782">
        <ele>519</ele>
        <time>2012-04-05T14:40:48Z</time>
      </trkpt>
      <trkpt lat="43.4398" lon="2.07823">
        <ele>519</ele>
        <time>2012-04-05T14:40:50Z</time>
      </trkpt>
      <trkpt lat="43.43975" lon="2.07826">
        <ele>519</ele>
        <time>2012-04-05T14:40:52Z</time>
      </trkpt>
      <trkpt lat="43.4397" lon="2.07828">
        <ele>519</ele>
        <time>2012-04-05T14:40:54Z</time>
      </trkpt>
      <trkpt lat="43.43965" lon="2.07827">
        <ele>519</ele>
        <time>2012-04-05T14:40:56Z</time>
      </trkpt>
      <trkpt lat="43.43961" lon="2.07825">
        <ele>519</ele>
        <time>2012-04-05T14:40:58Z</time>
      </trkpt>
      <trkpt lat="43.43956" lon="2.07823">
        <ele>519</ele>
        <time>2012-04-05T14:41:00Z</time>
      </trkpt>
      <trkpt lat="43.43949" lon="2.07822">
        <ele>519</ele>
        <time>2012-04-05T14:41:02Z</time>
      </trkpt>
      <trkpt lat="43.43944" lon="2.07825">
        <ele>519</ele>
        <time>2012-04-05T14:41:04Z</time>
      </trkpt>
      <trkpt lat="43.4394" lon="2.0783">
        <ele>519</ele>
        <time>2012-04-05T14:41:06Z</time>
      </trkpt>
      <trkpt lat="43.43935" lon="2.07834">
        <ele>519</ele>
        <time>2012-04-05T14:41:08Z</time>
      </trkpt>
      <trkpt lat="43.43931" lon="2.07838">
        <ele>520</ele>
        <time>2012-04-05T14:41:10Z</time>
      </trkpt>
      <trkpt lat="43.43926" lon="2.07841">
        <ele>522</ele>
        <time>2012-04-05T14:41:12Z</time>
      </trkpt>
      <trkpt lat="43.4392" lon="2.07845">
        <ele>524</ele>
        <time>2012-04-05T14:41:14Z</time>
      </trkpt>
      <trkpt lat="43.43914" lon="2.07849">
        <ele>525</ele>
        <time>2012-04-05T14:41:16Z</time>
      </trkpt>
      <trkpt lat="43.43907" lon="2.07851">
        <ele>525</ele>
        <time>2012-04-05T14:41:18Z</time>
      </trkpt>
      <trkpt lat="43.439" lon="2.07851">
        <ele>525</ele>
        <time>2012-04-05T14:41:20Z</time>
      </trkpt>
      <trkpt lat="43.43892" lon="2.07849">
        <ele>525</ele>
        <time>2012-04-05T14:41:22Z</time>
      </trkpt>
      <trkpt lat="43.43885" lon="2.07848">
        <ele>525</ele>
        <time>2012-04-05T14:41:24Z</time>
      </trkpt>
      <trkpt lat="43.43879" lon="2.07846">
        <ele>525</ele>
        <time>2012-04-05T14:41:26Z</time>
      </trkpt>
      <trkpt lat="43.43872" lon="2.07846">
        <ele>525</ele>
        <time>2012-04-05T14:41:28Z</time>
      </trkpt>
      <trkpt lat="43.43865" lon="2.07849">
        <ele>525</ele>
        <time>2012-04-05T14:41:30Z</time>
      </trkpt>
      <trkpt lat="43.43858" lon="2.07856">
        <ele>525</ele>
        <time>2012-04-05T14:41:32Z</time>
      </trkpt>
      <trkpt lat="43.43853" lon="2.07867">
        <ele>525</ele>
        <time>2012-04-05T14:41:34Z</time>
      </trkpt>
      <trkpt lat="43.43848" lon="2.0788">
        <ele>525</ele>
        <time>2012-04-05T14:41:36Z</time>
      </trkpt>
      <trkpt lat="43.43845" lon="2.07892">
        <ele>525</ele>
        <time>2012-04-05T14:41:38Z</time>
      </trkpt>
      <trkpt lat="43.43843" lon="2.07903">
        <ele>525</ele>
        <time>2012-04-05T14:41:40Z</time>
      </trkpt>
      <trkpt lat="43.43841" lon="2.07914">
        <ele>525</ele>
        <time>2012-04-05T14:41:42Z</time>
      </trkpt>
      <trkpt lat="43.43836" lon="2.07922">
        <ele>525</ele>
        <time>2012-04-05T14:41:44Z</time>
      </trkpt>
      <trkpt lat="43.4383" lon="2.07921">
        <ele>525</ele>
        <time>2012-04-05T14:41:46Z</time>
      </trkpt>
      <trkpt lat="43.43824" lon="2.07918">
        <ele>525</ele>
        <time>2012-04-05T14:41:48Z</time>
      </trkpt>
      <trkpt lat="43.43818" lon="2.07913">
        <ele>525</ele>
        <time>2012-04-05T14:41:50Z</time>
      </trkpt>
      <trkpt lat="43.43813" lon="2.07906">
        <ele>525</ele>
        <time>2012-04-05T14:41:52Z</time>
      </trkpt>
      <trkpt lat="43.43809" lon="2.07904">
        <ele>525</ele>
        <time>2012-04-05T14:41:54Z</time>
      </trkpt>
      <trkpt lat="43.43805" lon="2.07904">
        <ele>525</ele>
        <time>2012-04-05T14:41:56Z</time>
      </trkpt>
      <trkpt lat="43.43802" lon="2.07901">
        <ele>525</ele>
        <time>2012-04-05T14:41:58Z</time>
      </trkpt>
      <trkpt lat="43.43797" lon="2.07896">
        <ele>525</ele>
        <time>2012-04-05T14:42:00Z</time>
      </trkpt>
      <trkpt lat="43.43787" lon="2.07889">
        <ele>525</ele>
        <time>2012-04-05T14:42:02Z</time>
      </trkpt>
      <trkpt lat="43.43776" lon="2.07882">
        <ele>525</ele>
        <time>2012-04-05T14:42:04Z</time>
      </trkpt>
      <trkpt lat="43.43766" lon="2.07874">
        <ele>525</ele>
        <time>2012-04-05T14:42:06Z</time>
      </trkpt>
      <trkpt lat="43.43758" lon="2.07861">
        <ele>525</ele>
        <time>2012-04-05T14:42:08Z</time>
      </trkpt>
      <trkpt lat="43.43747" lon="2.07852">
        <ele>525</ele>
        <time>2012-04-05T14:42:10Z</time>
      </trkpt>
      <trkpt lat="43.43736" lon="2.07846">
        <ele>524</ele>
        <time>2012-04-05T14:42:12Z</time>
      </trkpt>
      <trkpt lat="43.43726" lon="2.07839">
        <ele>522</ele>
        <time>2012-04-05T14:42:14Z</time>
      </trkpt>
      <trkpt lat="43.43718" lon="2.07833">
        <ele>520</ele>
        <time>2012-04-05T14:42:16Z</time>
      </trkpt>
      <trkpt lat="43.43713" lon="2.07829">
        <ele>518</ele>
        <time>2012-04-05T14:42:18Z</time>
      </trkpt>
      <trkpt lat="43.4371" lon="2.07823">
        <ele>516</ele>
        <time>2012-04-05T14:42:20Z</time>
      </trkpt>
      <trkpt lat="43.43713" lon="2.07815">
        <ele>514</ele>
        <time>2012-04-05T14:42:22Z</time>
      </trkpt>
      <trkpt lat="43.43718" lon="2.0781">
        <ele>512</ele>
        <time>2012-04-05T14:42:24Z</time>
      </trkpt>
      <trkpt lat="43.43728" lon="2.07808">
        <ele>512</ele>
        <time>2012-04-05T14:42:26Z</time>
      </trkpt>
      <trkpt lat="43.43737" lon="2.07806">
        <ele>512</ele>
        <time>2012-04-05T14:42:28Z</time>
      </trkpt>
      <trkpt lat="43.43746" lon="2.07799">
        <ele>511</ele>
        <time>2012-04-05T14:42:30Z</time>
      </trkpt>
      <trkpt lat="43.43755" lon="2.07791">
        <ele>510</ele>
        <time>2012-04-05T14:42:32Z</time>
      </trkpt>
      <trkpt lat="43.43764" lon="2.07782">
        <ele>509</ele>
        <time>2012-04-05T14:42:34Z</time>
      </trkpt>
      <trkpt lat="43.43772" lon="2.07773">
        <ele>507</ele>
        <time>2012-04-05T14:42:36Z</time>
      </trkpt>
      <trkpt lat="43.4378" lon="2.07765">
        <ele>506</ele>
        <time>2012-04-05T14:42:38Z</time>
      </trkpt>
      <trkpt lat="43.43786" lon="2.07758">
        <ele>504</ele>
        <time>2012-04-05T14:42:40Z</time>
      </trkpt>
      <trkpt lat="43.43789" lon="2.07752">
        <ele>502</ele>
        <time>2012-04-05T14:42:42Z</time>
      </trkpt>
      <trkpt lat="43.43784" lon="2.07751">
        <ele>500</ele>
        <time>2012-04-05T14:42:44Z</time>
      </trkpt>
      <trkpt lat="43.43775" lon="2.07753">
        <ele>498</ele>
        <time>2012-04-05T14:42:46Z</time>
      </trkpt>
      <trkpt lat="43.43767" lon="2.07756">
        <ele>496</ele>
        <time>2012-04-05T14:42:48Z</time>
      </trkpt>
      <trkpt lat="43.4376" lon="2.0776">
        <ele>494</ele>
        <time>2012-04-05T14:42:50Z</time>
      </trkpt>
      <trkpt lat="43.43753" lon="2.07762">
        <ele>491</ele>
        <time>2012-04-05T14:42:52Z</time>
      </trkpt>
      <trkpt lat="43.43745" lon="2.07766">
        <ele>489</ele>
        <time>2012-04-05T14:42:54Z</time>
      </trkpt>
      <trkpt lat="43.43739" lon="2.0777">
        <ele>487</ele>
        <time>2012-04-05T14:42:56Z</time>
      </trkpt>
      <trkpt lat="43.43732" lon="2.07774">
        <ele>485</ele>
        <time>2012-04-05T14:42:58Z</time>
      </trkpt>
      <trkpt lat="43.43725" lon="2.07778">
        <ele>483</ele>
        <time>2012-04-05T14:43:00Z</time>
      </trkpt>
      <trkpt lat="43.43718" lon="2.07779">
        <ele>481</ele>
        <time>2012-04-05T14:43:02Z</time>
      </trkpt>
      <trkpt lat="43.43712" lon="2.07781">
        <ele>481</ele>
        <time>2012-04-05T14:43:04Z</time>
      </trkpt>
      <trkpt lat="43.43704" lon="2.07782">
        <ele>481</ele>
        <time>2012-04-05T14:43:06Z</time>
      </trkpt>
      <trkpt lat="43.43696" lon="2.07782">
        <ele>480</ele>
        <time>2012-04-05T14:43:08Z</time>
      </trkpt>
      <trkpt lat="43.43687" lon="2.07783">
        <ele>479</ele>
        <time>2012-04-05T14:43:10Z</time>
      </trkpt>
      <trkpt lat="43.43678" lon="2.07783">
        <ele>479</ele>
        <time>2012-04-05T14:43:12Z</time>
      </trkpt>
      <trkpt lat="43.43669" lon="2.07784">
        <ele>478</ele>
        <time>2012-04-05T14:43:14Z</time>
      </trkpt>
      <trkpt lat="43.43658" lon="2.07784">
        <ele>477</ele>
        <time>2012-04-05T14:43:16Z</time>
      </trkpt>
      <trkpt lat="43.43647" lon="2.07783">
        <ele>477</ele>
        <time>2012-04-05T14:43:18Z</time>
      </trkpt>
      <trkpt lat="43.43637" lon="2.07779">
        <ele>476</ele>
        <time>2012-04-05T14:43:20Z</time>
      </trkpt>
      <trkpt lat="43.43626" lon="2.07773">
        <ele>475</ele>
        <time>2012-04-05T14:43:22Z</time>
      </trkpt>
      <trkpt lat="43.43615" lon="2.07766">
        <ele>473</ele>
        <time>2012-04-05T14:43:24Z</time>
      </trkpt>
      <trkpt lat="43.43602" lon="2.07759">
        <ele>472</ele>
        <time>2012-04-05T14:43:26Z</time>
      </trkpt>
      <trkpt lat="43.4359" lon="2.0775">
        <ele>470</ele>
        <time>2012-04-05T14:43:28Z</time>
      </trkpt>
      <trkpt lat="43.43578" lon="2.07737">
        <ele>469</ele>
        <time>2012-04-05T14:43:30Z</time>
      </trkpt>
      <trkpt lat="43.43569" lon="2.07723">
        <ele>467</ele>
        <time>2012-04-05T14:43:32Z</time>
      </trkpt>
      <trkpt lat="43.4356" lon="2.07709">
        <ele>465</ele>
        <time>2012-04-05T14:43:34Z</time>
      </trkpt>
      <trkpt lat="43.43552" lon="2.07698">
        <ele>463</ele>
        <time>2012-04-05T14:43:36Z</time>
      </trkpt>
      <trkpt lat="43.43546" lon="2.07689">
        <ele>461</ele>
        <time>2012-04-05T14:43:38Z</time>
      </trkpt>
      <trkpt lat="43.43542" lon="2.07681">
        <ele>459</ele>
        <time>2012-04-05T14:43:40Z</time>
      </trkpt>
      <trkpt lat="43.43544" lon="2.07674">
        <ele>459</ele>
        <time>2012-04-05T14:43:42Z</time>
      </trkpt>
      <trkpt lat="43.4355" lon="2.07675">
        <ele>458</ele>
        <time>2012-04-05T14:43:44Z</time>
      </trkpt>
      <trkpt lat="43.4356" lon="2.07681">
        <ele>457</ele>
        <time>2012-04-05T14:43:46Z</time>
      </trkpt>
      <trkpt lat="43.43568" lon="2.07691">
        <ele>456</ele>
        <time>2012-04-05T14:43:48Z</time>
      </trkpt>
      <trkpt lat="43.43577" lon="2.077">
        <ele>454</ele>
        <time>2012-04-05T14:43:50Z</time>
      </trkpt>
      <trkpt lat="43.43586" lon="2.07708">
        <ele>454</ele>
        <time>2012-04-05T14:43:52Z</time>
      </trkpt>
      <trkpt lat="43.43595" lon="2.07714">
        <ele>454</ele>
        <time>2012-04-05T14:43:54Z</time>
      </trkpt>
      <trkpt lat="43.43606" lon="2.07718">
        <ele>454</ele>
        <time>2012-04-05T14:43:56Z</time>
      </trkpt>
      <trkpt lat="43.43614" lon="2.07721">
        <ele>454</ele>
        <time>2012-04-05T14:43:58Z</time>
      </trkpt>
      <trkpt lat="43.43619" lon="2.07722">
        <ele>456</ele>
        <time>2012-04-05T14:44:00Z</time>
      </trkpt>
      <trkpt lat="43.43625" lon="2.07723">
        <ele>458</ele>
        <time>2012-04-05T14:44:02Z</time>
      </trkpt>
      <trkpt lat="43.43631" lon="2.07724">
        <ele>459</ele>
        <time>2012-04-05T14:44:04Z</time>
      </trkpt>
      <trkpt lat="43.43637" lon="2.07724">
        <ele>460</ele>
        <time>2012-04-05T14:44:06Z</time>
      </trkpt>
      <trkpt lat="43.43643" lon="2.07724">
        <ele>462</ele>
        <time>2012-04-05T14:44:08Z</time>
      </trkpt>
      <trkpt lat="43.43648" lon="2.07724">
        <ele>463</ele>
        <time>2012-04-05T14:44:10Z</time>
      </trkpt>
      <trkpt lat="43.43653" lon="2.07724">
        <ele>464</ele>
        <time>2012-04-05T14:44:12Z</time>
      </trkpt>
      <trkpt lat="43.43658" lon="2.07723">
        <ele>465</ele>
        <time>2012-04-05T14:44:14Z</time>
      </trkpt>
      <trkpt lat="43.43663" lon="2.07724">
        <ele>466</ele>
        <time>2012-04-05T14:44:16Z</time>
      </trkpt>
      <trkpt lat="43.43668" lon="2.07725">
        <ele>467</ele>
        <time>2012-04-05T14:44:18Z</time>
      </trkpt>
      <trkpt lat="43.43674" lon="2.07725">
        <ele>469</ele>
        <time>2012-04-05T14:44:20Z</time>
      </trkpt>
      <trkpt lat="43.4368" lon="2.07725">
        <ele>470</ele>
        <time>2012-04-05T14:44:22Z</time>
      </trkpt>
      <trkpt lat="43.43687" lon="2.07724">
        <ele>472</ele>
        <time>2012-04-05T14:44:24Z</time>
      </trkpt>
      <trkpt lat="43.43694" lon="2.07722">
        <ele>474</ele>
        <time>2012-04-05T14:44:26Z</time>
      </trkpt>
      <trkpt lat="43.43701" lon="2.07719">
        <ele>475</ele>
        <time>2012-04-05T14:44:28Z</time>
      </trkpt>
      <trkpt lat="43.4371" lon="2.07715">
        <ele>477</ele>
        <time>2012-04-05T14:44:30Z</time>
      </trkpt>
      <trkpt lat="43.43719" lon="2.0771">
        <ele>477</ele>
        <time>2012-04-05T14:44:32Z</time>
      </trkpt>
      <trkpt lat="43.43728" lon="2.07705">
        <ele>478</ele>
        <time>2012-04-05T14:44:34Z</time>
      </trkpt>
      <trkpt lat="43.43737" lon="2.07702">
        <ele>479</ele>
        <time>2012-04-05T14:44:36Z</time>
      </trkpt>
      <trkpt lat="43.43745" lon="2.077">
        <ele>479</ele>
        <time>2012-04-05T14:44:38Z</time>
      </trkpt>
      <trkpt lat="43.43755" lon="2.07698">
        <ele>479</ele>
        <time>2012-04-05T14:44:40Z</time>
      </trkpt>
      <trkpt lat="43.43765" lon="2.07693">
        <ele>479</ele>
        <time>2012-04-05T14:44:42Z</time>
      </trkpt>
      <trkpt lat="43.43776" lon="2.07682">
        <ele>479</ele>
        <time>2012-04-05T14:44:44Z</time>
      </trkpt>
      <trkpt lat="43.43782" lon="2.0767">
        <ele>479</ele>
        <time>2012-04-05T14:44:46Z</time>
      </trkpt>
      <trkpt lat="43.43785" lon="2.07657">
        <ele>477</ele>
        <time>2012-04-05T14:44:48Z</time>
      </trkpt>
      <trkpt lat="43.43785" lon="2.07646">
        <ele>475</ele>
        <time>2012-04-05T14:44:50Z</time>
      </trkpt>
      <trkpt lat="43.43784" lon="2.07634">
        <ele>473</ele>
        <time>2012-04-05T14:44:52Z</time>
      </trkpt>
      <trkpt lat="43.43785" lon="2.07624">
        <ele>470</ele>
        <time>2012-04-05T14:44:54Z</time>
      </trkpt>
      <trkpt lat="43.43788" lon="2.07615">
        <ele>466</ele>
        <time>2012-04-05T14:44:56Z</time>
      </trkpt>
      <trkpt lat="43.43787" lon="2.0761">
        <ele>462</ele>
        <time>2012-04-05T14:44:58Z</time>
      </trkpt>
      <trkpt lat="43.43784" lon="2.07612">
        <ele>460</ele>
        <time>2012-04-05T14:45:00Z</time>
      </trkpt>
      <trkpt lat="43.43781" lon="2.07618">
        <ele>458</ele>
        <time>2012-04-05T14:45:02Z</time>
      </trkpt>
      <trkpt lat="43.43776" lon="2.07625">
        <ele>456</ele>
        <time>2012-04-05T14:45:04Z</time>
      </trkpt>
      <trkpt lat="43.43772" lon="2.07632">
        <ele>454</ele>
        <time>2012-04-05T14:45:06Z</time>
      </trkpt>
      <trkpt lat="43.43767" lon="2.07638">
        <ele>452</ele>
        <time>2012-04-05T14:45:08Z</time>
      </trkpt>
      <trkpt lat="43.4376" lon="2.07644">
        <ele>450</ele>
        <time>2012-04-05T14:45:10Z</time>
      </trkpt>
      <trkpt lat="43.43752" lon="2.07645">
        <ele>448</ele>
        <time>2012-04-05T14:45:12Z</time>
      </trkpt>
      <trkpt lat="43.43745" lon="2.07646">
        <ele>446</ele>
        <time>2012-04-05T14:45:14Z</time>
      </trkpt>
      <trkpt lat="43.43738" lon="2.07649">
        <ele>444</ele>
        <time>2012-04-05T14:45:16Z</time>
      </trkpt>
      <trkpt lat="43.43729" lon="2.07653">
        <ele>442</ele>
        <time>2012-04-05T14:45:18Z</time>
      </trkpt>
      <trkpt lat="43.43721" lon="2.0766">
        <ele>440</ele>
        <time>2012-04-05T14:45:20Z</time>
      </trkpt>
      <trkpt lat="43.43713" lon="2.07668">
        <ele>438</ele>
        <time>2012-04-05T14:45:22Z</time>
      </trkpt>
      <trkpt lat="43.43704" lon="2.07673">
        <ele>436</ele>
        <time>2012-04-05T14:45:24Z</time>
      </trkpt>
      <trkpt lat="43.43696" lon="2.07676">
        <ele>434</ele>
        <time>2012-04-05T14:45:26Z</time>
      </trkpt>
      <trkpt lat="43.43686" lon="2.07677">
        <ele>433</ele>
        <time>2012-04-05T14:45:28Z</time>
      </trkpt>
      <trkpt lat="43.43674" lon="2.07677">
        <ele>433</ele>
        <time>2012-04-05T14:45:30Z</time>
      </trkpt>
      <trkpt lat="43.43663" lon="2.07677">
        <ele>433</ele>
        <time>2012-04-05T14:45:32Z</time>
      </trkpt>
      <trkpt lat="43.43652" lon="2.0768">
        <ele>432</ele>
        <time>2012-04-05T14:45:34Z</time>
      </trkpt>
      <trkpt lat="43.43641" lon="2.07682">
        <ele>431</ele>
        <time>2012-04-05T14:45:36Z</time>
      </trkpt>
      <trkpt lat="43.43632" lon="2.07682">
        <ele>430</ele>
        <time>2012-04-05T14:45:38Z</time>
      </trkpt>
      <trkpt lat="43.43621" lon="2.07677">
        <ele>429</ele>
        <time>2012-04-05T14:45:40Z</time>
      </trkpt>
      <trkpt lat="43.43611" lon="2.07671">
        <ele>429</ele>
        <time>2012-04-05T14:45:42Z</time>
      </trkpt>
      <trkpt lat="43.43603" lon="2.07665">
        <ele>428</ele>
        <time>2012-04-05T14:45:44Z</time>
      </trkpt>
      <trkpt lat="43.43598" lon="2.07654">
        <ele>426</ele>
        <time>2012-04-05T14:45:46Z</time>
      </trkpt>
      <trkpt lat="43.43594" lon="2.07643">
        <ele>425</ele>
        <time>2012-04-05T14:45:48Z</time>
      </trkpt>
      <trkpt lat="43.43588" lon="2.07631">
        <ele>423</ele>
        <time>2012-04-05T14:45:50Z</time>
      </trkpt>
      <trkpt lat="43.43584" lon="2.07618">
        <ele>421</ele>
        <time>2012-04-05T14:45:52Z</time>
      </trkpt>
      <trkpt lat="43.43581" lon="2.07603">
        <ele>417</ele>
        <time>2012-04-05T14:45:54Z</time>
      </trkpt>
      <trkpt lat="43.43573" lon="2.07588">
        <ele>413</ele>
        <time>2012-04-05T14:45:56Z</time>
      </trkpt>
      <trkpt lat="43.43561" lon="2.07576">
        <ele>411</ele>
        <time>2012-04-05T14:45:58Z</time>
      </trkpt>
      <trkpt lat="43.4355" lon="2.07566">
        <ele>409</ele>
        <time>2012-04-05T14:46:00Z</time>
      </trkpt>
      <trkpt lat="43.43539" lon="2.07558">
        <ele>407</ele>
        <time>2012-04-05T14:46:02Z</time>
      </trkpt>
      <trkpt lat="43.43529" lon="2.0755">
        <ele>405</ele>
        <time>2012-04-05T14:46:04Z</time>
      </trkpt>
      <trkpt lat="43.4352" lon="2.07541">
        <ele>402</ele>
        <time>2012-04-05T14:46:06Z</time>
      </trkpt>
      <trkpt lat="43.43513" lon="2.07535">
        <ele>400</ele>
        <time>2012-04-05T14:46:08Z</time>
      </trkpt>
      <trkpt lat="43.43507" lon="2.07523">
        <ele>398</ele>
        <time>2012-04-05T14:46:10Z</time>
      </trkpt>
      <trkpt lat="43.43502" lon="2.07512">
        <ele>396</ele>
        <time>2012-04-05T14:46:12Z</time>
      </trkpt>
      <trkpt lat="43.43496" lon="2.075">
        <ele>394</ele>
        <time>2012-04-05T14:46:14Z</time>
      </trkpt>
      <trkpt lat="43.43494" lon="2.07485">
        <ele>392</ele>
        <time>2012-04-05T14:46:16Z</time>
      </trkpt>
      <trkpt lat="43.43492" lon="2.07466">
        <ele>390</ele>
        <time>2012-04-05T14:46:18Z</time>
      </trkpt>
      <trkpt lat="43.43486" lon="2.07446">
        <ele>388</ele>
        <time>2012-04-05T14:46:20Z</time>
      </trkpt>
      <trkpt lat="43.43479" lon="2.07434">
        <ele>386</ele>
        <time>2012-04-05T14:46:22Z</time>
      </trkpt>
      <trkpt lat="43.43472" lon="2.07425">
        <ele>384</ele>
        <time>2012-04-05T14:46:24Z</time>
      </trkpt>
      <trkpt lat="43.43468" lon="2.07415">
        <ele>382</ele>
        <time>2012-04-05T14:46:26Z</time>
      </trkpt>
      <trkpt lat="43.43473" lon="2.07409">
        <ele>380</ele>
        <time>2012-04-05T14:46:28Z</time>
      </trkpt>
      <trkpt lat="43.43478" lon="2.07409">
        <ele>379</ele>
        <time>2012-04-05T14:46:30Z</time>
      </trkpt>
      <trkpt lat="43.43487" lon="2.07407">
        <ele>377</ele>
        <time>2012-04-05T14:46:32Z</time>
      </trkpt>
      <trkpt lat="43.43496" lon="2.07402">
        <ele>376</ele>
        <time>2012-04-05T14:46:34Z</time>
      </trkpt>
      <trkpt lat="43.43502" lon="2.07395">
        <ele>375</ele>
        <time>2012-04-05T14:46:36Z</time>
      </trkpt>
      <trkpt lat="43.43499" lon="2.07389">
        <ele>373</ele>
        <time>2012-04-05T14:46:38Z</time>
      </trkpt>
      <trkpt lat="43.43492" lon="2.07385">
        <ele>371</ele>
        <time>2012-04-05T14:46:40Z</time>
      </trkpt>
      <trkpt lat="43.43486" lon="2.07379">
        <ele>369</ele>
        <time>2012-04-05T14:46:42Z</time>
      </trkpt>
      <trkpt lat="43.4348" lon="2.07369">
        <ele>367</ele>
        <time>2012-04-05T14:46:44Z</time>
      </trkpt>
      <trkpt lat="43.43479" lon="2.07364">
        <ele>364</ele>
        <time>2012-04-05T14:46:46Z</time>
      </trkpt>
      <trkpt lat="43.4348" lon="2.07361">
        <ele>359</ele>
        <time>2012-04-05T14:46:51Z</time>
      </trkpt>
      <trkpt lat="43.43482" lon="2.07356">
        <ele>357</ele>
        <time>2012-04-05T14:46:53Z</time>
      </trkpt>
      <trkpt lat="43.43484" lon="2.07352">
        <ele>357</ele>
        <time>2012-04-05T14:46:55Z</time>
      </trkpt>
      <trkpt lat="43.43489" lon="2.07347">
        <ele>357</ele>
        <time>2012-04-05T14:46:57Z</time>
      </trkpt>
      <trkpt lat="43.43496" lon="2.07344">
        <ele>356</ele>
        <time>2012-04-05T14:46:59Z</time>
      </trkpt>
      <trkpt lat="43.43504" lon="2.07343">
        <ele>356</ele>
        <time>2012-04-05T14:47:01Z</time>
      </trkpt>
      <trkpt lat="43.4351" lon="2.07344">
        <ele>355</ele>
        <time>2012-04-05T14:47:03Z</time>
      </trkpt>
      <trkpt lat="43.43516" lon="2.07343">
        <ele>355</ele>
        <time>2012-04-05T14:47:05Z</time>
      </trkpt>
      <trkpt lat="43.43519" lon="2.07338">
        <ele>354</ele>
        <time>2012-04-05T14:47:07Z</time>
      </trkpt>
      <trkpt lat="43.43519" lon="2.07333">
        <ele>353</ele>
        <time>2012-04-05T14:47:09Z</time>
      </trkpt>
      <trkpt lat="43.43512" lon="2.07326">
        <ele>351</ele>
        <time>2012-04-05T14:47:11Z</time>
      </trkpt>
      <trkpt lat="43.43502" lon="2.07323">
        <ele>349</ele>
        <time>2012-04-05T14:47:13Z</time>
      </trkpt>
      <trkpt lat="43.43491" lon="2.07323">
        <ele>347</ele>
        <time>2012-04-05T14:47:15Z</time>
      </trkpt>
      <trkpt lat="43.43481" lon="2.07319">
        <ele>345</ele>
        <time>2012-04-05T14:47:17Z</time>
      </trkpt>
      <trkpt lat="43.43468" lon="2.07315">
        <ele>343</ele>
        <time>2012-04-05T14:47:19Z</time>
      </trkpt>
      <trkpt lat="43.43456" lon="2.07311">
        <ele>341</ele>
        <time>2012-04-05T14:47:21Z</time>
      </trkpt>
      <trkpt lat="43.43443" lon="2.0731">
        <ele>339</ele>
        <time>2012-04-05T14:47:23Z</time>
      </trkpt>
      <trkpt lat="43.4343" lon="2.07312">
        <ele>337</ele>
        <time>2012-04-05T14:47:25Z</time>
      </trkpt>
      <trkpt lat="43.43413" lon="2.07322">
        <ele>334</ele>
        <time>2012-04-05T14:47:28Z</time>
      </trkpt>
      <trkpt lat="43.43405" lon="2.07327">
        <ele>332</ele>
        <time>2012-04-05T14:47:30Z</time>
      </trkpt>
      <trkpt lat="43.43399" lon="2.07328">
        <ele>330</ele>
        <time>2012-04-05T14:47:32Z</time>
      </trkpt>
      <trkpt lat="43.43396" lon="2.07324">
        <ele>328</ele>
        <time>2012-04-05T14:47:34Z</time>
      </trkpt>
      <trkpt lat="43.434" lon="2.07317">
        <ele>325</ele>
        <time>2012-04-05T14:47:36Z</time>
      </trkpt>
      <trkpt lat="43.43403" lon="2.07305">
        <ele>322</ele>
        <time>2012-04-05T14:47:38Z</time>
      </trkpt>
      <trkpt lat="43.43405" lon="2.07292">
        <ele>320</ele>
        <time>2012-04-05T14:47:40Z</time>
      </trkpt>
      <trkpt lat="43.43407" lon="2.07279">
        <ele>318</ele>
        <time>2012-04-05T14:47:42Z</time>
      </trkpt>
      <trkpt lat="43.43415" lon="2.07269">
        <ele>317</ele>
        <time>2012-04-05T14:47:44Z</time>
      </trkpt>
      <trkpt lat="43.43425" lon="2.07261">
        <ele>317</ele>
        <time>2012-04-05T14:47:46Z</time>
      </trkpt>
      <trkpt lat="43.43436" lon="2.07253">
        <ele>317</ele>
        <time>2012-04-05T14:47:48Z</time>
      </trkpt>
      <trkpt lat="43.43449" lon="2.07249">
        <ele>317</ele>
        <time>2012-04-05T14:47:50Z</time>
      </trkpt>
      <trkpt lat="43.43463" lon="2.07244">
        <ele>317</ele>
        <time>2012-04-05T14:47:52Z</time>
      </trkpt>
      <trkpt lat="43.43474" lon="2.07241">
        <ele>317</ele>
        <time>2012-04-05T14:47:54Z</time>
      </trkpt>
      <trkpt lat="43.43482" lon="2.07241">
        <ele>317</ele>
        <time>2012-04-05T14:47:56Z</time>
      </trkpt>
      <trkpt lat="43.43486" lon="2.07242">
        <ele>317</ele>
        <time>2012-04-05T14:47:58Z</time>
      </trkpt>
      <trkpt lat="43.43488" lon="2.07238">
        <ele>317</ele>
        <time>2012-04-05T14:48:00Z</time>
      </trkpt>
      <trkpt lat="43.43488" lon="2.07237">
        <ele>317</ele>
        <time>2012-04-05T14:48:02Z</time>
      </trkpt>
      <trkpt lat="43.43491" lon="2.07231">
        <ele>317</ele>
        <time>2012-04-05T14:48:04Z</time>
      </trkpt>
      <trkpt lat="43.43497" lon="2.07226">
        <ele>317</ele>
        <time>2012-04-05T14:48:06Z</time>
      </trkpt>
      <trkpt lat="43.43505" lon="2.07222">
        <ele>317</ele>
        <time>2012-04-05T14:48:08Z</time>
      </trkpt>
      <trkpt lat="43.43516" lon="2.07216">
        <ele>317</ele>
        <time>2012-04-05T14:48:10Z</time>
      </trkpt>
      <trkpt lat="43.43525" lon="2.07213">
        <ele>317</ele>
        <time>2012-04-05T14:48:12Z</time>
      </trkpt>
      <trkpt lat="43.43528" lon="2.07211">
        <ele>317</ele>
        <time>2012-04-05T14:48:14Z</time>
      </trkpt>
      <trkpt lat="43.43527" lon="2.0721">
        <ele>315</ele>
        <time>2012-04-05T14:48:16Z</time>
      </trkpt>
      <trkpt lat="43.43523" lon="2.07212">
        <ele>313</ele>
        <time>2012-04-05T14:48:18Z</time>
      </trkpt>
      <trkpt lat="43.43519" lon="2.07213">
        <ele>311</ele>
        <time>2012-04-05T14:48:20Z</time>
      </trkpt>
      <trkpt lat="43.43515" lon="2.07215">
        <ele>309</ele>
        <time>2012-04-05T14:48:22Z</time>
      </trkpt>
      <trkpt lat="43.4351" lon="2.07216">
        <ele>307</ele>
        <time>2012-04-05T14:48:24Z</time>
      </trkpt>
      <trkpt lat="43.43504" lon="2.07217">
        <ele>305</ele>
        <time>2012-04-05T14:48:26Z</time>
      </trkpt>
      <trkpt lat="43.43498" lon="2.07218">
        <ele>303</ele>
        <time>2012-04-05T14:48:28Z</time>
      </trkpt>
      <trkpt lat="43.43493" lon="2.0722">
        <ele>301</ele>
        <time>2012-04-05T14:48:30Z</time>
      </trkpt>
      <trkpt lat="43.43488" lon="2.07219">
        <ele>299</ele>
        <time>2012-04-05T14:48:32Z</time>
      </trkpt>
      <trkpt lat="43.43485" lon="2.0722">
        <ele>296</ele>
        <time>2012-04-05T14:48:35Z</time>
      </trkpt>
      <trkpt lat="43.43484" lon="2.07218">
        <ele>296</ele>
        <time>2012-04-05T14:48:38Z</time>
      </trkpt>
      <trkpt lat="43.4348" lon="2.07218">
        <ele>296</ele>
        <time>2012-04-05T14:48:40Z</time>
      </trkpt>
      <trkpt lat="43.43476" lon="2.07219">
        <ele>296</ele>
        <time>2012-04-05T14:48:42Z</time>
      </trkpt>
      <trkpt lat="43.4347" lon="2.07221">
        <ele>296</ele>
        <time>2012-04-05T14:48:44Z</time>
      </trkpt>
      <trkpt lat="43.43465" lon="2.07222">
        <ele>296</ele>
        <time>2012-04-05T14:48:46Z</time>
      </trkpt>
      <trkpt lat="43.43459" lon="2.07221">
        <ele>296</ele>
        <time>2012-04-05T14:48:48Z</time>
      </trkpt>
      <trkpt lat="43.43454" lon="2.0722">
        <ele>295</ele>
        <time>2012-04-05T14:48:50Z</time>
      </trkpt>
      <trkpt lat="43.43448" lon="2.0722">
        <ele>293</ele>
        <time>2012-04-05T14:48:52Z</time>
      </trkpt>
      <trkpt lat="43.43441" lon="2.07219">
        <ele>292</ele>
        <time>2012-04-05T14:48:54Z</time>
      </trkpt>
      <trkpt lat="43.43436" lon="2.07219">
        <ele>291</ele>
        <time>2012-04-05T14:48:56Z</time>
      </trkpt>
      <trkpt lat="43.43429" lon="2.0722">
        <ele>290</ele>
        <time>2012-04-05T14:48:58Z</time>
      </trkpt>
      <trkpt lat="43.43422" lon="2.07217">
        <ele>290</ele>
        <time>2012-04-05T14:49:00Z</time>
      </trkpt>
      <trkpt lat="43.43415" lon="2.07218">
        <ele>290</ele>
        <time>2012-04-05T14:49:02Z</time>
      </trkpt>
      <trkpt lat="43.43409" lon="2.07222">
        <ele>291</ele>
        <time>2012-04-05T14:49:04Z</time>
      </trkpt>
      <trkpt lat="43.43403" lon="2.07226">
        <ele>291</ele>
        <time>2012-04-05T14:49:06Z</time>
      </trkpt>
      <trkpt lat="43.43398" lon="2.07232">
        <ele>291</ele>
        <time>2012-04-05T14:49:08Z</time>
      </trkpt>
      <trkpt lat="43.43394" lon="2.07241">
        <ele>291</ele>
        <time>2012-04-05T14:49:10Z</time>
      </trkpt>
      <trkpt lat="43.4339" lon="2.07249">
        <ele>291</ele>
        <time>2012-04-05T14:49:12Z</time>
      </trkpt>
      <trkpt lat="43.43388" lon="2.07259">
        <ele>292</ele>
        <time>2012-04-05T14:49:14Z</time>
      </trkpt>
      <trkpt lat="43.43385" lon="2.07267">
        <ele>293</ele>
        <time>2012-04-05T14:49:16Z</time>
      </trkpt>
      <trkpt lat="43.43383" lon="2.07275">
        <ele>294</ele>
        <time>2012-04-05T14:49:18Z</time>
      </trkpt>
      <trkpt lat="43.4338" lon="2.07284">
        <ele>295</ele>
        <time>2012-04-05T14:49:20Z</time>
      </trkpt>
      <trkpt lat="43.43378" lon="2.07292">
        <ele>296</ele>
        <time>2012-04-05T14:49:22Z</time>
      </trkpt>
      <trkpt lat="43.43374" lon="2.073">
        <ele>297</ele>
        <time>2012-04-05T14:49:24Z</time>
      </trkpt>
      <trkpt lat="43.4337" lon="2.07306">
        <ele>297</ele>
        <time>2012-04-05T14:49:26Z</time>
      </trkpt>
      <trkpt lat="43.43365" lon="2.0731">
        <ele>298</ele>
        <time>2012-04-05T14:49:28Z</time>
      </trkpt>
      <trkpt lat="43.4336" lon="2.07316">
        <ele>299</ele>
        <time>2012-04-05T14:49:30Z</time>
      </trkpt>
      <trkpt lat="43.43356" lon="2.07321">
        <ele>301</ele>
        <time>2012-04-05T14:49:32Z</time>
      </trkpt>
      <trkpt lat="43.4335" lon="2.07324">
        <ele>302</ele>
        <time>2012-04-05T14:49:34Z</time>
      </trkpt>
      <trkpt lat="43.43343" lon="2.07327">
        <ele>304</ele>
        <time>2012-04-05T14:49:36Z</time>
      </trkpt>
      <trkpt lat="43.43337" lon="2.0733">
        <ele>306</ele>
        <time>2012-04-05T14:49:38Z</time>
      </trkpt>
      <trkpt lat="43.43331" lon="2.07332">
        <ele>308</ele>
        <time>2012-04-05T14:49:40Z</time>
      </trkpt>
      <trkpt lat="43.43326" lon="2.07339">
        <ele>310</ele>
        <time>2012-04-05T14:49:42Z</time>
      </trkpt>
      <trkpt lat="43.4332" lon="2.07345">
        <ele>312</ele>
        <time>2012-04-05T14:49:44Z</time>
      </trkpt>
      <trkpt lat="43.43315" lon="2.07354">
        <ele>313</ele>
        <time>2012-04-05T14:49:46Z</time>
      </trkpt>
      <trkpt lat="43.43311" lon="2.07364">
        <ele>313</ele>
        <time>2012-04-05T14:49:48Z</time>
      </trkpt>
      <trkpt lat="43.43308" lon="2.07377">
        <ele>313</ele>
        <time>2012-04-05T14:49:50Z</time>
      </trkpt>
      <trkpt lat="43.43306" lon="2.0739">
        <ele>313</ele>
        <time>2012-04-05T14:49:52Z</time>
      </trkpt>
      <trkpt lat="43.43302" lon="2.07403">
        <ele>313</ele>
        <time>2012-04-05T14:49:54Z</time>
      </trkpt>
      <trkpt lat="43.43298" lon="2.07416">
        <ele>313</ele>
        <time>2012-04-05T14:49:56Z</time>
      </trkpt>
      <trkpt lat="43.43292" lon="2.07431">
        <ele>313</ele>
        <time>2012-04-05T14:49:58Z</time>
      </trkpt>
      <trkpt lat="43.43287" lon="2.07443">
        <ele>313</ele>
        <time>2012-04-05T14:50:00Z</time>
      </trkpt>
      <trkpt lat="43.43281" lon="2.07457">
        <ele>313</ele>
        <time>2012-04-05T14:50:02Z</time>
      </trkpt>
      <trkpt lat="43.43275" lon="2.07471">
        <ele>313</ele>
        <time>2012-04-05T14:50:04Z</time>
      </trkpt>
      <trkpt lat="43.43268" lon="2.07484">
        <ele>313</ele>
        <time>2012-04-05T14:50:06Z</time>
      </trkpt>
      <trkpt lat="43.43259" lon="2.07495">
        <ele>313</ele>
        <time>2012-04-05T14:50:08Z</time>
      </trkpt>
      <trkpt lat="43.43248" lon="2.07503">
        <ele>313</ele>
        <time>2012-04-05T14:50:10Z</time>
      </trkpt>
      <trkpt lat="43.43238" lon="2.07506">
        <ele>313</ele>
        <time>2012-04-05T14:50:12Z</time>
      </trkpt>
      <trkpt lat="43.43227" lon="2.07507">
        <ele>313</ele>
        <time>2012-04-05T14:50:14Z</time>
      </trkpt>
      <trkpt lat="43.43215" lon="2.07508">
        <ele>313</ele>
        <time>2012-04-05T14:50:16Z</time>
      </trkpt>
      <trkpt lat="43.43202" lon="2.07511">
        <ele>313</ele>
        <time>2012-04-05T14:50:18Z</time>
      </trkpt>
      <trkpt lat="43.4319" lon="2.07512">
        <ele>313</ele>
        <time>2012-04-05T14:50:20Z</time>
      </trkpt>
      <trkpt lat="43.43179" lon="2.07513">
        <ele>313</ele>
        <time>2012-04-05T14:50:22Z</time>
      </trkpt>
      <trkpt lat="43.43167" lon="2.07513">
        <ele>313</ele>
        <time>2012-04-05T14:50:24Z</time>
      </trkpt>
      <trkpt lat="43.43156" lon="2.07513">
        <ele>311</ele>
        <time>2012-04-05T14:50:26Z</time>
      </trkpt>
      <trkpt lat="43.43145" lon="2.07515">
        <ele>309</ele>
        <time>2012-04-05T14:50:28Z</time>
      </trkpt>
      <trkpt lat="43.43134" lon="2.07521">
        <ele>307</ele>
        <time>2012-04-05T14:50:30Z</time>
      </trkpt>
      <trkpt lat="43.43123" lon="2.07526">
        <ele>306</ele>
        <time>2012-04-05T14:50:32Z</time>
      </trkpt>
      <trkpt lat="43.43115" lon="2.07535">
        <ele>306</ele>
        <time>2012-04-05T14:50:34Z</time>
      </trkpt>
      <trkpt lat="43.4311" lon="2.07548">
        <ele>307</ele>
        <time>2012-04-05T14:50:36Z</time>
      </trkpt>
      <trkpt lat="43.43107" lon="2.07562">
        <ele>308</ele>
        <time>2012-04-05T14:50:38Z</time>
      </trkpt>
      <trkpt lat="43.43103" lon="2.07575">
        <ele>308</ele>
        <time>2012-04-05T14:50:40Z</time>
      </trkpt>
      <trkpt lat="43.43101" lon="2.07588">
        <ele>308</ele>
        <time>2012-04-05T14:50:42Z</time>
      </trkpt>
      <trkpt lat="43.43098" lon="2.076">
        <ele>308</ele>
        <time>2012-04-05T14:50:44Z</time>
      </trkpt>
      <trkpt lat="43.43095" lon="2.07613">
        <ele>308</ele>
        <time>2012-04-05T14:50:46Z</time>
      </trkpt>
      <trkpt lat="43.43092" lon="2.07625">
        <ele>309</ele>
        <time>2012-04-05T14:50:48Z</time>
      </trkpt>
      <trkpt lat="43.4309" lon="2.07637">
        <ele>309</ele>
        <time>2012-04-05T14:50:50Z</time>
      </trkpt>
      <trkpt lat="43.43087" lon="2.07648">
        <ele>309</ele>
        <time>2012-04-05T14:50:52Z</time>
      </trkpt>
      <trkpt lat="43.43082" lon="2.07659">
        <ele>309</ele>
        <time>2012-04-05T14:50:54Z</time>
      </trkpt>
      <trkpt lat="43.43077" lon="2.07668">
        <ele>309</ele>
        <time>2012-04-05T14:50:56Z</time>
      </trkpt>
      <trkpt lat="43.4307" lon="2.07677">
        <ele>309</ele>
        <time>2012-04-05T14:50:58Z</time>
      </trkpt>
      <trkpt lat="43.43064" lon="2.07683">
        <ele>310</ele>
        <time>2012-04-05T14:51:00Z</time>
      </trkpt>
      <trkpt lat="43.43058" lon="2.07689">
        <ele>310</ele>
        <time>2012-04-05T14:51:02Z</time>
      </trkpt>
      <trkpt lat="43.43051" lon="2.07693">
        <ele>311</ele>
        <time>2012-04-05T14:51:04Z</time>
      </trkpt>
      <trkpt lat="43.43043" lon="2.07698">
        <ele>311</ele>
        <time>2012-04-05T14:51:06Z</time>
      </trkpt>
      <trkpt lat="43.43036" lon="2.07703">
        <ele>311</ele>
        <time>2012-04-05T14:51:08Z</time>
      </trkpt>
      <trkpt lat="43.43029" lon="2.07709">
        <ele>311</ele>
        <time>2012-04-05T14:51:10Z</time>
      </trkpt>
      <trkpt lat="43.43022" lon="2.07715">
        <ele>311</ele>
        <time>2012-04-05T14:51:12Z</time>
      </trkpt>
      <trkpt lat="43.43016" lon="2.0772">
        <ele>312</ele>
        <time>2012-04-05T14:51:14Z</time>
      </trkpt>
      <trkpt lat="43.4301" lon="2.07727">
        <ele>313</ele>
        <time>2012-04-05T14:51:16Z</time>
      </trkpt>
      <trkpt lat="43.43003" lon="2.07732">
        <ele>314</ele>
        <time>2012-04-05T14:51:18Z</time>
      </trkpt>
      <trkpt lat="43.42999" lon="2.07739">
        <ele>316</ele>
        <time>2012-04-05T14:51:20Z</time>
      </trkpt>
      <trkpt lat="43.42994" lon="2.07747">
        <ele>317</ele>
        <time>2012-04-05T14:51:22Z</time>
      </trkpt>
      <trkpt lat="43.42989" lon="2.07754">
        <ele>318</ele>
        <time>2012-04-05T14:51:24Z</time>
      </trkpt>
      <trkpt lat="43.42985" lon="2.07761">
        <ele>320</ele>
        <time>2012-04-05T14:51:26Z</time>
      </trkpt>
      <trkpt lat="43.42981" lon="2.07769">
        <ele>321</ele>
        <time>2012-04-05T14:51:28Z</time>
      </trkpt>
      <trkpt lat="43.42977" lon="2.07777">
        <ele>323</ele>
        <time>2012-04-05T14:51:30Z</time>
      </trkpt>
      <trkpt lat="43.42973" lon="2.07785">
        <ele>325</ele>
        <time>2012-04-05T14:51:32Z</time>
      </trkpt>
      <trkpt lat="43.4297" lon="2.07794">
        <ele>326</ele>
        <time>2012-04-05T14:51:34Z</time>
      </trkpt>
      <trkpt lat="43.42966" lon="2.07803">
        <ele>327</ele>
        <time>2012-04-05T14:51:36Z</time>
      </trkpt>
      <trkpt lat="43.42963" lon="2.07812">
        <ele>329</ele>
        <time>2012-04-05T14:51:38Z</time>
      </trkpt>
      <trkpt lat="43.4296" lon="2.07821">
        <ele>330</ele>
        <time>2012-04-05T14:51:40Z</time>
      </trkpt>
      <trkpt lat="43.42957" lon="2.07829">
        <ele>332</ele>
        <time>2012-04-05T14:51:42Z</time>
      </trkpt>
      <trkpt lat="43.42953" lon="2.07837">
        <ele>333</ele>
        <time>2012-04-05T14:51:44Z</time>
      </trkpt>
      <trkpt lat="43.42949" lon="2.07846">
        <ele>334</ele>
        <time>2012-04-05T14:51:46Z</time>
      </trkpt>
      <trkpt lat="43.42945" lon="2.07854">
        <ele>334</ele>
        <time>2012-04-05T14:51:48Z</time>
      </trkpt>
      <trkpt lat="43.42941" lon="2.07861">
        <ele>334</ele>
        <time>2012-04-05T14:51:50Z</time>
      </trkpt>
      <trkpt lat="43.42937" lon="2.0787">
        <ele>334</ele>
        <time>2012-04-05T14:51:52Z</time>
      </trkpt>
      <trkpt lat="43.42934" lon="2.07877">
        <ele>335</ele>
        <time>2012-04-05T14:51:54Z</time>
      </trkpt>
      <trkpt lat="43.4293" lon="2.07885">
        <ele>336</ele>
        <time>2012-04-05T14:51:56Z</time>
      </trkpt>
      <trkpt lat="43.42926" lon="2.07893">
        <ele>337</ele>
        <time>2012-04-05T14:51:58Z</time>
      </trkpt>
      <trkpt lat="43.42923" lon="2.079">
        <ele>338</ele>
        <time>2012-04-05T14:52:00Z</time>
      </trkpt>
      <trkpt lat="43.42919" lon="2.07907">
        <ele>339</ele>
        <time>2012-04-05T14:52:02Z</time>
      </trkpt>
      <trkpt lat="43.42915" lon="2.07915">
        <ele>340</ele>
        <time>2012-04-05T14:52:04Z</time>
      </trkpt>
      <trkpt lat="43.42911" lon="2.07923">
        <ele>340</ele>
        <time>2012-04-05T14:52:06Z</time>
      </trkpt>
      <trkpt lat="43.42907" lon="2.07931">
        <ele>340</ele>
        <time>2012-04-05T14:52:08Z</time>
      </trkpt>
      <trkpt lat="43.42904" lon="2.0794">
        <ele>340</ele>
        <time>2012-04-05T14:52:10Z</time>
      </trkpt>
      <trkpt lat="43.42901" lon="2.07948">
        <ele>340</ele>
        <time>2012-04-05T14:52:12Z</time>
      </trkpt>
      <trkpt lat="43.42899" lon="2.07958">
        <ele>341</ele>
        <time>2012-04-05T14:52:14Z</time>
      </trkpt>
      <trkpt lat="43.42898" lon="2.07967">
        <ele>341</ele>
        <time>2012-04-05T14:52:16Z</time>
      </trkpt>
      <trkpt lat="43.42897" lon="2.07977">
        <ele>341</ele>
        <time>2012-04-05T14:52:18Z</time>
      </trkpt>
      <trkpt lat="43.42894" lon="2.07986">
        <ele>341</ele>
        <time>2012-04-05T14:52:20Z</time>
      </trkpt>
      <trkpt lat="43.42891" lon="2.07995">
        <ele>341</ele>
        <time>2012-04-05T14:52:22Z</time>
      </trkpt>
      <trkpt lat="43.42888" lon="2.08003">
        <ele>341</ele>
        <time>2012-04-05T14:52:24Z</time>
      </trkpt>
      <trkpt lat="43.42884" lon="2.0801">
        <ele>341</ele>
        <time>2012-04-05T14:52:26Z</time>
      </trkpt>
      <trkpt lat="43.42878" lon="2.08014">
        <ele>341</ele>
        <time>2012-04-05T14:52:28Z</time>
      </trkpt>
      <trkpt lat="43.42871" lon="2.08017">
        <ele>341</ele>
        <time>2012-04-05T14:52:30Z</time>
      </trkpt>
      <trkpt lat="43.42865" lon="2.0802">
        <ele>341</ele>
        <time>2012-04-05T14:52:32Z</time>
      </trkpt>
      <trkpt lat="43.42858" lon="2.08022">
        <ele>341</ele>
        <time>2012-04-05T14:52:34Z</time>
      </trkpt>
      <trkpt lat="43.42852" lon="2.0802">
        <ele>341</ele>
        <time>2012-04-05T14:52:36Z</time>
      </trkpt>
      <trkpt lat="43.42846" lon="2.08017">
        <ele>341</ele>
        <time>2012-04-05T14:52:38Z</time>
      </trkpt>
      <trkpt lat="43.4284" lon="2.08014">
        <ele>341</ele>
        <time>2012-04-05T14:52:40Z</time>
      </trkpt>
      <trkpt lat="43.42835" lon="2.08009">
        <ele>341</ele>
        <time>2012-04-05T14:52:42Z</time>
      </trkpt>
      <trkpt lat="43.42828" lon="2.08006">
        <ele>342</ele>
        <time>2012-04-05T14:52:44Z</time>
      </trkpt>
      <trkpt lat="43.42822" lon="2.08002">
        <ele>344</ele>
        <time>2012-04-05T14:52:46Z</time>
      </trkpt>
      <trkpt lat="43.42814" lon="2.07999">
        <ele>344</ele>
        <time>2012-04-05T14:52:48Z</time>
      </trkpt>
      <trkpt lat="43.42807" lon="2.07998">
        <ele>344</ele>
        <time>2012-04-05T14:52:50Z</time>
      </trkpt>
      <trkpt lat="43.428" lon="2.07998">
        <ele>344</ele>
        <time>2012-04-05T14:52:52Z</time>
      </trkpt>
      <trkpt lat="43.42792" lon="2.08">
        <ele>344</ele>
        <time>2012-04-05T14:52:54Z</time>
      </trkpt>
      <trkpt lat="43.42786" lon="2.08001">
        <ele>344</ele>
        <time>2012-04-05T14:52:56Z</time>
      </trkpt>
      <trkpt lat="43.42779" lon="2.08004">
        <ele>344</ele>
        <time>2012-04-05T14:52:58Z</time>
      </trkpt>
      <trkpt lat="43.42772" lon="2.08009">
        <ele>344</ele>
        <time>2012-04-05T14:53:00Z</time>
      </trkpt>
      <trkpt lat="43.42766" lon="2.08013">
        <ele>344</ele>
        <time>2012-04-05T14:53:02Z</time>
      </trkpt>
      <trkpt lat="43.42759" lon="2.08016">
        <ele>344</ele>
        <time>2012-04-05T14:53:04Z</time>
      </trkpt>
      <trkpt lat="43.42752" lon="2.08018">
        <ele>344</ele>
        <time>2012-04-05T14:53:06Z</time>
      </trkpt>
      <trkpt lat="43.42746" lon="2.08021">
        <ele>344</ele>
        <time>2012-04-05T14:53:08Z</time>
      </trkpt>
      <trkpt lat="43.42739" lon="2.08024">
        <ele>345</ele>
        <time>2012-04-05T14:53:10Z</time>
      </trkpt>
      <trkpt lat="43.42733" lon="2.08026">
        <ele>345</ele>
        <time>2012-04-05T14:53:12Z</time>
      </trkpt>
      <trkpt lat="43.42727" lon="2.08028">
        <ele>345</ele>
        <time>2012-04-05T14:53:14Z</time>
      </trkpt>
      <trkpt lat="43.4272" lon="2.08029">
        <ele>345</ele>
        <time>2012-04-05T14:53:16Z</time>
      </trkpt>
      <trkpt lat="43.42714" lon="2.08029">
        <ele>345</ele>
        <time>2012-04-05T14:53:18Z</time>
      </trkpt>
      <trkpt lat="43.42707" lon="2.08028">
        <ele>345</ele>
        <time>2012-04-05T14:53:20Z</time>
      </trkpt>
      <trkpt lat="43.42701" lon="2.08026">
        <ele>345</ele>
        <time>2012-04-05T14:53:22Z</time>
      </trkpt>
      <trkpt lat="43.42695" lon="2.08023">
        <ele>345</ele>
        <time>2012-04-05T14:53:24Z</time>
      </trkpt>
      <trkpt lat="43.42689" lon="2.08019">
        <ele>345</ele>
        <time>2012-04-05T14:53:26Z</time>
      </trkpt>
      <trkpt lat="43.42683" lon="2.08015">
        <ele>345</ele>
        <time>2012-04-05T14:53:28Z</time>
      </trkpt>
      <trkpt lat="43.42678" lon="2.08011">
        <ele>344</ele>
        <time>2012-04-05T14:53:30Z</time>
      </trkpt>
      <trkpt lat="43.42673" lon="2.08005">
        <ele>344</ele>
        <time>2012-04-05T14:53:32Z</time>
      </trkpt>
      <trkpt lat="43.42668" lon="2.08">
        <ele>344</ele>
        <time>2012-04-05T14:53:34Z</time>
      </trkpt>
      <trkpt lat="43.42662" lon="2.07993">
        <ele>344</ele>
        <time>2012-04-05T14:53:36Z</time>
      </trkpt>
      <trkpt lat="43.42658" lon="2.07987">
        <ele>344</ele>
        <time>2012-04-05T14:53:38Z</time>
      </trkpt>
      <trkpt lat="43.42654" lon="2.0798">
        <ele>344</ele>
        <time>2012-04-05T14:53:40Z</time>
      </trkpt>
      <trkpt lat="43.4265" lon="2.07974">
        <ele>344</ele>
        <time>2012-04-05T14:53:42Z</time>
      </trkpt>
      <trkpt lat="43.42646" lon="2.07968">
        <ele>344</ele>
        <time>2012-04-05T14:53:44Z</time>
      </trkpt>
      <trkpt lat="43.4264" lon="2.0796">
        <ele>345</ele>
        <time>2012-04-05T14:53:46Z</time>
      </trkpt>
      <trkpt lat="43.42634" lon="2.07955">
        <ele>347</ele>
        <time>2012-04-05T14:53:48Z</time>
      </trkpt>
      <trkpt lat="43.42629" lon="2.07949">
        <ele>348</ele>
        <time>2012-04-05T14:53:50Z</time>
      </trkpt>
      <trkpt lat="43.42623" lon="2.07942">
        <ele>348</ele>
        <time>2012-04-05T14:53:52Z</time>
      </trkpt>
      <trkpt lat="43.42618" lon="2.07937">
        <ele>349</ele>
        <time>2012-04-05T14:53:54Z</time>
      </trkpt>
      <trkpt lat="43.42612" lon="2.07934">
        <ele>351</ele>
        <time>2012-04-05T14:53:56Z</time>
      </trkpt>
      <trkpt lat="43.42606" lon="2.07933">
        <ele>351</ele>
        <time>2012-04-05T14:53:58Z</time>
      </trkpt>
      <trkpt lat="43.426" lon="2.07938">
        <ele>352</ele>
        <time>2012-04-05T14:54:00Z</time>
      </trkpt>
      <trkpt lat="43.42594" lon="2.07946">
        <ele>352</ele>
        <time>2012-04-05T14:54:02Z</time>
      </trkpt>
      <trkpt lat="43.4259" lon="2.07954">
        <ele>352</ele>
        <time>2012-04-05T14:54:04Z</time>
      </trkpt>
      <trkpt lat="43.42587" lon="2.07963">
        <ele>352</ele>
        <time>2012-04-05T14:54:06Z</time>
      </trkpt>
      <trkpt lat="43.42585" lon="2.07971">
        <ele>352</ele>
        <time>2012-04-05T14:54:08Z</time>
      </trkpt>
      <trkpt lat="43.42585" lon="2.07979">
        <ele>352</ele>
        <time>2012-04-05T14:54:10Z</time>
      </trkpt>
      <trkpt lat="43.42585" lon="2.07988">
        <ele>353</ele>
        <time>2012-04-05T14:54:12Z</time>
      </trkpt>
      <trkpt lat="43.42587" lon="2.07996">
        <ele>353</ele>
        <time>2012-04-05T14:54:14Z</time>
      </trkpt>
      <trkpt lat="43.42588" lon="2.08004">
        <ele>354</ele>
        <time>2012-04-05T14:54:16Z</time>
      </trkpt>
      <trkpt lat="43.42591" lon="2.08011">
        <ele>355</ele>
        <time>2012-04-05T14:54:18Z</time>
      </trkpt>
      <trkpt lat="43.42596" lon="2.08017">
        <ele>355</ele>
        <time>2012-04-05T14:54:20Z</time>
      </trkpt>
      <trkpt lat="43.42599" lon="2.08025">
        <ele>355</ele>
        <time>2012-04-05T14:54:22Z</time>
      </trkpt>
      <trkpt lat="43.42599" lon="2.08033">
        <ele>356</ele>
        <time>2012-04-05T14:54:24Z</time>
      </trkpt>
      <trkpt lat="43.42596" lon="2.0804">
        <ele>358</ele>
        <time>2012-04-05T14:54:26Z</time>
      </trkpt>
      <trkpt lat="43.42592" lon="2.08046">
        <ele>359</ele>
        <time>2012-04-05T14:54:28Z</time>
      </trkpt>
      <trkpt lat="43.42587" lon="2.08051">
        <ele>360</ele>
        <time>2012-04-05T14:54:30Z</time>
      </trkpt>
      <trkpt lat="43.42582" lon="2.08049">
        <ele>361</ele>
        <time>2012-04-05T14:54:32Z</time>
      </trkpt>
      <trkpt lat="43.42581" lon="2.08043">
        <ele>362</ele>
        <time>2012-04-05T14:54:34Z</time>
      </trkpt>
      <trkpt lat="43.42578" lon="2.08034">
        <ele>364</ele>
        <time>2012-04-05T14:54:36Z</time>
      </trkpt>
      <trkpt lat="43.42575" lon="2.08026">
        <ele>366</ele>
        <time>2012-04-05T14:54:38Z</time>
      </trkpt>
      <trkpt lat="43.42573" lon="2.08019">
        <ele>368</ele>
        <time>2012-04-05T14:54:40Z</time>
      </trkpt>
      <trkpt lat="43.42569" lon="2.08012">
        <ele>370</ele>
        <time>2012-04-05T14:54:42Z</time>
      </trkpt>
      <trkpt lat="43.42566" lon="2.08006">
        <ele>372</ele>
        <time>2012-04-05T14:54:44Z</time>
      </trkpt>
      <trkpt lat="43.42563" lon="2.07999">
        <ele>374</ele>
        <time>2012-04-05T14:54:46Z</time>
      </trkpt>
      <trkpt lat="43.42559" lon="2.07993">
        <ele>377</ele>
        <time>2012-04-05T14:54:48Z</time>
      </trkpt>
      <trkpt lat="43.42556" lon="2.07987">
        <ele>379</ele>
        <time>2012-04-05T14:54:50Z</time>
      </trkpt>
      <trkpt lat="43.42553" lon="2.07979">
        <ele>381</ele>
        <time>2012-04-05T14:54:52Z</time>
      </trkpt>
      <trkpt lat="43.4255" lon="2.07972">
        <ele>384</ele>
        <time>2012-04-05T14:54:54Z</time>
      </trkpt>
      <trkpt lat="43.4255" lon="2.07965">
        <ele>386</ele>
        <time>2012-04-05T14:54:56Z</time>
      </trkpt>
      <trkpt lat="43.4255" lon="2.07958">
        <ele>388</ele>
        <time>2012-04-05T14:54:58Z</time>
      </trkpt>
      <trkpt lat="43.42548" lon="2.0795">
        <ele>390</ele>
        <time>2012-04-05T14:55:00Z</time>
      </trkpt>
      <trkpt lat="43.42548" lon="2.07942">
        <ele>392</ele>
        <time>2012-04-05T14:55:02Z</time>
      </trkpt>
      <trkpt lat="43.42546" lon="2.07934">
        <ele>394</ele>
        <time>2012-04-05T14:55:04Z</time>
      </trkpt>
      <trkpt lat="43.42547" lon="2.07927">
        <ele>396</ele>
        <time>2012-04-05T14:55:06Z</time>
      </trkpt>
      <trkpt lat="43.42548" lon="2.07921">
        <ele>398</ele>
        <time>2012-04-05T14:55:08Z</time>
      </trkpt>
      <trkpt lat="43.42551" lon="2.07915">
        <ele>400</ele>
        <time>2012-04-05T14:55:10Z</time>
      </trkpt>
      <trkpt lat="43.42557" lon="2.07911">
        <ele>402</ele>
        <time>2012-04-05T14:55:12Z</time>
      </trkpt>
      <trkpt lat="43.42565" lon="2.07906">
        <ele>404</ele>
        <time>2012-04-05T14:55:14Z</time>
      </trkpt>
      <trkpt lat="43.4257" lon="2.07899">
        <ele>405</ele>
        <time>2012-04-05T14:55:16Z</time>
      </trkpt>
      <trkpt lat="43.42575" lon="2.07893">
        <ele>405</ele>
        <time>2012-04-05T14:55:18Z</time>
      </trkpt>
      <trkpt lat="43.42574" lon="2.07886">
        <ele>405</ele>
        <time>2012-04-05T14:55:20Z</time>
      </trkpt>
      <trkpt lat="43.42575" lon="2.07877">
        <ele>405</ele>
        <time>2012-04-05T14:55:22Z</time>
      </trkpt>
      <trkpt lat="43.42574" lon="2.07869">
        <ele>405</ele>
        <time>2012-04-05T14:55:24Z</time>
      </trkpt>
      <trkpt lat="43.42572" lon="2.0786">
        <ele>405</ele>
        <time>2012-04-05T14:55:26Z</time>
      </trkpt>
      <trkpt lat="43.42569" lon="2.0785">
        <ele>404</ele>
        <time>2012-04-05T14:55:28Z</time>
      </trkpt>
      <trkpt lat="43.42568" lon="2.0784">
        <ele>404</ele>
        <time>2012-04-05T14:55:30Z</time>
      </trkpt>
      <trkpt lat="43.42568" lon="2.07832">
        <ele>404</ele>
        <time>2012-04-05T14:55:32Z</time>
      </trkpt>
      <trkpt lat="43.42565" lon="2.07822">
        <ele>404</ele>
        <time>2012-04-05T14:55:34Z</time>
      </trkpt>
      <trkpt lat="43.42564" lon="2.07813">
        <ele>405</ele>
        <time>2012-04-05T14:55:36Z</time>
      </trkpt>
      <trkpt lat="43.42564" lon="2.07804">
        <ele>407</ele>
        <time>2012-04-05T14:55:38Z</time>
      </trkpt>
      <trkpt lat="43.42563" lon="2.07798">
        <ele>409</ele>
        <time>2012-04-05T14:55:40Z</time>
      </trkpt>
      <trkpt lat="43.42562" lon="2.07797">
        <ele>410</ele>
        <time>2012-04-05T14:55:42Z</time>
      </trkpt>
      <trkpt lat="43.42565" lon="2.07796">
        <ele>410</ele>
        <time>2012-04-05T14:55:44Z</time>
      </trkpt>
      <trkpt lat="43.42569" lon="2.07798">
        <ele>410</ele>
        <time>2012-04-05T14:55:46Z</time>
      </trkpt>
      <trkpt lat="43.42574" lon="2.07801">
        <ele>409</ele>
        <time>2012-04-05T14:55:48Z</time>
      </trkpt>
      <trkpt lat="43.42577" lon="2.07804">
        <ele>407</ele>
        <time>2012-04-05T14:55:50Z</time>
      </trkpt>
      <trkpt lat="43.42581" lon="2.07804">
        <ele>405</ele>
        <time>2012-04-05T14:55:52Z</time>
      </trkpt>
      <trkpt lat="43.42585" lon="2.07803">
        <ele>403</ele>
        <time>2012-04-05T14:55:54Z</time>
      </trkpt>
      <trkpt lat="43.4259" lon="2.07801">
        <ele>401</ele>
        <time>2012-04-05T14:55:56Z</time>
      </trkpt>
      <trkpt lat="43.42595" lon="2.07801">
        <ele>400</ele>
        <time>2012-04-05T14:55:58Z</time>
      </trkpt>
      <trkpt lat="43.42599" lon="2.078">
        <ele>399</ele>
        <time>2012-04-05T14:56:00Z</time>
      </trkpt>
      <trkpt lat="43.42605" lon="2.07799">
        <ele>399</ele>
        <time>2012-04-05T14:56:02Z</time>
      </trkpt>
      <trkpt lat="43.4261" lon="2.07799">
        <ele>399</ele>
        <time>2012-04-05T14:56:04Z</time>
      </trkpt>
      <trkpt lat="43.42616" lon="2.07798">
        <ele>398</ele>
        <time>2012-04-05T14:56:06Z</time>
      </trkpt>
      <trkpt lat="43.42622" lon="2.07797">
        <ele>398</ele>
        <time>2012-04-05T14:56:08Z</time>
      </trkpt>
      <trkpt lat="43.42627" lon="2.07795">
        <ele>397</ele>
        <time>2012-04-05T14:56:10Z</time>
      </trkpt>
      <trkpt lat="43.42631" lon="2.07794">
        <ele>397</ele>
        <time>2012-04-05T14:56:12Z</time>
      </trkpt>
      <trkpt lat="43.42637" lon="2.07792">
        <ele>397</ele>
        <time>2012-04-05T14:56:14Z</time>
      </trkpt>
      <trkpt lat="43.42643" lon="2.07791">
        <ele>397</ele>
        <time>2012-04-05T14:56:16Z</time>
      </trkpt>
      <trkpt lat="43.4265" lon="2.0779">
        <ele>397</ele>
        <time>2012-04-05T14:56:18Z</time>
      </trkpt>
      <trkpt lat="43.42656" lon="2.0779">
        <ele>397</ele>
        <time>2012-04-05T14:56:20Z</time>
      </trkpt>
      <trkpt lat="43.42662" lon="2.07793">
        <ele>397</ele>
        <time>2012-04-05T14:56:22Z</time>
      </trkpt>
      <trkpt lat="43.42665" lon="2.07797">
        <ele>397</ele>
        <time>2012-04-05T14:56:24Z</time>
      </trkpt>
      <trkpt lat="43.42669" lon="2.07802">
        <ele>397</ele>
        <time>2012-04-05T14:56:26Z</time>
      </trkpt>
      <trkpt lat="43.42673" lon="2.07806">
        <ele>397</ele>
        <time>2012-04-05T14:56:28Z</time>
      </trkpt>
      <trkpt lat="43.42678" lon="2.0781">
        <ele>397</ele>
        <time>2012-04-05T14:56:30Z</time>
      </trkpt>
      <trkpt lat="43.42684" lon="2.07813">
        <ele>397</ele>
        <time>2012-04-05T14:56:32Z</time>
      </trkpt>
      <trkpt lat="43.42692" lon="2.07815">
        <ele>397</ele>
        <time>2012-04-05T14:56:34Z</time>
      </trkpt>
      <trkpt lat="43.42698" lon="2.07817">
        <ele>398</ele>
        <time>2012-04-05T14:56:36Z</time>
      </trkpt>
      <trkpt lat="43.42704" lon="2.07818">
        <ele>399</ele>
        <time>2012-04-05T14:56:38Z</time>
      </trkpt>
      <trkpt lat="43.42709" lon="2.07819">
        <ele>399</ele>
        <time>2012-04-05T14:56:40Z</time>
      </trkpt>
      <trkpt lat="43.42715" lon="2.0782">
        <ele>399</ele>
        <time>2012-04-05T14:56:42Z</time>
      </trkpt>
      <trkpt lat="43.4272" lon="2.0782">
        <ele>399</ele>
        <time>2012-04-05T14:56:44Z</time>
      </trkpt>
      <trkpt lat="43.42725" lon="2.0782">
        <ele>399</ele>
        <time>2012-04-05T14:56:46Z</time>
      </trkpt>
      <trkpt lat="43.4273" lon="2.07821">
        <ele>400</ele>
        <time>2012-04-05T14:56:48Z</time>
      </trkpt>
      <trkpt lat="43.42735" lon="2.07822">
        <ele>400</ele>
        <time>2012-04-05T14:56:50Z</time>
      </trkpt>
      <trkpt lat="43.4274" lon="2.07822">
        <ele>401</ele>
        <time>2012-04-05T14:56:52Z</time>
      </trkpt>
      <trkpt lat="43.42746" lon="2.07822">
        <ele>401</ele>
        <time>2012-04-05T14:56:54Z</time>
      </trkpt>
      <trkpt lat="43.42752" lon="2.07823">
        <ele>402</ele>
        <time>2012-04-05T14:56:56Z</time>
      </trkpt>
      <trkpt lat="43.42757" lon="2.07822">
        <ele>402</ele>
        <time>2012-04-05T14:56:58Z</time>
      </trkpt>
      <trkpt lat="43.42763" lon="2.07823">
        <ele>402</ele>
        <time>2012-04-05T14:57:00Z</time>
      </trkpt>
      <trkpt lat="43.42768" lon="2.07824">
        <ele>402</ele>
        <time>2012-04-05T14:57:02Z</time>
      </trkpt>
      <trkpt lat="43.42775" lon="2.07824">
        <ele>402</ele>
        <time>2012-04-05T14:57:04Z</time>
      </trkpt>
      <trkpt lat="43.42781" lon="2.07825">
        <ele>402</ele>
        <time>2012-04-05T14:57:06Z</time>
      </trkpt>
      <trkpt lat="43.42787" lon="2.07826">
        <ele>402</ele>
        <time>2012-04-05T14:57:08Z</time>
      </trkpt>
      <trkpt lat="43.42794" lon="2.07828">
        <ele>403</ele>
        <time>2012-04-05T14:57:10Z</time>
      </trkpt>
      <trkpt lat="43.42801" lon="2.0783">
        <ele>403</ele>
        <time>2012-04-05T14:57:12Z</time>
      </trkpt>
      <trkpt lat="43.42807" lon="2.07831">
        <ele>403</ele>
        <time>2012-04-05T14:57:14Z</time>
      </trkpt>
      <trkpt lat="43.42813" lon="2.07833">
        <ele>404</ele>
        <time>2012-04-05T14:57:16Z</time>
      </trkpt>
      <trkpt lat="43.42818" lon="2.07835">
        <ele>404</ele>
        <time>2012-04-05T14:57:18Z</time>
      </trkpt>
      <trkpt lat="43.42823" lon="2.07837">
        <ele>404</ele>
        <time>2012-04-05T14:57:20Z</time>
      </trkpt>
      <trkpt lat="43.42828" lon="2.07838">
        <ele>404</ele>
        <time>2012-04-05T14:57:22Z</time>
      </trkpt>
      <trkpt lat="43.42833" lon="2.07836">
        <ele>404</ele>
        <time>2012-04-05T14:57:24Z</time>
      </trkpt>
      <trkpt lat="43.42835" lon="2.07829">
        <ele>404</ele>
        <time>2012-04-05T14:57:26Z</time>
      </trkpt>
      <trkpt lat="43.42832" lon="2.07823">
        <ele>404</ele>
        <time>2012-04-05T14:57:28Z</time>
      </trkpt>
      <trkpt lat="43.42826" lon="2.07821">
        <ele>404</ele>
        <time>2012-04-05T14:57:30Z</time>
      </trkpt>
      <trkpt lat="43.4282" lon="2.0782">
        <ele>404</ele>
        <time>2012-04-05T14:57:32Z</time>
      </trkpt>
      <trkpt lat="43.42816" lon="2.07817">
        <ele>405</ele>
        <time>2012-04-05T14:57:34Z</time>
      </trkpt>
      <trkpt lat="43.42812" lon="2.07814">
        <ele>406</ele>
        <time>2012-04-05T14:57:36Z</time>
      </trkpt>
      <trkpt lat="43.42807" lon="2.07811">
        <ele>407</ele>
        <time>2012-04-05T14:57:38Z</time>
      </trkpt>
      <trkpt lat="43.42803" lon="2.07808">
        <ele>407</ele>
        <time>2012-04-05T14:57:40Z</time>
      </trkpt>
      <trkpt lat="43.42798" lon="2.07804">
        <ele>408</ele>
        <time>2012-04-05T14:57:42Z</time>
      </trkpt>
      <trkpt lat="43.42793" lon="2.078">
        <ele>409</ele>
        <time>2012-04-05T14:57:44Z</time>
      </trkpt>
      <trkpt lat="43.42788" lon="2.07798">
        <ele>410</ele>
        <time>2012-04-05T14:57:46Z</time>
      </trkpt>
      <trkpt lat="43.42782" lon="2.07796">
        <ele>410</ele>
        <time>2012-04-05T14:57:48Z</time>
      </trkpt>
      <trkpt lat="43.42777" lon="2.07793">
        <ele>411</ele>
        <time>2012-04-05T14:57:50Z</time>
      </trkpt>
      <trkpt lat="43.42772" lon="2.0779">
        <ele>412</ele>
        <time>2012-04-05T14:57:52Z</time>
      </trkpt>
      <trkpt lat="43.42767" lon="2.07787">
        <ele>413</ele>
        <time>2012-04-05T14:57:54Z</time>
      </trkpt>
      <trkpt lat="43.42762" lon="2.07783">
        <ele>413</ele>
        <time>2012-04-05T14:57:56Z</time>
      </trkpt>
      <trkpt lat="43.42756" lon="2.0778">
        <ele>414</ele>
        <time>2012-04-05T14:57:58Z</time>
      </trkpt>
      <trkpt lat="43.42751" lon="2.07777">
        <ele>414</ele>
        <time>2012-04-05T14:58:00Z</time>
      </trkpt>
      <trkpt lat="43.42745" lon="2.07774">
        <ele>414</ele>
        <time>2012-04-05T14:58:02Z</time>
      </trkpt>
      <trkpt lat="43.42738" lon="2.07772">
        <ele>414</ele>
        <time>2012-04-05T14:58:04Z</time>
      </trkpt>
      <trkpt lat="43.42731" lon="2.0777">
        <ele>414</ele>
        <time>2012-04-05T14:58:06Z</time>
      </trkpt>
      <trkpt lat="43.42726" lon="2.07768">
        <ele>414</ele>
        <time>2012-04-05T14:58:08Z</time>
      </trkpt>
      <trkpt lat="43.42721" lon="2.07766">
        <ele>414</ele>
        <time>2012-04-05T14:58:10Z</time>
      </trkpt>
      <trkpt lat="43.42715" lon="2.07762">
        <ele>414</ele>
        <time>2012-04-05T14:58:12Z</time>
      </trkpt>
      <trkpt lat="43.42711" lon="2.07756">
        <ele>414</ele>
        <time>2012-04-05T14:58:14Z</time>
      </trkpt>
      <trkpt lat="43.42707" lon="2.07752">
        <ele>415</ele>
        <time>2012-04-05T14:58:16Z</time>
      </trkpt>
      <trkpt lat="43.42704" lon="2.07748">
        <ele>417</ele>
        <time>2012-04-05T14:58:18Z</time>
      </trkpt>
      <trkpt lat="43.42698" lon="2.07741">
        <ele>419</ele>
        <time>2012-04-05T14:58:20Z</time>
      </trkpt>
      <trkpt lat="43.42693" lon="2.07736">
        <ele>421</ele>
        <time>2012-04-05T14:58:22Z</time>
      </trkpt>
      <trkpt lat="43.42688" lon="2.07732">
        <ele>423</ele>
        <time>2012-04-05T14:58:24Z</time>
      </trkpt>
      <trkpt lat="43.42683" lon="2.07728">
        <ele>423</ele>
        <time>2012-04-05T14:58:26Z</time>
      </trkpt>
      <trkpt lat="43.42678" lon="2.07724">
        <ele>423</ele>
        <time>2012-04-05T14:58:28Z</time>
      </trkpt>
      <trkpt lat="43.42673" lon="2.07719">
        <ele>423</ele>
        <time>2012-04-05T14:58:30Z</time>
      </trkpt>
      <trkpt lat="43.42667" lon="2.07715">
        <ele>425</ele>
        <time>2012-04-05T14:58:32Z</time>
      </trkpt>
      <trkpt lat="43.42662" lon="2.07712">
        <ele>426</ele>
        <time>2012-04-05T14:58:34Z</time>
      </trkpt>
      <trkpt lat="43.42656" lon="2.0771">
        <ele>427</ele>
        <time>2012-04-05T14:58:36Z</time>
      </trkpt>
      <trkpt lat="43.4265" lon="2.07708">
        <ele>427</ele>
        <time>2012-04-05T14:58:38Z</time>
      </trkpt>
      <trkpt lat="43.42644" lon="2.07705">
        <ele>428</ele>
        <time>2012-04-05T14:58:40Z</time>
      </trkpt>
      <trkpt lat="43.42638" lon="2.07703">
        <ele>429</ele>
        <time>2012-04-05T14:58:42Z</time>
      </trkpt>
      <trkpt lat="43.42632" lon="2.077">
        <ele>429</ele>
        <time>2012-04-05T14:58:44Z</time>
      </trkpt>
      <trkpt lat="43.42627" lon="2.07698">
        <ele>429</ele>
        <time>2012-04-05T14:58:46Z</time>
      </trkpt>
      <trkpt lat="43.4262" lon="2.07696">
        <ele>429</ele>
        <time>2012-04-05T14:58:48Z</time>
      </trkpt>
      <trkpt lat="43.42612" lon="2.07694">
        <ele>429</ele>
        <time>2012-04-05T14:58:50Z</time>
      </trkpt>
      <trkpt lat="43.42606" lon="2.07694">
        <ele>429</ele>
        <time>2012-04-05T14:58:52Z</time>
      </trkpt>
      <trkpt lat="43.426" lon="2.07692">
        <ele>429</ele>
        <time>2012-04-05T14:58:54Z</time>
      </trkpt>
      <trkpt lat="43.42595" lon="2.07691">
        <ele>429</ele>
        <time>2012-04-05T14:58:56Z</time>
      </trkpt>
      <trkpt lat="43.42589" lon="2.07691">
        <ele>430</ele>
        <time>2012-04-05T14:58:58Z</time>
      </trkpt>
      <trkpt lat="43.42582" lon="2.07692">
        <ele>431</ele>
        <time>2012-04-05T14:59:00Z</time>
      </trkpt>
      <trkpt lat="43.42575" lon="2.07692">
        <ele>431</ele>
        <time>2012-04-05T14:59:02Z</time>
      </trkpt>
      <trkpt lat="43.4257" lon="2.07691">
        <ele>431</ele>
        <time>2012-04-05T14:59:04Z</time>
      </trkpt>
      <trkpt lat="43.42565" lon="2.07689">
        <ele>431</ele>
        <time>2012-04-05T14:59:06Z</time>
      </trkpt>
      <trkpt lat="43.42562" lon="2.07685">
        <ele>431</ele>
        <time>2012-04-05T14:59:08Z</time>
      </trkpt>
      <trkpt lat="43.42557" lon="2.0768">
        <ele>431</ele>
        <time>2012-04-05T14:59:10Z</time>
      </trkpt>
      <trkpt lat="43.42553" lon="2.07675">
        <ele>431</ele>
        <time>2012-04-05T14:59:12Z</time>
      </trkpt>
      <trkpt lat="43.42549" lon="2.0767">
        <ele>431</ele>
        <time>2012-04-05T14:59:14Z</time>
      </trkpt>
      <trkpt lat="43.42545" lon="2.07665">
        <ele>431</ele>
        <time>2012-04-05T14:59:16Z</time>
      </trkpt>
      <trkpt lat="43.42541" lon="2.0766">
        <ele>431</ele>
        <time>2012-04-05T14:59:18Z</time>
      </trkpt>
      <trkpt lat="43.42537" lon="2.07656">
        <ele>431</ele>
        <time>2012-04-05T14:59:20Z</time>
      </trkpt>
      <trkpt lat="43.42533" lon="2.07652">
        <ele>431</ele>
        <time>2012-04-05T14:59:22Z</time>
      </trkpt>
      <trkpt lat="43.42528" lon="2.07649">
        <ele>431</ele>
        <time>2012-04-05T14:59:24Z</time>
      </trkpt>
      <trkpt lat="43.42523" lon="2.07647">
        <ele>431</ele>
        <time>2012-04-05T14:59:26Z</time>
      </trkpt>
      <trkpt lat="43.42516" lon="2.07645">
        <ele>431</ele>
        <time>2012-04-05T14:59:28Z</time>
      </trkpt>
      <trkpt lat="43.4251" lon="2.07643">
        <ele>431</ele>
        <time>2012-04-05T14:59:30Z</time>
      </trkpt>
      <trkpt lat="43.42504" lon="2.07642">
        <ele>431</ele>
        <time>2012-04-05T14:59:32Z</time>
      </trkpt>
      <trkpt lat="43.42496" lon="2.07639">
        <ele>432</ele>
        <time>2012-04-05T14:59:34Z</time>
      </trkpt>
      <trkpt lat="43.42488" lon="2.0764">
        <ele>434</ele>
        <time>2012-04-05T14:59:36Z</time>
      </trkpt>
      <trkpt lat="43.42482" lon="2.0764">
        <ele>435</ele>
        <time>2012-04-05T14:59:38Z</time>
      </trkpt>
      <trkpt lat="43.42475" lon="2.0764">
        <ele>435</ele>
        <time>2012-04-05T14:59:40Z</time>
      </trkpt>
      <trkpt lat="43.42469" lon="2.07638">
        <ele>435</ele>
        <time>2012-04-05T14:59:42Z</time>
      </trkpt>
      <trkpt lat="43.42462" lon="2.0764">
        <ele>437</ele>
        <time>2012-04-05T14:59:44Z</time>
      </trkpt>
      <trkpt lat="43.42458" lon="2.07646">
        <ele>439</ele>
        <time>2012-04-05T14:59:46Z</time>
      </trkpt>
      <trkpt lat="43.42457" lon="2.07653">
        <ele>441</ele>
        <time>2012-04-05T14:59:48Z</time>
      </trkpt>
      <trkpt lat="43.42459" lon="2.07661">
        <ele>441</ele>
        <time>2012-04-05T14:59:50Z</time>
      </trkpt>
      <trkpt lat="43.42462" lon="2.07667">
        <ele>441</ele>
        <time>2012-04-05T14:59:52Z</time>
      </trkpt>
      <trkpt lat="43.42465" lon="2.07675">
        <ele>441</ele>
        <time>2012-04-05T14:59:54Z</time>
      </trkpt>
      <trkpt lat="43.42466" lon="2.07682">
        <ele>443</ele>
        <time>2012-04-05T14:59:56Z</time>
      </trkpt>
      <trkpt lat="43.42468" lon="2.07691">
        <ele>445</ele>
        <time>2012-04-05T14:59:58Z</time>
      </trkpt>
      <trkpt lat="43.42469" lon="2.07699">
        <ele>447</ele>
        <time>2012-04-05T15:00:00Z</time>
      </trkpt>
      <trkpt lat="43.42468" lon="2.07708">
        <ele>449</ele>
        <time>2012-04-05T15:00:02Z</time>
      </trkpt>
      <trkpt lat="43.42464" lon="2.07716">
        <ele>451</ele>
        <time>2012-04-05T15:00:04Z</time>
      </trkpt>
      <trkpt lat="43.4246" lon="2.07724">
        <ele>451</ele>
        <time>2012-04-05T15:00:06Z</time>
      </trkpt>
      <trkpt lat="43.42459" lon="2.07732">
        <ele>452</ele>
        <time>2012-04-05T15:00:08Z</time>
      </trkpt>
      <trkpt lat="43.42457" lon="2.07739">
        <ele>454</ele>
        <time>2012-04-05T15:00:10Z</time>
      </trkpt>
      <trkpt lat="43.42455" lon="2.07747">
        <ele>455</ele>
        <time>2012-04-05T15:00:12Z</time>
      </trkpt>
      <trkpt lat="43.42453" lon="2.07755">
        <ele>456</ele>
        <time>2012-04-05T15:00:14Z</time>
      </trkpt>
      <trkpt lat="43.42452" lon="2.07764">
        <ele>457</ele>
        <time>2012-04-05T15:00:16Z</time>
      </trkpt>
      <trkpt lat="43.42451" lon="2.07772">
        <ele>459</ele>
        <time>2012-04-05T15:00:18Z</time>
      </trkpt>
      <trkpt lat="43.4245" lon="2.0778">
        <ele>461</ele>
        <time>2012-04-05T15:00:20Z</time>
      </trkpt>
      <trkpt lat="43.4245" lon="2.07789">
        <ele>463</ele>
        <time>2012-04-05T15:00:22Z</time>
      </trkpt>
      <trkpt lat="43.42452" lon="2.07798">
        <ele>464</ele>
        <time>2012-04-05T15:00:24Z</time>
      </trkpt>
      <trkpt lat="43.42454" lon="2.07807">
        <ele>464</ele>
        <time>2012-04-05T15:00:26Z</time>
      </trkpt>
      <trkpt lat="43.42456" lon="2.07815">
        <ele>464</ele>
        <time>2012-04-05T15:00:28Z</time>
      </trkpt>
      <trkpt lat="43.42458" lon="2.07823">
        <ele>464</ele>
        <time>2012-04-05T15:00:30Z</time>
      </trkpt>
      <trkpt lat="43.42461" lon="2.07831">
        <ele>464</ele>
        <time>2012-04-05T15:00:32Z</time>
      </trkpt>
      <trkpt lat="43.42461" lon="2.07838">
        <ele>462</ele>
        <time>2012-04-05T15:00:34Z</time>
      </trkpt>
      <trkpt lat="43.42463" lon="2.07846">
        <ele>462</ele>
        <time>2012-04-05T15:00:36Z</time>
      </trkpt>
      <trkpt lat="43.42465" lon="2.07855">
        <ele>462</ele>
        <time>2012-04-05T15:00:38Z</time>
      </trkpt>
      <trkpt lat="43.42466" lon="2.07864">
        <ele>461</ele>
        <time>2012-04-05T15:00:40Z</time>
      </trkpt>
      <trkpt lat="43.42466" lon="2.07875">
        <ele>461</ele>
        <time>2012-04-05T15:00:42Z</time>
      </trkpt>
      <trkpt lat="43.42465" lon="2.07884">
        <ele>461</ele>
        <time>2012-04-05T15:00:44Z</time>
      </trkpt>
      <trkpt lat="43.42463" lon="2.07894">
        <ele>461</ele>
        <time>2012-04-05T15:00:46Z</time>
      </trkpt>
      <trkpt lat="43.42461" lon="2.07903">
        <ele>461</ele>
        <time>2012-04-05T15:00:48Z</time>
      </trkpt>
      <trkpt lat="43.42458" lon="2.07911">
        <ele>461</ele>
        <time>2012-04-05T15:00:50Z</time>
      </trkpt>
      <trkpt lat="43.42456" lon="2.07921">
        <ele>461</ele>
        <time>2012-04-05T15:00:52Z</time>
      </trkpt>
      <trkpt lat="43.42453" lon="2.07929">
        <ele>461</ele>
        <time>2012-04-05T15:00:54Z</time>
      </trkpt>
      <trkpt lat="43.42451" lon="2.07937">
        <ele>463</ele>
        <time>2012-04-05T15:00:56Z</time>
      </trkpt>
      <trkpt lat="43.4245" lon="2.07946">
        <ele>465</ele>
        <time>2012-04-05T15:00:58Z</time>
      </trkpt>
      <trkpt lat="43.42451" lon="2.07956">
        <ele>465</ele>
        <time>2012-04-05T15:01:00Z</time>
      </trkpt>
      <trkpt lat="43.42451" lon="2.07966">
        <ele>465</ele>
        <time>2012-04-05T15:01:02Z</time>
      </trkpt>
      <trkpt lat="43.42453" lon="2.07975">
        <ele>465</ele>
        <time>2012-04-05T15:01:04Z</time>
      </trkpt>
      <trkpt lat="43.42453" lon="2.07983">
        <ele>465</ele>
        <time>2012-04-05T15:01:06Z</time>
      </trkpt>
      <trkpt lat="43.42453" lon="2.07992">
        <ele>466</ele>
        <time>2012-04-05T15:01:08Z</time>
      </trkpt>
      <trkpt lat="43.42454" lon="2.08">
        <ele>468</ele>
        <time>2012-04-05T15:01:10Z</time>
      </trkpt>
      <trkpt lat="43.42454" lon="2.08009">
        <ele>469</ele>
        <time>2012-04-05T15:01:12Z</time>
      </trkpt>
      <trkpt lat="43.42454" lon="2.08017">
        <ele>470</ele>
        <time>2012-04-05T15:01:14Z</time>
      </trkpt>
      <trkpt lat="43.42453" lon="2.08026">
        <ele>470</ele>
        <time>2012-04-05T15:01:16Z</time>
      </trkpt>
      <trkpt lat="43.42454" lon="2.08035">
        <ele>472</ele>
        <time>2012-04-05T15:01:18Z</time>
      </trkpt>
      <trkpt lat="43.42454" lon="2.08044">
        <ele>472</ele>
        <time>2012-04-05T15:01:20Z</time>
      </trkpt>
      <trkpt lat="43.42454" lon="2.08052">
        <ele>472</ele>
        <time>2012-04-05T15:01:22Z</time>
      </trkpt>
      <trkpt lat="43.42455" lon="2.0806">
        <ele>472</ele>
        <time>2012-04-05T15:01:24Z</time>
      </trkpt>
      <trkpt lat="43.42453" lon="2.08065">
        <ele>472</ele>
        <time>2012-04-05T15:01:27Z</time>
      </trkpt>
      <trkpt lat="43.42451" lon="2.08066">
        <ele>471</ele>
        <time>2012-04-05T15:01:29Z</time>
      </trkpt>
      <trkpt lat="43.4245" lon="2.08068">
        <ele>468</ele>
        <time>2012-04-05T15:01:32Z</time>
      </trkpt>
      <trkpt lat="43.42451" lon="2.08069">
        <ele>463</ele>
        <time>2012-04-05T15:01:36Z</time>
      </trkpt>
      <trkpt lat="43.42451" lon="2.08071">
        <ele>461</ele>
        <time>2012-04-05T15:01:38Z</time>
      </trkpt>
      <trkpt lat="43.4245" lon="2.08076">
        <ele>461</ele>
        <time>2012-04-05T15:01:40Z</time>
      </trkpt>
      <trkpt lat="43.4245" lon="2.08084">
        <ele>460</ele>
        <time>2012-04-05T15:01:42Z</time>
      </trkpt>
      <trkpt lat="43.4245" lon="2.08092">
        <ele>460</ele>
        <time>2012-04-05T15:01:44Z</time>
      </trkpt>
      <trkpt lat="43.4245" lon="2.08101">
        <ele>460</ele>
        <time>2012-04-05T15:01:46Z</time>
      </trkpt>
      <trkpt lat="43.42449" lon="2.08109">
        <ele>460</ele>
        <time>2012-04-05T15:01:48Z</time>
      </trkpt>
      <trkpt lat="43.42447" lon="2.08117">
        <ele>460</ele>
        <time>2012-04-05T15:01:50Z</time>
      </trkpt>
      <trkpt lat="43.42444" lon="2.08123">
        <ele>460</ele>
        <time>2012-04-05T15:01:52Z</time>
      </trkpt>
      <trkpt lat="43.42439" lon="2.08126">
        <ele>460</ele>
        <time>2012-04-05T15:01:54Z</time>
      </trkpt>
      <trkpt lat="43.42432" lon="2.08127">
        <ele>460</ele>
        <time>2012-04-05T15:01:56Z</time>
      </trkpt>
      <trkpt lat="43.42425" lon="2.08128">
        <ele>460</ele>
        <time>2012-04-05T15:01:58Z</time>
      </trkpt>
      <trkpt lat="43.42423" lon="2.0813">
        <ele>460</ele>
        <time>2012-04-05T15:02:00Z</time>
      </trkpt>
      <trkpt lat="43.42419" lon="2.08134">
        <ele>463</ele>
        <time>2012-04-05T15:02:03Z</time>
      </trkpt>
      <trkpt lat="43.42412" lon="2.08137">
        <ele>465</ele>
        <time>2012-04-05T15:02:05Z</time>
      </trkpt>
      <trkpt lat="43.42408" lon="2.0814">
        <ele>467</ele>
        <time>2012-04-05T15:02:07Z</time>
      </trkpt>
      <trkpt lat="43.42402" lon="2.08145">
        <ele>469</ele>
        <time>2012-04-05T15:02:09Z</time>
      </trkpt>
      <trkpt lat="43.42395" lon="2.08152">
        <ele>471</ele>
        <time>2012-04-05T15:02:11Z</time>
      </trkpt>
      <trkpt lat="43.4239" lon="2.08159">
        <ele>473</ele>
        <time>2012-04-05T15:02:13Z</time>
      </trkpt>
      <trkpt lat="43.42387" lon="2.08166">
        <ele>475</ele>
        <time>2012-04-05T15:02:15Z</time>
      </trkpt>
      <trkpt lat="43.42383" lon="2.08172">
        <ele>477</ele>
        <time>2012-04-05T15:02:17Z</time>
      </trkpt>
      <trkpt lat="43.4238" lon="2.08178">
        <ele>478</ele>
        <time>2012-04-05T15:02:19Z</time>
      </trkpt>
      <trkpt lat="43.42372" lon="2.08184">
        <ele>478</ele>
        <time>2012-04-05T15:02:21Z</time>
      </trkpt>
      <trkpt lat="43.42364" lon="2.08188">
        <ele>478</ele>
        <time>2012-04-05T15:02:23Z</time>
      </trkpt>
      <trkpt lat="43.42357" lon="2.0819">
        <ele>478</ele>
        <time>2012-04-05T15:02:25Z</time>
      </trkpt>
      <trkpt lat="43.42349" lon="2.08191">
        <ele>478</ele>
        <time>2012-04-05T15:02:27Z</time>
      </trkpt>
      <trkpt lat="43.42342" lon="2.08191">
        <ele>478</ele>
        <time>2012-04-05T15:02:29Z</time>
      </trkpt>
      <trkpt lat="43.42335" lon="2.08191">
        <ele>478</ele>
        <time>2012-04-05T15:02:31Z</time>
      </trkpt>
      <trkpt lat="43.42328" lon="2.08191">
        <ele>478</ele>
        <time>2012-04-05T15:02:33Z</time>
      </trkpt>
      <trkpt lat="43.42323" lon="2.0819">
        <ele>478</ele>
        <time>2012-04-05T15:02:35Z</time>
      </trkpt>
      <trkpt lat="43.42319" lon="2.0819">
        <ele>478</ele>
        <time>2012-04-05T15:02:37Z</time>
      </trkpt>
      <trkpt lat="43.42316" lon="2.08193">
        <ele>478</ele>
        <time>2012-04-05T15:02:39Z</time>
      </trkpt>
      <trkpt lat="43.42313" lon="2.08195">
        <ele>479</ele>
        <time>2012-04-05T15:02:41Z</time>
      </trkpt>
      <trkpt lat="43.42308" lon="2.08199">
        <ele>481</ele>
        <time>2012-04-05T15:02:43Z</time>
      </trkpt>
      <trkpt lat="43.42305" lon="2.08204">
        <ele>483</ele>
        <time>2012-04-05T15:02:45Z</time>
      </trkpt>
      <trkpt lat="43.42302" lon="2.0821">
        <ele>485</ele>
        <time>2012-04-05T15:02:47Z</time>
      </trkpt>
      <trkpt lat="43.42299" lon="2.08216">
        <ele>486</ele>
        <time>2012-04-05T15:02:49Z</time>
      </trkpt>
      <trkpt lat="43.42294" lon="2.08221">
        <ele>487</ele>
        <time>2012-04-05T15:02:51Z</time>
      </trkpt>
      <trkpt lat="43.42287" lon="2.08225">
        <ele>487</ele>
        <time>2012-04-05T15:02:53Z</time>
      </trkpt>
      <trkpt lat="43.4228" lon="2.08225">
        <ele>487</ele>
        <time>2012-04-05T15:02:55Z</time>
      </trkpt>
      <trkpt lat="43.42271" lon="2.08227">
        <ele>487</ele>
        <time>2012-04-05T15:02:57Z</time>
      </trkpt>
      <trkpt lat="43.42264" lon="2.08229">
        <ele>487</ele>
        <time>2012-04-05T15:02:59Z</time>
      </trkpt>
      <trkpt lat="43.4226" lon="2.0823">
        <ele>487</ele>
        <time>2012-04-05T15:03:01Z</time>
      </trkpt>
      <trkpt lat="43.4226" lon="2.08229">
        <ele>489</ele>
        <time>2012-04-05T15:03:05Z</time>
      </trkpt>
      <trkpt lat="43.42259" lon="2.08231">
        <ele>493</ele>
        <time>2012-04-05T15:03:09Z</time>
      </trkpt>
      <trkpt lat="43.42261" lon="2.08236">
        <ele>495</ele>
        <time>2012-04-05T15:03:11Z</time>
      </trkpt>
      <trkpt lat="43.42262" lon="2.08243">
        <ele>497</ele>
        <time>2012-04-05T15:03:13Z</time>
      </trkpt>
      <trkpt lat="43.4226" lon="2.08252">
        <ele>499</ele>
        <time>2012-04-05T15:03:15Z</time>
      </trkpt>
      <trkpt lat="43.42261" lon="2.08261">
        <ele>501</ele>
        <time>2012-04-05T15:03:17Z</time>
      </trkpt>
      <trkpt lat="43.42262" lon="2.08269">
        <ele>503</ele>
        <time>2012-04-05T15:03:19Z</time>
      </trkpt>
      <trkpt lat="43.42263" lon="2.08278">
        <ele>505</ele>
        <time>2012-04-05T15:03:21Z</time>
      </trkpt>
      <trkpt lat="43.42264" lon="2.08286">
        <ele>507</ele>
        <time>2012-04-05T15:03:23Z</time>
      </trkpt>
      <trkpt lat="43.42264" lon="2.08296">
        <ele>508</ele>
        <time>2012-04-05T15:03:25Z</time>
      </trkpt>
      <trkpt lat="43.42265" lon="2.08305">
        <ele>509</ele>
        <time>2012-04-05T15:03:27Z</time>
      </trkpt>
      <trkpt lat="43.42265" lon="2.08314">
        <ele>510</ele>
        <time>2012-04-05T15:03:29Z</time>
      </trkpt>
      <trkpt lat="43.42263" lon="2.08322">
        <ele>511</ele>
        <time>2012-04-05T15:03:31Z</time>
      </trkpt>
      <trkpt lat="43.42259" lon="2.08329">
        <ele>512</ele>
        <time>2012-04-05T15:03:33Z</time>
      </trkpt>
      <trkpt lat="43.42257" lon="2.08337">
        <ele>512</ele>
        <time>2012-04-05T15:03:35Z</time>
      </trkpt>
      <trkpt lat="43.42255" lon="2.08345">
        <ele>512</ele>
        <time>2012-04-05T15:03:37Z</time>
      </trkpt>
      <trkpt lat="43.42254" lon="2.08354">
        <ele>512</ele>
        <time>2012-04-05T15:03:39Z</time>
      </trkpt>
      <trkpt lat="43.42252" lon="2.08362">
        <ele>512</ele>
        <time>2012-04-05T15:03:41Z</time>
      </trkpt>
      <trkpt lat="43.42249" lon="2.08369">
        <ele>512</ele>
        <time>2012-04-05T15:03:43Z</time>
      </trkpt>
      <trkpt lat="43.42242" lon="2.08375">
        <ele>512</ele>
        <time>2012-04-05T15:03:45Z</time>
      </trkpt>
      <trkpt lat="43.42234" lon="2.0838">
        <ele>512</ele>
        <time>2012-04-05T15:03:47Z</time>
      </trkpt>
      <trkpt lat="43.42224" lon="2.08383">
        <ele>510</ele>
        <time>2012-04-05T15:03:49Z</time>
      </trkpt>
      <trkpt lat="43.42216" lon="2.08386">
        <ele>508</ele>
        <time>2012-04-05T15:03:51Z</time>
      </trkpt>
      <trkpt lat="43.42208" lon="2.08386">
        <ele>506</ele>
        <time>2012-04-05T15:03:53Z</time>
      </trkpt>
      <trkpt lat="43.42201" lon="2.08385">
        <ele>504</ele>
        <time>2012-04-05T15:03:55Z</time>
      </trkpt>
      <trkpt lat="43.42194" lon="2.08382">
        <ele>502</ele>
        <time>2012-04-05T15:03:57Z</time>
      </trkpt>
      <trkpt lat="43.42187" lon="2.0838">
        <ele>500</ele>
        <time>2012-04-05T15:03:59Z</time>
      </trkpt>
      <trkpt lat="43.4218" lon="2.08379">
        <ele>500</ele>
        <time>2012-04-05T15:04:01Z</time>
      </trkpt>
      <trkpt lat="43.42174" lon="2.08376">
        <ele>500</ele>
        <time>2012-04-05T15:04:03Z</time>
      </trkpt>
      <trkpt lat="43.42168" lon="2.08374">
        <ele>500</ele>
        <time>2012-04-05T15:04:05Z</time>
      </trkpt>
      <trkpt lat="43.42162" lon="2.08372">
        <ele>499</ele>
        <time>2012-04-05T15:04:07Z</time>
      </trkpt>
      <trkpt lat="43.42156" lon="2.08372">
        <ele>499</ele>
        <time>2012-04-05T15:04:09Z</time>
      </trkpt>
      <trkpt lat="43.4215" lon="2.08371">
        <ele>498</ele>
        <time>2012-04-05T15:04:11Z</time>
      </trkpt>
      <trkpt lat="43.42144" lon="2.08371">
        <ele>498</ele>
        <time>2012-04-05T15:04:13Z</time>
      </trkpt>
      <trkpt lat="43.42138" lon="2.0837">
        <ele>498</ele>
        <time>2012-04-05T15:04:15Z</time>
      </trkpt>
      <trkpt lat="43.42131" lon="2.08369">
        <ele>498</ele>
        <time>2012-04-05T15:04:17Z</time>
      </trkpt>
      <trkpt lat="43.42125" lon="2.08368">
        <ele>498</ele>
        <time>2012-04-05T15:04:19Z</time>
      </trkpt>
      <trkpt lat="43.42119" lon="2.08368">
        <ele>498</ele>
        <time>2012-04-05T15:04:21Z</time>
      </trkpt>
      <trkpt lat="43.42113" lon="2.08367">
        <ele>498</ele>
        <time>2012-04-05T15:04:23Z</time>
      </trkpt>
      <trkpt lat="43.42107" lon="2.08367">
        <ele>498</ele>
        <time>2012-04-05T15:04:25Z</time>
      </trkpt>
      <trkpt lat="43.421" lon="2.08366">
        <ele>498</ele>
        <time>2012-04-05T15:04:27Z</time>
      </trkpt>
      <trkpt lat="43.42093" lon="2.08365">
        <ele>498</ele>
        <time>2012-04-05T15:04:29Z</time>
      </trkpt>
      <trkpt lat="43.42086" lon="2.08365">
        <ele>498</ele>
        <time>2012-04-05T15:04:31Z</time>
      </trkpt>
      <trkpt lat="43.42082" lon="2.08365">
        <ele>498</ele>
        <time>2012-04-05T15:04:33Z</time>
      </trkpt>
      <trkpt lat="43.42079" lon="2.08364">
        <ele>498</ele>
        <time>2012-04-05T15:04:35Z</time>
      </trkpt>
      <trkpt lat="43.42075" lon="2.08365">
        <ele>500</ele>
        <time>2012-04-05T15:04:37Z</time>
      </trkpt>
      <trkpt lat="43.4207" lon="2.08366">
        <ele>502</ele>
        <time>2012-04-05T15:04:39Z</time>
      </trkpt>
      <trkpt lat="43.42068" lon="2.08367">
        <ele>504</ele>
        <time>2012-04-05T15:04:41Z</time>
      </trkpt>
      <trkpt lat="43.42069" lon="2.0837">
        <ele>508</ele>
        <time>2012-04-05T15:04:44Z</time>
      </trkpt>
      <trkpt lat="43.42064" lon="2.08375">
        <ele>512</ele>
        <time>2012-04-05T15:04:46Z</time>
      </trkpt>
      <trkpt lat="43.42058" lon="2.08384">
        <ele>514</ele>
        <time>2012-04-05T15:04:48Z</time>
      </trkpt>
      <trkpt lat="43.42053" lon="2.0839">
        <ele>516</ele>
        <time>2012-04-05T15:04:50Z</time>
      </trkpt>
      <trkpt lat="43.42052" lon="2.08395">
        <ele>518</ele>
        <time>2012-04-05T15:04:52Z</time>
      </trkpt>
      <trkpt lat="43.42051" lon="2.084">
        <ele>520</ele>
        <time>2012-04-05T15:04:54Z</time>
      </trkpt>
      <trkpt lat="43.42049" lon="2.08404">
        <ele>522</ele>
        <time>2012-04-05T15:04:56Z</time>
      </trkpt>
      <trkpt lat="43.42043" lon="2.08413">
        <ele>524</ele>
        <time>2012-04-05T15:04:58Z</time>
      </trkpt>
      <trkpt lat="43.42037" lon="2.0842">
        <ele>526</ele>
        <time>2012-04-05T15:05:00Z</time>
      </trkpt>
      <trkpt lat="43.42033" lon="2.08425">
        <ele>528</ele>
        <time>2012-04-05T15:05:02Z</time>
      </trkpt>
      <trkpt lat="43.42029" lon="2.08433">
        <ele>529</ele>
        <time>2012-04-05T15:05:04Z</time>
      </trkpt>
      <trkpt lat="43.42025" lon="2.0844">
        <ele>531</ele>
        <time>2012-04-05T15:05:06Z</time>
      </trkpt>
      <trkpt lat="43.4202" lon="2.08446">
        <ele>533</ele>
        <time>2012-04-05T15:05:08Z</time>
      </trkpt>
      <trkpt lat="43.42014" lon="2.0845">
        <ele>534</ele>
        <time>2012-04-05T15:05:10Z</time>
      </trkpt>
      <trkpt lat="43.42007" lon="2.08456">
        <ele>534</ele>
        <time>2012-04-05T15:05:12Z</time>
      </trkpt>
      <trkpt lat="43.42002" lon="2.08463">
        <ele>534</ele>
        <time>2012-04-05T15:05:14Z</time>
      </trkpt>
      <trkpt lat="43.41997" lon="2.08469">
        <ele>534</ele>
        <time>2012-04-05T15:05:16Z</time>
      </trkpt>
      <trkpt lat="43.4199" lon="2.08477">
        <ele>534</ele>
        <time>2012-04-05T15:05:18Z</time>
      </trkpt>
      <trkpt lat="43.41984" lon="2.08485">
        <ele>534</ele>
        <time>2012-04-05T15:05:20Z</time>
      </trkpt>
      <trkpt lat="43.41979" lon="2.08491">
        <ele>534</ele>
        <time>2012-04-05T15:05:22Z</time>
      </trkpt>
      <trkpt lat="43.41974" lon="2.085">
        <ele>534</ele>
        <time>2012-04-05T15:05:24Z</time>
      </trkpt>
      <trkpt lat="43.41969" lon="2.08506">
        <ele>533</ele>
        <time>2012-04-05T15:05:26Z</time>
      </trkpt>
      <trkpt lat="43.41965" lon="2.08511">
        <ele>533</ele>
        <time>2012-04-05T15:05:28Z</time>
      </trkpt>
      <trkpt lat="43.4196" lon="2.08516">
        <ele>533</ele>
        <time>2012-04-05T15:05:30Z</time>
      </trkpt>
      <trkpt lat="43.41952" lon="2.08522">
        <ele>533</ele>
        <time>2012-04-05T15:05:32Z</time>
      </trkpt>
      <trkpt lat="43.41947" lon="2.08526">
        <ele>532</ele>
        <time>2012-04-05T15:05:34Z</time>
      </trkpt>
      <trkpt lat="43.41941" lon="2.0853">
        <ele>530</ele>
        <time>2012-04-05T15:05:36Z</time>
      </trkpt>
      <trkpt lat="43.41935" lon="2.08537">
        <ele>530</ele>
        <time>2012-04-05T15:05:38Z</time>
      </trkpt>
      <trkpt lat="43.41933" lon="2.08543">
        <ele>530</ele>
        <time>2012-04-05T15:05:40Z</time>
      </trkpt>
      <trkpt lat="43.4193" lon="2.08553">
        <ele>530</ele>
        <time>2012-04-05T15:05:42Z</time>
      </trkpt>
      <trkpt lat="43.41928" lon="2.08562">
        <ele>530</ele>
        <time>2012-04-05T15:05:44Z</time>
      </trkpt>
      <trkpt lat="43.41925" lon="2.08571">
        <ele>530</ele>
        <time>2012-04-05T15:05:46Z</time>
      </trkpt>
      <trkpt lat="43.41922" lon="2.08579">
        <ele>530</ele>
        <time>2012-04-05T15:05:48Z</time>
      </trkpt>
      <trkpt lat="43.41917" lon="2.08587">
        <ele>530</ele>
        <time>2012-04-05T15:05:50Z</time>
      </trkpt>
      <trkpt lat="43.41914" lon="2.08594">
        <ele>530</ele>
        <time>2012-04-05T15:05:52Z</time>
      </trkpt>
      <trkpt lat="43.41911" lon="2.08603">
        <ele>531</ele>
        <time>2012-04-05T15:05:54Z</time>
      </trkpt>
      <trkpt lat="43.41911" lon="2.08611">
        <ele>532</ele>
        <time>2012-04-05T15:05:56Z</time>
      </trkpt>
      <trkpt lat="43.41909" lon="2.08619">
        <ele>534</ele>
        <time>2012-04-05T15:05:58Z</time>
      </trkpt>
      <trkpt lat="43.41909" lon="2.08628">
        <ele>536</ele>
        <time>2012-04-05T15:06:00Z</time>
      </trkpt>
      <trkpt lat="43.41907" lon="2.08637">
        <ele>537</ele>
        <time>2012-04-05T15:06:02Z</time>
      </trkpt>
      <trkpt lat="43.41906" lon="2.08645">
        <ele>539</ele>
        <time>2012-04-05T15:06:04Z</time>
      </trkpt>
      <trkpt lat="43.41906" lon="2.08653">
        <ele>540</ele>
        <time>2012-04-05T15:06:06Z</time>
      </trkpt>
      <trkpt lat="43.41907" lon="2.08662">
        <ele>541</ele>
        <time>2012-04-05T15:06:08Z</time>
      </trkpt>
      <trkpt lat="43.41908" lon="2.08671">
        <ele>542</ele>
        <time>2012-04-05T15:06:10Z</time>
      </trkpt>
      <trkpt lat="43.41908" lon="2.08681">
        <ele>542</ele>
        <time>2012-04-05T15:06:12Z</time>
      </trkpt>
      <trkpt lat="43.41909" lon="2.0869">
        <ele>542</ele>
        <time>2012-04-05T15:06:14Z</time>
      </trkpt>
      <trkpt lat="43.4191" lon="2.08699">
        <ele>542</ele>
        <time>2012-04-05T15:06:16Z</time>
      </trkpt>
      <trkpt lat="43.41911" lon="2.08708">
        <ele>542</ele>
        <time>2012-04-05T15:06:18Z</time>
      </trkpt>
      <trkpt lat="43.41908" lon="2.08717">
        <ele>540</ele>
        <time>2012-04-05T15:06:20Z</time>
      </trkpt>
      <trkpt lat="43.419" lon="2.08723">
        <ele>538</ele>
        <time>2012-04-05T15:06:22Z</time>
      </trkpt>
      <trkpt lat="43.41891" lon="2.08726">
        <ele>536</ele>
        <time>2012-04-05T15:06:24Z</time>
      </trkpt>
      <trkpt lat="43.41884" lon="2.08726">
        <ele>534</ele>
        <time>2012-04-05T15:06:26Z</time>
      </trkpt>
      <trkpt lat="43.41878" lon="2.08725">
        <ele>532</ele>
        <time>2012-04-05T15:06:28Z</time>
      </trkpt>
      <trkpt lat="43.41872" lon="2.08724">
        <ele>530</ele>
        <time>2012-04-05T15:06:30Z</time>
      </trkpt>
      <trkpt lat="43.41866" lon="2.08723">
        <ele>528</ele>
        <time>2012-04-05T15:06:32Z</time>
      </trkpt>
      <trkpt lat="43.41861" lon="2.08722">
        <ele>528</ele>
        <time>2012-04-05T15:06:34Z</time>
      </trkpt>
      <trkpt lat="43.41855" lon="2.08722">
        <ele>528</ele>
        <time>2012-04-05T15:06:36Z</time>
      </trkpt>
      <trkpt lat="43.41849" lon="2.08721">
        <ele>528</ele>
        <time>2012-04-05T15:06:38Z</time>
      </trkpt>
      <trkpt lat="43.41843" lon="2.0872">
        <ele>528</ele>
        <time>2012-04-05T15:06:40Z</time>
      </trkpt>
      <trkpt lat="43.41837" lon="2.0872">
        <ele>528</ele>
        <time>2012-04-05T15:06:42Z</time>
      </trkpt>
      <trkpt lat="43.4183" lon="2.08719">
        <ele>528</ele>
        <time>2012-04-05T15:06:44Z</time>
      </trkpt>
      <trkpt lat="43.41824" lon="2.08719">
        <ele>528</ele>
        <time>2012-04-05T15:06:46Z</time>
      </trkpt>
      <trkpt lat="43.41817" lon="2.08718">
        <ele>528</ele>
        <time>2012-04-05T15:06:48Z</time>
      </trkpt>
      <trkpt lat="43.41811" lon="2.08718">
        <ele>528</ele>
        <time>2012-04-05T15:06:50Z</time>
      </trkpt>
      <trkpt lat="43.41805" lon="2.08717">
        <ele>528</ele>
        <time>2012-04-05T15:06:52Z</time>
      </trkpt>
      <trkpt lat="43.41798" lon="2.08717">
        <ele>528</ele>
        <time>2012-04-05T15:06:54Z</time>
      </trkpt>
      <trkpt lat="43.41792" lon="2.08716">
        <ele>528</ele>
        <time>2012-04-05T15:06:56Z</time>
      </trkpt>
      <trkpt lat="43.41785" lon="2.08713">
        <ele>529</ele>
        <time>2012-04-05T15:06:58Z</time>
      </trkpt>
      <trkpt lat="43.4178" lon="2.08709">
        <ele>530</ele>
        <time>2012-04-05T15:07:00Z</time>
      </trkpt>
      <trkpt lat="43.41777" lon="2.08705">
        <ele>531</ele>
        <time>2012-04-05T15:07:02Z</time>
      </trkpt>
      <trkpt lat="43.41773" lon="2.08702">
        <ele>532</ele>
        <time>2012-04-05T15:07:04Z</time>
      </trkpt>
      <trkpt lat="43.41769" lon="2.08699">
        <ele>532</ele>
        <time>2012-04-05T15:07:06Z</time>
      </trkpt>
      <trkpt lat="43.41764" lon="2.08696">
        <ele>532</ele>
        <time>2012-04-05T15:07:08Z</time>
      </trkpt>
      <trkpt lat="43.41758" lon="2.08693">
        <ele>532</ele>
        <time>2012-04-05T15:07:10Z</time>
      </trkpt>
      <trkpt lat="43.41752" lon="2.0869">
        <ele>532</ele>
        <time>2012-04-05T15:07:12Z</time>
      </trkpt>
      <trkpt lat="43.41746" lon="2.08688">
        <ele>532</ele>
        <time>2012-04-05T15:07:14Z</time>
      </trkpt>
      <trkpt lat="43.41741" lon="2.08685">
        <ele>532</ele>
        <time>2012-04-05T15:07:16Z</time>
      </trkpt>
      <trkpt lat="43.41735" lon="2.08682">
        <ele>531</ele>
        <time>2012-04-05T15:07:18Z</time>
      </trkpt>
      <trkpt lat="43.41729" lon="2.08678">
        <ele>531</ele>
        <time>2012-04-05T15:07:20Z</time>
      </trkpt>
      <trkpt lat="43.41725" lon="2.08676">
        <ele>531</ele>
        <time>2012-04-05T15:07:22Z</time>
      </trkpt>
      <trkpt lat="43.41718" lon="2.08673">
        <ele>533</ele>
        <time>2012-04-05T15:07:24Z</time>
      </trkpt>
      <trkpt lat="43.41712" lon="2.0867">
        <ele>535</ele>
        <time>2012-04-05T15:07:26Z</time>
      </trkpt>
      <trkpt lat="43.41704" lon="2.08669">
        <ele>537</ele>
        <time>2012-04-05T15:07:28Z</time>
      </trkpt>
      <trkpt lat="43.41698" lon="2.08667">
        <ele>538</ele>
        <time>2012-04-05T15:07:30Z</time>
      </trkpt>
      <trkpt lat="43.41691" lon="2.08667">
        <ele>538</ele>
        <time>2012-04-05T15:07:32Z</time>
      </trkpt>
      <trkpt lat="43.41685" lon="2.08668">
        <ele>539</ele>
        <time>2012-04-05T15:07:34Z</time>
      </trkpt>
      <trkpt lat="43.41679" lon="2.08671">
        <ele>539</ele>
        <time>2012-04-05T15:07:36Z</time>
      </trkpt>
      <trkpt lat="43.41674" lon="2.08673">
        <ele>539</ele>
        <time>2012-04-05T15:07:38Z</time>
      </trkpt>
      <trkpt lat="43.41669" lon="2.08674">
        <ele>539</ele>
        <time>2012-04-05T15:07:40Z</time>
      </trkpt>
      <trkpt lat="43.41664" lon="2.08673">
        <ele>539</ele>
        <time>2012-04-05T15:07:42Z</time>
      </trkpt>
      <trkpt lat="43.41658" lon="2.08673">
        <ele>539</ele>
        <time>2012-04-05T15:07:44Z</time>
      </trkpt>
      <trkpt lat="43.41652" lon="2.08673">
        <ele>539</ele>
        <time>2012-04-05T15:07:46Z</time>
      </trkpt>
      <trkpt lat="43.41645" lon="2.08672">
        <ele>539</ele>
        <time>2012-04-05T15:07:48Z</time>
      </trkpt>
      <trkpt lat="43.41638" lon="2.0867">
        <ele>541</ele>
        <time>2012-04-05T15:07:50Z</time>
      </trkpt>
      <trkpt lat="43.41633" lon="2.0867">
        <ele>543</ele>
        <time>2012-04-05T15:07:52Z</time>
      </trkpt>
      <trkpt lat="43.41628" lon="2.08671">
        <ele>545</ele>
        <time>2012-04-05T15:07:54Z</time>
      </trkpt>
      <trkpt lat="43.41624" lon="2.08672">
        <ele>547</ele>
        <time>2012-04-05T15:07:56Z</time>
      </trkpt>
      <trkpt lat="43.41625" lon="2.08671">
        <ele>550</ele>
        <time>2012-04-05T15:07:59Z</time>
      </trkpt>
      <trkpt lat="43.41626" lon="2.08673">
        <ele>551</ele>
        <time>2012-04-05T15:08:02Z</time>
      </trkpt>
      <trkpt lat="43.41625" lon="2.08675">
        <ele>547</ele>
        <time>2012-04-05T15:08:07Z</time>
      </trkpt>
      <trkpt lat="43.41623" lon="2.08677">
        <ele>546</ele>
        <time>2012-04-05T15:08:17Z</time>
      </trkpt>
      <trkpt lat="43.41619" lon="2.08677">
        <ele>546</ele>
        <time>2012-04-05T15:08:20Z</time>
      </trkpt>
      <trkpt lat="43.41617" lon="2.08676">
        <ele>546</ele>
        <time>2012-04-05T15:08:22Z</time>
      </trkpt>
      <trkpt lat="43.41612" lon="2.08674">
        <ele>546</ele>
        <time>2012-04-05T15:08:24Z</time>
      </trkpt>
      <trkpt lat="43.41608" lon="2.0867">
        <ele>546</ele>
        <time>2012-04-05T15:08:27Z</time>
      </trkpt>
      <trkpt lat="43.41603" lon="2.08669">
        <ele>546</ele>
        <time>2012-04-05T15:08:29Z</time>
      </trkpt>
      <trkpt lat="43.41598" lon="2.08668">
        <ele>546</ele>
        <time>2012-04-05T15:08:31Z</time>
      </trkpt>
      <trkpt lat="43.41591" lon="2.08669">
        <ele>546</ele>
        <time>2012-04-05T15:08:33Z</time>
      </trkpt>
      <trkpt lat="43.41585" lon="2.08669">
        <ele>546</ele>
        <time>2012-04-05T15:08:35Z</time>
      </trkpt>
      <trkpt lat="43.41578" lon="2.08669">
        <ele>546</ele>
        <time>2012-04-05T15:08:37Z</time>
      </trkpt>
      <trkpt lat="43.41572" lon="2.08667">
        <ele>545</ele>
        <time>2012-04-05T15:08:39Z</time>
      </trkpt>
      <trkpt lat="43.41566" lon="2.08665">
        <ele>544</ele>
        <time>2012-04-05T15:08:41Z</time>
      </trkpt>
      <trkpt lat="43.41559" lon="2.08663">
        <ele>544</ele>
        <time>2012-04-05T15:08:43Z</time>
      </trkpt>
      <trkpt lat="43.41553" lon="2.0866">
        <ele>544</ele>
        <time>2012-04-05T15:08:45Z</time>
      </trkpt>
      <trkpt lat="43.41548" lon="2.08659">
        <ele>544</ele>
        <time>2012-04-05T15:08:47Z</time>
      </trkpt>
      <trkpt lat="43.41544" lon="2.08659">
        <ele>544</ele>
        <time>2012-04-05T15:08:49Z</time>
      </trkpt>
      <trkpt lat="43.41537" lon="2.08662">
        <ele>544</ele>
        <time>2012-04-05T15:08:51Z</time>
      </trkpt>
      <trkpt lat="43.41528" lon="2.0867">
        <ele>544</ele>
        <time>2012-04-05T15:08:53Z</time>
      </trkpt>
      <trkpt lat="43.41522" lon="2.08683">
        <ele>544</ele>
        <time>2012-04-05T15:08:55Z</time>
      </trkpt>
      <trkpt lat="43.41517" lon="2.08698">
        <ele>544</ele>
        <time>2012-04-05T15:08:57Z</time>
      </trkpt>
      <trkpt lat="43.41507" lon="2.08712">
        <ele>543</ele>
        <time>2012-04-05T15:08:59Z</time>
      </trkpt>
      <trkpt lat="43.41496" lon="2.08718">
        <ele>543</ele>
        <time>2012-04-05T15:09:01Z</time>
      </trkpt>
      <trkpt lat="43.41484" lon="2.08724">
        <ele>543</ele>
        <time>2012-04-05T15:09:03Z</time>
      </trkpt>
      <trkpt lat="43.41472" lon="2.08733">
        <ele>543</ele>
        <time>2012-04-05T15:09:05Z</time>
      </trkpt>
      <trkpt lat="43.41463" lon="2.08744">
        <ele>543</ele>
        <time>2012-04-05T15:09:07Z</time>
      </trkpt>
      <trkpt lat="43.41457" lon="2.08754">
        <ele>542</ele>
        <time>2012-04-05T15:09:09Z</time>
      </trkpt>
      <trkpt lat="43.41452" lon="2.08762">
        <ele>541</ele>
        <time>2012-04-05T15:09:11Z</time>
      </trkpt>
      <trkpt lat="43.4145" lon="2.08765">
        <ele>541</ele>
        <time>2012-04-05T15:09:13Z</time>
      </trkpt>
      <trkpt lat="43.41443" lon="2.08763">
        <ele>541</ele>
        <time>2012-04-05T15:09:15Z</time>
      </trkpt>
      <trkpt lat="43.41433" lon="2.0876">
        <ele>541</ele>
        <time>2012-04-05T15:09:17Z</time>
      </trkpt>
      <trkpt lat="43.41419" lon="2.08756">
        <ele>541</ele>
        <time>2012-04-05T15:09:19Z</time>
      </trkpt>
      <trkpt lat="43.41408" lon="2.08753">
        <ele>539</ele>
        <time>2012-04-05T15:09:21Z</time>
      </trkpt>
      <trkpt lat="43.41401" lon="2.08756">
        <ele>537</ele>
        <time>2012-04-05T15:09:23Z</time>
      </trkpt>
      <trkpt lat="43.41404" lon="2.08762">
        <ele>535</ele>
        <time>2012-04-05T15:09:25Z</time>
      </trkpt>
      <trkpt lat="43.41409" lon="2.08772">
        <ele>534</ele>
        <time>2012-04-05T15:09:27Z</time>
      </trkpt>
      <trkpt lat="43.41417" lon="2.08782">
        <ele>534</ele>
        <time>2012-04-05T15:09:29Z</time>
      </trkpt>
      <trkpt lat="43.41425" lon="2.08795">
        <ele>534</ele>
        <time>2012-04-05T15:09:31Z</time>
      </trkpt>
      <trkpt lat="43.41429" lon="2.08809">
        <ele>534</ele>
        <time>2012-04-05T15:09:33Z</time>
      </trkpt>
      <trkpt lat="43.41432" lon="2.08822">
        <ele>534</ele>
        <time>2012-04-05T15:09:35Z</time>
      </trkpt>
      <trkpt lat="43.41435" lon="2.08835">
        <ele>534</ele>
        <time>2012-04-05T15:09:37Z</time>
      </trkpt>
      <trkpt lat="43.41436" lon="2.08848">
        <ele>534</ele>
        <time>2012-04-05T15:09:39Z</time>
      </trkpt>
      <trkpt lat="43.41437" lon="2.0886">
        <ele>534</ele>
        <time>2012-04-05T15:09:41Z</time>
      </trkpt>
      <trkpt lat="43.41441" lon="2.08873">
        <ele>534</ele>
        <time>2012-04-05T15:09:43Z</time>
      </trkpt>
      <trkpt lat="43.41442" lon="2.08887">
        <ele>534</ele>
        <time>2012-04-05T15:09:45Z</time>
      </trkpt>
      <trkpt lat="43.41441" lon="2.08901">
        <ele>534</ele>
        <time>2012-04-05T15:09:47Z</time>
      </trkpt>
      <trkpt lat="43.41434" lon="2.08912">
        <ele>534</ele>
        <time>2012-04-05T15:09:49Z</time>
      </trkpt>
      <trkpt lat="43.41426" lon="2.08925">
        <ele>532</ele>
        <time>2012-04-05T15:09:51Z</time>
      </trkpt>
      <trkpt lat="43.41421" lon="2.08933">
        <ele>530</ele>
        <time>2012-04-05T15:09:53Z</time>
      </trkpt>
      <trkpt lat="43.4142" lon="2.08939">
        <ele>528</ele>
        <time>2012-04-05T15:09:55Z</time>
      </trkpt>
      <trkpt lat="43.41427" lon="2.08944">
        <ele>527</ele>
        <time>2012-04-05T15:09:57Z</time>
      </trkpt>
      <trkpt lat="43.41431" lon="2.08954">
        <ele>525</ele>
        <time>2012-04-05T15:09:59Z</time>
      </trkpt>
      <trkpt lat="43.41434" lon="2.08965">
        <ele>523</ele>
        <time>2012-04-05T15:10:01Z</time>
      </trkpt>
      <trkpt lat="43.41437" lon="2.0898">
        <ele>521</ele>
        <time>2012-04-05T15:10:03Z</time>
      </trkpt>
      <trkpt lat="43.41439" lon="2.08997">
        <ele>519</ele>
        <time>2012-04-05T15:10:05Z</time>
      </trkpt>
      <trkpt lat="43.41439" lon="2.09013">
        <ele>517</ele>
        <time>2012-04-05T15:10:07Z</time>
      </trkpt>
      <trkpt lat="43.41439" lon="2.09028">
        <ele>515</ele>
        <time>2012-04-05T15:10:09Z</time>
      </trkpt>
      <trkpt lat="43.41439" lon="2.0904">
        <ele>513</ele>
        <time>2012-04-05T15:10:11Z</time>
      </trkpt>
      <trkpt lat="43.41435" lon="2.09055">
        <ele>511</ele>
        <time>2012-04-05T15:10:13Z</time>
      </trkpt>
      <trkpt lat="43.41432" lon="2.09065">
        <ele>509</ele>
        <time>2012-04-05T15:10:15Z</time>
      </trkpt>
      <trkpt lat="43.41427" lon="2.09074">
        <ele>508</ele>
        <time>2012-04-05T15:10:17Z</time>
      </trkpt>
      <trkpt lat="43.41425" lon="2.09086">
        <ele>508</ele>
        <time>2012-04-05T15:10:19Z</time>
      </trkpt>
      <trkpt lat="43.41423" lon="2.09101">
        <ele>508</ele>
        <time>2012-04-05T15:10:21Z</time>
      </trkpt>
      <trkpt lat="43.4143" lon="2.09116">
        <ele>508</ele>
        <time>2012-04-05T15:10:23Z</time>
      </trkpt>
      <trkpt lat="43.41432" lon="2.09128">
        <ele>508</ele>
        <time>2012-04-05T15:10:25Z</time>
      </trkpt>
      <trkpt lat="43.41432" lon="2.09141">
        <ele>508</ele>
        <time>2012-04-05T15:10:27Z</time>
      </trkpt>
      <trkpt lat="43.41434" lon="2.09157">
        <ele>508</ele>
        <time>2012-04-05T15:10:29Z</time>
      </trkpt>
      <trkpt lat="43.41436" lon="2.09174">
        <ele>508</ele>
        <time>2012-04-05T15:10:31Z</time>
      </trkpt>
      <trkpt lat="43.41438" lon="2.09191">
        <ele>507</ele>
        <time>2012-04-05T15:10:33Z</time>
      </trkpt>
      <trkpt lat="43.41438" lon="2.09203">
        <ele>505</ele>
        <time>2012-04-05T15:10:35Z</time>
      </trkpt>
      <trkpt lat="43.41441" lon="2.09209">
        <ele>503</ele>
        <time>2012-04-05T15:10:37Z</time>
      </trkpt>
      <trkpt lat="43.41446" lon="2.09209">
        <ele>502</ele>
        <time>2012-04-05T15:10:39Z</time>
      </trkpt>
      <trkpt lat="43.41447" lon="2.09205">
        <ele>502</ele>
        <time>2012-04-05T15:10:41Z</time>
      </trkpt>
      <trkpt lat="43.41447" lon="2.092">
        <ele>502</ele>
        <time>2012-04-05T15:10:43Z</time>
      </trkpt>
      <trkpt lat="43.41448" lon="2.09194">
        <ele>502</ele>
        <time>2012-04-05T15:10:45Z</time>
      </trkpt>
      <trkpt lat="43.41449" lon="2.09186">
        <ele>502</ele>
        <time>2012-04-05T15:10:47Z</time>
      </trkpt>
      <trkpt lat="43.41449" lon="2.09176">
        <ele>502</ele>
        <time>2012-04-05T15:10:49Z</time>
      </trkpt>
      <trkpt lat="43.41452" lon="2.09166">
        <ele>502</ele>
        <time>2012-04-05T15:10:51Z</time>
      </trkpt>
      <trkpt lat="43.41452" lon="2.09156">
        <ele>502</ele>
        <time>2012-04-05T15:10:53Z</time>
      </trkpt>
      <trkpt lat="43.41451" lon="2.09147">
        <ele>503</ele>
        <time>2012-04-05T15:10:55Z</time>
      </trkpt>
      <trkpt lat="43.41452" lon="2.09135">
        <ele>503</ele>
        <time>2012-04-05T15:10:57Z</time>
      </trkpt>
      <trkpt lat="43.41453" lon="2.09122">
        <ele>503</ele>
        <time>2012-04-05T15:10:59Z</time>
      </trkpt>
      <trkpt lat="43.41455" lon="2.0911">
        <ele>503</ele>
        <time>2012-04-05T15:11:01Z</time>
      </trkpt>
      <trkpt lat="43.41458" lon="2.09099">
        <ele>503</ele>
        <time>2012-04-05T15:11:03Z</time>
      </trkpt>
      <trkpt lat="43.4146" lon="2.09086">
        <ele>504</ele>
        <time>2012-04-05T15:11:05Z</time>
      </trkpt>
      <trkpt lat="43.41463" lon="2.09075">
        <ele>505</ele>
        <time>2012-04-05T15:11:07Z</time>
      </trkpt>
      <trkpt lat="43.41469" lon="2.09065">
        <ele>506</ele>
        <time>2012-04-05T15:11:09Z</time>
      </trkpt>
      <trkpt lat="43.41473" lon="2.09054">
        <ele>508</ele>
        <time>2012-04-05T15:11:11Z</time>
      </trkpt>
      <trkpt lat="43.41476" lon="2.09041">
        <ele>508</ele>
        <time>2012-04-05T15:11:13Z</time>
      </trkpt>
      <trkpt lat="43.41479" lon="2.09027">
        <ele>508</ele>
        <time>2012-04-05T15:11:15Z</time>
      </trkpt>
      <trkpt lat="43.41481" lon="2.09012">
        <ele>508</ele>
        <time>2012-04-05T15:11:17Z</time>
      </trkpt>
      <trkpt lat="43.41482" lon="2.08996">
        <ele>508</ele>
        <time>2012-04-05T15:11:19Z</time>
      </trkpt>
      <trkpt lat="43.41485" lon="2.0898">
        <ele>508</ele>
        <time>2012-04-05T15:11:21Z</time>
      </trkpt>
      <trkpt lat="43.41487" lon="2.08962">
        <ele>508</ele>
        <time>2012-04-05T15:11:23Z</time>
      </trkpt>
      <trkpt lat="43.41489" lon="2.08948">
        <ele>508</ele>
        <time>2012-04-05T15:11:25Z</time>
      </trkpt>
      <trkpt lat="43.41489" lon="2.08943">
        <ele>508</ele>
        <time>2012-04-05T15:11:27Z</time>
      </trkpt>
      <trkpt lat="43.41488" lon="2.08944">
        <ele>508</ele>
        <time>2012-04-05T15:11:30Z</time>
      </trkpt>
      <trkpt lat="43.41486" lon="2.08946">
        <ele>507</ele>
        <time>2012-04-05T15:11:32Z</time>
      </trkpt>
      <trkpt lat="43.41485" lon="2.0895">
        <ele>507</ele>
        <time>2012-04-05T15:11:34Z</time>
      </trkpt>
      <trkpt lat="43.41484" lon="2.08954">
        <ele>506</ele>
        <time>2012-04-05T15:11:36Z</time>
      </trkpt>
      <trkpt lat="43.41484" lon="2.08958">
        <ele>506</ele>
        <time>2012-04-05T15:11:38Z</time>
      </trkpt>
      <trkpt lat="43.41483" lon="2.08962">
        <ele>506</ele>
        <time>2012-04-05T15:11:41Z</time>
      </trkpt>
      <trkpt lat="43.41481" lon="2.08962">
        <ele>506</ele>
        <time>2012-04-05T15:11:46Z</time>
      </trkpt>
      <trkpt lat="43.4148" lon="2.08961">
        <ele>506</ele>
        <time>2012-04-05T15:11:50Z</time>
      </trkpt>
      <trkpt lat="43.41479" lon="2.08963">
        <ele>506</ele>
        <time>2012-04-05T15:11:58Z</time>
      </trkpt>
      <trkpt lat="43.41477" lon="2.08963">
        <ele>506</ele>
        <time>2012-04-05T15:12:00Z</time>
      </trkpt>
      <trkpt lat="43.41478" lon="2.08965">
        <ele>506</ele>
        <time>2012-04-05T15:12:04Z</time>
      </trkpt>
      <trkpt lat="43.41479" lon="2.08967">
        <ele>506</ele>
        <time>2012-04-05T15:12:06Z</time>
      </trkpt>
      <trkpt lat="43.41478" lon="2.08967">
        <ele>506</ele>
        <time>2012-04-05T15:12:13Z</time>
      </trkpt>
      <trkpt lat="43.41479" lon="2.08966">
        <ele>506</ele>
        <time>2012-04-05T15:12:16Z</time>
      </trkpt>
      <trkpt lat="43.41478" lon="2.08966">
        <ele>506</ele>
        <time>2012-04-05T15:12:19Z</time>
      </trkpt>
      <trkpt lat="43.41479" lon="2.08966">
        <ele>506</ele>
        <time>2012-04-05T15:12:22Z</time>
      </trkpt>
      <trkpt lat="43.4148" lon="2.08966">
        <ele>506</ele>
        <time>2012-04-05T15:12:32Z</time>
      </trkpt>
      <trkpt lat="43.41479" lon="2.08965">
        <ele>506</ele>
        <time>2012-04-05T15:12:48Z</time>
      </trkpt>
      <trkpt lat="43.41481" lon="2.08965">
        <ele>506</ele>
        <time>2012-04-05T15:12:54Z</time>
      </trkpt>
      <trkpt lat="43.41483" lon="2.08965">
        <ele>506</ele>
        <time>2012-04-05T15:13:04Z</time>
      </trkpt>
      <trkpt lat="43.41483" lon="2.08966">
        <ele>506</ele>
        <time>2012-04-05T15:13:09Z</time>
      </trkpt>
      <trkpt lat="43.41482" lon="2.08968">
        <ele>506</ele>
        <time>2012-04-05T15:13:17Z</time>
      </trkpt>
      <trkpt lat="43.41483" lon="2.0897">
        <ele>506</ele>
        <time>2012-04-05T15:13:24Z</time>
      </trkpt>
      <trkpt lat="43.41481" lon="2.0897">
        <ele>504</ele>
        <time>2012-04-05T15:13:31Z</time>
      </trkpt>
      <trkpt lat="43.4148" lon="2.08969">
        <ele>504</ele>
        <time>2012-04-05T15:13:36Z</time>
      </trkpt>
      <trkpt lat="43.41478" lon="2.08968">
        <ele>503</ele>
        <time>2012-04-05T15:13:38Z</time>
      </trkpt>
      <trkpt lat="43.41477" lon="2.08968">
        <ele>503</ele>
        <time>2012-04-05T15:13:40Z</time>
      </trkpt>
      <trkpt lat="43.41476" lon="2.08967">
        <ele>503</ele>
        <time>2012-04-05T15:13:42Z</time>
      </trkpt>
      <trkpt lat="43.41475" lon="2.08965">
        <ele>501</ele>
        <time>2012-04-05T15:13:47Z</time>
      </trkpt>
      <trkpt lat="43.41476" lon="2.08965">
        <ele>499</ele>
        <time>2012-04-05T15:13:55Z</time>
      </trkpt>
      <trkpt lat="43.41477" lon="2.08965">
        <ele>499</ele>
        <time>2012-04-05T15:13:57Z</time>
      </trkpt>
      <trkpt lat="43.41479" lon="2.08964">
        <ele>499</ele>
        <time>2012-04-05T15:13:59Z</time>
      </trkpt>
      <trkpt lat="43.4148" lon="2.08965">
        <ele>499</ele>
        <time>2012-04-05T15:14:03Z</time>
      </trkpt>
      <trkpt lat="43.41481" lon="2.08965">
        <ele>499</ele>
        <time>2012-04-05T15:14:07Z</time>
      </trkpt>
      <trkpt lat="43.41483" lon="2.08964">
        <ele>501</ele>
        <time>2012-04-05T15:14:11Z</time>
      </trkpt>
      <trkpt lat="43.41486" lon="2.08964">
        <ele>512</ele>
        <time>2012-04-05T15:14:23Z</time>
      </trkpt>
      <trkpt lat="43.41485" lon="2.08964">
        <ele>512</ele>
        <time>2012-04-05T15:14:25Z</time>
      </trkpt>
      <trkpt lat="43.41482" lon="2.08964">
        <ele>512</ele>
        <time>2012-04-05T15:14:27Z</time>
      </trkpt>
      <trkpt lat="43.41481" lon="2.08963">
        <ele>508</ele>
        <time>2012-04-05T15:14:34Z</time>
      </trkpt>
      <trkpt lat="43.41483" lon="2.08962">
        <ele>508</ele>
        <time>2012-04-05T15:14:38Z</time>
      </trkpt>
      <trkpt lat="43.41484" lon="2.0896">
        <ele>508</ele>
        <time>2012-04-05T15:14:41Z</time>
      </trkpt>
      <trkpt lat="43.41485" lon="2.08958">
        <ele>508</ele>
        <time>2012-04-05T15:14:43Z</time>
      </trkpt>
      <trkpt lat="43.41487" lon="2.08954">
        <ele>506</ele>
        <time>2012-04-05T15:14:46Z</time>
      </trkpt>
      <trkpt lat="43.4149" lon="2.08952">
        <ele>504</ele>
        <time>2012-04-05T15:14:48Z</time>
      </trkpt>
      <trkpt lat="43.41493" lon="2.08954">
        <ele>503</ele>
        <time>2012-04-05T15:14:50Z</time>
      </trkpt>
      <trkpt lat="43.41495" lon="2.08958">
        <ele>501</ele>
        <time>2012-04-05T15:14:52Z</time>
      </trkpt>
      <trkpt lat="43.41497" lon="2.08963">
        <ele>501</ele>
        <time>2012-04-05T15:14:54Z</time>
      </trkpt>
      <trkpt lat="43.41499" lon="2.08969">
        <ele>501</ele>
        <time>2012-04-05T15:14:56Z</time>
      </trkpt>
      <trkpt lat="43.41502" lon="2.08973">
        <ele>500</ele>
        <time>2012-04-05T15:14:58Z</time>
      </trkpt>
      <trkpt lat="43.41505" lon="2.08969">
        <ele>499</ele>
        <time>2012-04-05T15:15:00Z</time>
      </trkpt>
      <trkpt lat="43.41509" lon="2.08962">
        <ele>498</ele>
        <time>2012-04-05T15:15:02Z</time>
      </trkpt>
      <trkpt lat="43.41513" lon="2.08953">
        <ele>497</ele>
        <time>2012-04-05T15:15:04Z</time>
      </trkpt>
      <trkpt lat="43.41517" lon="2.08947">
        <ele>495</ele>
        <time>2012-04-05T15:15:06Z</time>
      </trkpt>
      <trkpt lat="43.41522" lon="2.08944">
        <ele>495</ele>
        <time>2012-04-05T15:15:08Z</time>
      </trkpt>
      <trkpt lat="43.41531" lon="2.08947">
        <ele>494</ele>
        <time>2012-04-05T15:15:10Z</time>
      </trkpt>
      <trkpt lat="43.41541" lon="2.0895">
        <ele>494</ele>
        <time>2012-04-05T15:15:12Z</time>
      </trkpt>
      <trkpt lat="43.41545" lon="2.08951">
        <ele>494</ele>
        <time>2012-04-05T15:15:14Z</time>
      </trkpt>
      <trkpt lat="43.41547" lon="2.0895">
        <ele>495</ele>
        <time>2012-04-05T15:15:16Z</time>
      </trkpt>
      <trkpt lat="43.41551" lon="2.08953">
        <ele>500</ele>
        <time>2012-04-05T15:15:23Z</time>
      </trkpt>
      <trkpt lat="43.41552" lon="2.08955">
        <ele>500</ele>
        <time>2012-04-05T15:15:25Z</time>
      </trkpt>
      <trkpt lat="43.41553" lon="2.08957">
        <ele>500</ele>
        <time>2012-04-05T15:15:27Z</time>
      </trkpt>
      <trkpt lat="43.41553" lon="2.08959">
        <ele>500</ele>
        <time>2012-04-05T15:15:30Z</time>
      </trkpt>
      <trkpt lat="43.41555" lon="2.08959">
        <ele>500</ele>
        <time>2012-04-05T15:15:32Z</time>
      </trkpt>
      <trkpt lat="43.41558" lon="2.08958">
        <ele>500</ele>
        <time>2012-04-05T15:15:35Z</time>
      </trkpt>
      <trkpt lat="43.41557" lon="2.08957">
        <ele>500</ele>
        <time>2012-04-05T15:15:38Z</time>
      </trkpt>
      <trkpt lat="43.41557" lon="2.08956">
        <ele>497</ele>
        <time>2012-04-05T15:15:42Z</time>
      </trkpt>
      <trkpt lat="43.41557" lon="2.08954">
        <ele>496</ele>
        <time>2012-04-05T15:15:44Z</time>
      </trkpt>
      <trkpt lat="43.41558" lon="2.08951">
        <ele>495</ele>
        <time>2012-04-05T15:15:46Z</time>
      </trkpt>
      <trkpt lat="43.41559" lon="2.08948">
        <ele>494</ele>
        <time>2012-04-05T15:15:48Z</time>
      </trkpt>
      <trkpt lat="43.4156" lon="2.08945">
        <ele>492</ele>
        <time>2012-04-05T15:15:50Z</time>
      </trkpt>
      <trkpt lat="43.41564" lon="2.0894">
        <ele>490</ele>
        <time>2012-04-05T15:15:52Z</time>
      </trkpt>
      <trkpt lat="43.41568" lon="2.08936">
        <ele>488</ele>
        <time>2012-04-05T15:15:54Z</time>
      </trkpt>
      <trkpt lat="43.41572" lon="2.08932">
        <ele>486</ele>
        <time>2012-04-05T15:15:56Z</time>
      </trkpt>
      <trkpt lat="43.41575" lon="2.08929">
        <ele>484</ele>
        <time>2012-04-05T15:15:58Z</time>
      </trkpt>
      <trkpt lat="43.41579" lon="2.08929">
        <ele>482</ele>
        <time>2012-04-05T15:16:00Z</time>
      </trkpt>
      <trkpt lat="43.41582" lon="2.08928">
        <ele>482</ele>
        <time>2012-04-05T15:16:02Z</time>
      </trkpt>
      <trkpt lat="43.41585" lon="2.08928">
        <ele>482</ele>
        <time>2012-04-05T15:16:04Z</time>
      </trkpt>
      <trkpt lat="43.41589" lon="2.08928">
        <ele>482</ele>
        <time>2012-04-05T15:16:06Z</time>
      </trkpt>
      <trkpt lat="43.41592" lon="2.08928">
        <ele>482</ele>
        <time>2012-04-05T15:16:09Z</time>
      </trkpt>
      <trkpt lat="43.41593" lon="2.08927">
        <ele>482</ele>
        <time>2012-04-05T15:16:12Z</time>
      </trkpt>
      <trkpt lat="43.41594" lon="2.08926">
        <ele>486</ele>
        <time>2012-04-05T15:16:17Z</time>
      </trkpt>
      <trkpt lat="43.41596" lon="2.08926">
        <ele>488</ele>
        <time>2012-04-05T15:16:19Z</time>
      </trkpt>
      <trkpt lat="43.41597" lon="2.08925">
        <ele>488</ele>
        <time>2012-04-05T15:16:22Z</time>
      </trkpt>
      <trkpt lat="43.41599" lon="2.08924">
        <ele>488</ele>
        <time>2012-04-05T15:16:24Z</time>
      </trkpt>
      <trkpt lat="43.41601" lon="2.08925">
        <ele>488</ele>
        <time>2012-04-05T15:16:27Z</time>
      </trkpt>
      <trkpt lat="43.41602" lon="2.08925">
        <ele>488</ele>
        <time>2012-04-05T15:16:29Z</time>
      </trkpt>
      <trkpt lat="43.41604" lon="2.08923">
        <ele>488</ele>
        <time>2012-04-05T15:16:31Z</time>
      </trkpt>
      <trkpt lat="43.41606" lon="2.08921">
        <ele>488</ele>
        <time>2012-04-05T15:16:33Z</time>
      </trkpt>
      <trkpt lat="43.41608" lon="2.08918">
        <ele>490</ele>
        <time>2012-04-05T15:16:36Z</time>
      </trkpt>
      <trkpt lat="43.4161" lon="2.08918">
        <ele>491</ele>
        <time>2012-04-05T15:16:38Z</time>
      </trkpt>
      <trkpt lat="43.41611" lon="2.08915">
        <ele>492</ele>
        <time>2012-04-05T15:16:40Z</time>
      </trkpt>
      <trkpt lat="43.41613" lon="2.08914">
        <ele>494</ele>
        <time>2012-04-05T15:16:42Z</time>
      </trkpt>
      <trkpt lat="43.41615" lon="2.08914">
        <ele>496</ele>
        <time>2012-04-05T15:16:44Z</time>
      </trkpt>
      <trkpt lat="43.41617" lon="2.08913">
        <ele>497</ele>
        <time>2012-04-05T15:16:46Z</time>
      </trkpt>
      <trkpt lat="43.41619" lon="2.08913">
        <ele>499</ele>
        <time>2012-04-05T15:16:48Z</time>
      </trkpt>
      <trkpt lat="43.41621" lon="2.08913">
        <ele>500</ele>
        <time>2012-04-05T15:16:50Z</time>
      </trkpt>
      <trkpt lat="43.41623" lon="2.08912">
        <ele>500</ele>
        <time>2012-04-05T15:16:52Z</time>
      </trkpt>
      <trkpt lat="43.41626" lon="2.08911">
        <ele>500</ele>
        <time>2012-04-05T15:16:57Z</time>
      </trkpt>
      <trkpt lat="43.41627" lon="2.08911">
        <ele>500</ele>
        <time>2012-04-05T15:16:59Z</time>
      </trkpt>
      <trkpt lat="43.41628" lon="2.0891">
        <ele>500</ele>
        <time>2012-04-05T15:17:02Z</time>
      </trkpt>
      <trkpt lat="43.41629" lon="2.08909">
        <ele>499</ele>
        <time>2012-04-05T15:17:04Z</time>
      </trkpt>
      <trkpt lat="43.41631" lon="2.08908">
        <ele>499</ele>
        <time>2012-04-05T15:17:06Z</time>
      </trkpt>
      <trkpt lat="43.41633" lon="2.08907">
        <ele>499</ele>
        <time>2012-04-05T15:17:08Z</time>
      </trkpt>
      <trkpt lat="43.41635" lon="2.08905">
        <ele>499</ele>
        <time>2012-04-05T15:17:11Z</time>
      </trkpt>
      <trkpt lat="43.41638" lon="2.08904">
        <ele>499</ele>
        <time>2012-04-05T15:17:14Z</time>
      </trkpt>
      <trkpt lat="43.41639" lon="2.08906">
        <ele>499</ele>
        <time>2012-04-05T15:17:16Z</time>
      </trkpt>
      <trkpt lat="43.41639" lon="2.08908">
        <ele>499</ele>
        <time>2012-04-05T15:17:18Z</time>
      </trkpt>
      <trkpt lat="43.41639" lon="2.0891">
        <ele>499</ele>
        <time>2012-04-05T15:17:20Z</time>
      </trkpt>
      <trkpt lat="43.41638" lon="2.08912">
        <ele>499</ele>
        <time>2012-04-05T15:17:22Z</time>
      </trkpt>
      <trkpt lat="43.41637" lon="2.08914">
        <ele>499</ele>
        <time>2012-04-05T15:17:24Z</time>
      </trkpt>
      <trkpt lat="43.41636" lon="2.08917">
        <ele>499</ele>
        <time>2012-04-05T15:17:27Z</time>
      </trkpt>
      <trkpt lat="43.41636" lon="2.08919">
        <ele>499</ele>
        <time>2012-04-05T15:17:29Z</time>
      </trkpt>
      <trkpt lat="43.41636" lon="2.08921">
        <ele>499</ele>
        <time>2012-04-05T15:17:31Z</time>
      </trkpt>
      <trkpt lat="43.41634" lon="2.08925">
        <ele>499</ele>
        <time>2012-04-05T15:17:34Z</time>
      </trkpt>
      <trkpt lat="43.41634" lon="2.08929">
        <ele>499</ele>
        <time>2012-04-05T15:17:36Z</time>
      </trkpt>
      <trkpt lat="43.41634" lon="2.08932">
        <ele>499</ele>
        <time>2012-04-05T15:17:38Z</time>
      </trkpt>
      <trkpt lat="43.41635" lon="2.08936">
        <ele>499</ele>
        <time>2012-04-05T15:17:40Z</time>
      </trkpt>
      <trkpt lat="43.41635" lon="2.08938">
        <ele>499</ele>
        <time>2012-04-05T15:17:42Z</time>
      </trkpt>
      <trkpt lat="43.41634" lon="2.0894">
        <ele>499</ele>
        <time>2012-04-05T15:17:44Z</time>
      </trkpt>
      <trkpt lat="43.41634" lon="2.08943">
        <ele>499</ele>
        <time>2012-04-05T15:17:47Z</time>
      </trkpt>
      <trkpt lat="43.41632" lon="2.08945">
        <ele>499</ele>
        <time>2012-04-05T15:17:50Z</time>
      </trkpt>
      <trkpt lat="43.41631" lon="2.08947">
        <ele>499</ele>
        <time>2012-04-05T15:17:52Z</time>
      </trkpt>
      <trkpt lat="43.41631" lon="2.08949">
        <ele>499</ele>
        <time>2012-04-05T15:17:54Z</time>
      </trkpt>
      <trkpt lat="43.41631" lon="2.08952">
        <ele>499</ele>
        <time>2012-04-05T15:17:58Z</time>
      </trkpt>
      <trkpt lat="43.41631" lon="2.08954">
        <ele>499</ele>
        <time>2012-04-05T15:18:00Z</time>
      </trkpt>
      <trkpt lat="43.41631" lon="2.08958">
        <ele>499</ele>
        <time>2012-04-05T15:18:02Z</time>
      </trkpt>
      <trkpt lat="43.41629" lon="2.08959">
        <ele>499</ele>
        <time>2012-04-05T15:18:05Z</time>
      </trkpt>
      <trkpt lat="43.41629" lon="2.08961">
        <ele>498</ele>
        <time>2012-04-05T15:18:07Z</time>
      </trkpt>
      <trkpt lat="43.41628" lon="2.08963">
        <ele>498</ele>
        <time>2012-04-05T15:18:09Z</time>
      </trkpt>
      <trkpt lat="43.41627" lon="2.08965">
        <ele>498</ele>
        <time>2012-04-05T15:18:11Z</time>
      </trkpt>
      <trkpt lat="43.41625" lon="2.08967">
        <ele>498</ele>
        <time>2012-04-05T15:18:13Z</time>
      </trkpt>
      <trkpt lat="43.41624" lon="2.08968">
        <ele>498</ele>
        <time>2012-04-05T15:18:15Z</time>
      </trkpt>
      <trkpt lat="43.4162" lon="2.0897">
        <ele>498</ele>
        <time>2012-04-05T15:18:17Z</time>
      </trkpt>
      <trkpt lat="43.4162" lon="2.08973">
        <ele>499</ele>
        <time>2012-04-05T15:18:19Z</time>
      </trkpt>
      <trkpt lat="43.41618" lon="2.08975">
        <ele>501</ele>
        <time>2012-04-05T15:18:21Z</time>
      </trkpt>
      <trkpt lat="43.41616" lon="2.08977">
        <ele>503</ele>
        <time>2012-04-05T15:18:23Z</time>
      </trkpt>
      <trkpt lat="43.41615" lon="2.0898">
        <ele>505</ele>
        <time>2012-04-05T15:18:25Z</time>
      </trkpt>
      <trkpt lat="43.41615" lon="2.08982">
        <ele>505</ele>
        <time>2012-04-05T15:18:27Z</time>
      </trkpt>
      <trkpt lat="43.41614" lon="2.08984">
        <ele>505</ele>
        <time>2012-04-05T15:18:29Z</time>
      </trkpt>
      <trkpt lat="43.41614" lon="2.08986">
        <ele>505</ele>
        <time>2012-04-05T15:18:31Z</time>
      </trkpt>
      <trkpt lat="43.41613" lon="2.08987">
        <ele>505</ele>
        <time>2012-04-05T15:18:33Z</time>
      </trkpt>
      <trkpt lat="43.41611" lon="2.08988">
        <ele>505</ele>
        <time>2012-04-05T15:18:35Z</time>
      </trkpt>
      <trkpt lat="43.4161" lon="2.08988">
        <ele>507</ele>
        <time>2012-04-05T15:18:38Z</time>
      </trkpt>
      <trkpt lat="43.41608" lon="2.0899">
        <ele>509</ele>
        <time>2012-04-05T15:18:40Z</time>
      </trkpt>
      <trkpt lat="43.41608" lon="2.08994">
        <ele>511</ele>
        <time>2012-04-05T15:18:42Z</time>
      </trkpt>
      <trkpt lat="43.41608" lon="2.08995">
        <ele>512</ele>
        <time>2012-04-05T15:18:45Z</time>
      </trkpt>
      <trkpt lat="43.41607" lon="2.08998">
        <ele>513</ele>
        <time>2012-04-05T15:18:48Z</time>
      </trkpt>
      <trkpt lat="43.41606" lon="2.09001">
        <ele>513</ele>
        <time>2012-04-05T15:18:50Z</time>
      </trkpt>
      <trkpt lat="43.41605" lon="2.09003">
        <ele>513</ele>
        <time>2012-04-05T15:18:52Z</time>
      </trkpt>
      <trkpt lat="43.41604" lon="2.09006">
        <ele>513</ele>
        <time>2012-04-05T15:18:54Z</time>
      </trkpt>
      <trkpt lat="43.41603" lon="2.09009">
        <ele>513</ele>
        <time>2012-04-05T15:18:56Z</time>
      </trkpt>
      <trkpt lat="43.41602" lon="2.09013">
        <ele>513</ele>
        <time>2012-04-05T15:18:58Z</time>
      </trkpt>
      <trkpt lat="43.41603" lon="2.09017">
        <ele>513</ele>
        <time>2012-04-05T15:19:00Z</time>
      </trkpt>
      <trkpt lat="43.41604" lon="2.0902">
        <ele>513</ele>
        <time>2012-04-05T15:19:03Z</time>
      </trkpt>
      <trkpt lat="43.41603" lon="2.09022">
        <ele>513</ele>
        <time>2012-04-05T15:19:07Z</time>
      </trkpt>
      <trkpt lat="43.41601" lon="2.09025">
        <ele>513</ele>
        <time>2012-04-05T15:19:09Z</time>
      </trkpt>
      <trkpt lat="43.41601" lon="2.09029">
        <ele>513</ele>
        <time>2012-04-05T15:19:12Z</time>
      </trkpt>
      <trkpt lat="43.416" lon="2.09032">
        <ele>511</ele>
        <time>2012-04-05T15:19:15Z</time>
      </trkpt>
      <trkpt lat="43.416" lon="2.09034">
        <ele>510</ele>
        <time>2012-04-05T15:19:17Z</time>
      </trkpt>
      <trkpt lat="43.41599" lon="2.09037">
        <ele>510</ele>
        <time>2012-04-05T15:19:19Z</time>
      </trkpt>
      <trkpt lat="43.41598" lon="2.09038">
        <ele>509</ele>
        <time>2012-04-05T15:19:21Z</time>
      </trkpt>
      <trkpt lat="43.41597" lon="2.0904">
        <ele>509</ele>
        <time>2012-04-05T15:19:24Z</time>
      </trkpt>
      <trkpt lat="43.41597" lon="2.09044">
        <ele>509</ele>
        <time>2012-04-05T15:19:26Z</time>
      </trkpt>
      <trkpt lat="43.41596" lon="2.09046">
        <ele>509</ele>
        <time>2012-04-05T15:19:28Z</time>
      </trkpt>
      <trkpt lat="43.41595" lon="2.09048">
        <ele>509</ele>
        <time>2012-04-05T15:19:30Z</time>
      </trkpt>
      <trkpt lat="43.41594" lon="2.0905">
        <ele>509</ele>
        <time>2012-04-05T15:19:32Z</time>
      </trkpt>
      <trkpt lat="43.41593" lon="2.09054">
        <ele>509</ele>
        <time>2012-04-05T15:19:36Z</time>
      </trkpt>
      <trkpt lat="43.41592" lon="2.09057">
        <ele>511</ele>
        <time>2012-04-05T15:19:39Z</time>
      </trkpt>
      <trkpt lat="43.41589" lon="2.09059">
        <ele>513</ele>
        <time>2012-04-05T15:19:41Z</time>
      </trkpt>
      <trkpt lat="43.41586" lon="2.09061">
        <ele>515</ele>
        <time>2012-04-05T15:19:43Z</time>
      </trkpt>
      <trkpt lat="43.41584" lon="2.09062">
        <ele>517</ele>
        <time>2012-04-05T15:19:45Z</time>
      </trkpt>
      <trkpt lat="43.41583" lon="2.09066">
        <ele>519</ele>
        <time>2012-04-05T15:19:47Z</time>
      </trkpt>
      <trkpt lat="43.41583" lon="2.09069">
        <ele>520</ele>
        <time>2012-04-05T15:19:49Z</time>
      </trkpt>
      <trkpt lat="43.41582" lon="2.09073">
        <ele>520</ele>
        <time>2012-04-05T15:19:51Z</time>
      </trkpt>
      <trkpt lat="43.41582" lon="2.09077">
        <ele>517</ele>
        <time>2012-04-05T15:19:57Z</time>
      </trkpt>
      <trkpt lat="43.41583" lon="2.0908">
        <ele>517</ele>
        <time>2012-04-05T15:20:00Z</time>
      </trkpt>
      <trkpt lat="43.41583" lon="2.09082">
        <ele>517</ele>
        <time>2012-04-05T15:20:02Z</time>
      </trkpt>
      <trkpt lat="43.41582" lon="2.09084">
        <ele>517</ele>
        <time>2012-04-05T15:20:04Z</time>
      </trkpt>
      <trkpt lat="43.41581" lon="2.09086">
        <ele>517</ele>
        <time>2012-04-05T15:20:06Z</time>
      </trkpt>
      <trkpt lat="43.41581" lon="2.09088">
        <ele>517</ele>
        <time>2012-04-05T15:20:08Z</time>
      </trkpt>
      <trkpt lat="43.41581" lon="2.0909">
        <ele>517</ele>
        <time>2012-04-05T15:20:10Z</time>
      </trkpt>
      <trkpt lat="43.41583" lon="2.09092">
        <ele>518</ele>
        <time>2012-04-05T15:20:13Z</time>
      </trkpt>
      <trkpt lat="43.41585" lon="2.09091">
        <ele>520</ele>
        <time>2012-04-05T15:20:15Z</time>
      </trkpt>
      <trkpt lat="43.41587" lon="2.0909">
        <ele>522</ele>
        <time>2012-04-05T15:20:17Z</time>
      </trkpt>
      <trkpt lat="43.41587" lon="2.09089">
        <ele>529</ele>
        <time>2012-04-05T15:20:24Z</time>
      </trkpt>
      <trkpt lat="43.41586" lon="2.09086">
        <ele>535</ele>
        <time>2012-04-05T15:20:30Z</time>
      </trkpt>
      <trkpt lat="43.41587" lon="2.09086">
        <ele>537</ele>
        <time>2012-04-05T15:20:32Z</time>
      </trkpt>
      <trkpt lat="43.41588" lon="2.09085">
        <ele>539</ele>
        <time>2012-04-05T15:20:34Z</time>
      </trkpt>
      <trkpt lat="43.41589" lon="2.09082">
        <ele>539</ele>
        <time>2012-04-05T15:20:36Z</time>
      </trkpt>
      <trkpt lat="43.4159" lon="2.09082">
        <ele>539</ele>
        <time>2012-04-05T15:20:38Z</time>
      </trkpt>
      <trkpt lat="43.41592" lon="2.0908">
        <ele>539</ele>
        <time>2012-04-05T15:20:40Z</time>
      </trkpt>
      <trkpt lat="43.41594" lon="2.09079">
        <ele>539</ele>
        <time>2012-04-05T15:20:42Z</time>
      </trkpt>
      <trkpt lat="43.41595" lon="2.09076">
        <ele>539</ele>
        <time>2012-04-05T15:20:44Z</time>
      </trkpt>
      <trkpt lat="43.41596" lon="2.09073">
        <ele>539</ele>
        <time>2012-04-05T15:20:46Z</time>
      </trkpt>
      <trkpt lat="43.41597" lon="2.0907">
        <ele>539</ele>
        <time>2012-04-05T15:20:48Z</time>
      </trkpt>
      <trkpt lat="43.41599" lon="2.09067">
        <ele>539</ele>
        <time>2012-04-05T15:20:50Z</time>
      </trkpt>
      <trkpt lat="43.416" lon="2.09064">
        <ele>539</ele>
        <time>2012-04-05T15:20:52Z</time>
      </trkpt>
      <trkpt lat="43.41602" lon="2.09061">
        <ele>539</ele>
        <time>2012-04-05T15:20:54Z</time>
      </trkpt>
      <trkpt lat="43.41604" lon="2.09058">
        <ele>539</ele>
        <time>2012-04-05T15:20:56Z</time>
      </trkpt>
      <trkpt lat="43.41606" lon="2.09056">
        <ele>539</ele>
        <time>2012-04-05T15:20:58Z</time>
      </trkpt>
      <trkpt lat="43.4161" lon="2.09052">
        <ele>539</ele>
        <time>2012-04-05T15:21:01Z</time>
      </trkpt>
      <trkpt lat="43.41613" lon="2.0905">
        <ele>539</ele>
        <time>2012-04-05T15:21:03Z</time>
      </trkpt>
      <trkpt lat="43.41616" lon="2.09048">
        <ele>540</ele>
        <time>2012-04-05T15:21:05Z</time>
      </trkpt>
      <trkpt lat="43.41619" lon="2.09047">
        <ele>540</ele>
        <time>2012-04-05T15:21:07Z</time>
      </trkpt>
      <trkpt lat="43.41621" lon="2.09045">
        <ele>541</ele>
        <time>2012-04-05T15:21:09Z</time>
      </trkpt>
      <trkpt lat="43.41624" lon="2.09043">
        <ele>543</ele>
        <time>2012-04-05T15:21:12Z</time>
      </trkpt>
      <trkpt lat="43.41627" lon="2.0904">
        <ele>545</ele>
        <time>2012-04-05T15:21:15Z</time>
      </trkpt>
      <trkpt lat="43.4163" lon="2.0904">
        <ele>546</ele>
        <time>2012-04-05T15:21:17Z</time>
      </trkpt>
      <trkpt lat="43.41633" lon="2.0904">
        <ele>547</ele>
        <time>2012-04-05T15:21:19Z</time>
      </trkpt>
      <trkpt lat="43.41637" lon="2.09039">
        <ele>548</ele>
        <time>2012-04-05T15:21:21Z</time>
      </trkpt>
      <trkpt lat="43.41639" lon="2.09038">
        <ele>549</ele>
        <time>2012-04-05T15:21:23Z</time>
      </trkpt>
      <trkpt lat="43.41642" lon="2.09038">
        <ele>549</ele>
        <time>2012-04-05T15:21:25Z</time>
      </trkpt>
      <trkpt lat="43.41642" lon="2.09036">
        <ele>549</ele>
        <time>2012-04-05T15:21:27Z</time>
      </trkpt>
      <trkpt lat="43.41641" lon="2.09035">
        <ele>550</ele>
        <time>2012-04-05T15:21:30Z</time>
      </trkpt>
      <trkpt lat="43.41642" lon="2.09035">
        <ele>550</ele>
        <time>2012-04-05T15:21:32Z</time>
      </trkpt>
      <trkpt lat="43.41643" lon="2.09036">
        <ele>550</ele>
        <time>2012-04-05T15:21:34Z</time>
      </trkpt>
      <trkpt lat="43.41644" lon="2.09036">
        <ele>550</ele>
        <time>2012-04-05T15:21:38Z</time>
      </trkpt>
      <trkpt lat="43.41647" lon="2.09034">
        <ele>551</ele>
        <time>2012-04-05T15:21:48Z</time>
      </trkpt>
      <trkpt lat="43.41653" lon="2.0903">
        <ele>551</ele>
        <time>2012-04-05T15:21:50Z</time>
      </trkpt>
      <trkpt lat="43.41657" lon="2.09026">
        <ele>551</ele>
        <time>2012-04-05T15:21:52Z</time>
      </trkpt>
      <trkpt lat="43.41661" lon="2.09021">
        <ele>551</ele>
        <time>2012-04-05T15:21:54Z</time>
      </trkpt>
      <trkpt lat="43.41666" lon="2.09015">
        <ele>551</ele>
        <time>2012-04-05T15:21:56Z</time>
      </trkpt>
      <trkpt lat="43.41671" lon="2.09009">
        <ele>551</ele>
        <time>2012-04-05T15:21:58Z</time>
      </trkpt>
      <trkpt lat="43.41677" lon="2.09001">
        <ele>551</ele>
        <time>2012-04-05T15:22:00Z</time>
      </trkpt>
      <trkpt lat="43.41681" lon="2.08991">
        <ele>549</ele>
        <time>2012-04-05T15:22:02Z</time>
      </trkpt>
      <trkpt lat="43.41684" lon="2.08979">
        <ele>547</ele>
        <time>2012-04-05T15:22:04Z</time>
      </trkpt>
      <trkpt lat="43.41693" lon="2.08967">
        <ele>546</ele>
        <time>2012-04-05T15:22:06Z</time>
      </trkpt>
      <trkpt lat="43.41698" lon="2.08956">
        <ele>545</ele>
        <time>2012-04-05T15:22:08Z</time>
      </trkpt>
      <trkpt lat="43.41703" lon="2.08945">
        <ele>543</ele>
        <time>2012-04-05T15:22:10Z</time>
      </trkpt>
      <trkpt lat="43.41706" lon="2.08935">
        <ele>541</ele>
        <time>2012-04-05T15:22:12Z</time>
      </trkpt>
      <trkpt lat="43.41709" lon="2.08932">
        <ele>540</ele>
        <time>2012-04-05T15:22:16Z</time>
      </trkpt>
      <trkpt lat="43.4171" lon="2.08931">
        <ele>540</ele>
        <time>2012-04-05T15:22:18Z</time>
      </trkpt>
      <trkpt lat="43.4171" lon="2.08928">
        <ele>540</ele>
        <time>2012-04-05T15:22:20Z</time>
      </trkpt>
      <trkpt lat="43.41711" lon="2.0893">
        <ele>540</ele>
        <time>2012-04-05T15:22:24Z</time>
      </trkpt>
      <trkpt lat="43.41709" lon="2.0893">
        <ele>540</ele>
        <time>2012-04-05T15:22:26Z</time>
      </trkpt>
      <trkpt lat="43.41709" lon="2.08932">
        <ele>536</ele>
        <time>2012-04-05T15:22:33Z</time>
      </trkpt>
      <trkpt lat="43.4171" lon="2.08932">
        <ele>535</ele>
        <time>2012-04-05T15:22:36Z</time>
      </trkpt>
      <trkpt lat="43.41713" lon="2.0893">
        <ele>535</ele>
        <time>2012-04-05T15:22:38Z</time>
      </trkpt>
      <trkpt lat="43.41715" lon="2.08928">
        <ele>535</ele>
        <time>2012-04-05T15:22:40Z</time>
      </trkpt>
      <trkpt lat="43.41719" lon="2.08926">
        <ele>535</ele>
        <time>2012-04-05T15:22:42Z</time>
      </trkpt>
      <trkpt lat="43.41723" lon="2.08924">
        <ele>535</ele>
        <time>2012-04-05T15:22:44Z</time>
      </trkpt>
      <trkpt lat="43.41727" lon="2.08921">
        <ele>534</ele>
        <time>2012-04-05T15:22:46Z</time>
      </trkpt>
      <trkpt lat="43.41732" lon="2.08917">
        <ele>533</ele>
        <time>2012-04-05T15:22:48Z</time>
      </trkpt>
      <trkpt lat="43.41738" lon="2.08913">
        <ele>532</ele>
        <time>2012-04-05T15:22:50Z</time>
      </trkpt>
      <trkpt lat="43.41744" lon="2.08909">
        <ele>531</ele>
        <time>2012-04-05T15:22:52Z</time>
      </trkpt>
      <trkpt lat="43.4175" lon="2.08904">
        <ele>531</ele>
        <time>2012-04-05T15:22:54Z</time>
      </trkpt>
      <trkpt lat="43.41755" lon="2.08899">
        <ele>531</ele>
        <time>2012-04-05T15:22:56Z</time>
      </trkpt>
      <trkpt lat="43.41761" lon="2.08895">
        <ele>531</ele>
        <time>2012-04-05T15:22:58Z</time>
      </trkpt>
      <trkpt lat="43.41768" lon="2.08895">
        <ele>531</ele>
        <time>2012-04-05T15:23:00Z</time>
      </trkpt>
      <trkpt lat="43.41774" lon="2.08897">
        <ele>530</ele>
        <time>2012-04-05T15:23:02Z</time>
      </trkpt>
      <trkpt lat="43.41779" lon="2.08897">
        <ele>529</ele>
        <time>2012-04-05T15:23:04Z</time>
      </trkpt>
      <trkpt lat="43.41783" lon="2.08896">
        <ele>528</ele>
        <time>2012-04-05T15:23:06Z</time>
      </trkpt>
      <trkpt lat="43.41786" lon="2.08897">
        <ele>528</ele>
        <time>2012-04-05T15:23:09Z</time>
      </trkpt>
      <trkpt lat="43.41788" lon="2.08899">
        <ele>527</ele>
        <time>2012-04-05T15:23:11Z</time>
      </trkpt>
      <trkpt lat="43.41791" lon="2.089">
        <ele>526</ele>
        <time>2012-04-05T15:23:13Z</time>
      </trkpt>
      <trkpt lat="43.41795" lon="2.08901">
        <ele>525</ele>
        <time>2012-04-05T15:23:15Z</time>
      </trkpt>
      <trkpt lat="43.41803" lon="2.08899">
        <ele>525</ele>
        <time>2012-04-05T15:23:17Z</time>
      </trkpt>
      <trkpt lat="43.41807" lon="2.08898">
        <ele>525</ele>
        <time>2012-04-05T15:23:19Z</time>
      </trkpt>
      <trkpt lat="43.41813" lon="2.08896">
        <ele>525</ele>
        <time>2012-04-05T15:23:21Z</time>
      </trkpt>
      <trkpt lat="43.4182" lon="2.08892">
        <ele>525</ele>
        <time>2012-04-05T15:23:23Z</time>
      </trkpt>
      <trkpt lat="43.41827" lon="2.08891">
        <ele>525</ele>
        <time>2012-04-05T15:23:25Z</time>
      </trkpt>
      <trkpt lat="43.41834" lon="2.08888">
        <ele>525</ele>
        <time>2012-04-05T15:23:27Z</time>
      </trkpt>
      <trkpt lat="43.41844" lon="2.08889">
        <ele>525</ele>
        <time>2012-04-05T15:23:29Z</time>
      </trkpt>
      <trkpt lat="43.41853" lon="2.08886">
        <ele>525</ele>
        <time>2012-04-05T15:23:31Z</time>
      </trkpt>
      <trkpt lat="43.41864" lon="2.08882">
        <ele>525</ele>
        <time>2012-04-05T15:23:33Z</time>
      </trkpt>
      <trkpt lat="43.41871" lon="2.08881">
        <ele>525</ele>
        <time>2012-04-05T15:23:35Z</time>
      </trkpt>
      <trkpt lat="43.41878" lon="2.0888">
        <ele>525</ele>
        <time>2012-04-05T15:23:37Z</time>
      </trkpt>
      <trkpt lat="43.41884" lon="2.08879">
        <ele>525</ele>
        <time>2012-04-05T15:23:39Z</time>
      </trkpt>
      <trkpt lat="43.41888" lon="2.08877">
        <ele>525</ele>
        <time>2012-04-05T15:23:41Z</time>
      </trkpt>
      <trkpt lat="43.41893" lon="2.08877">
        <ele>525</ele>
        <time>2012-04-05T15:23:43Z</time>
      </trkpt>
      <trkpt lat="43.41902" lon="2.08878">
        <ele>524</ele>
        <time>2012-04-05T15:23:45Z</time>
      </trkpt>
      <trkpt lat="43.41912" lon="2.0888">
        <ele>522</ele>
        <time>2012-04-05T15:23:47Z</time>
      </trkpt>
      <trkpt lat="43.41919" lon="2.08881">
        <ele>522</ele>
        <time>2012-04-05T15:23:49Z</time>
      </trkpt>
      <trkpt lat="43.41927" lon="2.08878">
        <ele>522</ele>
        <time>2012-04-05T15:23:51Z</time>
      </trkpt>
      <trkpt lat="43.41935" lon="2.08874">
        <ele>522</ele>
        <time>2012-04-05T15:23:53Z</time>
      </trkpt>
      <trkpt lat="43.41943" lon="2.08872">
        <ele>522</ele>
        <time>2012-04-05T15:23:55Z</time>
      </trkpt>
      <trkpt lat="43.41951" lon="2.08871">
        <ele>522</ele>
        <time>2012-04-05T15:23:57Z</time>
      </trkpt>
      <trkpt lat="43.41957" lon="2.08871">
        <ele>522</ele>
        <time>2012-04-05T15:23:59Z</time>
      </trkpt>
      <trkpt lat="43.41962" lon="2.08872">
        <ele>522</ele>
        <time>2012-04-05T15:24:01Z</time>
      </trkpt>
      <trkpt lat="43.41965" lon="2.08874">
        <ele>522</ele>
        <time>2012-04-05T15:24:03Z</time>
      </trkpt>
      <trkpt lat="43.41968" lon="2.08875">
        <ele>522</ele>
        <time>2012-04-05T15:24:05Z</time>
      </trkpt>
      <trkpt lat="43.41971" lon="2.08876">
        <ele>522</ele>
        <time>2012-04-05T15:24:07Z</time>
      </trkpt>
      <trkpt lat="43.41975" lon="2.08878">
        <ele>522</ele>
        <time>2012-04-05T15:24:10Z</time>
      </trkpt>
      <trkpt lat="43.41977" lon="2.08877">
        <ele>522</ele>
        <time>2012-04-05T15:24:12Z</time>
      </trkpt>
      <trkpt lat="43.4198" lon="2.08877">
        <ele>522</ele>
        <time>2012-04-05T15:24:14Z</time>
      </trkpt>
      <trkpt lat="43.41982" lon="2.08876">
        <ele>523</ele>
        <time>2012-04-05T15:24:16Z</time>
      </trkpt>
      <trkpt lat="43.41985" lon="2.08876">
        <ele>523</ele>
        <time>2012-04-05T15:24:18Z</time>
      </trkpt>
      <trkpt lat="43.41988" lon="2.08876">
        <ele>523</ele>
        <time>2012-04-05T15:24:20Z</time>
      </trkpt>
      <trkpt lat="43.4199" lon="2.08873">
        <ele>523</ele>
        <time>2012-04-05T15:24:22Z</time>
      </trkpt>
      <trkpt lat="43.41995" lon="2.08871">
        <ele>523</ele>
        <time>2012-04-05T15:24:24Z</time>
      </trkpt>
      <trkpt lat="43.42001" lon="2.08869">
        <ele>523</ele>
        <time>2012-04-05T15:24:26Z</time>
      </trkpt>
      <trkpt lat="43.42004" lon="2.08868">
        <ele>523</ele>
        <time>2012-04-05T15:24:28Z</time>
      </trkpt>
      <trkpt lat="43.42007" lon="2.08865">
        <ele>523</ele>
        <time>2012-04-05T15:24:30Z</time>
      </trkpt>
      <trkpt lat="43.4201" lon="2.08865">
        <ele>524</ele>
        <time>2012-04-05T15:24:32Z</time>
      </trkpt>
      <trkpt lat="43.42012" lon="2.08864">
        <ele>525</ele>
        <time>2012-04-05T15:24:34Z</time>
      </trkpt>
      <trkpt lat="43.42017" lon="2.08862">
        <ele>525</ele>
        <time>2012-04-05T15:24:36Z</time>
      </trkpt>
      <trkpt lat="43.42022" lon="2.08859">
        <ele>526</ele>
        <time>2012-04-05T15:24:38Z</time>
      </trkpt>
      <trkpt lat="43.42029" lon="2.08855">
        <ele>527</ele>
        <time>2012-04-05T15:24:40Z</time>
      </trkpt>
      <trkpt lat="43.42033" lon="2.08854">
        <ele>528</ele>
        <time>2012-04-05T15:24:42Z</time>
      </trkpt>
      <trkpt lat="43.42036" lon="2.08853">
        <ele>528</ele>
        <time>2012-04-05T15:24:44Z</time>
      </trkpt>
      <trkpt lat="43.4204" lon="2.08853">
        <ele>528</ele>
        <time>2012-04-05T15:24:46Z</time>
      </trkpt>
      <trkpt lat="43.42043" lon="2.08853">
        <ele>528</ele>
        <time>2012-04-05T15:24:48Z</time>
      </trkpt>
      <trkpt lat="43.42047" lon="2.08852">
        <ele>528</ele>
        <time>2012-04-05T15:24:50Z</time>
      </trkpt>
      <trkpt lat="43.42051" lon="2.08852">
        <ele>528</ele>
        <time>2012-04-05T15:24:52Z</time>
      </trkpt>
      <trkpt lat="43.42054" lon="2.0885">
        <ele>528</ele>
        <time>2012-04-05T15:24:54Z</time>
      </trkpt>
      <trkpt lat="43.42057" lon="2.0885">
        <ele>528</ele>
        <time>2012-04-05T15:24:56Z</time>
      </trkpt>
      <trkpt lat="43.42059" lon="2.08849">
        <ele>528</ele>
        <time>2012-04-05T15:24:58Z</time>
      </trkpt>
      <trkpt lat="43.42062" lon="2.08848">
        <ele>528</ele>
        <time>2012-04-05T15:25:00Z</time>
      </trkpt>
      <trkpt lat="43.42065" lon="2.08847">
        <ele>528</ele>
        <time>2012-04-05T15:25:02Z</time>
      </trkpt>
      <trkpt lat="43.42068" lon="2.08845">
        <ele>528</ele>
        <time>2012-04-05T15:25:04Z</time>
      </trkpt>
      <trkpt lat="43.42071" lon="2.08844">
        <ele>528</ele>
        <time>2012-04-05T15:25:06Z</time>
      </trkpt>
      <trkpt lat="43.42074" lon="2.08841">
        <ele>528</ele>
        <time>2012-04-05T15:25:09Z</time>
      </trkpt>
      <trkpt lat="43.42077" lon="2.08839">
        <ele>528</ele>
        <time>2012-04-05T15:25:11Z</time>
      </trkpt>
      <trkpt lat="43.4208" lon="2.08836">
        <ele>528</ele>
        <time>2012-04-05T15:25:13Z</time>
      </trkpt>
      <trkpt lat="43.42083" lon="2.08833">
        <ele>528</ele>
        <time>2012-04-05T15:25:16Z</time>
      </trkpt>
      <trkpt lat="43.42085" lon="2.0883">
        <ele>528</ele>
        <time>2012-04-05T15:25:18Z</time>
      </trkpt>
      <trkpt lat="43.42088" lon="2.08827">
        <ele>528</ele>
        <time>2012-04-05T15:25:20Z</time>
      </trkpt>
      <trkpt lat="43.4209" lon="2.08825">
        <ele>528</ele>
        <time>2012-04-05T15:25:22Z</time>
      </trkpt>
      <trkpt lat="43.42092" lon="2.08821">
        <ele>529</ele>
        <time>2012-04-05T15:25:24Z</time>
      </trkpt>
      <trkpt lat="43.42095" lon="2.08819">
        <ele>530</ele>
        <time>2012-04-05T15:25:26Z</time>
      </trkpt>
      <trkpt lat="43.42098" lon="2.08815">
        <ele>530</ele>
        <time>2012-04-05T15:25:29Z</time>
      </trkpt>
      <trkpt lat="43.421" lon="2.08812">
        <ele>531</ele>
        <time>2012-04-05T15:25:31Z</time>
      </trkpt>
      <trkpt lat="43.42101" lon="2.08809">
        <ele>532</ele>
        <time>2012-04-05T15:25:33Z</time>
      </trkpt>
      <trkpt lat="43.42104" lon="2.08806">
        <ele>532</ele>
        <time>2012-04-05T15:25:35Z</time>
      </trkpt>
      <trkpt lat="43.42105" lon="2.08803">
        <ele>533</ele>
        <time>2012-04-05T15:25:37Z</time>
      </trkpt>
      <trkpt lat="43.42107" lon="2.08799">
        <ele>535</ele>
        <time>2012-04-05T15:25:39Z</time>
      </trkpt>
      <trkpt lat="43.42108" lon="2.08795">
        <ele>536</ele>
        <time>2012-04-05T15:25:41Z</time>
      </trkpt>
      <trkpt lat="43.4211" lon="2.08792">
        <ele>537</ele>
        <time>2012-04-05T15:25:43Z</time>
      </trkpt>
      <trkpt lat="43.42112" lon="2.08788">
        <ele>537</ele>
        <time>2012-04-05T15:25:45Z</time>
      </trkpt>
      <trkpt lat="43.42114" lon="2.08785">
        <ele>537</ele>
        <time>2012-04-05T15:25:47Z</time>
      </trkpt>
      <trkpt lat="43.42115" lon="2.0878">
        <ele>537</ele>
        <time>2012-04-05T15:25:49Z</time>
      </trkpt>
      <trkpt lat="43.42117" lon="2.08775">
        <ele>538</ele>
        <time>2012-04-05T15:25:52Z</time>
      </trkpt>
      <trkpt lat="43.42117" lon="2.08769">
        <ele>539</ele>
        <time>2012-04-05T15:25:54Z</time>
      </trkpt>
      <trkpt lat="43.42118" lon="2.08765">
        <ele>541</ele>
        <time>2012-04-05T15:25:56Z</time>
      </trkpt>
      <trkpt lat="43.42119" lon="2.08761">
        <ele>542</ele>
        <time>2012-04-05T15:25:58Z</time>
      </trkpt>
      <trkpt lat="43.42119" lon="2.08759">
        <ele>543</ele>
        <time>2012-04-05T15:26:00Z</time>
      </trkpt>
      <trkpt lat="43.42119" lon="2.08757">
        <ele>543</ele>
        <time>2012-04-05T15:26:04Z</time>
      </trkpt>
      <trkpt lat="43.4212" lon="2.08755">
        <ele>545</ele>
        <time>2012-04-05T15:26:09Z</time>
      </trkpt>
      <trkpt lat="43.42121" lon="2.08753">
        <ele>545</ele>
        <time>2012-04-05T15:26:11Z</time>
      </trkpt>
      <trkpt lat="43.42122" lon="2.0875">
        <ele>545</ele>
        <time>2012-04-05T15:26:13Z</time>
      </trkpt>
      <trkpt lat="43.42123" lon="2.08748">
        <ele>545</ele>
        <time>2012-04-05T15:26:15Z</time>
      </trkpt>
      <trkpt lat="43.42124" lon="2.08747">
        <ele>545</ele>
        <time>2012-04-05T15:26:17Z</time>
      </trkpt>
      <trkpt lat="43.42126" lon="2.08746">
        <ele>545</ele>
        <time>2012-04-05T15:26:19Z</time>
      </trkpt>
      <trkpt lat="43.42127" lon="2.08744">
        <ele>545</ele>
        <time>2012-04-05T15:26:22Z</time>
      </trkpt>
      <trkpt lat="43.42129" lon="2.08743">
        <ele>545</ele>
        <time>2012-04-05T15:26:24Z</time>
      </trkpt>
      <trkpt lat="43.4213" lon="2.08741">
        <ele>545</ele>
        <time>2012-04-05T15:26:26Z</time>
      </trkpt>
      <trkpt lat="43.42132" lon="2.08741">
        <ele>545</ele>
        <time>2012-04-05T15:26:28Z</time>
      </trkpt>
      <trkpt lat="43.42135" lon="2.08741">
        <ele>545</ele>
        <time>2012-04-05T15:26:31Z</time>
      </trkpt>
      <trkpt lat="43.42136" lon="2.0874">
        <ele>545</ele>
        <time>2012-04-05T15:26:33Z</time>
      </trkpt>
      <trkpt lat="43.42138" lon="2.0874">
        <ele>545</ele>
        <time>2012-04-05T15:26:35Z</time>
      </trkpt>
      <trkpt lat="43.42139" lon="2.08738">
        <ele>545</ele>
        <time>2012-04-05T15:26:37Z</time>
      </trkpt>
      <trkpt lat="43.4214" lon="2.08737">
        <ele>546</ele>
        <time>2012-04-05T15:26:39Z</time>
      </trkpt>
      <trkpt lat="43.42142" lon="2.08737">
        <ele>546</ele>
        <time>2012-04-05T15:26:41Z</time>
      </trkpt>
      <trkpt lat="43.42144" lon="2.08736">
        <ele>546</ele>
        <time>2012-04-05T15:26:43Z</time>
      </trkpt>
      <trkpt lat="43.42145" lon="2.08736">
        <ele>546</ele>
        <time>2012-04-05T15:26:46Z</time>
      </trkpt>
      <trkpt lat="43.42146" lon="2.08736">
        <ele>546</ele>
        <time>2012-04-05T15:26:48Z</time>
      </trkpt>
      <trkpt lat="43.42148" lon="2.08735">
        <ele>546</ele>
        <time>2012-04-05T15:26:50Z</time>
      </trkpt>
      <trkpt lat="43.42147" lon="2.08736">
        <ele>546</ele>
        <time>2012-04-05T15:26:54Z</time>
      </trkpt>
      <trkpt lat="43.42149" lon="2.08734">
        <ele>544</ele>
        <time>2012-04-05T15:27:02Z</time>
      </trkpt>
      <trkpt lat="43.42152" lon="2.08734">
        <ele>544</ele>
        <time>2012-04-05T15:27:05Z</time>
      </trkpt>
      <trkpt lat="43.42153" lon="2.08734">
        <ele>544</ele>
        <time>2012-04-05T15:27:11Z</time>
      </trkpt>
      <trkpt lat="43.42155" lon="2.08733">
        <ele>544</ele>
        <time>2012-04-05T15:27:20Z</time>
      </trkpt>
      <trkpt lat="43.42157" lon="2.08733">
        <ele>544</ele>
        <time>2012-04-05T15:27:22Z</time>
      </trkpt>
      <trkpt lat="43.42158" lon="2.08735">
        <ele>544</ele>
        <time>2012-04-05T15:27:24Z</time>
      </trkpt>
      <trkpt lat="43.4216" lon="2.08737">
        <ele>544</ele>
        <time>2012-04-05T15:27:26Z</time>
      </trkpt>
      <trkpt lat="43.42161" lon="2.08738">
        <ele>544</ele>
        <time>2012-04-05T15:27:28Z</time>
      </trkpt>
      <trkpt lat="43.42163" lon="2.08739">
        <ele>544</ele>
        <time>2012-04-05T15:27:30Z</time>
      </trkpt>
      <trkpt lat="43.42165" lon="2.0874">
        <ele>544</ele>
        <time>2012-04-05T15:27:32Z</time>
      </trkpt>
      <trkpt lat="43.42165" lon="2.08742">
        <ele>544</ele>
        <time>2012-04-05T15:27:34Z</time>
      </trkpt>
      <trkpt lat="43.42166" lon="2.08744">
        <ele>544</ele>
        <time>2012-04-05T15:27:36Z</time>
      </trkpt>
      <trkpt lat="43.42166" lon="2.08746">
        <ele>544</ele>
        <time>2012-04-05T15:27:38Z</time>
      </trkpt>
      <trkpt lat="43.42167" lon="2.08747">
        <ele>544</ele>
        <time>2012-04-05T15:27:41Z</time>
      </trkpt>
      <trkpt lat="43.42167" lon="2.08749">
        <ele>544</ele>
        <time>2012-04-05T15:27:45Z</time>
      </trkpt>
      <trkpt lat="43.42165" lon="2.0875">
        <ele>544</ele>
        <time>2012-04-05T15:27:48Z</time>
      </trkpt>
      <trkpt lat="43.42167" lon="2.0875">
        <ele>544</ele>
        <time>2012-04-05T15:27:51Z</time>
      </trkpt>
      <trkpt lat="43.42168" lon="2.0875">
        <ele>544</ele>
        <time>2012-04-05T15:27:55Z</time>
      </trkpt>
      <trkpt lat="43.42168" lon="2.08752">
        <ele>544</ele>
        <time>2012-04-05T15:27:57Z</time>
      </trkpt>
      <trkpt lat="43.42169" lon="2.08752">
        <ele>546</ele>
        <time>2012-04-05T15:28:07Z</time>
      </trkpt>
      <trkpt lat="43.4217" lon="2.08751">
        <ele>546</ele>
        <time>2012-04-05T15:28:13Z</time>
      </trkpt>
      <trkpt lat="43.42171" lon="2.0875">
        <ele>546</ele>
        <time>2012-04-05T15:28:22Z</time>
      </trkpt>
      <trkpt lat="43.42172" lon="2.08752">
        <ele>547</ele>
        <time>2012-04-05T15:28:25Z</time>
      </trkpt>
      <trkpt lat="43.42173" lon="2.08753">
        <ele>547</ele>
        <time>2012-04-05T15:28:27Z</time>
      </trkpt>
      <trkpt lat="43.42172" lon="2.08755">
        <ele>547</ele>
        <time>2012-04-05T15:28:33Z</time>
      </trkpt>
      <trkpt lat="43.42171" lon="2.08756">
        <ele>547</ele>
        <time>2012-04-05T15:28:43Z</time>
      </trkpt>
      <trkpt lat="43.42172" lon="2.08758">
        <ele>551</ele>
        <time>2012-04-05T15:28:51Z</time>
      </trkpt>
      <trkpt lat="43.42171" lon="2.0876">
        <ele>553</ele>
        <time>2012-04-05T15:28:58Z</time>
      </trkpt>
      <trkpt lat="43.4217" lon="2.0876">
        <ele>553</ele>
        <time>2012-04-05T15:29:00Z</time>
      </trkpt>
      <trkpt lat="43.42169" lon="2.08763">
        <ele>553</ele>
        <time>2012-04-05T15:29:03Z</time>
      </trkpt>
      <trkpt lat="43.42169" lon="2.08765">
        <ele>553</ele>
        <time>2012-04-05T15:29:06Z</time>
      </trkpt>
      <trkpt lat="43.42169" lon="2.08766">
        <ele>553</ele>
        <time>2012-04-05T15:29:09Z</time>
      </trkpt>
      <trkpt lat="43.42169" lon="2.08768">
        <ele>553</ele>
        <time>2012-04-05T15:29:11Z</time>
      </trkpt>
      <trkpt lat="43.4217" lon="2.0877">
        <ele>553</ele>
        <time>2012-04-05T15:29:14Z</time>
      </trkpt>
      <trkpt lat="43.4217" lon="2.08772">
        <ele>553</ele>
        <time>2012-04-05T15:29:16Z</time>
      </trkpt>
      <trkpt lat="43.42173" lon="2.08776">
        <ele>553</ele>
        <time>2012-04-05T15:29:18Z</time>
      </trkpt>
      <trkpt lat="43.42175" lon="2.08781">
        <ele>553</ele>
        <time>2012-04-05T15:29:21Z</time>
      </trkpt>
      <trkpt lat="43.42176" lon="2.08784">
        <ele>553</ele>
        <time>2012-04-05T15:29:23Z</time>
      </trkpt>
      <trkpt lat="43.42178" lon="2.08787">
        <ele>553</ele>
        <time>2012-04-05T15:29:25Z</time>
      </trkpt>
      <trkpt lat="43.42179" lon="2.0879">
        <ele>553</ele>
        <time>2012-04-05T15:29:27Z</time>
      </trkpt>
      <trkpt lat="43.42181" lon="2.08794">
        <ele>554</ele>
        <time>2012-04-05T15:29:29Z</time>
      </trkpt>
      <trkpt lat="43.42182" lon="2.08797">
        <ele>554</ele>
        <time>2012-04-05T15:29:31Z</time>
      </trkpt>
      <trkpt lat="43.42184" lon="2.08801">
        <ele>555</ele>
        <time>2012-04-05T15:29:33Z</time>
      </trkpt>
      <trkpt lat="43.42186" lon="2.08804">
        <ele>555</ele>
        <time>2012-04-05T15:29:35Z</time>
      </trkpt>
      <trkpt lat="43.42187" lon="2.08808">
        <ele>555</ele>
        <time>2012-04-05T15:29:37Z</time>
      </trkpt>
      <trkpt lat="43.42189" lon="2.08811">
        <ele>555</ele>
        <time>2012-04-05T15:29:39Z</time>
      </trkpt>
      <trkpt lat="43.4219" lon="2.08815">
        <ele>556</ele>
        <time>2012-04-05T15:29:41Z</time>
      </trkpt>
      <trkpt lat="43.42191" lon="2.08818">
        <ele>557</ele>
        <time>2012-04-05T15:29:43Z</time>
      </trkpt>
      <trkpt lat="43.42191" lon="2.08823">
        <ele>558</ele>
        <time>2012-04-05T15:29:45Z</time>
      </trkpt>
      <trkpt lat="43.42189" lon="2.08826">
        <ele>560</ele>
        <time>2012-04-05T15:29:47Z</time>
      </trkpt>
      <trkpt lat="43.42187" lon="2.0883">
        <ele>561</ele>
        <time>2012-04-05T15:29:49Z</time>
      </trkpt>
      <trkpt lat="43.42185" lon="2.08834">
        <ele>561</ele>
        <time>2012-04-05T15:29:51Z</time>
      </trkpt>
      <trkpt lat="43.42184" lon="2.08837">
        <ele>561</ele>
        <time>2012-04-05T15:29:53Z</time>
      </trkpt>
      <trkpt lat="43.42183" lon="2.0884">
        <ele>561</ele>
        <time>2012-04-05T15:29:55Z</time>
      </trkpt>
      <trkpt lat="43.42181" lon="2.08846">
        <ele>562</ele>
        <time>2012-04-05T15:29:58Z</time>
      </trkpt>
      <trkpt lat="43.42179" lon="2.08849">
        <ele>563</ele>
        <time>2012-04-05T15:30:00Z</time>
      </trkpt>
      <trkpt lat="43.42178" lon="2.08852">
        <ele>564</ele>
        <time>2012-04-05T15:30:02Z</time>
      </trkpt>
      <trkpt lat="43.42176" lon="2.08856">
        <ele>565</ele>
        <time>2012-04-05T15:30:04Z</time>
      </trkpt>
      <trkpt lat="43.42174" lon="2.08859">
        <ele>565</ele>
        <time>2012-04-05T15:30:06Z</time>
      </trkpt>
      <trkpt lat="43.42171" lon="2.08861">
        <ele>565</ele>
        <time>2012-04-05T15:30:08Z</time>
      </trkpt>
      <trkpt lat="43.42169" lon="2.08864">
        <ele>565</ele>
        <time>2012-04-05T15:30:10Z</time>
      </trkpt>
      <trkpt lat="43.42167" lon="2.08868">
        <ele>565</ele>
        <time>2012-04-05T15:30:13Z</time>
      </trkpt>
      <trkpt lat="43.42165" lon="2.08872">
        <ele>565</ele>
        <time>2012-04-05T15:30:15Z</time>
      </trkpt>
      <trkpt lat="43.42162" lon="2.08875">
        <ele>565</ele>
        <time>2012-04-05T15:30:17Z</time>
      </trkpt>
      <trkpt lat="43.4216" lon="2.0888">
        <ele>565</ele>
        <time>2012-04-05T15:30:20Z</time>
      </trkpt>
      <trkpt lat="43.42159" lon="2.08883">
        <ele>565</ele>
        <time>2012-04-05T15:30:22Z</time>
      </trkpt>
      <trkpt lat="43.42157" lon="2.08885">
        <ele>566</ele>
        <time>2012-04-05T15:30:24Z</time>
      </trkpt>
      <trkpt lat="43.42156" lon="2.08888">
        <ele>566</ele>
        <time>2012-04-05T15:30:26Z</time>
      </trkpt>
      <trkpt lat="43.42155" lon="2.0889">
        <ele>566</ele>
        <time>2012-04-05T15:30:28Z</time>
      </trkpt>
      <trkpt lat="43.42152" lon="2.08892">
        <ele>566</ele>
        <time>2012-04-05T15:30:30Z</time>
      </trkpt>
      <trkpt lat="43.4215" lon="2.08895">
        <ele>566</ele>
        <time>2012-04-05T15:30:32Z</time>
      </trkpt>
      <trkpt lat="43.42149" lon="2.08897">
        <ele>566</ele>
        <time>2012-04-05T15:30:34Z</time>
      </trkpt>
      <trkpt lat="43.42147" lon="2.089">
        <ele>567</ele>
        <time>2012-04-05T15:30:36Z</time>
      </trkpt>
      <trkpt lat="43.42144" lon="2.08904">
        <ele>567</ele>
        <time>2012-04-05T15:30:38Z</time>
      </trkpt>
      <trkpt lat="43.42142" lon="2.08907">
        <ele>567</ele>
        <time>2012-04-05T15:30:41Z</time>
      </trkpt>
      <trkpt lat="43.42139" lon="2.0891">
        <ele>567</ele>
        <time>2012-04-05T15:30:43Z</time>
      </trkpt>
      <trkpt lat="43.42136" lon="2.08914">
        <ele>567</ele>
        <time>2012-04-05T15:30:46Z</time>
      </trkpt>
      <trkpt lat="43.42133" lon="2.08916">
        <ele>567</ele>
        <time>2012-04-05T15:30:49Z</time>
      </trkpt>
      <trkpt lat="43.42131" lon="2.08918">
        <ele>567</ele>
        <time>2012-04-05T15:30:51Z</time>
      </trkpt>
      <trkpt lat="43.42127" lon="2.08921">
        <ele>567</ele>
        <time>2012-04-05T15:30:54Z</time>
      </trkpt>
      <trkpt lat="43.42124" lon="2.08923">
        <ele>567</ele>
        <time>2012-04-05T15:30:56Z</time>
      </trkpt>
      <trkpt lat="43.42121" lon="2.08925">
        <ele>568</ele>
        <time>2012-04-05T15:30:58Z</time>
      </trkpt>
      <trkpt lat="43.42119" lon="2.08927">
        <ele>568</ele>
        <time>2012-04-05T15:31:00Z</time>
      </trkpt>
      <trkpt lat="43.42116" lon="2.08929">
        <ele>568</ele>
        <time>2012-04-05T15:31:02Z</time>
      </trkpt>
      <trkpt lat="43.42113" lon="2.0893">
        <ele>569</ele>
        <time>2012-04-05T15:31:04Z</time>
      </trkpt>
      <trkpt lat="43.4211" lon="2.08932">
        <ele>569</ele>
        <time>2012-04-05T15:31:06Z</time>
      </trkpt>
      <trkpt lat="43.42107" lon="2.08934">
        <ele>569</ele>
        <time>2012-04-05T15:31:08Z</time>
      </trkpt>
      <trkpt lat="43.42104" lon="2.08937">
        <ele>569</ele>
        <time>2012-04-05T15:31:10Z</time>
      </trkpt>
      <trkpt lat="43.421" lon="2.08938">
        <ele>570</ele>
        <time>2012-04-05T15:31:12Z</time>
      </trkpt>
      <trkpt lat="43.42097" lon="2.08939">
        <ele>570</ele>
        <time>2012-04-05T15:31:14Z</time>
      </trkpt>
      <trkpt lat="43.42094" lon="2.0894">
        <ele>571</ele>
        <time>2012-04-05T15:31:16Z</time>
      </trkpt>
      <trkpt lat="43.4209" lon="2.08942">
        <ele>571</ele>
        <time>2012-04-05T15:31:18Z</time>
      </trkpt>
      <trkpt lat="43.42087" lon="2.08946">
        <ele>573</ele>
        <time>2012-04-05T15:31:21Z</time>
      </trkpt>
      <trkpt lat="43.42085" lon="2.08949">
        <ele>574</ele>
        <time>2012-04-05T15:31:23Z</time>
      </trkpt>
      <trkpt lat="43.42082" lon="2.08953">
        <ele>574</ele>
        <time>2012-04-05T15:31:25Z</time>
      </trkpt>
      <trkpt lat="43.4208" lon="2.08956">
        <ele>575</ele>
        <time>2012-04-05T15:31:27Z</time>
      </trkpt>
      <trkpt lat="43.42078" lon="2.08958">
        <ele>575</ele>
        <time>2012-04-05T15:31:29Z</time>
      </trkpt>
      <trkpt lat="43.42075" lon="2.0896">
        <ele>576</ele>
        <time>2012-04-05T15:31:31Z</time>
      </trkpt>
      <trkpt lat="43.42071" lon="2.08962">
        <ele>579</ele>
        <time>2012-04-05T15:31:34Z</time>
      </trkpt>
      <trkpt lat="43.42068" lon="2.08964">
        <ele>579</ele>
        <time>2012-04-05T15:31:36Z</time>
      </trkpt>
      <trkpt lat="43.42065" lon="2.08966">
        <ele>579</ele>
        <time>2012-04-05T15:31:38Z</time>
      </trkpt>
      <trkpt lat="43.42062" lon="2.08968">
        <ele>579</ele>
        <time>2012-04-05T15:31:40Z</time>
      </trkpt>
      <trkpt lat="43.4206" lon="2.08971">
        <ele>579</ele>
        <time>2012-04-05T15:31:42Z</time>
      </trkpt>
      <trkpt lat="43.42059" lon="2.08974">
        <ele>579</ele>
        <time>2012-04-05T15:31:44Z</time>
      </trkpt>
      <trkpt lat="43.42056" lon="2.08977">
        <ele>579</ele>
        <time>2012-04-05T15:31:46Z</time>
      </trkpt>
      <trkpt lat="43.42054" lon="2.0898">
        <ele>579</ele>
        <time>2012-04-05T15:31:48Z</time>
      </trkpt>
      <trkpt lat="43.42052" lon="2.08983">
        <ele>581</ele>
        <time>2012-04-05T15:31:51Z</time>
      </trkpt>
      <trkpt lat="43.42051" lon="2.08986">
        <ele>583</ele>
        <time>2012-04-05T15:31:53Z</time>
      </trkpt>
      <trkpt lat="43.42049" lon="2.08989">
        <ele>585</ele>
        <time>2012-04-05T15:31:55Z</time>
      </trkpt>
      <trkpt lat="43.42049" lon="2.08993">
        <ele>587</ele>
        <time>2012-04-05T15:31:57Z</time>
      </trkpt>
      <trkpt lat="43.42047" lon="2.08995">
        <ele>589</ele>
        <time>2012-04-05T15:31:59Z</time>
      </trkpt>
      <trkpt lat="43.42046" lon="2.08999">
        <ele>591</ele>
        <time>2012-04-05T15:32:01Z</time>
      </trkpt>
      <trkpt lat="43.42044" lon="2.09001">
        <ele>592</ele>
        <time>2012-04-05T15:32:03Z</time>
      </trkpt>
      <trkpt lat="43.42043" lon="2.09004">
        <ele>594</ele>
        <time>2012-04-05T15:32:05Z</time>
      </trkpt>
      <trkpt lat="43.4204" lon="2.09008">
        <ele>596</ele>
        <time>2012-04-05T15:32:08Z</time>
      </trkpt>
      <trkpt lat="43.42039" lon="2.09011">
        <ele>597</ele>
        <time>2012-04-05T15:32:10Z</time>
      </trkpt>
      <trkpt lat="43.42037" lon="2.09014">
        <ele>598</ele>
        <time>2012-04-05T15:32:12Z</time>
      </trkpt>
      <trkpt lat="43.42034" lon="2.09017">
        <ele>599</ele>
        <time>2012-04-05T15:32:14Z</time>
      </trkpt>
      <trkpt lat="43.42031" lon="2.0902">
        <ele>599</ele>
        <time>2012-04-05T15:32:16Z</time>
      </trkpt>
      <trkpt lat="43.42029" lon="2.09023">
        <ele>599</ele>
        <time>2012-04-05T15:32:18Z</time>
      </trkpt>
      <trkpt lat="43.42027" lon="2.09026">
        <ele>599</ele>
        <time>2012-04-05T15:32:20Z</time>
      </trkpt>
      <trkpt lat="43.42025" lon="2.09031">
        <ele>599</ele>
        <time>2012-04-05T15:32:23Z</time>
      </trkpt>
      <trkpt lat="43.42022" lon="2.09034">
        <ele>599</ele>
        <time>2012-04-05T15:32:26Z</time>
      </trkpt>
      <trkpt lat="43.42022" lon="2.09036">
        <ele>599</ele>
        <time>2012-04-05T15:32:28Z</time>
      </trkpt>
      <trkpt lat="43.42021" lon="2.09037">
        <ele>599</ele>
        <time>2012-04-05T15:32:31Z</time>
      </trkpt>
      <trkpt lat="43.4202" lon="2.09039">
        <ele>599</ele>
        <time>2012-04-05T15:32:34Z</time>
      </trkpt>
      <trkpt lat="43.42021" lon="2.09041">
        <ele>599</ele>
        <time>2012-04-05T15:32:36Z</time>
      </trkpt>
      <trkpt lat="43.4202" lon="2.09044">
        <ele>599</ele>
        <time>2012-04-05T15:32:38Z</time>
      </trkpt>
      <trkpt lat="43.4202" lon="2.09048">
        <ele>599</ele>
        <time>2012-04-05T15:32:41Z</time>
      </trkpt>
      <trkpt lat="43.42019" lon="2.09051">
        <ele>599</ele>
        <time>2012-04-05T15:32:43Z</time>
      </trkpt>
      <trkpt lat="43.42017" lon="2.09054">
        <ele>599</ele>
        <time>2012-04-05T15:32:46Z</time>
      </trkpt>
      <trkpt lat="43.42016" lon="2.09056">
        <ele>599</ele>
        <time>2012-04-05T15:32:49Z</time>
      </trkpt>
      <trkpt lat="43.42015" lon="2.09058">
        <ele>599</ele>
        <time>2012-04-05T15:32:52Z</time>
      </trkpt>
      <trkpt lat="43.42017" lon="2.09058">
        <ele>599</ele>
        <time>2012-04-05T15:32:58Z</time>
      </trkpt>
      <trkpt lat="43.42017" lon="2.09056">
        <ele>599</ele>
        <time>2012-04-05T15:33:00Z</time>
      </trkpt>
      <trkpt lat="43.42018" lon="2.09052">
        <ele>599</ele>
        <time>2012-04-05T15:33:02Z</time>
      </trkpt>
      <trkpt lat="43.4202" lon="2.09045">
        <ele>599</ele>
        <time>2012-04-05T15:33:04Z</time>
      </trkpt>
      <trkpt lat="43.4202" lon="2.09036">
        <ele>598</ele>
        <time>2012-04-05T15:33:06Z</time>
      </trkpt>
      <trkpt lat="43.42019" lon="2.09031">
        <ele>596</ele>
        <time>2012-04-05T15:33:08Z</time>
      </trkpt>
      <trkpt lat="43.42017" lon="2.09027">
        <ele>596</ele>
        <time>2012-04-05T15:33:10Z</time>
      </trkpt>
      <trkpt lat="43.42014" lon="2.09024">
        <ele>596</ele>
        <time>2012-04-05T15:33:12Z</time>
      </trkpt>
      <trkpt lat="43.42012" lon="2.09021">
        <ele>596</ele>
        <time>2012-04-05T15:33:14Z</time>
      </trkpt>
      <trkpt lat="43.42009" lon="2.09018">
        <ele>596</ele>
        <time>2012-04-05T15:33:16Z</time>
      </trkpt>
      <trkpt lat="43.42006" lon="2.09014">
        <ele>596</ele>
        <time>2012-04-05T15:33:18Z</time>
      </trkpt>
      <trkpt lat="43.42004" lon="2.09011">
        <ele>596</ele>
        <time>2012-04-05T15:33:20Z</time>
      </trkpt>
      <trkpt lat="43.42" lon="2.09008">
        <ele>596</ele>
        <time>2012-04-05T15:33:22Z</time>
      </trkpt>
      <trkpt lat="43.41995" lon="2.09007">
        <ele>596</ele>
        <time>2012-04-05T15:33:24Z</time>
      </trkpt>
      <trkpt lat="43.4199" lon="2.09007">
        <ele>596</ele>
        <time>2012-04-05T15:33:26Z</time>
      </trkpt>
      <trkpt lat="43.41983" lon="2.09009">
        <ele>596</ele>
        <time>2012-04-05T15:33:28Z</time>
      </trkpt>
      <trkpt lat="43.41978" lon="2.0901">
        <ele>596</ele>
        <time>2012-04-05T15:33:30Z</time>
      </trkpt>
      <trkpt lat="43.41973" lon="2.09012">
        <ele>596</ele>
        <time>2012-04-05T15:33:32Z</time>
      </trkpt>
      <trkpt lat="43.41968" lon="2.09013">
        <ele>596</ele>
        <time>2012-04-05T15:33:34Z</time>
      </trkpt>
      <trkpt lat="43.41962" lon="2.09015">
        <ele>596</ele>
        <time>2012-04-05T15:33:36Z</time>
      </trkpt>
      <trkpt lat="43.41956" lon="2.09017">
        <ele>596</ele>
        <time>2012-04-05T15:33:38Z</time>
      </trkpt>
      <trkpt lat="43.4195" lon="2.09019">
        <ele>596</ele>
        <time>2012-04-05T15:33:40Z</time>
      </trkpt>
      <trkpt lat="43.41944" lon="2.0902">
        <ele>596</ele>
        <time>2012-04-05T15:33:42Z</time>
      </trkpt>
      <trkpt lat="43.41938" lon="2.09021">
        <ele>596</ele>
        <time>2012-04-05T15:33:44Z</time>
      </trkpt>
      <trkpt lat="43.41932" lon="2.09023">
        <ele>596</ele>
        <time>2012-04-05T15:33:46Z</time>
      </trkpt>
      <trkpt lat="43.41926" lon="2.09025">
        <ele>596</ele>
        <time>2012-04-05T15:33:48Z</time>
      </trkpt>
      <trkpt lat="43.41921" lon="2.09027">
        <ele>596</ele>
        <time>2012-04-05T15:33:50Z</time>
      </trkpt>
      <trkpt lat="43.41916" lon="2.09029">
        <ele>596</ele>
        <time>2012-04-05T15:33:52Z</time>
      </trkpt>
      <trkpt lat="43.4191" lon="2.09032">
        <ele>596</ele>
        <time>2012-04-05T15:33:54Z</time>
      </trkpt>
      <trkpt lat="43.41901" lon="2.09035">
        <ele>596</ele>
        <time>2012-04-05T15:33:56Z</time>
      </trkpt>
      <trkpt lat="43.41893" lon="2.09039">
        <ele>596</ele>
        <time>2012-04-05T15:33:58Z</time>
      </trkpt>
      <trkpt lat="43.41883" lon="2.09042">
        <ele>596</ele>
        <time>2012-04-05T15:34:00Z</time>
      </trkpt>
      <trkpt lat="43.41872" lon="2.09043">
        <ele>596</ele>
        <time>2012-04-05T15:34:02Z</time>
      </trkpt>
      <trkpt lat="43.41862" lon="2.09046">
        <ele>595</ele>
        <time>2012-04-05T15:34:04Z</time>
      </trkpt>
      <trkpt lat="43.4185" lon="2.09049">
        <ele>595</ele>
        <time>2012-04-05T15:34:06Z</time>
      </trkpt>
      <trkpt lat="43.41835" lon="2.09052">
        <ele>594</ele>
        <time>2012-04-05T15:34:08Z</time>
      </trkpt>
      <trkpt lat="43.4182" lon="2.09052">
        <ele>594</ele>
        <time>2012-04-05T15:34:10Z</time>
      </trkpt>
      <trkpt lat="43.41806" lon="2.0905">
        <ele>594</ele>
        <time>2012-04-05T15:34:12Z</time>
      </trkpt>
      <trkpt lat="43.41793" lon="2.09047">
        <ele>594</ele>
        <time>2012-04-05T15:34:14Z</time>
      </trkpt>
      <trkpt lat="43.41781" lon="2.09041">
        <ele>594</ele>
        <time>2012-04-05T15:34:16Z</time>
      </trkpt>
      <trkpt lat="43.41772" lon="2.09036">
        <ele>594</ele>
        <time>2012-04-05T15:34:18Z</time>
      </trkpt>
      <trkpt lat="43.41761" lon="2.09037">
        <ele>594</ele>
        <time>2012-04-05T15:34:20Z</time>
      </trkpt>
      <trkpt lat="43.41753" lon="2.09044">
        <ele>594</ele>
        <time>2012-04-05T15:34:22Z</time>
      </trkpt>
      <trkpt lat="43.41747" lon="2.09054">
        <ele>592</ele>
        <time>2012-04-05T15:34:24Z</time>
      </trkpt>
      <trkpt lat="43.41741" lon="2.09063">
        <ele>590</ele>
        <time>2012-04-05T15:34:26Z</time>
      </trkpt>
      <trkpt lat="43.41735" lon="2.09072">
        <ele>590</ele>
        <time>2012-04-05T15:34:28Z</time>
      </trkpt>
      <trkpt lat="43.41729" lon="2.09079">
        <ele>590</ele>
        <time>2012-04-05T15:34:30Z</time>
      </trkpt>
      <trkpt lat="43.41722" lon="2.0909">
        <ele>590</ele>
        <time>2012-04-05T15:34:32Z</time>
      </trkpt>
      <trkpt lat="43.41718" lon="2.091">
        <ele>590</ele>
        <time>2012-04-05T15:34:34Z</time>
      </trkpt>
      <trkpt lat="43.41714" lon="2.0911">
        <ele>590</ele>
        <time>2012-04-05T15:34:36Z</time>
      </trkpt>
      <trkpt lat="43.4171" lon="2.0912">
        <ele>590</ele>
        <time>2012-04-05T15:34:38Z</time>
      </trkpt>
      <trkpt lat="43.41705" lon="2.09126">
        <ele>590</ele>
        <time>2012-04-05T15:34:40Z</time>
      </trkpt>
      <trkpt lat="43.41702" lon="2.09132">
        <ele>591</ele>
        <time>2012-04-05T15:34:42Z</time>
      </trkpt>
      <trkpt lat="43.41699" lon="2.09137">
        <ele>592</ele>
        <time>2012-04-05T15:34:44Z</time>
      </trkpt>
      <trkpt lat="43.41695" lon="2.09142">
        <ele>593</ele>
        <time>2012-04-05T15:34:46Z</time>
      </trkpt>
      <trkpt lat="43.41692" lon="2.09148">
        <ele>595</ele>
        <time>2012-04-05T15:34:48Z</time>
      </trkpt>
      <trkpt lat="43.41689" lon="2.09153">
        <ele>596</ele>
        <time>2012-04-05T15:34:50Z</time>
      </trkpt>
      <trkpt lat="43.41685" lon="2.09157">
        <ele>597</ele>
        <time>2012-04-05T15:34:52Z</time>
      </trkpt>
      <trkpt lat="43.41682" lon="2.09161">
        <ele>598</ele>
        <time>2012-04-05T15:34:54Z</time>
      </trkpt>
      <trkpt lat="43.41679" lon="2.09167">
        <ele>598</ele>
        <time>2012-04-05T15:34:56Z</time>
      </trkpt>
      <trkpt lat="43.41677" lon="2.09176">
        <ele>598</ele>
        <time>2012-04-05T15:34:58Z</time>
      </trkpt>
      <trkpt lat="43.41675" lon="2.09183">
        <ele>598</ele>
        <time>2012-04-05T15:35:00Z</time>
      </trkpt>
      <trkpt lat="43.41673" lon="2.09192">
        <ele>598</ele>
        <time>2012-04-05T15:35:02Z</time>
      </trkpt>
      <trkpt lat="43.41671" lon="2.09197">
        <ele>598</ele>
        <time>2012-04-05T15:35:04Z</time>
      </trkpt>
      <trkpt lat="43.41668" lon="2.09204">
        <ele>598</ele>
        <time>2012-04-05T15:35:06Z</time>
      </trkpt>
      <trkpt lat="43.41666" lon="2.09211">
        <ele>598</ele>
        <time>2012-04-05T15:35:08Z</time>
      </trkpt>
      <trkpt lat="43.41663" lon="2.09218">
        <ele>598</ele>
        <time>2012-04-05T15:35:10Z</time>
      </trkpt>
      <trkpt lat="43.4166" lon="2.09226">
        <ele>598</ele>
        <time>2012-04-05T15:35:12Z</time>
      </trkpt>
      <trkpt lat="43.41659" lon="2.09231">
        <ele>598</ele>
        <time>2012-04-05T15:35:14Z</time>
      </trkpt>
      <trkpt lat="43.4166" lon="2.09237">
        <ele>598</ele>
        <time>2012-04-05T15:35:16Z</time>
      </trkpt>
      <trkpt lat="43.41658" lon="2.09244">
        <ele>596</ele>
        <time>2012-04-05T15:35:18Z</time>
      </trkpt>
      <trkpt lat="43.41658" lon="2.0925">
        <ele>594</ele>
        <time>2012-04-05T15:35:20Z</time>
      </trkpt>
      <trkpt lat="43.41657" lon="2.09252">
        <ele>593</ele>
        <time>2012-04-05T15:35:22Z</time>
      </trkpt>
      <trkpt lat="43.41656" lon="2.09255">
        <ele>592</ele>
        <time>2012-04-05T15:35:24Z</time>
      </trkpt>
      <trkpt lat="43.41656" lon="2.09258">
        <ele>591</ele>
        <time>2012-04-05T15:35:26Z</time>
      </trkpt>
      <trkpt lat="43.41655" lon="2.0926">
        <ele>590</ele>
        <time>2012-04-05T15:35:28Z</time>
      </trkpt>
      <trkpt lat="43.41654" lon="2.09264">
        <ele>589</ele>
        <time>2012-04-05T15:35:31Z</time>
      </trkpt>
      <trkpt lat="43.41654" lon="2.09266">
        <ele>589</ele>
        <time>2012-04-05T15:35:33Z</time>
      </trkpt>
      <trkpt lat="43.41655" lon="2.0927">
        <ele>589</ele>
        <time>2012-04-05T15:35:36Z</time>
      </trkpt>
      <trkpt lat="43.41656" lon="2.09274">
        <ele>589</ele>
        <time>2012-04-05T15:35:38Z</time>
      </trkpt>
      <trkpt lat="43.41655" lon="2.09278">
        <ele>590</ele>
        <time>2012-04-05T15:35:40Z</time>
      </trkpt>
      <trkpt lat="43.41655" lon="2.09283">
        <ele>591</ele>
        <time>2012-04-05T15:35:42Z</time>
      </trkpt>
      <trkpt lat="43.41654" lon="2.09289">
        <ele>593</ele>
        <time>2012-04-05T15:35:44Z</time>
      </trkpt>
      <trkpt lat="43.41653" lon="2.09294">
        <ele>594</ele>
        <time>2012-04-05T15:35:46Z</time>
      </trkpt>
      <trkpt lat="43.41652" lon="2.09298">
        <ele>595</ele>
        <time>2012-04-05T15:35:48Z</time>
      </trkpt>
      <trkpt lat="43.41651" lon="2.09302">
        <ele>597</ele>
        <time>2012-04-05T15:35:50Z</time>
      </trkpt>
      <trkpt lat="43.4165" lon="2.09307">
        <ele>597</ele>
        <time>2012-04-05T15:35:52Z</time>
      </trkpt>
      <trkpt lat="43.4165" lon="2.09311">
        <ele>597</ele>
        <time>2012-04-05T15:35:54Z</time>
      </trkpt>
      <trkpt lat="43.41649" lon="2.09314">
        <ele>598</ele>
        <time>2012-04-05T15:35:56Z</time>
      </trkpt>
      <trkpt lat="43.41648" lon="2.09317">
        <ele>599</ele>
        <time>2012-04-05T15:35:58Z</time>
      </trkpt>
      <trkpt lat="43.41648" lon="2.09321">
        <ele>601</ele>
        <time>2012-04-05T15:36:00Z</time>
      </trkpt>
      <trkpt lat="43.41648" lon="2.09326">
        <ele>602</ele>
        <time>2012-04-05T15:36:02Z</time>
      </trkpt>
      <trkpt lat="43.41648" lon="2.0933">
        <ele>603</ele>
        <time>2012-04-05T15:36:04Z</time>
      </trkpt>
      <trkpt lat="43.41648" lon="2.09335">
        <ele>603</ele>
        <time>2012-04-05T15:36:06Z</time>
      </trkpt>
      <trkpt lat="43.41647" lon="2.0934">
        <ele>604</ele>
        <time>2012-04-05T15:36:08Z</time>
      </trkpt>
      <trkpt lat="43.41647" lon="2.09344">
        <ele>604</ele>
        <time>2012-04-05T15:36:10Z</time>
      </trkpt>
      <trkpt lat="43.41647" lon="2.09348">
        <ele>604</ele>
        <time>2012-04-05T15:36:12Z</time>
      </trkpt>
      <trkpt lat="43.41647" lon="2.09353">
        <ele>604</ele>
        <time>2012-04-05T15:36:14Z</time>
      </trkpt>
      <trkpt lat="43.41647" lon="2.09359">
        <ele>604</ele>
        <time>2012-04-05T15:36:16Z</time>
      </trkpt>
      <trkpt lat="43.41647" lon="2.09366">
        <ele>604</ele>
        <time>2012-04-05T15:36:18Z</time>
      </trkpt>
      <trkpt lat="43.41647" lon="2.09374">
        <ele>604</ele>
        <time>2012-04-05T15:36:20Z</time>
      </trkpt>
      <trkpt lat="43.41652" lon="2.09385">
        <ele>604</ele>
        <time>2012-04-05T15:36:23Z</time>
      </trkpt>
      <trkpt lat="43.41656" lon="2.09391">
        <ele>604</ele>
        <time>2012-04-05T15:36:25Z</time>
      </trkpt>
      <trkpt lat="43.4166" lon="2.09398">
        <ele>604</ele>
        <time>2012-04-05T15:36:27Z</time>
      </trkpt>
      <trkpt lat="43.41665" lon="2.09405">
        <ele>604</ele>
        <time>2012-04-05T15:36:29Z</time>
      </trkpt>
      <trkpt lat="43.41669" lon="2.09411">
        <ele>604</ele>
        <time>2012-04-05T15:36:31Z</time>
      </trkpt>
      <trkpt lat="43.41672" lon="2.09417">
        <ele>604</ele>
        <time>2012-04-05T15:36:33Z</time>
      </trkpt>
      <trkpt lat="43.41676" lon="2.09424">
        <ele>604</ele>
        <time>2012-04-05T15:36:35Z</time>
      </trkpt>
      <trkpt lat="43.41678" lon="2.09429">
        <ele>604</ele>
        <time>2012-04-05T15:36:37Z</time>
      </trkpt>
      <trkpt lat="43.41678" lon="2.09433">
        <ele>604</ele>
        <time>2012-04-05T15:36:44Z</time>
      </trkpt>
      <trkpt lat="43.41677" lon="2.09434">
        <ele>604</ele>
        <time>2012-04-05T15:36:50Z</time>
      </trkpt>
      <trkpt lat="43.41674" lon="2.09435">
        <ele>604</ele>
        <time>2012-04-05T15:36:52Z</time>
      </trkpt>
      <trkpt lat="43.41671" lon="2.09438">
        <ele>604</ele>
        <time>2012-04-05T15:36:54Z</time>
      </trkpt>
      <trkpt lat="43.41668" lon="2.09441">
        <ele>604</ele>
        <time>2012-04-05T15:36:56Z</time>
      </trkpt>
      <trkpt lat="43.41665" lon="2.09443">
        <ele>604</ele>
        <time>2012-04-05T15:36:58Z</time>
      </trkpt>
      <trkpt lat="43.41661" lon="2.09445">
        <ele>604</ele>
        <time>2012-04-05T15:37:00Z</time>
      </trkpt>
      <trkpt lat="43.41658" lon="2.09447">
        <ele>603</ele>
        <time>2012-04-05T15:37:02Z</time>
      </trkpt>
      <trkpt lat="43.41656" lon="2.0945">
        <ele>603</ele>
        <time>2012-04-05T15:37:04Z</time>
      </trkpt>
      <trkpt lat="43.41653" lon="2.09456">
        <ele>603</ele>
        <time>2012-04-05T15:37:07Z</time>
      </trkpt>
      <trkpt lat="43.41647" lon="2.09459">
        <ele>603</ele>
        <time>2012-04-05T15:37:09Z</time>
      </trkpt>
      <trkpt lat="43.41641" lon="2.09463">
        <ele>603</ele>
        <time>2012-04-05T15:37:11Z</time>
      </trkpt>
      <trkpt lat="43.41636" lon="2.0947">
        <ele>603</ele>
        <time>2012-04-05T15:37:13Z</time>
      </trkpt>
      <trkpt lat="43.4163" lon="2.09476">
        <ele>603</ele>
        <time>2012-04-05T15:37:15Z</time>
      </trkpt>
      <trkpt lat="43.41623" lon="2.09485">
        <ele>603</ele>
        <time>2012-04-05T15:37:17Z</time>
      </trkpt>
      <trkpt lat="43.41618" lon="2.09494">
        <ele>603</ele>
        <time>2012-04-05T15:37:19Z</time>
      </trkpt>
      <trkpt lat="43.41613" lon="2.09504">
        <ele>603</ele>
        <time>2012-04-05T15:37:21Z</time>
      </trkpt>
      <trkpt lat="43.41608" lon="2.09513">
        <ele>603</ele>
        <time>2012-04-05T15:37:23Z</time>
      </trkpt>
      <trkpt lat="43.41604" lon="2.09522">
        <ele>603</ele>
        <time>2012-04-05T15:37:25Z</time>
      </trkpt>
      <trkpt lat="43.41599" lon="2.09532">
        <ele>603</ele>
        <time>2012-04-05T15:37:27Z</time>
      </trkpt>
      <trkpt lat="43.41592" lon="2.09547">
        <ele>604</ele>
        <time>2012-04-05T15:37:30Z</time>
      </trkpt>
      <trkpt lat="43.41587" lon="2.09557">
        <ele>606</ele>
        <time>2012-04-05T15:37:32Z</time>
      </trkpt>
      <trkpt lat="43.41583" lon="2.09567">
        <ele>607</ele>
        <time>2012-04-05T15:37:34Z</time>
      </trkpt>
      <trkpt lat="43.41575" lon="2.09579">
        <ele>608</ele>
        <time>2012-04-05T15:37:37Z</time>
      </trkpt>
      <trkpt lat="43.41571" lon="2.09589">
        <ele>608</ele>
        <time>2012-04-05T15:37:39Z</time>
      </trkpt>
      <trkpt lat="43.41566" lon="2.09598">
        <ele>608</ele>
        <time>2012-04-05T15:37:41Z</time>
      </trkpt>
      <trkpt lat="43.41559" lon="2.09612">
        <ele>608</ele>
        <time>2012-04-05T15:37:44Z</time>
      </trkpt>
      <trkpt lat="43.41554" lon="2.09621">
        <ele>608</ele>
        <time>2012-04-05T15:37:46Z</time>
      </trkpt>
      <trkpt lat="43.4155" lon="2.09633">
        <ele>608</ele>
        <time>2012-04-05T15:37:48Z</time>
      </trkpt>
      <trkpt lat="43.41546" lon="2.09643">
        <ele>608</ele>
        <time>2012-04-05T15:37:50Z</time>
      </trkpt>
      <trkpt lat="43.41542" lon="2.09656">
        <ele>608</ele>
        <time>2012-04-05T15:37:52Z</time>
      </trkpt>
      <trkpt lat="43.41539" lon="2.09668">
        <ele>610</ele>
        <time>2012-04-05T15:37:54Z</time>
      </trkpt>
      <trkpt lat="43.41533" lon="2.09686">
        <ele>611</ele>
        <time>2012-04-05T15:37:57Z</time>
      </trkpt>
      <trkpt lat="43.41529" lon="2.09699">
        <ele>611</ele>
        <time>2012-04-05T15:37:59Z</time>
      </trkpt>
      <trkpt lat="43.41526" lon="2.09709">
        <ele>612</ele>
        <time>2012-04-05T15:38:01Z</time>
      </trkpt>
      <trkpt lat="43.41521" lon="2.09718">
        <ele>613</ele>
        <time>2012-04-05T15:38:03Z</time>
      </trkpt>
      <trkpt lat="43.41516" lon="2.09731">
        <ele>616</ele>
        <time>2012-04-05T15:38:06Z</time>
      </trkpt>
      <trkpt lat="43.41512" lon="2.09742">
        <ele>618</ele>
        <time>2012-04-05T15:38:09Z</time>
      </trkpt>
      <trkpt lat="43.41511" lon="2.09752">
        <ele>618</ele>
        <time>2012-04-05T15:38:11Z</time>
      </trkpt>
      <trkpt lat="43.4151" lon="2.09762">
        <ele>618</ele>
        <time>2012-04-05T15:38:13Z</time>
      </trkpt>
      <trkpt lat="43.41509" lon="2.09771">
        <ele>618</ele>
        <time>2012-04-05T15:38:15Z</time>
      </trkpt>
      <trkpt lat="43.41508" lon="2.09782">
        <ele>618</ele>
        <time>2012-04-05T15:38:17Z</time>
      </trkpt>
      <trkpt lat="43.41508" lon="2.09792">
        <ele>618</ele>
        <time>2012-04-05T15:38:19Z</time>
      </trkpt>
      <trkpt lat="43.41507" lon="2.09803">
        <ele>618</ele>
        <time>2012-04-05T15:38:21Z</time>
      </trkpt>
      <trkpt lat="43.41506" lon="2.09814">
        <ele>618</ele>
        <time>2012-04-05T15:38:23Z</time>
      </trkpt>
      <trkpt lat="43.41505" lon="2.09826">
        <ele>618</ele>
        <time>2012-04-05T15:38:25Z</time>
      </trkpt>
      <trkpt lat="43.41504" lon="2.09837">
        <ele>618</ele>
        <time>2012-04-05T15:38:27Z</time>
      </trkpt>
      <trkpt lat="43.41502" lon="2.09849">
        <ele>618</ele>
        <time>2012-04-05T15:38:29Z</time>
      </trkpt>
      <trkpt lat="43.41502" lon="2.09861">
        <ele>618</ele>
        <time>2012-04-05T15:38:31Z</time>
      </trkpt>
      <trkpt lat="43.41502" lon="2.09875">
        <ele>618</ele>
        <time>2012-04-05T15:38:33Z</time>
      </trkpt>
      <trkpt lat="43.41502" lon="2.09889">
        <ele>618</ele>
        <time>2012-04-05T15:38:35Z</time>
      </trkpt>
      <trkpt lat="43.41502" lon="2.09904">
        <ele>618</ele>
        <time>2012-04-05T15:38:37Z</time>
      </trkpt>
      <trkpt lat="43.41501" lon="2.0992">
        <ele>618</ele>
        <time>2012-04-05T15:38:39Z</time>
      </trkpt>
      <trkpt lat="43.415" lon="2.09935">
        <ele>618</ele>
        <time>2012-04-05T15:38:41Z</time>
      </trkpt>
      <trkpt lat="43.415" lon="2.09952">
        <ele>618</ele>
        <time>2012-04-05T15:38:43Z</time>
      </trkpt>
      <trkpt lat="43.41501" lon="2.09968">
        <ele>618</ele>
        <time>2012-04-05T15:38:45Z</time>
      </trkpt>
      <trkpt lat="43.415" lon="2.09985">
        <ele>617</ele>
        <time>2012-04-05T15:38:47Z</time>
      </trkpt>
      <trkpt lat="43.41498" lon="2.10002">
        <ele>616</ele>
        <time>2012-04-05T15:38:49Z</time>
      </trkpt>
      <trkpt lat="43.41496" lon="2.10018">
        <ele>616</ele>
        <time>2012-04-05T15:38:51Z</time>
      </trkpt>
      <trkpt lat="43.41495" lon="2.10033">
        <ele>615</ele>
        <time>2012-04-05T15:38:53Z</time>
      </trkpt>
      <trkpt lat="43.41496" lon="2.10046">
        <ele>615</ele>
        <time>2012-04-05T15:38:55Z</time>
      </trkpt>
      <trkpt lat="43.41497" lon="2.10057">
        <ele>614</ele>
        <time>2012-04-05T15:38:57Z</time>
      </trkpt>
      <trkpt lat="43.41499" lon="2.10067">
        <ele>614</ele>
        <time>2012-04-05T15:38:59Z</time>
      </trkpt>
      <trkpt lat="43.41501" lon="2.10076">
        <ele>614</ele>
        <time>2012-04-05T15:39:01Z</time>
      </trkpt>
      <trkpt lat="43.41504" lon="2.10085">
        <ele>614</ele>
        <time>2012-04-05T15:39:03Z</time>
      </trkpt>
      <trkpt lat="43.41506" lon="2.10092">
        <ele>614</ele>
        <time>2012-04-05T15:39:05Z</time>
      </trkpt>
      <trkpt lat="43.4151" lon="2.101">
        <ele>614</ele>
        <time>2012-04-05T15:39:07Z</time>
      </trkpt>
      <trkpt lat="43.41513" lon="2.10107">
        <ele>614</ele>
        <time>2012-04-05T15:39:09Z</time>
      </trkpt>
      <trkpt lat="43.41516" lon="2.10115">
        <ele>614</ele>
        <time>2012-04-05T15:39:11Z</time>
      </trkpt>
      <trkpt lat="43.41518" lon="2.10122">
        <ele>614</ele>
        <time>2012-04-05T15:39:13Z</time>
      </trkpt>
      <trkpt lat="43.41521" lon="2.1013">
        <ele>614</ele>
        <time>2012-04-05T15:39:15Z</time>
      </trkpt>
      <trkpt lat="43.41523" lon="2.10138">
        <ele>614</ele>
        <time>2012-04-05T15:39:17Z</time>
      </trkpt>
      <trkpt lat="43.41526" lon="2.10145">
        <ele>614</ele>
        <time>2012-04-05T15:39:19Z</time>
      </trkpt>
      <trkpt lat="43.41528" lon="2.10153">
        <ele>614</ele>
        <time>2012-04-05T15:39:21Z</time>
      </trkpt>
      <trkpt lat="43.4153" lon="2.1016">
        <ele>614</ele>
        <time>2012-04-05T15:39:23Z</time>
      </trkpt>
      <trkpt lat="43.41532" lon="2.10168">
        <ele>614</ele>
        <time>2012-04-05T15:39:25Z</time>
      </trkpt>
      <trkpt lat="43.41534" lon="2.10176">
        <ele>614</ele>
        <time>2012-04-05T15:39:27Z</time>
      </trkpt>
      <trkpt lat="43.41536" lon="2.10184">
        <ele>614</ele>
        <time>2012-04-05T15:39:29Z</time>
      </trkpt>
      <trkpt lat="43.41537" lon="2.10192">
        <ele>615</ele>
        <time>2012-04-05T15:39:31Z</time>
      </trkpt>
      <trkpt lat="43.41538" lon="2.10199">
        <ele>616</ele>
        <time>2012-04-05T15:39:33Z</time>
      </trkpt>
      <trkpt lat="43.41539" lon="2.10207">
        <ele>617</ele>
        <time>2012-04-05T15:39:35Z</time>
      </trkpt>
      <trkpt lat="43.41541" lon="2.10214">
        <ele>617</ele>
        <time>2012-04-05T15:39:37Z</time>
      </trkpt>
      <trkpt lat="43.41542" lon="2.10221">
        <ele>618</ele>
        <time>2012-04-05T15:39:39Z</time>
      </trkpt>
      <trkpt lat="43.41542" lon="2.10227">
        <ele>618</ele>
        <time>2012-04-05T15:39:41Z</time>
      </trkpt>
      <trkpt lat="43.41542" lon="2.10232">
        <ele>619</ele>
        <time>2012-04-05T15:39:43Z</time>
      </trkpt>
      <trkpt lat="43.41543" lon="2.10233">
        <ele>619</ele>
        <time>2012-04-05T15:39:45Z</time>
      </trkpt>
      <trkpt lat="43.41544" lon="2.10234">
        <ele>620</ele>
        <time>2012-04-05T15:39:56Z</time>
      </trkpt>
      <trkpt lat="43.41545" lon="2.10237">
        <ele>620</ele>
        <time>2012-04-05T15:39:59Z</time>
      </trkpt>
      <trkpt lat="43.41546" lon="2.10241">
        <ele>620</ele>
        <time>2012-04-05T15:40:01Z</time>
      </trkpt>
      <trkpt lat="43.41547" lon="2.10247">
        <ele>620</ele>
        <time>2012-04-05T15:40:03Z</time>
      </trkpt>
      <trkpt lat="43.41548" lon="2.10254">
        <ele>620</ele>
        <time>2012-04-05T15:40:05Z</time>
      </trkpt>
      <trkpt lat="43.41548" lon="2.10262">
        <ele>620</ele>
        <time>2012-04-05T15:40:07Z</time>
      </trkpt>
      <trkpt lat="43.41549" lon="2.10269">
        <ele>620</ele>
        <time>2012-04-05T15:40:09Z</time>
      </trkpt>
      <trkpt lat="43.41549" lon="2.10276">
        <ele>621</ele>
        <time>2012-04-05T15:40:11Z</time>
      </trkpt>
      <trkpt lat="43.41551" lon="2.10283">
        <ele>622</ele>
        <time>2012-04-05T15:40:13Z</time>
      </trkpt>
      <trkpt lat="43.41555" lon="2.1029">
        <ele>623</ele>
        <time>2012-04-05T15:40:15Z</time>
      </trkpt>
      <trkpt lat="43.41559" lon="2.10296">
        <ele>624</ele>
        <time>2012-04-05T15:40:17Z</time>
      </trkpt>
      <trkpt lat="43.41563" lon="2.10302">
        <ele>625</ele>
        <time>2012-04-05T15:40:19Z</time>
      </trkpt>
      <trkpt lat="43.41569" lon="2.1031">
        <ele>626</ele>
        <time>2012-04-05T15:40:21Z</time>
      </trkpt>
      <trkpt lat="43.41574" lon="2.10316">
        <ele>627</ele>
        <time>2012-04-05T15:40:23Z</time>
      </trkpt>
      <trkpt lat="43.41579" lon="2.10321">
        <ele>628</ele>
        <time>2012-04-05T15:40:25Z</time>
      </trkpt>
      <trkpt lat="43.41589" lon="2.10329">
        <ele>630</ele>
        <time>2012-04-05T15:40:28Z</time>
      </trkpt>
      <trkpt lat="43.41594" lon="2.10335">
        <ele>632</ele>
        <time>2012-04-05T15:40:30Z</time>
      </trkpt>
      <trkpt lat="43.416" lon="2.10342">
        <ele>634</ele>
        <time>2012-04-05T15:40:32Z</time>
      </trkpt>
      <trkpt lat="43.41607" lon="2.10348">
        <ele>636</ele>
        <time>2012-04-05T15:40:34Z</time>
      </trkpt>
      <trkpt lat="43.41613" lon="2.10354">
        <ele>638</ele>
        <time>2012-04-05T15:40:36Z</time>
      </trkpt>
      <trkpt lat="43.41619" lon="2.10359">
        <ele>640</ele>
        <time>2012-04-05T15:40:38Z</time>
      </trkpt>
      <trkpt lat="43.41624" lon="2.10365">
        <ele>641</ele>
        <time>2012-04-05T15:40:40Z</time>
      </trkpt>
      <trkpt lat="43.4163" lon="2.10371">
        <ele>641</ele>
        <time>2012-04-05T15:40:42Z</time>
      </trkpt>
      <trkpt lat="43.41635" lon="2.10378">
        <ele>641</ele>
        <time>2012-04-05T15:40:44Z</time>
      </trkpt>
      <trkpt lat="43.4164" lon="2.10388">
        <ele>641</ele>
        <time>2012-04-05T15:40:47Z</time>
      </trkpt>
      <trkpt lat="43.41643" lon="2.10396">
        <ele>641</ele>
        <time>2012-04-05T15:40:49Z</time>
      </trkpt>
      <trkpt lat="43.41647" lon="2.10407">
        <ele>640</ele>
        <time>2012-04-05T15:40:52Z</time>
      </trkpt>
      <trkpt lat="43.4165" lon="2.10416">
        <ele>640</ele>
        <time>2012-04-05T15:40:54Z</time>
      </trkpt>
      <trkpt lat="43.41653" lon="2.10425">
        <ele>639</ele>
        <time>2012-04-05T15:40:56Z</time>
      </trkpt>
      <trkpt lat="43.41656" lon="2.10434">
        <ele>639</ele>
        <time>2012-04-05T15:40:58Z</time>
      </trkpt>
      <trkpt lat="43.41658" lon="2.10443">
        <ele>638</ele>
        <time>2012-04-05T15:41:00Z</time>
      </trkpt>
      <trkpt lat="43.4166" lon="2.10452">
        <ele>637</ele>
        <time>2012-04-05T15:41:02Z</time>
      </trkpt>
      <trkpt lat="43.41661" lon="2.10462">
        <ele>637</ele>
        <time>2012-04-05T15:41:04Z</time>
      </trkpt>
      <trkpt lat="43.41662" lon="2.10471">
        <ele>636</ele>
        <time>2012-04-05T15:41:06Z</time>
      </trkpt>
      <trkpt lat="43.41664" lon="2.10481">
        <ele>636</ele>
        <time>2012-04-05T15:41:08Z</time>
      </trkpt>
      <trkpt lat="43.41666" lon="2.10491">
        <ele>636</ele>
        <time>2012-04-05T15:41:10Z</time>
      </trkpt>
      <trkpt lat="43.41669" lon="2.10501">
        <ele>636</ele>
        <time>2012-04-05T15:41:12Z</time>
      </trkpt>
      <trkpt lat="43.41677" lon="2.10511">
        <ele>635</ele>
        <time>2012-04-05T15:41:15Z</time>
      </trkpt>
      <trkpt lat="43.41684" lon="2.10514">
        <ele>635</ele>
        <time>2012-04-05T15:41:17Z</time>
      </trkpt>
      <trkpt lat="43.41692" lon="2.10514">
        <ele>635</ele>
        <time>2012-04-05T15:41:19Z</time>
      </trkpt>
      <trkpt lat="43.41703" lon="2.10513">
        <ele>635</ele>
        <time>2012-04-05T15:41:22Z</time>
      </trkpt>
      <trkpt lat="43.41711" lon="2.10509">
        <ele>635</ele>
        <time>2012-04-05T15:41:24Z</time>
      </trkpt>
      <trkpt lat="43.41718" lon="2.10507">
        <ele>635</ele>
        <time>2012-04-05T15:41:26Z</time>
      </trkpt>
      <trkpt lat="43.41726" lon="2.10506">
        <ele>635</ele>
        <time>2012-04-05T15:41:28Z</time>
      </trkpt>
      <trkpt lat="43.4174" lon="2.10511">
        <ele>635</ele>
        <time>2012-04-05T15:41:31Z</time>
      </trkpt>
      <trkpt lat="43.41755" lon="2.10524">
        <ele>635</ele>
        <time>2012-04-05T15:41:34Z</time>
      </trkpt>
      <trkpt lat="43.4177" lon="2.10538">
        <ele>635</ele>
        <time>2012-04-05T15:41:37Z</time>
      </trkpt>
      <trkpt lat="43.41779" lon="2.10549">
        <ele>634</ele>
        <time>2012-04-05T15:41:39Z</time>
      </trkpt>
      <trkpt lat="43.41788" lon="2.1056">
        <ele>633</ele>
        <time>2012-04-05T15:41:41Z</time>
      </trkpt>
      <trkpt lat="43.41796" lon="2.10573">
        <ele>631</ele>
        <time>2012-04-05T15:41:43Z</time>
      </trkpt>
      <trkpt lat="43.41805" lon="2.10586">
        <ele>629</ele>
        <time>2012-04-05T15:41:45Z</time>
      </trkpt>
      <trkpt lat="43.41811" lon="2.10608">
        <ele>627</ele>
        <time>2012-04-05T15:41:48Z</time>
      </trkpt>
      <trkpt lat="43.41811" lon="2.10624">
        <ele>627</ele>
        <time>2012-04-05T15:41:50Z</time>
      </trkpt>
      <trkpt lat="43.41811" lon="2.10641">
        <ele>627</ele>
        <time>2012-04-05T15:41:52Z</time>
      </trkpt>
      <trkpt lat="43.4181" lon="2.10656">
        <ele>627</ele>
        <time>2012-04-05T15:41:54Z</time>
      </trkpt>
      <trkpt lat="43.41808" lon="2.10673">
        <ele>627</ele>
        <time>2012-04-05T15:41:56Z</time>
      </trkpt>
      <trkpt lat="43.41805" lon="2.10689">
        <ele>628</ele>
        <time>2012-04-05T15:41:58Z</time>
      </trkpt>
      <trkpt lat="43.41805" lon="2.10706">
        <ele>630</ele>
        <time>2012-04-05T15:42:00Z</time>
      </trkpt>
      <trkpt lat="43.41807" lon="2.10722">
        <ele>631</ele>
        <time>2012-04-05T15:42:02Z</time>
      </trkpt>
      <trkpt lat="43.41811" lon="2.10738">
        <ele>631</ele>
        <time>2012-04-05T15:42:04Z</time>
      </trkpt>
      <trkpt lat="43.41817" lon="2.10751">
        <ele>631</ele>
        <time>2012-04-05T15:42:06Z</time>
      </trkpt>
      <trkpt lat="43.41824" lon="2.10763">
        <ele>631</ele>
        <time>2012-04-05T15:42:08Z</time>
      </trkpt>
      <trkpt lat="43.41831" lon="2.10775">
        <ele>631</ele>
        <time>2012-04-05T15:42:10Z</time>
      </trkpt>
      <trkpt lat="43.41837" lon="2.10787">
        <ele>631</ele>
        <time>2012-04-05T15:42:12Z</time>
      </trkpt>
      <trkpt lat="43.41842" lon="2.10799">
        <ele>631</ele>
        <time>2012-04-05T15:42:14Z</time>
      </trkpt>
      <trkpt lat="43.41847" lon="2.10818">
        <ele>631</ele>
        <time>2012-04-05T15:42:17Z</time>
      </trkpt>
      <trkpt lat="43.41849" lon="2.10833">
        <ele>631</ele>
        <time>2012-04-05T15:42:19Z</time>
      </trkpt>
      <trkpt lat="43.41851" lon="2.10854">
        <ele>631</ele>
        <time>2012-04-05T15:42:22Z</time>
      </trkpt>
      <trkpt lat="43.41848" lon="2.10868">
        <ele>631</ele>
        <time>2012-04-05T15:42:24Z</time>
      </trkpt>
      <trkpt lat="43.41839" lon="2.10886">
        <ele>631</ele>
        <time>2012-04-05T15:42:27Z</time>
      </trkpt>
      <trkpt lat="43.41831" lon="2.10897">
        <ele>632</ele>
        <time>2012-04-05T15:42:29Z</time>
      </trkpt>
      <trkpt lat="43.41822" lon="2.10907">
        <ele>633</ele>
        <time>2012-04-05T15:42:31Z</time>
      </trkpt>
      <trkpt lat="43.41808" lon="2.1092">
        <ele>633</ele>
        <time>2012-04-05T15:42:34Z</time>
      </trkpt>
      <trkpt lat="43.41798" lon="2.10931">
        <ele>633</ele>
        <time>2012-04-05T15:42:36Z</time>
      </trkpt>
      <trkpt lat="43.41788" lon="2.10952">
        <ele>631</ele>
        <time>2012-04-05T15:42:39Z</time>
      </trkpt>
      <trkpt lat="43.41787" lon="2.10965">
        <ele>629</ele>
        <time>2012-04-05T15:42:41Z</time>
      </trkpt>
      <trkpt lat="43.41787" lon="2.10975">
        <ele>629</ele>
        <time>2012-04-05T15:42:43Z</time>
      </trkpt>
      <trkpt lat="43.41788" lon="2.10983">
        <ele>629</ele>
        <time>2012-04-05T15:42:45Z</time>
      </trkpt>
      <trkpt lat="43.41789" lon="2.1099">
        <ele>629</ele>
        <time>2012-04-05T15:42:47Z</time>
      </trkpt>
      <trkpt lat="43.4179" lon="2.10997">
        <ele>629</ele>
        <time>2012-04-05T15:42:49Z</time>
      </trkpt>
      <trkpt lat="43.41792" lon="2.11003">
        <ele>629</ele>
        <time>2012-04-05T15:42:51Z</time>
      </trkpt>
      <trkpt lat="43.41793" lon="2.11009">
        <ele>629</ele>
        <time>2012-04-05T15:42:53Z</time>
      </trkpt>
      <trkpt lat="43.41793" lon="2.11015">
        <ele>629</ele>
        <time>2012-04-05T15:42:55Z</time>
      </trkpt>
      <trkpt lat="43.41794" lon="2.11021">
        <ele>629</ele>
        <time>2012-04-05T15:42:57Z</time>
      </trkpt>
      <trkpt lat="43.41795" lon="2.11027">
        <ele>629</ele>
        <time>2012-04-05T15:42:59Z</time>
      </trkpt>
      <trkpt lat="43.41796" lon="2.11033">
        <ele>629</ele>
        <time>2012-04-05T15:43:01Z</time>
      </trkpt>
      <trkpt lat="43.41797" lon="2.1104">
        <ele>630</ele>
        <time>2012-04-05T15:43:03Z</time>
      </trkpt>
      <trkpt lat="43.41799" lon="2.11046">
        <ele>630</ele>
        <time>2012-04-05T15:43:05Z</time>
      </trkpt>
      <trkpt lat="43.41802" lon="2.11051">
        <ele>631</ele>
        <time>2012-04-05T15:43:07Z</time>
      </trkpt>
      <trkpt lat="43.41806" lon="2.11053">
        <ele>631</ele>
        <time>2012-04-05T15:43:09Z</time>
      </trkpt>
      <trkpt lat="43.4181" lon="2.11055">
        <ele>632</ele>
        <time>2012-04-05T15:43:11Z</time>
      </trkpt>
      <trkpt lat="43.41816" lon="2.11054">
        <ele>633</ele>
        <time>2012-04-05T15:43:14Z</time>
      </trkpt>
      <trkpt lat="43.4182" lon="2.11052">
        <ele>634</ele>
        <time>2012-04-05T15:43:16Z</time>
      </trkpt>
      <trkpt lat="43.41824" lon="2.1105">
        <ele>634</ele>
        <time>2012-04-05T15:43:18Z</time>
      </trkpt>
      <trkpt lat="43.4183" lon="2.11046">
        <ele>634</ele>
        <time>2012-04-05T15:43:21Z</time>
      </trkpt>
      <trkpt lat="43.41833" lon="2.11042">
        <ele>635</ele>
        <time>2012-04-05T15:43:23Z</time>
      </trkpt>
      <trkpt lat="43.41837" lon="2.11039">
        <ele>635</ele>
        <time>2012-04-05T15:43:25Z</time>
      </trkpt>
      <trkpt lat="43.41839" lon="2.11034">
        <ele>636</ele>
        <time>2012-04-05T15:43:27Z</time>
      </trkpt>
      <trkpt lat="43.41843" lon="2.1103">
        <ele>636</ele>
        <time>2012-04-05T15:43:29Z</time>
      </trkpt>
      <trkpt lat="43.41846" lon="2.11024">
        <ele>636</ele>
        <time>2012-04-05T15:43:31Z</time>
      </trkpt>
      <trkpt lat="43.41849" lon="2.11019">
        <ele>636</ele>
        <time>2012-04-05T15:43:33Z</time>
      </trkpt>
      <trkpt lat="43.41851" lon="2.11013">
        <ele>636</ele>
        <time>2012-04-05T15:43:35Z</time>
      </trkpt>
      <trkpt lat="43.41855" lon="2.11007">
        <ele>636</ele>
        <time>2012-04-05T15:43:37Z</time>
      </trkpt>
      <trkpt lat="43.41858" lon="2.11001">
        <ele>636</ele>
        <time>2012-04-05T15:43:39Z</time>
      </trkpt>
      <trkpt lat="43.41861" lon="2.10996">
        <ele>636</ele>
        <time>2012-04-05T15:43:41Z</time>
      </trkpt>
      <trkpt lat="43.41862" lon="2.10991">
        <ele>636</ele>
        <time>2012-04-05T15:43:43Z</time>
      </trkpt>
      <trkpt lat="43.41865" lon="2.10986">
        <ele>636</ele>
        <time>2012-04-05T15:43:45Z</time>
      </trkpt>
      <trkpt lat="43.41867" lon="2.1098">
        <ele>636</ele>
        <time>2012-04-05T15:43:47Z</time>
      </trkpt>
      <trkpt lat="43.41869" lon="2.10975">
        <ele>636</ele>
        <time>2012-04-05T15:43:49Z</time>
      </trkpt>
      <trkpt lat="43.41871" lon="2.10969">
        <ele>636</ele>
        <time>2012-04-05T15:43:51Z</time>
      </trkpt>
      <trkpt lat="43.41874" lon="2.10964">
        <ele>636</ele>
        <time>2012-04-05T15:43:53Z</time>
      </trkpt>
      <trkpt lat="43.41878" lon="2.10956">
        <ele>636</ele>
        <time>2012-04-05T15:43:56Z</time>
      </trkpt>
      <trkpt lat="43.41881" lon="2.10951">
        <ele>636</ele>
        <time>2012-04-05T15:43:58Z</time>
      </trkpt>
      <trkpt lat="43.41884" lon="2.10946">
        <ele>636</ele>
        <time>2012-04-05T15:44:00Z</time>
      </trkpt>
      <trkpt lat="43.41888" lon="2.1094">
        <ele>636</ele>
        <time>2012-04-05T15:44:02Z</time>
      </trkpt>
      <trkpt lat="43.41892" lon="2.1093">
        <ele>636</ele>
        <time>2012-04-05T15:44:05Z</time>
      </trkpt>
      <trkpt lat="43.41895" lon="2.10923">
        <ele>636</ele>
        <time>2012-04-05T15:44:07Z</time>
      </trkpt>
      <trkpt lat="43.41897" lon="2.10916">
        <ele>636</ele>
        <time>2012-04-05T15:44:09Z</time>
      </trkpt>
      <trkpt lat="43.41899" lon="2.1091">
        <ele>636</ele>
        <time>2012-04-05T15:44:11Z</time>
      </trkpt>
      <trkpt lat="43.41901" lon="2.10903">
        <ele>636</ele>
        <time>2012-04-05T15:44:13Z</time>
      </trkpt>
      <trkpt lat="43.41902" lon="2.10895">
        <ele>636</ele>
        <time>2012-04-05T15:44:15Z</time>
      </trkpt>
      <trkpt lat="43.41903" lon="2.10888">
        <ele>637</ele>
        <time>2012-04-05T15:44:17Z</time>
      </trkpt>
      <trkpt lat="43.41904" lon="2.1088">
        <ele>637</ele>
        <time>2012-04-05T15:44:19Z</time>
      </trkpt>
      <trkpt lat="43.41905" lon="2.10873">
        <ele>638</ele>
        <time>2012-04-05T15:44:21Z</time>
      </trkpt>
      <trkpt lat="43.41906" lon="2.10865">
        <ele>638</ele>
        <time>2012-04-05T15:44:23Z</time>
      </trkpt>
      <trkpt lat="43.41907" lon="2.10858">
        <ele>638</ele>
        <time>2012-04-05T15:44:25Z</time>
      </trkpt>
      <trkpt lat="43.41908" lon="2.10849">
        <ele>639</ele>
        <time>2012-04-05T15:44:27Z</time>
      </trkpt>
      <trkpt lat="43.41908" lon="2.1084">
        <ele>639</ele>
        <time>2012-04-05T15:44:29Z</time>
      </trkpt>
      <trkpt lat="43.41908" lon="2.10832">
        <ele>639</ele>
        <time>2012-04-05T15:44:31Z</time>
      </trkpt>
      <trkpt lat="43.41908" lon="2.10825">
        <ele>639</ele>
        <time>2012-04-05T15:44:33Z</time>
      </trkpt>
      <trkpt lat="43.41907" lon="2.10817">
        <ele>639</ele>
        <time>2012-04-05T15:44:35Z</time>
      </trkpt>
      <trkpt lat="43.41906" lon="2.1081">
        <ele>639</ele>
        <time>2012-04-05T15:44:37Z</time>
      </trkpt>
      <trkpt lat="43.41906" lon="2.10802">
        <ele>640</ele>
        <time>2012-04-05T15:44:39Z</time>
      </trkpt>
      <trkpt lat="43.41906" lon="2.10795">
        <ele>640</ele>
        <time>2012-04-05T15:44:41Z</time>
      </trkpt>
      <trkpt lat="43.41906" lon="2.10788">
        <ele>641</ele>
        <time>2012-04-05T15:44:43Z</time>
      </trkpt>
      <trkpt lat="43.41906" lon="2.1078">
        <ele>642</ele>
        <time>2012-04-05T15:44:45Z</time>
      </trkpt>
      <trkpt lat="43.41905" lon="2.10773">
        <ele>643</ele>
        <time>2012-04-05T15:44:47Z</time>
      </trkpt>
      <trkpt lat="43.41905" lon="2.10767">
        <ele>643</ele>
        <time>2012-04-05T15:44:49Z</time>
      </trkpt>
      <trkpt lat="43.41905" lon="2.10761">
        <ele>644</ele>
        <time>2012-04-05T15:44:51Z</time>
      </trkpt>
      <trkpt lat="43.41906" lon="2.10755">
        <ele>645</ele>
        <time>2012-04-05T15:44:53Z</time>
      </trkpt>
      <trkpt lat="43.41907" lon="2.1075">
        <ele>646</ele>
        <time>2012-04-05T15:44:55Z</time>
      </trkpt>
      <trkpt lat="43.41908" lon="2.10744">
        <ele>647</ele>
        <time>2012-04-05T15:44:57Z</time>
      </trkpt>
      <trkpt lat="43.41908" lon="2.10738">
        <ele>648</ele>
        <time>2012-04-05T15:44:59Z</time>
      </trkpt>
      <trkpt lat="43.41908" lon="2.10732">
        <ele>648</ele>
        <time>2012-04-05T15:45:01Z</time>
      </trkpt>
      <trkpt lat="43.41909" lon="2.10726">
        <ele>649</ele>
        <time>2012-04-05T15:45:03Z</time>
      </trkpt>
      <trkpt lat="43.41909" lon="2.1072">
        <ele>649</ele>
        <time>2012-04-05T15:45:05Z</time>
      </trkpt>
      <trkpt lat="43.4191" lon="2.10715">
        <ele>650</ele>
        <time>2012-04-05T15:45:07Z</time>
      </trkpt>
      <trkpt lat="43.4191" lon="2.10709">
        <ele>650</ele>
        <time>2012-04-05T15:45:09Z</time>
      </trkpt>
      <trkpt lat="43.41911" lon="2.10703">
        <ele>650</ele>
        <time>2012-04-05T15:45:11Z</time>
      </trkpt>
      <trkpt lat="43.41913" lon="2.10698">
        <ele>650</ele>
        <time>2012-04-05T15:45:13Z</time>
      </trkpt>
      <trkpt lat="43.41916" lon="2.10689">
        <ele>651</ele>
        <time>2012-04-05T15:45:16Z</time>
      </trkpt>
      <trkpt lat="43.41919" lon="2.10685">
        <ele>652</ele>
        <time>2012-04-05T15:45:18Z</time>
      </trkpt>
      <trkpt lat="43.41922" lon="2.10683">
        <ele>653</ele>
        <time>2012-04-05T15:45:20Z</time>
      </trkpt>
      <trkpt lat="43.41925" lon="2.10681">
        <ele>655</ele>
        <time>2012-04-05T15:45:22Z</time>
      </trkpt>
      <trkpt lat="43.41929" lon="2.10678">
        <ele>656</ele>
        <time>2012-04-05T15:45:24Z</time>
      </trkpt>
      <trkpt lat="43.41932" lon="2.10674">
        <ele>656</ele>
        <time>2012-04-05T15:45:26Z</time>
      </trkpt>
      <trkpt lat="43.41934" lon="2.1067">
        <ele>656</ele>
        <time>2012-04-05T15:45:28Z</time>
      </trkpt>
      <trkpt lat="43.41938" lon="2.10665">
        <ele>656</ele>
        <time>2012-04-05T15:45:31Z</time>
      </trkpt>
      <trkpt lat="43.41942" lon="2.10659">
        <ele>656</ele>
        <time>2012-04-05T15:45:34Z</time>
      </trkpt>
      <trkpt lat="43.41947" lon="2.10653">
        <ele>656</ele>
        <time>2012-04-05T15:45:37Z</time>
      </trkpt>
      <trkpt lat="43.4195" lon="2.10649">
        <ele>656</ele>
        <time>2012-04-05T15:45:39Z</time>
      </trkpt>
      <trkpt lat="43.41954" lon="2.10645">
        <ele>656</ele>
        <time>2012-04-05T15:45:41Z</time>
      </trkpt>
      <trkpt lat="43.41956" lon="2.1064">
        <ele>656</ele>
        <time>2012-04-05T15:45:43Z</time>
      </trkpt>
      <trkpt lat="43.41958" lon="2.10637">
        <ele>656</ele>
        <time>2012-04-05T15:45:45Z</time>
      </trkpt>
      <trkpt lat="43.4196" lon="2.10634">
        <ele>656</ele>
        <time>2012-04-05T15:45:47Z</time>
      </trkpt>
      <trkpt lat="43.41964" lon="2.10629">
        <ele>656</ele>
        <time>2012-04-05T15:45:50Z</time>
      </trkpt>
      <trkpt lat="43.41968" lon="2.1062">
        <ele>656</ele>
        <time>2012-04-05T15:45:53Z</time>
      </trkpt>
      <trkpt lat="43.4197" lon="2.10613">
        <ele>656</ele>
        <time>2012-04-05T15:45:55Z</time>
      </trkpt>
      <trkpt lat="43.41975" lon="2.10604">
        <ele>657</ele>
        <time>2012-04-05T15:45:58Z</time>
      </trkpt>
      <trkpt lat="43.4198" lon="2.10598">
        <ele>659</ele>
        <time>2012-04-05T15:46:00Z</time>
      </trkpt>
      <trkpt lat="43.41984" lon="2.10592">
        <ele>660</ele>
        <time>2012-04-05T15:46:02Z</time>
      </trkpt>
      <trkpt lat="43.41988" lon="2.10583">
        <ele>662</ele>
        <time>2012-04-05T15:46:05Z</time>
      </trkpt>
      <trkpt lat="43.41993" lon="2.10574">
        <ele>663</ele>
        <time>2012-04-05T15:46:08Z</time>
      </trkpt>
      <trkpt lat="43.41996" lon="2.10567">
        <ele>663</ele>
        <time>2012-04-05T15:46:10Z</time>
      </trkpt>
      <trkpt lat="43.42001" lon="2.10558">
        <ele>663</ele>
        <time>2012-04-05T15:46:13Z</time>
      </trkpt>
      <trkpt lat="43.42005" lon="2.10551">
        <ele>663</ele>
        <time>2012-04-05T15:46:15Z</time>
      </trkpt>
      <trkpt lat="43.42009" lon="2.10542">
        <ele>663</ele>
        <time>2012-04-05T15:46:18Z</time>
      </trkpt>
      <trkpt lat="43.42014" lon="2.10532">
        <ele>664</ele>
        <time>2012-04-05T15:46:21Z</time>
      </trkpt>
      <trkpt lat="43.42018" lon="2.10526">
        <ele>664</ele>
        <time>2012-04-05T15:46:23Z</time>
      </trkpt>
      <trkpt lat="43.42023" lon="2.10519">
        <ele>664</ele>
        <time>2012-04-05T15:46:25Z</time>
      </trkpt>
      <trkpt lat="43.4203" lon="2.10507">
        <ele>664</ele>
        <time>2012-04-05T15:46:28Z</time>
      </trkpt>
      <trkpt lat="43.42034" lon="2.10499">
        <ele>664</ele>
        <time>2012-04-05T15:46:30Z</time>
      </trkpt>
      <trkpt lat="43.42037" lon="2.10492">
        <ele>664</ele>
        <time>2012-04-05T15:46:32Z</time>
      </trkpt>
      <trkpt lat="43.42041" lon="2.10483">
        <ele>664</ele>
        <time>2012-04-05T15:46:34Z</time>
      </trkpt>
      <trkpt lat="43.42046" lon="2.10474">
        <ele>664</ele>
        <time>2012-04-05T15:46:36Z</time>
      </trkpt>
      <trkpt lat="43.42051" lon="2.10465">
        <ele>664</ele>
        <time>2012-04-05T15:46:38Z</time>
      </trkpt>
      <trkpt lat="43.42058" lon="2.1045">
        <ele>664</ele>
        <time>2012-04-05T15:46:41Z</time>
      </trkpt>
      <trkpt lat="43.42063" lon="2.10439">
        <ele>664</ele>
        <time>2012-04-05T15:46:43Z</time>
      </trkpt>
      <trkpt lat="43.42067" lon="2.10427">
        <ele>664</ele>
        <time>2012-04-05T15:46:45Z</time>
      </trkpt>
      <trkpt lat="43.42073" lon="2.10415">
        <ele>664</ele>
        <time>2012-04-05T15:46:47Z</time>
      </trkpt>
      <trkpt lat="43.42079" lon="2.10401">
        <ele>664</ele>
        <time>2012-04-05T15:46:49Z</time>
      </trkpt>
      <trkpt lat="43.42088" lon="2.10378">
        <ele>664</ele>
        <time>2012-04-05T15:46:52Z</time>
      </trkpt>
      <trkpt lat="43.42095" lon="2.10364">
        <ele>664</ele>
        <time>2012-04-05T15:46:54Z</time>
      </trkpt>
      <trkpt lat="43.42104" lon="2.10352">
        <ele>663</ele>
        <time>2012-04-05T15:46:57Z</time>
      </trkpt>
      <trkpt lat="43.42109" lon="2.10354">
        <ele>663</ele>
        <time>2012-04-05T15:46:59Z</time>
      </trkpt>
      <trkpt lat="43.42111" lon="2.10359">
        <ele>663</ele>
        <time>2012-04-05T15:47:01Z</time>
      </trkpt>
      <trkpt lat="43.42116" lon="2.10364">
        <ele>663</ele>
        <time>2012-04-05T15:47:04Z</time>
      </trkpt>
      <trkpt lat="43.42123" lon="2.10373">
        <ele>662</ele>
        <time>2012-04-05T15:47:07Z</time>
      </trkpt>
      <trkpt lat="43.42127" lon="2.10379">
        <ele>662</ele>
        <time>2012-04-05T15:47:09Z</time>
      </trkpt>
      <trkpt lat="43.42134" lon="2.10389">
        <ele>661</ele>
        <time>2012-04-05T15:47:12Z</time>
      </trkpt>
      <trkpt lat="43.42141" lon="2.10399">
        <ele>661</ele>
        <time>2012-04-05T15:47:15Z</time>
      </trkpt>
      <trkpt lat="43.42149" lon="2.10408">
        <ele>661</ele>
        <time>2012-04-05T15:47:18Z</time>
      </trkpt>
      <trkpt lat="43.42154" lon="2.10414">
        <ele>661</ele>
        <time>2012-04-05T15:47:20Z</time>
      </trkpt>
      <trkpt lat="43.4216" lon="2.10416">
        <ele>661</ele>
        <time>2012-04-05T15:47:22Z</time>
      </trkpt>
      <trkpt lat="43.42166" lon="2.10416">
        <ele>661</ele>
        <time>2012-04-05T15:47:24Z</time>
      </trkpt>
      <trkpt lat="43.42175" lon="2.10414">
        <ele>661</ele>
        <time>2012-04-05T15:47:27Z</time>
      </trkpt>
      <trkpt lat="43.42184" lon="2.10409">
        <ele>661</ele>
        <time>2012-04-05T15:47:30Z</time>
      </trkpt>
      <trkpt lat="43.42188" lon="2.10406">
        <ele>661</ele>
        <time>2012-04-05T15:47:32Z</time>
      </trkpt>
      <trkpt lat="43.42193" lon="2.10404">
        <ele>661</ele>
        <time>2012-04-05T15:47:34Z</time>
      </trkpt>
      <trkpt lat="43.42197" lon="2.10401">
        <ele>661</ele>
        <time>2012-04-05T15:47:36Z</time>
      </trkpt>
      <trkpt lat="43.42202" lon="2.10398">
        <ele>661</ele>
        <time>2012-04-05T15:47:38Z</time>
      </trkpt>
      <trkpt lat="43.42207" lon="2.10394">
        <ele>661</ele>
        <time>2012-04-05T15:47:41Z</time>
      </trkpt>
      <trkpt lat="43.42211" lon="2.10392">
        <ele>661</ele>
        <time>2012-04-05T15:47:43Z</time>
      </trkpt>
      <trkpt lat="43.4222" lon="2.10389">
        <ele>661</ele>
        <time>2012-04-05T15:47:46Z</time>
      </trkpt>
      <trkpt lat="43.42226" lon="2.10388">
        <ele>661</ele>
        <time>2012-04-05T15:47:48Z</time>
      </trkpt>
      <trkpt lat="43.42235" lon="2.10387">
        <ele>661</ele>
        <time>2012-04-05T15:47:51Z</time>
      </trkpt>
      <trkpt lat="43.42242" lon="2.10387">
        <ele>661</ele>
        <time>2012-04-05T15:47:54Z</time>
      </trkpt>
      <trkpt lat="43.42251" lon="2.10387">
        <ele>661</ele>
        <time>2012-04-05T15:47:57Z</time>
      </trkpt>
      <trkpt lat="43.42256" lon="2.10387">
        <ele>661</ele>
        <time>2012-04-05T15:47:59Z</time>
      </trkpt>
      <trkpt lat="43.42266" lon="2.1039">
        <ele>661</ele>
        <time>2012-04-05T15:48:02Z</time>
      </trkpt>
      <trkpt lat="43.42273" lon="2.10393">
        <ele>661</ele>
        <time>2012-04-05T15:48:04Z</time>
      </trkpt>
      <trkpt lat="43.42285" lon="2.10399">
        <ele>661</ele>
        <time>2012-04-05T15:48:07Z</time>
      </trkpt>
      <trkpt lat="43.42292" lon="2.10405">
        <ele>661</ele>
        <time>2012-04-05T15:48:09Z</time>
      </trkpt>
      <trkpt lat="43.423" lon="2.10412">
        <ele>661</ele>
        <time>2012-04-05T15:48:11Z</time>
      </trkpt>
      <trkpt lat="43.42307" lon="2.10418">
        <ele>661</ele>
        <time>2012-04-05T15:48:13Z</time>
      </trkpt>
      <trkpt lat="43.42319" lon="2.10428">
        <ele>661</ele>
        <time>2012-04-05T15:48:16Z</time>
      </trkpt>
      <trkpt lat="43.42326" lon="2.10436">
        <ele>661</ele>
        <time>2012-04-05T15:48:18Z</time>
      </trkpt>
      <trkpt lat="43.42335" lon="2.10444">
        <ele>661</ele>
        <time>2012-04-05T15:48:20Z</time>
      </trkpt>
      <trkpt lat="43.42347" lon="2.10456">
        <ele>663</ele>
        <time>2012-04-05T15:48:23Z</time>
      </trkpt>
      <trkpt lat="43.42354" lon="2.10466">
        <ele>663</ele>
        <time>2012-04-05T15:48:25Z</time>
      </trkpt>
      <trkpt lat="43.42359" lon="2.10473">
        <ele>664</ele>
        <time>2012-04-05T15:48:27Z</time>
      </trkpt>
      <trkpt lat="43.42366" lon="2.10486">
        <ele>664</ele>
        <time>2012-04-05T15:48:30Z</time>
      </trkpt>
      <trkpt lat="43.4237" lon="2.10494">
        <ele>665</ele>
        <time>2012-04-05T15:48:32Z</time>
      </trkpt>
      <trkpt lat="43.42374" lon="2.10502">
        <ele>665</ele>
        <time>2012-04-05T15:48:34Z</time>
      </trkpt>
      <trkpt lat="43.42378" lon="2.10511">
        <ele>665</ele>
        <time>2012-04-05T15:48:36Z</time>
      </trkpt>
      <trkpt lat="43.42384" lon="2.10524">
        <ele>665</ele>
        <time>2012-04-05T15:48:39Z</time>
      </trkpt>
      <trkpt lat="43.42388" lon="2.10533">
        <ele>665</ele>
        <time>2012-04-05T15:48:41Z</time>
      </trkpt>
      <trkpt lat="43.42392" lon="2.10542">
        <ele>665</ele>
        <time>2012-04-05T15:48:43Z</time>
      </trkpt>
      <trkpt lat="43.42398" lon="2.10555">
        <ele>665</ele>
        <time>2012-04-05T15:48:46Z</time>
      </trkpt>
      <trkpt lat="43.42403" lon="2.10561">
        <ele>666</ele>
        <time>2012-04-05T15:48:48Z</time>
      </trkpt>
      <trkpt lat="43.42408" lon="2.10568">
        <ele>667</ele>
        <time>2012-04-05T15:48:50Z</time>
      </trkpt>
      <trkpt lat="43.42413" lon="2.10573">
        <ele>667</ele>
        <time>2012-04-05T15:48:52Z</time>
      </trkpt>
      <trkpt lat="43.42421" lon="2.10582">
        <ele>667</ele>
        <time>2012-04-05T15:48:55Z</time>
      </trkpt>
      <trkpt lat="43.42427" lon="2.10589">
        <ele>667</ele>
        <time>2012-04-05T15:48:57Z</time>
      </trkpt>
      <trkpt lat="43.42437" lon="2.10598">
        <ele>667</ele>
        <time>2012-04-05T15:49:00Z</time>
      </trkpt>
      <trkpt lat="43.42442" lon="2.10604">
        <ele>667</ele>
        <time>2012-04-05T15:49:02Z</time>
      </trkpt>
      <trkpt lat="43.42452" lon="2.10614">
        <ele>667</ele>
        <time>2012-04-05T15:49:05Z</time>
      </trkpt>
      <trkpt lat="43.42459" lon="2.10619">
        <ele>667</ele>
        <time>2012-04-05T15:49:07Z</time>
      </trkpt>
      <trkpt lat="43.42468" lon="2.10625">
        <ele>668</ele>
        <time>2012-04-05T15:49:10Z</time>
      </trkpt>
      <trkpt lat="43.42474" lon="2.1063">
        <ele>669</ele>
        <time>2012-04-05T15:49:12Z</time>
      </trkpt>
      <trkpt lat="43.42484" lon="2.10637">
        <ele>669</ele>
        <time>2012-04-05T15:49:15Z</time>
      </trkpt>
      <trkpt lat="43.42491" lon="2.10643">
        <ele>669</ele>
        <time>2012-04-05T15:49:17Z</time>
      </trkpt>
      <trkpt lat="43.42499" lon="2.10648">
        <ele>669</ele>
        <time>2012-04-05T15:49:19Z</time>
      </trkpt>
      <trkpt lat="43.42513" lon="2.10656">
        <ele>669</ele>
        <time>2012-04-05T15:49:22Z</time>
      </trkpt>
      <trkpt lat="43.42525" lon="2.10662">
        <ele>669</ele>
        <time>2012-04-05T15:49:25Z</time>
      </trkpt>
      <trkpt lat="43.42534" lon="2.10666">
        <ele>669</ele>
        <time>2012-04-05T15:49:27Z</time>
      </trkpt>
      <trkpt lat="43.42548" lon="2.10672">
        <ele>669</ele>
        <time>2012-04-05T15:49:30Z</time>
      </trkpt>
      <trkpt lat="43.4256" lon="2.10678">
        <ele>669</ele>
        <time>2012-04-05T15:49:33Z</time>
      </trkpt>
      <trkpt lat="43.42574" lon="2.10682">
        <ele>669</ele>
        <time>2012-04-05T15:49:36Z</time>
      </trkpt>
      <trkpt lat="43.42583" lon="2.10685">
        <ele>669</ele>
        <time>2012-04-05T15:49:38Z</time>
      </trkpt>
      <trkpt lat="43.42596" lon="2.10689">
        <ele>669</ele>
        <time>2012-04-05T15:49:41Z</time>
      </trkpt>
      <trkpt lat="43.42604" lon="2.1069">
        <ele>669</ele>
        <time>2012-04-05T15:49:43Z</time>
      </trkpt>
      <trkpt lat="43.42615" lon="2.1069">
        <ele>669</ele>
        <time>2012-04-05T15:49:45Z</time>
      </trkpt>
      <trkpt lat="43.42631" lon="2.1069">
        <ele>669</ele>
        <time>2012-04-05T15:49:48Z</time>
      </trkpt>
      <trkpt lat="43.42643" lon="2.10692">
        <ele>669</ele>
        <time>2012-04-05T15:49:50Z</time>
      </trkpt>
      <trkpt lat="43.42661" lon="2.10696">
        <ele>669</ele>
        <time>2012-04-05T15:49:53Z</time>
      </trkpt>
      <trkpt lat="43.42678" lon="2.10702">
        <ele>669</ele>
        <time>2012-04-05T15:49:56Z</time>
      </trkpt>
      <trkpt lat="43.42688" lon="2.10707">
        <ele>669</ele>
        <time>2012-04-05T15:49:58Z</time>
      </trkpt>
      <trkpt lat="43.42704" lon="2.10718">
        <ele>669</ele>
        <time>2012-04-05T15:50:01Z</time>
      </trkpt>
      <trkpt lat="43.42714" lon="2.10725">
        <ele>669</ele>
        <time>2012-04-05T15:50:03Z</time>
      </trkpt>
      <trkpt lat="43.42728" lon="2.10736">
        <ele>669</ele>
        <time>2012-04-05T15:50:06Z</time>
      </trkpt>
      <trkpt lat="43.42736" lon="2.10742">
        <ele>669</ele>
        <time>2012-04-05T15:50:08Z</time>
      </trkpt>
      <trkpt lat="43.42745" lon="2.10747">
        <ele>669</ele>
        <time>2012-04-05T15:50:10Z</time>
      </trkpt>
      <trkpt lat="43.42757" lon="2.10756">
        <ele>669</ele>
        <time>2012-04-05T15:50:13Z</time>
      </trkpt>
      <trkpt lat="43.42764" lon="2.10761">
        <ele>669</ele>
        <time>2012-04-05T15:50:15Z</time>
      </trkpt>
      <trkpt lat="43.42771" lon="2.10768">
        <ele>669</ele>
        <time>2012-04-05T15:50:17Z</time>
      </trkpt>
      <trkpt lat="43.42778" lon="2.10773">
        <ele>669</ele>
        <time>2012-04-05T15:50:19Z</time>
      </trkpt>
      <trkpt lat="43.42789" lon="2.10782">
        <ele>669</ele>
        <time>2012-04-05T15:50:22Z</time>
      </trkpt>
      <trkpt lat="43.42799" lon="2.10792">
        <ele>670</ele>
        <time>2012-04-05T15:50:25Z</time>
      </trkpt>
      <trkpt lat="43.42804" lon="2.10796">
        <ele>671</ele>
        <time>2012-04-05T15:50:27Z</time>
      </trkpt>
      <trkpt lat="43.42807" lon="2.10799">
        <ele>672</ele>
        <time>2012-04-05T15:50:29Z</time>
      </trkpt>
      <trkpt lat="43.42812" lon="2.10803">
        <ele>673</ele>
        <time>2012-04-05T15:50:31Z</time>
      </trkpt>
      <trkpt lat="43.42822" lon="2.1081">
        <ele>674</ele>
        <time>2012-04-05T15:50:34Z</time>
      </trkpt>
      <trkpt lat="43.42829" lon="2.10814">
        <ele>675</ele>
        <time>2012-04-05T15:50:36Z</time>
      </trkpt>
      <trkpt lat="43.42835" lon="2.10819">
        <ele>675</ele>
        <time>2012-04-05T15:50:38Z</time>
      </trkpt>
      <trkpt lat="43.42842" lon="2.10824">
        <ele>676</ele>
        <time>2012-04-05T15:50:40Z</time>
      </trkpt>
      <trkpt lat="43.42851" lon="2.1083">
        <ele>676</ele>
        <time>2012-04-05T15:50:43Z</time>
      </trkpt>
      <trkpt lat="43.42858" lon="2.10836">
        <ele>677</ele>
        <time>2012-04-05T15:50:45Z</time>
      </trkpt>
      <trkpt lat="43.42864" lon="2.10841">
        <ele>677</ele>
        <time>2012-04-05T15:50:47Z</time>
      </trkpt>
      <trkpt lat="43.42871" lon="2.10846">
        <ele>677</ele>
        <time>2012-04-05T15:50:49Z</time>
      </trkpt>
      <trkpt lat="43.42877" lon="2.10851">
        <ele>677</ele>
        <time>2012-04-05T15:50:51Z</time>
      </trkpt>
      <trkpt lat="43.42888" lon="2.10859">
        <ele>677</ele>
        <time>2012-04-05T15:50:54Z</time>
      </trkpt>
      <trkpt lat="43.42894" lon="2.10865">
        <ele>677</ele>
        <time>2012-04-05T15:50:56Z</time>
      </trkpt>
      <trkpt lat="43.429" lon="2.10871">
        <ele>677</ele>
        <time>2012-04-05T15:50:58Z</time>
      </trkpt>
      <trkpt lat="43.42908" lon="2.10876">
        <ele>677</ele>
        <time>2012-04-05T15:51:00Z</time>
      </trkpt>
      <trkpt lat="43.42914" lon="2.10882">
        <ele>677</ele>
        <time>2012-04-05T15:51:02Z</time>
      </trkpt>
      <trkpt lat="43.42925" lon="2.1089">
        <ele>678</ele>
        <time>2012-04-05T15:51:05Z</time>
      </trkpt>
      <trkpt lat="43.42932" lon="2.10895">
        <ele>678</ele>
        <time>2012-04-05T15:51:07Z</time>
      </trkpt>
      <trkpt lat="43.42942" lon="2.10902">
        <ele>678</ele>
        <time>2012-04-05T15:51:10Z</time>
      </trkpt>
      <trkpt lat="43.42949" lon="2.10906">
        <ele>678</ele>
        <time>2012-04-05T15:51:12Z</time>
      </trkpt>
      <trkpt lat="43.42956" lon="2.10908">
        <ele>678</ele>
        <time>2012-04-05T15:51:14Z</time>
      </trkpt>
      <trkpt lat="43.42965" lon="2.10909">
        <ele>678</ele>
        <time>2012-04-05T15:51:17Z</time>
      </trkpt>
      <trkpt lat="43.42973" lon="2.10907">
        <ele>678</ele>
        <time>2012-04-05T15:51:19Z</time>
      </trkpt>
      <trkpt lat="43.42983" lon="2.10903">
        <ele>678</ele>
        <time>2012-04-05T15:51:22Z</time>
      </trkpt>
      <trkpt lat="43.42991" lon="2.10902">
        <ele>678</ele>
        <time>2012-04-05T15:51:24Z</time>
      </trkpt>
      <trkpt lat="43.42999" lon="2.10903">
        <ele>678</ele>
        <time>2012-04-05T15:51:26Z</time>
      </trkpt>
      <trkpt lat="43.43007" lon="2.10907">
        <ele>678</ele>
        <time>2012-04-05T15:51:28Z</time>
      </trkpt>
      <trkpt lat="43.43015" lon="2.10915">
        <ele>678</ele>
        <time>2012-04-05T15:51:31Z</time>
      </trkpt>
      <trkpt lat="43.43021" lon="2.10924">
        <ele>678</ele>
        <time>2012-04-05T15:51:33Z</time>
      </trkpt>
      <trkpt lat="43.43029" lon="2.10933">
        <ele>679</ele>
        <time>2012-04-05T15:51:36Z</time>
      </trkpt>
      <trkpt lat="43.43036" lon="2.10937">
        <ele>679</ele>
        <time>2012-04-05T15:51:38Z</time>
      </trkpt>
      <trkpt lat="43.43047" lon="2.1094">
        <ele>679</ele>
        <time>2012-04-05T15:51:41Z</time>
      </trkpt>
      <trkpt lat="43.43055" lon="2.10939">
        <ele>679</ele>
        <time>2012-04-05T15:51:43Z</time>
      </trkpt>
      <trkpt lat="43.43066" lon="2.10935">
        <ele>679</ele>
        <time>2012-04-05T15:51:46Z</time>
      </trkpt>
      <trkpt lat="43.43073" lon="2.10935">
        <ele>679</ele>
        <time>2012-04-05T15:51:48Z</time>
      </trkpt>
      <trkpt lat="43.43084" lon="2.1094">
        <ele>679</ele>
        <time>2012-04-05T15:51:51Z</time>
      </trkpt>
      <trkpt lat="43.4309" lon="2.10946">
        <ele>679</ele>
        <time>2012-04-05T15:51:53Z</time>
      </trkpt>
      <trkpt lat="43.43097" lon="2.10959">
        <ele>681</ele>
        <time>2012-04-05T15:51:56Z</time>
      </trkpt>
      <trkpt lat="43.43099" lon="2.10968">
        <ele>682</ele>
        <time>2012-04-05T15:51:58Z</time>
      </trkpt>
      <trkpt lat="43.43103" lon="2.10984">
        <ele>684</ele>
        <time>2012-04-05T15:52:01Z</time>
      </trkpt>
      <trkpt lat="43.43105" lon="2.10994">
        <ele>685</ele>
        <time>2012-04-05T15:52:03Z</time>
      </trkpt>
      <trkpt lat="43.43107" lon="2.11004">
        <ele>685</ele>
        <time>2012-04-05T15:52:05Z</time>
      </trkpt>
      <trkpt lat="43.43108" lon="2.11015">
        <ele>685</ele>
        <time>2012-04-05T15:52:07Z</time>
      </trkpt>
      <trkpt lat="43.4311" lon="2.11025">
        <ele>686</ele>
        <time>2012-04-05T15:52:09Z</time>
      </trkpt>
      <trkpt lat="43.43111" lon="2.11041">
        <ele>686</ele>
        <time>2012-04-05T15:52:12Z</time>
      </trkpt>
      <trkpt lat="43.43113" lon="2.11059">
        <ele>686</ele>
        <time>2012-04-05T15:52:15Z</time>
      </trkpt>
      <trkpt lat="43.43115" lon="2.11078">
        <ele>686</ele>
        <time>2012-04-05T15:52:18Z</time>
      </trkpt>
      <trkpt lat="43.43117" lon="2.11098">
        <ele>686</ele>
        <time>2012-04-05T15:52:21Z</time>
      </trkpt>
      <trkpt lat="43.43116" lon="2.11111">
        <ele>686</ele>
        <time>2012-04-05T15:52:23Z</time>
      </trkpt>
      <trkpt lat="43.43117" lon="2.11126">
        <ele>687</ele>
        <time>2012-04-05T15:52:25Z</time>
      </trkpt>
      <trkpt lat="43.43119" lon="2.11147">
        <ele>688</ele>
        <time>2012-04-05T15:52:28Z</time>
      </trkpt>
      <trkpt lat="43.4312" lon="2.11161">
        <ele>688</ele>
        <time>2012-04-05T15:52:30Z</time>
      </trkpt>
      <trkpt lat="43.4312" lon="2.11182">
        <ele>688</ele>
        <time>2012-04-05T15:52:33Z</time>
      </trkpt>
      <trkpt lat="43.43121" lon="2.11194">
        <ele>688</ele>
        <time>2012-04-05T15:52:35Z</time>
      </trkpt>
      <trkpt lat="43.43124" lon="2.11209">
        <ele>688</ele>
        <time>2012-04-05T15:52:37Z</time>
      </trkpt>
      <trkpt lat="43.43127" lon="2.11222">
        <ele>688</ele>
        <time>2012-04-05T15:52:39Z</time>
      </trkpt>
      <trkpt lat="43.43129" lon="2.11241">
        <ele>689</ele>
        <time>2012-04-05T15:52:42Z</time>
      </trkpt>
      <trkpt lat="43.43128" lon="2.11254">
        <ele>691</ele>
        <time>2012-04-05T15:52:44Z</time>
      </trkpt>
      <trkpt lat="43.4313" lon="2.11268">
        <ele>693</ele>
        <time>2012-04-05T15:52:46Z</time>
      </trkpt>
      <trkpt lat="43.43133" lon="2.11292">
        <ele>694</ele>
        <time>2012-04-05T15:52:49Z</time>
      </trkpt>
      <trkpt lat="43.43136" lon="2.11317">
        <ele>696</ele>
        <time>2012-04-05T15:52:52Z</time>
      </trkpt>
      <trkpt lat="43.43139" lon="2.11335">
        <ele>696</ele>
        <time>2012-04-05T15:52:54Z</time>
      </trkpt>
      <trkpt lat="43.43141" lon="2.11354">
        <ele>696</ele>
        <time>2012-04-05T15:52:56Z</time>
      </trkpt>
      <trkpt lat="43.43142" lon="2.1137">
        <ele>696</ele>
        <time>2012-04-05T15:52:58Z</time>
      </trkpt>
      <trkpt lat="43.43143" lon="2.11386">
        <ele>696</ele>
        <time>2012-04-05T15:53:00Z</time>
      </trkpt>
      <trkpt lat="43.43147" lon="2.11406">
        <ele>696</ele>
        <time>2012-04-05T15:53:03Z</time>
      </trkpt>
      <trkpt lat="43.43149" lon="2.11421">
        <ele>694</ele>
        <time>2012-04-05T15:53:05Z</time>
      </trkpt>
      <trkpt lat="43.43156" lon="2.11444">
        <ele>693</ele>
        <time>2012-04-05T15:53:08Z</time>
      </trkpt>
      <trkpt lat="43.4316" lon="2.11459">
        <ele>693</ele>
        <time>2012-04-05T15:53:10Z</time>
      </trkpt>
      <trkpt lat="43.43163" lon="2.11475">
        <ele>693</ele>
        <time>2012-04-05T15:53:12Z</time>
      </trkpt>
      <trkpt lat="43.43165" lon="2.1149">
        <ele>692</ele>
        <time>2012-04-05T15:53:14Z</time>
      </trkpt>
      <trkpt lat="43.43168" lon="2.11505">
        <ele>690</ele>
        <time>2012-04-05T15:53:16Z</time>
      </trkpt>
      <trkpt lat="43.43173" lon="2.11521">
        <ele>688</ele>
        <time>2012-04-05T15:53:19Z</time>
      </trkpt>
      <trkpt lat="43.43176" lon="2.11534">
        <ele>687</ele>
        <time>2012-04-05T15:53:21Z</time>
      </trkpt>
      <trkpt lat="43.4318" lon="2.11555">
        <ele>686</ele>
        <time>2012-04-05T15:53:24Z</time>
      </trkpt>
      <trkpt lat="43.43181" lon="2.11566">
        <ele>686</ele>
        <time>2012-04-05T15:53:26Z</time>
      </trkpt>
      <trkpt lat="43.43183" lon="2.11576">
        <ele>685</ele>
        <time>2012-04-05T15:53:28Z</time>
      </trkpt>
      <trkpt lat="43.43186" lon="2.11584">
        <ele>685</ele>
        <time>2012-04-05T15:53:30Z</time>
      </trkpt>
      <trkpt lat="43.43189" lon="2.11589">
        <ele>685</ele>
        <time>2012-04-05T15:53:32Z</time>
      </trkpt>
      <trkpt lat="43.43197" lon="2.11584">
        <ele>684</ele>
        <time>2012-04-05T15:53:35Z</time>
      </trkpt>
      <trkpt lat="43.43202" lon="2.11577">
        <ele>683</ele>
        <time>2012-04-05T15:53:37Z</time>
      </trkpt>
      <trkpt lat="43.43208" lon="2.1156">
        <ele>682</ele>
        <time>2012-04-05T15:53:40Z</time>
      </trkpt>
      <trkpt lat="43.43214" lon="2.11548">
        <ele>681</ele>
        <time>2012-04-05T15:53:42Z</time>
      </trkpt>
      <trkpt lat="43.43219" lon="2.11535">
        <ele>680</ele>
        <time>2012-04-05T15:53:44Z</time>
      </trkpt>
      <trkpt lat="43.43226" lon="2.11522">
        <ele>680</ele>
        <time>2012-04-05T15:53:46Z</time>
      </trkpt>
      <trkpt lat="43.43233" lon="2.11507">
        <ele>679</ele>
        <time>2012-04-05T15:53:48Z</time>
      </trkpt>
      <trkpt lat="43.43245" lon="2.11487">
        <ele>678</ele>
        <time>2012-04-05T15:53:51Z</time>
      </trkpt>
      <trkpt lat="43.43253" lon="2.11473">
        <ele>678</ele>
        <time>2012-04-05T15:53:53Z</time>
      </trkpt>
      <trkpt lat="43.43266" lon="2.1145">
        <ele>678</ele>
        <time>2012-04-05T15:53:56Z</time>
      </trkpt>
      <trkpt lat="43.43275" lon="2.11433">
        <ele>678</ele>
        <time>2012-04-05T15:53:58Z</time>
      </trkpt>
      <trkpt lat="43.43288" lon="2.11407">
        <ele>678</ele>
        <time>2012-04-05T15:54:01Z</time>
      </trkpt>
      <trkpt lat="43.43297" lon="2.1139">
        <ele>678</ele>
        <time>2012-04-05T15:54:03Z</time>
      </trkpt>
      <trkpt lat="43.43306" lon="2.11371">
        <ele>678</ele>
        <time>2012-04-05T15:54:05Z</time>
      </trkpt>
      <trkpt lat="43.43323" lon="2.11345">
        <ele>678</ele>
        <time>2012-04-05T15:54:08Z</time>
      </trkpt>
      <trkpt lat="43.43341" lon="2.1132">
        <ele>677</ele>
        <time>2012-04-05T15:54:11Z</time>
      </trkpt>
      <trkpt lat="43.43353" lon="2.11303">
        <ele>676</ele>
        <time>2012-04-05T15:54:13Z</time>
      </trkpt>
      <trkpt lat="43.43372" lon="2.11279">
        <ele>676</ele>
        <time>2012-04-05T15:54:16Z</time>
      </trkpt>
      <trkpt lat="43.43384" lon="2.11263">
        <ele>675</ele>
        <time>2012-04-05T15:54:18Z</time>
      </trkpt>
      <trkpt lat="43.43393" lon="2.1125">
        <ele>675</ele>
        <time>2012-04-05T15:54:20Z</time>
      </trkpt>
      <trkpt lat="43.43397" lon="2.11245">
        <ele>675</ele>
        <time>2012-04-05T15:54:22Z</time>
      </trkpt>
      <trkpt lat="43.434" lon="2.11244">
        <ele>675</ele>
        <time>2012-04-05T15:54:24Z</time>
      </trkpt>
      <trkpt lat="43.43404" lon="2.11246">
        <ele>675</ele>
        <time>2012-04-05T15:54:27Z</time>
      </trkpt>
      <trkpt lat="43.43408" lon="2.11248">
        <ele>675</ele>
        <time>2012-04-05T15:54:29Z</time>
      </trkpt>
      <trkpt lat="43.43414" lon="2.11251">
        <ele>675</ele>
        <time>2012-04-05T15:54:32Z</time>
      </trkpt>
      <trkpt lat="43.43418" lon="2.11252">
        <ele>675</ele>
        <time>2012-04-05T15:54:34Z</time>
      </trkpt>
      <trkpt lat="43.43423" lon="2.11254">
        <ele>676</ele>
        <time>2012-04-05T15:54:37Z</time>
      </trkpt>
      <trkpt lat="43.43428" lon="2.11255">
        <ele>677</ele>
        <time>2012-04-05T15:54:39Z</time>
      </trkpt>
      <trkpt lat="43.43433" lon="2.11255">
        <ele>679</ele>
        <time>2012-04-05T15:54:42Z</time>
      </trkpt>
      <trkpt lat="43.43436" lon="2.11257">
        <ele>680</ele>
        <time>2012-04-05T15:54:44Z</time>
      </trkpt>
      <trkpt lat="43.43441" lon="2.1126">
        <ele>682</ele>
        <time>2012-04-05T15:54:47Z</time>
      </trkpt>
      <trkpt lat="43.43444" lon="2.11261">
        <ele>683</ele>
        <time>2012-04-05T15:54:49Z</time>
      </trkpt>
      <trkpt lat="43.43449" lon="2.11262">
        <ele>685</ele>
        <time>2012-04-05T15:54:52Z</time>
      </trkpt>
      <trkpt lat="43.43454" lon="2.11264">
        <ele>686</ele>
        <time>2012-04-05T15:54:55Z</time>
      </trkpt>
      <trkpt lat="43.4346" lon="2.11267">
        <ele>687</ele>
        <time>2012-04-05T15:54:58Z</time>
      </trkpt>
      <trkpt lat="43.43463" lon="2.11268">
        <ele>688</ele>
        <time>2012-04-05T15:55:00Z</time>
      </trkpt>
      <trkpt lat="43.43468" lon="2.11272">
        <ele>689</ele>
        <time>2012-04-05T15:55:03Z</time>
      </trkpt>
      <trkpt lat="43.43471" lon="2.11274">
        <ele>689</ele>
        <time>2012-04-05T15:55:05Z</time>
      </trkpt>
      <trkpt lat="43.43476" lon="2.11279">
        <ele>689</ele>
        <time>2012-04-05T15:55:08Z</time>
      </trkpt>
      <trkpt lat="43.43479" lon="2.11281">
        <ele>689</ele>
        <time>2012-04-05T15:55:10Z</time>
      </trkpt>
      <trkpt lat="43.43483" lon="2.11285">
        <ele>689</ele>
        <time>2012-04-05T15:55:13Z</time>
      </trkpt>
      <trkpt lat="43.43486" lon="2.11288">
        <ele>689</ele>
        <time>2012-04-05T15:55:15Z</time>
      </trkpt>
      <trkpt lat="43.43491" lon="2.11292">
        <ele>689</ele>
        <time>2012-04-05T15:55:18Z</time>
      </trkpt>
      <trkpt lat="43.43494" lon="2.11294">
        <ele>690</ele>
        <time>2012-04-05T15:55:20Z</time>
      </trkpt>
      <trkpt lat="43.43498" lon="2.11295">
        <ele>690</ele>
        <time>2012-04-05T15:55:23Z</time>
      </trkpt>
      <trkpt lat="43.43501" lon="2.11295">
        <ele>690</ele>
        <time>2012-04-05T15:55:25Z</time>
      </trkpt>
      <trkpt lat="43.43503" lon="2.11294">
        <ele>690</ele>
        <time>2012-04-05T15:55:28Z</time>
      </trkpt>
      <trkpt lat="43.43503" lon="2.11296">
        <ele>692</ele>
        <time>2012-04-05T15:55:41Z</time>
      </trkpt>
      <trkpt lat="43.43502" lon="2.113">
        <ele>692</ele>
        <time>2012-04-05T15:55:44Z</time>
      </trkpt>
      <trkpt lat="43.435" lon="2.11303">
        <ele>692</ele>
        <time>2012-04-05T15:55:46Z</time>
      </trkpt>
      <trkpt lat="43.43499" lon="2.11307">
        <ele>692</ele>
        <time>2012-04-05T15:55:48Z</time>
      </trkpt>
      <trkpt lat="43.435" lon="2.11314">
        <ele>692</ele>
        <time>2012-04-05T15:55:51Z</time>
      </trkpt>
      <trkpt lat="43.43503" lon="2.11318">
        <ele>692</ele>
        <time>2012-04-05T15:55:54Z</time>
      </trkpt>
      <trkpt lat="43.43506" lon="2.1132">
        <ele>692</ele>
        <time>2012-04-05T15:55:56Z</time>
      </trkpt>
      <trkpt lat="43.43511" lon="2.11322">
        <ele>692</ele>
        <time>2012-04-05T15:55:59Z</time>
      </trkpt>
      <trkpt lat="43.43515" lon="2.11322">
        <ele>692</ele>
        <time>2012-04-05T15:56:01Z</time>
      </trkpt>
      <trkpt lat="43.43519" lon="2.1132">
        <ele>692</ele>
        <time>2012-04-05T15:56:04Z</time>
      </trkpt>
      <trkpt lat="43.43522" lon="2.11317">
        <ele>692</ele>
        <time>2012-04-05T15:56:06Z</time>
      </trkpt>
      <trkpt lat="43.43526" lon="2.11312">
        <ele>692</ele>
        <time>2012-04-05T15:56:09Z</time>
      </trkpt>
      <trkpt lat="43.43528" lon="2.11308">
        <ele>692</ele>
        <time>2012-04-05T15:56:11Z</time>
      </trkpt>
      <trkpt lat="43.43531" lon="2.11301">
        <ele>692</ele>
        <time>2012-04-05T15:56:14Z</time>
      </trkpt>
      <trkpt lat="43.43531" lon="2.11297">
        <ele>692</ele>
        <time>2012-04-05T15:56:16Z</time>
      </trkpt>
      <trkpt lat="43.43528" lon="2.11292">
        <ele>692</ele>
        <time>2012-04-05T15:56:19Z</time>
      </trkpt>
      <trkpt lat="43.43525" lon="2.11289">
        <ele>692</ele>
        <time>2012-04-05T15:56:21Z</time>
      </trkpt>
      <trkpt lat="43.43523" lon="2.11284">
        <ele>692</ele>
        <time>2012-04-05T15:56:24Z</time>
      </trkpt>
      <trkpt lat="43.43521" lon="2.11281">
        <ele>692</ele>
        <time>2012-04-05T15:56:31Z</time>
      </trkpt>
      <trkpt lat="43.43523" lon="2.11278">
        <ele>692</ele>
        <time>2012-04-05T15:56:36Z</time>
      </trkpt>
      <trkpt lat="43.43524" lon="2.11276">
        <ele>692</ele>
        <time>2012-04-05T15:56:38Z</time>
      </trkpt>
      <trkpt lat="43.43522" lon="2.1127">
        <ele>692</ele>
        <time>2012-04-05T15:56:41Z</time>
      </trkpt>
      <trkpt lat="43.43519" lon="2.11268">
        <ele>692</ele>
        <time>2012-04-05T15:56:44Z</time>
      </trkpt>
      <trkpt lat="43.43516" lon="2.11268">
        <ele>692</ele>
        <time>2012-04-05T15:56:47Z</time>
      </trkpt>
      <trkpt lat="43.43515" lon="2.1127">
        <ele>692</ele>
        <time>2012-04-05T15:56:49Z</time>
      </trkpt>
      <trkpt lat="43.43513" lon="2.11274">
        <ele>692</ele>
        <time>2012-04-05T15:56:52Z</time>
      </trkpt>
      <trkpt lat="43.43512" lon="2.11275">
        <ele>692</ele>
        <time>2012-04-05T15:56:54Z</time>
      </trkpt>
      <trkpt lat="43.43512" lon="2.11277">
        <ele>692</ele>
        <time>2012-04-05T15:57:06Z</time>
      </trkpt>
      <trkpt lat="43.43512" lon="2.11278">
        <ele>692</ele>
        <time>2012-04-05T15:57:12Z</time>
      </trkpt>
      <trkpt lat="43.43512" lon="2.1128">
        <ele>692</ele>
        <time>2012-04-05T15:57:23Z</time>
      </trkpt>
      <trkpt lat="43.43511" lon="2.11281">
        <ele>692</ele>
        <time>2012-04-05T15:57:29Z</time>
      </trkpt>
      <trkpt lat="43.4351" lon="2.11282">
        <ele>692</ele>
        <time>2012-04-05T15:57:40Z</time>
      </trkpt>
      <trkpt lat="43.43511" lon="2.11281">
        <ele>692</ele>
        <time>2012-04-05T15:58:01Z</time>
      </trkpt>
      <trkpt lat="43.4351" lon="2.11279">
        <ele>692</ele>
        <time>2012-04-05T15:58:21Z</time>
      </trkpt>
      <trkpt lat="43.43511" lon="2.11278">
        <ele>692</ele>
        <time>2012-04-05T15:58:33Z</time>
      </trkpt>
      <trkpt lat="43.43511" lon="2.11279">
        <ele>692</ele>
        <time>2012-04-05T15:58:40Z</time>
      </trkpt>
      <trkpt lat="43.43512" lon="2.11278">
        <ele>692</ele>
        <time>2012-04-05T15:58:51Z</time>
      </trkpt>
      <trkpt lat="43.43512" lon="2.11276">
        <ele>692</ele>
        <time>2012-04-05T15:58:54Z</time>
      </trkpt>
      <trkpt lat="43.43513" lon="2.11276">
        <ele>690</ele>
        <time>2012-04-05T15:59:23Z</time>
      </trkpt>
      <trkpt lat="43.43513" lon="2.11274">
        <ele>690</ele>
        <time>2012-04-05T15:59:35Z</time>
      </trkpt>
      <trkpt lat="43.43512" lon="2.11273">
        <ele>690</ele>
        <time>2012-04-05T15:59:46Z</time>
      </trkpt>
      <trkpt lat="43.43513" lon="2.11272">
        <ele>692</ele>
        <time>2012-04-05T16:00:33Z</time>
      </trkpt>
      <trkpt lat="43.43513" lon="2.1127">
        <ele>690</ele>
        <time>2012-04-05T16:00:43Z</time>
      </trkpt>
      <trkpt lat="43.43512" lon="2.11268">
        <ele>689</ele>
        <time>2012-04-05T16:00:53Z</time>
      </trkpt>
      <trkpt lat="43.43511" lon="2.11268">
        <ele>689</ele>
        <time>2012-04-05T16:01:03Z</time>
      </trkpt>
      <trkpt lat="43.43512" lon="2.11269">
        <ele>689</ele>
        <time>2012-04-05T16:01:18Z</time>
      </trkpt>
      <trkpt lat="43.4351" lon="2.1127">
        <ele>692</ele>
        <time>2012-04-05T16:01:39Z</time>
      </trkpt>
      <trkpt lat="43.43511" lon="2.11271">
        <ele>692</ele>
        <time>2012-04-05T16:01:53Z</time>
      </trkpt>
      <trkpt lat="43.43512" lon="2.11271">
        <ele>692</ele>
        <time>2012-04-05T16:01:58Z</time>
      </trkpt>
      <trkpt lat="43.43511" lon="2.11272">
        <ele>691</ele>
        <time>2012-04-05T16:02:20Z</time>
      </trkpt>
      <trkpt lat="43.43511" lon="2.1127">
        <ele>691</ele>
        <time>2012-04-05T16:02:25Z</time>
      </trkpt>
      <trkpt lat="43.43512" lon="2.11265">
        <ele>691</ele>
        <time>2012-04-05T16:02:30Z</time>
      </trkpt>
      <trkpt lat="43.43511" lon="2.11262">
        <ele>691</ele>
        <time>2012-04-05T16:02:32Z</time>
      </trkpt>
      <trkpt lat="43.43512" lon="2.11247">
        <ele>691</ele>
        <time>2012-04-05T16:02:35Z</time>
      </trkpt>
      <trkpt lat="43.43513" lon="2.11236">
        <ele>691</ele>
        <time>2012-04-05T16:02:37Z</time>
      </trkpt>
      <trkpt lat="43.43518" lon="2.11229">
        <ele>691</ele>
        <time>2012-04-05T16:02:40Z</time>
      </trkpt>
      <trkpt lat="43.4352" lon="2.11222">
        <ele>690</ele>
        <time>2012-04-05T16:02:42Z</time>
      </trkpt>
      <trkpt lat="43.43522" lon="2.11211">
        <ele>689</ele>
        <time>2012-04-05T16:02:45Z</time>
      </trkpt>
      <trkpt lat="43.43523" lon="2.11198">
        <ele>687</ele>
        <time>2012-04-05T16:02:47Z</time>
      </trkpt>
      <trkpt lat="43.43526" lon="2.11172">
        <ele>684</ele>
        <time>2012-04-05T16:02:50Z</time>
      </trkpt>
      <trkpt lat="43.43528" lon="2.11153">
        <ele>682</ele>
        <time>2012-04-05T16:02:52Z</time>
      </trkpt>
      <trkpt lat="43.43528" lon="2.11133">
        <ele>679</ele>
        <time>2012-04-05T16:02:55Z</time>
      </trkpt>
      <trkpt lat="43.4353" lon="2.11123">
        <ele>678</ele>
        <time>2012-04-05T16:02:57Z</time>
      </trkpt>
      <trkpt lat="43.43538" lon="2.11117">
        <ele>677</ele>
        <time>2012-04-05T16:02:59Z</time>
      </trkpt>
      <trkpt lat="43.43549" lon="2.11109">
        <ele>676</ele>
        <time>2012-04-05T16:03:01Z</time>
      </trkpt>
      <trkpt lat="43.43562" lon="2.11099">
        <ele>674</ele>
        <time>2012-04-05T16:03:03Z</time>
      </trkpt>
      <trkpt lat="43.43577" lon="2.1109">
        <ele>672</ele>
        <time>2012-04-05T16:03:05Z</time>
      </trkpt>
      <trkpt lat="43.43597" lon="2.1108">
        <ele>670</ele>
        <time>2012-04-05T16:03:08Z</time>
      </trkpt>
      <trkpt lat="43.43612" lon="2.11073">
        <ele>669</ele>
        <time>2012-04-05T16:03:10Z</time>
      </trkpt>
      <trkpt lat="43.43627" lon="2.11066">
        <ele>666</ele>
        <time>2012-04-05T16:03:13Z</time>
      </trkpt>
      <trkpt lat="43.43637" lon="2.11065">
        <ele>663</ele>
        <time>2012-04-05T16:03:16Z</time>
      </trkpt>
      <trkpt lat="43.43641" lon="2.11065">
        <ele>661</ele>
        <time>2012-04-05T16:03:18Z</time>
      </trkpt>
      <trkpt lat="43.43643" lon="2.11062">
        <ele>659</ele>
        <time>2012-04-05T16:03:22Z</time>
      </trkpt>
      <trkpt lat="43.43644" lon="2.11062">
        <ele>659</ele>
        <time>2012-04-05T16:03:24Z</time>
      </trkpt>
      <trkpt lat="43.43647" lon="2.11061">
        <ele>659</ele>
        <time>2012-04-05T16:03:29Z</time>
      </trkpt>
      <trkpt lat="43.43646" lon="2.11061">
        <ele>659</ele>
        <time>2012-04-05T16:03:40Z</time>
      </trkpt>
      <trkpt lat="43.43645" lon="2.11063">
        <ele>659</ele>
        <time>2012-04-05T16:03:45Z</time>
      </trkpt>
      <trkpt lat="43.43646" lon="2.11064">
        <ele>661</ele>
        <time>2012-04-05T16:03:55Z</time>
      </trkpt>
      <trkpt lat="43.43648" lon="2.11062">
        <ele>662</ele>
        <time>2012-04-05T16:03:59Z</time>
      </trkpt>
      <trkpt lat="43.43653" lon="2.1106">
        <ele>662</ele>
        <time>2012-04-05T16:04:01Z</time>
      </trkpt>
      <trkpt lat="43.43657" lon="2.1106">
        <ele>662</ele>
        <time>2012-04-05T16:04:03Z</time>
      </trkpt>
      <trkpt lat="43.4366" lon="2.11067">
        <ele>662</ele>
        <time>2012-04-05T16:04:05Z</time>
      </trkpt>
      <trkpt lat="43.43661" lon="2.11084">
        <ele>662</ele>
        <time>2012-04-05T16:04:08Z</time>
      </trkpt>
      <trkpt lat="43.4366" lon="2.11098">
        <ele>662</ele>
        <time>2012-04-05T16:04:10Z</time>
      </trkpt>
      <trkpt lat="43.43659" lon="2.11113">
        <ele>662</ele>
        <time>2012-04-05T16:04:12Z</time>
      </trkpt>
      <trkpt lat="43.43661" lon="2.11127">
        <ele>661</ele>
        <time>2012-04-05T16:04:14Z</time>
      </trkpt>
      <trkpt lat="43.43663" lon="2.11141">
        <ele>660</ele>
        <time>2012-04-05T16:04:16Z</time>
      </trkpt>
      <trkpt lat="43.43666" lon="2.11154">
        <ele>659</ele>
        <time>2012-04-05T16:04:18Z</time>
      </trkpt>
      <trkpt lat="43.43671" lon="2.11166">
        <ele>658</ele>
        <time>2012-04-05T16:04:20Z</time>
      </trkpt>
      <trkpt lat="43.43676" lon="2.11178">
        <ele>658</ele>
        <time>2012-04-05T16:04:22Z</time>
      </trkpt>
      <trkpt lat="43.43681" lon="2.1119">
        <ele>658</ele>
        <time>2012-04-05T16:04:24Z</time>
      </trkpt>
      <trkpt lat="43.43685" lon="2.11202">
        <ele>658</ele>
        <time>2012-04-05T16:04:26Z</time>
      </trkpt>
      <trkpt lat="43.4369" lon="2.11212">
        <ele>658</ele>
        <time>2012-04-05T16:04:28Z</time>
      </trkpt>
      <trkpt lat="43.43694" lon="2.11221">
        <ele>658</ele>
        <time>2012-04-05T16:04:30Z</time>
      </trkpt>
      <trkpt lat="43.43696" lon="2.1123">
        <ele>658</ele>
        <time>2012-04-05T16:04:32Z</time>
      </trkpt>
      <trkpt lat="43.43699" lon="2.11239">
        <ele>658</ele>
        <time>2012-04-05T16:04:34Z</time>
      </trkpt>
      <trkpt lat="43.43701" lon="2.11247">
        <ele>658</ele>
        <time>2012-04-05T16:04:36Z</time>
      </trkpt>
      <trkpt lat="43.43705" lon="2.11261">
        <ele>659</ele>
        <time>2012-04-05T16:04:39Z</time>
      </trkpt>
      <trkpt lat="43.43707" lon="2.11269">
        <ele>660</ele>
        <time>2012-04-05T16:04:41Z</time>
      </trkpt>
      <trkpt lat="43.4371" lon="2.11276">
        <ele>661</ele>
        <time>2012-04-05T16:04:43Z</time>
      </trkpt>
      <trkpt lat="43.43714" lon="2.1128">
        <ele>661</ele>
        <time>2012-04-05T16:04:45Z</time>
      </trkpt>
      <trkpt lat="43.43721" lon="2.11282">
        <ele>662</ele>
        <time>2012-04-05T16:04:47Z</time>
      </trkpt>
      <trkpt lat="43.43726" lon="2.11282">
        <ele>663</ele>
        <time>2012-04-05T16:04:49Z</time>
      </trkpt>
      <trkpt lat="43.43732" lon="2.11283">
        <ele>664</ele>
        <time>2012-04-05T16:04:51Z</time>
      </trkpt>
      <trkpt lat="43.4374" lon="2.11282">
        <ele>665</ele>
        <time>2012-04-05T16:04:54Z</time>
      </trkpt>
      <trkpt lat="43.43746" lon="2.11281">
        <ele>666</ele>
        <time>2012-04-05T16:04:56Z</time>
      </trkpt>
      <trkpt lat="43.43753" lon="2.11277">
        <ele>667</ele>
        <time>2012-04-05T16:04:59Z</time>
      </trkpt>
      <trkpt lat="43.43758" lon="2.11274">
        <ele>668</ele>
        <time>2012-04-05T16:05:01Z</time>
      </trkpt>
      <trkpt lat="43.43766" lon="2.11269">
        <ele>668</ele>
        <time>2012-04-05T16:05:04Z</time>
      </trkpt>
      <trkpt lat="43.43771" lon="2.11265">
        <ele>669</ele>
        <time>2012-04-05T16:05:06Z</time>
      </trkpt>
      <trkpt lat="43.43777" lon="2.11256">
        <ele>672</ele>
        <time>2012-04-05T16:05:09Z</time>
      </trkpt>
      <trkpt lat="43.43783" lon="2.11249">
        <ele>672</ele>
        <time>2012-04-05T16:05:11Z</time>
      </trkpt>
      <trkpt lat="43.4379" lon="2.11239">
        <ele>672</ele>
        <time>2012-04-05T16:05:14Z</time>
      </trkpt>
      <trkpt lat="43.43795" lon="2.1123">
        <ele>673</ele>
        <time>2012-04-05T16:05:16Z</time>
      </trkpt>
      <trkpt lat="43.43805" lon="2.11214">
        <ele>673</ele>
        <time>2012-04-05T16:05:19Z</time>
      </trkpt>
      <trkpt lat="43.43809" lon="2.11205">
        <ele>673</ele>
        <time>2012-04-05T16:05:21Z</time>
      </trkpt>
      <trkpt lat="43.43816" lon="2.11195">
        <ele>673</ele>
        <time>2012-04-05T16:05:23Z</time>
      </trkpt>
      <trkpt lat="43.43822" lon="2.11184">
        <ele>673</ele>
        <time>2012-04-05T16:05:25Z</time>
      </trkpt>
      <trkpt lat="43.43831" lon="2.11169">
        <ele>673</ele>
        <time>2012-04-05T16:05:28Z</time>
      </trkpt>
      <trkpt lat="43.43839" lon="2.1116">
        <ele>673</ele>
        <time>2012-04-05T16:05:30Z</time>
      </trkpt>
      <trkpt lat="43.43845" lon="2.11151">
        <ele>673</ele>
        <time>2012-04-05T16:05:32Z</time>
      </trkpt>
      <trkpt lat="43.43853" lon="2.11142">
        <ele>673</ele>
        <time>2012-04-05T16:05:34Z</time>
      </trkpt>
      <trkpt lat="43.4386" lon="2.11134">
        <ele>673</ele>
        <time>2012-04-05T16:05:36Z</time>
      </trkpt>
      <trkpt lat="43.4387" lon="2.11122">
        <ele>674</ele>
        <time>2012-04-05T16:05:39Z</time>
      </trkpt>
      <trkpt lat="43.43877" lon="2.11115">
        <ele>675</ele>
        <time>2012-04-05T16:05:41Z</time>
      </trkpt>
      <trkpt lat="43.43886" lon="2.11103">
        <ele>675</ele>
        <time>2012-04-05T16:05:44Z</time>
      </trkpt>
      <trkpt lat="43.43892" lon="2.11093">
        <ele>675</ele>
        <time>2012-04-05T16:05:46Z</time>
      </trkpt>
      <trkpt lat="43.43901" lon="2.11079">
        <ele>675</ele>
        <time>2012-04-05T16:05:49Z</time>
      </trkpt>
      <trkpt lat="43.43905" lon="2.11068">
        <ele>675</ele>
        <time>2012-04-05T16:05:51Z</time>
      </trkpt>
      <trkpt lat="43.43908" lon="2.11057">
        <ele>675</ele>
        <time>2012-04-05T16:05:53Z</time>
      </trkpt>
      <trkpt lat="43.43909" lon="2.11047">
        <ele>676</ele>
        <time>2012-04-05T16:05:55Z</time>
      </trkpt>
      <trkpt lat="43.43911" lon="2.11039">
        <ele>677</ele>
        <time>2012-04-05T16:05:57Z</time>
      </trkpt>
      <trkpt lat="43.43914" lon="2.11028">
        <ele>677</ele>
        <time>2012-04-05T16:05:59Z</time>
      </trkpt>
      <trkpt lat="43.43914" lon="2.11017">
        <ele>677</ele>
        <time>2012-04-05T16:06:01Z</time>
      </trkpt>
      <trkpt lat="43.43914" lon="2.11003">
        <ele>677</ele>
        <time>2012-04-05T16:06:04Z</time>
      </trkpt>
      <trkpt lat="43.43913" lon="2.10992">
        <ele>678</ele>
        <time>2012-04-05T16:06:06Z</time>
      </trkpt>
      <trkpt lat="43.43913" lon="2.10975">
        <ele>678</ele>
        <time>2012-04-05T16:06:09Z</time>
      </trkpt>
      <trkpt lat="43.43912" lon="2.10963">
        <ele>678</ele>
        <time>2012-04-05T16:06:11Z</time>
      </trkpt>
      <trkpt lat="43.43918" lon="2.10947">
        <ele>680</ele>
        <time>2012-04-05T16:06:14Z</time>
      </trkpt>
      <trkpt lat="43.43925" lon="2.10946">
        <ele>680</ele>
        <time>2012-04-05T16:06:16Z</time>
      </trkpt>
      <trkpt lat="43.43939" lon="2.10949">
        <ele>680</ele>
        <time>2012-04-05T16:06:19Z</time>
      </trkpt>
      <trkpt lat="43.43948" lon="2.10951">
        <ele>680</ele>
        <time>2012-04-05T16:06:21Z</time>
      </trkpt>
      <trkpt lat="43.43961" lon="2.10953">
        <ele>680</ele>
        <time>2012-04-05T16:06:24Z</time>
      </trkpt>
      <trkpt lat="43.43969" lon="2.10954">
        <ele>680</ele>
        <time>2012-04-05T16:06:26Z</time>
      </trkpt>
      <trkpt lat="43.43977" lon="2.10954">
        <ele>680</ele>
        <time>2012-04-05T16:06:28Z</time>
      </trkpt>
      <trkpt lat="43.43985" lon="2.10953">
        <ele>680</ele>
        <time>2012-04-05T16:06:30Z</time>
      </trkpt>
      <trkpt lat="43.43993" lon="2.10952">
        <ele>680</ele>
        <time>2012-04-05T16:06:32Z</time>
      </trkpt>
      <trkpt lat="43.44001" lon="2.1095">
        <ele>680</ele>
        <time>2012-04-05T16:06:34Z</time>
      </trkpt>
      <trkpt lat="43.44009" lon="2.1095">
        <ele>680</ele>
        <time>2012-04-05T16:06:36Z</time>
      </trkpt>
      <trkpt lat="43.44019" lon="2.10951">
        <ele>680</ele>
        <time>2012-04-05T16:06:38Z</time>
      </trkpt>
      <trkpt lat="43.44029" lon="2.10952">
        <ele>680</ele>
        <time>2012-04-05T16:06:40Z</time>
      </trkpt>
      <trkpt lat="43.44039" lon="2.10954">
        <ele>680</ele>
        <time>2012-04-05T16:06:42Z</time>
      </trkpt>
      <trkpt lat="43.4405" lon="2.10957">
        <ele>680</ele>
        <time>2012-04-05T16:06:44Z</time>
      </trkpt>
      <trkpt lat="43.4406" lon="2.10961">
        <ele>680</ele>
        <time>2012-04-05T16:06:46Z</time>
      </trkpt>
      <trkpt lat="43.44076" lon="2.10966">
        <ele>680</ele>
        <time>2012-04-05T16:06:49Z</time>
      </trkpt>
      <trkpt lat="43.44086" lon="2.10971">
        <ele>680</ele>
        <time>2012-04-05T16:06:51Z</time>
      </trkpt>
      <trkpt lat="43.44101" lon="2.10978">
        <ele>680</ele>
        <time>2012-04-05T16:06:54Z</time>
      </trkpt>
      <trkpt lat="43.44109" lon="2.10982">
        <ele>680</ele>
        <time>2012-04-05T16:06:56Z</time>
      </trkpt>
      <trkpt lat="43.44122" lon="2.1099">
        <ele>680</ele>
        <time>2012-04-05T16:06:59Z</time>
      </trkpt>
      <trkpt lat="43.4413" lon="2.10998">
        <ele>680</ele>
        <time>2012-04-05T16:07:01Z</time>
      </trkpt>
      <trkpt lat="43.4414" lon="2.11015">
        <ele>680</ele>
        <time>2012-04-05T16:07:04Z</time>
      </trkpt>
      <trkpt lat="43.44143" lon="2.11028">
        <ele>680</ele>
        <time>2012-04-05T16:07:06Z</time>
      </trkpt>
      <trkpt lat="43.44147" lon="2.1105">
        <ele>680</ele>
        <time>2012-04-05T16:07:09Z</time>
      </trkpt>
      <trkpt lat="43.4415" lon="2.11066">
        <ele>680</ele>
        <time>2012-04-05T16:07:11Z</time>
      </trkpt>
      <trkpt lat="43.44152" lon="2.11094">
        <ele>679</ele>
        <time>2012-04-05T16:07:14Z</time>
      </trkpt>
      <trkpt lat="43.44152" lon="2.11115">
        <ele>677</ele>
        <time>2012-04-05T16:07:16Z</time>
      </trkpt>
      <trkpt lat="43.44144" lon="2.11143">
        <ele>676</ele>
        <time>2012-04-05T16:07:19Z</time>
      </trkpt>
      <trkpt lat="43.44135" lon="2.11162">
        <ele>675</ele>
        <time>2012-04-05T16:07:21Z</time>
      </trkpt>
      <trkpt lat="43.4412" lon="2.11189">
        <ele>674</ele>
        <time>2012-04-05T16:07:24Z</time>
      </trkpt>
      <trkpt lat="43.44109" lon="2.11207">
        <ele>673</ele>
        <time>2012-04-05T16:07:26Z</time>
      </trkpt>
      <trkpt lat="43.44098" lon="2.11225">
        <ele>672</ele>
        <time>2012-04-05T16:07:28Z</time>
      </trkpt>
      <trkpt lat="43.44088" lon="2.11243">
        <ele>672</ele>
        <time>2012-04-05T16:07:30Z</time>
      </trkpt>
      <trkpt lat="43.44079" lon="2.11261">
        <ele>672</ele>
        <time>2012-04-05T16:07:32Z</time>
      </trkpt>
      <trkpt lat="43.44072" lon="2.1128">
        <ele>671</ele>
        <time>2012-04-05T16:07:34Z</time>
      </trkpt>
      <trkpt lat="43.44071" lon="2.11301">
        <ele>669</ele>
        <time>2012-04-05T16:07:36Z</time>
      </trkpt>
      <trkpt lat="43.4408" lon="2.11319">
        <ele>667</ele>
        <time>2012-04-05T16:07:38Z</time>
      </trkpt>
      <trkpt lat="43.44094" lon="2.11325">
        <ele>665</ele>
        <time>2012-04-05T16:07:40Z</time>
      </trkpt>
      <trkpt lat="43.44111" lon="2.11324">
        <ele>663</ele>
        <time>2012-04-05T16:07:42Z</time>
      </trkpt>
      <trkpt lat="43.44126" lon="2.11326">
        <ele>661</ele>
        <time>2012-04-05T16:07:44Z</time>
      </trkpt>
      <trkpt lat="43.44141" lon="2.1133">
        <ele>660</ele>
        <time>2012-04-05T16:07:46Z</time>
      </trkpt>
      <trkpt lat="43.44155" lon="2.11333">
        <ele>660</ele>
        <time>2012-04-05T16:07:48Z</time>
      </trkpt>
      <trkpt lat="43.44169" lon="2.11334">
        <ele>660</ele>
        <time>2012-04-05T16:07:50Z</time>
      </trkpt>
      <trkpt lat="43.44183" lon="2.11333">
        <ele>660</ele>
        <time>2012-04-05T16:07:52Z</time>
      </trkpt>
      <trkpt lat="43.44199" lon="2.11334">
        <ele>659</ele>
        <time>2012-04-05T16:07:54Z</time>
      </trkpt>
      <trkpt lat="43.44215" lon="2.11337">
        <ele>658</ele>
        <time>2012-04-05T16:07:56Z</time>
      </trkpt>
      <trkpt lat="43.44231" lon="2.11344">
        <ele>656</ele>
        <time>2012-04-05T16:07:58Z</time>
      </trkpt>
      <trkpt lat="43.44247" lon="2.11353">
        <ele>656</ele>
        <time>2012-04-05T16:08:00Z</time>
      </trkpt>
      <trkpt lat="43.44263" lon="2.11365">
        <ele>654</ele>
        <time>2012-04-05T16:08:02Z</time>
      </trkpt>
      <trkpt lat="43.44277" lon="2.1138">
        <ele>653</ele>
        <time>2012-04-05T16:08:04Z</time>
      </trkpt>
      <trkpt lat="43.44292" lon="2.11396">
        <ele>651</ele>
        <time>2012-04-05T16:08:06Z</time>
      </trkpt>
      <trkpt lat="43.44305" lon="2.11415">
        <ele>650</ele>
        <time>2012-04-05T16:08:08Z</time>
      </trkpt>
      <trkpt lat="43.44313" lon="2.11438">
        <ele>649</ele>
        <time>2012-04-05T16:08:10Z</time>
      </trkpt>
      <trkpt lat="43.4432" lon="2.11462">
        <ele>648</ele>
        <time>2012-04-05T16:08:12Z</time>
      </trkpt>
      <trkpt lat="43.44327" lon="2.11487">
        <ele>648</ele>
        <time>2012-04-05T16:08:14Z</time>
      </trkpt>
      <trkpt lat="43.44334" lon="2.1151">
        <ele>647</ele>
        <time>2012-04-05T16:08:16Z</time>
      </trkpt>
      <trkpt lat="43.4434" lon="2.11534">
        <ele>646</ele>
        <time>2012-04-05T16:08:18Z</time>
      </trkpt>
      <trkpt lat="43.44344" lon="2.11557">
        <ele>645</ele>
        <time>2012-04-05T16:08:20Z</time>
      </trkpt>
      <trkpt lat="43.44351" lon="2.11583">
        <ele>644</ele>
        <time>2012-04-05T16:08:22Z</time>
      </trkpt>
      <trkpt lat="43.44354" lon="2.11612">
        <ele>644</ele>
        <time>2012-04-05T16:08:24Z</time>
      </trkpt>
      <trkpt lat="43.44356" lon="2.1164">
        <ele>644</ele>
        <time>2012-04-05T16:08:26Z</time>
      </trkpt>
      <trkpt lat="43.44361" lon="2.11682">
        <ele>644</ele>
        <time>2012-04-05T16:08:29Z</time>
      </trkpt>
      <trkpt lat="43.44366" lon="2.1171">
        <ele>644</ele>
        <time>2012-04-05T16:08:31Z</time>
      </trkpt>
      <trkpt lat="43.44367" lon="2.11737">
        <ele>642</ele>
        <time>2012-04-05T16:08:33Z</time>
      </trkpt>
      <trkpt lat="43.44361" lon="2.11764">
        <ele>641</ele>
        <time>2012-04-05T16:08:35Z</time>
      </trkpt>
      <trkpt lat="43.44355" lon="2.11791">
        <ele>639</ele>
        <time>2012-04-05T16:08:37Z</time>
      </trkpt>
      <trkpt lat="43.44352" lon="2.11817">
        <ele>637</ele>
        <time>2012-04-05T16:08:39Z</time>
      </trkpt>
      <trkpt lat="43.44353" lon="2.11845">
        <ele>635</ele>
        <time>2012-04-05T16:08:41Z</time>
      </trkpt>
      <trkpt lat="43.44353" lon="2.11874">
        <ele>633</ele>
        <time>2012-04-05T16:08:43Z</time>
      </trkpt>
      <trkpt lat="43.44345" lon="2.11896">
        <ele>631</ele>
        <time>2012-04-05T16:08:45Z</time>
      </trkpt>
      <trkpt lat="43.44341" lon="2.11916">
        <ele>629</ele>
        <time>2012-04-05T16:08:47Z</time>
      </trkpt>
      <trkpt lat="43.44344" lon="2.11929">
        <ele>627</ele>
        <time>2012-04-05T16:08:49Z</time>
      </trkpt>
      <trkpt lat="43.44364" lon="2.11934">
        <ele>625</ele>
        <time>2012-04-05T16:08:51Z</time>
      </trkpt>
      <trkpt lat="43.44383" lon="2.11939">
        <ele>623</ele>
        <time>2012-04-05T16:08:53Z</time>
      </trkpt>
      <trkpt lat="43.444" lon="2.11946">
        <ele>621</ele>
        <time>2012-04-05T16:08:55Z</time>
      </trkpt>
      <trkpt lat="43.44418" lon="2.11952">
        <ele>619</ele>
        <time>2012-04-05T16:08:57Z</time>
      </trkpt>
      <trkpt lat="43.44435" lon="2.11965">
        <ele>617</ele>
        <time>2012-04-05T16:08:59Z</time>
      </trkpt>
      <trkpt lat="43.44445" lon="2.11987">
        <ele>615</ele>
        <time>2012-04-05T16:09:01Z</time>
      </trkpt>
      <trkpt lat="43.44446" lon="2.12016">
        <ele>613</ele>
        <time>2012-04-05T16:09:03Z</time>
      </trkpt>
      <trkpt lat="43.44453" lon="2.12041">
        <ele>611</ele>
        <time>2012-04-05T16:09:05Z</time>
      </trkpt>
      <trkpt lat="43.44462" lon="2.12064">
        <ele>610</ele>
        <time>2012-04-05T16:09:07Z</time>
      </trkpt>
      <trkpt lat="43.44472" lon="2.12087">
        <ele>610</ele>
        <time>2012-04-05T16:09:09Z</time>
      </trkpt>
      <trkpt lat="43.44482" lon="2.12112">
        <ele>609</ele>
        <time>2012-04-05T16:09:11Z</time>
      </trkpt>
      <trkpt lat="43.44499" lon="2.12144">
        <ele>608</ele>
        <time>2012-04-05T16:09:14Z</time>
      </trkpt>
      <trkpt lat="43.44509" lon="2.12161">
        <ele>608</ele>
        <time>2012-04-05T16:09:16Z</time>
      </trkpt>
      <trkpt lat="43.44519" lon="2.12176">
        <ele>607</ele>
        <time>2012-04-05T16:09:18Z</time>
      </trkpt>
      <trkpt lat="43.44529" lon="2.12193">
        <ele>606</ele>
        <time>2012-04-05T16:09:20Z</time>
      </trkpt>
      <trkpt lat="43.44539" lon="2.12208">
        <ele>606</ele>
        <time>2012-04-05T16:09:22Z</time>
      </trkpt>
      <trkpt lat="43.44549" lon="2.12225">
        <ele>606</ele>
        <time>2012-04-05T16:09:24Z</time>
      </trkpt>
      <trkpt lat="43.44558" lon="2.12239">
        <ele>606</ele>
        <time>2012-04-05T16:09:26Z</time>
      </trkpt>
      <trkpt lat="43.44567" lon="2.12252">
        <ele>605</ele>
        <time>2012-04-05T16:09:28Z</time>
      </trkpt>
      <trkpt lat="43.44572" lon="2.12266">
        <ele>603</ele>
        <time>2012-04-05T16:09:30Z</time>
      </trkpt>
      <trkpt lat="43.44571" lon="2.12282">
        <ele>602</ele>
        <time>2012-04-05T16:09:32Z</time>
      </trkpt>
      <trkpt lat="43.44561" lon="2.12301">
        <ele>600</ele>
        <time>2012-04-05T16:09:34Z</time>
      </trkpt>
      <trkpt lat="43.44551" lon="2.12322">
        <ele>598</ele>
        <time>2012-04-05T16:09:36Z</time>
      </trkpt>
      <trkpt lat="43.44542" lon="2.12343">
        <ele>596</ele>
        <time>2012-04-05T16:09:38Z</time>
      </trkpt>
      <trkpt lat="43.44538" lon="2.12363">
        <ele>594</ele>
        <time>2012-04-05T16:09:40Z</time>
      </trkpt>
      <trkpt lat="43.44541" lon="2.12385">
        <ele>592</ele>
        <time>2012-04-05T16:09:42Z</time>
      </trkpt>
      <trkpt lat="43.44545" lon="2.12408">
        <ele>590</ele>
        <time>2012-04-05T16:09:44Z</time>
      </trkpt>
      <trkpt lat="43.44547" lon="2.12433">
        <ele>589</ele>
        <time>2012-04-05T16:09:46Z</time>
      </trkpt>
      <trkpt lat="43.4455" lon="2.12456">
        <ele>589</ele>
        <time>2012-04-05T16:09:48Z</time>
      </trkpt>
      <trkpt lat="43.44557" lon="2.12475">
        <ele>589</ele>
        <time>2012-04-05T16:09:50Z</time>
      </trkpt>
      <trkpt lat="43.44566" lon="2.12487">
        <ele>589</ele>
        <time>2012-04-05T16:09:52Z</time>
      </trkpt>
      <trkpt lat="43.44574" lon="2.12498">
        <ele>589</ele>
        <time>2012-04-05T16:09:54Z</time>
      </trkpt>
      <trkpt lat="43.4458" lon="2.12511">
        <ele>589</ele>
        <time>2012-04-05T16:09:56Z</time>
      </trkpt>
      <trkpt lat="43.44584" lon="2.12525">
        <ele>589</ele>
        <time>2012-04-05T16:09:58Z</time>
      </trkpt>
      <trkpt lat="43.44589" lon="2.12536">
        <ele>589</ele>
        <time>2012-04-05T16:10:00Z</time>
      </trkpt>
      <trkpt lat="43.44593" lon="2.12547">
        <ele>590</ele>
        <time>2012-04-05T16:10:02Z</time>
      </trkpt>
      <trkpt lat="43.44597" lon="2.12557">
        <ele>591</ele>
        <time>2012-04-05T16:10:04Z</time>
      </trkpt>
      <trkpt lat="43.44601" lon="2.12565">
        <ele>592</ele>
        <time>2012-04-05T16:10:06Z</time>
      </trkpt>
      <trkpt lat="43.44602" lon="2.12572">
        <ele>592</ele>
        <time>2012-04-05T16:10:08Z</time>
      </trkpt>
      <trkpt lat="43.44603" lon="2.12577">
        <ele>592</ele>
        <time>2012-04-05T16:10:10Z</time>
      </trkpt>
      <trkpt lat="43.44605" lon="2.12582">
        <ele>593</ele>
        <time>2012-04-05T16:10:12Z</time>
      </trkpt>
      <trkpt lat="43.44608" lon="2.12588">
        <ele>593</ele>
        <time>2012-04-05T16:10:14Z</time>
      </trkpt>
      <trkpt lat="43.4461" lon="2.12594">
        <ele>594</ele>
        <time>2012-04-05T16:10:16Z</time>
      </trkpt>
      <trkpt lat="43.44611" lon="2.12599">
        <ele>595</ele>
        <time>2012-04-05T16:10:18Z</time>
      </trkpt>
      <trkpt lat="43.44613" lon="2.12604">
        <ele>596</ele>
        <time>2012-04-05T16:10:20Z</time>
      </trkpt>
      <trkpt lat="43.44614" lon="2.1261">
        <ele>597</ele>
        <time>2012-04-05T16:10:22Z</time>
      </trkpt>
      <trkpt lat="43.44615" lon="2.12613">
        <ele>597</ele>
        <time>2012-04-05T16:10:24Z</time>
      </trkpt>
      <trkpt lat="43.44616" lon="2.12617">
        <ele>598</ele>
        <time>2012-04-05T16:10:26Z</time>
      </trkpt>
      <trkpt lat="43.44618" lon="2.12622">
        <ele>600</ele>
        <time>2012-04-05T16:10:29Z</time>
      </trkpt>
      <trkpt lat="43.44619" lon="2.12627">
        <ele>601</ele>
        <time>2012-04-05T16:10:31Z</time>
      </trkpt>
      <trkpt lat="43.44622" lon="2.12633">
        <ele>601</ele>
        <time>2012-04-05T16:10:33Z</time>
      </trkpt>
      <trkpt lat="43.44624" lon="2.12639">
        <ele>601</ele>
        <time>2012-04-05T16:10:35Z</time>
      </trkpt>
      <trkpt lat="43.44624" lon="2.12644">
        <ele>601</ele>
        <time>2012-04-05T16:10:37Z</time>
      </trkpt>
      <trkpt lat="43.44624" lon="2.12649">
        <ele>601</ele>
        <time>2012-04-05T16:10:39Z</time>
      </trkpt>
      <trkpt lat="43.44625" lon="2.12653">
        <ele>601</ele>
        <time>2012-04-05T16:10:41Z</time>
      </trkpt>
      <trkpt lat="43.44626" lon="2.12659">
        <ele>601</ele>
        <time>2012-04-05T16:10:43Z</time>
      </trkpt>
      <trkpt lat="43.44626" lon="2.12662">
        <ele>601</ele>
        <time>2012-04-05T16:10:45Z</time>
      </trkpt>
      <trkpt lat="43.44626" lon="2.12667">
        <ele>601</ele>
        <time>2012-04-05T16:10:47Z</time>
      </trkpt>
      <trkpt lat="43.44628" lon="2.12672">
        <ele>601</ele>
        <time>2012-04-05T16:10:49Z</time>
      </trkpt>
      <trkpt lat="43.44629" lon="2.12677">
        <ele>601</ele>
        <time>2012-04-05T16:10:51Z</time>
      </trkpt>
      <trkpt lat="43.4463" lon="2.12681">
        <ele>601</ele>
        <time>2012-04-05T16:10:53Z</time>
      </trkpt>
      <trkpt lat="43.44632" lon="2.12686">
        <ele>601</ele>
        <time>2012-04-05T16:10:55Z</time>
      </trkpt>
      <trkpt lat="43.44634" lon="2.12691">
        <ele>601</ele>
        <time>2012-04-05T16:10:57Z</time>
      </trkpt>
      <trkpt lat="43.44635" lon="2.12696">
        <ele>601</ele>
        <time>2012-04-05T16:10:59Z</time>
      </trkpt>
      <trkpt lat="43.44635" lon="2.12701">
        <ele>601</ele>
        <time>2012-04-05T16:11:01Z</time>
      </trkpt>
      <trkpt lat="43.44635" lon="2.12705">
        <ele>601</ele>
        <time>2012-04-05T16:11:03Z</time>
      </trkpt>
      <trkpt lat="43.44635" lon="2.1271">
        <ele>602</ele>
        <time>2012-04-05T16:11:05Z</time>
      </trkpt>
      <trkpt lat="43.44636" lon="2.12714">
        <ele>603</ele>
        <time>2012-04-05T16:11:07Z</time>
      </trkpt>
      <trkpt lat="43.44637" lon="2.12718">
        <ele>604</ele>
        <time>2012-04-05T16:11:09Z</time>
      </trkpt>
      <trkpt lat="43.44638" lon="2.1272">
        <ele>604</ele>
        <time>2012-04-05T16:11:11Z</time>
      </trkpt>
      <trkpt lat="43.44638" lon="2.12722">
        <ele>605</ele>
        <time>2012-04-05T16:11:14Z</time>
      </trkpt>
      <trkpt lat="43.44638" lon="2.12724">
        <ele>606</ele>
        <time>2012-04-05T16:11:18Z</time>
      </trkpt>
      <trkpt lat="43.44638" lon="2.12725">
        <ele>606</ele>
        <time>2012-04-05T16:11:22Z</time>
      </trkpt>
      <trkpt lat="43.44637" lon="2.12727">
        <ele>607</ele>
        <time>2012-04-05T16:11:25Z</time>
      </trkpt>
      <trkpt lat="43.44637" lon="2.12729">
        <ele>608</ele>
        <time>2012-04-05T16:11:28Z</time>
      </trkpt>
      <trkpt lat="43.44638" lon="2.1273">
        <ele>608</ele>
        <time>2012-04-05T16:11:31Z</time>
      </trkpt>
      <trkpt lat="43.44638" lon="2.12732">
        <ele>608</ele>
        <time>2012-04-05T16:11:33Z</time>
      </trkpt>
      <trkpt lat="43.4464" lon="2.12734">
        <ele>608</ele>
        <time>2012-04-05T16:11:35Z</time>
      </trkpt>
      <trkpt lat="43.4464" lon="2.12736">
        <ele>608</ele>
        <time>2012-04-05T16:11:37Z</time>
      </trkpt>
      <trkpt lat="43.44642" lon="2.12737">
        <ele>608</ele>
        <time>2012-04-05T16:11:39Z</time>
      </trkpt>
      <trkpt lat="43.44642" lon="2.12738">
        <ele>608</ele>
        <time>2012-04-05T16:11:41Z</time>
      </trkpt>
      <trkpt lat="43.44642" lon="2.1274">
        <ele>609</ele>
        <time>2012-04-05T16:11:43Z</time>
      </trkpt>
      <trkpt lat="43.44643" lon="2.12742">
        <ele>610</ele>
        <time>2012-04-05T16:11:45Z</time>
      </trkpt>
      <trkpt lat="43.44643" lon="2.12744">
        <ele>610</ele>
        <time>2012-04-05T16:11:47Z</time>
      </trkpt>
      <trkpt lat="43.44644" lon="2.12747">
        <ele>611</ele>
        <time>2012-04-05T16:11:49Z</time>
      </trkpt>
      <trkpt lat="43.44643" lon="2.12749">
        <ele>611</ele>
        <time>2012-04-05T16:11:51Z</time>
      </trkpt>
      <trkpt lat="43.44642" lon="2.12753">
        <ele>611</ele>
        <time>2012-04-05T16:11:54Z</time>
      </trkpt>
      <trkpt lat="43.44642" lon="2.12757">
        <ele>611</ele>
        <time>2012-04-05T16:11:57Z</time>
      </trkpt>
      <trkpt lat="43.44642" lon="2.1276">
        <ele>611</ele>
        <time>2012-04-05T16:11:59Z</time>
      </trkpt>
      <trkpt lat="43.44641" lon="2.12762">
        <ele>611</ele>
        <time>2012-04-05T16:12:01Z</time>
      </trkpt>
      <trkpt lat="43.4464" lon="2.12764">
        <ele>611</ele>
        <time>2012-04-05T16:12:03Z</time>
      </trkpt>
      <trkpt lat="43.44639" lon="2.12767">
        <ele>611</ele>
        <time>2012-04-05T16:12:05Z</time>
      </trkpt>
      <trkpt lat="43.44639" lon="2.12771">
        <ele>611</ele>
        <time>2012-04-05T16:12:08Z</time>
      </trkpt>
      <trkpt lat="43.44638" lon="2.12774">
        <ele>614</ele>
        <time>2012-04-05T16:12:11Z</time>
      </trkpt>
      <trkpt lat="43.44638" lon="2.12777">
        <ele>616</ele>
        <time>2012-04-05T16:12:13Z</time>
      </trkpt>
      <trkpt lat="43.44638" lon="2.12781">
        <ele>617</ele>
        <time>2012-04-05T16:12:16Z</time>
      </trkpt>
      <trkpt lat="43.44638" lon="2.12783">
        <ele>618</ele>
        <time>2012-04-05T16:12:18Z</time>
      </trkpt>
      <trkpt lat="43.44638" lon="2.12785">
        <ele>619</ele>
        <time>2012-04-05T16:12:20Z</time>
      </trkpt>
      <trkpt lat="43.44638" lon="2.12787">
        <ele>619</ele>
        <time>2012-04-05T16:12:22Z</time>
      </trkpt>
      <trkpt lat="43.44637" lon="2.12789">
        <ele>619</ele>
        <time>2012-04-05T16:12:24Z</time>
      </trkpt>
      <trkpt lat="43.44637" lon="2.1279">
        <ele>619</ele>
        <time>2012-04-05T16:12:26Z</time>
      </trkpt>
      <trkpt lat="43.44637" lon="2.12792">
        <ele>619</ele>
        <time>2012-04-05T16:12:28Z</time>
      </trkpt>
      <trkpt lat="43.44638" lon="2.12796">
        <ele>619</ele>
        <time>2012-04-05T16:12:31Z</time>
      </trkpt>
      <trkpt lat="43.44637" lon="2.12797">
        <ele>619</ele>
        <time>2012-04-05T16:12:33Z</time>
      </trkpt>
      <trkpt lat="43.44636" lon="2.12799">
        <ele>619</ele>
        <time>2012-04-05T16:12:35Z</time>
      </trkpt>
      <trkpt lat="43.44636" lon="2.12801">
        <ele>619</ele>
        <time>2012-04-05T16:12:37Z</time>
      </trkpt>
      <trkpt lat="43.44636" lon="2.12803">
        <ele>619</ele>
        <time>2012-04-05T16:12:39Z</time>
      </trkpt>
      <trkpt lat="43.44635" lon="2.12806">
        <ele>619</ele>
        <time>2012-04-05T16:12:41Z</time>
      </trkpt>
      <trkpt lat="43.44635" lon="2.12808">
        <ele>619</ele>
        <time>2012-04-05T16:12:43Z</time>
      </trkpt>
      <trkpt lat="43.44634" lon="2.12809">
        <ele>619</ele>
        <time>2012-04-05T16:12:45Z</time>
      </trkpt>
      <trkpt lat="43.44632" lon="2.12811">
        <ele>619</ele>
        <time>2012-04-05T16:12:48Z</time>
      </trkpt>
      <trkpt lat="43.44632" lon="2.12813">
        <ele>619</ele>
        <time>2012-04-05T16:12:50Z</time>
      </trkpt>
      <trkpt lat="43.44631" lon="2.12815">
        <ele>619</ele>
        <time>2012-04-05T16:12:52Z</time>
      </trkpt>
      <trkpt lat="43.44631" lon="2.12818">
        <ele>619</ele>
        <time>2012-04-05T16:12:54Z</time>
      </trkpt>
      <trkpt lat="43.44631" lon="2.1282">
        <ele>619</ele>
        <time>2012-04-05T16:12:56Z</time>
      </trkpt>
      <trkpt lat="43.44631" lon="2.12822">
        <ele>620</ele>
        <time>2012-04-05T16:12:58Z</time>
      </trkpt>
      <trkpt lat="43.44631" lon="2.12824">
        <ele>620</ele>
        <time>2012-04-05T16:13:00Z</time>
      </trkpt>
      <trkpt lat="43.44631" lon="2.12825">
        <ele>622</ele>
        <time>2012-04-05T16:13:06Z</time>
      </trkpt>
      <trkpt lat="43.44631" lon="2.12827">
        <ele>622</ele>
        <time>2012-04-05T16:13:08Z</time>
      </trkpt>
      <trkpt lat="43.44629" lon="2.12832">
        <ele>622</ele>
        <time>2012-04-05T16:13:11Z</time>
      </trkpt>
      <trkpt lat="43.44627" lon="2.12835">
        <ele>623</ele>
        <time>2012-04-05T16:13:13Z</time>
      </trkpt>
      <trkpt lat="43.44627" lon="2.12839">
        <ele>623</ele>
        <time>2012-04-05T16:13:15Z</time>
      </trkpt>
      <trkpt lat="43.44626" lon="2.12843">
        <ele>624</ele>
        <time>2012-04-05T16:13:17Z</time>
      </trkpt>
      <trkpt lat="43.44624" lon="2.12847">
        <ele>624</ele>
        <time>2012-04-05T16:13:19Z</time>
      </trkpt>
      <trkpt lat="43.44624" lon="2.12851">
        <ele>624</ele>
        <time>2012-04-05T16:13:21Z</time>
      </trkpt>
      <trkpt lat="43.44622" lon="2.12854">
        <ele>624</ele>
        <time>2012-04-05T16:13:23Z</time>
      </trkpt>
      <trkpt lat="43.44621" lon="2.12858">
        <ele>624</ele>
        <time>2012-04-05T16:13:25Z</time>
      </trkpt>
      <trkpt lat="43.4462" lon="2.12864">
        <ele>624</ele>
        <time>2012-04-05T16:13:28Z</time>
      </trkpt>
      <trkpt lat="43.44619" lon="2.12868">
        <ele>624</ele>
        <time>2012-04-05T16:13:30Z</time>
      </trkpt>
      <trkpt lat="43.44618" lon="2.12873">
        <ele>625</ele>
        <time>2012-04-05T16:13:32Z</time>
      </trkpt>
      <trkpt lat="43.44617" lon="2.12877">
        <ele>626</ele>
        <time>2012-04-05T16:13:34Z</time>
      </trkpt>
      <trkpt lat="43.44616" lon="2.12882">
        <ele>626</ele>
        <time>2012-04-05T16:13:36Z</time>
      </trkpt>
      <trkpt lat="43.44614" lon="2.12886">
        <ele>627</ele>
        <time>2012-04-05T16:13:38Z</time>
      </trkpt>
      <trkpt lat="43.44613" lon="2.1289">
        <ele>628</ele>
        <time>2012-04-05T16:13:40Z</time>
      </trkpt>
      <trkpt lat="43.44611" lon="2.12894">
        <ele>629</ele>
        <time>2012-04-05T16:13:42Z</time>
      </trkpt>
      <trkpt lat="43.44609" lon="2.12898">
        <ele>631</ele>
        <time>2012-04-05T16:13:44Z</time>
      </trkpt>
      <trkpt lat="43.44608" lon="2.12903">
        <ele>633</ele>
        <time>2012-04-05T16:13:46Z</time>
      </trkpt>
      <trkpt lat="43.44607" lon="2.12907">
        <ele>634</ele>
        <time>2012-04-05T16:13:48Z</time>
      </trkpt>
      <trkpt lat="43.44605" lon="2.12912">
        <ele>635</ele>
        <time>2012-04-05T16:13:50Z</time>
      </trkpt>
      <trkpt lat="43.44603" lon="2.12916">
        <ele>636</ele>
        <time>2012-04-05T16:13:52Z</time>
      </trkpt>
      <trkpt lat="43.446" lon="2.1292">
        <ele>637</ele>
        <time>2012-04-05T16:13:54Z</time>
      </trkpt>
      <trkpt lat="43.44598" lon="2.12924">
        <ele>637</ele>
        <time>2012-04-05T16:13:56Z</time>
      </trkpt>
      <trkpt lat="43.44595" lon="2.12929">
        <ele>638</ele>
        <time>2012-04-05T16:13:58Z</time>
      </trkpt>
      <trkpt lat="43.44593" lon="2.12932">
        <ele>638</ele>
        <time>2012-04-05T16:14:00Z</time>
      </trkpt>
      <trkpt lat="43.44592" lon="2.12936">
        <ele>638</ele>
        <time>2012-04-05T16:14:02Z</time>
      </trkpt>
      <trkpt lat="43.4459" lon="2.12941">
        <ele>638</ele>
        <time>2012-04-05T16:14:04Z</time>
      </trkpt>
      <trkpt lat="43.44588" lon="2.12945">
        <ele>638</ele>
        <time>2012-04-05T16:14:06Z</time>
      </trkpt>
      <trkpt lat="43.44587" lon="2.12949">
        <ele>638</ele>
        <time>2012-04-05T16:14:08Z</time>
      </trkpt>
      <trkpt lat="43.44586" lon="2.12954">
        <ele>638</ele>
        <time>2012-04-05T16:14:10Z</time>
      </trkpt>
      <trkpt lat="43.44586" lon="2.1296">
        <ele>638</ele>
        <time>2012-04-05T16:14:12Z</time>
      </trkpt>
      <trkpt lat="43.44584" lon="2.12964">
        <ele>638</ele>
        <time>2012-04-05T16:14:14Z</time>
      </trkpt>
      <trkpt lat="43.44582" lon="2.12967">
        <ele>638</ele>
        <time>2012-04-05T16:14:16Z</time>
      </trkpt>
      <trkpt lat="43.44581" lon="2.12969">
        <ele>638</ele>
        <time>2012-04-05T16:14:18Z</time>
      </trkpt>
      <trkpt lat="43.44578" lon="2.12973">
        <ele>639</ele>
        <time>2012-04-05T16:14:21Z</time>
      </trkpt>
      <trkpt lat="43.44576" lon="2.12975">
        <ele>641</ele>
        <time>2012-04-05T16:14:23Z</time>
      </trkpt>
      <trkpt lat="43.44575" lon="2.12979">
        <ele>643</ele>
        <time>2012-04-05T16:14:25Z</time>
      </trkpt>
      <trkpt lat="43.44574" lon="2.12985">
        <ele>645</ele>
        <time>2012-04-05T16:14:28Z</time>
      </trkpt>
      <trkpt lat="43.44573" lon="2.12986">
        <ele>646</ele>
        <time>2012-04-05T16:14:31Z</time>
      </trkpt>
      <trkpt lat="43.4457" lon="2.12987">
        <ele>648</ele>
        <time>2012-04-05T16:14:34Z</time>
      </trkpt>
      <trkpt lat="43.44568" lon="2.12987">
        <ele>649</ele>
        <time>2012-04-05T16:14:36Z</time>
      </trkpt>
      <trkpt lat="43.44567" lon="2.12986">
        <ele>651</ele>
        <time>2012-04-05T16:14:38Z</time>
      </trkpt>
      <trkpt lat="43.44569" lon="2.12986">
        <ele>652</ele>
        <time>2012-04-05T16:14:41Z</time>
      </trkpt>
      <trkpt lat="43.4457" lon="2.12986">
        <ele>652</ele>
        <time>2012-04-05T16:14:43Z</time>
      </trkpt>
      <trkpt lat="43.44572" lon="2.12985">
        <ele>652</ele>
        <time>2012-04-05T16:14:45Z</time>
      </trkpt>
      <trkpt lat="43.44575" lon="2.12984">
        <ele>652</ele>
        <time>2012-04-05T16:14:48Z</time>
      </trkpt>
      <trkpt lat="43.44576" lon="2.12981">
        <ele>652</ele>
        <time>2012-04-05T16:14:54Z</time>
      </trkpt>
      <trkpt lat="43.44576" lon="2.12979">
        <ele>652</ele>
        <time>2012-04-05T16:14:56Z</time>
      </trkpt>
      <trkpt lat="43.44577" lon="2.12976">
        <ele>652</ele>
        <time>2012-04-05T16:14:58Z</time>
      </trkpt>
      <trkpt lat="43.44577" lon="2.12974">
        <ele>652</ele>
        <time>2012-04-05T16:15:00Z</time>
      </trkpt>
      <trkpt lat="43.44579" lon="2.12975">
        <ele>652</ele>
        <time>2012-04-05T16:15:05Z</time>
      </trkpt>
      <trkpt lat="43.44577" lon="2.12975">
        <ele>649</ele>
        <time>2012-04-05T16:15:10Z</time>
      </trkpt>
      <trkpt lat="43.44576" lon="2.12974">
        <ele>647</ele>
        <time>2012-04-05T16:15:12Z</time>
      </trkpt>
      <trkpt lat="43.44574" lon="2.12973">
        <ele>646</ele>
        <time>2012-04-05T16:15:14Z</time>
      </trkpt>
      <trkpt lat="43.44573" lon="2.12972">
        <ele>644</ele>
        <time>2012-04-05T16:15:16Z</time>
      </trkpt>
      <trkpt lat="43.44571" lon="2.12971">
        <ele>642</ele>
        <time>2012-04-05T16:15:18Z</time>
      </trkpt>
      <trkpt lat="43.4457" lon="2.1297">
        <ele>640</ele>
        <time>2012-04-05T16:15:20Z</time>
      </trkpt>
      <trkpt lat="43.44569" lon="2.1297">
        <ele>639</ele>
        <time>2012-04-05T16:15:23Z</time>
      </trkpt>
      <trkpt lat="43.44567" lon="2.1297">
        <ele>638</ele>
        <time>2012-04-05T16:15:27Z</time>
      </trkpt>
      <trkpt lat="43.44566" lon="2.12971">
        <ele>638</ele>
        <time>2012-04-05T16:15:31Z</time>
      </trkpt>
      <trkpt lat="43.44566" lon="2.12972">
        <ele>638</ele>
        <time>2012-04-05T16:15:40Z</time>
      </trkpt>
      <trkpt lat="43.44567" lon="2.12972">
        <ele>638</ele>
        <time>2012-04-05T16:15:47Z</time>
      </trkpt>
      <trkpt lat="43.44569" lon="2.12972">
        <ele>638</ele>
        <time>2012-04-05T16:15:50Z</time>
      </trkpt>
      <trkpt lat="43.44571" lon="2.12972">
        <ele>638</ele>
        <time>2012-04-05T16:15:52Z</time>
      </trkpt>
      <trkpt lat="43.44572" lon="2.12972">
        <ele>638</ele>
        <time>2012-04-05T16:15:55Z</time>
      </trkpt>
      <trkpt lat="43.44574" lon="2.1297">
        <ele>639</ele>
        <time>2012-04-05T16:15:57Z</time>
      </trkpt>
      <trkpt lat="43.44574" lon="2.12968">
        <ele>641</ele>
        <time>2012-04-05T16:15:59Z</time>
      </trkpt>
      <trkpt lat="43.44574" lon="2.12965">
        <ele>642</ele>
        <time>2012-04-05T16:16:01Z</time>
      </trkpt>
      <trkpt lat="43.44574" lon="2.12961">
        <ele>642</ele>
        <time>2012-04-05T16:16:03Z</time>
      </trkpt>
      <trkpt lat="43.44574" lon="2.12956">
        <ele>643</ele>
        <time>2012-04-05T16:16:05Z</time>
      </trkpt>
      <trkpt lat="43.44574" lon="2.12952">
        <ele>643</ele>
        <time>2012-04-05T16:16:07Z</time>
      </trkpt>
      <trkpt lat="43.44574" lon="2.12948">
        <ele>643</ele>
        <time>2012-04-05T16:16:09Z</time>
      </trkpt>
      <trkpt lat="43.44575" lon="2.12944">
        <ele>644</ele>
        <time>2012-04-05T16:16:11Z</time>
      </trkpt>
      <trkpt lat="43.44575" lon="2.12941">
        <ele>645</ele>
        <time>2012-04-05T16:16:13Z</time>
      </trkpt>
      <trkpt lat="43.44575" lon="2.12937">
        <ele>645</ele>
        <time>2012-04-05T16:16:15Z</time>
      </trkpt>
      <trkpt lat="43.44575" lon="2.12933">
        <ele>646</ele>
        <time>2012-04-05T16:16:17Z</time>
      </trkpt>
      <trkpt lat="43.44574" lon="2.1293">
        <ele>647</ele>
        <time>2012-04-05T16:16:19Z</time>
      </trkpt>
      <trkpt lat="43.44574" lon="2.12925">
        <ele>648</ele>
        <time>2012-04-05T16:16:21Z</time>
      </trkpt>
      <trkpt lat="43.44574" lon="2.1292">
        <ele>649</ele>
        <time>2012-04-05T16:16:23Z</time>
      </trkpt>
      <trkpt lat="43.44574" lon="2.12916">
        <ele>650</ele>
        <time>2012-04-05T16:16:25Z</time>
      </trkpt>
      <trkpt lat="43.44574" lon="2.12909">
        <ele>652</ele>
        <time>2012-04-05T16:16:29Z</time>
      </trkpt>
      <trkpt lat="43.44575" lon="2.12905">
        <ele>653</ele>
        <time>2012-04-05T16:16:31Z</time>
      </trkpt>
      <trkpt lat="43.44575" lon="2.12901">
        <ele>653</ele>
        <time>2012-04-05T16:16:33Z</time>
      </trkpt>
      <trkpt lat="43.44576" lon="2.12896">
        <ele>654</ele>
        <time>2012-04-05T16:16:36Z</time>
      </trkpt>
      <trkpt lat="43.44576" lon="2.12893">
        <ele>655</ele>
        <time>2012-04-05T16:16:38Z</time>
      </trkpt>
      <trkpt lat="43.44575" lon="2.1289">
        <ele>656</ele>
        <time>2012-04-05T16:16:40Z</time>
      </trkpt>
      <trkpt lat="43.44576" lon="2.12887">
        <ele>657</ele>
        <time>2012-04-05T16:16:42Z</time>
      </trkpt>
      <trkpt lat="43.44575" lon="2.12882">
        <ele>657</ele>
        <time>2012-04-05T16:16:44Z</time>
      </trkpt>
      <trkpt lat="43.44575" lon="2.12879">
        <ele>657</ele>
        <time>2012-04-05T16:16:46Z</time>
      </trkpt>
      <trkpt lat="43.44575" lon="2.12876">
        <ele>658</ele>
        <time>2012-04-05T16:16:48Z</time>
      </trkpt>
      <trkpt lat="43.44572" lon="2.12871">
        <ele>658</ele>
        <time>2012-04-05T16:16:50Z</time>
      </trkpt>
      <trkpt lat="43.44571" lon="2.12867">
        <ele>658</ele>
        <time>2012-04-05T16:16:52Z</time>
      </trkpt>
      <trkpt lat="43.44569" lon="2.12864">
        <ele>659</ele>
        <time>2012-04-05T16:16:54Z</time>
      </trkpt>
      <trkpt lat="43.44569" lon="2.1286">
        <ele>659</ele>
        <time>2012-04-05T16:16:56Z</time>
      </trkpt>
      <trkpt lat="43.44568" lon="2.12856">
        <ele>660</ele>
        <time>2012-04-05T16:16:58Z</time>
      </trkpt>
      <trkpt lat="43.44565" lon="2.12851">
        <ele>660</ele>
        <time>2012-04-05T16:17:00Z</time>
      </trkpt>
      <trkpt lat="43.44562" lon="2.12846">
        <ele>660</ele>
        <time>2012-04-05T16:17:02Z</time>
      </trkpt>
      <trkpt lat="43.44559" lon="2.12841">
        <ele>660</ele>
        <time>2012-04-05T16:17:04Z</time>
      </trkpt>
      <trkpt lat="43.44557" lon="2.12837">
        <ele>660</ele>
        <time>2012-04-05T16:17:06Z</time>
      </trkpt>
      <trkpt lat="43.44555" lon="2.12832">
        <ele>661</ele>
        <time>2012-04-05T16:17:08Z</time>
      </trkpt>
      <trkpt lat="43.44553" lon="2.12827">
        <ele>661</ele>
        <time>2012-04-05T16:17:10Z</time>
      </trkpt>
      <trkpt lat="43.44551" lon="2.12822">
        <ele>662</ele>
        <time>2012-04-05T16:17:12Z</time>
      </trkpt>
      <trkpt lat="43.44549" lon="2.12815">
        <ele>662</ele>
        <time>2012-04-05T16:17:14Z</time>
      </trkpt>
      <trkpt lat="43.44549" lon="2.12808">
        <ele>662</ele>
        <time>2012-04-05T16:17:16Z</time>
      </trkpt>
      <trkpt lat="43.44546" lon="2.12799">
        <ele>663</ele>
        <time>2012-04-05T16:17:18Z</time>
      </trkpt>
      <trkpt lat="43.44543" lon="2.12785">
        <ele>664</ele>
        <time>2012-04-05T16:17:20Z</time>
      </trkpt>
      <trkpt lat="43.44541" lon="2.12771">
        <ele>665</ele>
        <time>2012-04-05T16:17:22Z</time>
      </trkpt>
      <trkpt lat="43.44536" lon="2.12758">
        <ele>665</ele>
        <time>2012-04-05T16:17:24Z</time>
      </trkpt>
      <trkpt lat="43.44531" lon="2.12749">
        <ele>665</ele>
        <time>2012-04-05T16:17:26Z</time>
      </trkpt>
      <trkpt lat="43.44527" lon="2.12742">
        <ele>665</ele>
        <time>2012-04-05T16:17:28Z</time>
      </trkpt>
      <trkpt lat="43.44522" lon="2.12735">
        <ele>665</ele>
        <time>2012-04-05T16:17:30Z</time>
      </trkpt>
      <trkpt lat="43.44518" lon="2.12727">
        <ele>665</ele>
        <time>2012-04-05T16:17:32Z</time>
      </trkpt>
      <trkpt lat="43.44515" lon="2.12719">
        <ele>665</ele>
        <time>2012-04-05T16:17:34Z</time>
      </trkpt>
      <trkpt lat="43.44512" lon="2.12713">
        <ele>665</ele>
        <time>2012-04-05T16:17:36Z</time>
      </trkpt>
      <trkpt lat="43.4451" lon="2.12707">
        <ele>665</ele>
        <time>2012-04-05T16:17:38Z</time>
      </trkpt>
      <trkpt lat="43.44508" lon="2.12701">
        <ele>665</ele>
        <time>2012-04-05T16:17:40Z</time>
      </trkpt>
      <trkpt lat="43.44506" lon="2.12694">
        <ele>665</ele>
        <time>2012-04-05T16:17:42Z</time>
      </trkpt>
      <trkpt lat="43.44504" lon="2.12688">
        <ele>665</ele>
        <time>2012-04-05T16:17:44Z</time>
      </trkpt>
      <trkpt lat="43.44502" lon="2.1268">
        <ele>665</ele>
        <time>2012-04-05T16:17:46Z</time>
      </trkpt>
      <trkpt lat="43.44499" lon="2.12669">
        <ele>665</ele>
        <time>2012-04-05T16:17:48Z</time>
      </trkpt>
      <trkpt lat="43.44498" lon="2.12659">
        <ele>663</ele>
        <time>2012-04-05T16:17:50Z</time>
      </trkpt>
      <trkpt lat="43.44494" lon="2.12652">
        <ele>661</ele>
        <time>2012-04-05T16:17:52Z</time>
      </trkpt>
      <trkpt lat="43.4449" lon="2.12651">
        <ele>660</ele>
        <time>2012-04-05T16:17:54Z</time>
      </trkpt>
      <trkpt lat="43.44486" lon="2.12653">
        <ele>660</ele>
        <time>2012-04-05T16:17:57Z</time>
      </trkpt>
      <trkpt lat="43.44484" lon="2.12654">
        <ele>660</ele>
        <time>2012-04-05T16:17:59Z</time>
      </trkpt>
      <trkpt lat="43.44482" lon="2.12656">
        <ele>660</ele>
        <time>2012-04-05T16:18:01Z</time>
      </trkpt>
      <trkpt lat="43.44479" lon="2.12658">
        <ele>660</ele>
        <time>2012-04-05T16:18:04Z</time>
      </trkpt>
      <trkpt lat="43.44476" lon="2.1266">
        <ele>660</ele>
        <time>2012-04-05T16:18:06Z</time>
      </trkpt>
      <trkpt lat="43.44473" lon="2.1266">
        <ele>660</ele>
        <time>2012-04-05T16:18:08Z</time>
      </trkpt>
      <trkpt lat="43.44471" lon="2.12661">
        <ele>660</ele>
        <time>2012-04-05T16:18:10Z</time>
      </trkpt>
      <trkpt lat="43.44469" lon="2.12661">
        <ele>660</ele>
        <time>2012-04-05T16:18:12Z</time>
      </trkpt>
      <trkpt lat="43.44466" lon="2.1266">
        <ele>661</ele>
        <time>2012-04-05T16:18:14Z</time>
      </trkpt>
      <trkpt lat="43.44463" lon="2.12659">
        <ele>661</ele>
        <time>2012-04-05T16:18:16Z</time>
      </trkpt>
      <trkpt lat="43.4446" lon="2.1266">
        <ele>661</ele>
        <time>2012-04-05T16:18:18Z</time>
      </trkpt>
      <trkpt lat="43.44458" lon="2.1266">
        <ele>661</ele>
        <time>2012-04-05T16:18:20Z</time>
      </trkpt>
      <trkpt lat="43.44455" lon="2.12663">
        <ele>663</ele>
        <time>2012-04-05T16:18:23Z</time>
      </trkpt>
      <trkpt lat="43.44455" lon="2.12666">
        <ele>664</ele>
        <time>2012-04-05T16:18:25Z</time>
      </trkpt>
      <trkpt lat="43.44454" lon="2.12671">
        <ele>665</ele>
        <time>2012-04-05T16:18:28Z</time>
      </trkpt>
      <trkpt lat="43.44454" lon="2.12674">
        <ele>666</ele>
        <time>2012-04-05T16:18:30Z</time>
      </trkpt>
      <trkpt lat="43.44454" lon="2.12678">
        <ele>667</ele>
        <time>2012-04-05T16:18:32Z</time>
      </trkpt>
      <trkpt lat="43.44454" lon="2.12682">
        <ele>668</ele>
        <time>2012-04-05T16:18:34Z</time>
      </trkpt>
      <trkpt lat="43.44455" lon="2.12685">
        <ele>670</ele>
        <time>2012-04-05T16:18:36Z</time>
      </trkpt>
      <trkpt lat="43.44457" lon="2.12689">
        <ele>671</ele>
        <time>2012-04-05T16:18:38Z</time>
      </trkpt>
      <trkpt lat="43.44457" lon="2.12692">
        <ele>672</ele>
        <time>2012-04-05T16:18:40Z</time>
      </trkpt>
      <trkpt lat="43.44457" lon="2.12696">
        <ele>672</ele>
        <time>2012-04-05T16:18:42Z</time>
      </trkpt>
      <trkpt lat="43.44458" lon="2.12699">
        <ele>672</ele>
        <time>2012-04-05T16:18:44Z</time>
      </trkpt>
      <trkpt lat="43.44458" lon="2.12702">
        <ele>672</ele>
        <time>2012-04-05T16:18:46Z</time>
      </trkpt>
      <trkpt lat="43.4446" lon="2.12706">
        <ele>672</ele>
        <time>2012-04-05T16:18:48Z</time>
      </trkpt>
      <trkpt lat="43.44461" lon="2.12709">
        <ele>672</ele>
        <time>2012-04-05T16:18:50Z</time>
      </trkpt>
      <trkpt lat="43.44462" lon="2.12713">
        <ele>672</ele>
        <time>2012-04-05T16:18:52Z</time>
      </trkpt>
      <trkpt lat="43.44463" lon="2.12716">
        <ele>672</ele>
        <time>2012-04-05T16:18:54Z</time>
      </trkpt>
      <trkpt lat="43.44464" lon="2.12719">
        <ele>672</ele>
        <time>2012-04-05T16:18:56Z</time>
      </trkpt>
      <trkpt lat="43.44465" lon="2.12723">
        <ele>672</ele>
        <time>2012-04-05T16:18:58Z</time>
      </trkpt>
      <trkpt lat="43.44466" lon="2.12727">
        <ele>672</ele>
        <time>2012-04-05T16:19:00Z</time>
      </trkpt>
      <trkpt lat="43.44467" lon="2.12731">
        <ele>672</ele>
        <time>2012-04-05T16:19:02Z</time>
      </trkpt>
      <trkpt lat="43.44467" lon="2.12736">
        <ele>672</ele>
        <time>2012-04-05T16:19:04Z</time>
      </trkpt>
      <trkpt lat="43.44468" lon="2.1274">
        <ele>672</ele>
        <time>2012-04-05T16:19:06Z</time>
      </trkpt>
      <trkpt lat="43.44469" lon="2.12744">
        <ele>673</ele>
        <time>2012-04-05T16:19:08Z</time>
      </trkpt>
      <trkpt lat="43.44469" lon="2.12748">
        <ele>674</ele>
        <time>2012-04-05T16:19:10Z</time>
      </trkpt>
      <trkpt lat="43.4447" lon="2.12752">
        <ele>674</ele>
        <time>2012-04-05T16:19:12Z</time>
      </trkpt>
      <trkpt lat="43.44469" lon="2.12755">
        <ele>675</ele>
        <time>2012-04-05T16:19:14Z</time>
      </trkpt>
      <trkpt lat="43.4447" lon="2.1276">
        <ele>676</ele>
        <time>2012-04-05T16:19:16Z</time>
      </trkpt>
      <trkpt lat="43.4447" lon="2.12761">
        <ele>678</ele>
        <time>2012-04-05T16:19:18Z</time>
      </trkpt>
      <trkpt lat="43.44471" lon="2.12763">
        <ele>680</ele>
        <time>2012-04-05T16:19:20Z</time>
      </trkpt>
      <trkpt lat="43.44471" lon="2.12765">
        <ele>681</ele>
        <time>2012-04-05T16:19:23Z</time>
      </trkpt>
      <trkpt lat="43.44471" lon="2.12767">
        <ele>683</ele>
        <time>2012-04-05T16:19:25Z</time>
      </trkpt>
      <trkpt lat="43.4447" lon="2.12771">
        <ele>683</ele>
        <time>2012-04-05T16:19:30Z</time>
      </trkpt>
      <trkpt lat="43.44469" lon="2.12772">
        <ele>683</ele>
        <time>2012-04-05T16:19:32Z</time>
      </trkpt>
      <trkpt lat="43.44469" lon="2.12774">
        <ele>683</ele>
        <time>2012-04-05T16:19:34Z</time>
      </trkpt>
      <trkpt lat="43.44469" lon="2.12776">
        <ele>683</ele>
        <time>2012-04-05T16:19:36Z</time>
      </trkpt>
      <trkpt lat="43.44468" lon="2.12778">
        <ele>683</ele>
        <time>2012-04-05T16:19:38Z</time>
      </trkpt>
      <trkpt lat="43.44467" lon="2.1278">
        <ele>683</ele>
        <time>2012-04-05T16:19:41Z</time>
      </trkpt>
      <trkpt lat="43.44467" lon="2.12782">
        <ele>683</ele>
        <time>2012-04-05T16:19:43Z</time>
      </trkpt>
      <trkpt lat="43.44468" lon="2.12784">
        <ele>683</ele>
        <time>2012-04-05T16:19:45Z</time>
      </trkpt>
      <trkpt lat="43.44467" lon="2.12786">
        <ele>683</ele>
        <time>2012-04-05T16:19:47Z</time>
      </trkpt>
      <trkpt lat="43.44466" lon="2.12788">
        <ele>683</ele>
        <time>2012-04-05T16:19:49Z</time>
      </trkpt>
      <trkpt lat="43.44466" lon="2.1279">
        <ele>683</ele>
        <time>2012-04-05T16:19:51Z</time>
      </trkpt>
      <trkpt lat="43.44466" lon="2.12793">
        <ele>683</ele>
        <time>2012-04-05T16:19:53Z</time>
      </trkpt>
      <trkpt lat="43.44467" lon="2.12796">
        <ele>683</ele>
        <time>2012-04-05T16:19:55Z</time>
      </trkpt>
      <trkpt lat="43.44467" lon="2.12799">
        <ele>683</ele>
        <time>2012-04-05T16:19:57Z</time>
      </trkpt>
      <trkpt lat="43.44466" lon="2.12801">
        <ele>683</ele>
        <time>2012-04-05T16:19:59Z</time>
      </trkpt>
      <trkpt lat="43.44466" lon="2.12803">
        <ele>683</ele>
        <time>2012-04-05T16:20:01Z</time>
      </trkpt>
      <trkpt lat="43.44466" lon="2.12805">
        <ele>683</ele>
        <time>2012-04-05T16:20:03Z</time>
      </trkpt>
      <trkpt lat="43.44465" lon="2.12807">
        <ele>683</ele>
        <time>2012-04-05T16:20:05Z</time>
      </trkpt>
      <trkpt lat="43.44466" lon="2.12812">
        <ele>683</ele>
        <time>2012-04-05T16:20:08Z</time>
      </trkpt>
      <trkpt lat="43.44466" lon="2.12814">
        <ele>683</ele>
        <time>2012-04-05T16:20:10Z</time>
      </trkpt>
      <trkpt lat="43.44465" lon="2.12816">
        <ele>683</ele>
        <time>2012-04-05T16:20:12Z</time>
      </trkpt>
      <trkpt lat="43.44464" lon="2.12818">
        <ele>683</ele>
        <time>2012-04-05T16:20:14Z</time>
      </trkpt>
      <trkpt lat="43.44464" lon="2.12821">
        <ele>683</ele>
        <time>2012-04-05T16:20:16Z</time>
      </trkpt>
      <trkpt lat="43.44463" lon="2.12824">
        <ele>683</ele>
        <time>2012-04-05T16:20:18Z</time>
      </trkpt>
      <trkpt lat="43.44463" lon="2.12825">
        <ele>683</ele>
        <time>2012-04-05T16:20:20Z</time>
      </trkpt>
      <trkpt lat="43.44463" lon="2.12829">
        <ele>684</ele>
        <time>2012-04-05T16:20:22Z</time>
      </trkpt>
      <trkpt lat="43.44463" lon="2.12833">
        <ele>686</ele>
        <time>2012-04-05T16:20:25Z</time>
      </trkpt>
      <trkpt lat="43.44464" lon="2.12838">
        <ele>688</ele>
        <time>2012-04-05T16:20:28Z</time>
      </trkpt>
      <trkpt lat="43.44464" lon="2.1284">
        <ele>688</ele>
        <time>2012-04-05T16:20:30Z</time>
      </trkpt>
      <trkpt lat="43.44465" lon="2.12841">
        <ele>688</ele>
        <time>2012-04-05T16:20:33Z</time>
      </trkpt>
      <trkpt lat="43.44466" lon="2.12841">
        <ele>688</ele>
        <time>2012-04-05T16:20:37Z</time>
      </trkpt>
      <trkpt lat="43.44468" lon="2.12842">
        <ele>690</ele>
        <time>2012-04-05T16:20:41Z</time>
      </trkpt>
      <trkpt lat="43.44469" lon="2.12843">
        <ele>693</ele>
        <time>2012-04-05T16:20:47Z</time>
      </trkpt>
      <trkpt lat="43.44469" lon="2.12845">
        <ele>695</ele>
        <time>2012-04-05T16:20:56Z</time>
      </trkpt>
      <trkpt lat="43.44468" lon="2.12843">
        <ele>695</ele>
        <time>2012-04-05T16:21:02Z</time>
      </trkpt>
      <trkpt lat="43.44467" lon="2.12847">
        <ele>695</ele>
        <time>2012-04-05T16:21:10Z</time>
      </trkpt>
      <trkpt lat="43.44468" lon="2.12849">
        <ele>698</ele>
        <time>2012-04-05T16:21:13Z</time>
      </trkpt>
      <trkpt lat="43.44468" lon="2.1285">
        <ele>701</ele>
        <time>2012-04-05T16:21:16Z</time>
      </trkpt>
      <trkpt lat="43.44468" lon="2.12852">
        <ele>702</ele>
        <time>2012-04-05T16:21:20Z</time>
      </trkpt>
      <trkpt lat="43.44468" lon="2.12854">
        <ele>702</ele>
        <time>2012-04-05T16:21:26Z</time>
      </trkpt>
      <trkpt lat="43.44468" lon="2.12856">
        <ele>702</ele>
        <time>2012-04-05T16:21:28Z</time>
      </trkpt>
      <trkpt lat="43.44467" lon="2.12861">
        <ele>702</ele>
        <time>2012-04-05T16:21:31Z</time>
      </trkpt>
      <trkpt lat="43.44466" lon="2.12864">
        <ele>702</ele>
        <time>2012-04-05T16:21:33Z</time>
      </trkpt>
      <trkpt lat="43.44466" lon="2.12867">
        <ele>702</ele>
        <time>2012-04-05T16:21:35Z</time>
      </trkpt>
      <trkpt lat="43.44466" lon="2.12871">
        <ele>702</ele>
        <time>2012-04-05T16:21:37Z</time>
      </trkpt>
      <trkpt lat="43.44465" lon="2.12875">
        <ele>702</ele>
        <time>2012-04-05T16:21:39Z</time>
      </trkpt>
      <trkpt lat="43.44465" lon="2.12879">
        <ele>702</ele>
        <time>2012-04-05T16:21:41Z</time>
      </trkpt>
      <trkpt lat="43.44464" lon="2.12883">
        <ele>702</ele>
        <time>2012-04-05T16:21:43Z</time>
      </trkpt>
      <trkpt lat="43.44463" lon="2.12888">
        <ele>702</ele>
        <time>2012-04-05T16:21:45Z</time>
      </trkpt>
      <trkpt lat="43.44462" lon="2.12891">
        <ele>702</ele>
        <time>2012-04-05T16:21:47Z</time>
      </trkpt>
      <trkpt lat="43.44461" lon="2.12896">
        <ele>702</ele>
        <time>2012-04-05T16:21:49Z</time>
      </trkpt>
      <trkpt lat="43.4446" lon="2.129">
        <ele>702</ele>
        <time>2012-04-05T16:21:51Z</time>
      </trkpt>
      <trkpt lat="43.44459" lon="2.12904">
        <ele>702</ele>
        <time>2012-04-05T16:21:53Z</time>
      </trkpt>
      <trkpt lat="43.44459" lon="2.12908">
        <ele>702</ele>
        <time>2012-04-05T16:21:55Z</time>
      </trkpt>
      <trkpt lat="43.44458" lon="2.12912">
        <ele>702</ele>
        <time>2012-04-05T16:21:57Z</time>
      </trkpt>
      <trkpt lat="43.44457" lon="2.12917">
        <ele>702</ele>
        <time>2012-04-05T16:21:59Z</time>
      </trkpt>
      <trkpt lat="43.44456" lon="2.12922">
        <ele>702</ele>
        <time>2012-04-05T16:22:01Z</time>
      </trkpt>
      <trkpt lat="43.44455" lon="2.12926">
        <ele>702</ele>
        <time>2012-04-05T16:22:03Z</time>
      </trkpt>
      <trkpt lat="43.44455" lon="2.1293">
        <ele>702</ele>
        <time>2012-04-05T16:22:05Z</time>
      </trkpt>
      <trkpt lat="43.44453" lon="2.12934">
        <ele>702</ele>
        <time>2012-04-05T16:22:07Z</time>
      </trkpt>
      <trkpt lat="43.44452" lon="2.12939">
        <ele>703</ele>
        <time>2012-04-05T16:22:09Z</time>
      </trkpt>
      <trkpt lat="43.44451" lon="2.12943">
        <ele>703</ele>
        <time>2012-04-05T16:22:11Z</time>
      </trkpt>
      <trkpt lat="43.4445" lon="2.12948">
        <ele>703</ele>
        <time>2012-04-05T16:22:13Z</time>
      </trkpt>
      <trkpt lat="43.44449" lon="2.12953">
        <ele>703</ele>
        <time>2012-04-05T16:22:15Z</time>
      </trkpt>
      <trkpt lat="43.44448" lon="2.12958">
        <ele>703</ele>
        <time>2012-04-05T16:22:17Z</time>
      </trkpt>
      <trkpt lat="43.44447" lon="2.12962">
        <ele>703</ele>
        <time>2012-04-05T16:22:19Z</time>
      </trkpt>
      <trkpt lat="43.44445" lon="2.12966">
        <ele>703</ele>
        <time>2012-04-05T16:22:21Z</time>
      </trkpt>
      <trkpt lat="43.44443" lon="2.1297">
        <ele>703</ele>
        <time>2012-04-05T16:22:23Z</time>
      </trkpt>
      <trkpt lat="43.44442" lon="2.12975">
        <ele>703</ele>
        <time>2012-04-05T16:22:25Z</time>
      </trkpt>
      <trkpt lat="43.44441" lon="2.12981">
        <ele>704</ele>
        <time>2012-04-05T16:22:28Z</time>
      </trkpt>
      <trkpt lat="43.44439" lon="2.12985">
        <ele>704</ele>
        <time>2012-04-05T16:22:30Z</time>
      </trkpt>
      <trkpt lat="43.44437" lon="2.12989">
        <ele>704</ele>
        <time>2012-04-05T16:22:32Z</time>
      </trkpt>
      <trkpt lat="43.44436" lon="2.12993">
        <ele>704</ele>
        <time>2012-04-05T16:22:34Z</time>
      </trkpt>
      <trkpt lat="43.44434" lon="2.12997">
        <ele>704</ele>
        <time>2012-04-05T16:22:36Z</time>
      </trkpt>
      <trkpt lat="43.44433" lon="2.13001">
        <ele>704</ele>
        <time>2012-04-05T16:22:38Z</time>
      </trkpt>
      <trkpt lat="43.44431" lon="2.13005">
        <ele>704</ele>
        <time>2012-04-05T16:22:40Z</time>
      </trkpt>
      <trkpt lat="43.44429" lon="2.1301">
        <ele>706</ele>
        <time>2012-04-05T16:22:42Z</time>
      </trkpt>
      <trkpt lat="43.44427" lon="2.13013">
        <ele>706</ele>
        <time>2012-04-05T16:22:44Z</time>
      </trkpt>
      <trkpt lat="43.44425" lon="2.13017">
        <ele>707</ele>
        <time>2012-04-05T16:22:46Z</time>
      </trkpt>
      <trkpt lat="43.44423" lon="2.1302">
        <ele>707</ele>
        <time>2012-04-05T16:22:48Z</time>
      </trkpt>
      <trkpt lat="43.4442" lon="2.13024">
        <ele>707</ele>
        <time>2012-04-05T16:22:50Z</time>
      </trkpt>
      <trkpt lat="43.44418" lon="2.13029">
        <ele>707</ele>
        <time>2012-04-05T16:22:52Z</time>
      </trkpt>
      <trkpt lat="43.44415" lon="2.13032">
        <ele>707</ele>
        <time>2012-04-05T16:22:54Z</time>
      </trkpt>
      <trkpt lat="43.44413" lon="2.13035">
        <ele>708</ele>
        <time>2012-04-05T16:22:56Z</time>
      </trkpt>
      <trkpt lat="43.4441" lon="2.13038">
        <ele>709</ele>
        <time>2012-04-05T16:22:58Z</time>
      </trkpt>
      <trkpt lat="43.44407" lon="2.13043">
        <ele>709</ele>
        <time>2012-04-05T16:23:00Z</time>
      </trkpt>
      <trkpt lat="43.44403" lon="2.13048">
        <ele>709</ele>
        <time>2012-04-05T16:23:02Z</time>
      </trkpt>
      <trkpt lat="43.444" lon="2.13053">
        <ele>709</ele>
        <time>2012-04-05T16:23:04Z</time>
      </trkpt>
      <trkpt lat="43.44397" lon="2.13058">
        <ele>710</ele>
        <time>2012-04-05T16:23:06Z</time>
      </trkpt>
      <trkpt lat="43.44394" lon="2.13063">
        <ele>711</ele>
        <time>2012-04-05T16:23:08Z</time>
      </trkpt>
      <trkpt lat="43.44391" lon="2.13068">
        <ele>712</ele>
        <time>2012-04-05T16:23:10Z</time>
      </trkpt>
      <trkpt lat="43.44388" lon="2.13073">
        <ele>713</ele>
        <time>2012-04-05T16:23:12Z</time>
      </trkpt>
      <trkpt lat="43.44385" lon="2.13077">
        <ele>714</ele>
        <time>2012-04-05T16:23:14Z</time>
      </trkpt>
      <trkpt lat="43.44383" lon="2.13081">
        <ele>714</ele>
        <time>2012-04-05T16:23:16Z</time>
      </trkpt>
      <trkpt lat="43.44381" lon="2.13086">
        <ele>715</ele>
        <time>2012-04-05T16:23:18Z</time>
      </trkpt>
      <trkpt lat="43.44379" lon="2.1309">
        <ele>715</ele>
        <time>2012-04-05T16:23:20Z</time>
      </trkpt>
      <trkpt lat="43.44376" lon="2.13095">
        <ele>716</ele>
        <time>2012-04-05T16:23:22Z</time>
      </trkpt>
      <trkpt lat="43.44374" lon="2.13096">
        <ele>716</ele>
        <time>2012-04-05T16:23:24Z</time>
      </trkpt>
      <trkpt lat="43.44372" lon="2.13095">
        <ele>716</ele>
        <time>2012-04-05T16:23:26Z</time>
      </trkpt>
      <trkpt lat="43.44371" lon="2.13097">
        <ele>716</ele>
        <time>2012-04-05T16:23:28Z</time>
      </trkpt>
      <trkpt lat="43.44368" lon="2.13098">
        <ele>716</ele>
        <time>2012-04-05T16:23:30Z</time>
      </trkpt>
      <trkpt lat="43.44367" lon="2.131">
        <ele>716</ele>
        <time>2012-04-05T16:23:32Z</time>
      </trkpt>
      <trkpt lat="43.44367" lon="2.13102">
        <ele>716</ele>
        <time>2012-04-05T16:23:35Z</time>
      </trkpt>
      <trkpt lat="43.44366" lon="2.13104">
        <ele>716</ele>
        <time>2012-04-05T16:23:37Z</time>
      </trkpt>
      <trkpt lat="43.44366" lon="2.13105">
        <ele>716</ele>
        <time>2012-04-05T16:23:39Z</time>
      </trkpt>
      <trkpt lat="43.44365" lon="2.13107">
        <ele>716</ele>
        <time>2012-04-05T16:23:41Z</time>
      </trkpt>
      <trkpt lat="43.44364" lon="2.1311">
        <ele>716</ele>
        <time>2012-04-05T16:23:43Z</time>
      </trkpt>
      <trkpt lat="43.4436" lon="2.13115">
        <ele>716</ele>
        <time>2012-04-05T16:23:45Z</time>
      </trkpt>
      <trkpt lat="43.44358" lon="2.13119">
        <ele>716</ele>
        <time>2012-04-05T16:23:47Z</time>
      </trkpt>
      <trkpt lat="43.44356" lon="2.13124">
        <ele>716</ele>
        <time>2012-04-05T16:23:49Z</time>
      </trkpt>
      <trkpt lat="43.44353" lon="2.13128">
        <ele>716</ele>
        <time>2012-04-05T16:23:51Z</time>
      </trkpt>
      <trkpt lat="43.44352" lon="2.13134">
        <ele>716</ele>
        <time>2012-04-05T16:23:53Z</time>
      </trkpt>
      <trkpt lat="43.4435" lon="2.13141">
        <ele>716</ele>
        <time>2012-04-05T16:23:55Z</time>
      </trkpt>
      <trkpt lat="43.44349" lon="2.13148">
        <ele>716</ele>
        <time>2012-04-05T16:23:57Z</time>
      </trkpt>
      <trkpt lat="43.44347" lon="2.13155">
        <ele>716</ele>
        <time>2012-04-05T16:23:59Z</time>
      </trkpt>
      <trkpt lat="43.44345" lon="2.13162">
        <ele>715</ele>
        <time>2012-04-05T16:24:01Z</time>
      </trkpt>
      <trkpt lat="43.44343" lon="2.1317">
        <ele>715</ele>
        <time>2012-04-05T16:24:03Z</time>
      </trkpt>
      <trkpt lat="43.44342" lon="2.13178">
        <ele>715</ele>
        <time>2012-04-05T16:24:05Z</time>
      </trkpt>
      <trkpt lat="43.44341" lon="2.13186">
        <ele>715</ele>
        <time>2012-04-05T16:24:07Z</time>
      </trkpt>
      <trkpt lat="43.44339" lon="2.13193">
        <ele>715</ele>
        <time>2012-04-05T16:24:09Z</time>
      </trkpt>
      <trkpt lat="43.44338" lon="2.13202">
        <ele>715</ele>
        <time>2012-04-05T16:24:11Z</time>
      </trkpt>
      <trkpt lat="43.44337" lon="2.1321">
        <ele>715</ele>
        <time>2012-04-05T16:24:13Z</time>
      </trkpt>
      <trkpt lat="43.44336" lon="2.13218">
        <ele>715</ele>
        <time>2012-04-05T16:24:15Z</time>
      </trkpt>
      <trkpt lat="43.44335" lon="2.13226">
        <ele>715</ele>
        <time>2012-04-05T16:24:17Z</time>
      </trkpt>
      <trkpt lat="43.44334" lon="2.13233">
        <ele>715</ele>
        <time>2012-04-05T16:24:19Z</time>
      </trkpt>
      <trkpt lat="43.44334" lon="2.1324">
        <ele>715</ele>
        <time>2012-04-05T16:24:21Z</time>
      </trkpt>
      <trkpt lat="43.44337" lon="2.13245">
        <ele>715</ele>
        <time>2012-04-05T16:24:23Z</time>
      </trkpt>
      <trkpt lat="43.44342" lon="2.13247">
        <ele>715</ele>
        <time>2012-04-05T16:24:25Z</time>
      </trkpt>
      <trkpt lat="43.44349" lon="2.13247">
        <ele>713</ele>
        <time>2012-04-05T16:24:28Z</time>
      </trkpt>
      <trkpt lat="43.44351" lon="2.1325">
        <ele>711</ele>
        <time>2012-04-05T16:24:30Z</time>
      </trkpt>
      <trkpt lat="43.44353" lon="2.13251">
        <ele>711</ele>
        <time>2012-04-05T16:24:33Z</time>
      </trkpt>
      <trkpt lat="43.44355" lon="2.13253">
        <ele>711</ele>
        <time>2012-04-05T16:24:37Z</time>
      </trkpt>
      <trkpt lat="43.44357" lon="2.13253">
        <ele>711</ele>
        <time>2012-04-05T16:24:39Z</time>
      </trkpt>
      <trkpt lat="43.44359" lon="2.13254">
        <ele>711</ele>
        <time>2012-04-05T16:24:41Z</time>
      </trkpt>
      <trkpt lat="43.4436" lon="2.13256">
        <ele>711</ele>
        <time>2012-04-05T16:24:43Z</time>
      </trkpt>
      <trkpt lat="43.44361" lon="2.13258">
        <ele>711</ele>
        <time>2012-04-05T16:24:45Z</time>
      </trkpt>
      <trkpt lat="43.44363" lon="2.13259">
        <ele>711</ele>
        <time>2012-04-05T16:24:47Z</time>
      </trkpt>
      <trkpt lat="43.44363" lon="2.13262">
        <ele>711</ele>
        <time>2012-04-05T16:24:49Z</time>
      </trkpt>
      <trkpt lat="43.44361" lon="2.13263">
        <ele>711</ele>
        <time>2012-04-05T16:24:51Z</time>
      </trkpt>
      <trkpt lat="43.4436" lon="2.13264">
        <ele>711</ele>
        <time>2012-04-05T16:24:55Z</time>
      </trkpt>
      <trkpt lat="43.44358" lon="2.13264">
        <ele>713</ele>
        <time>2012-04-05T16:25:02Z</time>
      </trkpt>
      <trkpt lat="43.44359" lon="2.13266">
        <ele>714</ele>
        <time>2012-04-05T16:25:07Z</time>
      </trkpt>
      <trkpt lat="43.44359" lon="2.13267">
        <ele>715</ele>
        <time>2012-04-05T16:25:09Z</time>
      </trkpt>
      <trkpt lat="43.44359" lon="2.1327">
        <ele>715</ele>
        <time>2012-04-05T16:25:12Z</time>
      </trkpt>
      <trkpt lat="43.44359" lon="2.13271">
        <ele>715</ele>
        <time>2012-04-05T16:25:14Z</time>
      </trkpt>
      <trkpt lat="43.44358" lon="2.13274">
        <ele>715</ele>
        <time>2012-04-05T16:25:16Z</time>
      </trkpt>
      <trkpt lat="43.44357" lon="2.13276">
        <ele>715</ele>
        <time>2012-04-05T16:25:18Z</time>
      </trkpt>
      <trkpt lat="43.44356" lon="2.13278">
        <ele>715</ele>
        <time>2012-04-05T16:25:20Z</time>
      </trkpt>
      <trkpt lat="43.44354" lon="2.1328">
        <ele>715</ele>
        <time>2012-04-05T16:25:22Z</time>
      </trkpt>
      <trkpt lat="43.44353" lon="2.13282">
        <ele>715</ele>
        <time>2012-04-05T16:25:24Z</time>
      </trkpt>
      <trkpt lat="43.44352" lon="2.13284">
        <ele>715</ele>
        <time>2012-04-05T16:25:26Z</time>
      </trkpt>
      <trkpt lat="43.44351" lon="2.13287">
        <ele>715</ele>
        <time>2012-04-05T16:25:28Z</time>
      </trkpt>
      <trkpt lat="43.44349" lon="2.13289">
        <ele>716</ele>
        <time>2012-04-05T16:25:30Z</time>
      </trkpt>
      <trkpt lat="43.44348" lon="2.1329">
        <ele>716</ele>
        <time>2012-04-05T16:25:32Z</time>
      </trkpt>
      <trkpt lat="43.44345" lon="2.13293">
        <ele>717</ele>
        <time>2012-04-05T16:25:35Z</time>
      </trkpt>
      <trkpt lat="43.44343" lon="2.13295">
        <ele>717</ele>
        <time>2012-04-05T16:25:37Z</time>
      </trkpt>
      <trkpt lat="43.44342" lon="2.13297">
        <ele>717</ele>
        <time>2012-04-05T16:25:39Z</time>
      </trkpt>
      <trkpt lat="43.44341" lon="2.13299">
        <ele>717</ele>
        <time>2012-04-05T16:25:41Z</time>
      </trkpt>
      <trkpt lat="43.44341" lon="2.133">
        <ele>718</ele>
        <time>2012-04-05T16:25:46Z</time>
      </trkpt>
      <trkpt lat="43.4434" lon="2.13302">
        <ele>718</ele>
        <time>2012-04-05T16:25:50Z</time>
      </trkpt>
      <trkpt lat="43.44338" lon="2.13305">
        <ele>718</ele>
        <time>2012-04-05T16:25:52Z</time>
      </trkpt>
      <trkpt lat="43.44336" lon="2.13309">
        <ele>719</ele>
        <time>2012-04-05T16:25:54Z</time>
      </trkpt>
      <trkpt lat="43.44334" lon="2.13313">
        <ele>719</ele>
        <time>2012-04-05T16:25:56Z</time>
      </trkpt>
      <trkpt lat="43.44332" lon="2.13316">
        <ele>719</ele>
        <time>2012-04-05T16:25:58Z</time>
      </trkpt>
      <trkpt lat="43.4433" lon="2.13319">
        <ele>719</ele>
        <time>2012-04-05T16:26:00Z</time>
      </trkpt>
      <trkpt lat="43.44328" lon="2.13323">
        <ele>720</ele>
        <time>2012-04-05T16:26:02Z</time>
      </trkpt>
      <trkpt lat="43.44326" lon="2.13328">
        <ele>721</ele>
        <time>2012-04-05T16:26:04Z</time>
      </trkpt>
      <trkpt lat="43.44324" lon="2.13332">
        <ele>722</ele>
        <time>2012-04-05T16:26:06Z</time>
      </trkpt>
      <trkpt lat="43.44323" lon="2.13336">
        <ele>722</ele>
        <time>2012-04-05T16:26:08Z</time>
      </trkpt>
      <trkpt lat="43.44321" lon="2.1334">
        <ele>722</ele>
        <time>2012-04-05T16:26:10Z</time>
      </trkpt>
      <trkpt lat="43.4432" lon="2.13344">
        <ele>722</ele>
        <time>2012-04-05T16:26:12Z</time>
      </trkpt>
      <trkpt lat="43.44318" lon="2.13349">
        <ele>722</ele>
        <time>2012-04-05T16:26:14Z</time>
      </trkpt>
      <trkpt lat="43.44317" lon="2.13353">
        <ele>722</ele>
        <time>2012-04-05T16:26:16Z</time>
      </trkpt>
      <trkpt lat="43.44315" lon="2.13357">
        <ele>723</ele>
        <time>2012-04-05T16:26:18Z</time>
      </trkpt>
      <trkpt lat="43.44313" lon="2.13361">
        <ele>724</ele>
        <time>2012-04-05T16:26:20Z</time>
      </trkpt>
      <trkpt lat="43.44311" lon="2.13365">
        <ele>725</ele>
        <time>2012-04-05T16:26:22Z</time>
      </trkpt>
      <trkpt lat="43.44309" lon="2.13369">
        <ele>726</ele>
        <time>2012-04-05T16:26:24Z</time>
      </trkpt>
      <trkpt lat="43.44307" lon="2.13373">
        <ele>727</ele>
        <time>2012-04-05T16:26:26Z</time>
      </trkpt>
      <trkpt lat="43.44306" lon="2.13377">
        <ele>728</ele>
        <time>2012-04-05T16:26:28Z</time>
      </trkpt>
      <trkpt lat="43.44306" lon="2.13381">
        <ele>729</ele>
        <time>2012-04-05T16:26:30Z</time>
      </trkpt>
      <trkpt lat="43.44305" lon="2.13386">
        <ele>729</ele>
        <time>2012-04-05T16:26:32Z</time>
      </trkpt>
      <trkpt lat="43.44305" lon="2.13391">
        <ele>730</ele>
        <time>2012-04-05T16:26:34Z</time>
      </trkpt>
      <trkpt lat="43.44304" lon="2.13395">
        <ele>732</ele>
        <time>2012-04-05T16:26:36Z</time>
      </trkpt>
      <trkpt lat="43.44304" lon="2.134">
        <ele>732</ele>
        <time>2012-04-05T16:26:38Z</time>
      </trkpt>
      <trkpt lat="43.44304" lon="2.13405">
        <ele>733</ele>
        <time>2012-04-05T16:26:40Z</time>
      </trkpt>
      <trkpt lat="43.44303" lon="2.1341">
        <ele>733</ele>
        <time>2012-04-05T16:26:42Z</time>
      </trkpt>
      <trkpt lat="43.44302" lon="2.13414">
        <ele>733</ele>
        <time>2012-04-05T16:26:44Z</time>
      </trkpt>
      <trkpt lat="43.44302" lon="2.13419">
        <ele>733</ele>
        <time>2012-04-05T16:26:46Z</time>
      </trkpt>
      <trkpt lat="43.44302" lon="2.13424">
        <ele>733</ele>
        <time>2012-04-05T16:26:48Z</time>
      </trkpt>
      <trkpt lat="43.44301" lon="2.13428">
        <ele>733</ele>
        <time>2012-04-05T16:26:50Z</time>
      </trkpt>
      <trkpt lat="43.44301" lon="2.13433">
        <ele>734</ele>
        <time>2012-04-05T16:26:52Z</time>
      </trkpt>
      <trkpt lat="43.443" lon="2.13438">
        <ele>735</ele>
        <time>2012-04-05T16:26:54Z</time>
      </trkpt>
      <trkpt lat="43.44299" lon="2.13443">
        <ele>736</ele>
        <time>2012-04-05T16:26:56Z</time>
      </trkpt>
      <trkpt lat="43.44298" lon="2.13448">
        <ele>737</ele>
        <time>2012-04-05T16:26:58Z</time>
      </trkpt>
      <trkpt lat="43.44297" lon="2.13453">
        <ele>738</ele>
        <time>2012-04-05T16:27:00Z</time>
      </trkpt>
      <trkpt lat="43.44296" lon="2.13459">
        <ele>738</ele>
        <time>2012-04-05T16:27:02Z</time>
      </trkpt>
      <trkpt lat="43.44293" lon="2.13463">
        <ele>739</ele>
        <time>2012-04-05T16:27:04Z</time>
      </trkpt>
      <trkpt lat="43.44291" lon="2.13468">
        <ele>739</ele>
        <time>2012-04-05T16:27:06Z</time>
      </trkpt>
      <trkpt lat="43.44288" lon="2.13471">
        <ele>739</ele>
        <time>2012-04-05T16:27:08Z</time>
      </trkpt>
      <trkpt lat="43.44286" lon="2.13474">
        <ele>739</ele>
        <time>2012-04-05T16:27:10Z</time>
      </trkpt>
      <trkpt lat="43.44283" lon="2.13478">
        <ele>739</ele>
        <time>2012-04-05T16:27:12Z</time>
      </trkpt>
      <trkpt lat="43.44279" lon="2.13482">
        <ele>739</ele>
        <time>2012-04-05T16:27:14Z</time>
      </trkpt>
      <trkpt lat="43.44276" lon="2.13486">
        <ele>739</ele>
        <time>2012-04-05T16:27:16Z</time>
      </trkpt>
      <trkpt lat="43.44273" lon="2.13489">
        <ele>739</ele>
        <time>2012-04-05T16:27:18Z</time>
      </trkpt>
      <trkpt lat="43.44269" lon="2.13492">
        <ele>739</ele>
        <time>2012-04-05T16:27:20Z</time>
      </trkpt>
      <trkpt lat="43.44265" lon="2.13494">
        <ele>739</ele>
        <time>2012-04-05T16:27:22Z</time>
      </trkpt>
      <trkpt lat="43.4426" lon="2.13496">
        <ele>739</ele>
        <time>2012-04-05T16:27:24Z</time>
      </trkpt>
      <trkpt lat="43.44256" lon="2.13498">
        <ele>739</ele>
        <time>2012-04-05T16:27:26Z</time>
      </trkpt>
      <trkpt lat="43.44252" lon="2.13501">
        <ele>739</ele>
        <time>2012-04-05T16:27:28Z</time>
      </trkpt>
      <trkpt lat="43.44247" lon="2.13499">
        <ele>739</ele>
        <time>2012-04-05T16:27:30Z</time>
      </trkpt>
      <trkpt lat="43.44242" lon="2.13497">
        <ele>739</ele>
        <time>2012-04-05T16:27:32Z</time>
      </trkpt>
      <trkpt lat="43.44238" lon="2.13495">
        <ele>739</ele>
        <time>2012-04-05T16:27:34Z</time>
      </trkpt>
      <trkpt lat="43.44234" lon="2.13493">
        <ele>739</ele>
        <time>2012-04-05T16:27:36Z</time>
      </trkpt>
      <trkpt lat="43.44229" lon="2.13492">
        <ele>739</ele>
        <time>2012-04-05T16:27:38Z</time>
      </trkpt>
      <trkpt lat="43.44225" lon="2.13491">
        <ele>739</ele>
        <time>2012-04-05T16:27:40Z</time>
      </trkpt>
      <trkpt lat="43.4422" lon="2.13492">
        <ele>739</ele>
        <time>2012-04-05T16:27:42Z</time>
      </trkpt>
      <trkpt lat="43.44217" lon="2.13492">
        <ele>739</ele>
        <time>2012-04-05T16:27:44Z</time>
      </trkpt>
      <trkpt lat="43.44213" lon="2.13494">
        <ele>739</ele>
        <time>2012-04-05T16:27:46Z</time>
      </trkpt>
      <trkpt lat="43.4421" lon="2.13495">
        <ele>739</ele>
        <time>2012-04-05T16:27:48Z</time>
      </trkpt>
      <trkpt lat="43.44206" lon="2.13496">
        <ele>739</ele>
        <time>2012-04-05T16:27:50Z</time>
      </trkpt>
      <trkpt lat="43.44202" lon="2.13496">
        <ele>739</ele>
        <time>2012-04-05T16:27:52Z</time>
      </trkpt>
      <trkpt lat="43.44198" lon="2.13496">
        <ele>740</ele>
        <time>2012-04-05T16:27:54Z</time>
      </trkpt>
      <trkpt lat="43.44195" lon="2.13494">
        <ele>740</ele>
        <time>2012-04-05T16:27:56Z</time>
      </trkpt>
      <trkpt lat="43.44193" lon="2.13492">
        <ele>741</ele>
        <time>2012-04-05T16:27:59Z</time>
      </trkpt>
      <trkpt lat="43.44192" lon="2.13493">
        <ele>742</ele>
        <time>2012-04-05T16:28:02Z</time>
      </trkpt>
      <trkpt lat="43.44193" lon="2.13496">
        <ele>742</ele>
        <time>2012-04-05T16:28:05Z</time>
      </trkpt>
      <trkpt lat="43.44195" lon="2.135">
        <ele>742</ele>
        <time>2012-04-05T16:28:07Z</time>
      </trkpt>
      <trkpt lat="43.44198" lon="2.13504">
        <ele>742</ele>
        <time>2012-04-05T16:28:09Z</time>
      </trkpt>
      <trkpt lat="43.44201" lon="2.13509">
        <ele>742</ele>
        <time>2012-04-05T16:28:11Z</time>
      </trkpt>
      <trkpt lat="43.44204" lon="2.13515">
        <ele>742</ele>
        <time>2012-04-05T16:28:13Z</time>
      </trkpt>
      <trkpt lat="43.44205" lon="2.13521">
        <ele>742</ele>
        <time>2012-04-05T16:28:15Z</time>
      </trkpt>
      <trkpt lat="43.44208" lon="2.13527">
        <ele>742</ele>
        <time>2012-04-05T16:28:17Z</time>
      </trkpt>
      <trkpt lat="43.44212" lon="2.13533">
        <ele>742</ele>
        <time>2012-04-05T16:28:19Z</time>
      </trkpt>
      <trkpt lat="43.44215" lon="2.13539">
        <ele>742</ele>
        <time>2012-04-05T16:28:21Z</time>
      </trkpt>
      <trkpt lat="43.4422" lon="2.13543">
        <ele>742</ele>
        <time>2012-04-05T16:28:23Z</time>
      </trkpt>
      <trkpt lat="43.44224" lon="2.13548">
        <ele>742</ele>
        <time>2012-04-05T16:28:25Z</time>
      </trkpt>
      <trkpt lat="43.44232" lon="2.13554">
        <ele>743</ele>
        <time>2012-04-05T16:28:28Z</time>
      </trkpt>
      <trkpt lat="43.44238" lon="2.13557">
        <ele>743</ele>
        <time>2012-04-05T16:28:30Z</time>
      </trkpt>
      <trkpt lat="43.44244" lon="2.1356">
        <ele>744</ele>
        <time>2012-04-05T16:28:32Z</time>
      </trkpt>
      <trkpt lat="43.44251" lon="2.13563">
        <ele>744</ele>
        <time>2012-04-05T16:28:34Z</time>
      </trkpt>
      <trkpt lat="43.44257" lon="2.13566">
        <ele>744</ele>
        <time>2012-04-05T16:28:36Z</time>
      </trkpt>
      <trkpt lat="43.44262" lon="2.13568">
        <ele>744</ele>
        <time>2012-04-05T16:28:38Z</time>
      </trkpt>
      <trkpt lat="43.44267" lon="2.1357">
        <ele>744</ele>
        <time>2012-04-05T16:28:40Z</time>
      </trkpt>
      <trkpt lat="43.44273" lon="2.13571">
        <ele>744</ele>
        <time>2012-04-05T16:28:42Z</time>
      </trkpt>
      <trkpt lat="43.44278" lon="2.13573">
        <ele>744</ele>
        <time>2012-04-05T16:28:44Z</time>
      </trkpt>
      <trkpt lat="43.44284" lon="2.13574">
        <ele>744</ele>
        <time>2012-04-05T16:28:46Z</time>
      </trkpt>
      <trkpt lat="43.4429" lon="2.13574">
        <ele>744</ele>
        <time>2012-04-05T16:28:48Z</time>
      </trkpt>
      <trkpt lat="43.44295" lon="2.13573">
        <ele>744</ele>
        <time>2012-04-05T16:28:50Z</time>
      </trkpt>
      <trkpt lat="43.443" lon="2.13572">
        <ele>744</ele>
        <time>2012-04-05T16:28:52Z</time>
      </trkpt>
      <trkpt lat="43.44303" lon="2.13569">
        <ele>744</ele>
        <time>2012-04-05T16:28:54Z</time>
      </trkpt>
      <trkpt lat="43.44309" lon="2.13566">
        <ele>744</ele>
        <time>2012-04-05T16:28:56Z</time>
      </trkpt>
      <trkpt lat="43.4432" lon="2.13563">
        <ele>744</ele>
        <time>2012-04-05T16:28:58Z</time>
      </trkpt>
      <trkpt lat="43.4433" lon="2.13563">
        <ele>744</ele>
        <time>2012-04-05T16:29:00Z</time>
      </trkpt>
      <trkpt lat="43.4434" lon="2.13562">
        <ele>744</ele>
        <time>2012-04-05T16:29:02Z</time>
      </trkpt>
      <trkpt lat="43.4435" lon="2.13563">
        <ele>744</ele>
        <time>2012-04-05T16:29:04Z</time>
      </trkpt>
      <trkpt lat="43.4436" lon="2.13566">
        <ele>744</ele>
        <time>2012-04-05T16:29:06Z</time>
      </trkpt>
      <trkpt lat="43.44368" lon="2.13569">
        <ele>743</ele>
        <time>2012-04-05T16:29:08Z</time>
      </trkpt>
      <trkpt lat="43.44377" lon="2.13572">
        <ele>742</ele>
        <time>2012-04-05T16:29:10Z</time>
      </trkpt>
      <trkpt lat="43.44384" lon="2.13578">
        <ele>741</ele>
        <time>2012-04-05T16:29:12Z</time>
      </trkpt>
      <trkpt lat="43.44394" lon="2.1358">
        <ele>740</ele>
        <time>2012-04-05T16:29:14Z</time>
      </trkpt>
      <trkpt lat="43.44404" lon="2.13583">
        <ele>740</ele>
        <time>2012-04-05T16:29:16Z</time>
      </trkpt>
      <trkpt lat="43.44413" lon="2.13587">
        <ele>740</ele>
        <time>2012-04-05T16:29:18Z</time>
      </trkpt>
      <trkpt lat="43.44424" lon="2.13589">
        <ele>739</ele>
        <time>2012-04-05T16:29:20Z</time>
      </trkpt>
      <trkpt lat="43.44436" lon="2.13591">
        <ele>739</ele>
        <time>2012-04-05T16:29:22Z</time>
      </trkpt>
      <trkpt lat="43.44446" lon="2.13593">
        <ele>739</ele>
        <time>2012-04-05T16:29:24Z</time>
      </trkpt>
      <trkpt lat="43.44456" lon="2.13595">
        <ele>739</ele>
        <time>2012-04-05T16:29:26Z</time>
      </trkpt>
      <trkpt lat="43.44463" lon="2.13598">
        <ele>739</ele>
        <time>2012-04-05T16:29:28Z</time>
      </trkpt>
      <trkpt lat="43.44473" lon="2.13599">
        <ele>738</ele>
        <time>2012-04-05T16:29:30Z</time>
      </trkpt>
      <trkpt lat="43.44485" lon="2.13603">
        <ele>738</ele>
        <time>2012-04-05T16:29:32Z</time>
      </trkpt>
      <trkpt lat="43.44491" lon="2.13607">
        <ele>738</ele>
        <time>2012-04-05T16:29:34Z</time>
      </trkpt>
      <trkpt lat="43.44492" lon="2.13612">
        <ele>738</ele>
        <time>2012-04-05T16:29:36Z</time>
      </trkpt>
      <trkpt lat="43.44491" lon="2.13617">
        <ele>738</ele>
        <time>2012-04-05T16:29:38Z</time>
      </trkpt>
      <trkpt lat="43.44489" lon="2.13621">
        <ele>738</ele>
        <time>2012-04-05T16:29:40Z</time>
      </trkpt>
      <trkpt lat="43.44489" lon="2.13625">
        <ele>738</ele>
        <time>2012-04-05T16:29:42Z</time>
      </trkpt>
      <trkpt lat="43.44489" lon="2.13629">
        <ele>738</ele>
        <time>2012-04-05T16:29:44Z</time>
      </trkpt>
      <trkpt lat="43.4449" lon="2.13634">
        <ele>738</ele>
        <time>2012-04-05T16:29:46Z</time>
      </trkpt>
      <trkpt lat="43.44488" lon="2.13638">
        <ele>738</ele>
        <time>2012-04-05T16:29:48Z</time>
      </trkpt>
      <trkpt lat="43.44485" lon="2.13641">
        <ele>738</ele>
        <time>2012-04-05T16:29:50Z</time>
      </trkpt>
      <trkpt lat="43.44484" lon="2.13643">
        <ele>738</ele>
        <time>2012-04-05T16:29:52Z</time>
      </trkpt>
      <trkpt lat="43.44481" lon="2.13646">
        <ele>738</ele>
        <time>2012-04-05T16:29:54Z</time>
      </trkpt>
      <trkpt lat="43.44479" lon="2.13648">
        <ele>738</ele>
        <time>2012-04-05T16:29:56Z</time>
      </trkpt>
      <trkpt lat="43.44478" lon="2.13651">
        <ele>738</ele>
        <time>2012-04-05T16:29:58Z</time>
      </trkpt>
      <trkpt lat="43.44477" lon="2.13653">
        <ele>738</ele>
        <time>2012-04-05T16:30:00Z</time>
      </trkpt>
      <trkpt lat="43.44476" lon="2.13656">
        <ele>738</ele>
        <time>2012-04-05T16:30:02Z</time>
      </trkpt>
      <trkpt lat="43.44475" lon="2.13662">
        <ele>739</ele>
        <time>2012-04-05T16:30:04Z</time>
      </trkpt>
      <trkpt lat="43.44476" lon="2.13666">
        <ele>740</ele>
        <time>2012-04-05T16:30:06Z</time>
      </trkpt>
      <trkpt lat="43.44474" lon="2.13671">
        <ele>740</ele>
        <time>2012-04-05T16:30:08Z</time>
      </trkpt>
      <trkpt lat="43.44472" lon="2.13674">
        <ele>741</ele>
        <time>2012-04-05T16:30:10Z</time>
      </trkpt>
      <trkpt lat="43.44471" lon="2.13677">
        <ele>742</ele>
        <time>2012-04-05T16:30:12Z</time>
      </trkpt>
      <trkpt lat="43.44468" lon="2.13682">
        <ele>743</ele>
        <time>2012-04-05T16:30:14Z</time>
      </trkpt>
      <trkpt lat="43.44466" lon="2.13686">
        <ele>745</ele>
        <time>2012-04-05T16:30:16Z</time>
      </trkpt>
      <trkpt lat="43.44463" lon="2.1369">
        <ele>747</ele>
        <time>2012-04-05T16:30:18Z</time>
      </trkpt>
      <trkpt lat="43.44461" lon="2.13693">
        <ele>749</ele>
        <time>2012-04-05T16:30:20Z</time>
      </trkpt>
      <trkpt lat="43.4446" lon="2.13695">
        <ele>751</ele>
        <time>2012-04-05T16:30:22Z</time>
      </trkpt>
      <trkpt lat="43.44458" lon="2.13699">
        <ele>753</ele>
        <time>2012-04-05T16:30:24Z</time>
      </trkpt>
      <trkpt lat="43.44457" lon="2.13702">
        <ele>754</ele>
        <time>2012-04-05T16:30:26Z</time>
      </trkpt>
      <trkpt lat="43.44458" lon="2.13706">
        <ele>754</ele>
        <time>2012-04-05T16:30:28Z</time>
      </trkpt>
      <trkpt lat="43.44458" lon="2.13709">
        <ele>754</ele>
        <time>2012-04-05T16:30:30Z</time>
      </trkpt>
      <trkpt lat="43.44457" lon="2.13714">
        <ele>754</ele>
        <time>2012-04-05T16:30:32Z</time>
      </trkpt>
      <trkpt lat="43.44457" lon="2.13718">
        <ele>754</ele>
        <time>2012-04-05T16:30:34Z</time>
      </trkpt>
      <trkpt lat="43.44456" lon="2.13722">
        <ele>754</ele>
        <time>2012-04-05T16:30:36Z</time>
      </trkpt>
      <trkpt lat="43.44457" lon="2.13726">
        <ele>754</ele>
        <time>2012-04-05T16:30:38Z</time>
      </trkpt>
      <trkpt lat="43.44458" lon="2.13731">
        <ele>754</ele>
        <time>2012-04-05T16:30:40Z</time>
      </trkpt>
      <trkpt lat="43.44457" lon="2.13736">
        <ele>754</ele>
        <time>2012-04-05T16:30:42Z</time>
      </trkpt>
      <trkpt lat="43.44457" lon="2.13741">
        <ele>755</ele>
        <time>2012-04-05T16:30:44Z</time>
      </trkpt>
      <trkpt lat="43.44456" lon="2.13744">
        <ele>757</ele>
        <time>2012-04-05T16:30:46Z</time>
      </trkpt>
      <trkpt lat="43.44457" lon="2.13747">
        <ele>757</ele>
        <time>2012-04-05T16:30:48Z</time>
      </trkpt>
      <trkpt lat="43.44456" lon="2.1375">
        <ele>757</ele>
        <time>2012-04-05T16:30:50Z</time>
      </trkpt>
      <trkpt lat="43.44455" lon="2.13753">
        <ele>757</ele>
        <time>2012-04-05T16:30:52Z</time>
      </trkpt>
      <trkpt lat="43.44455" lon="2.13755">
        <ele>757</ele>
        <time>2012-04-05T16:30:54Z</time>
      </trkpt>
      <trkpt lat="43.44453" lon="2.13758">
        <ele>757</ele>
        <time>2012-04-05T16:30:56Z</time>
      </trkpt>
      <trkpt lat="43.44451" lon="2.13761">
        <ele>757</ele>
        <time>2012-04-05T16:30:58Z</time>
      </trkpt>
      <trkpt lat="43.44451" lon="2.13765">
        <ele>757</ele>
        <time>2012-04-05T16:31:00Z</time>
      </trkpt>
      <trkpt lat="43.4445" lon="2.13769">
        <ele>757</ele>
        <time>2012-04-05T16:31:02Z</time>
      </trkpt>
      <trkpt lat="43.44449" lon="2.13773">
        <ele>757</ele>
        <time>2012-04-05T16:31:04Z</time>
      </trkpt>
      <trkpt lat="43.44448" lon="2.13777">
        <ele>757</ele>
        <time>2012-04-05T16:31:06Z</time>
      </trkpt>
      <trkpt lat="43.44446" lon="2.13781">
        <ele>757</ele>
        <time>2012-04-05T16:31:09Z</time>
      </trkpt>
      <trkpt lat="43.44445" lon="2.13785">
        <ele>757</ele>
        <time>2012-04-05T16:31:11Z</time>
      </trkpt>
      <trkpt lat="43.44444" lon="2.1379">
        <ele>757</ele>
        <time>2012-04-05T16:31:13Z</time>
      </trkpt>
      <trkpt lat="43.44442" lon="2.13795">
        <ele>759</ele>
        <time>2012-04-05T16:31:16Z</time>
      </trkpt>
      <trkpt lat="43.44444" lon="2.13798">
        <ele>760</ele>
        <time>2012-04-05T16:31:18Z</time>
      </trkpt>
      <trkpt lat="43.44445" lon="2.13802">
        <ele>760</ele>
        <time>2012-04-05T16:31:20Z</time>
      </trkpt>
      <trkpt lat="43.44445" lon="2.13807">
        <ele>760</ele>
        <time>2012-04-05T16:31:22Z</time>
      </trkpt>
      <trkpt lat="43.44443" lon="2.13811">
        <ele>760</ele>
        <time>2012-04-05T16:31:24Z</time>
      </trkpt>
      <trkpt lat="43.44443" lon="2.13815">
        <ele>761</ele>
        <time>2012-04-05T16:31:26Z</time>
      </trkpt>
      <trkpt lat="43.44444" lon="2.13818">
        <ele>761</ele>
        <time>2012-04-05T16:31:28Z</time>
      </trkpt>
      <trkpt lat="43.44444" lon="2.13823">
        <ele>761</ele>
        <time>2012-04-05T16:31:30Z</time>
      </trkpt>
      <trkpt lat="43.44443" lon="2.13825">
        <ele>761</ele>
        <time>2012-04-05T16:31:32Z</time>
      </trkpt>
      <trkpt lat="43.44442" lon="2.1383">
        <ele>761</ele>
        <time>2012-04-05T16:31:34Z</time>
      </trkpt>
      <trkpt lat="43.44442" lon="2.13834">
        <ele>761</ele>
        <time>2012-04-05T16:31:36Z</time>
      </trkpt>
      <trkpt lat="43.44442" lon="2.13838">
        <ele>761</ele>
        <time>2012-04-05T16:31:38Z</time>
      </trkpt>
      <trkpt lat="43.44442" lon="2.13842">
        <ele>762</ele>
        <time>2012-04-05T16:31:40Z</time>
      </trkpt>
      <trkpt lat="43.44442" lon="2.13846">
        <ele>763</ele>
        <time>2012-04-05T16:31:42Z</time>
      </trkpt>
      <trkpt lat="43.44442" lon="2.13851">
        <ele>763</ele>
        <time>2012-04-05T16:31:44Z</time>
      </trkpt>
      <trkpt lat="43.44441" lon="2.13855">
        <ele>765</ele>
        <time>2012-04-05T16:31:46Z</time>
      </trkpt>
      <trkpt lat="43.4444" lon="2.13859">
        <ele>766</ele>
        <time>2012-04-05T16:31:48Z</time>
      </trkpt>
      <trkpt lat="43.4444" lon="2.13864">
        <ele>767</ele>
        <time>2012-04-05T16:31:50Z</time>
      </trkpt>
      <trkpt lat="43.4444" lon="2.13868">
        <ele>767</ele>
        <time>2012-04-05T16:31:52Z</time>
      </trkpt>
      <trkpt lat="43.44439" lon="2.13872">
        <ele>767</ele>
        <time>2012-04-05T16:31:54Z</time>
      </trkpt>
      <trkpt lat="43.44437" lon="2.13876">
        <ele>767</ele>
        <time>2012-04-05T16:31:57Z</time>
      </trkpt>
      <trkpt lat="43.44436" lon="2.1388">
        <ele>767</ele>
        <time>2012-04-05T16:31:59Z</time>
      </trkpt>
      <trkpt lat="43.44435" lon="2.13885">
        <ele>768</ele>
        <time>2012-04-05T16:32:01Z</time>
      </trkpt>
      <trkpt lat="43.44434" lon="2.13889">
        <ele>768</ele>
        <time>2012-04-05T16:32:03Z</time>
      </trkpt>
      <trkpt lat="43.44433" lon="2.13891">
        <ele>769</ele>
        <time>2012-04-05T16:32:05Z</time>
      </trkpt>
      <trkpt lat="43.44431" lon="2.13895">
        <ele>769</ele>
        <time>2012-04-05T16:32:07Z</time>
      </trkpt>
      <trkpt lat="43.44429" lon="2.13896">
        <ele>769</ele>
        <time>2012-04-05T16:32:09Z</time>
      </trkpt>
      <trkpt lat="43.44426" lon="2.13898">
        <ele>769</ele>
        <time>2012-04-05T16:32:11Z</time>
      </trkpt>
      <trkpt lat="43.44424" lon="2.13901">
        <ele>770</ele>
        <time>2012-04-05T16:32:13Z</time>
      </trkpt>
      <trkpt lat="43.44422" lon="2.13904">
        <ele>770</ele>
        <time>2012-04-05T16:32:15Z</time>
      </trkpt>
      <trkpt lat="43.44421" lon="2.13908">
        <ele>770</ele>
        <time>2012-04-05T16:32:17Z</time>
      </trkpt>
      <trkpt lat="43.44422" lon="2.13912">
        <ele>771</ele>
        <time>2012-04-05T16:32:19Z</time>
      </trkpt>
      <trkpt lat="43.44423" lon="2.13915">
        <ele>771</ele>
        <time>2012-04-05T16:32:21Z</time>
      </trkpt>
      <trkpt lat="43.44424" lon="2.13918">
        <ele>771</ele>
        <time>2012-04-05T16:32:23Z</time>
      </trkpt>
      <trkpt lat="43.44425" lon="2.13923">
        <ele>771</ele>
        <time>2012-04-05T16:32:25Z</time>
      </trkpt>
      <trkpt lat="43.44424" lon="2.13929">
        <ele>772</ele>
        <time>2012-04-05T16:32:28Z</time>
      </trkpt>
      <trkpt lat="43.44423" lon="2.13933">
        <ele>772</ele>
        <time>2012-04-05T16:32:30Z</time>
      </trkpt>
      <trkpt lat="43.44421" lon="2.13937">
        <ele>773</ele>
        <time>2012-04-05T16:32:32Z</time>
      </trkpt>
      <trkpt lat="43.44421" lon="2.13941">
        <ele>773</ele>
        <time>2012-04-05T16:32:34Z</time>
      </trkpt>
      <trkpt lat="43.44419" lon="2.13946">
        <ele>773</ele>
        <time>2012-04-05T16:32:36Z</time>
      </trkpt>
      <trkpt lat="43.44418" lon="2.1395">
        <ele>773</ele>
        <time>2012-04-05T16:32:38Z</time>
      </trkpt>
      <trkpt lat="43.44417" lon="2.13954">
        <ele>773</ele>
        <time>2012-04-05T16:32:40Z</time>
      </trkpt>
      <trkpt lat="43.44417" lon="2.13958">
        <ele>774</ele>
        <time>2012-04-05T16:32:42Z</time>
      </trkpt>
      <trkpt lat="43.44418" lon="2.13962">
        <ele>775</ele>
        <time>2012-04-05T16:32:44Z</time>
      </trkpt>
      <trkpt lat="43.44418" lon="2.13966">
        <ele>776</ele>
        <time>2012-04-05T16:32:46Z</time>
      </trkpt>
      <trkpt lat="43.44419" lon="2.1397">
        <ele>776</ele>
        <time>2012-04-05T16:32:48Z</time>
      </trkpt>
      <trkpt lat="43.4442" lon="2.13974">
        <ele>777</ele>
        <time>2012-04-05T16:32:50Z</time>
      </trkpt>
      <trkpt lat="43.44421" lon="2.13979">
        <ele>778</ele>
        <time>2012-04-05T16:32:52Z</time>
      </trkpt>
      <trkpt lat="43.44422" lon="2.13983">
        <ele>778</ele>
        <time>2012-04-05T16:32:54Z</time>
      </trkpt>
      <trkpt lat="43.44421" lon="2.13988">
        <ele>778</ele>
        <time>2012-04-05T16:32:56Z</time>
      </trkpt>
      <trkpt lat="43.44421" lon="2.13992">
        <ele>778</ele>
        <time>2012-04-05T16:32:58Z</time>
      </trkpt>
      <trkpt lat="43.44421" lon="2.13997">
        <ele>778</ele>
        <time>2012-04-05T16:33:00Z</time>
      </trkpt>
      <trkpt lat="43.44424" lon="2.14001">
        <ele>778</ele>
        <time>2012-04-05T16:33:02Z</time>
      </trkpt>
      <trkpt lat="43.44426" lon="2.14004">
        <ele>778</ele>
        <time>2012-04-05T16:33:04Z</time>
      </trkpt>
      <trkpt lat="43.44428" lon="2.14008">
        <ele>779</ele>
        <time>2012-04-05T16:33:06Z</time>
      </trkpt>
      <trkpt lat="43.4443" lon="2.14012">
        <ele>779</ele>
        <time>2012-04-05T16:33:08Z</time>
      </trkpt>
      <trkpt lat="43.44431" lon="2.14017">
        <ele>779</ele>
        <time>2012-04-05T16:33:10Z</time>
      </trkpt>
      <trkpt lat="43.44431" lon="2.14022">
        <ele>779</ele>
        <time>2012-04-05T16:33:12Z</time>
      </trkpt>
      <trkpt lat="43.4443" lon="2.14027">
        <ele>779</ele>
        <time>2012-04-05T16:33:14Z</time>
      </trkpt>
      <trkpt lat="43.44431" lon="2.14032">
        <ele>780</ele>
        <time>2012-04-05T16:33:16Z</time>
      </trkpt>
      <trkpt lat="43.44434" lon="2.14036">
        <ele>780</ele>
        <time>2012-04-05T16:33:18Z</time>
      </trkpt>
      <trkpt lat="43.44437" lon="2.14039">
        <ele>780</ele>
        <time>2012-04-05T16:33:20Z</time>
      </trkpt>
      <trkpt lat="43.44439" lon="2.14043">
        <ele>780</ele>
        <time>2012-04-05T16:33:22Z</time>
      </trkpt>
      <trkpt lat="43.44441" lon="2.1405">
        <ele>780</ele>
        <time>2012-04-05T16:33:24Z</time>
      </trkpt>
      <trkpt lat="43.44444" lon="2.14056">
        <ele>780</ele>
        <time>2012-04-05T16:33:26Z</time>
      </trkpt>
      <trkpt lat="43.4445" lon="2.14059">
        <ele>780</ele>
        <time>2012-04-05T16:33:28Z</time>
      </trkpt>
      <trkpt lat="43.44455" lon="2.1406">
        <ele>780</ele>
        <time>2012-04-05T16:33:30Z</time>
      </trkpt>
      <trkpt lat="43.44461" lon="2.14062">
        <ele>780</ele>
        <time>2012-04-05T16:33:32Z</time>
      </trkpt>
      <trkpt lat="43.44466" lon="2.14065">
        <ele>780</ele>
        <time>2012-04-05T16:33:34Z</time>
      </trkpt>
      <trkpt lat="43.44471" lon="2.14069">
        <ele>780</ele>
        <time>2012-04-05T16:33:36Z</time>
      </trkpt>
      <trkpt lat="43.44474" lon="2.14069">
        <ele>780</ele>
        <time>2012-04-05T16:33:38Z</time>
      </trkpt>
      <trkpt lat="43.44479" lon="2.1407">
        <ele>780</ele>
        <time>2012-04-05T16:33:40Z</time>
      </trkpt>
      <trkpt lat="43.44483" lon="2.14074">
        <ele>780</ele>
        <time>2012-04-05T16:33:42Z</time>
      </trkpt>
      <trkpt lat="43.44488" lon="2.14079">
        <ele>780</ele>
        <time>2012-04-05T16:33:44Z</time>
      </trkpt>
      <trkpt lat="43.44495" lon="2.14079">
        <ele>780</ele>
        <time>2012-04-05T16:33:46Z</time>
      </trkpt>
      <trkpt lat="43.44502" lon="2.14083">
        <ele>780</ele>
        <time>2012-04-05T16:33:48Z</time>
      </trkpt>
      <trkpt lat="43.4451" lon="2.14084">
        <ele>779</ele>
        <time>2012-04-05T16:33:50Z</time>
      </trkpt>
      <trkpt lat="43.44515" lon="2.14078">
        <ele>779</ele>
        <time>2012-04-05T16:33:52Z</time>
      </trkpt>
      <trkpt lat="43.44522" lon="2.14078">
        <ele>778</ele>
        <time>2012-04-05T16:33:54Z</time>
      </trkpt>
      <trkpt lat="43.44529" lon="2.1408">
        <ele>777</ele>
        <time>2012-04-05T16:33:56Z</time>
      </trkpt>
      <trkpt lat="43.44535" lon="2.14084">
        <ele>777</ele>
        <time>2012-04-05T16:33:58Z</time>
      </trkpt>
      <trkpt lat="43.44542" lon="2.14087">
        <ele>776</ele>
        <time>2012-04-05T16:34:00Z</time>
      </trkpt>
      <trkpt lat="43.44548" lon="2.14091">
        <ele>776</ele>
        <time>2012-04-05T16:34:02Z</time>
      </trkpt>
      <trkpt lat="43.44552" lon="2.14097">
        <ele>776</ele>
        <time>2012-04-05T16:34:04Z</time>
      </trkpt>
      <trkpt lat="43.44555" lon="2.14104">
        <ele>776</ele>
        <time>2012-04-05T16:34:06Z</time>
      </trkpt>
      <trkpt lat="43.44555" lon="2.1411">
        <ele>776</ele>
        <time>2012-04-05T16:34:08Z</time>
      </trkpt>
      <trkpt lat="43.44555" lon="2.14116">
        <ele>776</ele>
        <time>2012-04-05T16:34:10Z</time>
      </trkpt>
      <trkpt lat="43.44556" lon="2.14121">
        <ele>776</ele>
        <time>2012-04-05T16:34:12Z</time>
      </trkpt>
      <trkpt lat="43.44557" lon="2.14126">
        <ele>776</ele>
        <time>2012-04-05T16:34:14Z</time>
      </trkpt>
      <trkpt lat="43.44559" lon="2.1413">
        <ele>776</ele>
        <time>2012-04-05T16:34:16Z</time>
      </trkpt>
      <trkpt lat="43.44563" lon="2.1413">
        <ele>776</ele>
        <time>2012-04-05T16:34:18Z</time>
      </trkpt>
      <trkpt lat="43.44567" lon="2.14134">
        <ele>776</ele>
        <time>2012-04-05T16:34:20Z</time>
      </trkpt>
      <trkpt lat="43.44568" lon="2.1414">
        <ele>776</ele>
        <time>2012-04-05T16:34:22Z</time>
      </trkpt>
      <trkpt lat="43.44567" lon="2.14144">
        <ele>776</ele>
        <time>2012-04-05T16:34:24Z</time>
      </trkpt>
      <trkpt lat="43.44564" lon="2.14148">
        <ele>776</ele>
        <time>2012-04-05T16:34:26Z</time>
      </trkpt>
      <trkpt lat="43.44561" lon="2.14151">
        <ele>777</ele>
        <time>2012-04-05T16:34:28Z</time>
      </trkpt>
      <trkpt lat="43.44559" lon="2.14153">
        <ele>778</ele>
        <time>2012-04-05T16:34:30Z</time>
      </trkpt>
      <trkpt lat="43.44556" lon="2.14156">
        <ele>778</ele>
        <time>2012-04-05T16:34:32Z</time>
      </trkpt>
      <trkpt lat="43.44554" lon="2.14158">
        <ele>779</ele>
        <time>2012-04-05T16:34:34Z</time>
      </trkpt>
      <trkpt lat="43.44552" lon="2.14159">
        <ele>780</ele>
        <time>2012-04-05T16:34:38Z</time>
      </trkpt>
      <trkpt lat="43.44551" lon="2.1416">
        <ele>781</ele>
        <time>2012-04-05T16:34:41Z</time>
      </trkpt>
      <trkpt lat="43.4455" lon="2.14161">
        <ele>782</ele>
        <time>2012-04-05T16:34:44Z</time>
      </trkpt>
      <trkpt lat="43.44548" lon="2.14162">
        <ele>782</ele>
        <time>2012-04-05T16:34:47Z</time>
      </trkpt>
      <trkpt lat="43.44547" lon="2.14163">
        <ele>782</ele>
        <time>2012-04-05T16:34:49Z</time>
      </trkpt>
      <trkpt lat="43.44545" lon="2.14164">
        <ele>782</ele>
        <time>2012-04-05T16:34:51Z</time>
      </trkpt>
      <trkpt lat="43.44544" lon="2.14165">
        <ele>782</ele>
        <time>2012-04-05T16:34:53Z</time>
      </trkpt>
      <trkpt lat="43.44543" lon="2.14167">
        <ele>782</ele>
        <time>2012-04-05T16:34:56Z</time>
      </trkpt>
      <trkpt lat="43.44542" lon="2.14169">
        <ele>782</ele>
        <time>2012-04-05T16:34:58Z</time>
      </trkpt>
      <trkpt lat="43.44541" lon="2.1417">
        <ele>782</ele>
        <time>2012-04-05T16:35:00Z</time>
      </trkpt>
      <trkpt lat="43.4454" lon="2.14172">
        <ele>783</ele>
        <time>2012-04-05T16:35:02Z</time>
      </trkpt>
      <trkpt lat="43.4454" lon="2.14174">
        <ele>783</ele>
        <time>2012-04-05T16:35:04Z</time>
      </trkpt>
      <trkpt lat="43.44538" lon="2.14175">
        <ele>784</ele>
        <time>2012-04-05T16:35:06Z</time>
      </trkpt>
      <trkpt lat="43.44537" lon="2.14174">
        <ele>784</ele>
        <time>2012-04-05T16:35:08Z</time>
      </trkpt>
      <trkpt lat="43.44536" lon="2.14173">
        <ele>784</ele>
        <time>2012-04-05T16:35:23Z</time>
      </trkpt>
      <trkpt lat="43.44534" lon="2.14171">
        <ele>784</ele>
        <time>2012-04-05T16:35:25Z</time>
      </trkpt>
      <trkpt lat="43.44533" lon="2.14167">
        <ele>785</ele>
        <time>2012-04-05T16:35:29Z</time>
      </trkpt>
      <trkpt lat="43.44532" lon="2.14166">
        <ele>785</ele>
        <time>2012-04-05T16:35:32Z</time>
      </trkpt>
      <trkpt lat="43.4453" lon="2.14165">
        <ele>785</ele>
        <time>2012-04-05T16:35:35Z</time>
      </trkpt>
      <trkpt lat="43.44529" lon="2.14166">
        <ele>785</ele>
        <time>2012-04-05T16:35:42Z</time>
      </trkpt>
      <trkpt lat="43.44528" lon="2.14166">
        <ele>785</ele>
        <time>2012-04-05T16:36:06Z</time>
      </trkpt>
      <trkpt lat="43.44529" lon="2.14167">
        <ele>785</ele>
        <time>2012-04-05T16:36:59Z</time>
      </trkpt>
      <trkpt lat="43.4453" lon="2.14165">
        <ele>785</ele>
        <time>2012-04-05T16:37:21Z</time>
      </trkpt>
      <trkpt lat="43.44531" lon="2.14166">
        <ele>785</ele>
        <time>2012-04-05T16:37:25Z</time>
      </trkpt>
      <trkpt lat="43.44532" lon="2.14168">
        <ele>785</ele>
        <time>2012-04-05T16:37:28Z</time>
      </trkpt>
      <trkpt lat="43.44533" lon="2.14169">
        <ele>785</ele>
        <time>2012-04-05T16:37:31Z</time>
      </trkpt>
      <trkpt lat="43.44533" lon="2.14171">
        <ele>785</ele>
        <time>2012-04-05T16:38:14Z</time>
      </trkpt>
      <trkpt lat="43.44534" lon="2.14172">
        <ele>785</ele>
        <time>2012-04-05T16:38:16Z</time>
      </trkpt>
      <trkpt lat="43.44534" lon="2.14171">
        <ele>785</ele>
        <time>2012-04-05T16:38:29Z</time>
      </trkpt>
      <trkpt lat="43.44532" lon="2.1417">
        <ele>785</ele>
        <time>2012-04-05T16:38:31Z</time>
      </trkpt>
      <trkpt lat="43.44532" lon="2.14168">
        <ele>785</ele>
        <time>2012-04-05T16:39:09Z</time>
      </trkpt>
      <trkpt lat="43.44534" lon="2.14169">
        <ele>785</ele>
        <time>2012-04-05T16:39:27Z</time>
      </trkpt>
      <trkpt lat="43.44535" lon="2.14171">
        <ele>785</ele>
        <time>2012-04-05T16:39:29Z</time>
      </trkpt>
      <trkpt lat="43.44535" lon="2.14172">
        <ele>785</ele>
        <time>2012-04-05T16:39:32Z</time>
      </trkpt>
      <trkpt lat="43.44535" lon="2.14174">
        <ele>785</ele>
        <time>2012-04-05T16:39:40Z</time>
      </trkpt>
      <trkpt lat="43.44535" lon="2.14175">
        <ele>785</ele>
        <time>2012-04-05T16:40:10Z</time>
      </trkpt>
      <trkpt lat="43.44535" lon="2.14177">
        <ele>785</ele>
        <time>2012-04-05T16:40:18Z</time>
      </trkpt>
      <trkpt lat="43.44535" lon="2.14181">
        <ele>785</ele>
        <time>2012-04-05T16:40:20Z</time>
      </trkpt>
      <trkpt lat="43.44535" lon="2.14187">
        <ele>785</ele>
        <time>2012-04-05T16:40:22Z</time>
      </trkpt>
      <trkpt lat="43.44533" lon="2.14192">
        <ele>785</ele>
        <time>2012-04-05T16:40:24Z</time>
      </trkpt>
      <trkpt lat="43.44532" lon="2.14198">
        <ele>785</ele>
        <time>2012-04-05T16:40:26Z</time>
      </trkpt>
      <trkpt lat="43.44531" lon="2.14207">
        <ele>785</ele>
        <time>2012-04-05T16:40:28Z</time>
      </trkpt>
      <trkpt lat="43.44532" lon="2.14218">
        <ele>785</ele>
        <time>2012-04-05T16:40:30Z</time>
      </trkpt>
      <trkpt lat="43.44535" lon="2.14228">
        <ele>785</ele>
        <time>2012-04-05T16:40:32Z</time>
      </trkpt>
      <trkpt lat="43.44532" lon="2.14236">
        <ele>785</ele>
        <time>2012-04-05T16:40:34Z</time>
      </trkpt>
      <trkpt lat="43.44523" lon="2.14243">
        <ele>783</ele>
        <time>2012-04-05T16:40:36Z</time>
      </trkpt>
      <trkpt lat="43.44514" lon="2.14254">
        <ele>782</ele>
        <time>2012-04-05T16:40:38Z</time>
      </trkpt>
      <trkpt lat="43.4451" lon="2.14269">
        <ele>781</ele>
        <time>2012-04-05T16:40:40Z</time>
      </trkpt>
      <trkpt lat="43.44506" lon="2.14285">
        <ele>780</ele>
        <time>2012-04-05T16:40:42Z</time>
      </trkpt>
      <trkpt lat="43.44497" lon="2.14295">
        <ele>778</ele>
        <time>2012-04-05T16:40:44Z</time>
      </trkpt>
      <trkpt lat="43.44485" lon="2.14301">
        <ele>777</ele>
        <time>2012-04-05T16:40:46Z</time>
      </trkpt>
      <trkpt lat="43.44477" lon="2.14312">
        <ele>775</ele>
        <time>2012-04-05T16:40:48Z</time>
      </trkpt>
      <trkpt lat="43.44477" lon="2.14326">
        <ele>774</ele>
        <time>2012-04-05T16:40:50Z</time>
      </trkpt>
      <trkpt lat="43.44483" lon="2.14339">
        <ele>773</ele>
        <time>2012-04-05T16:40:52Z</time>
      </trkpt>
      <trkpt lat="43.4449" lon="2.14352">
        <ele>773</ele>
        <time>2012-04-05T16:40:54Z</time>
      </trkpt>
      <trkpt lat="43.44499" lon="2.14365">
        <ele>773</ele>
        <time>2012-04-05T16:40:56Z</time>
      </trkpt>
      <trkpt lat="43.44508" lon="2.14378">
        <ele>772</ele>
        <time>2012-04-05T16:40:58Z</time>
      </trkpt>
      <trkpt lat="43.44517" lon="2.14393">
        <ele>772</ele>
        <time>2012-04-05T16:41:00Z</time>
      </trkpt>
      <trkpt lat="43.44526" lon="2.1441">
        <ele>771</ele>
        <time>2012-04-05T16:41:02Z</time>
      </trkpt>
      <trkpt lat="43.44535" lon="2.14425">
        <ele>769</ele>
        <time>2012-04-05T16:41:04Z</time>
      </trkpt>
      <trkpt lat="43.44544" lon="2.1444">
        <ele>768</ele>
        <time>2012-04-05T16:41:06Z</time>
      </trkpt>
      <trkpt lat="43.44555" lon="2.14455">
        <ele>767</ele>
        <time>2012-04-05T16:41:08Z</time>
      </trkpt>
      <trkpt lat="43.44565" lon="2.14469">
        <ele>765</ele>
        <time>2012-04-05T16:41:10Z</time>
      </trkpt>
      <trkpt lat="43.44576" lon="2.14488">
        <ele>765</ele>
        <time>2012-04-05T16:41:12Z</time>
      </trkpt>
      <trkpt lat="43.44584" lon="2.14503">
        <ele>765</ele>
        <time>2012-04-05T16:41:14Z</time>
      </trkpt>
      <trkpt lat="43.44589" lon="2.14518">
        <ele>765</ele>
        <time>2012-04-05T16:41:16Z</time>
      </trkpt>
      <trkpt lat="43.44587" lon="2.1453">
        <ele>765</ele>
        <time>2012-04-05T16:41:18Z</time>
      </trkpt>
      <trkpt lat="43.44581" lon="2.14541">
        <ele>765</ele>
        <time>2012-04-05T16:41:20Z</time>
      </trkpt>
      <trkpt lat="43.44574" lon="2.14552">
        <ele>765</ele>
        <time>2012-04-05T16:41:22Z</time>
      </trkpt>
      <trkpt lat="43.44568" lon="2.14566">
        <ele>765</ele>
        <time>2012-04-05T16:41:24Z</time>
      </trkpt>
      <trkpt lat="43.44562" lon="2.14581">
        <ele>765</ele>
        <time>2012-04-05T16:41:26Z</time>
      </trkpt>
      <trkpt lat="43.44556" lon="2.14596">
        <ele>765</ele>
        <time>2012-04-05T16:41:28Z</time>
      </trkpt>
      <trkpt lat="43.44549" lon="2.14612">
        <ele>765</ele>
        <time>2012-04-05T16:41:30Z</time>
      </trkpt>
      <trkpt lat="43.44542" lon="2.1463">
        <ele>765</ele>
        <time>2012-04-05T16:41:32Z</time>
      </trkpt>
      <trkpt lat="43.44536" lon="2.14647">
        <ele>765</ele>
        <time>2012-04-05T16:41:34Z</time>
      </trkpt>
      <trkpt lat="43.44529" lon="2.14665">
        <ele>765</ele>
        <time>2012-04-05T16:41:36Z</time>
      </trkpt>
      <trkpt lat="43.44521" lon="2.14683">
        <ele>765</ele>
        <time>2012-04-05T16:41:38Z</time>
      </trkpt>
      <trkpt lat="43.44514" lon="2.14702">
        <ele>765</ele>
        <time>2012-04-05T16:41:40Z</time>
      </trkpt>
      <trkpt lat="43.44506" lon="2.1472">
        <ele>764</ele>
        <time>2012-04-05T16:41:42Z</time>
      </trkpt>
      <trkpt lat="43.44498" lon="2.14739">
        <ele>763</ele>
        <time>2012-04-05T16:41:44Z</time>
      </trkpt>
      <trkpt lat="43.4449" lon="2.14759">
        <ele>762</ele>
        <time>2012-04-05T16:41:46Z</time>
      </trkpt>
      <trkpt lat="43.44482" lon="2.1478">
        <ele>761</ele>
        <time>2012-04-05T16:41:48Z</time>
      </trkpt>
      <trkpt lat="43.44475" lon="2.14802">
        <ele>759</ele>
        <time>2012-04-05T16:41:50Z</time>
      </trkpt>
      <trkpt lat="43.4447" lon="2.14826">
        <ele>758</ele>
        <time>2012-04-05T16:41:52Z</time>
      </trkpt>
      <trkpt lat="43.44466" lon="2.14851">
        <ele>757</ele>
        <time>2012-04-05T16:41:54Z</time>
      </trkpt>
      <trkpt lat="43.44461" lon="2.14876">
        <ele>756</ele>
        <time>2012-04-05T16:41:56Z</time>
      </trkpt>
      <trkpt lat="43.44454" lon="2.149">
        <ele>755</ele>
        <time>2012-04-05T16:41:58Z</time>
      </trkpt>
      <trkpt lat="43.44445" lon="2.14922">
        <ele>754</ele>
        <time>2012-04-05T16:42:00Z</time>
      </trkpt>
      <trkpt lat="43.44435" lon="2.14943">
        <ele>754</ele>
        <time>2012-04-05T16:42:02Z</time>
      </trkpt>
      <trkpt lat="43.44424" lon="2.14962">
        <ele>753</ele>
        <time>2012-04-05T16:42:04Z</time>
      </trkpt>
      <trkpt lat="43.44412" lon="2.14979">
        <ele>752</ele>
        <time>2012-04-05T16:42:06Z</time>
      </trkpt>
      <trkpt lat="43.444" lon="2.14996">
        <ele>751</ele>
        <time>2012-04-05T16:42:08Z</time>
      </trkpt>
      <trkpt lat="43.4439" lon="2.15014">
        <ele>751</ele>
        <time>2012-04-05T16:42:10Z</time>
      </trkpt>
      <trkpt lat="43.4438" lon="2.15031">
        <ele>751</ele>
        <time>2012-04-05T16:42:12Z</time>
      </trkpt>
      <trkpt lat="43.44371" lon="2.1505">
        <ele>750</ele>
        <time>2012-04-05T16:42:14Z</time>
      </trkpt>
      <trkpt lat="43.44364" lon="2.15071">
        <ele>750</ele>
        <time>2012-04-05T16:42:16Z</time>
      </trkpt>
      <trkpt lat="43.44359" lon="2.15092">
        <ele>749</ele>
        <time>2012-04-05T16:42:18Z</time>
      </trkpt>
      <trkpt lat="43.44353" lon="2.15114">
        <ele>749</ele>
        <time>2012-04-05T16:42:20Z</time>
      </trkpt>
      <trkpt lat="43.44349" lon="2.15137">
        <ele>748</ele>
        <time>2012-04-05T16:42:22Z</time>
      </trkpt>
      <trkpt lat="43.44345" lon="2.1516">
        <ele>748</ele>
        <time>2012-04-05T16:42:24Z</time>
      </trkpt>
      <trkpt lat="43.4434" lon="2.15184">
        <ele>747</ele>
        <time>2012-04-05T16:42:26Z</time>
      </trkpt>
      <trkpt lat="43.44336" lon="2.15209">
        <ele>746</ele>
        <time>2012-04-05T16:42:28Z</time>
      </trkpt>
      <trkpt lat="43.44329" lon="2.15233">
        <ele>745</ele>
        <time>2012-04-05T16:42:30Z</time>
      </trkpt>
      <trkpt lat="43.44319" lon="2.15255">
        <ele>744</ele>
        <time>2012-04-05T16:42:32Z</time>
      </trkpt>
      <trkpt lat="43.44307" lon="2.15274">
        <ele>743</ele>
        <time>2012-04-05T16:42:34Z</time>
      </trkpt>
      <trkpt lat="43.44294" lon="2.15289">
        <ele>742</ele>
        <time>2012-04-05T16:42:36Z</time>
      </trkpt>
      <trkpt lat="43.44281" lon="2.15305">
        <ele>741</ele>
        <time>2012-04-05T16:42:38Z</time>
      </trkpt>
      <trkpt lat="43.44268" lon="2.1532">
        <ele>740</ele>
        <time>2012-04-05T16:42:40Z</time>
      </trkpt>
      <trkpt lat="43.44256" lon="2.15335">
        <ele>740</ele>
        <time>2012-04-05T16:42:42Z</time>
      </trkpt>
      <trkpt lat="43.44244" lon="2.15348">
        <ele>739</ele>
        <time>2012-04-05T16:42:44Z</time>
      </trkpt>
      <trkpt lat="43.44233" lon="2.15362">
        <ele>739</ele>
        <time>2012-04-05T16:42:46Z</time>
      </trkpt>
      <trkpt lat="43.44221" lon="2.15375">
        <ele>739</ele>
        <time>2012-04-05T16:42:48Z</time>
      </trkpt>
      <trkpt lat="43.44208" lon="2.15386">
        <ele>738</ele>
        <time>2012-04-05T16:42:50Z</time>
      </trkpt>
      <trkpt lat="43.44193" lon="2.1539">
        <ele>737</ele>
        <time>2012-04-05T16:42:52Z</time>
      </trkpt>
      <trkpt lat="43.44177" lon="2.15388">
        <ele>736</ele>
        <time>2012-04-05T16:42:54Z</time>
      </trkpt>
      <trkpt lat="43.44162" lon="2.15383">
        <ele>735</ele>
        <time>2012-04-05T16:42:56Z</time>
      </trkpt>
      <trkpt lat="43.44146" lon="2.15385">
        <ele>734</ele>
        <time>2012-04-05T16:42:58Z</time>
      </trkpt>
      <trkpt lat="43.44132" lon="2.15394">
        <ele>732</ele>
        <time>2012-04-05T16:43:00Z</time>
      </trkpt>
      <trkpt lat="43.44122" lon="2.15406">
        <ele>732</ele>
        <time>2012-04-05T16:43:02Z</time>
      </trkpt>
      <trkpt lat="43.44116" lon="2.15417">
        <ele>731</ele>
        <time>2012-04-05T16:43:04Z</time>
      </trkpt>
      <trkpt lat="43.4411" lon="2.15423">
        <ele>731</ele>
        <time>2012-04-05T16:43:06Z</time>
      </trkpt>
      <trkpt lat="43.44102" lon="2.15428">
        <ele>731</ele>
        <time>2012-04-05T16:43:08Z</time>
      </trkpt>
      <trkpt lat="43.44093" lon="2.15433">
        <ele>731</ele>
        <time>2012-04-05T16:43:10Z</time>
      </trkpt>
      <trkpt lat="43.44083" lon="2.15438">
        <ele>731</ele>
        <time>2012-04-05T16:43:12Z</time>
      </trkpt>
      <trkpt lat="43.44073" lon="2.15443">
        <ele>731</ele>
        <time>2012-04-05T16:43:14Z</time>
      </trkpt>
      <trkpt lat="43.44062" lon="2.15451">
        <ele>731</ele>
        <time>2012-04-05T16:43:16Z</time>
      </trkpt>
      <trkpt lat="43.4405" lon="2.15458">
        <ele>731</ele>
        <time>2012-04-05T16:43:18Z</time>
      </trkpt>
      <trkpt lat="43.44037" lon="2.15464">
        <ele>730</ele>
        <time>2012-04-05T16:43:20Z</time>
      </trkpt>
      <trkpt lat="43.44024" lon="2.1547">
        <ele>730</ele>
        <time>2012-04-05T16:43:22Z</time>
      </trkpt>
      <trkpt lat="43.44012" lon="2.15476">
        <ele>730</ele>
        <time>2012-04-05T16:43:24Z</time>
      </trkpt>
      <trkpt lat="43.44001" lon="2.1548">
        <ele>730</ele>
        <time>2012-04-05T16:43:26Z</time>
      </trkpt>
      <trkpt lat="43.4399" lon="2.15481">
        <ele>730</ele>
        <time>2012-04-05T16:43:28Z</time>
      </trkpt>
      <trkpt lat="43.43978" lon="2.1548">
        <ele>730</ele>
        <time>2012-04-05T16:43:30Z</time>
      </trkpt>
      <trkpt lat="43.43966" lon="2.1548">
        <ele>730</ele>
        <time>2012-04-05T16:43:32Z</time>
      </trkpt>
      <trkpt lat="43.43956" lon="2.1548">
        <ele>730</ele>
        <time>2012-04-05T16:43:34Z</time>
      </trkpt>
      <trkpt lat="43.43945" lon="2.15479">
        <ele>730</ele>
        <time>2012-04-05T16:43:36Z</time>
      </trkpt>
      <trkpt lat="43.43936" lon="2.15479">
        <ele>730</ele>
        <time>2012-04-05T16:43:38Z</time>
      </trkpt>
      <trkpt lat="43.43927" lon="2.15479">
        <ele>730</ele>
        <time>2012-04-05T16:43:40Z</time>
      </trkpt>
      <trkpt lat="43.43917" lon="2.15478">
        <ele>730</ele>
        <time>2012-04-05T16:43:42Z</time>
      </trkpt>
      <trkpt lat="43.43909" lon="2.15478">
        <ele>730</ele>
        <time>2012-04-05T16:43:44Z</time>
      </trkpt>
      <trkpt lat="43.43901" lon="2.15478">
        <ele>730</ele>
        <time>2012-04-05T16:43:46Z</time>
      </trkpt>
      <trkpt lat="43.43892" lon="2.15479">
        <ele>730</ele>
        <time>2012-04-05T16:43:48Z</time>
      </trkpt>
      <trkpt lat="43.43884" lon="2.1548">
        <ele>730</ele>
        <time>2012-04-05T16:43:50Z</time>
      </trkpt>
      <trkpt lat="43.43876" lon="2.15481">
        <ele>730</ele>
        <time>2012-04-05T16:43:52Z</time>
      </trkpt>
      <trkpt lat="43.43869" lon="2.15482">
        <ele>730</ele>
        <time>2012-04-05T16:43:54Z</time>
      </trkpt>
      <trkpt lat="43.43861" lon="2.15482">
        <ele>730</ele>
        <time>2012-04-05T16:43:56Z</time>
      </trkpt>
      <trkpt lat="43.43854" lon="2.15482">
        <ele>730</ele>
        <time>2012-04-05T16:43:58Z</time>
      </trkpt>
      <trkpt lat="43.43847" lon="2.15482">
        <ele>730</ele>
        <time>2012-04-05T16:44:00Z</time>
      </trkpt>
      <trkpt lat="43.4384" lon="2.15481">
        <ele>730</ele>
        <time>2012-04-05T16:44:02Z</time>
      </trkpt>
      <trkpt lat="43.43833" lon="2.1548">
        <ele>730</ele>
        <time>2012-04-05T16:44:04Z</time>
      </trkpt>
      <trkpt lat="43.43827" lon="2.15479">
        <ele>730</ele>
        <time>2012-04-05T16:44:06Z</time>
      </trkpt>
      <trkpt lat="43.43821" lon="2.15477">
        <ele>730</ele>
        <time>2012-04-05T16:44:08Z</time>
      </trkpt>
      <trkpt lat="43.43814" lon="2.15476">
        <ele>730</ele>
        <time>2012-04-05T16:44:10Z</time>
      </trkpt>
      <trkpt lat="43.43808" lon="2.15476">
        <ele>731</ele>
        <time>2012-04-05T16:44:12Z</time>
      </trkpt>
      <trkpt lat="43.43801" lon="2.15475">
        <ele>731</ele>
        <time>2012-04-05T16:44:14Z</time>
      </trkpt>
      <trkpt lat="43.43795" lon="2.15474">
        <ele>731</ele>
        <time>2012-04-05T16:44:16Z</time>
      </trkpt>
      <trkpt lat="43.43789" lon="2.15474">
        <ele>731</ele>
        <time>2012-04-05T16:44:18Z</time>
      </trkpt>
      <trkpt lat="43.43782" lon="2.15474">
        <ele>732</ele>
        <time>2012-04-05T16:44:20Z</time>
      </trkpt>
      <trkpt lat="43.43776" lon="2.15473">
        <ele>732</ele>
        <time>2012-04-05T16:44:22Z</time>
      </trkpt>
      <trkpt lat="43.43769" lon="2.15473">
        <ele>732</ele>
        <time>2012-04-05T16:44:24Z</time>
      </trkpt>
      <trkpt lat="43.43763" lon="2.15473">
        <ele>732</ele>
        <time>2012-04-05T16:44:26Z</time>
      </trkpt>
      <trkpt lat="43.43756" lon="2.15473">
        <ele>732</ele>
        <time>2012-04-05T16:44:28Z</time>
      </trkpt>
      <trkpt lat="43.43749" lon="2.15473">
        <ele>732</ele>
        <time>2012-04-05T16:44:30Z</time>
      </trkpt>
      <trkpt lat="43.43741" lon="2.15472">
        <ele>732</ele>
        <time>2012-04-05T16:44:32Z</time>
      </trkpt>
      <trkpt lat="43.43734" lon="2.15472">
        <ele>732</ele>
        <time>2012-04-05T16:44:34Z</time>
      </trkpt>
      <trkpt lat="43.43726" lon="2.15472">
        <ele>732</ele>
        <time>2012-04-05T16:44:36Z</time>
      </trkpt>
      <trkpt lat="43.43717" lon="2.15472">
        <ele>732</ele>
        <time>2012-04-05T16:44:38Z</time>
      </trkpt>
      <trkpt lat="43.43708" lon="2.15472">
        <ele>732</ele>
        <time>2012-04-05T16:44:40Z</time>
      </trkpt>
      <trkpt lat="43.437" lon="2.15472">
        <ele>732</ele>
        <time>2012-04-05T16:44:42Z</time>
      </trkpt>
      <trkpt lat="43.4369" lon="2.15472">
        <ele>732</ele>
        <time>2012-04-05T16:44:44Z</time>
      </trkpt>
      <trkpt lat="43.43681" lon="2.15472">
        <ele>732</ele>
        <time>2012-04-05T16:44:46Z</time>
      </trkpt>
      <trkpt lat="43.43671" lon="2.15473">
        <ele>732</ele>
        <time>2012-04-05T16:44:48Z</time>
      </trkpt>
      <trkpt lat="43.43661" lon="2.15474">
        <ele>732</ele>
        <time>2012-04-05T16:44:50Z</time>
      </trkpt>
      <trkpt lat="43.43651" lon="2.15475">
        <ele>732</ele>
        <time>2012-04-05T16:44:52Z</time>
      </trkpt>
      <trkpt lat="43.43641" lon="2.15476">
        <ele>732</ele>
        <time>2012-04-05T16:44:54Z</time>
      </trkpt>
      <trkpt lat="43.43631" lon="2.15476">
        <ele>732</ele>
        <time>2012-04-05T16:44:56Z</time>
      </trkpt>
      <trkpt lat="43.43619" lon="2.15477">
        <ele>732</ele>
        <time>2012-04-05T16:44:58Z</time>
      </trkpt>
      <trkpt lat="43.43606" lon="2.15479">
        <ele>731</ele>
        <time>2012-04-05T16:45:00Z</time>
      </trkpt>
      <trkpt lat="43.43593" lon="2.1548">
        <ele>730</ele>
        <time>2012-04-05T16:45:02Z</time>
      </trkpt>
      <trkpt lat="43.4358" lon="2.15482">
        <ele>729</ele>
        <time>2012-04-05T16:45:04Z</time>
      </trkpt>
      <trkpt lat="43.43567" lon="2.15483">
        <ele>728</ele>
        <time>2012-04-05T16:45:06Z</time>
      </trkpt>
      <trkpt lat="43.43555" lon="2.15484">
        <ele>727</ele>
        <time>2012-04-05T16:45:08Z</time>
      </trkpt>
      <trkpt lat="43.43543" lon="2.15486">
        <ele>727</ele>
        <time>2012-04-05T16:45:10Z</time>
      </trkpt>
      <trkpt lat="43.43531" lon="2.15487">
        <ele>726</ele>
        <time>2012-04-05T16:45:12Z</time>
      </trkpt>
      <trkpt lat="43.4352" lon="2.15488">
        <ele>725</ele>
        <time>2012-04-05T16:45:14Z</time>
      </trkpt>
      <trkpt lat="43.43507" lon="2.1549">
        <ele>725</ele>
        <time>2012-04-05T16:45:16Z</time>
      </trkpt>
      <trkpt lat="43.43495" lon="2.15491">
        <ele>724</ele>
        <time>2012-04-05T16:45:18Z</time>
      </trkpt>
      <trkpt lat="43.43484" lon="2.15493">
        <ele>724</ele>
        <time>2012-04-05T16:45:20Z</time>
      </trkpt>
      <trkpt lat="43.43467" lon="2.15494">
        <ele>724</ele>
        <time>2012-04-05T16:45:23Z</time>
      </trkpt>
      <trkpt lat="43.43456" lon="2.15494">
        <ele>724</ele>
        <time>2012-04-05T16:45:25Z</time>
      </trkpt>
      <trkpt lat="43.43441" lon="2.15495">
        <ele>723</ele>
        <time>2012-04-05T16:45:28Z</time>
      </trkpt>
      <trkpt lat="43.4343" lon="2.15494">
        <ele>723</ele>
        <time>2012-04-05T16:45:30Z</time>
      </trkpt>
      <trkpt lat="43.4342" lon="2.15493">
        <ele>723</ele>
        <time>2012-04-05T16:45:32Z</time>
      </trkpt>
      <trkpt lat="43.43409" lon="2.15491">
        <ele>723</ele>
        <time>2012-04-05T16:45:34Z</time>
      </trkpt>
      <trkpt lat="43.43399" lon="2.1549">
        <ele>723</ele>
        <time>2012-04-05T16:45:36Z</time>
      </trkpt>
      <trkpt lat="43.43389" lon="2.15488">
        <ele>723</ele>
        <time>2012-04-05T16:45:38Z</time>
      </trkpt>
      <trkpt lat="43.43379" lon="2.15486">
        <ele>723</ele>
        <time>2012-04-05T16:45:40Z</time>
      </trkpt>
      <trkpt lat="43.43369" lon="2.15483">
        <ele>723</ele>
        <time>2012-04-05T16:45:42Z</time>
      </trkpt>
      <trkpt lat="43.43359" lon="2.1548">
        <ele>723</ele>
        <time>2012-04-05T16:45:44Z</time>
      </trkpt>
      <trkpt lat="43.43349" lon="2.15478">
        <ele>723</ele>
        <time>2012-04-05T16:45:46Z</time>
      </trkpt>
      <trkpt lat="43.43339" lon="2.15476">
        <ele>723</ele>
        <time>2012-04-05T16:45:48Z</time>
      </trkpt>
      <trkpt lat="43.43329" lon="2.15473">
        <ele>723</ele>
        <time>2012-04-05T16:45:50Z</time>
      </trkpt>
      <trkpt lat="43.43319" lon="2.15471">
        <ele>723</ele>
        <time>2012-04-05T16:45:52Z</time>
      </trkpt>
      <trkpt lat="43.43308" lon="2.15469">
        <ele>723</ele>
        <time>2012-04-05T16:45:54Z</time>
      </trkpt>
      <trkpt lat="43.43298" lon="2.15466">
        <ele>723</ele>
        <time>2012-04-05T16:45:56Z</time>
      </trkpt>
      <trkpt lat="43.43288" lon="2.15464">
        <ele>723</ele>
        <time>2012-04-05T16:45:58Z</time>
      </trkpt>
      <trkpt lat="43.43279" lon="2.15462">
        <ele>723</ele>
        <time>2012-04-05T16:46:00Z</time>
      </trkpt>
      <trkpt lat="43.43269" lon="2.1546">
        <ele>723</ele>
        <time>2012-04-05T16:46:02Z</time>
      </trkpt>
      <trkpt lat="43.4326" lon="2.15459">
        <ele>723</ele>
        <time>2012-04-05T16:46:04Z</time>
      </trkpt>
      <trkpt lat="43.4325" lon="2.15457">
        <ele>723</ele>
        <time>2012-04-05T16:46:06Z</time>
      </trkpt>
      <trkpt lat="43.4324" lon="2.15455">
        <ele>723</ele>
        <time>2012-04-05T16:46:08Z</time>
      </trkpt>
      <trkpt lat="43.4323" lon="2.15452">
        <ele>723</ele>
        <time>2012-04-05T16:46:10Z</time>
      </trkpt>
      <trkpt lat="43.4322" lon="2.1545">
        <ele>723</ele>
        <time>2012-04-05T16:46:12Z</time>
      </trkpt>
      <trkpt lat="43.4321" lon="2.15448">
        <ele>723</ele>
        <time>2012-04-05T16:46:14Z</time>
      </trkpt>
      <trkpt lat="43.432" lon="2.15447">
        <ele>723</ele>
        <time>2012-04-05T16:46:16Z</time>
      </trkpt>
      <trkpt lat="43.4319" lon="2.15446">
        <ele>723</ele>
        <time>2012-04-05T16:46:18Z</time>
      </trkpt>
      <trkpt lat="43.4318" lon="2.15445">
        <ele>723</ele>
        <time>2012-04-05T16:46:20Z</time>
      </trkpt>
      <trkpt lat="43.4317" lon="2.15444">
        <ele>723</ele>
        <time>2012-04-05T16:46:22Z</time>
      </trkpt>
      <trkpt lat="43.4316" lon="2.15444">
        <ele>723</ele>
        <time>2012-04-05T16:46:24Z</time>
      </trkpt>
      <trkpt lat="43.43151" lon="2.15443">
        <ele>723</ele>
        <time>2012-04-05T16:46:26Z</time>
      </trkpt>
      <trkpt lat="43.43143" lon="2.15441">
        <ele>723</ele>
        <time>2012-04-05T16:46:28Z</time>
      </trkpt>
      <trkpt lat="43.43135" lon="2.15438">
        <ele>723</ele>
        <time>2012-04-05T16:46:30Z</time>
      </trkpt>
      <trkpt lat="43.43127" lon="2.15437">
        <ele>723</ele>
        <time>2012-04-05T16:46:32Z</time>
      </trkpt>
      <trkpt lat="43.4312" lon="2.15436">
        <ele>723</ele>
        <time>2012-04-05T16:46:34Z</time>
      </trkpt>
      <trkpt lat="43.43112" lon="2.15434">
        <ele>723</ele>
        <time>2012-04-05T16:46:36Z</time>
      </trkpt>
      <trkpt lat="43.43104" lon="2.15431">
        <ele>723</ele>
        <time>2012-04-05T16:46:38Z</time>
      </trkpt>
      <trkpt lat="43.43097" lon="2.15429">
        <ele>722</ele>
        <time>2012-04-05T16:46:40Z</time>
      </trkpt>
      <trkpt lat="43.43088" lon="2.15427">
        <ele>722</ele>
        <time>2012-04-05T16:46:42Z</time>
      </trkpt>
      <trkpt lat="43.43078" lon="2.15425">
        <ele>720</ele>
        <time>2012-04-05T16:46:44Z</time>
      </trkpt>
      <trkpt lat="43.43068" lon="2.15422">
        <ele>720</ele>
        <time>2012-04-05T16:46:46Z</time>
      </trkpt>
      <trkpt lat="43.43058" lon="2.1542">
        <ele>719</ele>
        <time>2012-04-05T16:46:48Z</time>
      </trkpt>
      <trkpt lat="43.43048" lon="2.15417">
        <ele>718</ele>
        <time>2012-04-05T16:46:50Z</time>
      </trkpt>
      <trkpt lat="43.43038" lon="2.15414">
        <ele>718</ele>
        <time>2012-04-05T16:46:52Z</time>
      </trkpt>
      <trkpt lat="43.43029" lon="2.15413">
        <ele>718</ele>
        <time>2012-04-05T16:46:54Z</time>
      </trkpt>
      <trkpt lat="43.43021" lon="2.15414">
        <ele>718</ele>
        <time>2012-04-05T16:46:56Z</time>
      </trkpt>
      <trkpt lat="43.43011" lon="2.15414">
        <ele>718</ele>
        <time>2012-04-05T16:46:58Z</time>
      </trkpt>
      <trkpt lat="43.43002" lon="2.15411">
        <ele>718</ele>
        <time>2012-04-05T16:47:00Z</time>
      </trkpt>
      <trkpt lat="43.42994" lon="2.15406">
        <ele>718</ele>
        <time>2012-04-05T16:47:02Z</time>
      </trkpt>
      <trkpt lat="43.42986" lon="2.15402">
        <ele>718</ele>
        <time>2012-04-05T16:47:04Z</time>
      </trkpt>
      <trkpt lat="43.42979" lon="2.15398">
        <ele>718</ele>
        <time>2012-04-05T16:47:06Z</time>
      </trkpt>
      <trkpt lat="43.42972" lon="2.15394">
        <ele>718</ele>
        <time>2012-04-05T16:47:08Z</time>
      </trkpt>
      <trkpt lat="43.42964" lon="2.15392">
        <ele>718</ele>
        <time>2012-04-05T16:47:10Z</time>
      </trkpt>
      <trkpt lat="43.42956" lon="2.15392">
        <ele>718</ele>
        <time>2012-04-05T16:47:12Z</time>
      </trkpt>
      <trkpt lat="43.42948" lon="2.15395">
        <ele>718</ele>
        <time>2012-04-05T16:47:14Z</time>
      </trkpt>
      <trkpt lat="43.42941" lon="2.15399">
        <ele>718</ele>
        <time>2012-04-05T16:47:16Z</time>
      </trkpt>
      <trkpt lat="43.42933" lon="2.15402">
        <ele>718</ele>
        <time>2012-04-05T16:47:18Z</time>
      </trkpt>
      <trkpt lat="43.42928" lon="2.15405">
        <ele>718</ele>
        <time>2012-04-05T16:47:20Z</time>
      </trkpt>
      <trkpt lat="43.42922" lon="2.15405">
        <ele>719</ele>
        <time>2012-04-05T16:47:22Z</time>
      </trkpt>
      <trkpt lat="43.42917" lon="2.15396">
        <ele>719</ele>
        <time>2012-04-05T16:47:24Z</time>
      </trkpt>
      <trkpt lat="43.42914" lon="2.15386">
        <ele>719</ele>
        <time>2012-04-05T16:47:26Z</time>
      </trkpt>
      <trkpt lat="43.4291" lon="2.15375">
        <ele>719</ele>
        <time>2012-04-05T16:47:28Z</time>
      </trkpt>
      <trkpt lat="43.42907" lon="2.15364">
        <ele>719</ele>
        <time>2012-04-05T16:47:30Z</time>
      </trkpt>
      <trkpt lat="43.42901" lon="2.15354">
        <ele>719</ele>
        <time>2012-04-05T16:47:32Z</time>
      </trkpt>
      <trkpt lat="43.42896" lon="2.15343">
        <ele>719</ele>
        <time>2012-04-05T16:47:34Z</time>
      </trkpt>
      <trkpt lat="43.42891" lon="2.1533">
        <ele>719</ele>
        <time>2012-04-05T16:47:36Z</time>
      </trkpt>
      <trkpt lat="43.42886" lon="2.15318">
        <ele>719</ele>
        <time>2012-04-05T16:47:38Z</time>
      </trkpt>
      <trkpt lat="43.4288" lon="2.15305">
        <ele>719</ele>
        <time>2012-04-05T16:47:40Z</time>
      </trkpt>
      <trkpt lat="43.42875" lon="2.15292">
        <ele>718</ele>
        <time>2012-04-05T16:47:42Z</time>
      </trkpt>
      <trkpt lat="43.42869" lon="2.15276">
        <ele>716</ele>
        <time>2012-04-05T16:47:44Z</time>
      </trkpt>
      <trkpt lat="43.42862" lon="2.15259">
        <ele>715</ele>
        <time>2012-04-05T16:47:46Z</time>
      </trkpt>
      <trkpt lat="43.42855" lon="2.15242">
        <ele>713</ele>
        <time>2012-04-05T16:47:48Z</time>
      </trkpt>
      <trkpt lat="43.42848" lon="2.15225">
        <ele>711</ele>
        <time>2012-04-05T16:47:50Z</time>
      </trkpt>
      <trkpt lat="43.42841" lon="2.15207">
        <ele>709</ele>
        <time>2012-04-05T16:47:52Z</time>
      </trkpt>
      <trkpt lat="43.42833" lon="2.15188">
        <ele>708</ele>
        <time>2012-04-05T16:47:54Z</time>
      </trkpt>
      <trkpt lat="43.42824" lon="2.15167">
        <ele>706</ele>
        <time>2012-04-05T16:47:56Z</time>
      </trkpt>
      <trkpt lat="43.42815" lon="2.15145">
        <ele>706</ele>
        <time>2012-04-05T16:47:58Z</time>
      </trkpt>
      <trkpt lat="43.42806" lon="2.15124">
        <ele>705</ele>
        <time>2012-04-05T16:48:00Z</time>
      </trkpt>
      <trkpt lat="43.42797" lon="2.15103">
        <ele>704</ele>
        <time>2012-04-05T16:48:02Z</time>
      </trkpt>
      <trkpt lat="43.42787" lon="2.15083">
        <ele>702</ele>
        <time>2012-04-05T16:48:04Z</time>
      </trkpt>
      <trkpt lat="43.42779" lon="2.15067">
        <ele>700</ele>
        <time>2012-04-05T16:48:06Z</time>
      </trkpt>
      <trkpt lat="43.42775" lon="2.15059">
        <ele>699</ele>
        <time>2012-04-05T16:48:08Z</time>
      </trkpt>
      <trkpt lat="43.42773" lon="2.15055">
        <ele>699</ele>
        <time>2012-04-05T16:48:11Z</time>
      </trkpt>
      <trkpt lat="43.42772" lon="2.15054">
        <ele>699</ele>
        <time>2012-04-05T16:48:14Z</time>
      </trkpt>
      <trkpt lat="43.42771" lon="2.1505">
        <ele>699</ele>
        <time>2012-04-05T16:48:25Z</time>
      </trkpt>
      <trkpt lat="43.42767" lon="2.15039">
        <ele>699</ele>
        <time>2012-04-05T16:48:28Z</time>
      </trkpt>
      <trkpt lat="43.42763" lon="2.1503">
        <ele>699</ele>
        <time>2012-04-05T16:48:30Z</time>
      </trkpt>
      <trkpt lat="43.42758" lon="2.15021">
        <ele>699</ele>
        <time>2012-04-05T16:48:32Z</time>
      </trkpt>
      <trkpt lat="43.42755" lon="2.15017">
        <ele>699</ele>
        <time>2012-04-05T16:48:36Z</time>
      </trkpt>
      <trkpt lat="43.42752" lon="2.15016">
        <ele>699</ele>
        <time>2012-04-05T16:48:38Z</time>
      </trkpt>
      <trkpt lat="43.42747" lon="2.15016">
        <ele>699</ele>
        <time>2012-04-05T16:48:40Z</time>
      </trkpt>
      <trkpt lat="43.42743" lon="2.15018">
        <ele>699</ele>
        <time>2012-04-05T16:48:42Z</time>
      </trkpt>
      <trkpt lat="43.42737" lon="2.1502">
        <ele>698</ele>
        <time>2012-04-05T16:48:44Z</time>
      </trkpt>
      <trkpt lat="43.4273" lon="2.15024">
        <ele>696</ele>
        <time>2012-04-05T16:48:46Z</time>
      </trkpt>
      <trkpt lat="43.42724" lon="2.15029">
        <ele>694</ele>
        <time>2012-04-05T16:48:48Z</time>
      </trkpt>
      <trkpt lat="43.42719" lon="2.1503">
        <ele>692</ele>
        <time>2012-04-05T16:48:50Z</time>
      </trkpt>
      <trkpt lat="43.42714" lon="2.15034">
        <ele>690</ele>
        <time>2012-04-05T16:48:52Z</time>
      </trkpt>
      <trkpt lat="43.4271" lon="2.15037">
        <ele>689</ele>
        <time>2012-04-05T16:48:54Z</time>
      </trkpt>
      <trkpt lat="43.42705" lon="2.15041">
        <ele>689</ele>
        <time>2012-04-05T16:48:56Z</time>
      </trkpt>
      <trkpt lat="43.427" lon="2.15041">
        <ele>689</ele>
        <time>2012-04-05T16:48:58Z</time>
      </trkpt>
      <trkpt lat="43.42693" lon="2.15044">
        <ele>689</ele>
        <time>2012-04-05T16:49:00Z</time>
      </trkpt>
      <trkpt lat="43.42685" lon="2.15048">
        <ele>689</ele>
        <time>2012-04-05T16:49:02Z</time>
      </trkpt>
      <trkpt lat="43.42678" lon="2.15052">
        <ele>689</ele>
        <time>2012-04-05T16:49:04Z</time>
      </trkpt>
      <trkpt lat="43.4267" lon="2.15058">
        <ele>689</ele>
        <time>2012-04-05T16:49:06Z</time>
      </trkpt>
      <trkpt lat="43.42663" lon="2.15061">
        <ele>689</ele>
        <time>2012-04-05T16:49:08Z</time>
      </trkpt>
      <trkpt lat="43.42655" lon="2.15066">
        <ele>689</ele>
        <time>2012-04-05T16:49:10Z</time>
      </trkpt>
      <trkpt lat="43.42646" lon="2.1507">
        <ele>689</ele>
        <time>2012-04-05T16:49:12Z</time>
      </trkpt>
      <trkpt lat="43.42638" lon="2.15075">
        <ele>689</ele>
        <time>2012-04-05T16:49:14Z</time>
      </trkpt>
      <trkpt lat="43.42631" lon="2.15081">
        <ele>689</ele>
        <time>2012-04-05T16:49:16Z</time>
      </trkpt>
      <trkpt lat="43.42621" lon="2.15086">
        <ele>689</ele>
        <time>2012-04-05T16:49:18Z</time>
      </trkpt>
      <trkpt lat="43.42611" lon="2.15088">
        <ele>689</ele>
        <time>2012-04-05T16:49:20Z</time>
      </trkpt>
      <trkpt lat="43.42601" lon="2.1509">
        <ele>689</ele>
        <time>2012-04-05T16:49:22Z</time>
      </trkpt>
      <trkpt lat="43.42591" lon="2.15091">
        <ele>689</ele>
        <time>2012-04-05T16:49:24Z</time>
      </trkpt>
      <trkpt lat="43.42583" lon="2.15095">
        <ele>689</ele>
        <time>2012-04-05T16:49:26Z</time>
      </trkpt>
      <trkpt lat="43.42575" lon="2.151">
        <ele>689</ele>
        <time>2012-04-05T16:49:28Z</time>
      </trkpt>
      <trkpt lat="43.42569" lon="2.15106">
        <ele>689</ele>
        <time>2012-04-05T16:49:30Z</time>
      </trkpt>
      <trkpt lat="43.42564" lon="2.15113">
        <ele>689</ele>
        <time>2012-04-05T16:49:32Z</time>
      </trkpt>
      <trkpt lat="43.42554" lon="2.15124">
        <ele>689</ele>
        <time>2012-04-05T16:49:34Z</time>
      </trkpt>
      <trkpt lat="43.42548" lon="2.15131">
        <ele>689</ele>
        <time>2012-04-05T16:49:36Z</time>
      </trkpt>
      <trkpt lat="43.4254" lon="2.15139">
        <ele>689</ele>
        <time>2012-04-05T16:49:38Z</time>
      </trkpt>
      <trkpt lat="43.4253" lon="2.15152">
        <ele>689</ele>
        <time>2012-04-05T16:49:40Z</time>
      </trkpt>
      <trkpt lat="43.42522" lon="2.15162">
        <ele>689</ele>
        <time>2012-04-05T16:49:42Z</time>
      </trkpt>
      <trkpt lat="43.42513" lon="2.15172">
        <ele>691</ele>
        <time>2012-04-05T16:49:44Z</time>
      </trkpt>
      <trkpt lat="43.42505" lon="2.15181">
        <ele>692</ele>
        <time>2012-04-05T16:49:46Z</time>
      </trkpt>
      <trkpt lat="43.42499" lon="2.15187">
        <ele>692</ele>
        <time>2012-04-05T16:49:48Z</time>
      </trkpt>
      <trkpt lat="43.42495" lon="2.15196">
        <ele>692</ele>
        <time>2012-04-05T16:49:50Z</time>
      </trkpt>
      <trkpt lat="43.42491" lon="2.15203">
        <ele>692</ele>
        <time>2012-04-05T16:49:52Z</time>
      </trkpt>
      <trkpt lat="43.42487" lon="2.15214">
        <ele>692</ele>
        <time>2012-04-05T16:49:54Z</time>
      </trkpt>
      <trkpt lat="43.42483" lon="2.15225">
        <ele>692</ele>
        <time>2012-04-05T16:49:56Z</time>
      </trkpt>
      <trkpt lat="43.42476" lon="2.15236">
        <ele>690</ele>
        <time>2012-04-05T16:49:58Z</time>
      </trkpt>
      <trkpt lat="43.42468" lon="2.15251">
        <ele>688</ele>
        <time>2012-04-05T16:50:00Z</time>
      </trkpt>
      <trkpt lat="43.42463" lon="2.15267">
        <ele>686</ele>
        <time>2012-04-05T16:50:02Z</time>
      </trkpt>
      <trkpt lat="43.42465" lon="2.15287">
        <ele>686</ele>
        <time>2012-04-05T16:50:04Z</time>
      </trkpt>
      <trkpt lat="43.42468" lon="2.15305">
        <ele>685</ele>
        <time>2012-04-05T16:50:06Z</time>
      </trkpt>
      <trkpt lat="43.42473" lon="2.15323">
        <ele>684</ele>
        <time>2012-04-05T16:50:08Z</time>
      </trkpt>
      <trkpt lat="43.42477" lon="2.15337">
        <ele>683</ele>
        <time>2012-04-05T16:50:10Z</time>
      </trkpt>
      <trkpt lat="43.42481" lon="2.15348">
        <ele>681</ele>
        <time>2012-04-05T16:50:12Z</time>
      </trkpt>
      <trkpt lat="43.4249" lon="2.15354">
        <ele>679</ele>
        <time>2012-04-05T16:50:14Z</time>
      </trkpt>
      <trkpt lat="43.425" lon="2.15363">
        <ele>677</ele>
        <time>2012-04-05T16:50:16Z</time>
      </trkpt>
      <trkpt lat="43.42508" lon="2.15371">
        <ele>675</ele>
        <time>2012-04-05T16:50:18Z</time>
      </trkpt>
      <trkpt lat="43.42515" lon="2.15384">
        <ele>673</ele>
        <time>2012-04-05T16:50:20Z</time>
      </trkpt>
      <trkpt lat="43.42523" lon="2.15396">
        <ele>671</ele>
        <time>2012-04-05T16:50:22Z</time>
      </trkpt>
      <trkpt lat="43.42531" lon="2.15404">
        <ele>669</ele>
        <time>2012-04-05T16:50:24Z</time>
      </trkpt>
      <trkpt lat="43.42537" lon="2.15416">
        <ele>668</ele>
        <time>2012-04-05T16:50:26Z</time>
      </trkpt>
      <trkpt lat="43.42544" lon="2.15425">
        <ele>668</ele>
        <time>2012-04-05T16:50:28Z</time>
      </trkpt>
      <trkpt lat="43.42549" lon="2.15438">
        <ele>668</ele>
        <time>2012-04-05T16:50:30Z</time>
      </trkpt>
      <trkpt lat="43.42552" lon="2.15449">
        <ele>668</ele>
        <time>2012-04-05T16:50:32Z</time>
      </trkpt>
      <trkpt lat="43.42555" lon="2.15463">
        <ele>668</ele>
        <time>2012-04-05T16:50:34Z</time>
      </trkpt>
      <trkpt lat="43.42556" lon="2.15474">
        <ele>669</ele>
        <time>2012-04-05T16:50:36Z</time>
      </trkpt>
      <trkpt lat="43.42555" lon="2.15488">
        <ele>670</ele>
        <time>2012-04-05T16:50:38Z</time>
      </trkpt>
      <trkpt lat="43.42552" lon="2.155">
        <ele>670</ele>
        <time>2012-04-05T16:50:40Z</time>
      </trkpt>
      <trkpt lat="43.42548" lon="2.15514">
        <ele>670</ele>
        <time>2012-04-05T16:50:42Z</time>
      </trkpt>
      <trkpt lat="43.42543" lon="2.15527">
        <ele>670</ele>
        <time>2012-04-05T16:50:44Z</time>
      </trkpt>
      <trkpt lat="43.42534" lon="2.15537">
        <ele>670</ele>
        <time>2012-04-05T16:50:46Z</time>
      </trkpt>
      <trkpt lat="43.42525" lon="2.15548">
        <ele>670</ele>
        <time>2012-04-05T16:50:48Z</time>
      </trkpt>
      <trkpt lat="43.42518" lon="2.15559">
        <ele>670</ele>
        <time>2012-04-05T16:50:50Z</time>
      </trkpt>
      <trkpt lat="43.4251" lon="2.15566">
        <ele>670</ele>
        <time>2012-04-05T16:50:52Z</time>
      </trkpt>
      <trkpt lat="43.42504" lon="2.15572">
        <ele>670</ele>
        <time>2012-04-05T16:50:54Z</time>
      </trkpt>
      <trkpt lat="43.42499" lon="2.1558">
        <ele>670</ele>
        <time>2012-04-05T16:50:56Z</time>
      </trkpt>
      <trkpt lat="43.42493" lon="2.15591">
        <ele>669</ele>
        <time>2012-04-05T16:50:58Z</time>
      </trkpt>
      <trkpt lat="43.42487" lon="2.15601">
        <ele>667</ele>
        <time>2012-04-05T16:51:00Z</time>
      </trkpt>
      <trkpt lat="43.42482" lon="2.15611">
        <ele>666</ele>
        <time>2012-04-05T16:51:02Z</time>
      </trkpt>
      <trkpt lat="43.42477" lon="2.15622">
        <ele>665</ele>
        <time>2012-04-05T16:51:04Z</time>
      </trkpt>
      <trkpt lat="43.42472" lon="2.15634">
        <ele>665</ele>
        <time>2012-04-05T16:51:06Z</time>
      </trkpt>
      <trkpt lat="43.42464" lon="2.15642">
        <ele>665</ele>
        <time>2012-04-05T16:51:08Z</time>
      </trkpt>
      <trkpt lat="43.42457" lon="2.15646">
        <ele>665</ele>
        <time>2012-04-05T16:51:10Z</time>
      </trkpt>
      <trkpt lat="43.42449" lon="2.15647">
        <ele>665</ele>
        <time>2012-04-05T16:51:12Z</time>
      </trkpt>
      <trkpt lat="43.42441" lon="2.15644">
        <ele>665</ele>
        <time>2012-04-05T16:51:14Z</time>
      </trkpt>
      <trkpt lat="43.42434" lon="2.15642">
        <ele>665</ele>
        <time>2012-04-05T16:51:16Z</time>
      </trkpt>
      <trkpt lat="43.42428" lon="2.1564">
        <ele>665</ele>
        <time>2012-04-05T16:51:18Z</time>
      </trkpt>
      <trkpt lat="43.4242" lon="2.15639">
        <ele>665</ele>
        <time>2012-04-05T16:51:20Z</time>
      </trkpt>
      <trkpt lat="43.42413" lon="2.15636">
        <ele>665</ele>
        <time>2012-04-05T16:51:22Z</time>
      </trkpt>
      <trkpt lat="43.42406" lon="2.15635">
        <ele>665</ele>
        <time>2012-04-05T16:51:24Z</time>
      </trkpt>
      <trkpt lat="43.42398" lon="2.15635">
        <ele>665</ele>
        <time>2012-04-05T16:51:26Z</time>
      </trkpt>
      <trkpt lat="43.42391" lon="2.15633">
        <ele>665</ele>
        <time>2012-04-05T16:51:28Z</time>
      </trkpt>
      <trkpt lat="43.42382" lon="2.15632">
        <ele>665</ele>
        <time>2012-04-05T16:51:30Z</time>
      </trkpt>
      <trkpt lat="43.42374" lon="2.1563">
        <ele>665</ele>
        <time>2012-04-05T16:51:32Z</time>
      </trkpt>
      <trkpt lat="43.42365" lon="2.15626">
        <ele>665</ele>
        <time>2012-04-05T16:51:34Z</time>
      </trkpt>
      <trkpt lat="43.42355" lon="2.15622">
        <ele>665</ele>
        <time>2012-04-05T16:51:36Z</time>
      </trkpt>
      <trkpt lat="43.42346" lon="2.15619">
        <ele>665</ele>
        <time>2012-04-05T16:51:38Z</time>
      </trkpt>
      <trkpt lat="43.42336" lon="2.15617">
        <ele>665</ele>
        <time>2012-04-05T16:51:40Z</time>
      </trkpt>
      <trkpt lat="43.42325" lon="2.15616">
        <ele>665</ele>
        <time>2012-04-05T16:51:42Z</time>
      </trkpt>
      <trkpt lat="43.42315" lon="2.15614">
        <ele>665</ele>
        <time>2012-04-05T16:51:44Z</time>
      </trkpt>
      <trkpt lat="43.42304" lon="2.15611">
        <ele>665</ele>
        <time>2012-04-05T16:51:46Z</time>
      </trkpt>
      <trkpt lat="43.42293" lon="2.15608">
        <ele>665</ele>
        <time>2012-04-05T16:51:48Z</time>
      </trkpt>
      <trkpt lat="43.42282" lon="2.15604">
        <ele>665</ele>
        <time>2012-04-05T16:51:50Z</time>
      </trkpt>
      <trkpt lat="43.42272" lon="2.156">
        <ele>665</ele>
        <time>2012-04-05T16:51:52Z</time>
      </trkpt>
      <trkpt lat="43.42262" lon="2.15597">
        <ele>665</ele>
        <time>2012-04-05T16:51:54Z</time>
      </trkpt>
      <trkpt lat="43.42251" lon="2.15593">
        <ele>665</ele>
        <time>2012-04-05T16:51:56Z</time>
      </trkpt>
      <trkpt lat="43.4224" lon="2.15591">
        <ele>665</ele>
        <time>2012-04-05T16:51:58Z</time>
      </trkpt>
      <trkpt lat="43.42229" lon="2.15591">
        <ele>665</ele>
        <time>2012-04-05T16:52:00Z</time>
      </trkpt>
      <trkpt lat="43.42218" lon="2.1559">
        <ele>665</ele>
        <time>2012-04-05T16:52:02Z</time>
      </trkpt>
      <trkpt lat="43.42208" lon="2.15586">
        <ele>665</ele>
        <time>2012-04-05T16:52:04Z</time>
      </trkpt>
      <trkpt lat="43.42197" lon="2.15583">
        <ele>665</ele>
        <time>2012-04-05T16:52:06Z</time>
      </trkpt>
      <trkpt lat="43.42187" lon="2.15581">
        <ele>665</ele>
        <time>2012-04-05T16:52:08Z</time>
      </trkpt>
      <trkpt lat="43.42176" lon="2.15578">
        <ele>665</ele>
        <time>2012-04-05T16:52:10Z</time>
      </trkpt>
      <trkpt lat="43.42165" lon="2.15575">
        <ele>665</ele>
        <time>2012-04-05T16:52:12Z</time>
      </trkpt>
      <trkpt lat="43.42153" lon="2.1557">
        <ele>665</ele>
        <time>2012-04-05T16:52:14Z</time>
      </trkpt>
      <trkpt lat="43.42142" lon="2.15568">
        <ele>665</ele>
        <time>2012-04-05T16:52:16Z</time>
      </trkpt>
      <trkpt lat="43.42131" lon="2.15566">
        <ele>665</ele>
        <time>2012-04-05T16:52:18Z</time>
      </trkpt>
      <trkpt lat="43.4212" lon="2.15564">
        <ele>664</ele>
        <time>2012-04-05T16:52:20Z</time>
      </trkpt>
      <trkpt lat="43.42108" lon="2.15562">
        <ele>663</ele>
        <time>2012-04-05T16:52:22Z</time>
      </trkpt>
      <trkpt lat="43.42097" lon="2.15558">
        <ele>662</ele>
        <time>2012-04-05T16:52:24Z</time>
      </trkpt>
      <trkpt lat="43.42087" lon="2.15554">
        <ele>661</ele>
        <time>2012-04-05T16:52:26Z</time>
      </trkpt>
      <trkpt lat="43.42076" lon="2.15549">
        <ele>660</ele>
        <time>2012-04-05T16:52:28Z</time>
      </trkpt>
      <trkpt lat="43.42063" lon="2.15547">
        <ele>659</ele>
        <time>2012-04-05T16:52:30Z</time>
      </trkpt>
      <trkpt lat="43.42049" lon="2.15544">
        <ele>658</ele>
        <time>2012-04-05T16:52:32Z</time>
      </trkpt>
      <trkpt lat="43.42036" lon="2.15539">
        <ele>657</ele>
        <time>2012-04-05T16:52:34Z</time>
      </trkpt>
      <trkpt lat="43.42022" lon="2.15533">
        <ele>657</ele>
        <time>2012-04-05T16:52:36Z</time>
      </trkpt>
      <trkpt lat="43.42008" lon="2.15528">
        <ele>657</ele>
        <time>2012-04-05T16:52:38Z</time>
      </trkpt>
      <trkpt lat="43.41998" lon="2.15518">
        <ele>657</ele>
        <time>2012-04-05T16:52:40Z</time>
      </trkpt>
      <trkpt lat="43.41989" lon="2.15507">
        <ele>657</ele>
        <time>2012-04-05T16:52:42Z</time>
      </trkpt>
      <trkpt lat="43.41979" lon="2.15498">
        <ele>657</ele>
        <time>2012-04-05T16:52:44Z</time>
      </trkpt>
      <trkpt lat="43.41971" lon="2.15491">
        <ele>657</ele>
        <time>2012-04-05T16:52:46Z</time>
      </trkpt>
      <trkpt lat="43.41962" lon="2.15488">
        <ele>655</ele>
        <time>2012-04-05T16:52:48Z</time>
      </trkpt>
      <trkpt lat="43.41951" lon="2.15484">
        <ele>654</ele>
        <time>2012-04-05T16:52:50Z</time>
      </trkpt>
      <trkpt lat="43.41939" lon="2.15481">
        <ele>652</ele>
        <time>2012-04-05T16:52:52Z</time>
      </trkpt>
      <trkpt lat="43.41927" lon="2.15479">
        <ele>650</ele>
        <time>2012-04-05T16:52:54Z</time>
      </trkpt>
      <trkpt lat="43.41917" lon="2.15479">
        <ele>648</ele>
        <time>2012-04-05T16:52:56Z</time>
      </trkpt>
      <trkpt lat="43.41907" lon="2.15479">
        <ele>646</ele>
        <time>2012-04-05T16:52:58Z</time>
      </trkpt>
      <trkpt lat="43.41896" lon="2.15484">
        <ele>646</ele>
        <time>2012-04-05T16:53:00Z</time>
      </trkpt>
      <trkpt lat="43.41887" lon="2.1549">
        <ele>646</ele>
        <time>2012-04-05T16:53:02Z</time>
      </trkpt>
      <trkpt lat="43.41879" lon="2.15499">
        <ele>646</ele>
        <time>2012-04-05T16:53:04Z</time>
      </trkpt>
      <trkpt lat="43.4187" lon="2.15508">
        <ele>646</ele>
        <time>2012-04-05T16:53:06Z</time>
      </trkpt>
      <trkpt lat="43.41861" lon="2.15516">
        <ele>646</ele>
        <time>2012-04-05T16:53:08Z</time>
      </trkpt>
      <trkpt lat="43.41853" lon="2.15523">
        <ele>646</ele>
        <time>2012-04-05T16:53:10Z</time>
      </trkpt>
      <trkpt lat="43.41844" lon="2.15524">
        <ele>646</ele>
        <time>2012-04-05T16:53:12Z</time>
      </trkpt>
      <trkpt lat="43.41835" lon="2.15528">
        <ele>646</ele>
        <time>2012-04-05T16:53:14Z</time>
      </trkpt>
      <trkpt lat="43.41827" lon="2.15532">
        <ele>646</ele>
        <time>2012-04-05T16:53:16Z</time>
      </trkpt>
      <trkpt lat="43.41822" lon="2.15532">
        <ele>646</ele>
        <time>2012-04-05T16:53:18Z</time>
      </trkpt>
      <trkpt lat="43.41815" lon="2.15527">
        <ele>646</ele>
        <time>2012-04-05T16:53:20Z</time>
      </trkpt>
      <trkpt lat="43.41811" lon="2.15525">
        <ele>646</ele>
        <time>2012-04-05T16:53:24Z</time>
      </trkpt>
      <trkpt lat="43.4181" lon="2.15527">
        <ele>645</ele>
        <time>2012-04-05T16:53:27Z</time>
      </trkpt>
      <trkpt lat="43.41812" lon="2.15526">
        <ele>640</ele>
        <time>2012-04-05T16:53:39Z</time>
      </trkpt>
      <trkpt lat="43.41813" lon="2.15526">
        <ele>640</ele>
        <time>2012-04-05T16:53:41Z</time>
      </trkpt>
      <trkpt lat="43.41815" lon="2.15526">
        <ele>640</ele>
        <time>2012-04-05T16:53:43Z</time>
      </trkpt>
      <trkpt lat="43.41817" lon="2.15528">
        <ele>641</ele>
        <time>2012-04-05T16:53:45Z</time>
      </trkpt>
      <trkpt lat="43.41819" lon="2.15528">
        <ele>642</ele>
        <time>2012-04-05T16:53:47Z</time>
      </trkpt>
      <trkpt lat="43.41821" lon="2.15528">
        <ele>644</ele>
        <time>2012-04-05T16:53:50Z</time>
      </trkpt>
      <trkpt lat="43.41822" lon="2.15529">
        <ele>645</ele>
        <time>2012-04-05T16:53:52Z</time>
      </trkpt>
      <trkpt lat="43.41824" lon="2.15529">
        <ele>647</ele>
        <time>2012-04-05T16:53:54Z</time>
      </trkpt>
      <trkpt lat="43.41825" lon="2.1553">
        <ele>648</ele>
        <time>2012-04-05T16:53:56Z</time>
      </trkpt>
      <trkpt lat="43.41827" lon="2.1553">
        <ele>649</ele>
        <time>2012-04-05T16:53:58Z</time>
      </trkpt>
      <trkpt lat="43.41829" lon="2.1553">
        <ele>649</ele>
        <time>2012-04-05T16:54:00Z</time>
      </trkpt>
      <trkpt lat="43.41831" lon="2.1553">
        <ele>649</ele>
        <time>2012-04-05T16:54:02Z</time>
      </trkpt>
      <trkpt lat="43.41833" lon="2.1553">
        <ele>649</ele>
        <time>2012-04-05T16:54:04Z</time>
      </trkpt>
      <trkpt lat="43.41836" lon="2.1553">
        <ele>650</ele>
        <time>2012-04-05T16:54:06Z</time>
      </trkpt>
      <trkpt lat="43.41839" lon="2.15529">
        <ele>650</ele>
        <time>2012-04-05T16:54:08Z</time>
      </trkpt>
      <trkpt lat="43.41841" lon="2.15528">
        <ele>650</ele>
        <time>2012-04-05T16:54:10Z</time>
      </trkpt>
      <trkpt lat="43.41843" lon="2.15528">
        <ele>651</ele>
        <time>2012-04-05T16:54:12Z</time>
      </trkpt>
      <trkpt lat="43.41845" lon="2.15527">
        <ele>651</ele>
        <time>2012-04-05T16:54:14Z</time>
      </trkpt>
      <trkpt lat="43.41848" lon="2.15526">
        <ele>651</ele>
        <time>2012-04-05T16:54:16Z</time>
      </trkpt>
      <trkpt lat="43.4185" lon="2.15525">
        <ele>651</ele>
        <time>2012-04-05T16:54:18Z</time>
      </trkpt>
      <trkpt lat="43.41852" lon="2.15523">
        <ele>652</ele>
        <time>2012-04-05T16:54:20Z</time>
      </trkpt>
      <trkpt lat="43.41853" lon="2.15521">
        <ele>652</ele>
        <time>2012-04-05T16:54:22Z</time>
      </trkpt>
      <trkpt lat="43.41856" lon="2.15518">
        <ele>652</ele>
        <time>2012-04-05T16:54:24Z</time>
      </trkpt>
      <trkpt lat="43.41857" lon="2.15516">
        <ele>653</ele>
        <time>2012-04-05T16:54:26Z</time>
      </trkpt>
      <trkpt lat="43.41857" lon="2.15515">
        <ele>653</ele>
        <time>2012-04-05T16:54:28Z</time>
      </trkpt>
      <trkpt lat="43.41859" lon="2.15513">
        <ele>653</ele>
        <time>2012-04-05T16:54:34Z</time>
      </trkpt>
      <trkpt lat="43.41859" lon="2.15511">
        <ele>653</ele>
        <time>2012-04-05T16:54:37Z</time>
      </trkpt>
      <trkpt lat="43.41859" lon="2.15513">
        <ele>653</ele>
        <time>2012-04-05T16:54:47Z</time>
      </trkpt>
      <trkpt lat="43.41858" lon="2.15511">
        <ele>653</ele>
        <time>2012-04-05T16:55:02Z</time>
      </trkpt>
      <trkpt lat="43.41856" lon="2.15509">
        <ele>653</ele>
        <time>2012-04-05T16:55:04Z</time>
      </trkpt>
      <trkpt lat="43.41855" lon="2.15507">
        <ele>653</ele>
        <time>2012-04-05T16:55:06Z</time>
      </trkpt>
      <trkpt lat="43.41854" lon="2.15504">
        <ele>653</ele>
        <time>2012-04-05T16:55:08Z</time>
      </trkpt>
      <trkpt lat="43.41852" lon="2.15501">
        <ele>653</ele>
        <time>2012-04-05T16:55:11Z</time>
      </trkpt>
      <trkpt lat="43.41851" lon="2.15499">
        <ele>653</ele>
        <time>2012-04-05T16:55:13Z</time>
      </trkpt>
      <trkpt lat="43.4185" lon="2.15496">
        <ele>653</ele>
        <time>2012-04-05T16:55:15Z</time>
      </trkpt>
      <trkpt lat="43.41848" lon="2.15494">
        <ele>653</ele>
        <time>2012-04-05T16:55:17Z</time>
      </trkpt>
      <trkpt lat="43.41845" lon="2.15491">
        <ele>653</ele>
        <time>2012-04-05T16:55:20Z</time>
      </trkpt>
      <trkpt lat="43.41844" lon="2.15489">
        <ele>653</ele>
        <time>2012-04-05T16:55:22Z</time>
      </trkpt>
      <trkpt lat="43.41843" lon="2.15488">
        <ele>653</ele>
        <time>2012-04-05T16:55:24Z</time>
      </trkpt>
      <trkpt lat="43.41842" lon="2.15486">
        <ele>653</ele>
        <time>2012-04-05T16:55:27Z</time>
      </trkpt>
      <trkpt lat="43.4184" lon="2.15484">
        <ele>653</ele>
        <time>2012-04-05T16:55:29Z</time>
      </trkpt>
      <trkpt lat="43.41839" lon="2.15482">
        <ele>653</ele>
        <time>2012-04-05T16:55:31Z</time>
      </trkpt>
      <trkpt lat="43.41838" lon="2.1548">
        <ele>652</ele>
        <time>2012-04-05T16:55:33Z</time>
      </trkpt>
      <trkpt lat="43.4184" lon="2.15479">
        <ele>649</ele>
        <time>2012-04-05T16:55:37Z</time>
      </trkpt>
      <trkpt lat="43.41841" lon="2.15482">
        <ele>649</ele>
        <time>2012-04-05T16:55:39Z</time>
      </trkpt>
      <trkpt lat="43.41842" lon="2.15484">
        <ele>649</ele>
        <time>2012-04-05T16:55:41Z</time>
      </trkpt>
      <trkpt lat="43.41842" lon="2.15487">
        <ele>649</ele>
        <time>2012-04-05T16:55:43Z</time>
      </trkpt>
      <trkpt lat="43.41845" lon="2.15489">
        <ele>649</ele>
        <time>2012-04-05T16:55:45Z</time>
      </trkpt>
      <trkpt lat="43.41847" lon="2.15489">
        <ele>649</ele>
        <time>2012-04-05T16:55:47Z</time>
      </trkpt>
      <trkpt lat="43.4185" lon="2.15492">
        <ele>649</ele>
        <time>2012-04-05T16:55:50Z</time>
      </trkpt>
      <trkpt lat="43.41852" lon="2.15494">
        <ele>649</ele>
        <time>2012-04-05T16:55:52Z</time>
      </trkpt>
      <trkpt lat="43.41853" lon="2.15496">
        <ele>649</ele>
        <time>2012-04-05T16:55:54Z</time>
      </trkpt>
      <trkpt lat="43.41854" lon="2.15498">
        <ele>649</ele>
        <time>2012-04-05T16:55:56Z</time>
      </trkpt>
      <trkpt lat="43.41855" lon="2.15502">
        <ele>649</ele>
        <time>2012-04-05T16:55:58Z</time>
      </trkpt>
      <trkpt lat="43.41856" lon="2.15505">
        <ele>649</ele>
        <time>2012-04-05T16:56:00Z</time>
      </trkpt>
      <trkpt lat="43.41858" lon="2.15507">
        <ele>648</ele>
        <time>2012-04-05T16:56:02Z</time>
      </trkpt>
      <trkpt lat="43.4186" lon="2.15508">
        <ele>648</ele>
        <time>2012-04-05T16:56:04Z</time>
      </trkpt>
      <trkpt lat="43.4186" lon="2.1551">
        <ele>648</ele>
        <time>2012-04-05T16:56:06Z</time>
      </trkpt>
      <trkpt lat="43.41859" lon="2.15513">
        <ele>647</ele>
        <time>2012-04-05T16:56:09Z</time>
      </trkpt>
      <trkpt lat="43.41858" lon="2.15515">
        <ele>647</ele>
        <time>2012-04-05T16:56:12Z</time>
      </trkpt>
      <trkpt lat="43.41856" lon="2.15517">
        <ele>647</ele>
        <time>2012-04-05T16:56:14Z</time>
      </trkpt>
      <trkpt lat="43.41855" lon="2.1552">
        <ele>647</ele>
        <time>2012-04-05T16:56:16Z</time>
      </trkpt>
      <trkpt lat="43.41852" lon="2.15524">
        <ele>646</ele>
        <time>2012-04-05T16:56:19Z</time>
      </trkpt>
      <trkpt lat="43.41852" lon="2.15527">
        <ele>645</ele>
        <time>2012-04-05T16:56:21Z</time>
      </trkpt>
      <trkpt lat="43.41852" lon="2.1553">
        <ele>645</ele>
        <time>2012-04-05T16:56:23Z</time>
      </trkpt>
      <trkpt lat="43.41851" lon="2.15533">
        <ele>645</ele>
        <time>2012-04-05T16:56:25Z</time>
      </trkpt>
      <trkpt lat="43.41853" lon="2.1554">
        <ele>644</ele>
        <time>2012-04-05T16:56:29Z</time>
      </trkpt>
      <trkpt lat="43.41853" lon="2.15545">
        <ele>644</ele>
        <time>2012-04-05T16:56:31Z</time>
      </trkpt>
      <trkpt lat="43.41852" lon="2.15549">
        <ele>644</ele>
        <time>2012-04-05T16:56:33Z</time>
      </trkpt>
      <trkpt lat="43.41851" lon="2.15554">
        <ele>643</ele>
        <time>2012-04-05T16:56:35Z</time>
      </trkpt>
      <trkpt lat="43.41849" lon="2.15558">
        <ele>643</ele>
        <time>2012-04-05T16:56:37Z</time>
      </trkpt>
      <trkpt lat="43.41847" lon="2.1556">
        <ele>643</ele>
        <time>2012-04-05T16:56:39Z</time>
      </trkpt>
      <trkpt lat="43.41846" lon="2.15562">
        <ele>643</ele>
        <time>2012-04-05T16:56:42Z</time>
      </trkpt>
      <trkpt lat="43.41847" lon="2.15563">
        <ele>643</ele>
        <time>2012-04-05T16:56:44Z</time>
      </trkpt>
      <trkpt lat="43.41847" lon="2.15565">
        <ele>643</ele>
        <time>2012-04-05T16:56:49Z</time>
      </trkpt>
      <trkpt lat="43.41846" lon="2.15566">
        <ele>644</ele>
        <time>2012-04-05T16:56:54Z</time>
      </trkpt>
      <trkpt lat="43.41845" lon="2.15568">
        <ele>647</ele>
        <time>2012-04-05T16:57:06Z</time>
      </trkpt>
      <trkpt lat="43.41844" lon="2.1557">
        <ele>651</ele>
        <time>2012-04-05T16:57:10Z</time>
      </trkpt>
      <trkpt lat="43.41843" lon="2.1557">
        <ele>654</ele>
        <time>2012-04-05T16:57:16Z</time>
      </trkpt>
      <trkpt lat="43.41843" lon="2.15568">
        <ele>654</ele>
        <time>2012-04-05T16:57:23Z</time>
      </trkpt>
      <trkpt lat="43.41843" lon="2.15566">
        <ele>654</ele>
        <time>2012-04-05T16:57:25Z</time>
      </trkpt>
      <trkpt lat="43.41843" lon="2.15562">
        <ele>654</ele>
        <time>2012-04-05T16:57:29Z</time>
      </trkpt>
      <trkpt lat="43.41842" lon="2.15558">
        <ele>654</ele>
        <time>2012-04-05T16:57:31Z</time>
      </trkpt>
      <trkpt lat="43.41842" lon="2.15556">
        <ele>654</ele>
        <time>2012-04-05T16:57:33Z</time>
      </trkpt>
      <trkpt lat="43.4184" lon="2.15554">
        <ele>654</ele>
        <time>2012-04-05T16:57:35Z</time>
      </trkpt>
      <trkpt lat="43.41839" lon="2.15553">
        <ele>654</ele>
        <time>2012-04-05T16:57:38Z</time>
      </trkpt>
      <trkpt lat="43.41838" lon="2.15552">
        <ele>654</ele>
        <time>2012-04-05T16:57:40Z</time>
      </trkpt>
      <trkpt lat="43.41836" lon="2.15551">
        <ele>654</ele>
        <time>2012-04-05T16:57:42Z</time>
      </trkpt>
      <trkpt lat="43.41838" lon="2.15552">
        <ele>654</ele>
        <time>2012-04-05T16:57:51Z</time>
      </trkpt>
      <trkpt lat="43.4184" lon="2.15553">
        <ele>653</ele>
        <time>2012-04-05T16:57:53Z</time>
      </trkpt>
      <trkpt lat="43.41843" lon="2.15555">
        <ele>653</ele>
        <time>2012-04-05T16:57:56Z</time>
      </trkpt>
      <trkpt lat="43.41845" lon="2.15555">
        <ele>652</ele>
        <time>2012-04-05T16:57:58Z</time>
      </trkpt>
      <trkpt lat="43.41845" lon="2.15553">
        <ele>652</ele>
        <time>2012-04-05T16:58:00Z</time>
      </trkpt>
      <trkpt lat="43.41847" lon="2.15551">
        <ele>652</ele>
        <time>2012-04-05T16:58:02Z</time>
      </trkpt>
      <trkpt lat="43.41848" lon="2.15548">
        <ele>651</ele>
        <time>2012-04-05T16:58:04Z</time>
      </trkpt>
      <trkpt lat="43.41848" lon="2.15546">
        <ele>651</ele>
        <time>2012-04-05T16:58:06Z</time>
      </trkpt>
      <trkpt lat="43.41848" lon="2.15543">
        <ele>650</ele>
        <time>2012-04-05T16:58:08Z</time>
      </trkpt>
      <trkpt lat="43.41848" lon="2.15538">
        <ele>650</ele>
        <time>2012-04-05T16:58:11Z</time>
      </trkpt>
      <trkpt lat="43.41849" lon="2.15534">
        <ele>650</ele>
        <time>2012-04-05T16:58:14Z</time>
      </trkpt>
      <trkpt lat="43.41849" lon="2.15529">
        <ele>650</ele>
        <time>2012-04-05T16:58:17Z</time>
      </trkpt>
      <trkpt lat="43.41849" lon="2.15528">
        <ele>650</ele>
        <time>2012-04-05T16:58:20Z</time>
      </trkpt>
      <trkpt lat="43.41848" lon="2.15526">
        <ele>650</ele>
        <time>2012-04-05T16:58:22Z</time>
      </trkpt>
      <trkpt lat="43.41846" lon="2.15526">
        <ele>650</ele>
        <time>2012-04-05T16:58:24Z</time>
      </trkpt>
      <trkpt lat="43.41844" lon="2.15527">
        <ele>650</ele>
        <time>2012-04-05T16:58:26Z</time>
      </trkpt>
      <trkpt lat="43.41841" lon="2.15527">
        <ele>650</ele>
        <time>2012-04-05T16:58:28Z</time>
      </trkpt>
      <trkpt lat="43.41838" lon="2.15528">
        <ele>650</ele>
        <time>2012-04-05T16:58:30Z</time>
      </trkpt>
      <trkpt lat="43.41835" lon="2.15528">
        <ele>650</ele>
        <time>2012-04-05T16:58:32Z</time>
      </trkpt>
      <trkpt lat="43.41833" lon="2.15529">
        <ele>650</ele>
        <time>2012-04-05T16:58:34Z</time>
      </trkpt>
      <trkpt lat="43.41831" lon="2.1553">
        <ele>650</ele>
        <time>2012-04-05T16:58:37Z</time>
      </trkpt>
      <trkpt lat="43.41828" lon="2.15529">
        <ele>650</ele>
        <time>2012-04-05T16:58:39Z</time>
      </trkpt>
      <trkpt lat="43.41827" lon="2.15528">
        <ele>650</ele>
        <time>2012-04-05T16:58:41Z</time>
      </trkpt>
      <trkpt lat="43.41824" lon="2.15527">
        <ele>650</ele>
        <time>2012-04-05T16:58:43Z</time>
      </trkpt>
      <trkpt lat="43.4182" lon="2.15527">
        <ele>650</ele>
        <time>2012-04-05T16:58:45Z</time>
      </trkpt>
      <trkpt lat="43.41819" lon="2.15527">
        <ele>650</ele>
        <time>2012-04-05T16:58:47Z</time>
      </trkpt>
      <trkpt lat="43.41816" lon="2.15527">
        <ele>650</ele>
        <time>2012-04-05T16:58:49Z</time>
      </trkpt>
      <trkpt lat="43.41814" lon="2.15525">
        <ele>650</ele>
        <time>2012-04-05T16:58:51Z</time>
      </trkpt>
      <trkpt lat="43.41812" lon="2.15524">
        <ele>650</ele>
        <time>2012-04-05T16:58:53Z</time>
      </trkpt>
      <trkpt lat="43.41809" lon="2.15524">
        <ele>650</ele>
        <time>2012-04-05T16:58:55Z</time>
      </trkpt>
      <trkpt lat="43.41808" lon="2.15522">
        <ele>650</ele>
        <time>2012-04-05T16:58:57Z</time>
      </trkpt>
      <trkpt lat="43.41808" lon="2.1552">
        <ele>650</ele>
        <time>2012-04-05T16:58:59Z</time>
      </trkpt>
      <trkpt lat="43.41808" lon="2.15522">
        <ele>648</ele>
        <time>2012-04-05T16:59:06Z</time>
      </trkpt>
      <trkpt lat="43.41808" lon="2.15523">
        <ele>648</ele>
        <time>2012-04-05T16:59:08Z</time>
      </trkpt>
      <trkpt lat="43.4181" lon="2.15524">
        <ele>648</ele>
        <time>2012-04-05T16:59:10Z</time>
      </trkpt>
      <trkpt lat="43.41812" lon="2.15526">
        <ele>648</ele>
        <time>2012-04-05T16:59:12Z</time>
      </trkpt>
      <trkpt lat="43.41814" lon="2.15526">
        <ele>648</ele>
        <time>2012-04-05T16:59:14Z</time>
      </trkpt>
      <trkpt lat="43.41817" lon="2.15527">
        <ele>648</ele>
        <time>2012-04-05T16:59:16Z</time>
      </trkpt>
      <trkpt lat="43.41819" lon="2.15528">
        <ele>648</ele>
        <time>2012-04-05T16:59:18Z</time>
      </trkpt>
      <trkpt lat="43.41822" lon="2.15529">
        <ele>648</ele>
        <time>2012-04-05T16:59:21Z</time>
      </trkpt>
      <trkpt lat="43.41824" lon="2.15529">
        <ele>648</ele>
        <time>2012-04-05T16:59:23Z</time>
      </trkpt>
      <trkpt lat="43.41826" lon="2.1553">
        <ele>648</ele>
        <time>2012-04-05T16:59:25Z</time>
      </trkpt>
      <trkpt lat="43.41829" lon="2.1553">
        <ele>649</ele>
        <time>2012-04-05T16:59:28Z</time>
      </trkpt>
      <trkpt lat="43.41831" lon="2.1553">
        <ele>650</ele>
        <time>2012-04-05T16:59:30Z</time>
      </trkpt>
      <trkpt lat="43.41835" lon="2.1553">
        <ele>651</ele>
        <time>2012-04-05T16:59:33Z</time>
      </trkpt>
      <trkpt lat="43.41838" lon="2.15528">
        <ele>651</ele>
        <time>2012-04-05T16:59:36Z</time>
      </trkpt>
      <trkpt lat="43.41842" lon="2.15527">
        <ele>651</ele>
        <time>2012-04-05T16:59:39Z</time>
      </trkpt>
      <trkpt lat="43.41844" lon="2.15526">
        <ele>652</ele>
        <time>2012-04-05T16:59:42Z</time>
      </trkpt>
      <trkpt lat="43.41846" lon="2.15526">
        <ele>653</ele>
        <time>2012-04-05T16:59:44Z</time>
      </trkpt>
      <trkpt lat="43.41847" lon="2.15526">
        <ele>653</ele>
        <time>2012-04-05T16:59:46Z</time>
      </trkpt>
      <trkpt lat="43.41849" lon="2.15526">
        <ele>653</ele>
        <time>2012-04-05T16:59:48Z</time>
      </trkpt>
      <trkpt lat="43.41849" lon="2.15527">
        <ele>653</ele>
        <time>2012-04-05T16:59:50Z</time>
      </trkpt>
      <trkpt lat="43.4185" lon="2.15529">
        <ele>654</ele>
        <time>2012-04-05T16:59:54Z</time>
      </trkpt>
      <trkpt lat="43.41852" lon="2.15527">
        <ele>654</ele>
        <time>2012-04-05T16:59:56Z</time>
      </trkpt>
      <trkpt lat="43.41855" lon="2.15524">
        <ele>655</ele>
        <time>2012-04-05T16:59:58Z</time>
      </trkpt>
      <trkpt lat="43.41859" lon="2.15519">
        <ele>655</ele>
        <time>2012-04-05T17:00:00Z</time>
      </trkpt>
      <trkpt lat="43.41864" lon="2.15513">
        <ele>655</ele>
        <time>2012-04-05T17:00:02Z</time>
      </trkpt>
      <trkpt lat="43.4187" lon="2.15508">
        <ele>655</ele>
        <time>2012-04-05T17:00:04Z</time>
      </trkpt>
      <trkpt lat="43.41875" lon="2.15503">
        <ele>655</ele>
        <time>2012-04-05T17:00:06Z</time>
      </trkpt>
      <trkpt lat="43.41878" lon="2.15499">
        <ele>655</ele>
        <time>2012-04-05T17:00:08Z</time>
      </trkpt>
      <trkpt lat="43.41877" lon="2.15497">
        <ele>655</ele>
        <time>2012-04-05T17:00:10Z</time>
      </trkpt>
      <trkpt lat="43.41877" lon="2.15493">
        <ele>655</ele>
        <time>2012-04-05T17:00:12Z</time>
      </trkpt>
      <trkpt lat="43.41874" lon="2.15487">
        <ele>655</ele>
        <time>2012-04-05T17:00:14Z</time>
      </trkpt>
      <trkpt lat="43.4187" lon="2.15481">
        <ele>655</ele>
        <time>2012-04-05T17:00:16Z</time>
      </trkpt>
      <trkpt lat="43.41865" lon="2.15474">
        <ele>655</ele>
        <time>2012-04-05T17:00:18Z</time>
      </trkpt>
      <trkpt lat="43.41862" lon="2.15463">
        <ele>655</ele>
        <time>2012-04-05T17:00:20Z</time>
      </trkpt>
      <trkpt lat="43.41859" lon="2.15452">
        <ele>654</ele>
        <time>2012-04-05T17:00:22Z</time>
      </trkpt>
      <trkpt lat="43.41855" lon="2.15444">
        <ele>653</ele>
        <time>2012-04-05T17:00:24Z</time>
      </trkpt>
      <trkpt lat="43.41853" lon="2.15439">
        <ele>653</ele>
        <time>2012-04-05T17:00:26Z</time>
      </trkpt>
      <trkpt lat="43.41855" lon="2.15434">
        <ele>653</ele>
        <time>2012-04-05T17:00:28Z</time>
      </trkpt>
      <trkpt lat="43.41858" lon="2.15428">
        <ele>652</ele>
        <time>2012-04-05T17:00:30Z</time>
      </trkpt>
      <trkpt lat="43.41861" lon="2.15422">
        <ele>652</ele>
        <time>2012-04-05T17:00:32Z</time>
      </trkpt>
      <trkpt lat="43.41864" lon="2.15414">
        <ele>651</ele>
        <time>2012-04-05T17:00:34Z</time>
      </trkpt>
      <trkpt lat="43.41868" lon="2.15405">
        <ele>651</ele>
        <time>2012-04-05T17:00:36Z</time>
      </trkpt>
      <trkpt lat="43.4187" lon="2.15396">
        <ele>650</ele>
        <time>2012-04-05T17:00:38Z</time>
      </trkpt>
      <trkpt lat="43.41872" lon="2.15391">
        <ele>649</ele>
        <time>2012-04-05T17:00:40Z</time>
      </trkpt>
      <trkpt lat="43.41875" lon="2.15384">
        <ele>649</ele>
        <time>2012-04-05T17:00:42Z</time>
      </trkpt>
      <trkpt lat="43.41878" lon="2.15378">
        <ele>649</ele>
        <time>2012-04-05T17:00:44Z</time>
      </trkpt>
      <trkpt lat="43.4188" lon="2.15372">
        <ele>649</ele>
        <time>2012-04-05T17:00:46Z</time>
      </trkpt>
      <trkpt lat="43.41883" lon="2.15365">
        <ele>649</ele>
        <time>2012-04-05T17:00:48Z</time>
      </trkpt>
      <trkpt lat="43.41886" lon="2.15359">
        <ele>649</ele>
        <time>2012-04-05T17:00:50Z</time>
      </trkpt>
      <trkpt lat="43.4189" lon="2.15351">
        <ele>649</ele>
        <time>2012-04-05T17:00:52Z</time>
      </trkpt>
      <trkpt lat="43.41893" lon="2.15343">
        <ele>649</ele>
        <time>2012-04-05T17:00:54Z</time>
      </trkpt>
      <trkpt lat="43.41897" lon="2.15334">
        <ele>649</ele>
        <time>2012-04-05T17:00:56Z</time>
      </trkpt>
      <trkpt lat="43.41902" lon="2.15323">
        <ele>649</ele>
        <time>2012-04-05T17:00:58Z</time>
      </trkpt>
      <trkpt lat="43.41906" lon="2.15314">
        <ele>649</ele>
        <time>2012-04-05T17:01:00Z</time>
      </trkpt>
      <trkpt lat="43.41911" lon="2.15301">
        <ele>649</ele>
        <time>2012-04-05T17:01:02Z</time>
      </trkpt>
      <trkpt lat="43.41916" lon="2.15289">
        <ele>649</ele>
        <time>2012-04-05T17:01:04Z</time>
      </trkpt>
      <trkpt lat="43.41921" lon="2.15279">
        <ele>649</ele>
        <time>2012-04-05T17:01:06Z</time>
      </trkpt>
      <trkpt lat="43.41926" lon="2.15268">
        <ele>649</ele>
        <time>2012-04-05T17:01:08Z</time>
      </trkpt>
      <trkpt lat="43.41929" lon="2.15257">
        <ele>649</ele>
        <time>2012-04-05T17:01:10Z</time>
      </trkpt>
      <trkpt lat="43.41933" lon="2.15246">
        <ele>649</ele>
        <time>2012-04-05T17:01:12Z</time>
      </trkpt>
      <trkpt lat="43.41935" lon="2.15236">
        <ele>649</ele>
        <time>2012-04-05T17:01:14Z</time>
      </trkpt>
      <trkpt lat="43.41938" lon="2.15228">
        <ele>649</ele>
        <time>2012-04-05T17:01:16Z</time>
      </trkpt>
      <trkpt lat="43.41939" lon="2.15221">
        <ele>648</ele>
        <time>2012-04-05T17:01:18Z</time>
      </trkpt>
      <trkpt lat="43.41939" lon="2.15211">
        <ele>646</ele>
        <time>2012-04-05T17:01:20Z</time>
      </trkpt>
      <trkpt lat="43.41941" lon="2.15198">
        <ele>644</ele>
        <time>2012-04-05T17:01:22Z</time>
      </trkpt>
      <trkpt lat="43.41941" lon="2.15187">
        <ele>642</ele>
        <time>2012-04-05T17:01:24Z</time>
      </trkpt>
      <trkpt lat="43.4194" lon="2.15179">
        <ele>641</ele>
        <time>2012-04-05T17:01:26Z</time>
      </trkpt>
      <trkpt lat="43.41942" lon="2.15173">
        <ele>641</ele>
        <time>2012-04-05T17:01:28Z</time>
      </trkpt>
      <trkpt lat="43.41944" lon="2.15167">
        <ele>639</ele>
        <time>2012-04-05T17:01:30Z</time>
      </trkpt>
      <trkpt lat="43.41944" lon="2.1516">
        <ele>637</ele>
        <time>2012-04-05T17:01:32Z</time>
      </trkpt>
      <trkpt lat="43.41945" lon="2.15149">
        <ele>635</ele>
        <time>2012-04-05T17:01:34Z</time>
      </trkpt>
      <trkpt lat="43.41946" lon="2.15142">
        <ele>633</ele>
        <time>2012-04-05T17:01:36Z</time>
      </trkpt>
      <trkpt lat="43.41949" lon="2.15135">
        <ele>633</ele>
        <time>2012-04-05T17:01:38Z</time>
      </trkpt>
      <trkpt lat="43.41953" lon="2.15126">
        <ele>633</ele>
        <time>2012-04-05T17:01:40Z</time>
      </trkpt>
      <trkpt lat="43.41956" lon="2.15118">
        <ele>633</ele>
        <time>2012-04-05T17:01:42Z</time>
      </trkpt>
      <trkpt lat="43.41962" lon="2.15112">
        <ele>633</ele>
        <time>2012-04-05T17:01:44Z</time>
      </trkpt>
      <trkpt lat="43.41965" lon="2.15104">
        <ele>633</ele>
        <time>2012-04-05T17:01:46Z</time>
      </trkpt>
      <trkpt lat="43.41968" lon="2.15097">
        <ele>633</ele>
        <time>2012-04-05T17:01:48Z</time>
      </trkpt>
      <trkpt lat="43.41971" lon="2.1509">
        <ele>633</ele>
        <time>2012-04-05T17:01:50Z</time>
      </trkpt>
      <trkpt lat="43.41973" lon="2.15086">
        <ele>633</ele>
        <time>2012-04-05T17:01:52Z</time>
      </trkpt>
      <trkpt lat="43.41974" lon="2.15085">
        <ele>633</ele>
        <time>2012-04-05T17:01:54Z</time>
      </trkpt>
      <trkpt lat="43.41976" lon="2.15086">
        <ele>633</ele>
        <time>2012-04-05T17:01:58Z</time>
      </trkpt>
      <trkpt lat="43.41977" lon="2.15087">
        <ele>633</ele>
        <time>2012-04-05T17:02:02Z</time>
      </trkpt>
      <trkpt lat="43.41979" lon="2.15088">
        <ele>633</ele>
        <time>2012-04-05T17:02:06Z</time>
      </trkpt>
      <trkpt lat="43.41981" lon="2.15087">
        <ele>633</ele>
        <time>2012-04-05T17:02:08Z</time>
      </trkpt>
      <trkpt lat="43.41983" lon="2.15087">
        <ele>633</ele>
        <time>2012-04-05T17:02:10Z</time>
      </trkpt>
      <trkpt lat="43.41987" lon="2.15086">
        <ele>633</ele>
        <time>2012-04-05T17:02:12Z</time>
      </trkpt>
      <trkpt lat="43.41992" lon="2.15084">
        <ele>633</ele>
        <time>2012-04-05T17:02:14Z</time>
      </trkpt>
      <trkpt lat="43.41997" lon="2.15083">
        <ele>634</ele>
        <time>2012-04-05T17:02:16Z</time>
      </trkpt>
      <trkpt lat="43.42004" lon="2.1508">
        <ele>635</ele>
        <time>2012-04-05T17:02:18Z</time>
      </trkpt>
      <trkpt lat="43.42008" lon="2.15079">
        <ele>635</ele>
        <time>2012-04-05T17:02:20Z</time>
      </trkpt>
      <trkpt lat="43.42013" lon="2.15081">
        <ele>635</ele>
        <time>2012-04-05T17:02:22Z</time>
      </trkpt>
      <trkpt lat="43.42017" lon="2.15083">
        <ele>635</ele>
        <time>2012-04-05T17:02:24Z</time>
      </trkpt>
      <trkpt lat="43.4202" lon="2.15084">
        <ele>635</ele>
        <time>2012-04-05T17:02:26Z</time>
      </trkpt>
      <trkpt lat="43.42025" lon="2.15085">
        <ele>635</ele>
        <time>2012-04-05T17:02:28Z</time>
      </trkpt>
      <trkpt lat="43.42029" lon="2.15084">
        <ele>635</ele>
        <time>2012-04-05T17:02:30Z</time>
      </trkpt>
      <trkpt lat="43.42032" lon="2.15081">
        <ele>635</ele>
        <time>2012-04-05T17:02:32Z</time>
      </trkpt>
      <trkpt lat="43.42033" lon="2.15079">
        <ele>635</ele>
        <time>2012-04-05T17:02:34Z</time>
      </trkpt>
      <trkpt lat="43.42032" lon="2.15077">
        <ele>635</ele>
        <time>2012-04-05T17:02:36Z</time>
      </trkpt>
      <trkpt lat="43.4203" lon="2.15077">
        <ele>635</ele>
        <time>2012-04-05T17:02:38Z</time>
      </trkpt>
      <trkpt lat="43.42029" lon="2.15079">
        <ele>635</ele>
        <time>2012-04-05T17:02:40Z</time>
      </trkpt>
      <trkpt lat="43.42029" lon="2.15081">
        <ele>635</ele>
        <time>2012-04-05T17:02:42Z</time>
      </trkpt>
      <trkpt lat="43.42029" lon="2.15082">
        <ele>635</ele>
        <time>2012-04-05T17:02:44Z</time>
      </trkpt>
      <trkpt lat="43.42027" lon="2.15085">
        <ele>635</ele>
        <time>2012-04-05T17:02:46Z</time>
      </trkpt>
      <trkpt lat="43.42023" lon="2.15083">
        <ele>635</ele>
        <time>2012-04-05T17:02:48Z</time>
      </trkpt>
      <trkpt lat="43.42021" lon="2.15076">
        <ele>634</ele>
        <time>2012-04-05T17:02:50Z</time>
      </trkpt>
      <trkpt lat="43.4202" lon="2.15067">
        <ele>634</ele>
        <time>2012-04-05T17:02:52Z</time>
      </trkpt>
      <trkpt lat="43.42019" lon="2.15057">
        <ele>634</ele>
        <time>2012-04-05T17:02:54Z</time>
      </trkpt>
      <trkpt lat="43.42016" lon="2.15046">
        <ele>634</ele>
        <time>2012-04-05T17:02:56Z</time>
      </trkpt>
      <trkpt lat="43.4201" lon="2.15036">
        <ele>634</ele>
        <time>2012-04-05T17:02:58Z</time>
      </trkpt>
      <trkpt lat="43.42004" lon="2.15028">
        <ele>634</ele>
        <time>2012-04-05T17:03:00Z</time>
      </trkpt>
      <trkpt lat="43.41998" lon="2.1502">
        <ele>634</ele>
        <time>2012-04-05T17:03:02Z</time>
      </trkpt>
      <trkpt lat="43.41991" lon="2.15013">
        <ele>634</ele>
        <time>2012-04-05T17:03:04Z</time>
      </trkpt>
      <trkpt lat="43.41986" lon="2.15006">
        <ele>634</ele>
        <time>2012-04-05T17:03:06Z</time>
      </trkpt>
      <trkpt lat="43.4198" lon="2.14998">
        <ele>634</ele>
        <time>2012-04-05T17:03:08Z</time>
      </trkpt>
      <trkpt lat="43.41973" lon="2.14991">
        <ele>634</ele>
        <time>2012-04-05T17:03:10Z</time>
      </trkpt>
      <trkpt lat="43.41966" lon="2.14985">
        <ele>634</ele>
        <time>2012-04-05T17:03:12Z</time>
      </trkpt>
      <trkpt lat="43.41959" lon="2.14979">
        <ele>634</ele>
        <time>2012-04-05T17:03:14Z</time>
      </trkpt>
      <trkpt lat="43.41953" lon="2.14974">
        <ele>634</ele>
        <time>2012-04-05T17:03:16Z</time>
      </trkpt>
      <trkpt lat="43.41946" lon="2.1497">
        <ele>634</ele>
        <time>2012-04-05T17:03:18Z</time>
      </trkpt>
      <trkpt lat="43.41939" lon="2.14966">
        <ele>634</ele>
        <time>2012-04-05T17:03:20Z</time>
      </trkpt>
      <trkpt lat="43.41933" lon="2.14962">
        <ele>634</ele>
        <time>2012-04-05T17:03:22Z</time>
      </trkpt>
      <trkpt lat="43.41927" lon="2.14958">
        <ele>634</ele>
        <time>2012-04-05T17:03:24Z</time>
      </trkpt>
      <trkpt lat="43.41921" lon="2.14953">
        <ele>634</ele>
        <time>2012-04-05T17:03:26Z</time>
      </trkpt>
      <trkpt lat="43.41915" lon="2.14949">
        <ele>634</ele>
        <time>2012-04-05T17:03:28Z</time>
      </trkpt>
      <trkpt lat="43.4191" lon="2.14945">
        <ele>634</ele>
        <time>2012-04-05T17:03:30Z</time>
      </trkpt>
      <trkpt lat="43.41905" lon="2.14939">
        <ele>634</ele>
        <time>2012-04-05T17:03:32Z</time>
      </trkpt>
      <trkpt lat="43.419" lon="2.14934">
        <ele>634</ele>
        <time>2012-04-05T17:03:34Z</time>
      </trkpt>
      <trkpt lat="43.41895" lon="2.14928">
        <ele>635</ele>
        <time>2012-04-05T17:03:36Z</time>
      </trkpt>
      <trkpt lat="43.4189" lon="2.14922">
        <ele>636</ele>
        <time>2012-04-05T17:03:38Z</time>
      </trkpt>
      <trkpt lat="43.41886" lon="2.14916">
        <ele>637</ele>
        <time>2012-04-05T17:03:40Z</time>
      </trkpt>
      <trkpt lat="43.41881" lon="2.1491">
        <ele>637</ele>
        <time>2012-04-05T17:03:42Z</time>
      </trkpt>
      <trkpt lat="43.41877" lon="2.14904">
        <ele>638</ele>
        <time>2012-04-05T17:03:44Z</time>
      </trkpt>
      <trkpt lat="43.41872" lon="2.14898">
        <ele>639</ele>
        <time>2012-04-05T17:03:46Z</time>
      </trkpt>
      <trkpt lat="43.41868" lon="2.14893">
        <ele>639</ele>
        <time>2012-04-05T17:03:48Z</time>
      </trkpt>
      <trkpt lat="43.41863" lon="2.14887">
        <ele>639</ele>
        <time>2012-04-05T17:03:50Z</time>
      </trkpt>
      <trkpt lat="43.41858" lon="2.14882">
        <ele>640</ele>
        <time>2012-04-05T17:03:52Z</time>
      </trkpt>
      <trkpt lat="43.41854" lon="2.14876">
        <ele>640</ele>
        <time>2012-04-05T17:03:54Z</time>
      </trkpt>
      <trkpt lat="43.41848" lon="2.1487">
        <ele>641</ele>
        <time>2012-04-05T17:03:56Z</time>
      </trkpt>
      <trkpt lat="43.41843" lon="2.14864">
        <ele>641</ele>
        <time>2012-04-05T17:03:58Z</time>
      </trkpt>
      <trkpt lat="43.41837" lon="2.14857">
        <ele>641</ele>
        <time>2012-04-05T17:04:00Z</time>
      </trkpt>
      <trkpt lat="43.41832" lon="2.1485">
        <ele>642</ele>
        <time>2012-04-05T17:04:02Z</time>
      </trkpt>
      <trkpt lat="43.41826" lon="2.14844">
        <ele>642</ele>
        <time>2012-04-05T17:04:04Z</time>
      </trkpt>
      <trkpt lat="43.4182" lon="2.14837">
        <ele>642</ele>
        <time>2012-04-05T17:04:06Z</time>
      </trkpt>
      <trkpt lat="43.41814" lon="2.1483">
        <ele>642</ele>
        <time>2012-04-05T17:04:08Z</time>
      </trkpt>
      <trkpt lat="43.41806" lon="2.14822">
        <ele>642</ele>
        <time>2012-04-05T17:04:10Z</time>
      </trkpt>
      <trkpt lat="43.41799" lon="2.14815">
        <ele>642</ele>
        <time>2012-04-05T17:04:12Z</time>
      </trkpt>
      <trkpt lat="43.41793" lon="2.14806">
        <ele>642</ele>
        <time>2012-04-05T17:04:14Z</time>
      </trkpt>
      <trkpt lat="43.41787" lon="2.14797">
        <ele>642</ele>
        <time>2012-04-05T17:04:16Z</time>
      </trkpt>
      <trkpt lat="43.4178" lon="2.1479">
        <ele>642</ele>
        <time>2012-04-05T17:04:18Z</time>
      </trkpt>
      <trkpt lat="43.41772" lon="2.14784">
        <ele>642</ele>
        <time>2012-04-05T17:04:20Z</time>
      </trkpt>
      <trkpt lat="43.41765" lon="2.14776">
        <ele>642</ele>
        <time>2012-04-05T17:04:22Z</time>
      </trkpt>
      <trkpt lat="43.41758" lon="2.14769">
        <ele>642</ele>
        <time>2012-04-05T17:04:24Z</time>
      </trkpt>
      <trkpt lat="43.4175" lon="2.14764">
        <ele>642</ele>
        <time>2012-04-05T17:04:26Z</time>
      </trkpt>
      <trkpt lat="43.41741" lon="2.14761">
        <ele>642</ele>
        <time>2012-04-05T17:04:28Z</time>
      </trkpt>
      <trkpt lat="43.41732" lon="2.1476">
        <ele>642</ele>
        <time>2012-04-05T17:04:30Z</time>
      </trkpt>
      <trkpt lat="43.41723" lon="2.14759">
        <ele>642</ele>
        <time>2012-04-05T17:04:32Z</time>
      </trkpt>
      <trkpt lat="43.41714" lon="2.14757">
        <ele>642</ele>
        <time>2012-04-05T17:04:34Z</time>
      </trkpt>
      <trkpt lat="43.41706" lon="2.14756">
        <ele>643</ele>
        <time>2012-04-05T17:04:36Z</time>
      </trkpt>
      <trkpt lat="43.41697" lon="2.14754">
        <ele>643</ele>
        <time>2012-04-05T17:04:38Z</time>
      </trkpt>
      <trkpt lat="43.41688" lon="2.14752">
        <ele>643</ele>
        <time>2012-04-05T17:04:40Z</time>
      </trkpt>
      <trkpt lat="43.4168" lon="2.14749">
        <ele>643</ele>
        <time>2012-04-05T17:04:42Z</time>
      </trkpt>
      <trkpt lat="43.41672" lon="2.14745">
        <ele>644</ele>
        <time>2012-04-05T17:04:44Z</time>
      </trkpt>
      <trkpt lat="43.41664" lon="2.14741">
        <ele>644</ele>
        <time>2012-04-05T17:04:46Z</time>
      </trkpt>
      <trkpt lat="43.41656" lon="2.14736">
        <ele>644</ele>
        <time>2012-04-05T17:04:48Z</time>
      </trkpt>
      <trkpt lat="43.41648" lon="2.14731">
        <ele>645</ele>
        <time>2012-04-05T17:04:50Z</time>
      </trkpt>
      <trkpt lat="43.41641" lon="2.14725">
        <ele>645</ele>
        <time>2012-04-05T17:04:52Z</time>
      </trkpt>
      <trkpt lat="43.41633" lon="2.1472">
        <ele>645</ele>
        <time>2012-04-05T17:04:54Z</time>
      </trkpt>
      <trkpt lat="43.41626" lon="2.14714">
        <ele>645</ele>
        <time>2012-04-05T17:04:56Z</time>
      </trkpt>
      <trkpt lat="43.41618" lon="2.14707">
        <ele>645</ele>
        <time>2012-04-05T17:04:58Z</time>
      </trkpt>
      <trkpt lat="43.4161" lon="2.14701">
        <ele>645</ele>
        <time>2012-04-05T17:05:00Z</time>
      </trkpt>
      <trkpt lat="43.41602" lon="2.14693">
        <ele>645</ele>
        <time>2012-04-05T17:05:02Z</time>
      </trkpt>
      <trkpt lat="43.41593" lon="2.14685">
        <ele>645</ele>
        <time>2012-04-05T17:05:04Z</time>
      </trkpt>
      <trkpt lat="43.41584" lon="2.14678">
        <ele>645</ele>
        <time>2012-04-05T17:05:06Z</time>
      </trkpt>
      <trkpt lat="43.41573" lon="2.14672">
        <ele>645</ele>
        <time>2012-04-05T17:05:08Z</time>
      </trkpt>
      <trkpt lat="43.41563" lon="2.14664">
        <ele>645</ele>
        <time>2012-04-05T17:05:10Z</time>
      </trkpt>
      <trkpt lat="43.41552" lon="2.14656">
        <ele>645</ele>
        <time>2012-04-05T17:05:12Z</time>
      </trkpt>
      <trkpt lat="43.41541" lon="2.14648">
        <ele>645</ele>
        <time>2012-04-05T17:05:14Z</time>
      </trkpt>
      <trkpt lat="43.41529" lon="2.14639">
        <ele>645</ele>
        <time>2012-04-05T17:05:16Z</time>
      </trkpt>
      <trkpt lat="43.41519" lon="2.1463">
        <ele>645</ele>
        <time>2012-04-05T17:05:18Z</time>
      </trkpt>
      <trkpt lat="43.41508" lon="2.14619">
        <ele>645</ele>
        <time>2012-04-05T17:05:20Z</time>
      </trkpt>
      <trkpt lat="43.415" lon="2.14605">
        <ele>645</ele>
        <time>2012-04-05T17:05:22Z</time>
      </trkpt>
      <trkpt lat="43.41495" lon="2.14589">
        <ele>645</ele>
        <time>2012-04-05T17:05:24Z</time>
      </trkpt>
      <trkpt lat="43.41492" lon="2.14572">
        <ele>645</ele>
        <time>2012-04-05T17:05:26Z</time>
      </trkpt>
      <trkpt lat="43.41489" lon="2.14555">
        <ele>645</ele>
        <time>2012-04-05T17:05:28Z</time>
      </trkpt>
      <trkpt lat="43.41486" lon="2.14538">
        <ele>645</ele>
        <time>2012-04-05T17:05:30Z</time>
      </trkpt>
      <trkpt lat="43.41483" lon="2.14521">
        <ele>645</ele>
        <time>2012-04-05T17:05:32Z</time>
      </trkpt>
      <trkpt lat="43.41478" lon="2.14505">
        <ele>645</ele>
        <time>2012-04-05T17:05:34Z</time>
      </trkpt>
      <trkpt lat="43.41472" lon="2.1449">
        <ele>645</ele>
        <time>2012-04-05T17:05:36Z</time>
      </trkpt>
      <trkpt lat="43.41463" lon="2.14476">
        <ele>645</ele>
        <time>2012-04-05T17:05:38Z</time>
      </trkpt>
      <trkpt lat="43.41455" lon="2.14463">
        <ele>645</ele>
        <time>2012-04-05T17:05:40Z</time>
      </trkpt>
      <trkpt lat="43.41446" lon="2.1445">
        <ele>645</ele>
        <time>2012-04-05T17:05:42Z</time>
      </trkpt>
      <trkpt lat="43.41438" lon="2.14435">
        <ele>644</ele>
        <time>2012-04-05T17:05:44Z</time>
      </trkpt>
      <trkpt lat="43.41432" lon="2.14418">
        <ele>644</ele>
        <time>2012-04-05T17:05:46Z</time>
      </trkpt>
      <trkpt lat="43.41426" lon="2.14401">
        <ele>643</ele>
        <time>2012-04-05T17:05:48Z</time>
      </trkpt>
      <trkpt lat="43.41421" lon="2.14382">
        <ele>642</ele>
        <time>2012-04-05T17:05:50Z</time>
      </trkpt>
      <trkpt lat="43.41416" lon="2.14362">
        <ele>641</ele>
        <time>2012-04-05T17:05:52Z</time>
      </trkpt>
      <trkpt lat="43.4141" lon="2.14341">
        <ele>640</ele>
        <time>2012-04-05T17:05:54Z</time>
      </trkpt>
      <trkpt lat="43.41405" lon="2.14319">
        <ele>639</ele>
        <time>2012-04-05T17:05:56Z</time>
      </trkpt>
      <trkpt lat="43.41401" lon="2.14296">
        <ele>638</ele>
        <time>2012-04-05T17:05:58Z</time>
      </trkpt>
      <trkpt lat="43.41399" lon="2.14272">
        <ele>637</ele>
        <time>2012-04-05T17:06:00Z</time>
      </trkpt>
      <trkpt lat="43.41397" lon="2.14248">
        <ele>636</ele>
        <time>2012-04-05T17:06:02Z</time>
      </trkpt>
      <trkpt lat="43.41393" lon="2.14224">
        <ele>635</ele>
        <time>2012-04-05T17:06:04Z</time>
      </trkpt>
      <trkpt lat="43.41389" lon="2.14199">
        <ele>633</ele>
        <time>2012-04-05T17:06:06Z</time>
      </trkpt>
      <trkpt lat="43.41386" lon="2.14175">
        <ele>631</ele>
        <time>2012-04-05T17:06:08Z</time>
      </trkpt>
      <trkpt lat="43.41381" lon="2.1415">
        <ele>629</ele>
        <time>2012-04-05T17:06:10Z</time>
      </trkpt>
      <trkpt lat="43.41375" lon="2.14127">
        <ele>629</ele>
        <time>2012-04-05T17:06:12Z</time>
      </trkpt>
      <trkpt lat="43.41367" lon="2.14105">
        <ele>628</ele>
        <time>2012-04-05T17:06:14Z</time>
      </trkpt>
      <trkpt lat="43.4136" lon="2.14084">
        <ele>627</ele>
        <time>2012-04-05T17:06:16Z</time>
      </trkpt>
      <trkpt lat="43.41352" lon="2.14064">
        <ele>626</ele>
        <time>2012-04-05T17:06:18Z</time>
      </trkpt>
      <trkpt lat="43.41344" lon="2.14045">
        <ele>625</ele>
        <time>2012-04-05T17:06:20Z</time>
      </trkpt>
      <trkpt lat="43.41336" lon="2.14027">
        <ele>624</ele>
        <time>2012-04-05T17:06:22Z</time>
      </trkpt>
      <trkpt lat="43.41328" lon="2.14009">
        <ele>623</ele>
        <time>2012-04-05T17:06:24Z</time>
      </trkpt>
      <trkpt lat="43.41321" lon="2.13992">
        <ele>623</ele>
        <time>2012-04-05T17:06:26Z</time>
      </trkpt>
      <trkpt lat="43.41313" lon="2.13976">
        <ele>622</ele>
        <time>2012-04-05T17:06:28Z</time>
      </trkpt>
      <trkpt lat="43.41304" lon="2.13961">
        <ele>622</ele>
        <time>2012-04-05T17:06:30Z</time>
      </trkpt>
      <trkpt lat="43.41293" lon="2.13949">
        <ele>622</ele>
        <time>2012-04-05T17:06:32Z</time>
      </trkpt>
      <trkpt lat="43.41283" lon="2.13938">
        <ele>622</ele>
        <time>2012-04-05T17:06:34Z</time>
      </trkpt>
      <trkpt lat="43.41273" lon="2.13929">
        <ele>622</ele>
        <time>2012-04-05T17:06:36Z</time>
      </trkpt>
      <trkpt lat="43.41264" lon="2.13919">
        <ele>622</ele>
        <time>2012-04-05T17:06:38Z</time>
      </trkpt>
      <trkpt lat="43.41254" lon="2.13909">
        <ele>622</ele>
        <time>2012-04-05T17:06:40Z</time>
      </trkpt>
      <trkpt lat="43.41245" lon="2.139">
        <ele>622</ele>
        <time>2012-04-05T17:06:42Z</time>
      </trkpt>
      <trkpt lat="43.41236" lon="2.13891">
        <ele>622</ele>
        <time>2012-04-05T17:06:44Z</time>
      </trkpt>
      <trkpt lat="43.41228" lon="2.13881">
        <ele>622</ele>
        <time>2012-04-05T17:06:46Z</time>
      </trkpt>
      <trkpt lat="43.41219" lon="2.13872">
        <ele>622</ele>
        <time>2012-04-05T17:06:48Z</time>
      </trkpt>
      <trkpt lat="43.4121" lon="2.13863">
        <ele>622</ele>
        <time>2012-04-05T17:06:50Z</time>
      </trkpt>
      <trkpt lat="43.41201" lon="2.13855">
        <ele>622</ele>
        <time>2012-04-05T17:06:52Z</time>
      </trkpt>
      <trkpt lat="43.41193" lon="2.13847">
        <ele>622</ele>
        <time>2012-04-05T17:06:54Z</time>
      </trkpt>
      <trkpt lat="43.41186" lon="2.13839">
        <ele>622</ele>
        <time>2012-04-05T17:06:56Z</time>
      </trkpt>
      <trkpt lat="43.41178" lon="2.13832">
        <ele>622</ele>
        <time>2012-04-05T17:06:58Z</time>
      </trkpt>
      <trkpt lat="43.4117" lon="2.13825">
        <ele>622</ele>
        <time>2012-04-05T17:07:00Z</time>
      </trkpt>
      <trkpt lat="43.41162" lon="2.13819">
        <ele>622</ele>
        <time>2012-04-05T17:07:02Z</time>
      </trkpt>
      <trkpt lat="43.41155" lon="2.13814">
        <ele>622</ele>
        <time>2012-04-05T17:07:04Z</time>
      </trkpt>
      <trkpt lat="43.41147" lon="2.13808">
        <ele>622</ele>
        <time>2012-04-05T17:07:06Z</time>
      </trkpt>
      <trkpt lat="43.4114" lon="2.13803">
        <ele>622</ele>
        <time>2012-04-05T17:07:08Z</time>
      </trkpt>
      <trkpt lat="43.41132" lon="2.13797">
        <ele>622</ele>
        <time>2012-04-05T17:07:10Z</time>
      </trkpt>
      <trkpt lat="43.41124" lon="2.13792">
        <ele>622</ele>
        <time>2012-04-05T17:07:12Z</time>
      </trkpt>
      <trkpt lat="43.41117" lon="2.13785">
        <ele>623</ele>
        <time>2012-04-05T17:07:14Z</time>
      </trkpt>
      <trkpt lat="43.41111" lon="2.13779">
        <ele>623</ele>
        <time>2012-04-05T17:07:16Z</time>
      </trkpt>
      <trkpt lat="43.41104" lon="2.13773">
        <ele>624</ele>
        <time>2012-04-05T17:07:18Z</time>
      </trkpt>
      <trkpt lat="43.41098" lon="2.13767">
        <ele>625</ele>
        <time>2012-04-05T17:07:20Z</time>
      </trkpt>
      <trkpt lat="43.41093" lon="2.13761">
        <ele>625</ele>
        <time>2012-04-05T17:07:22Z</time>
      </trkpt>
      <trkpt lat="43.41087" lon="2.13755">
        <ele>626</ele>
        <time>2012-04-05T17:07:24Z</time>
      </trkpt>
      <trkpt lat="43.4108" lon="2.1375">
        <ele>627</ele>
        <time>2012-04-05T17:07:26Z</time>
      </trkpt>
      <trkpt lat="43.41074" lon="2.13745">
        <ele>627</ele>
        <time>2012-04-05T17:07:28Z</time>
      </trkpt>
      <trkpt lat="43.41067" lon="2.13741">
        <ele>628</ele>
        <time>2012-04-05T17:07:30Z</time>
      </trkpt>
      <trkpt lat="43.41061" lon="2.13736">
        <ele>628</ele>
        <time>2012-04-05T17:07:32Z</time>
      </trkpt>
      <trkpt lat="43.41054" lon="2.13731">
        <ele>628</ele>
        <time>2012-04-05T17:07:34Z</time>
      </trkpt>
      <trkpt lat="43.41048" lon="2.13726">
        <ele>628</ele>
        <time>2012-04-05T17:07:36Z</time>
      </trkpt>
      <trkpt lat="43.41041" lon="2.13721">
        <ele>628</ele>
        <time>2012-04-05T17:07:38Z</time>
      </trkpt>
      <trkpt lat="43.41035" lon="2.13716">
        <ele>628</ele>
        <time>2012-04-05T17:07:40Z</time>
      </trkpt>
      <trkpt lat="43.41028" lon="2.1371">
        <ele>629</ele>
        <time>2012-04-05T17:07:42Z</time>
      </trkpt>
      <trkpt lat="43.41021" lon="2.13705">
        <ele>629</ele>
        <time>2012-04-05T17:07:44Z</time>
      </trkpt>
      <trkpt lat="43.41014" lon="2.13698">
        <ele>629</ele>
        <time>2012-04-05T17:07:46Z</time>
      </trkpt>
      <trkpt lat="43.41007" lon="2.1369">
        <ele>629</ele>
        <time>2012-04-05T17:07:48Z</time>
      </trkpt>
      <trkpt lat="43.40999" lon="2.13682">
        <ele>629</ele>
        <time>2012-04-05T17:07:50Z</time>
      </trkpt>
      <trkpt lat="43.4099" lon="2.13674">
        <ele>629</ele>
        <time>2012-04-05T17:07:52Z</time>
      </trkpt>
      <trkpt lat="43.4098" lon="2.13666">
        <ele>629</ele>
        <time>2012-04-05T17:07:54Z</time>
      </trkpt>
      <trkpt lat="43.40969" lon="2.13659">
        <ele>629</ele>
        <time>2012-04-05T17:07:56Z</time>
      </trkpt>
      <trkpt lat="43.40957" lon="2.13654">
        <ele>629</ele>
        <time>2012-04-05T17:07:58Z</time>
      </trkpt>
      <trkpt lat="43.40945" lon="2.13651">
        <ele>629</ele>
        <time>2012-04-05T17:08:00Z</time>
      </trkpt>
      <trkpt lat="43.40934" lon="2.1365">
        <ele>629</ele>
        <time>2012-04-05T17:08:02Z</time>
      </trkpt>
      <trkpt lat="43.40921" lon="2.13648">
        <ele>629</ele>
        <time>2012-04-05T17:08:04Z</time>
      </trkpt>
      <trkpt lat="43.4091" lon="2.13647">
        <ele>629</ele>
        <time>2012-04-05T17:08:06Z</time>
      </trkpt>
      <trkpt lat="43.40899" lon="2.13644">
        <ele>629</ele>
        <time>2012-04-05T17:08:08Z</time>
      </trkpt>
      <trkpt lat="43.40888" lon="2.13641">
        <ele>629</ele>
        <time>2012-04-05T17:08:10Z</time>
      </trkpt>
      <trkpt lat="43.40878" lon="2.13641">
        <ele>629</ele>
        <time>2012-04-05T17:08:12Z</time>
      </trkpt>
      <trkpt lat="43.40868" lon="2.13643">
        <ele>629</ele>
        <time>2012-04-05T17:08:14Z</time>
      </trkpt>
      <trkpt lat="43.40857" lon="2.13645">
        <ele>629</ele>
        <time>2012-04-05T17:08:16Z</time>
      </trkpt>
      <trkpt lat="43.40847" lon="2.13646">
        <ele>629</ele>
        <time>2012-04-05T17:08:18Z</time>
      </trkpt>
      <trkpt lat="43.40837" lon="2.13647">
        <ele>629</ele>
        <time>2012-04-05T17:08:20Z</time>
      </trkpt>
      <trkpt lat="43.40827" lon="2.13648">
        <ele>629</ele>
        <time>2012-04-05T17:08:22Z</time>
      </trkpt>
      <trkpt lat="43.40816" lon="2.13648">
        <ele>629</ele>
        <time>2012-04-05T17:08:24Z</time>
      </trkpt>
      <trkpt lat="43.40805" lon="2.13649">
        <ele>629</ele>
        <time>2012-04-05T17:08:26Z</time>
      </trkpt>
      <trkpt lat="43.40794" lon="2.13651">
        <ele>629</ele>
        <time>2012-04-05T17:08:28Z</time>
      </trkpt>
      <trkpt lat="43.40785" lon="2.13652">
        <ele>629</ele>
        <time>2012-04-05T17:08:30Z</time>
      </trkpt>
      <trkpt lat="43.40775" lon="2.13654">
        <ele>629</ele>
        <time>2012-04-05T17:08:32Z</time>
      </trkpt>
      <trkpt lat="43.40765" lon="2.13656">
        <ele>629</ele>
        <time>2012-04-05T17:08:34Z</time>
      </trkpt>
      <trkpt lat="43.40755" lon="2.13659">
        <ele>629</ele>
        <time>2012-04-05T17:08:36Z</time>
      </trkpt>
      <trkpt lat="43.40747" lon="2.13661">
        <ele>629</ele>
        <time>2012-04-05T17:08:38Z</time>
      </trkpt>
      <trkpt lat="43.40741" lon="2.13661">
        <ele>629</ele>
        <time>2012-04-05T17:08:40Z</time>
      </trkpt>
      <trkpt lat="43.40734" lon="2.13661">
        <ele>629</ele>
        <time>2012-04-05T17:08:42Z</time>
      </trkpt>
      <trkpt lat="43.40728" lon="2.13662">
        <ele>629</ele>
        <time>2012-04-05T17:08:44Z</time>
      </trkpt>
      <trkpt lat="43.40725" lon="2.13662">
        <ele>629</ele>
        <time>2012-04-05T17:08:46Z</time>
      </trkpt>
      <trkpt lat="43.4072" lon="2.13667">
        <ele>629</ele>
        <time>2012-04-05T17:08:48Z</time>
      </trkpt>
      <trkpt lat="43.40717" lon="2.13675">
        <ele>629</ele>
        <time>2012-04-05T17:08:50Z</time>
      </trkpt>
      <trkpt lat="43.40713" lon="2.13682">
        <ele>629</ele>
        <time>2012-04-05T17:08:52Z</time>
      </trkpt>
      <trkpt lat="43.40709" lon="2.13689">
        <ele>629</ele>
        <time>2012-04-05T17:08:54Z</time>
      </trkpt>
      <trkpt lat="43.40704" lon="2.13697">
        <ele>629</ele>
        <time>2012-04-05T17:08:56Z</time>
      </trkpt>
      <trkpt lat="43.40701" lon="2.13705">
        <ele>629</ele>
        <time>2012-04-05T17:08:58Z</time>
      </trkpt>
      <trkpt lat="43.40697" lon="2.13714">
        <ele>629</ele>
        <time>2012-04-05T17:09:00Z</time>
      </trkpt>
      <trkpt lat="43.40694" lon="2.13725">
        <ele>629</ele>
        <time>2012-04-05T17:09:02Z</time>
      </trkpt>
      <trkpt lat="43.40688" lon="2.13739">
        <ele>629</ele>
        <time>2012-04-05T17:09:04Z</time>
      </trkpt>
      <trkpt lat="43.40682" lon="2.13756">
        <ele>629</ele>
        <time>2012-04-05T17:09:06Z</time>
      </trkpt>
      <trkpt lat="43.40673" lon="2.13769">
        <ele>629</ele>
        <time>2012-04-05T17:09:08Z</time>
      </trkpt>
      <trkpt lat="43.40663" lon="2.1378">
        <ele>629</ele>
        <time>2012-04-05T17:09:10Z</time>
      </trkpt>
      <trkpt lat="43.40654" lon="2.13793">
        <ele>629</ele>
        <time>2012-04-05T17:09:12Z</time>
      </trkpt>
      <trkpt lat="43.40644" lon="2.13806">
        <ele>629</ele>
        <time>2012-04-05T17:09:14Z</time>
      </trkpt>
      <trkpt lat="43.40634" lon="2.13819">
        <ele>627</ele>
        <time>2012-04-05T17:09:16Z</time>
      </trkpt>
      <trkpt lat="43.40623" lon="2.13833">
        <ele>626</ele>
        <time>2012-04-05T17:09:18Z</time>
      </trkpt>
      <trkpt lat="43.40611" lon="2.13846">
        <ele>624</ele>
        <time>2012-04-05T17:09:20Z</time>
      </trkpt>
      <trkpt lat="43.40599" lon="2.13857">
        <ele>622</ele>
        <time>2012-04-05T17:09:22Z</time>
      </trkpt>
      <trkpt lat="43.40584" lon="2.13864">
        <ele>620</ele>
        <time>2012-04-05T17:09:24Z</time>
      </trkpt>
      <trkpt lat="43.40571" lon="2.13864">
        <ele>618</ele>
        <time>2012-04-05T17:09:26Z</time>
      </trkpt>
      <trkpt lat="43.40562" lon="2.1386">
        <ele>616</ele>
        <time>2012-04-05T17:09:28Z</time>
      </trkpt>
      <trkpt lat="43.40559" lon="2.13854">
        <ele>615</ele>
        <time>2012-04-05T17:09:30Z</time>
      </trkpt>
      <trkpt lat="43.40557" lon="2.13851">
        <ele>615</ele>
        <time>2012-04-05T17:09:34Z</time>
      </trkpt>
      <trkpt lat="43.40557" lon="2.13849">
        <ele>615</ele>
        <time>2012-04-05T17:09:36Z</time>
      </trkpt>
      <trkpt lat="43.40557" lon="2.13847">
        <ele>617</ele>
        <time>2012-04-05T17:09:46Z</time>
      </trkpt>
      <trkpt lat="43.40558" lon="2.13846">
        <ele>626</ele>
        <time>2012-04-05T17:09:57Z</time>
      </trkpt>
      <trkpt lat="43.40557" lon="2.13844">
        <ele>628</ele>
        <time>2012-04-05T17:10:01Z</time>
      </trkpt>
      <trkpt lat="43.40556" lon="2.13846">
        <ele>629</ele>
        <time>2012-04-05T17:10:03Z</time>
      </trkpt>
      <trkpt lat="43.40556" lon="2.13848">
        <ele>629</ele>
        <time>2012-04-05T17:10:05Z</time>
      </trkpt>
      <trkpt lat="43.40557" lon="2.13852">
        <ele>629</ele>
        <time>2012-04-05T17:10:07Z</time>
      </trkpt>
      <trkpt lat="43.40557" lon="2.13853">
        <ele>629</ele>
        <time>2012-04-05T17:10:09Z</time>
      </trkpt>
      <trkpt lat="43.40558" lon="2.13852">
        <ele>629</ele>
        <time>2012-04-05T17:10:13Z</time>
      </trkpt>
      <trkpt lat="43.40559" lon="2.13851">
        <ele>629</ele>
        <time>2012-04-05T17:10:16Z</time>
      </trkpt>
      <trkpt lat="43.40561" lon="2.13851">
        <ele>630</ele>
        <time>2012-04-05T17:10:19Z</time>
      </trkpt>
      <trkpt lat="43.40562" lon="2.13853">
        <ele>630</ele>
        <time>2012-04-05T17:10:21Z</time>
      </trkpt>
      <trkpt lat="43.40563" lon="2.13854">
        <ele>630</ele>
        <time>2012-04-05T17:10:23Z</time>
      </trkpt>
      <trkpt lat="43.40564" lon="2.13856">
        <ele>630</ele>
        <time>2012-04-05T17:10:25Z</time>
      </trkpt>
      <trkpt lat="43.40564" lon="2.13857">
        <ele>630</ele>
        <time>2012-04-05T17:10:28Z</time>
      </trkpt>
      <trkpt lat="43.40564" lon="2.13859">
        <ele>630</ele>
        <time>2012-04-05T17:10:31Z</time>
      </trkpt>
      <trkpt lat="43.40564" lon="2.13861">
        <ele>630</ele>
        <time>2012-04-05T17:10:34Z</time>
      </trkpt>
      <trkpt lat="43.40566" lon="2.1386">
        <ele>630</ele>
        <time>2012-04-05T17:10:37Z</time>
      </trkpt>
      <trkpt lat="43.40564" lon="2.13859">
        <ele>631</ele>
        <time>2012-04-05T17:10:39Z</time>
      </trkpt>
      <trkpt lat="43.40562" lon="2.13857">
        <ele>632</ele>
        <time>2012-04-05T17:10:41Z</time>
      </trkpt>
      <trkpt lat="43.4056" lon="2.1385">
        <ele>632</ele>
        <time>2012-04-05T17:10:43Z</time>
      </trkpt>
      <trkpt lat="43.40556" lon="2.13844">
        <ele>632</ele>
        <time>2012-04-05T17:10:45Z</time>
      </trkpt>
      <trkpt lat="43.40553" lon="2.13835">
        <ele>632</ele>
        <time>2012-04-05T17:10:47Z</time>
      </trkpt>
      <trkpt lat="43.4055" lon="2.13823">
        <ele>632</ele>
        <time>2012-04-05T17:10:49Z</time>
      </trkpt>
      <trkpt lat="43.40548" lon="2.1381">
        <ele>631</ele>
        <time>2012-04-05T17:10:51Z</time>
      </trkpt>
      <trkpt lat="43.40544" lon="2.13794">
        <ele>629</ele>
        <time>2012-04-05T17:10:53Z</time>
      </trkpt>
      <trkpt lat="43.40542" lon="2.13777">
        <ele>627</ele>
        <time>2012-04-05T17:10:55Z</time>
      </trkpt>
      <trkpt lat="43.40542" lon="2.13759">
        <ele>625</ele>
        <time>2012-04-05T17:10:57Z</time>
      </trkpt>
      <trkpt lat="43.40543" lon="2.13741">
        <ele>623</ele>
        <time>2012-04-05T17:10:59Z</time>
      </trkpt>
      <trkpt lat="43.40542" lon="2.13724">
        <ele>620</ele>
        <time>2012-04-05T17:11:01Z</time>
      </trkpt>
      <trkpt lat="43.40544" lon="2.13708">
        <ele>618</ele>
        <time>2012-04-05T17:11:03Z</time>
      </trkpt>
      <trkpt lat="43.40547" lon="2.13693">
        <ele>616</ele>
        <time>2012-04-05T17:11:05Z</time>
      </trkpt>
      <trkpt lat="43.40548" lon="2.13678">
        <ele>614</ele>
        <time>2012-04-05T17:11:07Z</time>
      </trkpt>
      <trkpt lat="43.40547" lon="2.1366">
        <ele>612</ele>
        <time>2012-04-05T17:11:09Z</time>
      </trkpt>
      <trkpt lat="43.40545" lon="2.13646">
        <ele>612</ele>
        <time>2012-04-05T17:11:11Z</time>
      </trkpt>
      <trkpt lat="43.40541" lon="2.13634">
        <ele>612</ele>
        <time>2012-04-05T17:11:13Z</time>
      </trkpt>
      <trkpt lat="43.40535" lon="2.13623">
        <ele>612</ele>
        <time>2012-04-05T17:11:15Z</time>
      </trkpt>
      <trkpt lat="43.4053" lon="2.13611">
        <ele>611</ele>
        <time>2012-04-05T17:11:17Z</time>
      </trkpt>
      <trkpt lat="43.40528" lon="2.13599">
        <ele>611</ele>
        <time>2012-04-05T17:11:19Z</time>
      </trkpt>
      <trkpt lat="43.40528" lon="2.13589">
        <ele>609</ele>
        <time>2012-04-05T17:11:21Z</time>
      </trkpt>
      <trkpt lat="43.4053" lon="2.13583">
        <ele>609</ele>
        <time>2012-04-05T17:11:23Z</time>
      </trkpt>
      <trkpt lat="43.4053" lon="2.13576">
        <ele>608</ele>
        <time>2012-04-05T17:11:25Z</time>
      </trkpt>
      <trkpt lat="43.40522" lon="2.13564">
        <ele>607</ele>
        <time>2012-04-05T17:11:28Z</time>
      </trkpt>
      <trkpt lat="43.40513" lon="2.13564">
        <ele>606</ele>
        <time>2012-04-05T17:11:30Z</time>
      </trkpt>
      <trkpt lat="43.40505" lon="2.13571">
        <ele>605</ele>
        <time>2012-04-05T17:11:32Z</time>
      </trkpt>
      <trkpt lat="43.40497" lon="2.13579">
        <ele>604</ele>
        <time>2012-04-05T17:11:34Z</time>
      </trkpt>
      <trkpt lat="43.40487" lon="2.13587">
        <ele>603</ele>
        <time>2012-04-05T17:11:36Z</time>
      </trkpt>
      <trkpt lat="43.40476" lon="2.13592">
        <ele>601</ele>
        <time>2012-04-05T17:11:38Z</time>
      </trkpt>
      <trkpt lat="43.40466" lon="2.13592">
        <ele>600</ele>
        <time>2012-04-05T17:11:40Z</time>
      </trkpt>
      <trkpt lat="43.40455" lon="2.13584">
        <ele>599</ele>
        <time>2012-04-05T17:11:42Z</time>
      </trkpt>
      <trkpt lat="43.40445" lon="2.13575">
        <ele>597</ele>
        <time>2012-04-05T17:11:44Z</time>
      </trkpt>
      <trkpt lat="43.40438" lon="2.13562">
        <ele>597</ele>
        <time>2012-04-05T17:11:46Z</time>
      </trkpt>
      <trkpt lat="43.40438" lon="2.13547">
        <ele>596</ele>
        <time>2012-04-05T17:11:48Z</time>
      </trkpt>
      <trkpt lat="43.40445" lon="2.13534">
        <ele>595</ele>
        <time>2012-04-05T17:11:50Z</time>
      </trkpt>
      <trkpt lat="43.40453" lon="2.1352">
        <ele>594</ele>
        <time>2012-04-05T17:11:52Z</time>
      </trkpt>
      <trkpt lat="43.40462" lon="2.13503">
        <ele>593</ele>
        <time>2012-04-05T17:11:54Z</time>
      </trkpt>
      <trkpt lat="43.40469" lon="2.13485">
        <ele>591</ele>
        <time>2012-04-05T17:11:56Z</time>
      </trkpt>
      <trkpt lat="43.40475" lon="2.13467">
        <ele>589</ele>
        <time>2012-04-05T17:11:58Z</time>
      </trkpt>
      <trkpt lat="43.40474" lon="2.13449">
        <ele>588</ele>
        <time>2012-04-05T17:12:00Z</time>
      </trkpt>
      <trkpt lat="43.40467" lon="2.13432">
        <ele>586</ele>
        <time>2012-04-05T17:12:02Z</time>
      </trkpt>
      <trkpt lat="43.4046" lon="2.13414">
        <ele>585</ele>
        <time>2012-04-05T17:12:04Z</time>
      </trkpt>
      <trkpt lat="43.40453" lon="2.13397">
        <ele>583</ele>
        <time>2012-04-05T17:12:06Z</time>
      </trkpt>
      <trkpt lat="43.40448" lon="2.13384">
        <ele>582</ele>
        <time>2012-04-05T17:12:08Z</time>
      </trkpt>
      <trkpt lat="43.40446" lon="2.13376">
        <ele>581</ele>
        <time>2012-04-05T17:12:10Z</time>
      </trkpt>
      <trkpt lat="43.40448" lon="2.1337">
        <ele>580</ele>
        <time>2012-04-05T17:12:12Z</time>
      </trkpt>
      <trkpt lat="43.40449" lon="2.13363">
        <ele>578</ele>
        <time>2012-04-05T17:12:14Z</time>
      </trkpt>
      <trkpt lat="43.4045" lon="2.13354">
        <ele>578</ele>
        <time>2012-04-05T17:12:16Z</time>
      </trkpt>
      <trkpt lat="43.40452" lon="2.13345">
        <ele>577</ele>
        <time>2012-04-05T17:12:18Z</time>
      </trkpt>
      <trkpt lat="43.40455" lon="2.13334">
        <ele>577</ele>
        <time>2012-04-05T17:12:20Z</time>
      </trkpt>
      <trkpt lat="43.40458" lon="2.13324">
        <ele>577</ele>
        <time>2012-04-05T17:12:22Z</time>
      </trkpt>
      <trkpt lat="43.40462" lon="2.13314">
        <ele>576</ele>
        <time>2012-04-05T17:12:24Z</time>
      </trkpt>
      <trkpt lat="43.40467" lon="2.13304">
        <ele>576</ele>
        <time>2012-04-05T17:12:26Z</time>
      </trkpt>
      <trkpt lat="43.40472" lon="2.13296">
        <ele>576</ele>
        <time>2012-04-05T17:12:28Z</time>
      </trkpt>
      <trkpt lat="43.40477" lon="2.13288">
        <ele>576</ele>
        <time>2012-04-05T17:12:30Z</time>
      </trkpt>
      <trkpt lat="43.40483" lon="2.1328">
        <ele>576</ele>
        <time>2012-04-05T17:12:32Z</time>
      </trkpt>
      <trkpt lat="43.40488" lon="2.13269">
        <ele>576</ele>
        <time>2012-04-05T17:12:34Z</time>
      </trkpt>
      <trkpt lat="43.40493" lon="2.1326">
        <ele>576</ele>
        <time>2012-04-05T17:12:36Z</time>
      </trkpt>
      <trkpt lat="43.40497" lon="2.13249">
        <ele>576</ele>
        <time>2012-04-05T17:12:38Z</time>
      </trkpt>
      <trkpt lat="43.40501" lon="2.13236">
        <ele>576</ele>
        <time>2012-04-05T17:12:40Z</time>
      </trkpt>
      <trkpt lat="43.40505" lon="2.13219">
        <ele>578</ele>
        <time>2012-04-05T17:12:42Z</time>
      </trkpt>
      <trkpt lat="43.40509" lon="2.13203">
        <ele>579</ele>
        <time>2012-04-05T17:12:44Z</time>
      </trkpt>
      <trkpt lat="43.40514" lon="2.13185">
        <ele>580</ele>
        <time>2012-04-05T17:12:46Z</time>
      </trkpt>
      <trkpt lat="43.40523" lon="2.13171">
        <ele>581</ele>
        <time>2012-04-05T17:12:48Z</time>
      </trkpt>
      <trkpt lat="43.40531" lon="2.13158">
        <ele>582</ele>
        <time>2012-04-05T17:12:50Z</time>
      </trkpt>
      <trkpt lat="43.40538" lon="2.13148">
        <ele>583</ele>
        <time>2012-04-05T17:12:52Z</time>
      </trkpt>
      <trkpt lat="43.40543" lon="2.1314">
        <ele>584</ele>
        <time>2012-04-05T17:12:54Z</time>
      </trkpt>
      <trkpt lat="43.40546" lon="2.13138">
        <ele>584</ele>
        <time>2012-04-05T17:12:56Z</time>
      </trkpt>
      <trkpt lat="43.40547" lon="2.13135">
        <ele>584</ele>
        <time>2012-04-05T17:13:00Z</time>
      </trkpt>
      <trkpt lat="43.4055" lon="2.13134">
        <ele>584</ele>
        <time>2012-04-05T17:13:02Z</time>
      </trkpt>
      <trkpt lat="43.40552" lon="2.13131">
        <ele>584</ele>
        <time>2012-04-05T17:13:04Z</time>
      </trkpt>
      <trkpt lat="43.40552" lon="2.13128">
        <ele>584</ele>
        <time>2012-04-05T17:13:07Z</time>
      </trkpt>
      <trkpt lat="43.40551" lon="2.13129">
        <ele>584</ele>
        <time>2012-04-05T17:13:13Z</time>
      </trkpt>
      <trkpt lat="43.40553" lon="2.13131">
        <ele>584</ele>
        <time>2012-04-05T17:13:15Z</time>
      </trkpt>
      <trkpt lat="43.40554" lon="2.13132">
        <ele>584</ele>
        <time>2012-04-05T17:13:17Z</time>
      </trkpt>
      <trkpt lat="43.40556" lon="2.1313">
        <ele>583</ele>
        <time>2012-04-05T17:13:19Z</time>
      </trkpt>
      <trkpt lat="43.40558" lon="2.13129">
        <ele>581</ele>
        <time>2012-04-05T17:13:21Z</time>
      </trkpt>
      <trkpt lat="43.40561" lon="2.13126">
        <ele>580</ele>
        <time>2012-04-05T17:13:23Z</time>
      </trkpt>
      <trkpt lat="43.40566" lon="2.13123">
        <ele>580</ele>
        <time>2012-04-05T17:13:25Z</time>
      </trkpt>
      <trkpt lat="43.4057" lon="2.1312">
        <ele>580</ele>
        <time>2012-04-05T17:13:27Z</time>
      </trkpt>
      <trkpt lat="43.40575" lon="2.13119">
        <ele>580</ele>
        <time>2012-04-05T17:13:29Z</time>
      </trkpt>
      <trkpt lat="43.40578" lon="2.13117">
        <ele>580</ele>
        <time>2012-04-05T17:13:31Z</time>
      </trkpt>
      <trkpt lat="43.40583" lon="2.13115">
        <ele>580</ele>
        <time>2012-04-05T17:13:33Z</time>
      </trkpt>
      <trkpt lat="43.40588" lon="2.13111">
        <ele>580</ele>
        <time>2012-04-05T17:13:35Z</time>
      </trkpt>
      <trkpt lat="43.4059" lon="2.13106">
        <ele>580</ele>
        <time>2012-04-05T17:13:37Z</time>
      </trkpt>
      <trkpt lat="43.40593" lon="2.131">
        <ele>580</ele>
        <time>2012-04-05T17:13:39Z</time>
      </trkpt>
      <trkpt lat="43.40594" lon="2.13093">
        <ele>580</ele>
        <time>2012-04-05T17:13:41Z</time>
      </trkpt>
      <trkpt lat="43.40597" lon="2.13087">
        <ele>580</ele>
        <time>2012-04-05T17:13:43Z</time>
      </trkpt>
      <trkpt lat="43.40598" lon="2.13081">
        <ele>580</ele>
        <time>2012-04-05T17:13:45Z</time>
      </trkpt>
      <trkpt lat="43.40599" lon="2.13075">
        <ele>580</ele>
        <time>2012-04-05T17:13:47Z</time>
      </trkpt>
      <trkpt lat="43.40601" lon="2.13069">
        <ele>582</ele>
        <time>2012-04-05T17:13:49Z</time>
      </trkpt>
      <trkpt lat="43.40601" lon="2.13059">
        <ele>583</ele>
        <time>2012-04-05T17:13:51Z</time>
      </trkpt>
      <trkpt lat="43.40602" lon="2.1305">
        <ele>583</ele>
        <time>2012-04-05T17:13:53Z</time>
      </trkpt>
      <trkpt lat="43.40602" lon="2.13043">
        <ele>584</ele>
        <time>2012-04-05T17:13:55Z</time>
      </trkpt>
      <trkpt lat="43.40601" lon="2.13037">
        <ele>586</ele>
        <time>2012-04-05T17:13:57Z</time>
      </trkpt>
      <trkpt lat="43.40601" lon="2.13032">
        <ele>587</ele>
        <time>2012-04-05T17:13:59Z</time>
      </trkpt>
      <trkpt lat="43.40601" lon="2.13029">
        <ele>588</ele>
        <time>2012-04-05T17:14:01Z</time>
      </trkpt>
      <trkpt lat="43.40598" lon="2.13021">
        <ele>590</ele>
        <time>2012-04-05T17:14:04Z</time>
      </trkpt>
      <trkpt lat="43.40596" lon="2.13017">
        <ele>592</ele>
        <time>2012-04-05T17:14:06Z</time>
      </trkpt>
      <trkpt lat="43.40595" lon="2.13015">
        <ele>594</ele>
        <time>2012-04-05T17:14:08Z</time>
      </trkpt>
      <trkpt lat="43.40594" lon="2.13013">
        <ele>595</ele>
        <time>2012-04-05T17:14:10Z</time>
      </trkpt>
      <trkpt lat="43.40595" lon="2.13009">
        <ele>595</ele>
        <time>2012-04-05T17:14:12Z</time>
      </trkpt>
      <trkpt lat="43.40596" lon="2.13004">
        <ele>595</ele>
        <time>2012-04-05T17:14:14Z</time>
      </trkpt>
      <trkpt lat="43.40596" lon="2.12998">
        <ele>596</ele>
        <time>2012-04-05T17:14:16Z</time>
      </trkpt>
      <trkpt lat="43.40597" lon="2.12992">
        <ele>598</ele>
        <time>2012-04-05T17:14:18Z</time>
      </trkpt>
      <trkpt lat="43.40599" lon="2.12988">
        <ele>599</ele>
        <time>2012-04-05T17:14:20Z</time>
      </trkpt>
      <trkpt lat="43.40601" lon="2.12984">
        <ele>600</ele>
        <time>2012-04-05T17:14:22Z</time>
      </trkpt>
      <trkpt lat="43.40602" lon="2.1298">
        <ele>600</ele>
        <time>2012-04-05T17:14:24Z</time>
      </trkpt>
      <trkpt lat="43.40604" lon="2.12976">
        <ele>600</ele>
        <time>2012-04-05T17:14:26Z</time>
      </trkpt>
      <trkpt lat="43.40606" lon="2.12972">
        <ele>601</ele>
        <time>2012-04-05T17:14:28Z</time>
      </trkpt>
      <trkpt lat="43.40607" lon="2.12967">
        <ele>602</ele>
        <time>2012-04-05T17:14:30Z</time>
      </trkpt>
      <trkpt lat="43.40609" lon="2.12963">
        <ele>603</ele>
        <time>2012-04-05T17:14:32Z</time>
      </trkpt>
      <trkpt lat="43.4061" lon="2.12958">
        <ele>604</ele>
        <time>2012-04-05T17:14:34Z</time>
      </trkpt>
      <trkpt lat="43.40612" lon="2.12953">
        <ele>604</ele>
        <time>2012-04-05T17:14:36Z</time>
      </trkpt>
      <trkpt lat="43.40614" lon="2.12946">
        <ele>604</ele>
        <time>2012-04-05T17:14:38Z</time>
      </trkpt>
      <trkpt lat="43.40616" lon="2.12941">
        <ele>604</ele>
        <time>2012-04-05T17:14:40Z</time>
      </trkpt>
      <trkpt lat="43.40618" lon="2.12935">
        <ele>604</ele>
        <time>2012-04-05T17:14:42Z</time>
      </trkpt>
      <trkpt lat="43.40619" lon="2.12929">
        <ele>604</ele>
        <time>2012-04-05T17:14:44Z</time>
      </trkpt>
      <trkpt lat="43.40621" lon="2.12922">
        <ele>604</ele>
        <time>2012-04-05T17:14:46Z</time>
      </trkpt>
      <trkpt lat="43.40623" lon="2.12917">
        <ele>603</ele>
        <time>2012-04-05T17:14:48Z</time>
      </trkpt>
      <trkpt lat="43.40626" lon="2.12913">
        <ele>603</ele>
        <time>2012-04-05T17:14:50Z</time>
      </trkpt>
      <trkpt lat="43.4063" lon="2.12908">
        <ele>603</ele>
        <time>2012-04-05T17:14:52Z</time>
      </trkpt>
      <trkpt lat="43.40633" lon="2.12904">
        <ele>603</ele>
        <time>2012-04-05T17:14:54Z</time>
      </trkpt>
      <trkpt lat="43.40636" lon="2.12899">
        <ele>603</ele>
        <time>2012-04-05T17:14:56Z</time>
      </trkpt>
      <trkpt lat="43.40639" lon="2.12893">
        <ele>603</ele>
        <time>2012-04-05T17:14:58Z</time>
      </trkpt>
      <trkpt lat="43.40641" lon="2.12887">
        <ele>602</ele>
        <time>2012-04-05T17:15:00Z</time>
      </trkpt>
      <trkpt lat="43.40643" lon="2.1288">
        <ele>601</ele>
        <time>2012-04-05T17:15:02Z</time>
      </trkpt>
      <trkpt lat="43.40645" lon="2.12874">
        <ele>601</ele>
        <time>2012-04-05T17:15:04Z</time>
      </trkpt>
      <trkpt lat="43.40647" lon="2.12868">
        <ele>600</ele>
        <time>2012-04-05T17:15:06Z</time>
      </trkpt>
      <trkpt lat="43.40648" lon="2.12863">
        <ele>600</ele>
        <time>2012-04-05T17:15:08Z</time>
      </trkpt>
      <trkpt lat="43.40649" lon="2.12858">
        <ele>599</ele>
        <time>2012-04-05T17:15:10Z</time>
      </trkpt>
      <trkpt lat="43.40651" lon="2.12853">
        <ele>598</ele>
        <time>2012-04-05T17:15:12Z</time>
      </trkpt>
      <trkpt lat="43.40654" lon="2.12849">
        <ele>598</ele>
        <time>2012-04-05T17:15:14Z</time>
      </trkpt>
      <trkpt lat="43.40658" lon="2.12846">
        <ele>597</ele>
        <time>2012-04-05T17:15:16Z</time>
      </trkpt>
      <trkpt lat="43.40661" lon="2.12843">
        <ele>596</ele>
        <time>2012-04-05T17:15:18Z</time>
      </trkpt>
      <trkpt lat="43.40665" lon="2.12841">
        <ele>596</ele>
        <time>2012-04-05T17:15:20Z</time>
      </trkpt>
      <trkpt lat="43.40669" lon="2.12839">
        <ele>596</ele>
        <time>2012-04-05T17:15:22Z</time>
      </trkpt>
      <trkpt lat="43.40673" lon="2.12836">
        <ele>596</ele>
        <time>2012-04-05T17:15:24Z</time>
      </trkpt>
      <trkpt lat="43.40676" lon="2.12833">
        <ele>596</ele>
        <time>2012-04-05T17:15:26Z</time>
      </trkpt>
      <trkpt lat="43.40679" lon="2.12831">
        <ele>596</ele>
        <time>2012-04-05T17:15:28Z</time>
      </trkpt>
      <trkpt lat="43.40682" lon="2.12829">
        <ele>596</ele>
        <time>2012-04-05T17:15:30Z</time>
      </trkpt>
      <trkpt lat="43.40685" lon="2.12826">
        <ele>596</ele>
        <time>2012-04-05T17:15:32Z</time>
      </trkpt>
      <trkpt lat="43.40688" lon="2.12823">
        <ele>596</ele>
        <time>2012-04-05T17:15:34Z</time>
      </trkpt>
      <trkpt lat="43.40692" lon="2.12819">
        <ele>596</ele>
        <time>2012-04-05T17:15:36Z</time>
      </trkpt>
      <trkpt lat="43.40696" lon="2.12817">
        <ele>596</ele>
        <time>2012-04-05T17:15:38Z</time>
      </trkpt>
      <trkpt lat="43.407" lon="2.12814">
        <ele>596</ele>
        <time>2012-04-05T17:15:40Z</time>
      </trkpt>
      <trkpt lat="43.40703" lon="2.12812">
        <ele>596</ele>
        <time>2012-04-05T17:15:42Z</time>
      </trkpt>
      <trkpt lat="43.40707" lon="2.12811">
        <ele>596</ele>
        <time>2012-04-05T17:15:44Z</time>
      </trkpt>
      <trkpt lat="43.40711" lon="2.12809">
        <ele>596</ele>
        <time>2012-04-05T17:15:46Z</time>
      </trkpt>
      <trkpt lat="43.40715" lon="2.12807">
        <ele>596</ele>
        <time>2012-04-05T17:15:48Z</time>
      </trkpt>
      <trkpt lat="43.40718" lon="2.12806">
        <ele>596</ele>
        <time>2012-04-05T17:15:50Z</time>
      </trkpt>
      <trkpt lat="43.40722" lon="2.12804">
        <ele>596</ele>
        <time>2012-04-05T17:15:52Z</time>
      </trkpt>
      <trkpt lat="43.40726" lon="2.128">
        <ele>596</ele>
        <time>2012-04-05T17:15:54Z</time>
      </trkpt>
      <trkpt lat="43.40729" lon="2.12797">
        <ele>596</ele>
        <time>2012-04-05T17:15:56Z</time>
      </trkpt>
      <trkpt lat="43.40732" lon="2.12794">
        <ele>596</ele>
        <time>2012-04-05T17:15:58Z</time>
      </trkpt>
      <trkpt lat="43.40734" lon="2.12791">
        <ele>596</ele>
        <time>2012-04-05T17:16:00Z</time>
      </trkpt>
      <trkpt lat="43.40738" lon="2.12789">
        <ele>596</ele>
        <time>2012-04-05T17:16:02Z</time>
      </trkpt>
      <trkpt lat="43.4074" lon="2.12787">
        <ele>596</ele>
        <time>2012-04-05T17:16:04Z</time>
      </trkpt>
      <trkpt lat="43.40744" lon="2.12784">
        <ele>596</ele>
        <time>2012-04-05T17:16:06Z</time>
      </trkpt>
      <trkpt lat="43.40747" lon="2.12782">
        <ele>597</ele>
        <time>2012-04-05T17:16:08Z</time>
      </trkpt>
      <trkpt lat="43.40751" lon="2.1278">
        <ele>597</ele>
        <time>2012-04-05T17:16:10Z</time>
      </trkpt>
      <trkpt lat="43.40755" lon="2.12781">
        <ele>598</ele>
        <time>2012-04-05T17:16:12Z</time>
      </trkpt>
      <trkpt lat="43.40758" lon="2.12782">
        <ele>598</ele>
        <time>2012-04-05T17:16:14Z</time>
      </trkpt>
      <trkpt lat="43.40762" lon="2.12785">
        <ele>599</ele>
        <time>2012-04-05T17:16:16Z</time>
      </trkpt>
      <trkpt lat="43.40764" lon="2.12788">
        <ele>599</ele>
        <time>2012-04-05T17:16:18Z</time>
      </trkpt>
      <trkpt lat="43.40767" lon="2.12792">
        <ele>600</ele>
        <time>2012-04-05T17:16:20Z</time>
      </trkpt>
      <trkpt lat="43.40769" lon="2.12796">
        <ele>600</ele>
        <time>2012-04-05T17:16:22Z</time>
      </trkpt>
      <trkpt lat="43.40771" lon="2.12801">
        <ele>600</ele>
        <time>2012-04-05T17:16:24Z</time>
      </trkpt>
      <trkpt lat="43.40773" lon="2.12805">
        <ele>601</ele>
        <time>2012-04-05T17:16:26Z</time>
      </trkpt>
      <trkpt lat="43.40776" lon="2.12809">
        <ele>601</ele>
        <time>2012-04-05T17:16:28Z</time>
      </trkpt>
      <trkpt lat="43.40778" lon="2.12813">
        <ele>601</ele>
        <time>2012-04-05T17:16:30Z</time>
      </trkpt>
      <trkpt lat="43.40781" lon="2.12817">
        <ele>602</ele>
        <time>2012-04-05T17:16:32Z</time>
      </trkpt>
      <trkpt lat="43.40783" lon="2.12821">
        <ele>603</ele>
        <time>2012-04-05T17:16:34Z</time>
      </trkpt>
      <trkpt lat="43.40786" lon="2.12824">
        <ele>604</ele>
        <time>2012-04-05T17:16:36Z</time>
      </trkpt>
      <trkpt lat="43.40788" lon="2.12828">
        <ele>604</ele>
        <time>2012-04-05T17:16:38Z</time>
      </trkpt>
      <trkpt lat="43.4079" lon="2.12832">
        <ele>605</ele>
        <time>2012-04-05T17:16:40Z</time>
      </trkpt>
      <trkpt lat="43.40792" lon="2.12836">
        <ele>605</ele>
        <time>2012-04-05T17:16:42Z</time>
      </trkpt>
      <trkpt lat="43.40795" lon="2.12842">
        <ele>606</ele>
        <time>2012-04-05T17:16:45Z</time>
      </trkpt>
      <trkpt lat="43.40797" lon="2.12846">
        <ele>606</ele>
        <time>2012-04-05T17:16:47Z</time>
      </trkpt>
      <trkpt lat="43.40799" lon="2.1285">
        <ele>606</ele>
        <time>2012-04-05T17:16:49Z</time>
      </trkpt>
      <trkpt lat="43.40803" lon="2.12857">
        <ele>607</ele>
        <time>2012-04-05T17:16:52Z</time>
      </trkpt>
      <trkpt lat="43.40806" lon="2.12861">
        <ele>607</ele>
        <time>2012-04-05T17:16:54Z</time>
      </trkpt>
      <trkpt lat="43.40809" lon="2.12865">
        <ele>608</ele>
        <time>2012-04-05T17:16:56Z</time>
      </trkpt>
      <trkpt lat="43.40812" lon="2.1287">
        <ele>608</ele>
        <time>2012-04-05T17:16:58Z</time>
      </trkpt>
      <trkpt lat="43.40814" lon="2.12875">
        <ele>609</ele>
        <time>2012-04-05T17:17:00Z</time>
      </trkpt>
      <trkpt lat="43.40817" lon="2.12878">
        <ele>609</ele>
        <time>2012-04-05T17:17:02Z</time>
      </trkpt>
      <trkpt lat="43.40821" lon="2.12882">
        <ele>609</ele>
        <time>2012-04-05T17:17:04Z</time>
      </trkpt>
      <trkpt lat="43.40825" lon="2.12884">
        <ele>610</ele>
        <time>2012-04-05T17:17:06Z</time>
      </trkpt>
      <trkpt lat="43.40829" lon="2.12887">
        <ele>610</ele>
        <time>2012-04-05T17:17:08Z</time>
      </trkpt>
      <trkpt lat="43.40834" lon="2.12892">
        <ele>610</ele>
        <time>2012-04-05T17:17:10Z</time>
      </trkpt>
      <trkpt lat="43.40839" lon="2.12896">
        <ele>610</ele>
        <time>2012-04-05T17:17:12Z</time>
      </trkpt>
      <trkpt lat="43.40844" lon="2.129">
        <ele>610</ele>
        <time>2012-04-05T17:17:14Z</time>
      </trkpt>
      <trkpt lat="43.4085" lon="2.12905">
        <ele>610</ele>
        <time>2012-04-05T17:17:16Z</time>
      </trkpt>
      <trkpt lat="43.40858" lon="2.1291">
        <ele>610</ele>
        <time>2012-04-05T17:17:18Z</time>
      </trkpt>
      <trkpt lat="43.40867" lon="2.12917">
        <ele>610</ele>
        <time>2012-04-05T17:17:20Z</time>
      </trkpt>
      <trkpt lat="43.40876" lon="2.12926">
        <ele>610</ele>
        <time>2012-04-05T17:17:22Z</time>
      </trkpt>
      <trkpt lat="43.40884" lon="2.12938">
        <ele>610</ele>
        <time>2012-04-05T17:17:24Z</time>
      </trkpt>
      <trkpt lat="43.40891" lon="2.12951">
        <ele>610</ele>
        <time>2012-04-05T17:17:26Z</time>
      </trkpt>
      <trkpt lat="43.40898" lon="2.12964">
        <ele>610</ele>
        <time>2012-04-05T17:17:28Z</time>
      </trkpt>
      <trkpt lat="43.40905" lon="2.12975">
        <ele>610</ele>
        <time>2012-04-05T17:17:30Z</time>
      </trkpt>
      <trkpt lat="43.40911" lon="2.12985">
        <ele>610</ele>
        <time>2012-04-05T17:17:32Z</time>
      </trkpt>
      <trkpt lat="43.40916" lon="2.12995">
        <ele>610</ele>
        <time>2012-04-05T17:17:34Z</time>
      </trkpt>
      <trkpt lat="43.4092" lon="2.13004">
        <ele>610</ele>
        <time>2012-04-05T17:17:36Z</time>
      </trkpt>
      <trkpt lat="43.40924" lon="2.13014">
        <ele>610</ele>
        <time>2012-04-05T17:17:38Z</time>
      </trkpt>
      <trkpt lat="43.40929" lon="2.13023">
        <ele>610</ele>
        <time>2012-04-05T17:17:40Z</time>
      </trkpt>
      <trkpt lat="43.40933" lon="2.13032">
        <ele>610</ele>
        <time>2012-04-05T17:17:42Z</time>
      </trkpt>
      <trkpt lat="43.40936" lon="2.1304">
        <ele>610</ele>
        <time>2012-04-05T17:17:44Z</time>
      </trkpt>
      <trkpt lat="43.40937" lon="2.13048">
        <ele>610</ele>
        <time>2012-04-05T17:17:46Z</time>
      </trkpt>
      <trkpt lat="43.40939" lon="2.13054">
        <ele>610</ele>
        <time>2012-04-05T17:17:48Z</time>
      </trkpt>
      <trkpt lat="43.4094" lon="2.1306">
        <ele>610</ele>
        <time>2012-04-05T17:17:50Z</time>
      </trkpt>
      <trkpt lat="43.40941" lon="2.13067">
        <ele>610</ele>
        <time>2012-04-05T17:17:52Z</time>
      </trkpt>
      <trkpt lat="43.40943" lon="2.13072">
        <ele>610</ele>
        <time>2012-04-05T17:17:54Z</time>
      </trkpt>
      <trkpt lat="43.40946" lon="2.13077">
        <ele>610</ele>
        <time>2012-04-05T17:17:56Z</time>
      </trkpt>
      <trkpt lat="43.40951" lon="2.13086">
        <ele>610</ele>
        <time>2012-04-05T17:17:59Z</time>
      </trkpt>
      <trkpt lat="43.40955" lon="2.13088">
        <ele>611</ele>
        <time>2012-04-05T17:18:01Z</time>
      </trkpt>
      <trkpt lat="43.4096" lon="2.13089">
        <ele>612</ele>
        <time>2012-04-05T17:18:03Z</time>
      </trkpt>
      <trkpt lat="43.40965" lon="2.13089">
        <ele>613</ele>
        <time>2012-04-05T17:18:05Z</time>
      </trkpt>
      <trkpt lat="43.4097" lon="2.13087">
        <ele>613</ele>
        <time>2012-04-05T17:18:07Z</time>
      </trkpt>
      <trkpt lat="43.40976" lon="2.13086">
        <ele>613</ele>
        <time>2012-04-05T17:18:09Z</time>
      </trkpt>
      <trkpt lat="43.40983" lon="2.13084">
        <ele>613</ele>
        <time>2012-04-05T17:18:11Z</time>
      </trkpt>
      <trkpt lat="43.40989" lon="2.1308">
        <ele>613</ele>
        <time>2012-04-05T17:18:13Z</time>
      </trkpt>
      <trkpt lat="43.40995" lon="2.13076">
        <ele>613</ele>
        <time>2012-04-05T17:18:15Z</time>
      </trkpt>
      <trkpt lat="43.41001" lon="2.13073">
        <ele>613</ele>
        <time>2012-04-05T17:18:17Z</time>
      </trkpt>
      <trkpt lat="43.41008" lon="2.1307">
        <ele>613</ele>
        <time>2012-04-05T17:18:19Z</time>
      </trkpt>
      <trkpt lat="43.41015" lon="2.13066">
        <ele>613</ele>
        <time>2012-04-05T17:18:21Z</time>
      </trkpt>
      <trkpt lat="43.41021" lon="2.13063">
        <ele>613</ele>
        <time>2012-04-05T17:18:23Z</time>
      </trkpt>
      <trkpt lat="43.41028" lon="2.1306">
        <ele>613</ele>
        <time>2012-04-05T17:18:25Z</time>
      </trkpt>
      <trkpt lat="43.41038" lon="2.13058">
        <ele>613</ele>
        <time>2012-04-05T17:18:28Z</time>
      </trkpt>
      <trkpt lat="43.41048" lon="2.13056">
        <ele>613</ele>
        <time>2012-04-05T17:18:31Z</time>
      </trkpt>
      <trkpt lat="43.41055" lon="2.13056">
        <ele>613</ele>
        <time>2012-04-05T17:18:33Z</time>
      </trkpt>
      <trkpt lat="43.41061" lon="2.13058">
        <ele>613</ele>
        <time>2012-04-05T17:18:35Z</time>
      </trkpt>
      <trkpt lat="43.41069" lon="2.1306">
        <ele>613</ele>
        <time>2012-04-05T17:18:37Z</time>
      </trkpt>
      <trkpt lat="43.41076" lon="2.13063">
        <ele>613</ele>
        <time>2012-04-05T17:18:39Z</time>
      </trkpt>
      <trkpt lat="43.41083" lon="2.13066">
        <ele>613</ele>
        <time>2012-04-05T17:18:41Z</time>
      </trkpt>
      <trkpt lat="43.41089" lon="2.13069">
        <ele>613</ele>
        <time>2012-04-05T17:18:43Z</time>
      </trkpt>
      <trkpt lat="43.41095" lon="2.13072">
        <ele>613</ele>
        <time>2012-04-05T17:18:45Z</time>
      </trkpt>
      <trkpt lat="43.411" lon="2.13075">
        <ele>613</ele>
        <time>2012-04-05T17:18:47Z</time>
      </trkpt>
      <trkpt lat="43.41106" lon="2.13078">
        <ele>613</ele>
        <time>2012-04-05T17:18:49Z</time>
      </trkpt>
      <trkpt lat="43.41111" lon="2.13082">
        <ele>613</ele>
        <time>2012-04-05T17:18:51Z</time>
      </trkpt>
      <trkpt lat="43.41115" lon="2.13088">
        <ele>613</ele>
        <time>2012-04-05T17:18:53Z</time>
      </trkpt>
      <trkpt lat="43.41119" lon="2.13094">
        <ele>613</ele>
        <time>2012-04-05T17:18:55Z</time>
      </trkpt>
      <trkpt lat="43.41122" lon="2.13101">
        <ele>614</ele>
        <time>2012-04-05T17:18:57Z</time>
      </trkpt>
      <trkpt lat="43.41125" lon="2.13107">
        <ele>614</ele>
        <time>2012-04-05T17:18:59Z</time>
      </trkpt>
      <trkpt lat="43.41127" lon="2.13114">
        <ele>615</ele>
        <time>2012-04-05T17:19:01Z</time>
      </trkpt>
      <trkpt lat="43.4113" lon="2.1312">
        <ele>615</ele>
        <time>2012-04-05T17:19:03Z</time>
      </trkpt>
      <trkpt lat="43.41134" lon="2.13127">
        <ele>616</ele>
        <time>2012-04-05T17:19:05Z</time>
      </trkpt>
      <trkpt lat="43.41137" lon="2.13133">
        <ele>617</ele>
        <time>2012-04-05T17:19:07Z</time>
      </trkpt>
      <trkpt lat="43.41141" lon="2.13139">
        <ele>618</ele>
        <time>2012-04-05T17:19:09Z</time>
      </trkpt>
      <trkpt lat="43.41145" lon="2.13144">
        <ele>619</ele>
        <time>2012-04-05T17:19:11Z</time>
      </trkpt>
      <trkpt lat="43.4115" lon="2.1315">
        <ele>620</ele>
        <time>2012-04-05T17:19:13Z</time>
      </trkpt>
      <trkpt lat="43.41155" lon="2.13155">
        <ele>620</ele>
        <time>2012-04-05T17:19:15Z</time>
      </trkpt>
      <trkpt lat="43.4116" lon="2.13159">
        <ele>621</ele>
        <time>2012-04-05T17:19:17Z</time>
      </trkpt>
      <trkpt lat="43.41165" lon="2.13164">
        <ele>621</ele>
        <time>2012-04-05T17:19:19Z</time>
      </trkpt>
      <trkpt lat="43.4117" lon="2.13168">
        <ele>621</ele>
        <time>2012-04-05T17:19:21Z</time>
      </trkpt>
      <trkpt lat="43.41175" lon="2.13171">
        <ele>622</ele>
        <time>2012-04-05T17:19:23Z</time>
      </trkpt>
      <trkpt lat="43.4118" lon="2.13174">
        <ele>622</ele>
        <time>2012-04-05T17:19:25Z</time>
      </trkpt>
      <trkpt lat="43.41188" lon="2.13176">
        <ele>622</ele>
        <time>2012-04-05T17:19:28Z</time>
      </trkpt>
      <trkpt lat="43.41194" lon="2.13177">
        <ele>622</ele>
        <time>2012-04-05T17:19:30Z</time>
      </trkpt>
      <trkpt lat="43.412" lon="2.13178">
        <ele>622</ele>
        <time>2012-04-05T17:19:32Z</time>
      </trkpt>
      <trkpt lat="43.41206" lon="2.1318">
        <ele>623</ele>
        <time>2012-04-05T17:19:34Z</time>
      </trkpt>
      <trkpt lat="43.41212" lon="2.13182">
        <ele>623</ele>
        <time>2012-04-05T17:19:36Z</time>
      </trkpt>
      <trkpt lat="43.41218" lon="2.13184">
        <ele>623</ele>
        <time>2012-04-05T17:19:38Z</time>
      </trkpt>
      <trkpt lat="43.41224" lon="2.13186">
        <ele>623</ele>
        <time>2012-04-05T17:19:40Z</time>
      </trkpt>
      <trkpt lat="43.4123" lon="2.13187">
        <ele>623</ele>
        <time>2012-04-05T17:19:42Z</time>
      </trkpt>
      <trkpt lat="43.41236" lon="2.13188">
        <ele>623</ele>
        <time>2012-04-05T17:19:44Z</time>
      </trkpt>
      <trkpt lat="43.41244" lon="2.13189">
        <ele>623</ele>
        <time>2012-04-05T17:19:46Z</time>
      </trkpt>
      <trkpt lat="43.41252" lon="2.13189">
        <ele>623</ele>
        <time>2012-04-05T17:19:48Z</time>
      </trkpt>
      <trkpt lat="43.41261" lon="2.13189">
        <ele>623</ele>
        <time>2012-04-05T17:19:50Z</time>
      </trkpt>
      <trkpt lat="43.41269" lon="2.13188">
        <ele>623</ele>
        <time>2012-04-05T17:19:52Z</time>
      </trkpt>
      <trkpt lat="43.41279" lon="2.13187">
        <ele>623</ele>
        <time>2012-04-05T17:19:54Z</time>
      </trkpt>
      <trkpt lat="43.41288" lon="2.13186">
        <ele>623</ele>
        <time>2012-04-05T17:19:56Z</time>
      </trkpt>
      <trkpt lat="43.41298" lon="2.13185">
        <ele>623</ele>
        <time>2012-04-05T17:19:58Z</time>
      </trkpt>
      <trkpt lat="43.41309" lon="2.13182">
        <ele>623</ele>
        <time>2012-04-05T17:20:00Z</time>
      </trkpt>
      <trkpt lat="43.41318" lon="2.13176">
        <ele>623</ele>
        <time>2012-04-05T17:20:02Z</time>
      </trkpt>
      <trkpt lat="43.41328" lon="2.13171">
        <ele>623</ele>
        <time>2012-04-05T17:20:04Z</time>
      </trkpt>
      <trkpt lat="43.41337" lon="2.13166">
        <ele>623</ele>
        <time>2012-04-05T17:20:06Z</time>
      </trkpt>
      <trkpt lat="43.41346" lon="2.13163">
        <ele>623</ele>
        <time>2012-04-05T17:20:08Z</time>
      </trkpt>
      <trkpt lat="43.41356" lon="2.13164">
        <ele>623</ele>
        <time>2012-04-05T17:20:10Z</time>
      </trkpt>
      <trkpt lat="43.41364" lon="2.13167">
        <ele>623</ele>
        <time>2012-04-05T17:20:12Z</time>
      </trkpt>
      <trkpt lat="43.41371" lon="2.13171">
        <ele>623</ele>
        <time>2012-04-05T17:20:14Z</time>
      </trkpt>
      <trkpt lat="43.41376" lon="2.13175">
        <ele>623</ele>
        <time>2012-04-05T17:20:16Z</time>
      </trkpt>
      <trkpt lat="43.41384" lon="2.1318">
        <ele>623</ele>
        <time>2012-04-05T17:20:19Z</time>
      </trkpt>
      <trkpt lat="43.41389" lon="2.13184">
        <ele>623</ele>
        <time>2012-04-05T17:20:21Z</time>
      </trkpt>
      <trkpt lat="43.41394" lon="2.13187">
        <ele>623</ele>
        <time>2012-04-05T17:20:23Z</time>
      </trkpt>
      <trkpt lat="43.41399" lon="2.1319">
        <ele>623</ele>
        <time>2012-04-05T17:20:25Z</time>
      </trkpt>
      <trkpt lat="43.41407" lon="2.13194">
        <ele>623</ele>
        <time>2012-04-05T17:20:28Z</time>
      </trkpt>
      <trkpt lat="43.41412" lon="2.13197">
        <ele>623</ele>
        <time>2012-04-05T17:20:30Z</time>
      </trkpt>
      <trkpt lat="43.41417" lon="2.13199">
        <ele>624</ele>
        <time>2012-04-05T17:20:32Z</time>
      </trkpt>
      <trkpt lat="43.41422" lon="2.13201">
        <ele>625</ele>
        <time>2012-04-05T17:20:34Z</time>
      </trkpt>
      <trkpt lat="43.41427" lon="2.13203">
        <ele>626</ele>
        <time>2012-04-05T17:20:36Z</time>
      </trkpt>
      <trkpt lat="43.41433" lon="2.13205">
        <ele>626</ele>
        <time>2012-04-05T17:20:38Z</time>
      </trkpt>
      <trkpt lat="43.41438" lon="2.13206">
        <ele>627</ele>
        <time>2012-04-05T17:20:40Z</time>
      </trkpt>
      <trkpt lat="43.41442" lon="2.13207">
        <ele>627</ele>
        <time>2012-04-05T17:20:42Z</time>
      </trkpt>
      <trkpt lat="43.41448" lon="2.13208">
        <ele>628</ele>
        <time>2012-04-05T17:20:44Z</time>
      </trkpt>
      <trkpt lat="43.41455" lon="2.13211">
        <ele>628</ele>
        <time>2012-04-05T17:20:47Z</time>
      </trkpt>
      <trkpt lat="43.4146" lon="2.13212">
        <ele>629</ele>
        <time>2012-04-05T17:20:49Z</time>
      </trkpt>
      <trkpt lat="43.41465" lon="2.13213">
        <ele>629</ele>
        <time>2012-04-05T17:20:51Z</time>
      </trkpt>
      <trkpt lat="43.4147" lon="2.13214">
        <ele>629</ele>
        <time>2012-04-05T17:20:53Z</time>
      </trkpt>
      <trkpt lat="43.41478" lon="2.13215">
        <ele>630</ele>
        <time>2012-04-05T17:20:56Z</time>
      </trkpt>
      <trkpt lat="43.41484" lon="2.13216">
        <ele>630</ele>
        <time>2012-04-05T17:20:58Z</time>
      </trkpt>
      <trkpt lat="43.41489" lon="2.13217">
        <ele>631</ele>
        <time>2012-04-05T17:21:00Z</time>
      </trkpt>
      <trkpt lat="43.41494" lon="2.13217">
        <ele>631</ele>
        <time>2012-04-05T17:21:02Z</time>
      </trkpt>
      <trkpt lat="43.41499" lon="2.13217">
        <ele>632</ele>
        <time>2012-04-05T17:21:04Z</time>
      </trkpt>
      <trkpt lat="43.41505" lon="2.13217">
        <ele>632</ele>
        <time>2012-04-05T17:21:06Z</time>
      </trkpt>
      <trkpt lat="43.4151" lon="2.13217">
        <ele>632</ele>
        <time>2012-04-05T17:21:08Z</time>
      </trkpt>
      <trkpt lat="43.41515" lon="2.13216">
        <ele>633</ele>
        <time>2012-04-05T17:21:10Z</time>
      </trkpt>
      <trkpt lat="43.4152" lon="2.13216">
        <ele>633</ele>
        <time>2012-04-05T17:21:12Z</time>
      </trkpt>
      <trkpt lat="43.41528" lon="2.13216">
        <ele>634</ele>
        <time>2012-04-05T17:21:15Z</time>
      </trkpt>
      <trkpt lat="43.41533" lon="2.13216">
        <ele>634</ele>
        <time>2012-04-05T17:21:17Z</time>
      </trkpt>
      <trkpt lat="43.41538" lon="2.13217">
        <ele>634</ele>
        <time>2012-04-05T17:21:19Z</time>
      </trkpt>
      <trkpt lat="43.41542" lon="2.13218">
        <ele>635</ele>
        <time>2012-04-05T17:21:21Z</time>
      </trkpt>
      <trkpt lat="43.41547" lon="2.13219">
        <ele>635</ele>
        <time>2012-04-05T17:21:23Z</time>
      </trkpt>
      <trkpt lat="43.41552" lon="2.13222">
        <ele>636</ele>
        <time>2012-04-05T17:21:25Z</time>
      </trkpt>
      <trkpt lat="43.41558" lon="2.13229">
        <ele>636</ele>
        <time>2012-04-05T17:21:28Z</time>
      </trkpt>
      <trkpt lat="43.41565" lon="2.13236">
        <ele>637</ele>
        <time>2012-04-05T17:21:31Z</time>
      </trkpt>
      <trkpt lat="43.41569" lon="2.13241">
        <ele>637</ele>
        <time>2012-04-05T17:21:33Z</time>
      </trkpt>
      <trkpt lat="43.41575" lon="2.13247">
        <ele>637</ele>
        <time>2012-04-05T17:21:36Z</time>
      </trkpt>
      <trkpt lat="43.4158" lon="2.13251">
        <ele>638</ele>
        <time>2012-04-05T17:21:38Z</time>
      </trkpt>
      <trkpt lat="43.41584" lon="2.13255">
        <ele>638</ele>
        <time>2012-04-05T17:21:40Z</time>
      </trkpt>
      <trkpt lat="43.41589" lon="2.13258">
        <ele>638</ele>
        <time>2012-04-05T17:21:42Z</time>
      </trkpt>
      <trkpt lat="43.41594" lon="2.13261">
        <ele>639</ele>
        <time>2012-04-05T17:21:44Z</time>
      </trkpt>
      <trkpt lat="43.416" lon="2.13263">
        <ele>639</ele>
        <time>2012-04-05T17:21:46Z</time>
      </trkpt>
      <trkpt lat="43.41605" lon="2.13266">
        <ele>640</ele>
        <time>2012-04-05T17:21:48Z</time>
      </trkpt>
      <trkpt lat="43.4161" lon="2.13268">
        <ele>640</ele>
        <time>2012-04-05T17:21:50Z</time>
      </trkpt>
      <trkpt lat="43.41615" lon="2.13271">
        <ele>640</ele>
        <time>2012-04-05T17:21:52Z</time>
      </trkpt>
      <trkpt lat="43.4162" lon="2.13274">
        <ele>640</ele>
        <time>2012-04-05T17:21:54Z</time>
      </trkpt>
      <trkpt lat="43.41625" lon="2.13277">
        <ele>640</ele>
        <time>2012-04-05T17:21:56Z</time>
      </trkpt>
      <trkpt lat="43.4163" lon="2.13279">
        <ele>640</ele>
        <time>2012-04-05T17:21:58Z</time>
      </trkpt>
      <trkpt lat="43.41635" lon="2.1328">
        <ele>640</ele>
        <time>2012-04-05T17:22:00Z</time>
      </trkpt>
      <trkpt lat="43.4164" lon="2.1328">
        <ele>640</ele>
        <time>2012-04-05T17:22:02Z</time>
      </trkpt>
      <trkpt lat="43.41646" lon="2.1328">
        <ele>640</ele>
        <time>2012-04-05T17:22:04Z</time>
      </trkpt>
      <trkpt lat="43.41653" lon="2.13283">
        <ele>641</ele>
        <time>2012-04-05T17:22:07Z</time>
      </trkpt>
      <trkpt lat="43.41658" lon="2.13285">
        <ele>642</ele>
        <time>2012-04-05T17:22:09Z</time>
      </trkpt>
      <trkpt lat="43.41663" lon="2.13286">
        <ele>642</ele>
        <time>2012-04-05T17:22:11Z</time>
      </trkpt>
      <trkpt lat="43.41667" lon="2.13289">
        <ele>642</ele>
        <time>2012-04-05T17:22:13Z</time>
      </trkpt>
      <trkpt lat="43.41674" lon="2.13293">
        <ele>643</ele>
        <time>2012-04-05T17:22:16Z</time>
      </trkpt>
      <trkpt lat="43.41679" lon="2.13297">
        <ele>644</ele>
        <time>2012-04-05T17:22:18Z</time>
      </trkpt>
      <trkpt lat="43.41683" lon="2.133">
        <ele>645</ele>
        <time>2012-04-05T17:22:20Z</time>
      </trkpt>
      <trkpt lat="43.41687" lon="2.13303">
        <ele>646</ele>
        <time>2012-04-05T17:22:22Z</time>
      </trkpt>
      <trkpt lat="43.41691" lon="2.13305">
        <ele>646</ele>
        <time>2012-04-05T17:22:24Z</time>
      </trkpt>
      <trkpt lat="43.41693" lon="2.13306">
        <ele>647</ele>
        <time>2012-04-05T17:22:26Z</time>
      </trkpt>
      <trkpt lat="43.41693" lon="2.13307">
        <ele>648</ele>
        <time>2012-04-05T17:22:29Z</time>
      </trkpt>
      <trkpt lat="43.41695" lon="2.13309">
        <ele>648</ele>
        <time>2012-04-05T17:22:31Z</time>
      </trkpt>
      <trkpt lat="43.41696" lon="2.13309">
        <ele>648</ele>
        <time>2012-04-05T17:22:33Z</time>
      </trkpt>
      <trkpt lat="43.41698" lon="2.13308">
        <ele>648</ele>
        <time>2012-04-05T17:22:35Z</time>
      </trkpt>
      <trkpt lat="43.41702" lon="2.13308">
        <ele>648</ele>
        <time>2012-04-05T17:22:38Z</time>
      </trkpt>
      <trkpt lat="43.41704" lon="2.13307">
        <ele>648</ele>
        <time>2012-04-05T17:22:40Z</time>
      </trkpt>
      <trkpt lat="43.41706" lon="2.13308">
        <ele>648</ele>
        <time>2012-04-05T17:22:42Z</time>
      </trkpt>
      <trkpt lat="43.41708" lon="2.13308">
        <ele>648</ele>
        <time>2012-04-05T17:22:44Z</time>
      </trkpt>
      <trkpt lat="43.41708" lon="2.13307">
        <ele>648</ele>
        <time>2012-04-05T17:22:47Z</time>
      </trkpt>
      <trkpt lat="43.41708" lon="2.13305">
        <ele>649</ele>
        <time>2012-04-05T17:22:50Z</time>
      </trkpt>
      <trkpt lat="43.4171" lon="2.13305">
        <ele>650</ele>
        <time>2012-04-05T17:22:55Z</time>
      </trkpt>
      <trkpt lat="43.4171" lon="2.13304">
        <ele>651</ele>
        <time>2012-04-05T17:23:02Z</time>
      </trkpt>
      <trkpt lat="43.41711" lon="2.13303">
        <ele>651</ele>
        <time>2012-04-05T17:23:15Z</time>
      </trkpt>
      <trkpt lat="43.41713" lon="2.13303">
        <ele>652</ele>
        <time>2012-04-05T17:23:21Z</time>
      </trkpt>
      <trkpt lat="43.41714" lon="2.13303">
        <ele>652</ele>
        <time>2012-04-05T17:23:32Z</time>
      </trkpt>
      <trkpt lat="43.41713" lon="2.13302">
        <ele>650</ele>
        <time>2012-04-05T17:24:12Z</time>
      </trkpt>
      <trkpt lat="43.41713" lon="2.13303">
        <ele>650</ele>
        <time>2012-04-05T17:24:27Z</time>
      </trkpt>
      <trkpt lat="43.41711" lon="2.13304">
        <ele>650</ele>
        <time>2012-04-05T17:25:13Z</time>
      </trkpt>
      <trkpt lat="43.41712" lon="2.13302">
        <ele>654</ele>
        <time>2012-04-05T17:26:28Z</time>
      </trkpt>
      <trkpt lat="43.41713" lon="2.13301">
        <ele>654</ele>
        <time>2012-04-05T17:26:44Z</time>
      </trkpt>
      <trkpt lat="43.41713" lon="2.13302">
        <ele>655</ele>
        <time>2012-04-05T17:26:54Z</time>
      </trkpt>
      <trkpt lat="43.41714" lon="2.13304">
        <ele>655</ele>
        <time>2012-04-05T17:27:13Z</time>
      </trkpt>
      <trkpt lat="43.41713" lon="2.13306">
        <ele>654</ele>
        <time>2012-04-05T17:27:21Z</time>
      </trkpt>
      <trkpt lat="43.41712" lon="2.13305">
        <ele>652</ele>
        <time>2012-04-05T17:27:35Z</time>
      </trkpt>
      <trkpt lat="43.41713" lon="2.13306">
        <ele>652</ele>
        <time>2012-04-05T17:27:48Z</time>
      </trkpt>
      <trkpt lat="43.41713" lon="2.13305">
        <ele>652</ele>
        <time>2012-04-05T17:27:54Z</time>
      </trkpt>
      <trkpt lat="43.41713" lon="2.13303">
        <ele>652</ele>
        <time>2012-04-05T17:27:59Z</time>
      </trkpt>
      <trkpt lat="43.41715" lon="2.13303">
        <ele>652</ele>
        <time>2012-04-05T17:28:18Z</time>
      </trkpt>
      <trkpt lat="43.41719" lon="2.13304">
        <ele>652</ele>
        <time>2012-04-05T17:28:20Z</time>
      </trkpt>
      <trkpt lat="43.41723" lon="2.13305">
        <ele>652</ele>
        <time>2012-04-05T17:28:22Z</time>
      </trkpt>
      <trkpt lat="43.41728" lon="2.13304">
        <ele>652</ele>
        <time>2012-04-05T17:28:24Z</time>
      </trkpt>
      <trkpt lat="43.41733" lon="2.13304">
        <ele>652</ele>
        <time>2012-04-05T17:28:26Z</time>
      </trkpt>
      <trkpt lat="43.4174" lon="2.13303">
        <ele>652</ele>
        <time>2012-04-05T17:28:28Z</time>
      </trkpt>
      <trkpt lat="43.41745" lon="2.13303">
        <ele>652</ele>
        <time>2012-04-05T17:28:30Z</time>
      </trkpt>
      <trkpt lat="43.41752" lon="2.13301">
        <ele>652</ele>
        <time>2012-04-05T17:28:32Z</time>
      </trkpt>
      <trkpt lat="43.41759" lon="2.133">
        <ele>652</ele>
        <time>2012-04-05T17:28:34Z</time>
      </trkpt>
      <trkpt lat="43.41771" lon="2.13297">
        <ele>652</ele>
        <time>2012-04-05T17:28:37Z</time>
      </trkpt>
      <trkpt lat="43.41778" lon="2.13294">
        <ele>652</ele>
        <time>2012-04-05T17:28:39Z</time>
      </trkpt>
      <trkpt lat="43.41785" lon="2.13292">
        <ele>652</ele>
        <time>2012-04-05T17:28:41Z</time>
      </trkpt>
      <trkpt lat="43.41792" lon="2.13291">
        <ele>653</ele>
        <time>2012-04-05T17:28:43Z</time>
      </trkpt>
      <trkpt lat="43.41799" lon="2.13289">
        <ele>653</ele>
        <time>2012-04-05T17:28:45Z</time>
      </trkpt>
      <trkpt lat="43.41806" lon="2.13287">
        <ele>654</ele>
        <time>2012-04-05T17:28:47Z</time>
      </trkpt>
      <trkpt lat="43.41813" lon="2.13285">
        <ele>654</ele>
        <time>2012-04-05T17:28:49Z</time>
      </trkpt>
      <trkpt lat="43.41821" lon="2.13284">
        <ele>654</ele>
        <time>2012-04-05T17:28:51Z</time>
      </trkpt>
      <trkpt lat="43.41828" lon="2.13281">
        <ele>654</ele>
        <time>2012-04-05T17:28:53Z</time>
      </trkpt>
      <trkpt lat="43.41836" lon="2.13279">
        <ele>654</ele>
        <time>2012-04-05T17:28:55Z</time>
      </trkpt>
      <trkpt lat="43.41843" lon="2.13276">
        <ele>654</ele>
        <time>2012-04-05T17:28:57Z</time>
      </trkpt>
      <trkpt lat="43.41851" lon="2.13274">
        <ele>655</ele>
        <time>2012-04-05T17:28:59Z</time>
      </trkpt>
      <trkpt lat="43.41857" lon="2.13272">
        <ele>656</ele>
        <time>2012-04-05T17:29:01Z</time>
      </trkpt>
      <trkpt lat="43.41863" lon="2.13272">
        <ele>657</ele>
        <time>2012-04-05T17:29:03Z</time>
      </trkpt>
      <trkpt lat="43.41867" lon="2.13274">
        <ele>658</ele>
        <time>2012-04-05T17:29:05Z</time>
      </trkpt>
      <trkpt lat="43.41869" lon="2.13276">
        <ele>659</ele>
        <time>2012-04-05T17:29:12Z</time>
      </trkpt>
      <trkpt lat="43.41869" lon="2.13278">
        <ele>659</ele>
        <time>2012-04-05T17:29:14Z</time>
      </trkpt>
      <trkpt lat="43.41869" lon="2.1328">
        <ele>659</ele>
        <time>2012-04-05T17:29:16Z</time>
      </trkpt>
      <trkpt lat="43.4187" lon="2.13282">
        <ele>660</ele>
        <time>2012-04-05T17:29:25Z</time>
      </trkpt>
      <trkpt lat="43.4187" lon="2.13286">
        <ele>660</ele>
        <time>2012-04-05T17:29:29Z</time>
      </trkpt>
      <trkpt lat="43.41871" lon="2.13288">
        <ele>660</ele>
        <time>2012-04-05T17:29:32Z</time>
      </trkpt>
      <trkpt lat="43.41874" lon="2.13289">
        <ele>660</ele>
        <time>2012-04-05T17:29:37Z</time>
      </trkpt>
      <trkpt lat="43.41875" lon="2.13288">
        <ele>660</ele>
        <time>2012-04-05T17:29:39Z</time>
      </trkpt>
      <trkpt lat="43.41876" lon="2.13287">
        <ele>660</ele>
        <time>2012-04-05T17:29:41Z</time>
      </trkpt>
      <trkpt lat="43.41877" lon="2.13285">
        <ele>660</ele>
        <time>2012-04-05T17:29:43Z</time>
      </trkpt>
      <trkpt lat="43.41877" lon="2.13283">
        <ele>660</ele>
        <time>2012-04-05T17:29:45Z</time>
      </trkpt>
      <trkpt lat="43.41879" lon="2.13282">
        <ele>660</ele>
        <time>2012-04-05T17:29:47Z</time>
      </trkpt>
      <trkpt lat="43.41881" lon="2.13283">
        <ele>660</ele>
        <time>2012-04-05T17:29:49Z</time>
      </trkpt>
      <trkpt lat="43.41883" lon="2.13283">
        <ele>660</ele>
        <time>2012-04-05T17:29:51Z</time>
      </trkpt>
      <trkpt lat="43.41885" lon="2.13285">
        <ele>660</ele>
        <time>2012-04-05T17:29:55Z</time>
      </trkpt>
      <trkpt lat="43.41888" lon="2.13287">
        <ele>660</ele>
        <time>2012-04-05T17:29:57Z</time>
      </trkpt>
      <trkpt lat="43.41891" lon="2.13289">
        <ele>660</ele>
        <time>2012-04-05T17:29:59Z</time>
      </trkpt>
      <trkpt lat="43.41896" lon="2.13293">
        <ele>660</ele>
        <time>2012-04-05T17:30:01Z</time>
      </trkpt>
      <trkpt lat="43.41901" lon="2.13296">
        <ele>660</ele>
        <time>2012-04-05T17:30:03Z</time>
      </trkpt>
      <trkpt lat="43.41905" lon="2.13299">
        <ele>660</ele>
        <time>2012-04-05T17:30:05Z</time>
      </trkpt>
      <trkpt lat="43.4191" lon="2.13302">
        <ele>660</ele>
        <time>2012-04-05T17:30:07Z</time>
      </trkpt>
      <trkpt lat="43.41914" lon="2.13304">
        <ele>660</ele>
        <time>2012-04-05T17:30:09Z</time>
      </trkpt>
      <trkpt lat="43.4192" lon="2.13306">
        <ele>660</ele>
        <time>2012-04-05T17:30:11Z</time>
      </trkpt>
      <trkpt lat="43.41925" lon="2.13309">
        <ele>660</ele>
        <time>2012-04-05T17:30:13Z</time>
      </trkpt>
      <trkpt lat="43.4193" lon="2.13311">
        <ele>660</ele>
        <time>2012-04-05T17:30:15Z</time>
      </trkpt>
      <trkpt lat="43.41935" lon="2.13313">
        <ele>660</ele>
        <time>2012-04-05T17:30:17Z</time>
      </trkpt>
      <trkpt lat="43.4194" lon="2.13315">
        <ele>660</ele>
        <time>2012-04-05T17:30:19Z</time>
      </trkpt>
      <trkpt lat="43.41946" lon="2.13316">
        <ele>660</ele>
        <time>2012-04-05T17:30:21Z</time>
      </trkpt>
      <trkpt lat="43.41951" lon="2.13317">
        <ele>661</ele>
        <time>2012-04-05T17:30:23Z</time>
      </trkpt>
      <trkpt lat="43.41956" lon="2.13317">
        <ele>662</ele>
        <time>2012-04-05T17:30:25Z</time>
      </trkpt>
      <trkpt lat="43.41964" lon="2.13317">
        <ele>662</ele>
        <time>2012-04-05T17:30:28Z</time>
      </trkpt>
      <trkpt lat="43.41969" lon="2.13315">
        <ele>663</ele>
        <time>2012-04-05T17:30:30Z</time>
      </trkpt>
      <trkpt lat="43.41974" lon="2.13315">
        <ele>663</ele>
        <time>2012-04-05T17:30:32Z</time>
      </trkpt>
      <trkpt lat="43.41979" lon="2.13314">
        <ele>664</ele>
        <time>2012-04-05T17:30:34Z</time>
      </trkpt>
      <trkpt lat="43.41984" lon="2.13313">
        <ele>664</ele>
        <time>2012-04-05T17:30:36Z</time>
      </trkpt>
      <trkpt lat="43.41989" lon="2.13312">
        <ele>665</ele>
        <time>2012-04-05T17:30:38Z</time>
      </trkpt>
      <trkpt lat="43.41994" lon="2.1331">
        <ele>665</ele>
        <time>2012-04-05T17:30:40Z</time>
      </trkpt>
      <trkpt lat="43.41999" lon="2.13309">
        <ele>665</ele>
        <time>2012-04-05T17:30:42Z</time>
      </trkpt>
      <trkpt lat="43.42004" lon="2.13307">
        <ele>666</ele>
        <time>2012-04-05T17:30:44Z</time>
      </trkpt>
      <trkpt lat="43.42009" lon="2.13305">
        <ele>666</ele>
        <time>2012-04-05T17:30:46Z</time>
      </trkpt>
      <trkpt lat="43.42014" lon="2.13302">
        <ele>667</ele>
        <time>2012-04-05T17:30:48Z</time>
      </trkpt>
      <trkpt lat="43.4202" lon="2.133">
        <ele>667</ele>
        <time>2012-04-05T17:30:50Z</time>
      </trkpt>
      <trkpt lat="43.42025" lon="2.13298">
        <ele>667</ele>
        <time>2012-04-05T17:30:52Z</time>
      </trkpt>
      <trkpt lat="43.4203" lon="2.13295">
        <ele>667</ele>
        <time>2012-04-05T17:30:54Z</time>
      </trkpt>
      <trkpt lat="43.42035" lon="2.13293">
        <ele>668</ele>
        <time>2012-04-05T17:30:56Z</time>
      </trkpt>
      <trkpt lat="43.4204" lon="2.13291">
        <ele>668</ele>
        <time>2012-04-05T17:30:58Z</time>
      </trkpt>
      <trkpt lat="43.42045" lon="2.1329">
        <ele>668</ele>
        <time>2012-04-05T17:31:00Z</time>
      </trkpt>
      <trkpt lat="43.42048" lon="2.13288">
        <ele>668</ele>
        <time>2012-04-05T17:31:02Z</time>
      </trkpt>
      <trkpt lat="43.42054" lon="2.13286">
        <ele>669</ele>
        <time>2012-04-05T17:31:04Z</time>
      </trkpt>
      <trkpt lat="43.42059" lon="2.13285">
        <ele>669</ele>
        <time>2012-04-05T17:31:06Z</time>
      </trkpt>
      <trkpt lat="43.42064" lon="2.13284">
        <ele>669</ele>
        <time>2012-04-05T17:31:08Z</time>
      </trkpt>
      <trkpt lat="43.42069" lon="2.13284">
        <ele>669</ele>
        <time>2012-04-05T17:31:10Z</time>
      </trkpt>
      <trkpt lat="43.42075" lon="2.13284">
        <ele>670</ele>
        <time>2012-04-05T17:31:12Z</time>
      </trkpt>
      <trkpt lat="43.4208" lon="2.13284">
        <ele>670</ele>
        <time>2012-04-05T17:31:14Z</time>
      </trkpt>
      <trkpt lat="43.42086" lon="2.13286">
        <ele>671</ele>
        <time>2012-04-05T17:31:16Z</time>
      </trkpt>
      <trkpt lat="43.42092" lon="2.13287">
        <ele>671</ele>
        <time>2012-04-05T17:31:18Z</time>
      </trkpt>
      <trkpt lat="43.42098" lon="2.13287">
        <ele>672</ele>
        <time>2012-04-05T17:31:20Z</time>
      </trkpt>
      <trkpt lat="43.42104" lon="2.13288">
        <ele>673</ele>
        <time>2012-04-05T17:31:22Z</time>
      </trkpt>
      <trkpt lat="43.42109" lon="2.13289">
        <ele>674</ele>
        <time>2012-04-05T17:31:24Z</time>
      </trkpt>
      <trkpt lat="43.42114" lon="2.1329">
        <ele>674</ele>
        <time>2012-04-05T17:31:26Z</time>
      </trkpt>
      <trkpt lat="43.42123" lon="2.13291">
        <ele>674</ele>
        <time>2012-04-05T17:31:29Z</time>
      </trkpt>
      <trkpt lat="43.42128" lon="2.13292">
        <ele>674</ele>
        <time>2012-04-05T17:31:31Z</time>
      </trkpt>
      <trkpt lat="43.42134" lon="2.13292">
        <ele>675</ele>
        <time>2012-04-05T17:31:33Z</time>
      </trkpt>
      <trkpt lat="43.42139" lon="2.13293">
        <ele>675</ele>
        <time>2012-04-05T17:31:35Z</time>
      </trkpt>
      <trkpt lat="43.42144" lon="2.13293">
        <ele>675</ele>
        <time>2012-04-05T17:31:37Z</time>
      </trkpt>
      <trkpt lat="43.4215" lon="2.13294">
        <ele>676</ele>
        <time>2012-04-05T17:31:39Z</time>
      </trkpt>
      <trkpt lat="43.42155" lon="2.13294">
        <ele>677</ele>
        <time>2012-04-05T17:31:41Z</time>
      </trkpt>
      <trkpt lat="43.42161" lon="2.13293">
        <ele>678</ele>
        <time>2012-04-05T17:31:43Z</time>
      </trkpt>
      <trkpt lat="43.42167" lon="2.13292">
        <ele>679</ele>
        <time>2012-04-05T17:31:45Z</time>
      </trkpt>
      <trkpt lat="43.42174" lon="2.13292">
        <ele>680</ele>
        <time>2012-04-05T17:31:47Z</time>
      </trkpt>
      <trkpt lat="43.42181" lon="2.13293">
        <ele>680</ele>
        <time>2012-04-05T17:31:49Z</time>
      </trkpt>
      <trkpt lat="43.42189" lon="2.13296">
        <ele>680</ele>
        <time>2012-04-05T17:31:51Z</time>
      </trkpt>
      <trkpt lat="43.42197" lon="2.13299">
        <ele>680</ele>
        <time>2012-04-05T17:31:53Z</time>
      </trkpt>
      <trkpt lat="43.42204" lon="2.13303">
        <ele>680</ele>
        <time>2012-04-05T17:31:55Z</time>
      </trkpt>
      <trkpt lat="43.42212" lon="2.13307">
        <ele>680</ele>
        <time>2012-04-05T17:31:57Z</time>
      </trkpt>
      <trkpt lat="43.4222" lon="2.13311">
        <ele>680</ele>
        <time>2012-04-05T17:31:59Z</time>
      </trkpt>
      <trkpt lat="43.42228" lon="2.13315">
        <ele>680</ele>
        <time>2012-04-05T17:32:01Z</time>
      </trkpt>
      <trkpt lat="43.42241" lon="2.13313">
        <ele>680</ele>
        <time>2012-04-05T17:32:04Z</time>
      </trkpt>
      <trkpt lat="43.42247" lon="2.13301">
        <ele>680</ele>
        <time>2012-04-05T17:32:06Z</time>
      </trkpt>
      <trkpt lat="43.42251" lon="2.13285">
        <ele>680</ele>
        <time>2012-04-05T17:32:08Z</time>
      </trkpt>
      <trkpt lat="43.42255" lon="2.13267">
        <ele>680</ele>
        <time>2012-04-05T17:32:10Z</time>
      </trkpt>
      <trkpt lat="43.42258" lon="2.13247">
        <ele>680</ele>
        <time>2012-04-05T17:32:12Z</time>
      </trkpt>
      <trkpt lat="43.42263" lon="2.13225">
        <ele>679</ele>
        <time>2012-04-05T17:32:14Z</time>
      </trkpt>
      <trkpt lat="43.42267" lon="2.132">
        <ele>677</ele>
        <time>2012-04-05T17:32:16Z</time>
      </trkpt>
      <trkpt lat="43.42271" lon="2.13174">
        <ele>676</ele>
        <time>2012-04-05T17:32:18Z</time>
      </trkpt>
      <trkpt lat="43.42277" lon="2.13145">
        <ele>674</ele>
        <time>2012-04-05T17:32:20Z</time>
      </trkpt>
      <trkpt lat="43.42283" lon="2.13115">
        <ele>672</ele>
        <time>2012-04-05T17:32:22Z</time>
      </trkpt>
      <trkpt lat="43.42289" lon="2.13083">
        <ele>670</ele>
        <time>2012-04-05T17:32:24Z</time>
      </trkpt>
      <trkpt lat="43.42292" lon="2.1305">
        <ele>668</ele>
        <time>2012-04-05T17:32:26Z</time>
      </trkpt>
      <trkpt lat="43.42285" lon="2.13018">
        <ele>666</ele>
        <time>2012-04-05T17:32:28Z</time>
      </trkpt>
      <trkpt lat="43.42275" lon="2.12986">
        <ele>664</ele>
        <time>2012-04-05T17:32:30Z</time>
      </trkpt>
      <trkpt lat="43.42266" lon="2.12954">
        <ele>662</ele>
        <time>2012-04-05T17:32:32Z</time>
      </trkpt>
      <trkpt lat="43.42263" lon="2.12923">
        <ele>660</ele>
        <time>2012-04-05T17:32:34Z</time>
      </trkpt>
      <trkpt lat="43.42268" lon="2.1289">
        <ele>657</ele>
        <time>2012-04-05T17:32:36Z</time>
      </trkpt>
      <trkpt lat="43.42278" lon="2.12857">
        <ele>654</ele>
        <time>2012-04-05T17:32:38Z</time>
      </trkpt>
      <trkpt lat="43.42286" lon="2.12824">
        <ele>651</ele>
        <time>2012-04-05T17:32:40Z</time>
      </trkpt>
      <trkpt lat="43.42286" lon="2.12792">
        <ele>648</ele>
        <time>2012-04-05T17:32:42Z</time>
      </trkpt>
      <trkpt lat="43.42279" lon="2.12766">
        <ele>646</ele>
        <time>2012-04-05T17:32:44Z</time>
      </trkpt>
      <trkpt lat="43.42267" lon="2.12744">
        <ele>644</ele>
        <time>2012-04-05T17:32:46Z</time>
      </trkpt>
      <trkpt lat="43.42257" lon="2.12724">
        <ele>642</ele>
        <time>2012-04-05T17:32:48Z</time>
      </trkpt>
      <trkpt lat="43.42254" lon="2.127">
        <ele>640</ele>
        <time>2012-04-05T17:32:51Z</time>
      </trkpt>
      <trkpt lat="43.42254" lon="2.12684">
        <ele>640</ele>
        <time>2012-04-05T17:32:53Z</time>
      </trkpt>
      <trkpt lat="43.42251" lon="2.12671">
        <ele>640</ele>
        <time>2012-04-05T17:32:55Z</time>
      </trkpt>
      <trkpt lat="43.42247" lon="2.12657">
        <ele>641</ele>
        <time>2012-04-05T17:32:57Z</time>
      </trkpt>
      <trkpt lat="43.42243" lon="2.12645">
        <ele>643</ele>
        <time>2012-04-05T17:32:59Z</time>
      </trkpt>
      <trkpt lat="43.4224" lon="2.12634">
        <ele>645</ele>
        <time>2012-04-05T17:33:01Z</time>
      </trkpt>
      <trkpt lat="43.42237" lon="2.12621">
        <ele>647</ele>
        <time>2012-04-05T17:33:03Z</time>
      </trkpt>
      <trkpt lat="43.42233" lon="2.12607">
        <ele>650</ele>
        <time>2012-04-05T17:33:05Z</time>
      </trkpt>
      <trkpt lat="43.42229" lon="2.12594">
        <ele>652</ele>
        <time>2012-04-05T17:33:07Z</time>
      </trkpt>
      <trkpt lat="43.42225" lon="2.12581">
        <ele>654</ele>
        <time>2012-04-05T17:33:09Z</time>
      </trkpt>
      <trkpt lat="43.4222" lon="2.12564">
        <ele>657</ele>
        <time>2012-04-05T17:33:12Z</time>
      </trkpt>
      <trkpt lat="43.42218" lon="2.12547">
        <ele>660</ele>
        <time>2012-04-05T17:33:15Z</time>
      </trkpt>
      <trkpt lat="43.42213" lon="2.12543">
        <ele>662</ele>
        <time>2012-04-05T17:33:17Z</time>
      </trkpt>
      <trkpt lat="43.42209" lon="2.12547">
        <ele>662</ele>
        <time>2012-04-05T17:33:19Z</time>
      </trkpt>
      <trkpt lat="43.42206" lon="2.12556">
        <ele>662</ele>
        <time>2012-04-05T17:33:21Z</time>
      </trkpt>
      <trkpt lat="43.42203" lon="2.12565">
        <ele>662</ele>
        <time>2012-04-05T17:33:23Z</time>
      </trkpt>
      <trkpt lat="43.42199" lon="2.12575">
        <ele>662</ele>
        <time>2012-04-05T17:33:25Z</time>
      </trkpt>
      <trkpt lat="43.42195" lon="2.12583">
        <ele>662</ele>
        <time>2012-04-05T17:33:27Z</time>
      </trkpt>
      <trkpt lat="43.4219" lon="2.12589">
        <ele>662</ele>
        <time>2012-04-05T17:33:29Z</time>
      </trkpt>
      <trkpt lat="43.42184" lon="2.12595">
        <ele>662</ele>
        <time>2012-04-05T17:33:31Z</time>
      </trkpt>
      <trkpt lat="43.42178" lon="2.126">
        <ele>662</ele>
        <time>2012-04-05T17:33:33Z</time>
      </trkpt>
      <trkpt lat="43.42172" lon="2.12605">
        <ele>662</ele>
        <time>2012-04-05T17:33:35Z</time>
      </trkpt>
      <trkpt lat="43.42164" lon="2.12609">
        <ele>662</ele>
        <time>2012-04-05T17:33:37Z</time>
      </trkpt>
      <trkpt lat="43.42154" lon="2.12611">
        <ele>662</ele>
        <time>2012-04-05T17:33:39Z</time>
      </trkpt>
      <trkpt lat="43.42142" lon="2.12612">
        <ele>662</ele>
        <time>2012-04-05T17:33:41Z</time>
      </trkpt>
      <trkpt lat="43.42129" lon="2.12611">
        <ele>662</ele>
        <time>2012-04-05T17:33:43Z</time>
      </trkpt>
      <trkpt lat="43.42115" lon="2.12611">
        <ele>662</ele>
        <time>2012-04-05T17:33:45Z</time>
      </trkpt>
      <trkpt lat="43.42102" lon="2.12611">
        <ele>662</ele>
        <time>2012-04-05T17:33:47Z</time>
      </trkpt>
      <trkpt lat="43.42088" lon="2.12613">
        <ele>662</ele>
        <time>2012-04-05T17:33:49Z</time>
      </trkpt>
      <trkpt lat="43.42074" lon="2.12614">
        <ele>662</ele>
        <time>2012-04-05T17:33:51Z</time>
      </trkpt>
      <trkpt lat="43.4206" lon="2.12613">
        <ele>662</ele>
        <time>2012-04-05T17:33:53Z</time>
      </trkpt>
      <trkpt lat="43.42046" lon="2.12609">
        <ele>662</ele>
        <time>2012-04-05T17:33:55Z</time>
      </trkpt>
      <trkpt lat="43.42031" lon="2.12603">
        <ele>660</ele>
        <time>2012-04-05T17:33:57Z</time>
      </trkpt>
      <trkpt lat="43.42015" lon="2.12599">
        <ele>660</ele>
        <time>2012-04-05T17:33:59Z</time>
      </trkpt>
      <trkpt lat="43.41998" lon="2.12594">
        <ele>659</ele>
        <time>2012-04-05T17:34:01Z</time>
      </trkpt>
      <trkpt lat="43.41982" lon="2.12588">
        <ele>659</ele>
        <time>2012-04-05T17:34:03Z</time>
      </trkpt>
      <trkpt lat="43.41965" lon="2.1258">
        <ele>657</ele>
        <time>2012-04-05T17:34:05Z</time>
      </trkpt>
      <trkpt lat="43.41951" lon="2.1257">
        <ele>656</ele>
        <time>2012-04-05T17:34:07Z</time>
      </trkpt>
      <trkpt lat="43.41932" lon="2.12549">
        <ele>654</ele>
        <time>2012-04-05T17:34:10Z</time>
      </trkpt>
      <trkpt lat="43.41915" lon="2.12527">
        <ele>653</ele>
        <time>2012-04-05T17:34:13Z</time>
      </trkpt>
      <trkpt lat="43.41901" lon="2.12515">
        <ele>653</ele>
        <time>2012-04-05T17:34:15Z</time>
      </trkpt>
      <trkpt lat="43.41888" lon="2.12506">
        <ele>653</ele>
        <time>2012-04-05T17:34:17Z</time>
      </trkpt>
      <trkpt lat="43.41874" lon="2.12498">
        <ele>653</ele>
        <time>2012-04-05T17:34:19Z</time>
      </trkpt>
      <trkpt lat="43.41854" lon="2.12489">
        <ele>653</ele>
        <time>2012-04-05T17:34:22Z</time>
      </trkpt>
      <trkpt lat="43.41841" lon="2.12484">
        <ele>653</ele>
        <time>2012-04-05T17:34:24Z</time>
      </trkpt>
      <trkpt lat="43.41828" lon="2.12478">
        <ele>653</ele>
        <time>2012-04-05T17:34:26Z</time>
      </trkpt>
      <trkpt lat="43.41816" lon="2.12471">
        <ele>653</ele>
        <time>2012-04-05T17:34:28Z</time>
      </trkpt>
      <trkpt lat="43.41805" lon="2.12462">
        <ele>653</ele>
        <time>2012-04-05T17:34:30Z</time>
      </trkpt>
      <trkpt lat="43.41795" lon="2.12453">
        <ele>653</ele>
        <time>2012-04-05T17:34:32Z</time>
      </trkpt>
      <trkpt lat="43.41785" lon="2.12444">
        <ele>653</ele>
        <time>2012-04-05T17:34:34Z</time>
      </trkpt>
      <trkpt lat="43.41777" lon="2.12435">
        <ele>653</ele>
        <time>2012-04-05T17:34:36Z</time>
      </trkpt>
      <trkpt lat="43.41769" lon="2.12425">
        <ele>654</ele>
        <time>2012-04-05T17:34:38Z</time>
      </trkpt>
      <trkpt lat="43.4176" lon="2.12417">
        <ele>654</ele>
        <time>2012-04-05T17:34:40Z</time>
      </trkpt>
      <trkpt lat="43.41752" lon="2.12408">
        <ele>654</ele>
        <time>2012-04-05T17:34:42Z</time>
      </trkpt>
      <trkpt lat="43.41744" lon="2.12401">
        <ele>655</ele>
        <time>2012-04-05T17:34:44Z</time>
      </trkpt>
      <trkpt lat="43.41736" lon="2.12393">
        <ele>656</ele>
        <time>2012-04-05T17:34:46Z</time>
      </trkpt>
      <trkpt lat="43.41728" lon="2.12385">
        <ele>656</ele>
        <time>2012-04-05T17:34:48Z</time>
      </trkpt>
      <trkpt lat="43.41718" lon="2.12378">
        <ele>656</ele>
        <time>2012-04-05T17:34:50Z</time>
      </trkpt>
      <trkpt lat="43.41708" lon="2.12371">
        <ele>657</ele>
        <time>2012-04-05T17:34:52Z</time>
      </trkpt>
      <trkpt lat="43.41695" lon="2.12362">
        <ele>658</ele>
        <time>2012-04-05T17:34:54Z</time>
      </trkpt>
      <trkpt lat="43.41681" lon="2.12352">
        <ele>658</ele>
        <time>2012-04-05T17:34:56Z</time>
      </trkpt>
      <trkpt lat="43.41667" lon="2.12342">
        <ele>658</ele>
        <time>2012-04-05T17:34:58Z</time>
      </trkpt>
      <trkpt lat="43.41653" lon="2.12331">
        <ele>658</ele>
        <time>2012-04-05T17:35:00Z</time>
      </trkpt>
      <trkpt lat="43.41641" lon="2.12319">
        <ele>658</ele>
        <time>2012-04-05T17:35:02Z</time>
      </trkpt>
      <trkpt lat="43.41629" lon="2.12308">
        <ele>658</ele>
        <time>2012-04-05T17:35:04Z</time>
      </trkpt>
      <trkpt lat="43.41618" lon="2.12298">
        <ele>658</ele>
        <time>2012-04-05T17:35:06Z</time>
      </trkpt>
      <trkpt lat="43.41606" lon="2.12288">
        <ele>658</ele>
        <time>2012-04-05T17:35:08Z</time>
      </trkpt>
      <trkpt lat="43.41595" lon="2.12279">
        <ele>658</ele>
        <time>2012-04-05T17:35:10Z</time>
      </trkpt>
      <trkpt lat="43.41585" lon="2.1227">
        <ele>658</ele>
        <time>2012-04-05T17:35:12Z</time>
      </trkpt>
      <trkpt lat="43.41575" lon="2.12261">
        <ele>658</ele>
        <time>2012-04-05T17:35:14Z</time>
      </trkpt>
      <trkpt lat="43.41565" lon="2.12252">
        <ele>658</ele>
        <time>2012-04-05T17:35:16Z</time>
      </trkpt>
      <trkpt lat="43.41556" lon="2.12243">
        <ele>658</ele>
        <time>2012-04-05T17:35:18Z</time>
      </trkpt>
      <trkpt lat="43.41546" lon="2.12234">
        <ele>658</ele>
        <time>2012-04-05T17:35:20Z</time>
      </trkpt>
      <trkpt lat="43.41537" lon="2.12224">
        <ele>658</ele>
        <time>2012-04-05T17:35:22Z</time>
      </trkpt>
      <trkpt lat="43.41528" lon="2.12215">
        <ele>658</ele>
        <time>2012-04-05T17:35:24Z</time>
      </trkpt>
      <trkpt lat="43.41519" lon="2.12207">
        <ele>658</ele>
        <time>2012-04-05T17:35:26Z</time>
      </trkpt>
      <trkpt lat="43.4151" lon="2.122">
        <ele>658</ele>
        <time>2012-04-05T17:35:28Z</time>
      </trkpt>
      <trkpt lat="43.41502" lon="2.12193">
        <ele>658</ele>
        <time>2012-04-05T17:35:30Z</time>
      </trkpt>
      <trkpt lat="43.41494" lon="2.12186">
        <ele>658</ele>
        <time>2012-04-05T17:35:32Z</time>
      </trkpt>
      <trkpt lat="43.41488" lon="2.12178">
        <ele>658</ele>
        <time>2012-04-05T17:35:34Z</time>
      </trkpt>
      <trkpt lat="43.41481" lon="2.12172">
        <ele>658</ele>
        <time>2012-04-05T17:35:36Z</time>
      </trkpt>
      <trkpt lat="43.41475" lon="2.12165">
        <ele>658</ele>
        <time>2012-04-05T17:35:38Z</time>
      </trkpt>
      <trkpt lat="43.41469" lon="2.12158">
        <ele>658</ele>
        <time>2012-04-05T17:35:40Z</time>
      </trkpt>
      <trkpt lat="43.41463" lon="2.12152">
        <ele>658</ele>
        <time>2012-04-05T17:35:42Z</time>
      </trkpt>
      <trkpt lat="43.41457" lon="2.12145">
        <ele>658</ele>
        <time>2012-04-05T17:35:44Z</time>
      </trkpt>
      <trkpt lat="43.41451" lon="2.1214">
        <ele>658</ele>
        <time>2012-04-05T17:35:46Z</time>
      </trkpt>
      <trkpt lat="43.41444" lon="2.12133">
        <ele>658</ele>
        <time>2012-04-05T17:35:48Z</time>
      </trkpt>
      <trkpt lat="43.41439" lon="2.12127">
        <ele>658</ele>
        <time>2012-04-05T17:35:50Z</time>
      </trkpt>
      <trkpt lat="43.41433" lon="2.12121">
        <ele>658</ele>
        <time>2012-04-05T17:35:52Z</time>
      </trkpt>
      <trkpt lat="43.41427" lon="2.12115">
        <ele>658</ele>
        <time>2012-04-05T17:35:54Z</time>
      </trkpt>
      <trkpt lat="43.4142" lon="2.12109">
        <ele>658</ele>
        <time>2012-04-05T17:35:56Z</time>
      </trkpt>
      <trkpt lat="43.41414" lon="2.12104">
        <ele>658</ele>
        <time>2012-04-05T17:35:58Z</time>
      </trkpt>
      <trkpt lat="43.41408" lon="2.12098">
        <ele>658</ele>
        <time>2012-04-05T17:36:00Z</time>
      </trkpt>
      <trkpt lat="43.41402" lon="2.12092">
        <ele>658</ele>
        <time>2012-04-05T17:36:02Z</time>
      </trkpt>
      <trkpt lat="43.41396" lon="2.12086">
        <ele>658</ele>
        <time>2012-04-05T17:36:04Z</time>
      </trkpt>
      <trkpt lat="43.41391" lon="2.1208">
        <ele>658</ele>
        <time>2012-04-05T17:36:06Z</time>
      </trkpt>
      <trkpt lat="43.41385" lon="2.12073">
        <ele>658</ele>
        <time>2012-04-05T17:36:08Z</time>
      </trkpt>
      <trkpt lat="43.41378" lon="2.12067">
        <ele>658</ele>
        <time>2012-04-05T17:36:10Z</time>
      </trkpt>
      <trkpt lat="43.41371" lon="2.1206">
        <ele>658</ele>
        <time>2012-04-05T17:36:12Z</time>
      </trkpt>
      <trkpt lat="43.41364" lon="2.12054">
        <ele>658</ele>
        <time>2012-04-05T17:36:14Z</time>
      </trkpt>
      <trkpt lat="43.41358" lon="2.12047">
        <ele>659</ele>
        <time>2012-04-05T17:36:16Z</time>
      </trkpt>
      <trkpt lat="43.41352" lon="2.12038">
        <ele>659</ele>
        <time>2012-04-05T17:36:18Z</time>
      </trkpt>
      <trkpt lat="43.41347" lon="2.12029">
        <ele>660</ele>
        <time>2012-04-05T17:36:20Z</time>
      </trkpt>
      <trkpt lat="43.41344" lon="2.12017">
        <ele>660</ele>
        <time>2012-04-05T17:36:22Z</time>
      </trkpt>
      <trkpt lat="43.4134" lon="2.12007">
        <ele>660</ele>
        <time>2012-04-05T17:36:24Z</time>
      </trkpt>
      <trkpt lat="43.41336" lon="2.11994">
        <ele>661</ele>
        <time>2012-04-05T17:36:26Z</time>
      </trkpt>
      <trkpt lat="43.41331" lon="2.11982">
        <ele>661</ele>
        <time>2012-04-05T17:36:28Z</time>
      </trkpt>
      <trkpt lat="43.41328" lon="2.11969">
        <ele>661</ele>
        <time>2012-04-05T17:36:30Z</time>
      </trkpt>
      <trkpt lat="43.41325" lon="2.11957">
        <ele>661</ele>
        <time>2012-04-05T17:36:32Z</time>
      </trkpt>
      <trkpt lat="43.41322" lon="2.11944">
        <ele>661</ele>
        <time>2012-04-05T17:36:34Z</time>
      </trkpt>
      <trkpt lat="43.41319" lon="2.11931">
        <ele>661</ele>
        <time>2012-04-05T17:36:36Z</time>
      </trkpt>
      <trkpt lat="43.41315" lon="2.11917">
        <ele>661</ele>
        <time>2012-04-05T17:36:38Z</time>
      </trkpt>
      <trkpt lat="43.41311" lon="2.11903">
        <ele>661</ele>
        <time>2012-04-05T17:36:40Z</time>
      </trkpt>
      <trkpt lat="43.41308" lon="2.11889">
        <ele>661</ele>
        <time>2012-04-05T17:36:42Z</time>
      </trkpt>
      <trkpt lat="43.41302" lon="2.11868">
        <ele>661</ele>
        <time>2012-04-05T17:36:45Z</time>
      </trkpt>
      <trkpt lat="43.41299" lon="2.11853">
        <ele>660</ele>
        <time>2012-04-05T17:36:47Z</time>
      </trkpt>
      <trkpt lat="43.41296" lon="2.11838">
        <ele>659</ele>
        <time>2012-04-05T17:36:49Z</time>
      </trkpt>
      <trkpt lat="43.41293" lon="2.11822">
        <ele>659</ele>
        <time>2012-04-05T17:36:51Z</time>
      </trkpt>
      <trkpt lat="43.4129" lon="2.11807">
        <ele>658</ele>
        <time>2012-04-05T17:36:53Z</time>
      </trkpt>
      <trkpt lat="43.41286" lon="2.11792">
        <ele>658</ele>
        <time>2012-04-05T17:36:55Z</time>
      </trkpt>
      <trkpt lat="43.41283" lon="2.11777">
        <ele>658</ele>
        <time>2012-04-05T17:36:57Z</time>
      </trkpt>
      <trkpt lat="43.4128" lon="2.11762">
        <ele>658</ele>
        <time>2012-04-05T17:36:59Z</time>
      </trkpt>
      <trkpt lat="43.41278" lon="2.11748">
        <ele>658</ele>
        <time>2012-04-05T17:37:01Z</time>
      </trkpt>
      <trkpt lat="43.41276" lon="2.11734">
        <ele>658</ele>
        <time>2012-04-05T17:37:03Z</time>
      </trkpt>
      <trkpt lat="43.41274" lon="2.11721">
        <ele>658</ele>
        <time>2012-04-05T17:37:05Z</time>
      </trkpt>
      <trkpt lat="43.41271" lon="2.11708">
        <ele>658</ele>
        <time>2012-04-05T17:37:07Z</time>
      </trkpt>
      <trkpt lat="43.41267" lon="2.11696">
        <ele>658</ele>
        <time>2012-04-05T17:37:09Z</time>
      </trkpt>
      <trkpt lat="43.41264" lon="2.11683">
        <ele>658</ele>
        <time>2012-04-05T17:37:11Z</time>
      </trkpt>
      <trkpt lat="43.41261" lon="2.1167">
        <ele>658</ele>
        <time>2012-04-05T17:37:13Z</time>
      </trkpt>
      <trkpt lat="43.41256" lon="2.11656">
        <ele>658</ele>
        <time>2012-04-05T17:37:15Z</time>
      </trkpt>
      <trkpt lat="43.41252" lon="2.11642">
        <ele>658</ele>
        <time>2012-04-05T17:37:17Z</time>
      </trkpt>
      <trkpt lat="43.41248" lon="2.11626">
        <ele>658</ele>
        <time>2012-04-05T17:37:19Z</time>
      </trkpt>
      <trkpt lat="43.41242" lon="2.1161">
        <ele>658</ele>
        <time>2012-04-05T17:37:21Z</time>
      </trkpt>
      <trkpt lat="43.41237" lon="2.11594">
        <ele>657</ele>
        <time>2012-04-05T17:37:23Z</time>
      </trkpt>
      <trkpt lat="43.41232" lon="2.11577">
        <ele>656</ele>
        <time>2012-04-05T17:37:25Z</time>
      </trkpt>
      <trkpt lat="43.41224" lon="2.1155">
        <ele>655</ele>
        <time>2012-04-05T17:37:28Z</time>
      </trkpt>
      <trkpt lat="43.4122" lon="2.11532">
        <ele>654</ele>
        <time>2012-04-05T17:37:30Z</time>
      </trkpt>
      <trkpt lat="43.41217" lon="2.11514">
        <ele>654</ele>
        <time>2012-04-05T17:37:32Z</time>
      </trkpt>
      <trkpt lat="43.4121" lon="2.1149">
        <ele>654</ele>
        <time>2012-04-05T17:37:35Z</time>
      </trkpt>
      <trkpt lat="43.412" lon="2.11482">
        <ele>654</ele>
        <time>2012-04-05T17:37:37Z</time>
      </trkpt>
      <trkpt lat="43.4119" lon="2.11481">
        <ele>654</ele>
        <time>2012-04-05T17:37:39Z</time>
      </trkpt>
      <trkpt lat="43.41182" lon="2.11482">
        <ele>654</ele>
        <time>2012-04-05T17:37:41Z</time>
      </trkpt>
      <trkpt lat="43.41177" lon="2.11484">
        <ele>654</ele>
        <time>2012-04-05T17:37:43Z</time>
      </trkpt>
      <trkpt lat="43.41174" lon="2.11485">
        <ele>654</ele>
        <time>2012-04-05T17:37:45Z</time>
      </trkpt>
      <trkpt lat="43.41173" lon="2.11484">
        <ele>654</ele>
        <time>2012-04-05T17:37:50Z</time>
      </trkpt>
      <trkpt lat="43.41172" lon="2.11484">
        <ele>654</ele>
        <time>2012-04-05T17:37:52Z</time>
      </trkpt>
      <trkpt lat="43.4117" lon="2.11485">
        <ele>654</ele>
        <time>2012-04-05T17:37:54Z</time>
      </trkpt>
      <trkpt lat="43.41167" lon="2.11487">
        <ele>654</ele>
        <time>2012-04-05T17:37:56Z</time>
      </trkpt>
      <trkpt lat="43.41162" lon="2.11489">
        <ele>654</ele>
        <time>2012-04-05T17:37:58Z</time>
      </trkpt>
      <trkpt lat="43.41156" lon="2.11491">
        <ele>654</ele>
        <time>2012-04-05T17:38:00Z</time>
      </trkpt>
      <trkpt lat="43.4115" lon="2.11494">
        <ele>654</ele>
        <time>2012-04-05T17:38:02Z</time>
      </trkpt>
      <trkpt lat="43.41142" lon="2.11498">
        <ele>654</ele>
        <time>2012-04-05T17:38:04Z</time>
      </trkpt>
      <trkpt lat="43.41133" lon="2.11501">
        <ele>654</ele>
        <time>2012-04-05T17:38:06Z</time>
      </trkpt>
      <trkpt lat="43.41124" lon="2.11506">
        <ele>654</ele>
        <time>2012-04-05T17:38:08Z</time>
      </trkpt>
      <trkpt lat="43.41115" lon="2.1151">
        <ele>654</ele>
        <time>2012-04-05T17:38:10Z</time>
      </trkpt>
      <trkpt lat="43.41106" lon="2.11513">
        <ele>654</ele>
        <time>2012-04-05T17:38:12Z</time>
      </trkpt>
      <trkpt lat="43.41097" lon="2.11519">
        <ele>654</ele>
        <time>2012-04-05T17:38:14Z</time>
      </trkpt>
      <trkpt lat="43.41088" lon="2.11521">
        <ele>654</ele>
        <time>2012-04-05T17:38:16Z</time>
      </trkpt>
      <trkpt lat="43.4108" lon="2.11523">
        <ele>654</ele>
        <time>2012-04-05T17:38:18Z</time>
      </trkpt>
      <trkpt lat="43.41072" lon="2.11528">
        <ele>654</ele>
        <time>2012-04-05T17:38:20Z</time>
      </trkpt>
      <trkpt lat="43.41062" lon="2.11531">
        <ele>654</ele>
        <time>2012-04-05T17:38:22Z</time>
      </trkpt>
      <trkpt lat="43.41052" lon="2.11533">
        <ele>654</ele>
        <time>2012-04-05T17:38:24Z</time>
      </trkpt>
      <trkpt lat="43.41039" lon="2.11534">
        <ele>654</ele>
        <time>2012-04-05T17:38:26Z</time>
      </trkpt>
      <trkpt lat="43.41025" lon="2.11533">
        <ele>654</ele>
        <time>2012-04-05T17:38:28Z</time>
      </trkpt>
      <trkpt lat="43.41012" lon="2.11529">
        <ele>654</ele>
        <time>2012-04-05T17:38:30Z</time>
      </trkpt>
      <trkpt lat="43.40999" lon="2.1152">
        <ele>654</ele>
        <time>2012-04-05T17:38:32Z</time>
      </trkpt>
      <trkpt lat="43.40987" lon="2.11507">
        <ele>654</ele>
        <time>2012-04-05T17:38:34Z</time>
      </trkpt>
      <trkpt lat="43.40979" lon="2.11489">
        <ele>654</ele>
        <time>2012-04-05T17:38:36Z</time>
      </trkpt>
      <trkpt lat="43.40974" lon="2.11466">
        <ele>653</ele>
        <time>2012-04-05T17:38:38Z</time>
      </trkpt>
      <trkpt lat="43.4097" lon="2.11442">
        <ele>651</ele>
        <time>2012-04-05T17:38:40Z</time>
      </trkpt>
      <trkpt lat="43.40967" lon="2.11417">
        <ele>649</ele>
        <time>2012-04-05T17:38:42Z</time>
      </trkpt>
      <trkpt lat="43.40964" lon="2.11392">
        <ele>647</ele>
        <time>2012-04-05T17:38:44Z</time>
      </trkpt>
      <trkpt lat="43.40962" lon="2.11367">
        <ele>645</ele>
        <time>2012-04-05T17:38:46Z</time>
      </trkpt>
      <trkpt lat="43.40961" lon="2.11342">
        <ele>643</ele>
        <time>2012-04-05T17:38:48Z</time>
      </trkpt>
      <trkpt lat="43.40964" lon="2.11319">
        <ele>642</ele>
        <time>2012-04-05T17:38:50Z</time>
      </trkpt>
      <trkpt lat="43.40969" lon="2.11302">
        <ele>641</ele>
        <time>2012-04-05T17:38:52Z</time>
      </trkpt>
      <trkpt lat="43.40969" lon="2.11289">
        <ele>640</ele>
        <time>2012-04-05T17:38:54Z</time>
      </trkpt>
      <trkpt lat="43.40962" lon="2.11288">
        <ele>639</ele>
        <time>2012-04-05T17:38:56Z</time>
      </trkpt>
      <trkpt lat="43.40958" lon="2.11296">
        <ele>639</ele>
        <time>2012-04-05T17:38:58Z</time>
      </trkpt>
      <trkpt lat="43.40955" lon="2.11309">
        <ele>639</ele>
        <time>2012-04-05T17:39:00Z</time>
      </trkpt>
      <trkpt lat="43.40951" lon="2.11322">
        <ele>639</ele>
        <time>2012-04-05T17:39:02Z</time>
      </trkpt>
      <trkpt lat="43.40942" lon="2.11345">
        <ele>637</ele>
        <time>2012-04-05T17:39:05Z</time>
      </trkpt>
      <trkpt lat="43.40934" lon="2.11361">
        <ele>636</ele>
        <time>2012-04-05T17:39:07Z</time>
      </trkpt>
      <trkpt lat="43.40923" lon="2.11375">
        <ele>634</ele>
        <time>2012-04-05T17:39:09Z</time>
      </trkpt>
      <trkpt lat="43.40911" lon="2.11389">
        <ele>632</ele>
        <time>2012-04-05T17:39:11Z</time>
      </trkpt>
      <trkpt lat="43.40899" lon="2.11403">
        <ele>632</ele>
        <time>2012-04-05T17:39:13Z</time>
      </trkpt>
      <trkpt lat="43.40889" lon="2.1142">
        <ele>631</ele>
        <time>2012-04-05T17:39:15Z</time>
      </trkpt>
      <trkpt lat="43.40887" lon="2.11439">
        <ele>629</ele>
        <time>2012-04-05T17:39:17Z</time>
      </trkpt>
      <trkpt lat="43.40893" lon="2.11453">
        <ele>627</ele>
        <time>2012-04-05T17:39:19Z</time>
      </trkpt>
      <trkpt lat="43.40895" lon="2.11468">
        <ele>626</ele>
        <time>2012-04-05T17:39:21Z</time>
      </trkpt>
      <trkpt lat="43.40889" lon="2.11476">
        <ele>626</ele>
        <time>2012-04-05T17:39:23Z</time>
      </trkpt>
      <trkpt lat="43.40877" lon="2.11473">
        <ele>626</ele>
        <time>2012-04-05T17:39:25Z</time>
      </trkpt>
      <trkpt lat="43.40861" lon="2.11464">
        <ele>626</ele>
        <time>2012-04-05T17:39:27Z</time>
      </trkpt>
      <trkpt lat="43.40845" lon="2.11455">
        <ele>626</ele>
        <time>2012-04-05T17:39:29Z</time>
      </trkpt>
      <trkpt lat="43.40828" lon="2.11452">
        <ele>625</ele>
        <time>2012-04-05T17:39:31Z</time>
      </trkpt>
      <trkpt lat="43.40812" lon="2.11458">
        <ele>623</ele>
        <time>2012-04-05T17:39:33Z</time>
      </trkpt>
      <trkpt lat="43.40799" lon="2.1147">
        <ele>623</ele>
        <time>2012-04-05T17:39:35Z</time>
      </trkpt>
      <trkpt lat="43.40786" lon="2.11489">
        <ele>622</ele>
        <time>2012-04-05T17:39:37Z</time>
      </trkpt>
      <trkpt lat="43.40775" lon="2.1151">
        <ele>621</ele>
        <time>2012-04-05T17:39:39Z</time>
      </trkpt>
      <trkpt lat="43.40768" lon="2.11529">
        <ele>619</ele>
        <time>2012-04-05T17:39:41Z</time>
      </trkpt>
      <trkpt lat="43.40768" lon="2.11547">
        <ele>617</ele>
        <time>2012-04-05T17:39:43Z</time>
      </trkpt>
      <trkpt lat="43.40777" lon="2.11564">
        <ele>614</ele>
        <time>2012-04-05T17:39:45Z</time>
      </trkpt>
      <trkpt lat="43.40793" lon="2.11575">
        <ele>611</ele>
        <time>2012-04-05T17:39:47Z</time>
      </trkpt>
      <trkpt lat="43.40807" lon="2.11588">
        <ele>609</ele>
        <time>2012-04-05T17:39:49Z</time>
      </trkpt>
      <trkpt lat="43.4082" lon="2.11603">
        <ele>607</ele>
        <time>2012-04-05T17:39:51Z</time>
      </trkpt>
      <trkpt lat="43.40829" lon="2.11624">
        <ele>605</ele>
        <time>2012-04-05T17:39:53Z</time>
      </trkpt>
      <trkpt lat="43.40835" lon="2.11664">
        <ele>602</ele>
        <time>2012-04-05T17:39:56Z</time>
      </trkpt>
      <trkpt lat="43.40836" lon="2.11694">
        <ele>600</ele>
        <time>2012-04-05T17:39:58Z</time>
      </trkpt>
      <trkpt lat="43.40848" lon="2.11736">
        <ele>597</ele>
        <time>2012-04-05T17:40:01Z</time>
      </trkpt>
      <trkpt lat="43.40854" lon="2.11765">
        <ele>595</ele>
        <time>2012-04-05T17:40:03Z</time>
      </trkpt>
      <trkpt lat="43.40858" lon="2.11796">
        <ele>593</ele>
        <time>2012-04-05T17:40:05Z</time>
      </trkpt>
      <trkpt lat="43.40866" lon="2.1184">
        <ele>592</ele>
        <time>2012-04-05T17:40:08Z</time>
      </trkpt>
      <trkpt lat="43.40869" lon="2.11867">
        <ele>591</ele>
        <time>2012-04-05T17:40:10Z</time>
      </trkpt>
      <trkpt lat="43.40875" lon="2.11889">
        <ele>591</ele>
        <time>2012-04-05T17:40:12Z</time>
      </trkpt>
      <trkpt lat="43.40882" lon="2.11907">
        <ele>591</ele>
        <time>2012-04-05T17:40:14Z</time>
      </trkpt>
      <trkpt lat="43.40887" lon="2.11922">
        <ele>591</ele>
        <time>2012-04-05T17:40:16Z</time>
      </trkpt>
      <trkpt lat="43.40892" lon="2.11934">
        <ele>591</ele>
        <time>2012-04-05T17:40:18Z</time>
      </trkpt>
      <trkpt lat="43.40896" lon="2.11948">
        <ele>591</ele>
        <time>2012-04-05T17:40:20Z</time>
      </trkpt>
      <trkpt lat="43.40902" lon="2.11958">
        <ele>591</ele>
        <time>2012-04-05T17:40:22Z</time>
      </trkpt>
      <trkpt lat="43.40908" lon="2.11967">
        <ele>592</ele>
        <time>2012-04-05T17:40:24Z</time>
      </trkpt>
      <trkpt lat="43.40915" lon="2.11976">
        <ele>593</ele>
        <time>2012-04-05T17:40:26Z</time>
      </trkpt>
      <trkpt lat="43.40921" lon="2.11984">
        <ele>593</ele>
        <time>2012-04-05T17:40:28Z</time>
      </trkpt>
      <trkpt lat="43.40928" lon="2.11992">
        <ele>594</ele>
        <time>2012-04-05T17:40:30Z</time>
      </trkpt>
      <trkpt lat="43.40934" lon="2.11999">
        <ele>595</ele>
        <time>2012-04-05T17:40:32Z</time>
      </trkpt>
      <trkpt lat="43.40939" lon="2.12007">
        <ele>596</ele>
        <time>2012-04-05T17:40:34Z</time>
      </trkpt>
      <trkpt lat="43.40943" lon="2.12014">
        <ele>596</ele>
        <time>2012-04-05T17:40:36Z</time>
      </trkpt>
      <trkpt lat="43.40948" lon="2.12021">
        <ele>597</ele>
        <time>2012-04-05T17:40:38Z</time>
      </trkpt>
      <trkpt lat="43.40953" lon="2.12028">
        <ele>597</ele>
        <time>2012-04-05T17:40:40Z</time>
      </trkpt>
      <trkpt lat="43.40956" lon="2.12036">
        <ele>597</ele>
        <time>2012-04-05T17:40:42Z</time>
      </trkpt>
      <trkpt lat="43.40959" lon="2.12045">
        <ele>598</ele>
        <time>2012-04-05T17:40:44Z</time>
      </trkpt>
      <trkpt lat="43.40962" lon="2.12052">
        <ele>600</ele>
        <time>2012-04-05T17:40:46Z</time>
      </trkpt>
      <trkpt lat="43.40965" lon="2.12065">
        <ele>602</ele>
        <time>2012-04-05T17:40:49Z</time>
      </trkpt>
      <trkpt lat="43.40968" lon="2.12072">
        <ele>603</ele>
        <time>2012-04-05T17:40:51Z</time>
      </trkpt>
      <trkpt lat="43.4097" lon="2.1208">
        <ele>604</ele>
        <time>2012-04-05T17:40:53Z</time>
      </trkpt>
      <trkpt lat="43.40972" lon="2.12089">
        <ele>606</ele>
        <time>2012-04-05T17:40:55Z</time>
      </trkpt>
      <trkpt lat="43.40975" lon="2.12101">
        <ele>607</ele>
        <time>2012-04-05T17:40:58Z</time>
      </trkpt>
      <trkpt lat="43.40978" lon="2.1211">
        <ele>608</ele>
        <time>2012-04-05T17:41:00Z</time>
      </trkpt>
      <trkpt lat="43.4098" lon="2.12118">
        <ele>608</ele>
        <time>2012-04-05T17:41:02Z</time>
      </trkpt>
      <trkpt lat="43.40983" lon="2.12125">
        <ele>608</ele>
        <time>2012-04-05T17:41:04Z</time>
      </trkpt>
      <trkpt lat="43.40986" lon="2.12132">
        <ele>608</ele>
        <time>2012-04-05T17:41:06Z</time>
      </trkpt>
      <trkpt lat="43.4099" lon="2.12138">
        <ele>608</ele>
        <time>2012-04-05T17:41:08Z</time>
      </trkpt>
      <trkpt lat="43.40995" lon="2.12148">
        <ele>608</ele>
        <time>2012-04-05T17:41:11Z</time>
      </trkpt>
      <trkpt lat="43.40998" lon="2.12155">
        <ele>609</ele>
        <time>2012-04-05T17:41:13Z</time>
      </trkpt>
      <trkpt lat="43.41002" lon="2.12162">
        <ele>609</ele>
        <time>2012-04-05T17:41:15Z</time>
      </trkpt>
      <trkpt lat="43.41005" lon="2.12169">
        <ele>609</ele>
        <time>2012-04-05T17:41:17Z</time>
      </trkpt>
      <trkpt lat="43.41007" lon="2.12175">
        <ele>609</ele>
        <time>2012-04-05T17:41:19Z</time>
      </trkpt>
      <trkpt lat="43.4101" lon="2.12185">
        <ele>611</ele>
        <time>2012-04-05T17:41:22Z</time>
      </trkpt>
      <trkpt lat="43.41011" lon="2.12192">
        <ele>612</ele>
        <time>2012-04-05T17:41:24Z</time>
      </trkpt>
      <trkpt lat="43.41013" lon="2.12201">
        <ele>613</ele>
        <time>2012-04-05T17:41:26Z</time>
      </trkpt>
      <trkpt lat="43.41013" lon="2.1221">
        <ele>614</ele>
        <time>2012-04-05T17:41:28Z</time>
      </trkpt>
      <trkpt lat="43.41014" lon="2.12218">
        <ele>615</ele>
        <time>2012-04-05T17:41:30Z</time>
      </trkpt>
      <trkpt lat="43.41016" lon="2.12226">
        <ele>615</ele>
        <time>2012-04-05T17:41:32Z</time>
      </trkpt>
      <trkpt lat="43.41017" lon="2.12234">
        <ele>616</ele>
        <time>2012-04-05T17:41:34Z</time>
      </trkpt>
      <trkpt lat="43.41019" lon="2.12243">
        <ele>616</ele>
        <time>2012-04-05T17:41:36Z</time>
      </trkpt>
      <trkpt lat="43.4102" lon="2.12251">
        <ele>617</ele>
        <time>2012-04-05T17:41:38Z</time>
      </trkpt>
      <trkpt lat="43.41022" lon="2.12259">
        <ele>617</ele>
        <time>2012-04-05T17:41:40Z</time>
      </trkpt>
      <trkpt lat="43.41024" lon="2.12266">
        <ele>617</ele>
        <time>2012-04-05T17:41:42Z</time>
      </trkpt>
      <trkpt lat="43.41027" lon="2.12277">
        <ele>617</ele>
        <time>2012-04-05T17:41:45Z</time>
      </trkpt>
      <trkpt lat="43.41029" lon="2.12284">
        <ele>617</ele>
        <time>2012-04-05T17:41:47Z</time>
      </trkpt>
      <trkpt lat="43.41029" lon="2.12291">
        <ele>617</ele>
        <time>2012-04-05T17:41:49Z</time>
      </trkpt>
      <trkpt lat="43.41028" lon="2.12298">
        <ele>617</ele>
        <time>2012-04-05T17:41:51Z</time>
      </trkpt>
      <trkpt lat="43.41024" lon="2.12301">
        <ele>617</ele>
        <time>2012-04-05T17:41:53Z</time>
      </trkpt>
      <trkpt lat="43.41018" lon="2.12297">
        <ele>617</ele>
        <time>2012-04-05T17:41:56Z</time>
      </trkpt>
      <trkpt lat="43.41015" lon="2.1229">
        <ele>617</ele>
        <time>2012-04-05T17:41:58Z</time>
      </trkpt>
      <trkpt lat="43.41014" lon="2.12283">
        <ele>617</ele>
        <time>2012-04-05T17:42:00Z</time>
      </trkpt>
      <trkpt lat="43.41012" lon="2.12275">
        <ele>617</ele>
        <time>2012-04-05T17:42:02Z</time>
      </trkpt>
      <trkpt lat="43.4101" lon="2.12267">
        <ele>617</ele>
        <time>2012-04-05T17:42:04Z</time>
      </trkpt>
      <trkpt lat="43.41008" lon="2.1226">
        <ele>617</ele>
        <time>2012-04-05T17:42:06Z</time>
      </trkpt>
      <trkpt lat="43.41004" lon="2.12249">
        <ele>617</ele>
        <time>2012-04-05T17:42:09Z</time>
      </trkpt>
      <trkpt lat="43.41001" lon="2.12242">
        <ele>617</ele>
        <time>2012-04-05T17:42:11Z</time>
      </trkpt>
      <trkpt lat="43.40999" lon="2.12233">
        <ele>617</ele>
        <time>2012-04-05T17:42:13Z</time>
      </trkpt>
      <trkpt lat="43.40995" lon="2.12222">
        <ele>619</ele>
        <time>2012-04-05T17:42:16Z</time>
      </trkpt>
      <trkpt lat="43.40992" lon="2.12213">
        <ele>619</ele>
        <time>2012-04-05T17:42:18Z</time>
      </trkpt>
      <trkpt lat="43.40989" lon="2.12205">
        <ele>620</ele>
        <time>2012-04-05T17:42:20Z</time>
      </trkpt>
      <trkpt lat="43.40985" lon="2.12197">
        <ele>620</ele>
        <time>2012-04-05T17:42:22Z</time>
      </trkpt>
      <trkpt lat="43.40982" lon="2.12188">
        <ele>620</ele>
        <time>2012-04-05T17:42:24Z</time>
      </trkpt>
      <trkpt lat="43.40979" lon="2.12179">
        <ele>620</ele>
        <time>2012-04-05T17:42:26Z</time>
      </trkpt>
      <trkpt lat="43.40974" lon="2.12171">
        <ele>621</ele>
        <time>2012-04-05T17:42:28Z</time>
      </trkpt>
      <trkpt lat="43.40969" lon="2.12162">
        <ele>622</ele>
        <time>2012-04-05T17:42:30Z</time>
      </trkpt>
      <trkpt lat="43.40963" lon="2.12156">
        <ele>622</ele>
        <time>2012-04-05T17:42:32Z</time>
      </trkpt>
      <trkpt lat="43.40957" lon="2.12149">
        <ele>623</ele>
        <time>2012-04-05T17:42:34Z</time>
      </trkpt>
      <trkpt lat="43.4095" lon="2.12144">
        <ele>623</ele>
        <time>2012-04-05T17:42:36Z</time>
      </trkpt>
      <trkpt lat="43.40942" lon="2.12139">
        <ele>624</ele>
        <time>2012-04-05T17:42:38Z</time>
      </trkpt>
      <trkpt lat="43.40934" lon="2.12135">
        <ele>624</ele>
        <time>2012-04-05T17:42:40Z</time>
      </trkpt>
      <trkpt lat="43.40926" lon="2.12131">
        <ele>625</ele>
        <time>2012-04-05T17:42:42Z</time>
      </trkpt>
      <trkpt lat="43.40915" lon="2.12124">
        <ele>625</ele>
        <time>2012-04-05T17:42:45Z</time>
      </trkpt>
      <trkpt lat="43.40909" lon="2.12117">
        <ele>626</ele>
        <time>2012-04-05T17:42:47Z</time>
      </trkpt>
      <trkpt lat="43.40901" lon="2.12106">
        <ele>627</ele>
        <time>2012-04-05T17:42:50Z</time>
      </trkpt>
      <trkpt lat="43.40895" lon="2.12099">
        <ele>627</ele>
        <time>2012-04-05T17:42:52Z</time>
      </trkpt>
      <trkpt lat="43.40891" lon="2.1209">
        <ele>628</ele>
        <time>2012-04-05T17:42:54Z</time>
      </trkpt>
      <trkpt lat="43.40886" lon="2.12082">
        <ele>628</ele>
        <time>2012-04-05T17:42:56Z</time>
      </trkpt>
      <trkpt lat="43.4088" lon="2.12075">
        <ele>628</ele>
        <time>2012-04-05T17:42:58Z</time>
      </trkpt>
      <trkpt lat="43.40874" lon="2.12067">
        <ele>628</ele>
        <time>2012-04-05T17:43:00Z</time>
      </trkpt>
      <trkpt lat="43.40868" lon="2.12059">
        <ele>628</ele>
        <time>2012-04-05T17:43:02Z</time>
      </trkpt>
      <trkpt lat="43.40864" lon="2.12051">
        <ele>628</ele>
        <time>2012-04-05T17:43:04Z</time>
      </trkpt>
      <trkpt lat="43.4086" lon="2.12041">
        <ele>628</ele>
        <time>2012-04-05T17:43:06Z</time>
      </trkpt>
      <trkpt lat="43.40855" lon="2.12032">
        <ele>628</ele>
        <time>2012-04-05T17:43:08Z</time>
      </trkpt>
      <trkpt lat="43.40852" lon="2.12023">
        <ele>628</ele>
        <time>2012-04-05T17:43:10Z</time>
      </trkpt>
      <trkpt lat="43.40849" lon="2.12013">
        <ele>628</ele>
        <time>2012-04-05T17:43:12Z</time>
      </trkpt>
      <trkpt lat="43.40846" lon="2.12003">
        <ele>628</ele>
        <time>2012-04-05T17:43:14Z</time>
      </trkpt>
      <trkpt lat="43.40842" lon="2.11994">
        <ele>629</ele>
        <time>2012-04-05T17:43:16Z</time>
      </trkpt>
      <trkpt lat="43.40838" lon="2.11985">
        <ele>630</ele>
        <time>2012-04-05T17:43:18Z</time>
      </trkpt>
      <trkpt lat="43.40834" lon="2.11976">
        <ele>630</ele>
        <time>2012-04-05T17:43:20Z</time>
      </trkpt>
      <trkpt lat="43.40829" lon="2.11968">
        <ele>630</ele>
        <time>2012-04-05T17:43:22Z</time>
      </trkpt>
      <trkpt lat="43.40824" lon="2.1196">
        <ele>630</ele>
        <time>2012-04-05T17:43:24Z</time>
      </trkpt>
      <trkpt lat="43.40818" lon="2.11952">
        <ele>631</ele>
        <time>2012-04-05T17:43:26Z</time>
      </trkpt>
      <trkpt lat="43.40813" lon="2.11945">
        <ele>631</ele>
        <time>2012-04-05T17:43:28Z</time>
      </trkpt>
      <trkpt lat="43.40807" lon="2.11938">
        <ele>632</ele>
        <time>2012-04-05T17:43:30Z</time>
      </trkpt>
      <trkpt lat="43.40802" lon="2.11931">
        <ele>632</ele>
        <time>2012-04-05T17:43:32Z</time>
      </trkpt>
      <trkpt lat="43.40795" lon="2.11926">
        <ele>632</ele>
        <time>2012-04-05T17:43:34Z</time>
      </trkpt>
      <trkpt lat="43.40788" lon="2.11923">
        <ele>632</ele>
        <time>2012-04-05T17:43:36Z</time>
      </trkpt>
      <trkpt lat="43.40781" lon="2.1192">
        <ele>632</ele>
        <time>2012-04-05T17:43:38Z</time>
      </trkpt>
      <trkpt lat="43.40773" lon="2.11917">
        <ele>632</ele>
        <time>2012-04-05T17:43:40Z</time>
      </trkpt>
      <trkpt lat="43.40765" lon="2.11915">
        <ele>632</ele>
        <time>2012-04-05T17:43:42Z</time>
      </trkpt>
      <trkpt lat="43.40759" lon="2.11911">
        <ele>632</ele>
        <time>2012-04-05T17:43:44Z</time>
      </trkpt>
      <trkpt lat="43.40752" lon="2.11904">
        <ele>632</ele>
        <time>2012-04-05T17:43:46Z</time>
      </trkpt>
      <trkpt lat="43.40746" lon="2.11895">
        <ele>632</ele>
        <time>2012-04-05T17:43:48Z</time>
      </trkpt>
      <trkpt lat="43.40742" lon="2.11884">
        <ele>632</ele>
        <time>2012-04-05T17:43:50Z</time>
      </trkpt>
      <trkpt lat="43.40741" lon="2.11873">
        <ele>632</ele>
        <time>2012-04-05T17:43:52Z</time>
      </trkpt>
      <trkpt lat="43.4074" lon="2.11861">
        <ele>632</ele>
        <time>2012-04-05T17:43:54Z</time>
      </trkpt>
      <trkpt lat="43.40739" lon="2.1185">
        <ele>633</ele>
        <time>2012-04-05T17:43:56Z</time>
      </trkpt>
      <trkpt lat="43.40738" lon="2.11839">
        <ele>634</ele>
        <time>2012-04-05T17:43:58Z</time>
      </trkpt>
      <trkpt lat="43.40735" lon="2.11827">
        <ele>636</ele>
        <time>2012-04-05T17:44:00Z</time>
      </trkpt>
      <trkpt lat="43.40731" lon="2.11817">
        <ele>638</ele>
        <time>2012-04-05T17:44:02Z</time>
      </trkpt>
      <trkpt lat="43.40728" lon="2.11806">
        <ele>639</ele>
        <time>2012-04-05T17:44:04Z</time>
      </trkpt>
      <trkpt lat="43.40725" lon="2.11795">
        <ele>639</ele>
        <time>2012-04-05T17:44:06Z</time>
      </trkpt>
      <trkpt lat="43.40721" lon="2.11786">
        <ele>639</ele>
        <time>2012-04-05T17:44:08Z</time>
      </trkpt>
      <trkpt lat="43.40717" lon="2.11775">
        <ele>640</ele>
        <time>2012-04-05T17:44:10Z</time>
      </trkpt>
      <trkpt lat="43.40712" lon="2.11766">
        <ele>640</ele>
        <time>2012-04-05T17:44:12Z</time>
      </trkpt>
      <trkpt lat="43.40706" lon="2.11757">
        <ele>640</ele>
        <time>2012-04-05T17:44:14Z</time>
      </trkpt>
      <trkpt lat="43.40701" lon="2.11749">
        <ele>640</ele>
        <time>2012-04-05T17:44:16Z</time>
      </trkpt>
      <trkpt lat="43.40695" lon="2.11741">
        <ele>640</ele>
        <time>2012-04-05T17:44:18Z</time>
      </trkpt>
      <trkpt lat="43.40685" lon="2.1173">
        <ele>640</ele>
        <time>2012-04-05T17:44:21Z</time>
      </trkpt>
      <trkpt lat="43.40678" lon="2.11723">
        <ele>640</ele>
        <time>2012-04-05T17:44:23Z</time>
      </trkpt>
      <trkpt lat="43.40671" lon="2.11716">
        <ele>640</ele>
        <time>2012-04-05T17:44:25Z</time>
      </trkpt>
      <trkpt lat="43.40664" lon="2.11709">
        <ele>640</ele>
        <time>2012-04-05T17:44:27Z</time>
      </trkpt>
      <trkpt lat="43.40657" lon="2.11704">
        <ele>640</ele>
        <time>2012-04-05T17:44:29Z</time>
      </trkpt>
      <trkpt lat="43.40649" lon="2.11697">
        <ele>640</ele>
        <time>2012-04-05T17:44:31Z</time>
      </trkpt>
      <trkpt lat="43.40641" lon="2.11692">
        <ele>640</ele>
        <time>2012-04-05T17:44:33Z</time>
      </trkpt>
      <trkpt lat="43.40633" lon="2.11687">
        <ele>640</ele>
        <time>2012-04-05T17:44:35Z</time>
      </trkpt>
      <trkpt lat="43.40624" lon="2.11682">
        <ele>640</ele>
        <time>2012-04-05T17:44:37Z</time>
      </trkpt>
      <trkpt lat="43.40616" lon="2.1168">
        <ele>641</ele>
        <time>2012-04-05T17:44:39Z</time>
      </trkpt>
      <trkpt lat="43.40607" lon="2.11682">
        <ele>642</ele>
        <time>2012-04-05T17:44:41Z</time>
      </trkpt>
      <trkpt lat="43.40598" lon="2.11687">
        <ele>642</ele>
        <time>2012-04-05T17:44:43Z</time>
      </trkpt>
      <trkpt lat="43.4059" lon="2.11693">
        <ele>642</ele>
        <time>2012-04-05T17:44:45Z</time>
      </trkpt>
      <trkpt lat="43.40583" lon="2.11698">
        <ele>642</ele>
        <time>2012-04-05T17:44:47Z</time>
      </trkpt>
      <trkpt lat="43.40575" lon="2.11705">
        <ele>642</ele>
        <time>2012-04-05T17:44:49Z</time>
      </trkpt>
      <trkpt lat="43.40568" lon="2.11711">
        <ele>641</ele>
        <time>2012-04-05T17:44:51Z</time>
      </trkpt>
      <trkpt lat="43.40561" lon="2.11717">
        <ele>640</ele>
        <time>2012-04-05T17:44:53Z</time>
      </trkpt>
      <trkpt lat="43.40555" lon="2.11723">
        <ele>640</ele>
        <time>2012-04-05T17:44:55Z</time>
      </trkpt>
      <trkpt lat="43.40548" lon="2.1173">
        <ele>639</ele>
        <time>2012-04-05T17:44:57Z</time>
      </trkpt>
      <trkpt lat="43.4054" lon="2.11737">
        <ele>639</ele>
        <time>2012-04-05T17:44:59Z</time>
      </trkpt>
      <trkpt lat="43.40533" lon="2.11744">
        <ele>639</ele>
        <time>2012-04-05T17:45:01Z</time>
      </trkpt>
      <trkpt lat="43.40525" lon="2.11751">
        <ele>638</ele>
        <time>2012-04-05T17:45:03Z</time>
      </trkpt>
      <trkpt lat="43.40518" lon="2.11758">
        <ele>638</ele>
        <time>2012-04-05T17:45:05Z</time>
      </trkpt>
      <trkpt lat="43.4051" lon="2.11766">
        <ele>637</ele>
        <time>2012-04-05T17:45:07Z</time>
      </trkpt>
      <trkpt lat="43.40502" lon="2.11774">
        <ele>637</ele>
        <time>2012-04-05T17:45:09Z</time>
      </trkpt>
      <trkpt lat="43.40495" lon="2.11783">
        <ele>636</ele>
        <time>2012-04-05T17:45:11Z</time>
      </trkpt>
      <trkpt lat="43.40488" lon="2.11792">
        <ele>635</ele>
        <time>2012-04-05T17:45:13Z</time>
      </trkpt>
      <trkpt lat="43.40481" lon="2.11801">
        <ele>635</ele>
        <time>2012-04-05T17:45:15Z</time>
      </trkpt>
      <trkpt lat="43.40474" lon="2.1181">
        <ele>635</ele>
        <time>2012-04-05T17:45:17Z</time>
      </trkpt>
      <trkpt lat="43.40467" lon="2.1182">
        <ele>635</ele>
        <time>2012-04-05T17:45:19Z</time>
      </trkpt>
      <trkpt lat="43.40459" lon="2.11829">
        <ele>635</ele>
        <time>2012-04-05T17:45:21Z</time>
      </trkpt>
      <trkpt lat="43.40452" lon="2.11838">
        <ele>634</ele>
        <time>2012-04-05T17:45:23Z</time>
      </trkpt>
      <trkpt lat="43.40446" lon="2.11847">
        <ele>634</ele>
        <time>2012-04-05T17:45:25Z</time>
      </trkpt>
      <trkpt lat="43.4044" lon="2.11856">
        <ele>633</ele>
        <time>2012-04-05T17:45:27Z</time>
      </trkpt>
      <trkpt lat="43.40435" lon="2.11864">
        <ele>633</ele>
        <time>2012-04-05T17:45:29Z</time>
      </trkpt>
      <trkpt lat="43.40432" lon="2.11873">
        <ele>632</ele>
        <time>2012-04-05T17:45:31Z</time>
      </trkpt>
      <trkpt lat="43.40429" lon="2.11884">
        <ele>632</ele>
        <time>2012-04-05T17:45:33Z</time>
      </trkpt>
      <trkpt lat="43.40428" lon="2.11894">
        <ele>631</ele>
        <time>2012-04-05T17:45:35Z</time>
      </trkpt>
      <trkpt lat="43.40427" lon="2.11906">
        <ele>630</ele>
        <time>2012-04-05T17:45:37Z</time>
      </trkpt>
      <trkpt lat="43.40427" lon="2.11917">
        <ele>630</ele>
        <time>2012-04-05T17:45:39Z</time>
      </trkpt>
      <trkpt lat="43.40432" lon="2.11927">
        <ele>630</ele>
        <time>2012-04-05T17:45:41Z</time>
      </trkpt>
      <trkpt lat="43.40437" lon="2.11936">
        <ele>629</ele>
        <time>2012-04-05T17:45:43Z</time>
      </trkpt>
      <trkpt lat="43.40443" lon="2.11944">
        <ele>629</ele>
        <time>2012-04-05T17:45:45Z</time>
      </trkpt>
      <trkpt lat="43.40451" lon="2.11949">
        <ele>628</ele>
        <time>2012-04-05T17:45:47Z</time>
      </trkpt>
      <trkpt lat="43.40458" lon="2.11955">
        <ele>628</ele>
        <time>2012-04-05T17:45:49Z</time>
      </trkpt>
      <trkpt lat="43.40464" lon="2.11964">
        <ele>628</ele>
        <time>2012-04-05T17:45:51Z</time>
      </trkpt>
      <trkpt lat="43.40469" lon="2.11973">
        <ele>628</ele>
        <time>2012-04-05T17:45:53Z</time>
      </trkpt>
      <trkpt lat="43.40471" lon="2.11983">
        <ele>628</ele>
        <time>2012-04-05T17:45:55Z</time>
      </trkpt>
      <trkpt lat="43.40469" lon="2.11996">
        <ele>628</ele>
        <time>2012-04-05T17:45:57Z</time>
      </trkpt>
      <trkpt lat="43.40467" lon="2.12011">
        <ele>630</ele>
        <time>2012-04-05T17:45:59Z</time>
      </trkpt>
      <trkpt lat="43.40463" lon="2.12024">
        <ele>632</ele>
        <time>2012-04-05T17:46:01Z</time>
      </trkpt>
      <trkpt lat="43.40458" lon="2.12037">
        <ele>633</ele>
        <time>2012-04-05T17:46:03Z</time>
      </trkpt>
      <trkpt lat="43.40452" lon="2.12053">
        <ele>634</ele>
        <time>2012-04-05T17:46:05Z</time>
      </trkpt>
      <trkpt lat="43.40448" lon="2.1207">
        <ele>634</ele>
        <time>2012-04-05T17:46:07Z</time>
      </trkpt>
      <trkpt lat="43.40445" lon="2.12086">
        <ele>634</ele>
        <time>2012-04-05T17:46:09Z</time>
      </trkpt>
      <trkpt lat="43.40443" lon="2.12101">
        <ele>634</ele>
        <time>2012-04-05T17:46:11Z</time>
      </trkpt>
      <trkpt lat="43.40442" lon="2.12116">
        <ele>632</ele>
        <time>2012-04-05T17:46:13Z</time>
      </trkpt>
      <trkpt lat="43.40441" lon="2.12131">
        <ele>631</ele>
        <time>2012-04-05T17:46:15Z</time>
      </trkpt>
      <trkpt lat="43.40441" lon="2.12146">
        <ele>631</ele>
        <time>2012-04-05T17:46:17Z</time>
      </trkpt>
      <trkpt lat="43.40443" lon="2.12161">
        <ele>631</ele>
        <time>2012-04-05T17:46:19Z</time>
      </trkpt>
      <trkpt lat="43.40446" lon="2.12174">
        <ele>631</ele>
        <time>2012-04-05T17:46:21Z</time>
      </trkpt>
      <trkpt lat="43.40451" lon="2.12187">
        <ele>631</ele>
        <time>2012-04-05T17:46:23Z</time>
      </trkpt>
      <trkpt lat="43.40453" lon="2.12201">
        <ele>630</ele>
        <time>2012-04-05T17:46:25Z</time>
      </trkpt>
      <trkpt lat="43.40452" lon="2.12215">
        <ele>629</ele>
        <time>2012-04-05T17:46:27Z</time>
      </trkpt>
      <trkpt lat="43.4045" lon="2.12225">
        <ele>628</ele>
        <time>2012-04-05T17:46:29Z</time>
      </trkpt>
      <trkpt lat="43.40445" lon="2.12229">
        <ele>627</ele>
        <time>2012-04-05T17:46:31Z</time>
      </trkpt>
      <trkpt lat="43.40442" lon="2.12231">
        <ele>627</ele>
        <time>2012-04-05T17:46:33Z</time>
      </trkpt>
      <trkpt lat="43.40441" lon="2.12234">
        <ele>627</ele>
        <time>2012-04-05T17:46:35Z</time>
      </trkpt>
      <trkpt lat="43.4044" lon="2.12238">
        <ele>627</ele>
        <time>2012-04-05T17:46:37Z</time>
      </trkpt>
      <trkpt lat="43.40438" lon="2.12242">
        <ele>627</ele>
        <time>2012-04-05T17:46:40Z</time>
      </trkpt>
      <trkpt lat="43.40437" lon="2.12246">
        <ele>627</ele>
        <time>2012-04-05T17:46:43Z</time>
      </trkpt>
      <trkpt lat="43.40436" lon="2.12247">
        <ele>627</ele>
        <time>2012-04-05T17:46:45Z</time>
      </trkpt>
      <trkpt lat="43.40434" lon="2.12248">
        <ele>627</ele>
        <time>2012-04-05T17:46:47Z</time>
      </trkpt>
      <trkpt lat="43.40433" lon="2.12246">
        <ele>627</ele>
        <time>2012-04-05T17:46:49Z</time>
      </trkpt>
      <trkpt lat="43.40432" lon="2.12243">
        <ele>627</ele>
        <time>2012-04-05T17:46:51Z</time>
      </trkpt>
      <trkpt lat="43.40432" lon="2.1224">
        <ele>627</ele>
        <time>2012-04-05T17:46:53Z</time>
      </trkpt>
      <trkpt lat="43.40431" lon="2.12234">
        <ele>627</ele>
        <time>2012-04-05T17:46:55Z</time>
      </trkpt>
      <trkpt lat="43.40428" lon="2.12227">
        <ele>627</ele>
        <time>2012-04-05T17:46:57Z</time>
      </trkpt>
      <trkpt lat="43.40424" lon="2.12219">
        <ele>627</ele>
        <time>2012-04-05T17:46:59Z</time>
      </trkpt>
      <trkpt lat="43.4042" lon="2.12208">
        <ele>627</ele>
        <time>2012-04-05T17:47:01Z</time>
      </trkpt>
      <trkpt lat="43.40416" lon="2.12195">
        <ele>627</ele>
        <time>2012-04-05T17:47:03Z</time>
      </trkpt>
      <trkpt lat="43.40409" lon="2.12183">
        <ele>625</ele>
        <time>2012-04-05T17:47:05Z</time>
      </trkpt>
      <trkpt lat="43.40404" lon="2.1217">
        <ele>623</ele>
        <time>2012-04-05T17:47:07Z</time>
      </trkpt>
      <trkpt lat="43.404" lon="2.12156">
        <ele>621</ele>
        <time>2012-04-05T17:47:09Z</time>
      </trkpt>
      <trkpt lat="43.40396" lon="2.1214">
        <ele>619</ele>
        <time>2012-04-05T17:47:11Z</time>
      </trkpt>
      <trkpt lat="43.40389" lon="2.12112">
        <ele>616</ele>
        <time>2012-04-05T17:47:14Z</time>
      </trkpt>
      <trkpt lat="43.40383" lon="2.12092">
        <ele>616</ele>
        <time>2012-04-05T17:47:16Z</time>
      </trkpt>
      <trkpt lat="43.40379" lon="2.12071">
        <ele>616</ele>
        <time>2012-04-05T17:47:18Z</time>
      </trkpt>
      <trkpt lat="43.40374" lon="2.12051">
        <ele>616</ele>
        <time>2012-04-05T17:47:20Z</time>
      </trkpt>
      <trkpt lat="43.40366" lon="2.12033">
        <ele>616</ele>
        <time>2012-04-05T17:47:22Z</time>
      </trkpt>
      <trkpt lat="43.40358" lon="2.12017">
        <ele>616</ele>
        <time>2012-04-05T17:47:24Z</time>
      </trkpt>
      <trkpt lat="43.40351" lon="2.11999">
        <ele>616</ele>
        <time>2012-04-05T17:47:26Z</time>
      </trkpt>
      <trkpt lat="43.40345" lon="2.11982">
        <ele>616</ele>
        <time>2012-04-05T17:47:28Z</time>
      </trkpt>
      <trkpt lat="43.40339" lon="2.11966">
        <ele>616</ele>
        <time>2012-04-05T17:47:30Z</time>
      </trkpt>
      <trkpt lat="43.40334" lon="2.11952">
        <ele>616</ele>
        <time>2012-04-05T17:47:33Z</time>
      </trkpt>
      <trkpt lat="43.40329" lon="2.1194">
        <ele>616</ele>
        <time>2012-04-05T17:47:35Z</time>
      </trkpt>
      <trkpt lat="43.40325" lon="2.11926">
        <ele>616</ele>
        <time>2012-04-05T17:47:37Z</time>
      </trkpt>
      <trkpt lat="43.40321" lon="2.11912">
        <ele>616</ele>
        <time>2012-04-05T17:47:39Z</time>
      </trkpt>
      <trkpt lat="43.40318" lon="2.11901">
        <ele>616</ele>
        <time>2012-04-05T17:47:41Z</time>
      </trkpt>
      <trkpt lat="43.40313" lon="2.11891">
        <ele>614</ele>
        <time>2012-04-05T17:47:43Z</time>
      </trkpt>
      <trkpt lat="43.40306" lon="2.11885">
        <ele>612</ele>
        <time>2012-04-05T17:47:45Z</time>
      </trkpt>
      <trkpt lat="43.40299" lon="2.11882">
        <ele>610</ele>
        <time>2012-04-05T17:47:47Z</time>
      </trkpt>
      <trkpt lat="43.40292" lon="2.1188">
        <ele>608</ele>
        <time>2012-04-05T17:47:49Z</time>
      </trkpt>
      <trkpt lat="43.40283" lon="2.1188">
        <ele>606</ele>
        <time>2012-04-05T17:47:51Z</time>
      </trkpt>
      <trkpt lat="43.40274" lon="2.11881">
        <ele>605</ele>
        <time>2012-04-05T17:47:53Z</time>
      </trkpt>
      <trkpt lat="43.40264" lon="2.11881">
        <ele>605</ele>
        <time>2012-04-05T17:47:55Z</time>
      </trkpt>
      <trkpt lat="43.40251" lon="2.11878">
        <ele>605</ele>
        <time>2012-04-05T17:47:57Z</time>
      </trkpt>
      <trkpt lat="43.40239" lon="2.11871">
        <ele>605</ele>
        <time>2012-04-05T17:47:59Z</time>
      </trkpt>
      <trkpt lat="43.40226" lon="2.11864">
        <ele>605</ele>
        <time>2012-04-05T17:48:01Z</time>
      </trkpt>
      <trkpt lat="43.40212" lon="2.11856">
        <ele>605</ele>
        <time>2012-04-05T17:48:03Z</time>
      </trkpt>
      <trkpt lat="43.40198" lon="2.11848">
        <ele>605</ele>
        <time>2012-04-05T17:48:05Z</time>
      </trkpt>
      <trkpt lat="43.40188" lon="2.11845">
        <ele>605</ele>
        <time>2012-04-05T17:48:07Z</time>
      </trkpt>
      <trkpt lat="43.40177" lon="2.11843">
        <ele>604</ele>
        <time>2012-04-05T17:48:09Z</time>
      </trkpt>
      <trkpt lat="43.40168" lon="2.11843">
        <ele>602</ele>
        <time>2012-04-05T17:48:11Z</time>
      </trkpt>
      <trkpt lat="43.40158" lon="2.11842">
        <ele>601</ele>
        <time>2012-04-05T17:48:13Z</time>
      </trkpt>
      <trkpt lat="43.40148" lon="2.1184">
        <ele>599</ele>
        <time>2012-04-05T17:48:15Z</time>
      </trkpt>
      <trkpt lat="43.40139" lon="2.11839">
        <ele>598</ele>
        <time>2012-04-05T17:48:17Z</time>
      </trkpt>
      <trkpt lat="43.4013" lon="2.11838">
        <ele>596</ele>
        <time>2012-04-05T17:48:19Z</time>
      </trkpt>
      <trkpt lat="43.40121" lon="2.11838">
        <ele>594</ele>
        <time>2012-04-05T17:48:21Z</time>
      </trkpt>
      <trkpt lat="43.40112" lon="2.11838">
        <ele>593</ele>
        <time>2012-04-05T17:48:23Z</time>
      </trkpt>
      <trkpt lat="43.401" lon="2.11836">
        <ele>592</ele>
        <time>2012-04-05T17:48:25Z</time>
      </trkpt>
      <trkpt lat="43.40088" lon="2.11832">
        <ele>591</ele>
        <time>2012-04-05T17:48:27Z</time>
      </trkpt>
      <trkpt lat="43.40078" lon="2.1183">
        <ele>591</ele>
        <time>2012-04-05T17:48:29Z</time>
      </trkpt>
      <trkpt lat="43.40071" lon="2.11823">
        <ele>591</ele>
        <time>2012-04-05T17:48:31Z</time>
      </trkpt>
      <trkpt lat="43.40064" lon="2.11814">
        <ele>591</ele>
        <time>2012-04-05T17:48:33Z</time>
      </trkpt>
      <trkpt lat="43.40057" lon="2.11811">
        <ele>591</ele>
        <time>2012-04-05T17:48:35Z</time>
      </trkpt>
      <trkpt lat="43.4005" lon="2.11813">
        <ele>590</ele>
        <time>2012-04-05T17:48:37Z</time>
      </trkpt>
      <trkpt lat="43.40042" lon="2.11815">
        <ele>589</ele>
        <time>2012-04-05T17:48:39Z</time>
      </trkpt>
      <trkpt lat="43.40035" lon="2.11818">
        <ele>588</ele>
        <time>2012-04-05T17:48:41Z</time>
      </trkpt>
      <trkpt lat="43.40028" lon="2.1182">
        <ele>588</ele>
        <time>2012-04-05T17:48:43Z</time>
      </trkpt>
      <trkpt lat="43.40021" lon="2.1182">
        <ele>587</ele>
        <time>2012-04-05T17:48:45Z</time>
      </trkpt>
      <trkpt lat="43.40013" lon="2.11818">
        <ele>586</ele>
        <time>2012-04-05T17:48:47Z</time>
      </trkpt>
      <trkpt lat="43.40008" lon="2.11809">
        <ele>585</ele>
        <time>2012-04-05T17:48:49Z</time>
      </trkpt>
      <trkpt lat="43.40004" lon="2.11797">
        <ele>584</ele>
        <time>2012-04-05T17:48:51Z</time>
      </trkpt>
      <trkpt lat="43.40002" lon="2.11784">
        <ele>584</ele>
        <time>2012-04-05T17:48:53Z</time>
      </trkpt>
      <trkpt lat="43.39999" lon="2.1177">
        <ele>584</ele>
        <time>2012-04-05T17:48:55Z</time>
      </trkpt>
      <trkpt lat="43.39994" lon="2.11756">
        <ele>584</ele>
        <time>2012-04-05T17:48:57Z</time>
      </trkpt>
      <trkpt lat="43.39988" lon="2.11744">
        <ele>584</ele>
        <time>2012-04-05T17:48:59Z</time>
      </trkpt>
      <trkpt lat="43.39981" lon="2.11733">
        <ele>584</ele>
        <time>2012-04-05T17:49:01Z</time>
      </trkpt>
      <trkpt lat="43.39973" lon="2.11724">
        <ele>584</ele>
        <time>2012-04-05T17:49:03Z</time>
      </trkpt>
      <trkpt lat="43.39966" lon="2.11717">
        <ele>584</ele>
        <time>2012-04-05T17:49:05Z</time>
      </trkpt>
      <trkpt lat="43.39958" lon="2.11709">
        <ele>584</ele>
        <time>2012-04-05T17:49:07Z</time>
      </trkpt>
      <trkpt lat="43.39952" lon="2.11701">
        <ele>584</ele>
        <time>2012-04-05T17:49:09Z</time>
      </trkpt>
      <trkpt lat="43.39948" lon="2.11691">
        <ele>584</ele>
        <time>2012-04-05T17:49:11Z</time>
      </trkpt>
      <trkpt lat="43.39945" lon="2.11682">
        <ele>584</ele>
        <time>2012-04-05T17:49:13Z</time>
      </trkpt>
      <trkpt lat="43.39943" lon="2.11671">
        <ele>584</ele>
        <time>2012-04-05T17:49:15Z</time>
      </trkpt>
      <trkpt lat="43.39943" lon="2.1166">
        <ele>585</ele>
        <time>2012-04-05T17:49:17Z</time>
      </trkpt>
      <trkpt lat="43.39943" lon="2.11649">
        <ele>586</ele>
        <time>2012-04-05T17:49:19Z</time>
      </trkpt>
      <trkpt lat="43.39944" lon="2.11638">
        <ele>586</ele>
        <time>2012-04-05T17:49:21Z</time>
      </trkpt>
      <trkpt lat="43.39944" lon="2.11627">
        <ele>587</ele>
        <time>2012-04-05T17:49:23Z</time>
      </trkpt>
      <trkpt lat="43.39944" lon="2.11616">
        <ele>587</ele>
        <time>2012-04-05T17:49:25Z</time>
      </trkpt>
      <trkpt lat="43.39945" lon="2.11605">
        <ele>587</ele>
        <time>2012-04-05T17:49:27Z</time>
      </trkpt>
      <trkpt lat="43.39945" lon="2.11594">
        <ele>587</ele>
        <time>2012-04-05T17:49:29Z</time>
      </trkpt>
      <trkpt lat="43.39945" lon="2.11583">
        <ele>587</ele>
        <time>2012-04-05T17:49:31Z</time>
      </trkpt>
      <trkpt lat="43.39947" lon="2.11571">
        <ele>587</ele>
        <time>2012-04-05T17:49:33Z</time>
      </trkpt>
      <trkpt lat="43.39948" lon="2.11558">
        <ele>587</ele>
        <time>2012-04-05T17:49:35Z</time>
      </trkpt>
      <trkpt lat="43.39949" lon="2.11544">
        <ele>587</ele>
        <time>2012-04-05T17:49:37Z</time>
      </trkpt>
      <trkpt lat="43.39951" lon="2.1153">
        <ele>587</ele>
        <time>2012-04-05T17:49:39Z</time>
      </trkpt>
      <trkpt lat="43.39957" lon="2.11515">
        <ele>587</ele>
        <time>2012-04-05T17:49:41Z</time>
      </trkpt>
      <trkpt lat="43.39967" lon="2.11504">
        <ele>587</ele>
        <time>2012-04-05T17:49:43Z</time>
      </trkpt>
      <trkpt lat="43.39983" lon="2.11506">
        <ele>587</ele>
        <time>2012-04-05T17:49:45Z</time>
      </trkpt>
      <trkpt lat="43.40003" lon="2.11517">
        <ele>586</ele>
        <time>2012-04-05T17:49:48Z</time>
      </trkpt>
      <trkpt lat="43.40016" lon="2.11524">
        <ele>584</ele>
        <time>2012-04-05T17:49:50Z</time>
      </trkpt>
      <trkpt lat="43.40028" lon="2.1153">
        <ele>583</ele>
        <time>2012-04-05T17:49:52Z</time>
      </trkpt>
      <trkpt lat="43.4004" lon="2.11536">
        <ele>582</ele>
        <time>2012-04-05T17:49:54Z</time>
      </trkpt>
      <trkpt lat="43.40052" lon="2.11545">
        <ele>582</ele>
        <time>2012-04-05T17:49:56Z</time>
      </trkpt>
      <trkpt lat="43.40062" lon="2.11557">
        <ele>581</ele>
        <time>2012-04-05T17:49:58Z</time>
      </trkpt>
      <trkpt lat="43.40073" lon="2.11572">
        <ele>580</ele>
        <time>2012-04-05T17:50:00Z</time>
      </trkpt>
      <trkpt lat="43.40081" lon="2.11588">
        <ele>580</ele>
        <time>2012-04-05T17:50:02Z</time>
      </trkpt>
      <trkpt lat="43.4009" lon="2.11604">
        <ele>579</ele>
        <time>2012-04-05T17:50:04Z</time>
      </trkpt>
      <trkpt lat="43.40099" lon="2.1162">
        <ele>579</ele>
        <time>2012-04-05T17:50:06Z</time>
      </trkpt>
      <trkpt lat="43.40108" lon="2.11636">
        <ele>578</ele>
        <time>2012-04-05T17:50:08Z</time>
      </trkpt>
      <trkpt lat="43.40118" lon="2.11648">
        <ele>578</ele>
        <time>2012-04-05T17:50:10Z</time>
      </trkpt>
      <trkpt lat="43.4013" lon="2.11655">
        <ele>578</ele>
        <time>2012-04-05T17:50:12Z</time>
      </trkpt>
      <trkpt lat="43.40144" lon="2.11656">
        <ele>578</ele>
        <time>2012-04-05T17:50:14Z</time>
      </trkpt>
      <trkpt lat="43.40156" lon="2.11651">
        <ele>578</ele>
        <time>2012-04-05T17:50:16Z</time>
      </trkpt>
      <trkpt lat="43.40166" lon="2.11641">
        <ele>578</ele>
        <time>2012-04-05T17:50:18Z</time>
      </trkpt>
      <trkpt lat="43.40173" lon="2.11626">
        <ele>578</ele>
        <time>2012-04-05T17:50:20Z</time>
      </trkpt>
      <trkpt lat="43.40181" lon="2.11611">
        <ele>577</ele>
        <time>2012-04-05T17:50:22Z</time>
      </trkpt>
      <trkpt lat="43.40189" lon="2.11596">
        <ele>577</ele>
        <time>2012-04-05T17:50:24Z</time>
      </trkpt>
      <trkpt lat="43.40197" lon="2.11581">
        <ele>577</ele>
        <time>2012-04-05T17:50:26Z</time>
      </trkpt>
      <trkpt lat="43.40205" lon="2.11567">
        <ele>577</ele>
        <time>2012-04-05T17:50:28Z</time>
      </trkpt>
      <trkpt lat="43.40211" lon="2.11552">
        <ele>577</ele>
        <time>2012-04-05T17:50:30Z</time>
      </trkpt>
      <trkpt lat="43.40217" lon="2.11536">
        <ele>577</ele>
        <time>2012-04-05T17:50:32Z</time>
      </trkpt>
      <trkpt lat="43.40223" lon="2.1152">
        <ele>577</ele>
        <time>2012-04-05T17:50:34Z</time>
      </trkpt>
      <trkpt lat="43.40226" lon="2.11504">
        <ele>577</ele>
        <time>2012-04-05T17:50:36Z</time>
      </trkpt>
      <trkpt lat="43.40233" lon="2.11489">
        <ele>577</ele>
        <time>2012-04-05T17:50:38Z</time>
      </trkpt>
      <trkpt lat="43.40241" lon="2.11476">
        <ele>577</ele>
        <time>2012-04-05T17:50:40Z</time>
      </trkpt>
      <trkpt lat="43.40251" lon="2.11465">
        <ele>577</ele>
        <time>2012-04-05T17:50:42Z</time>
      </trkpt>
      <trkpt lat="43.40261" lon="2.11456">
        <ele>577</ele>
        <time>2012-04-05T17:50:44Z</time>
      </trkpt>
      <trkpt lat="43.40272" lon="2.11449">
        <ele>577</ele>
        <time>2012-04-05T17:50:46Z</time>
      </trkpt>
      <trkpt lat="43.40284" lon="2.11444">
        <ele>578</ele>
        <time>2012-04-05T17:50:48Z</time>
      </trkpt>
      <trkpt lat="43.40296" lon="2.11443">
        <ele>578</ele>
        <time>2012-04-05T17:50:50Z</time>
      </trkpt>
      <trkpt lat="43.40309" lon="2.11444">
        <ele>578</ele>
        <time>2012-04-05T17:50:52Z</time>
      </trkpt>
      <trkpt lat="43.40321" lon="2.11444">
        <ele>578</ele>
        <time>2012-04-05T17:50:54Z</time>
      </trkpt>
      <trkpt lat="43.40334" lon="2.11442">
        <ele>578</ele>
        <time>2012-04-05T17:50:56Z</time>
      </trkpt>
      <trkpt lat="43.40348" lon="2.11441">
        <ele>578</ele>
        <time>2012-04-05T17:50:58Z</time>
      </trkpt>
      <trkpt lat="43.40361" lon="2.11441">
        <ele>578</ele>
        <time>2012-04-05T17:51:00Z</time>
      </trkpt>
      <trkpt lat="43.40375" lon="2.11442">
        <ele>578</ele>
        <time>2012-04-05T17:51:02Z</time>
      </trkpt>
      <trkpt lat="43.40389" lon="2.11444">
        <ele>579</ele>
        <time>2012-04-05T17:51:04Z</time>
      </trkpt>
      <trkpt lat="43.40403" lon="2.11448">
        <ele>579</ele>
        <time>2012-04-05T17:51:06Z</time>
      </trkpt>
      <trkpt lat="43.40416" lon="2.11458">
        <ele>579</ele>
        <time>2012-04-05T17:51:08Z</time>
      </trkpt>
      <trkpt lat="43.40429" lon="2.1147">
        <ele>579</ele>
        <time>2012-04-05T17:51:10Z</time>
      </trkpt>
      <trkpt lat="43.40442" lon="2.11482">
        <ele>579</ele>
        <time>2012-04-05T17:51:12Z</time>
      </trkpt>
      <trkpt lat="43.40453" lon="2.11493">
        <ele>579</ele>
        <time>2012-04-05T17:51:14Z</time>
      </trkpt>
      <trkpt lat="43.40466" lon="2.11501">
        <ele>579</ele>
        <time>2012-04-05T17:51:16Z</time>
      </trkpt>
      <trkpt lat="43.4048" lon="2.11505">
        <ele>579</ele>
        <time>2012-04-05T17:51:18Z</time>
      </trkpt>
      <trkpt lat="43.40493" lon="2.11507">
        <ele>579</ele>
        <time>2012-04-05T17:51:20Z</time>
      </trkpt>
      <trkpt lat="43.40506" lon="2.11507">
        <ele>579</ele>
        <time>2012-04-05T17:51:22Z</time>
      </trkpt>
      <trkpt lat="43.40519" lon="2.11506">
        <ele>580</ele>
        <time>2012-04-05T17:51:24Z</time>
      </trkpt>
      <trkpt lat="43.40532" lon="2.11506">
        <ele>580</ele>
        <time>2012-04-05T17:51:26Z</time>
      </trkpt>
      <trkpt lat="43.40543" lon="2.11505">
        <ele>582</ele>
        <time>2012-04-05T17:51:28Z</time>
      </trkpt>
      <trkpt lat="43.40556" lon="2.11503">
        <ele>582</ele>
        <time>2012-04-05T17:51:30Z</time>
      </trkpt>
      <trkpt lat="43.40568" lon="2.11503">
        <ele>582</ele>
        <time>2012-04-05T17:51:32Z</time>
      </trkpt>
      <trkpt lat="43.40579" lon="2.11501">
        <ele>582</ele>
        <time>2012-04-05T17:51:34Z</time>
      </trkpt>
      <trkpt lat="43.4059" lon="2.11497">
        <ele>582</ele>
        <time>2012-04-05T17:51:36Z</time>
      </trkpt>
      <trkpt lat="43.40601" lon="2.11494">
        <ele>582</ele>
        <time>2012-04-05T17:51:38Z</time>
      </trkpt>
      <trkpt lat="43.40614" lon="2.11491">
        <ele>582</ele>
        <time>2012-04-05T17:51:40Z</time>
      </trkpt>
      <trkpt lat="43.40625" lon="2.11485">
        <ele>582</ele>
        <time>2012-04-05T17:51:42Z</time>
      </trkpt>
      <trkpt lat="43.40628" lon="2.11471">
        <ele>582</ele>
        <time>2012-04-05T17:51:44Z</time>
      </trkpt>
      <trkpt lat="43.40622" lon="2.11458">
        <ele>583</ele>
        <time>2012-04-05T17:51:46Z</time>
      </trkpt>
      <trkpt lat="43.40606" lon="2.11448">
        <ele>585</ele>
        <time>2012-04-05T17:51:48Z</time>
      </trkpt>
      <trkpt lat="43.40588" lon="2.11441">
        <ele>587</ele>
        <time>2012-04-05T17:51:50Z</time>
      </trkpt>
      <trkpt lat="43.40579" lon="2.11443">
        <ele>589</ele>
        <time>2012-04-05T17:51:52Z</time>
      </trkpt>
      <trkpt lat="43.4057" lon="2.11443">
        <ele>591</ele>
        <time>2012-04-05T17:51:54Z</time>
      </trkpt>
      <trkpt lat="43.4056" lon="2.11441">
        <ele>591</ele>
        <time>2012-04-05T17:51:56Z</time>
      </trkpt>
      <trkpt lat="43.4055" lon="2.11439">
        <ele>591</ele>
        <time>2012-04-05T17:51:58Z</time>
      </trkpt>
      <trkpt lat="43.4054" lon="2.11436">
        <ele>589</ele>
        <time>2012-04-05T17:52:00Z</time>
      </trkpt>
      <trkpt lat="43.40531" lon="2.11432">
        <ele>588</ele>
        <time>2012-04-05T17:52:02Z</time>
      </trkpt>
      <trkpt lat="43.40522" lon="2.11428">
        <ele>587</ele>
        <time>2012-04-05T17:52:04Z</time>
      </trkpt>
      <trkpt lat="43.40514" lon="2.11423">
        <ele>587</ele>
        <time>2012-04-05T17:52:06Z</time>
      </trkpt>
      <trkpt lat="43.40506" lon="2.11419">
        <ele>587</ele>
        <time>2012-04-05T17:52:08Z</time>
      </trkpt>
      <trkpt lat="43.40498" lon="2.11414">
        <ele>587</ele>
        <time>2012-04-05T17:52:10Z</time>
      </trkpt>
      <trkpt lat="43.4049" lon="2.11409">
        <ele>587</ele>
        <time>2012-04-05T17:52:12Z</time>
      </trkpt>
      <trkpt lat="43.40482" lon="2.11404">
        <ele>587</ele>
        <time>2012-04-05T17:52:14Z</time>
      </trkpt>
      <trkpt lat="43.40475" lon="2.11398">
        <ele>587</ele>
        <time>2012-04-05T17:52:16Z</time>
      </trkpt>
      <trkpt lat="43.40469" lon="2.11391">
        <ele>586</ele>
        <time>2012-04-05T17:52:18Z</time>
      </trkpt>
      <trkpt lat="43.40464" lon="2.11382">
        <ele>585</ele>
        <time>2012-04-05T17:52:20Z</time>
      </trkpt>
      <trkpt lat="43.40461" lon="2.11371">
        <ele>584</ele>
        <time>2012-04-05T17:52:22Z</time>
      </trkpt>
      <trkpt lat="43.40458" lon="2.11359">
        <ele>583</ele>
        <time>2012-04-05T17:52:24Z</time>
      </trkpt>
      <trkpt lat="43.40453" lon="2.11348">
        <ele>582</ele>
        <time>2012-04-05T17:52:26Z</time>
      </trkpt>
      <trkpt lat="43.40445" lon="2.1134">
        <ele>582</ele>
        <time>2012-04-05T17:52:28Z</time>
      </trkpt>
      <trkpt lat="43.40435" lon="2.11337">
        <ele>582</ele>
        <time>2012-04-05T17:52:30Z</time>
      </trkpt>
      <trkpt lat="43.40426" lon="2.11335">
        <ele>582</ele>
        <time>2012-04-05T17:52:32Z</time>
      </trkpt>
      <trkpt lat="43.40416" lon="2.11332">
        <ele>582</ele>
        <time>2012-04-05T17:52:34Z</time>
      </trkpt>
      <trkpt lat="43.40406" lon="2.11328">
        <ele>581</ele>
        <time>2012-04-05T17:52:36Z</time>
      </trkpt>
      <trkpt lat="43.40396" lon="2.11322">
        <ele>580</ele>
        <time>2012-04-05T17:52:38Z</time>
      </trkpt>
      <trkpt lat="43.40386" lon="2.11318">
        <ele>578</ele>
        <time>2012-04-05T17:52:40Z</time>
      </trkpt>
      <trkpt lat="43.40375" lon="2.11314">
        <ele>578</ele>
        <time>2012-04-05T17:52:42Z</time>
      </trkpt>
      <trkpt lat="43.40358" lon="2.11309">
        <ele>578</ele>
        <time>2012-04-05T17:52:45Z</time>
      </trkpt>
      <trkpt lat="43.40348" lon="2.11309">
        <ele>578</ele>
        <time>2012-04-05T17:52:47Z</time>
      </trkpt>
      <trkpt lat="43.40337" lon="2.11309">
        <ele>578</ele>
        <time>2012-04-05T17:52:49Z</time>
      </trkpt>
      <trkpt lat="43.40327" lon="2.1131">
        <ele>578</ele>
        <time>2012-04-05T17:52:51Z</time>
      </trkpt>
      <trkpt lat="43.40318" lon="2.11311">
        <ele>578</ele>
        <time>2012-04-05T17:52:53Z</time>
      </trkpt>
      <trkpt lat="43.40301" lon="2.11312">
        <ele>578</ele>
        <time>2012-04-05T17:52:56Z</time>
      </trkpt>
      <trkpt lat="43.40291" lon="2.11312">
        <ele>578</ele>
        <time>2012-04-05T17:52:58Z</time>
      </trkpt>
      <trkpt lat="43.40281" lon="2.11312">
        <ele>578</ele>
        <time>2012-04-05T17:53:00Z</time>
      </trkpt>
      <trkpt lat="43.40271" lon="2.11309">
        <ele>578</ele>
        <time>2012-04-05T17:53:02Z</time>
      </trkpt>
      <trkpt lat="43.40255" lon="2.11302">
        <ele>578</ele>
        <time>2012-04-05T17:53:05Z</time>
      </trkpt>
      <trkpt lat="43.40244" lon="2.11297">
        <ele>578</ele>
        <time>2012-04-05T17:53:07Z</time>
      </trkpt>
      <trkpt lat="43.40233" lon="2.11294">
        <ele>578</ele>
        <time>2012-04-05T17:53:09Z</time>
      </trkpt>
      <trkpt lat="43.40217" lon="2.11291">
        <ele>578</ele>
        <time>2012-04-05T17:53:12Z</time>
      </trkpt>
      <trkpt lat="43.40206" lon="2.1129">
        <ele>578</ele>
        <time>2012-04-05T17:53:14Z</time>
      </trkpt>
      <trkpt lat="43.40196" lon="2.1129">
        <ele>578</ele>
        <time>2012-04-05T17:53:16Z</time>
      </trkpt>
      <trkpt lat="43.4018" lon="2.11285">
        <ele>578</ele>
        <time>2012-04-05T17:53:19Z</time>
      </trkpt>
      <trkpt lat="43.40171" lon="2.11278">
        <ele>578</ele>
        <time>2012-04-05T17:53:21Z</time>
      </trkpt>
      <trkpt lat="43.40155" lon="2.11269">
        <ele>578</ele>
        <time>2012-04-05T17:53:24Z</time>
      </trkpt>
      <trkpt lat="43.40145" lon="2.11267">
        <ele>578</ele>
        <time>2012-04-05T17:53:26Z</time>
      </trkpt>
      <trkpt lat="43.40134" lon="2.11265">
        <ele>578</ele>
        <time>2012-04-05T17:53:28Z</time>
      </trkpt>
      <trkpt lat="43.40125" lon="2.11256">
        <ele>578</ele>
        <time>2012-04-05T17:53:30Z</time>
      </trkpt>
      <trkpt lat="43.4012" lon="2.1124">
        <ele>578</ele>
        <time>2012-04-05T17:53:32Z</time>
      </trkpt>
      <trkpt lat="43.40115" lon="2.11221">
        <ele>578</ele>
        <time>2012-04-05T17:53:34Z</time>
      </trkpt>
      <trkpt lat="43.4011" lon="2.112">
        <ele>578</ele>
        <time>2012-04-05T17:53:36Z</time>
      </trkpt>
      <trkpt lat="43.40105" lon="2.11179">
        <ele>578</ele>
        <time>2012-04-05T17:53:38Z</time>
      </trkpt>
      <trkpt lat="43.401" lon="2.11159">
        <ele>578</ele>
        <time>2012-04-05T17:53:40Z</time>
      </trkpt>
      <trkpt lat="43.4009" lon="2.11148">
        <ele>578</ele>
        <time>2012-04-05T17:53:42Z</time>
      </trkpt>
      <trkpt lat="43.40079" lon="2.11148">
        <ele>578</ele>
        <time>2012-04-05T17:53:44Z</time>
      </trkpt>
      <trkpt lat="43.40075" lon="2.11159">
        <ele>577</ele>
        <time>2012-04-05T17:53:46Z</time>
      </trkpt>
      <trkpt lat="43.40066" lon="2.11175">
        <ele>575</ele>
        <time>2012-04-05T17:53:49Z</time>
      </trkpt>
      <trkpt lat="43.40059" lon="2.11185">
        <ele>574</ele>
        <time>2012-04-05T17:53:51Z</time>
      </trkpt>
      <trkpt lat="43.40052" lon="2.11194">
        <ele>574</ele>
        <time>2012-04-05T17:53:53Z</time>
      </trkpt>
      <trkpt lat="43.40046" lon="2.11201">
        <ele>574</ele>
        <time>2012-04-05T17:53:55Z</time>
      </trkpt>
      <trkpt lat="43.40041" lon="2.11208">
        <ele>574</ele>
        <time>2012-04-05T17:53:57Z</time>
      </trkpt>
      <trkpt lat="43.40033" lon="2.11216">
        <ele>573</ele>
        <time>2012-04-05T17:54:00Z</time>
      </trkpt>
      <trkpt lat="43.40027" lon="2.1122">
        <ele>573</ele>
        <time>2012-04-05T17:54:02Z</time>
      </trkpt>
      <trkpt lat="43.4002" lon="2.11224">
        <ele>573</ele>
        <time>2012-04-05T17:54:04Z</time>
      </trkpt>
      <trkpt lat="43.40015" lon="2.11227">
        <ele>573</ele>
        <time>2012-04-05T17:54:06Z</time>
      </trkpt>
      <trkpt lat="43.40009" lon="2.11231">
        <ele>573</ele>
        <time>2012-04-05T17:54:08Z</time>
      </trkpt>
      <trkpt lat="43.40003" lon="2.11234">
        <ele>573</ele>
        <time>2012-04-05T17:54:10Z</time>
      </trkpt>
      <trkpt lat="43.39997" lon="2.11237">
        <ele>573</ele>
        <time>2012-04-05T17:54:12Z</time>
      </trkpt>
      <trkpt lat="43.39989" lon="2.11238">
        <ele>573</ele>
        <time>2012-04-05T17:54:15Z</time>
      </trkpt>
      <trkpt lat="43.39983" lon="2.11238">
        <ele>574</ele>
        <time>2012-04-05T17:54:17Z</time>
      </trkpt>
      <trkpt lat="43.39978" lon="2.11237">
        <ele>576</ele>
        <time>2012-04-05T17:54:19Z</time>
      </trkpt>
      <trkpt lat="43.39973" lon="2.11235">
        <ele>577</ele>
        <time>2012-04-05T17:54:21Z</time>
      </trkpt>
      <trkpt lat="43.39968" lon="2.11231">
        <ele>579</ele>
        <time>2012-04-05T17:54:23Z</time>
      </trkpt>
      <trkpt lat="43.39964" lon="2.11228">
        <ele>581</ele>
        <time>2012-04-05T17:54:25Z</time>
      </trkpt>
      <trkpt lat="43.39957" lon="2.11222">
        <ele>583</ele>
        <time>2012-04-05T17:54:28Z</time>
      </trkpt>
      <trkpt lat="43.39953" lon="2.11217">
        <ele>585</ele>
        <time>2012-04-05T17:54:30Z</time>
      </trkpt>
      <trkpt lat="43.39947" lon="2.1121">
        <ele>587</ele>
        <time>2012-04-05T17:54:33Z</time>
      </trkpt>
      <trkpt lat="43.39944" lon="2.11207">
        <ele>587</ele>
        <time>2012-04-05T17:54:35Z</time>
      </trkpt>
      <trkpt lat="43.3994" lon="2.11203">
        <ele>588</ele>
        <time>2012-04-05T17:54:37Z</time>
      </trkpt>
      <trkpt lat="43.39931" lon="2.11197">
        <ele>589</ele>
        <time>2012-04-05T17:54:40Z</time>
      </trkpt>
      <trkpt lat="43.39926" lon="2.11195">
        <ele>590</ele>
        <time>2012-04-05T17:54:42Z</time>
      </trkpt>
      <trkpt lat="43.3992" lon="2.11193">
        <ele>590</ele>
        <time>2012-04-05T17:54:44Z</time>
      </trkpt>
      <trkpt lat="43.39913" lon="2.11192">
        <ele>591</ele>
        <time>2012-04-05T17:54:46Z</time>
      </trkpt>
      <trkpt lat="43.39905" lon="2.1119">
        <ele>593</ele>
        <time>2012-04-05T17:54:48Z</time>
      </trkpt>
      <trkpt lat="43.39897" lon="2.11189">
        <ele>594</ele>
        <time>2012-04-05T17:54:50Z</time>
      </trkpt>
      <trkpt lat="43.39889" lon="2.11188">
        <ele>595</ele>
        <time>2012-04-05T17:54:52Z</time>
      </trkpt>
      <trkpt lat="43.39881" lon="2.11189">
        <ele>596</ele>
        <time>2012-04-05T17:54:54Z</time>
      </trkpt>
      <trkpt lat="43.39873" lon="2.11189">
        <ele>597</ele>
        <time>2012-04-05T17:54:56Z</time>
      </trkpt>
      <trkpt lat="43.39864" lon="2.1119">
        <ele>598</ele>
        <time>2012-04-05T17:54:58Z</time>
      </trkpt>
      <trkpt lat="43.39851" lon="2.11192">
        <ele>599</ele>
        <time>2012-04-05T17:55:01Z</time>
      </trkpt>
      <trkpt lat="43.39842" lon="2.11193">
        <ele>599</ele>
        <time>2012-04-05T17:55:03Z</time>
      </trkpt>
      <trkpt lat="43.39832" lon="2.11194">
        <ele>599</ele>
        <time>2012-04-05T17:55:05Z</time>
      </trkpt>
      <trkpt lat="43.39822" lon="2.11194">
        <ele>599</ele>
        <time>2012-04-05T17:55:07Z</time>
      </trkpt>
      <trkpt lat="43.39813" lon="2.11194">
        <ele>599</ele>
        <time>2012-04-05T17:55:09Z</time>
      </trkpt>
      <trkpt lat="43.39803" lon="2.11194">
        <ele>597</ele>
        <time>2012-04-05T17:55:11Z</time>
      </trkpt>
      <trkpt lat="43.39787" lon="2.1119">
        <ele>594</ele>
        <time>2012-04-05T17:55:14Z</time>
      </trkpt>
      <trkpt lat="43.39776" lon="2.11181">
        <ele>592</ele>
        <time>2012-04-05T17:55:16Z</time>
      </trkpt>
      <trkpt lat="43.39765" lon="2.11158">
        <ele>589</ele>
        <time>2012-04-05T17:55:19Z</time>
      </trkpt>
      <trkpt lat="43.39766" lon="2.11141">
        <ele>587</ele>
        <time>2012-04-05T17:55:21Z</time>
      </trkpt>
      <trkpt lat="43.39773" lon="2.11124">
        <ele>586</ele>
        <time>2012-04-05T17:55:23Z</time>
      </trkpt>
      <trkpt lat="43.39783" lon="2.11103">
        <ele>586</ele>
        <time>2012-04-05T17:55:26Z</time>
      </trkpt>
      <trkpt lat="43.39787" lon="2.11087">
        <ele>586</ele>
        <time>2012-04-05T17:55:28Z</time>
      </trkpt>
      <trkpt lat="43.39791" lon="2.11065">
        <ele>586</ele>
        <time>2012-04-05T17:55:31Z</time>
      </trkpt>
      <trkpt lat="43.39798" lon="2.11045">
        <ele>586</ele>
        <time>2012-04-05T17:55:34Z</time>
      </trkpt>
      <trkpt lat="43.39806" lon="2.11025">
        <ele>586</ele>
        <time>2012-04-05T17:55:37Z</time>
      </trkpt>
      <trkpt lat="43.39809" lon="2.11011">
        <ele>586</ele>
        <time>2012-04-05T17:55:39Z</time>
      </trkpt>
      <trkpt lat="43.39812" lon="2.10997">
        <ele>586</ele>
        <time>2012-04-05T17:55:41Z</time>
      </trkpt>
      <trkpt lat="43.39814" lon="2.10982">
        <ele>586</ele>
        <time>2012-04-05T17:55:43Z</time>
      </trkpt>
      <trkpt lat="43.39817" lon="2.10968">
        <ele>586</ele>
        <time>2012-04-05T17:55:45Z</time>
      </trkpt>
      <trkpt lat="43.39819" lon="2.10954">
        <ele>586</ele>
        <time>2012-04-05T17:55:47Z</time>
      </trkpt>
      <trkpt lat="43.39824" lon="2.1093">
        <ele>586</ele>
        <time>2012-04-05T17:55:50Z</time>
      </trkpt>
      <trkpt lat="43.39827" lon="2.10914">
        <ele>586</ele>
        <time>2012-04-05T17:55:52Z</time>
      </trkpt>
      <trkpt lat="43.3983" lon="2.10897">
        <ele>586</ele>
        <time>2012-04-05T17:55:54Z</time>
      </trkpt>
      <trkpt lat="43.39834" lon="2.10879">
        <ele>586</ele>
        <time>2012-04-05T17:55:56Z</time>
      </trkpt>
      <trkpt lat="43.39838" lon="2.10861">
        <ele>586</ele>
        <time>2012-04-05T17:55:58Z</time>
      </trkpt>
      <trkpt lat="43.39843" lon="2.10842">
        <ele>585</ele>
        <time>2012-04-05T17:56:00Z</time>
      </trkpt>
      <trkpt lat="43.39848" lon="2.10822">
        <ele>585</ele>
        <time>2012-04-05T17:56:02Z</time>
      </trkpt>
      <trkpt lat="43.39852" lon="2.10802">
        <ele>584</ele>
        <time>2012-04-05T17:56:04Z</time>
      </trkpt>
      <trkpt lat="43.39857" lon="2.10782">
        <ele>583</ele>
        <time>2012-04-05T17:56:06Z</time>
      </trkpt>
      <trkpt lat="43.39861" lon="2.1076">
        <ele>582</ele>
        <time>2012-04-05T17:56:08Z</time>
      </trkpt>
      <trkpt lat="43.39861" lon="2.10737">
        <ele>582</ele>
        <time>2012-04-05T17:56:10Z</time>
      </trkpt>
      <trkpt lat="43.39862" lon="2.10715">
        <ele>582</ele>
        <time>2012-04-05T17:56:12Z</time>
      </trkpt>
      <trkpt lat="43.39864" lon="2.10694">
        <ele>582</ele>
        <time>2012-04-05T17:56:14Z</time>
      </trkpt>
      <trkpt lat="43.3987" lon="2.10676">
        <ele>581</ele>
        <time>2012-04-05T17:56:16Z</time>
      </trkpt>
      <trkpt lat="43.39875" lon="2.1066">
        <ele>581</ele>
        <time>2012-04-05T17:56:18Z</time>
      </trkpt>
      <trkpt lat="43.39881" lon="2.10645">
        <ele>581</ele>
        <time>2012-04-05T17:56:20Z</time>
      </trkpt>
      <trkpt lat="43.39887" lon="2.1063">
        <ele>581</ele>
        <time>2012-04-05T17:56:22Z</time>
      </trkpt>
      <trkpt lat="43.39895" lon="2.10607">
        <ele>581</ele>
        <time>2012-04-05T17:56:25Z</time>
      </trkpt>
      <trkpt lat="43.39902" lon="2.10584">
        <ele>581</ele>
        <time>2012-04-05T17:56:28Z</time>
      </trkpt>
      <trkpt lat="43.39909" lon="2.10571">
        <ele>581</ele>
        <time>2012-04-05T17:56:30Z</time>
      </trkpt>
      <trkpt lat="43.39915" lon="2.10558">
        <ele>581</ele>
        <time>2012-04-05T17:56:32Z</time>
      </trkpt>
      <trkpt lat="43.39923" lon="2.10545">
        <ele>581</ele>
        <time>2012-04-05T17:56:34Z</time>
      </trkpt>
      <trkpt lat="43.39932" lon="2.10533">
        <ele>581</ele>
        <time>2012-04-05T17:56:36Z</time>
      </trkpt>
      <trkpt lat="43.39942" lon="2.10522">
        <ele>581</ele>
        <time>2012-04-05T17:56:38Z</time>
      </trkpt>
      <trkpt lat="43.39951" lon="2.10509">
        <ele>581</ele>
        <time>2012-04-05T17:56:40Z</time>
      </trkpt>
      <trkpt lat="43.3996" lon="2.10497">
        <ele>581</ele>
        <time>2012-04-05T17:56:42Z</time>
      </trkpt>
      <trkpt lat="43.3997" lon="2.10487">
        <ele>581</ele>
        <time>2012-04-05T17:56:44Z</time>
      </trkpt>
      <trkpt lat="43.39978" lon="2.10477">
        <ele>581</ele>
        <time>2012-04-05T17:56:46Z</time>
      </trkpt>
      <trkpt lat="43.39988" lon="2.10469">
        <ele>581</ele>
        <time>2012-04-05T17:56:48Z</time>
      </trkpt>
      <trkpt lat="43.39996" lon="2.10459">
        <ele>581</ele>
        <time>2012-04-05T17:56:50Z</time>
      </trkpt>
      <trkpt lat="43.40003" lon="2.10449">
        <ele>581</ele>
        <time>2012-04-05T17:56:52Z</time>
      </trkpt>
      <trkpt lat="43.4001" lon="2.10439">
        <ele>581</ele>
        <time>2012-04-05T17:56:54Z</time>
      </trkpt>
      <trkpt lat="43.40021" lon="2.10425">
        <ele>581</ele>
        <time>2012-04-05T17:56:57Z</time>
      </trkpt>
      <trkpt lat="43.4003" lon="2.10421">
        <ele>581</ele>
        <time>2012-04-05T17:56:59Z</time>
      </trkpt>
      <trkpt lat="43.40041" lon="2.10425">
        <ele>581</ele>
        <time>2012-04-05T17:57:01Z</time>
      </trkpt>
      <trkpt lat="43.40052" lon="2.10434">
        <ele>581</ele>
        <time>2012-04-05T17:57:03Z</time>
      </trkpt>
      <trkpt lat="43.4006" lon="2.10447">
        <ele>581</ele>
        <time>2012-04-05T17:57:05Z</time>
      </trkpt>
      <trkpt lat="43.40074" lon="2.10466">
        <ele>581</ele>
        <time>2012-04-05T17:57:08Z</time>
      </trkpt>
      <trkpt lat="43.40087" lon="2.10469">
        <ele>580</ele>
        <time>2012-04-05T17:57:10Z</time>
      </trkpt>
      <trkpt lat="43.40105" lon="2.1046">
        <ele>580</ele>
        <time>2012-04-05T17:57:13Z</time>
      </trkpt>
      <trkpt lat="43.40111" lon="2.10446">
        <ele>579</ele>
        <time>2012-04-05T17:57:15Z</time>
      </trkpt>
      <trkpt lat="43.4011" lon="2.10429">
        <ele>579</ele>
        <time>2012-04-05T17:57:17Z</time>
      </trkpt>
      <trkpt lat="43.40105" lon="2.10414">
        <ele>579</ele>
        <time>2012-04-05T17:57:19Z</time>
      </trkpt>
      <trkpt lat="43.401" lon="2.10401">
        <ele>579</ele>
        <time>2012-04-05T17:57:21Z</time>
      </trkpt>
      <trkpt lat="43.40096" lon="2.10386">
        <ele>579</ele>
        <time>2012-04-05T17:57:23Z</time>
      </trkpt>
      <trkpt lat="43.40091" lon="2.10372">
        <ele>579</ele>
        <time>2012-04-05T17:57:25Z</time>
      </trkpt>
      <trkpt lat="43.40086" lon="2.1035">
        <ele>579</ele>
        <time>2012-04-05T17:57:28Z</time>
      </trkpt>
      <trkpt lat="43.4008" lon="2.10329">
        <ele>579</ele>
        <time>2012-04-05T17:57:31Z</time>
      </trkpt>
      <trkpt lat="43.40075" lon="2.10309">
        <ele>579</ele>
        <time>2012-04-05T17:57:34Z</time>
      </trkpt>
      <trkpt lat="43.40071" lon="2.10294">
        <ele>579</ele>
        <time>2012-04-05T17:57:36Z</time>
      </trkpt>
      <trkpt lat="43.4007" lon="2.10279">
        <ele>579</ele>
        <time>2012-04-05T17:57:38Z</time>
      </trkpt>
      <trkpt lat="43.40072" lon="2.10264">
        <ele>579</ele>
        <time>2012-04-05T17:57:40Z</time>
      </trkpt>
      <trkpt lat="43.40078" lon="2.10241">
        <ele>578</ele>
        <time>2012-04-05T17:57:43Z</time>
      </trkpt>
      <trkpt lat="43.40086" lon="2.10221">
        <ele>578</ele>
        <time>2012-04-05T17:57:46Z</time>
      </trkpt>
      <trkpt lat="43.40101" lon="2.1021">
        <ele>578</ele>
        <time>2012-04-05T17:57:49Z</time>
      </trkpt>
      <trkpt lat="43.40112" lon="2.10209">
        <ele>578</ele>
        <time>2012-04-05T17:57:51Z</time>
      </trkpt>
      <trkpt lat="43.40122" lon="2.10208">
        <ele>578</ele>
        <time>2012-04-05T17:57:53Z</time>
      </trkpt>
      <trkpt lat="43.4013" lon="2.10201">
        <ele>578</ele>
        <time>2012-04-05T17:57:55Z</time>
      </trkpt>
      <trkpt lat="43.40134" lon="2.10187">
        <ele>578</ele>
        <time>2012-04-05T17:57:57Z</time>
      </trkpt>
      <trkpt lat="43.40133" lon="2.10171">
        <ele>578</ele>
        <time>2012-04-05T17:57:59Z</time>
      </trkpt>
      <trkpt lat="43.40131" lon="2.10156">
        <ele>578</ele>
        <time>2012-04-05T17:58:01Z</time>
      </trkpt>
      <trkpt lat="43.40126" lon="2.10141">
        <ele>578</ele>
        <time>2012-04-05T17:58:03Z</time>
      </trkpt>
      <trkpt lat="43.40121" lon="2.10127">
        <ele>578</ele>
        <time>2012-04-05T17:58:05Z</time>
      </trkpt>
      <trkpt lat="43.40117" lon="2.10112">
        <ele>578</ele>
        <time>2012-04-05T17:58:07Z</time>
      </trkpt>
      <trkpt lat="43.40118" lon="2.10096">
        <ele>578</ele>
        <time>2012-04-05T17:58:09Z</time>
      </trkpt>
      <trkpt lat="43.40122" lon="2.1008">
        <ele>578</ele>
        <time>2012-04-05T17:58:11Z</time>
      </trkpt>
      <trkpt lat="43.40129" lon="2.10064">
        <ele>578</ele>
        <time>2012-04-05T17:58:13Z</time>
      </trkpt>
      <trkpt lat="43.40136" lon="2.10049">
        <ele>578</ele>
        <time>2012-04-05T17:58:15Z</time>
      </trkpt>
      <trkpt lat="43.40143" lon="2.10034">
        <ele>577</ele>
        <time>2012-04-05T17:58:17Z</time>
      </trkpt>
      <trkpt lat="43.4015" lon="2.1002">
        <ele>577</ele>
        <time>2012-04-05T17:58:19Z</time>
      </trkpt>
      <trkpt lat="43.40157" lon="2.10007">
        <ele>576</ele>
        <time>2012-04-05T17:58:21Z</time>
      </trkpt>
      <trkpt lat="43.40166" lon="2.09994">
        <ele>575</ele>
        <time>2012-04-05T17:58:23Z</time>
      </trkpt>
      <trkpt lat="43.40176" lon="2.09983">
        <ele>575</ele>
        <time>2012-04-05T17:58:25Z</time>
      </trkpt>
      <trkpt lat="43.40186" lon="2.09972">
        <ele>575</ele>
        <time>2012-04-05T17:58:27Z</time>
      </trkpt>
      <trkpt lat="43.40196" lon="2.09962">
        <ele>574</ele>
        <time>2012-04-05T17:58:29Z</time>
      </trkpt>
      <trkpt lat="43.40211" lon="2.09948">
        <ele>574</ele>
        <time>2012-04-05T17:58:32Z</time>
      </trkpt>
      <trkpt lat="43.40222" lon="2.09939">
        <ele>574</ele>
        <time>2012-04-05T17:58:34Z</time>
      </trkpt>
      <trkpt lat="43.40232" lon="2.09931">
        <ele>574</ele>
        <time>2012-04-05T17:58:36Z</time>
      </trkpt>
      <trkpt lat="43.40241" lon="2.09921">
        <ele>574</ele>
        <time>2012-04-05T17:58:38Z</time>
      </trkpt>
      <trkpt lat="43.40248" lon="2.0991">
        <ele>574</ele>
        <time>2012-04-05T17:58:40Z</time>
      </trkpt>
      <trkpt lat="43.40255" lon="2.09899">
        <ele>574</ele>
        <time>2012-04-05T17:58:42Z</time>
      </trkpt>
      <trkpt lat="43.4026" lon="2.09887">
        <ele>574</ele>
        <time>2012-04-05T17:58:44Z</time>
      </trkpt>
      <trkpt lat="43.40266" lon="2.09877">
        <ele>574</ele>
        <time>2012-04-05T17:58:46Z</time>
      </trkpt>
      <trkpt lat="43.40273" lon="2.09867">
        <ele>574</ele>
        <time>2012-04-05T17:58:48Z</time>
      </trkpt>
      <trkpt lat="43.40281" lon="2.09857">
        <ele>574</ele>
        <time>2012-04-05T17:58:50Z</time>
      </trkpt>
      <trkpt lat="43.40289" lon="2.09846">
        <ele>573</ele>
        <time>2012-04-05T17:58:52Z</time>
      </trkpt>
      <trkpt lat="43.40298" lon="2.09836">
        <ele>573</ele>
        <time>2012-04-05T17:58:54Z</time>
      </trkpt>
      <trkpt lat="43.40308" lon="2.09825">
        <ele>573</ele>
        <time>2012-04-05T17:58:56Z</time>
      </trkpt>
      <trkpt lat="43.40317" lon="2.09814">
        <ele>573</ele>
        <time>2012-04-05T17:58:58Z</time>
      </trkpt>
      <trkpt lat="43.4033" lon="2.09798">
        <ele>573</ele>
        <time>2012-04-05T17:59:01Z</time>
      </trkpt>
      <trkpt lat="43.40339" lon="2.09786">
        <ele>573</ele>
        <time>2012-04-05T17:59:03Z</time>
      </trkpt>
      <trkpt lat="43.40349" lon="2.09775">
        <ele>573</ele>
        <time>2012-04-05T17:59:05Z</time>
      </trkpt>
      <trkpt lat="43.40359" lon="2.09764">
        <ele>573</ele>
        <time>2012-04-05T17:59:07Z</time>
      </trkpt>
      <trkpt lat="43.40369" lon="2.09754">
        <ele>573</ele>
        <time>2012-04-05T17:59:09Z</time>
      </trkpt>
      <trkpt lat="43.40379" lon="2.09745">
        <ele>573</ele>
        <time>2012-04-05T17:59:11Z</time>
      </trkpt>
      <trkpt lat="43.4039" lon="2.09736">
        <ele>573</ele>
        <time>2012-04-05T17:59:13Z</time>
      </trkpt>
      <trkpt lat="43.40401" lon="2.09729">
        <ele>573</ele>
        <time>2012-04-05T17:59:15Z</time>
      </trkpt>
      <trkpt lat="43.40412" lon="2.09724">
        <ele>573</ele>
        <time>2012-04-05T17:59:17Z</time>
      </trkpt>
      <trkpt lat="43.40424" lon="2.09721">
        <ele>573</ele>
        <time>2012-04-05T17:59:19Z</time>
      </trkpt>
      <trkpt lat="43.40435" lon="2.0972">
        <ele>573</ele>
        <time>2012-04-05T17:59:21Z</time>
      </trkpt>
      <trkpt lat="43.40446" lon="2.09721">
        <ele>573</ele>
        <time>2012-04-05T17:59:23Z</time>
      </trkpt>
      <trkpt lat="43.40458" lon="2.09723">
        <ele>573</ele>
        <time>2012-04-05T17:59:25Z</time>
      </trkpt>
      <trkpt lat="43.40469" lon="2.09724">
        <ele>573</ele>
        <time>2012-04-05T17:59:27Z</time>
      </trkpt>
      <trkpt lat="43.4048" lon="2.09725">
        <ele>573</ele>
        <time>2012-04-05T17:59:29Z</time>
      </trkpt>
      <trkpt lat="43.40491" lon="2.09725">
        <ele>573</ele>
        <time>2012-04-05T17:59:31Z</time>
      </trkpt>
      <trkpt lat="43.40502" lon="2.09727">
        <ele>573</ele>
        <time>2012-04-05T17:59:33Z</time>
      </trkpt>
      <trkpt lat="43.40512" lon="2.09731">
        <ele>573</ele>
        <time>2012-04-05T17:59:35Z</time>
      </trkpt>
      <trkpt lat="43.4052" lon="2.0974">
        <ele>573</ele>
        <time>2012-04-05T17:59:37Z</time>
      </trkpt>
      <trkpt lat="43.40523" lon="2.09752">
        <ele>573</ele>
        <time>2012-04-05T17:59:39Z</time>
      </trkpt>
      <trkpt lat="43.40525" lon="2.09766">
        <ele>573</ele>
        <time>2012-04-05T17:59:41Z</time>
      </trkpt>
      <trkpt lat="43.40527" lon="2.0978">
        <ele>573</ele>
        <time>2012-04-05T17:59:43Z</time>
      </trkpt>
      <trkpt lat="43.40531" lon="2.09793">
        <ele>573</ele>
        <time>2012-04-05T17:59:45Z</time>
      </trkpt>
      <trkpt lat="43.40539" lon="2.09801">
        <ele>573</ele>
        <time>2012-04-05T17:59:47Z</time>
      </trkpt>
      <trkpt lat="43.40548" lon="2.09806">
        <ele>573</ele>
        <time>2012-04-05T17:59:49Z</time>
      </trkpt>
      <trkpt lat="43.40559" lon="2.09811">
        <ele>573</ele>
        <time>2012-04-05T17:59:51Z</time>
      </trkpt>
      <trkpt lat="43.40569" lon="2.09818">
        <ele>573</ele>
        <time>2012-04-05T17:59:53Z</time>
      </trkpt>
      <trkpt lat="43.40578" lon="2.09828">
        <ele>573</ele>
        <time>2012-04-05T17:59:55Z</time>
      </trkpt>
      <trkpt lat="43.40587" lon="2.09838">
        <ele>573</ele>
        <time>2012-04-05T17:59:57Z</time>
      </trkpt>
      <trkpt lat="43.40596" lon="2.0985">
        <ele>573</ele>
        <time>2012-04-05T17:59:59Z</time>
      </trkpt>
      <trkpt lat="43.40607" lon="2.09858">
        <ele>573</ele>
        <time>2012-04-05T18:00:01Z</time>
      </trkpt>
      <trkpt lat="43.40618" lon="2.09864">
        <ele>573</ele>
        <time>2012-04-05T18:00:03Z</time>
      </trkpt>
      <trkpt lat="43.4063" lon="2.09868">
        <ele>573</ele>
        <time>2012-04-05T18:00:05Z</time>
      </trkpt>
      <trkpt lat="43.40641" lon="2.09875">
        <ele>573</ele>
        <time>2012-04-05T18:00:07Z</time>
      </trkpt>
      <trkpt lat="43.40651" lon="2.09885">
        <ele>573</ele>
        <time>2012-04-05T18:00:09Z</time>
      </trkpt>
      <trkpt lat="43.40659" lon="2.099">
        <ele>573</ele>
        <time>2012-04-05T18:00:11Z</time>
      </trkpt>
      <trkpt lat="43.40664" lon="2.09915">
        <ele>573</ele>
        <time>2012-04-05T18:00:13Z</time>
      </trkpt>
      <trkpt lat="43.40668" lon="2.09932">
        <ele>573</ele>
        <time>2012-04-05T18:00:15Z</time>
      </trkpt>
      <trkpt lat="43.4067" lon="2.0995">
        <ele>573</ele>
        <time>2012-04-05T18:00:17Z</time>
      </trkpt>
      <trkpt lat="43.40671" lon="2.09967">
        <ele>573</ele>
        <time>2012-04-05T18:00:19Z</time>
      </trkpt>
      <trkpt lat="43.40674" lon="2.09983">
        <ele>573</ele>
        <time>2012-04-05T18:00:21Z</time>
      </trkpt>
      <trkpt lat="43.4068" lon="2.09998">
        <ele>573</ele>
        <time>2012-04-05T18:00:23Z</time>
      </trkpt>
      <trkpt lat="43.40687" lon="2.1001">
        <ele>572</ele>
        <time>2012-04-05T18:00:25Z</time>
      </trkpt>
      <trkpt lat="43.40696" lon="2.1003">
        <ele>572</ele>
        <time>2012-04-05T18:00:28Z</time>
      </trkpt>
      <trkpt lat="43.40703" lon="2.10042">
        <ele>572</ele>
        <time>2012-04-05T18:00:30Z</time>
      </trkpt>
      <trkpt lat="43.40709" lon="2.10054">
        <ele>572</ele>
        <time>2012-04-05T18:00:32Z</time>
      </trkpt>
      <trkpt lat="43.40715" lon="2.10065">
        <ele>572</ele>
        <time>2012-04-05T18:00:34Z</time>
      </trkpt>
      <trkpt lat="43.40719" lon="2.10077">
        <ele>572</ele>
        <time>2012-04-05T18:00:36Z</time>
      </trkpt>
      <trkpt lat="43.40725" lon="2.10088">
        <ele>572</ele>
        <time>2012-04-05T18:00:38Z</time>
      </trkpt>
      <trkpt lat="43.40733" lon="2.10103">
        <ele>572</ele>
        <time>2012-04-05T18:00:41Z</time>
      </trkpt>
      <trkpt lat="43.40741" lon="2.10107">
        <ele>572</ele>
        <time>2012-04-05T18:00:43Z</time>
      </trkpt>
      <trkpt lat="43.40748" lon="2.10095">
        <ele>572</ele>
        <time>2012-04-05T18:00:46Z</time>
      </trkpt>
      <trkpt lat="43.40746" lon="2.10083">
        <ele>572</ele>
        <time>2012-04-05T18:00:48Z</time>
      </trkpt>
      <trkpt lat="43.4074" lon="2.10072">
        <ele>572</ele>
        <time>2012-04-05T18:00:50Z</time>
      </trkpt>
      <trkpt lat="43.40732" lon="2.10053">
        <ele>572</ele>
        <time>2012-04-05T18:00:53Z</time>
      </trkpt>
      <trkpt lat="43.40728" lon="2.10038">
        <ele>572</ele>
        <time>2012-04-05T18:00:55Z</time>
      </trkpt>
      <trkpt lat="43.40722" lon="2.10024">
        <ele>572</ele>
        <time>2012-04-05T18:00:57Z</time>
      </trkpt>
      <trkpt lat="43.40719" lon="2.10008">
        <ele>572</ele>
        <time>2012-04-05T18:00:59Z</time>
      </trkpt>
      <trkpt lat="43.40719" lon="2.09984">
        <ele>572</ele>
        <time>2012-04-05T18:01:02Z</time>
      </trkpt>
      <trkpt lat="43.4072" lon="2.0997">
        <ele>572</ele>
        <time>2012-04-05T18:01:04Z</time>
      </trkpt>
      <trkpt lat="43.4072" lon="2.09955">
        <ele>572</ele>
        <time>2012-04-05T18:01:06Z</time>
      </trkpt>
      <trkpt lat="43.4072" lon="2.0994">
        <ele>572</ele>
        <time>2012-04-05T18:01:08Z</time>
      </trkpt>
      <trkpt lat="43.4072" lon="2.09925">
        <ele>572</ele>
        <time>2012-04-05T18:01:10Z</time>
      </trkpt>
      <trkpt lat="43.4072" lon="2.09909">
        <ele>573</ele>
        <time>2012-04-05T18:01:12Z</time>
      </trkpt>
      <trkpt lat="43.40719" lon="2.09894">
        <ele>573</ele>
        <time>2012-04-05T18:01:14Z</time>
      </trkpt>
      <trkpt lat="43.40717" lon="2.09878">
        <ele>573</ele>
        <time>2012-04-05T18:01:16Z</time>
      </trkpt>
      <trkpt lat="43.40714" lon="2.09857">
        <ele>573</ele>
        <time>2012-04-05T18:01:19Z</time>
      </trkpt>
      <trkpt lat="43.4071" lon="2.09842">
        <ele>573</ele>
        <time>2012-04-05T18:01:21Z</time>
      </trkpt>
      <trkpt lat="43.40707" lon="2.09828">
        <ele>573</ele>
        <time>2012-04-05T18:01:23Z</time>
      </trkpt>
      <trkpt lat="43.40702" lon="2.09815">
        <ele>573</ele>
        <time>2012-04-05T18:01:25Z</time>
      </trkpt>
      <trkpt lat="43.40696" lon="2.09793">
        <ele>573</ele>
        <time>2012-04-05T18:01:28Z</time>
      </trkpt>
      <trkpt lat="43.40693" lon="2.09779">
        <ele>573</ele>
        <time>2012-04-05T18:01:30Z</time>
      </trkpt>
      <trkpt lat="43.40695" lon="2.09766">
        <ele>573</ele>
        <time>2012-04-05T18:01:32Z</time>
      </trkpt>
      <trkpt lat="43.40699" lon="2.09757">
        <ele>573</ele>
        <time>2012-04-05T18:01:34Z</time>
      </trkpt>
      <trkpt lat="43.40704" lon="2.09749">
        <ele>573</ele>
        <time>2012-04-05T18:01:36Z</time>
      </trkpt>
      <trkpt lat="43.40706" lon="2.09737">
        <ele>573</ele>
        <time>2012-04-05T18:01:38Z</time>
      </trkpt>
      <trkpt lat="43.40705" lon="2.09724">
        <ele>573</ele>
        <time>2012-04-05T18:01:40Z</time>
      </trkpt>
      <trkpt lat="43.40703" lon="2.0971">
        <ele>572</ele>
        <time>2012-04-05T18:01:42Z</time>
      </trkpt>
      <trkpt lat="43.407" lon="2.09696">
        <ele>572</ele>
        <time>2012-04-05T18:01:44Z</time>
      </trkpt>
      <trkpt lat="43.40698" lon="2.09683">
        <ele>572</ele>
        <time>2012-04-05T18:01:46Z</time>
      </trkpt>
      <trkpt lat="43.40696" lon="2.09672">
        <ele>571</ele>
        <time>2012-04-05T18:01:48Z</time>
      </trkpt>
      <trkpt lat="43.40695" lon="2.09662">
        <ele>571</ele>
        <time>2012-04-05T18:01:50Z</time>
      </trkpt>
      <trkpt lat="43.40693" lon="2.09653">
        <ele>571</ele>
        <time>2012-04-05T18:01:52Z</time>
      </trkpt>
      <trkpt lat="43.4069" lon="2.09644">
        <ele>570</ele>
        <time>2012-04-05T18:01:54Z</time>
      </trkpt>
      <trkpt lat="43.40688" lon="2.09635">
        <ele>570</ele>
        <time>2012-04-05T18:01:56Z</time>
      </trkpt>
      <trkpt lat="43.40686" lon="2.09623">
        <ele>570</ele>
        <time>2012-04-05T18:01:59Z</time>
      </trkpt>
      <trkpt lat="43.40684" lon="2.09614">
        <ele>570</ele>
        <time>2012-04-05T18:02:01Z</time>
      </trkpt>
      <trkpt lat="43.40683" lon="2.09604">
        <ele>570</ele>
        <time>2012-04-05T18:02:03Z</time>
      </trkpt>
      <trkpt lat="43.40682" lon="2.09593">
        <ele>570</ele>
        <time>2012-04-05T18:02:05Z</time>
      </trkpt>
      <trkpt lat="43.40682" lon="2.09581">
        <ele>570</ele>
        <time>2012-04-05T18:02:07Z</time>
      </trkpt>
      <trkpt lat="43.40682" lon="2.09568">
        <ele>570</ele>
        <time>2012-04-05T18:02:09Z</time>
      </trkpt>
      <trkpt lat="43.40683" lon="2.09555">
        <ele>570</ele>
        <time>2012-04-05T18:02:11Z</time>
      </trkpt>
      <trkpt lat="43.40685" lon="2.09541">
        <ele>570</ele>
        <time>2012-04-05T18:02:13Z</time>
      </trkpt>
      <trkpt lat="43.40689" lon="2.09522">
        <ele>569</ele>
        <time>2012-04-05T18:02:16Z</time>
      </trkpt>
      <trkpt lat="43.40694" lon="2.09499">
        <ele>569</ele>
        <time>2012-04-05T18:02:19Z</time>
      </trkpt>
      <trkpt lat="43.40703" lon="2.09479">
        <ele>569</ele>
        <time>2012-04-05T18:02:22Z</time>
      </trkpt>
      <trkpt lat="43.40715" lon="2.09458">
        <ele>569</ele>
        <time>2012-04-05T18:02:25Z</time>
      </trkpt>
      <trkpt lat="43.40724" lon="2.09445">
        <ele>569</ele>
        <time>2012-04-05T18:02:27Z</time>
      </trkpt>
      <trkpt lat="43.40733" lon="2.09432">
        <ele>569</ele>
        <time>2012-04-05T18:02:29Z</time>
      </trkpt>
      <trkpt lat="43.40742" lon="2.09422">
        <ele>569</ele>
        <time>2012-04-05T18:02:31Z</time>
      </trkpt>
      <trkpt lat="43.40752" lon="2.09411">
        <ele>569</ele>
        <time>2012-04-05T18:02:33Z</time>
      </trkpt>
      <trkpt lat="43.4076" lon="2.094">
        <ele>569</ele>
        <time>2012-04-05T18:02:35Z</time>
      </trkpt>
      <trkpt lat="43.40772" lon="2.09383">
        <ele>569</ele>
        <time>2012-04-05T18:02:38Z</time>
      </trkpt>
      <trkpt lat="43.4078" lon="2.0937">
        <ele>569</ele>
        <time>2012-04-05T18:02:40Z</time>
      </trkpt>
      <trkpt lat="43.40786" lon="2.09359">
        <ele>569</ele>
        <time>2012-04-05T18:02:42Z</time>
      </trkpt>
      <trkpt lat="43.4079" lon="2.09348">
        <ele>569</ele>
        <time>2012-04-05T18:02:44Z</time>
      </trkpt>
      <trkpt lat="43.40794" lon="2.09338">
        <ele>569</ele>
        <time>2012-04-05T18:02:46Z</time>
      </trkpt>
      <trkpt lat="43.40799" lon="2.09327">
        <ele>569</ele>
        <time>2012-04-05T18:02:48Z</time>
      </trkpt>
      <trkpt lat="43.40804" lon="2.09311">
        <ele>569</ele>
        <time>2012-04-05T18:02:51Z</time>
      </trkpt>
      <trkpt lat="43.40806" lon="2.09299">
        <ele>569</ele>
        <time>2012-04-05T18:02:53Z</time>
      </trkpt>
      <trkpt lat="43.40811" lon="2.09281">
        <ele>570</ele>
        <time>2012-04-05T18:02:56Z</time>
      </trkpt>
      <trkpt lat="43.40814" lon="2.09269">
        <ele>571</ele>
        <time>2012-04-05T18:02:58Z</time>
      </trkpt>
      <trkpt lat="43.40816" lon="2.09258">
        <ele>572</ele>
        <time>2012-04-05T18:03:00Z</time>
      </trkpt>
      <trkpt lat="43.40818" lon="2.09246">
        <ele>573</ele>
        <time>2012-04-05T18:03:02Z</time>
      </trkpt>
      <trkpt lat="43.4082" lon="2.09236">
        <ele>573</ele>
        <time>2012-04-05T18:03:04Z</time>
      </trkpt>
      <trkpt lat="43.40823" lon="2.09225">
        <ele>573</ele>
        <time>2012-04-05T18:03:06Z</time>
      </trkpt>
      <trkpt lat="43.40825" lon="2.09215">
        <ele>574</ele>
        <time>2012-04-05T18:03:08Z</time>
      </trkpt>
      <trkpt lat="43.40827" lon="2.092">
        <ele>576</ele>
        <time>2012-04-05T18:03:11Z</time>
      </trkpt>
      <trkpt lat="43.40829" lon="2.09191">
        <ele>577</ele>
        <time>2012-04-05T18:03:13Z</time>
      </trkpt>
      <trkpt lat="43.4083" lon="2.09181">
        <ele>577</ele>
        <time>2012-04-05T18:03:15Z</time>
      </trkpt>
      <trkpt lat="43.40831" lon="2.09171">
        <ele>578</ele>
        <time>2012-04-05T18:03:17Z</time>
      </trkpt>
      <trkpt lat="43.40834" lon="2.09156">
        <ele>579</ele>
        <time>2012-04-05T18:03:20Z</time>
      </trkpt>
      <trkpt lat="43.40836" lon="2.09146">
        <ele>579</ele>
        <time>2012-04-05T18:03:22Z</time>
      </trkpt>
      <trkpt lat="43.40838" lon="2.09136">
        <ele>580</ele>
        <time>2012-04-05T18:03:24Z</time>
      </trkpt>
      <trkpt lat="43.40841" lon="2.09126">
        <ele>580</ele>
        <time>2012-04-05T18:03:26Z</time>
      </trkpt>
      <trkpt lat="43.40842" lon="2.09116">
        <ele>582</ele>
        <time>2012-04-05T18:03:28Z</time>
      </trkpt>
      <trkpt lat="43.40843" lon="2.09107">
        <ele>583</ele>
        <time>2012-04-05T18:03:30Z</time>
      </trkpt>
      <trkpt lat="43.40845" lon="2.09096">
        <ele>583</ele>
        <time>2012-04-05T18:03:32Z</time>
      </trkpt>
      <trkpt lat="43.40847" lon="2.09086">
        <ele>584</ele>
        <time>2012-04-05T18:03:34Z</time>
      </trkpt>
      <trkpt lat="43.40849" lon="2.09076">
        <ele>584</ele>
        <time>2012-04-05T18:03:36Z</time>
      </trkpt>
      <trkpt lat="43.40851" lon="2.09066">
        <ele>584</ele>
        <time>2012-04-05T18:03:38Z</time>
      </trkpt>
      <trkpt lat="43.40853" lon="2.09056">
        <ele>585</ele>
        <time>2012-04-05T18:03:40Z</time>
      </trkpt>
      <trkpt lat="43.40856" lon="2.09046">
        <ele>585</ele>
        <time>2012-04-05T18:03:42Z</time>
      </trkpt>
      <trkpt lat="43.40859" lon="2.0903">
        <ele>587</ele>
        <time>2012-04-05T18:03:45Z</time>
      </trkpt>
      <trkpt lat="43.40861" lon="2.0902">
        <ele>587</ele>
        <time>2012-04-05T18:03:47Z</time>
      </trkpt>
      <trkpt lat="43.40863" lon="2.09009">
        <ele>588</ele>
        <time>2012-04-05T18:03:49Z</time>
      </trkpt>
      <trkpt lat="43.40865" lon="2.08999">
        <ele>589</ele>
        <time>2012-04-05T18:03:51Z</time>
      </trkpt>
      <trkpt lat="43.40867" lon="2.08988">
        <ele>590</ele>
        <time>2012-04-05T18:03:53Z</time>
      </trkpt>
      <trkpt lat="43.40871" lon="2.08974">
        <ele>592</ele>
        <time>2012-04-05T18:03:56Z</time>
      </trkpt>
      <trkpt lat="43.40873" lon="2.0896">
        <ele>594</ele>
        <time>2012-04-05T18:03:59Z</time>
      </trkpt>
      <trkpt lat="43.40876" lon="2.08945">
        <ele>595</ele>
        <time>2012-04-05T18:04:02Z</time>
      </trkpt>
      <trkpt lat="43.40879" lon="2.0893">
        <ele>596</ele>
        <time>2012-04-05T18:04:05Z</time>
      </trkpt>
      <trkpt lat="43.40881" lon="2.08921">
        <ele>597</ele>
        <time>2012-04-05T18:04:07Z</time>
      </trkpt>
      <trkpt lat="43.40882" lon="2.08912">
        <ele>598</ele>
        <time>2012-04-05T18:04:09Z</time>
      </trkpt>
      <trkpt lat="43.40884" lon="2.08902">
        <ele>599</ele>
        <time>2012-04-05T18:04:11Z</time>
      </trkpt>
      <trkpt lat="43.40885" lon="2.08891">
        <ele>599</ele>
        <time>2012-04-05T18:04:13Z</time>
      </trkpt>
      <trkpt lat="43.40886" lon="2.08882">
        <ele>600</ele>
        <time>2012-04-05T18:04:15Z</time>
      </trkpt>
      <trkpt lat="43.40887" lon="2.08874">
        <ele>601</ele>
        <time>2012-04-05T18:04:17Z</time>
      </trkpt>
      <trkpt lat="43.40889" lon="2.08859">
        <ele>602</ele>
        <time>2012-04-05T18:04:20Z</time>
      </trkpt>
      <trkpt lat="43.40892" lon="2.0885">
        <ele>602</ele>
        <time>2012-04-05T18:04:22Z</time>
      </trkpt>
      <trkpt lat="43.40897" lon="2.08842">
        <ele>602</ele>
        <time>2012-04-05T18:04:24Z</time>
      </trkpt>
      <trkpt lat="43.40902" lon="2.08834">
        <ele>602</ele>
        <time>2012-04-05T18:04:26Z</time>
      </trkpt>
      <trkpt lat="43.40907" lon="2.08824">
        <ele>603</ele>
        <time>2012-04-05T18:04:28Z</time>
      </trkpt>
      <trkpt lat="43.40912" lon="2.08814">
        <ele>603</ele>
        <time>2012-04-05T18:04:30Z</time>
      </trkpt>
      <trkpt lat="43.40919" lon="2.08799">
        <ele>603</ele>
        <time>2012-04-05T18:04:33Z</time>
      </trkpt>
      <trkpt lat="43.40921" lon="2.08786">
        <ele>603</ele>
        <time>2012-04-05T18:04:35Z</time>
      </trkpt>
      <trkpt lat="43.40923" lon="2.08773">
        <ele>604</ele>
        <time>2012-04-05T18:04:37Z</time>
      </trkpt>
      <trkpt lat="43.40922" lon="2.08759">
        <ele>604</ele>
        <time>2012-04-05T18:04:39Z</time>
      </trkpt>
      <trkpt lat="43.4092" lon="2.08745">
        <ele>604</ele>
        <time>2012-04-05T18:04:41Z</time>
      </trkpt>
      <trkpt lat="43.40918" lon="2.08725">
        <ele>605</ele>
        <time>2012-04-05T18:04:44Z</time>
      </trkpt>
      <trkpt lat="43.40916" lon="2.08704">
        <ele>605</ele>
        <time>2012-04-05T18:04:47Z</time>
      </trkpt>
      <trkpt lat="43.40918" lon="2.08691">
        <ele>606</ele>
        <time>2012-04-05T18:04:49Z</time>
      </trkpt>
      <trkpt lat="43.40923" lon="2.0868">
        <ele>606</ele>
        <time>2012-04-05T18:04:51Z</time>
      </trkpt>
      <trkpt lat="43.40926" lon="2.0867">
        <ele>606</ele>
        <time>2012-04-05T18:04:53Z</time>
      </trkpt>
      <trkpt lat="43.40931" lon="2.08658">
        <ele>606</ele>
        <time>2012-04-05T18:04:56Z</time>
      </trkpt>
      <trkpt lat="43.40936" lon="2.08647">
        <ele>606</ele>
        <time>2012-04-05T18:04:58Z</time>
      </trkpt>
      <trkpt lat="43.40945" lon="2.08631">
        <ele>606</ele>
        <time>2012-04-05T18:05:01Z</time>
      </trkpt>
      <trkpt lat="43.40949" lon="2.0862">
        <ele>606</ele>
        <time>2012-04-05T18:05:03Z</time>
      </trkpt>
      <trkpt lat="43.40959" lon="2.08599">
        <ele>606</ele>
        <time>2012-04-05T18:05:06Z</time>
      </trkpt>
      <trkpt lat="43.40965" lon="2.08586">
        <ele>605</ele>
        <time>2012-04-05T18:05:08Z</time>
      </trkpt>
      <trkpt lat="43.40971" lon="2.08564">
        <ele>603</ele>
        <time>2012-04-05T18:05:11Z</time>
      </trkpt>
      <trkpt lat="43.40974" lon="2.08545">
        <ele>602</ele>
        <time>2012-04-05T18:05:14Z</time>
      </trkpt>
      <trkpt lat="43.40974" lon="2.08531">
        <ele>601</ele>
        <time>2012-04-05T18:05:16Z</time>
      </trkpt>
      <trkpt lat="43.40971" lon="2.08519">
        <ele>600</ele>
        <time>2012-04-05T18:05:18Z</time>
      </trkpt>
      <trkpt lat="43.40961" lon="2.085">
        <ele>599</ele>
        <time>2012-04-05T18:05:21Z</time>
      </trkpt>
      <trkpt lat="43.4095" lon="2.08494">
        <ele>599</ele>
        <time>2012-04-05T18:05:23Z</time>
      </trkpt>
      <trkpt lat="43.40939" lon="2.08491">
        <ele>598</ele>
        <time>2012-04-05T18:05:25Z</time>
      </trkpt>
      <trkpt lat="43.40928" lon="2.0849">
        <ele>596</ele>
        <time>2012-04-05T18:05:27Z</time>
      </trkpt>
      <trkpt lat="43.40917" lon="2.08488">
        <ele>596</ele>
        <time>2012-04-05T18:05:29Z</time>
      </trkpt>
      <trkpt lat="43.40905" lon="2.08484">
        <ele>595</ele>
        <time>2012-04-05T18:05:31Z</time>
      </trkpt>
      <trkpt lat="43.40895" lon="2.08477">
        <ele>595</ele>
        <time>2012-04-05T18:05:33Z</time>
      </trkpt>
      <trkpt lat="43.40882" lon="2.08463">
        <ele>595</ele>
        <time>2012-04-05T18:05:36Z</time>
      </trkpt>
      <trkpt lat="43.40876" lon="2.08452">
        <ele>595</ele>
        <time>2012-04-05T18:05:38Z</time>
      </trkpt>
      <trkpt lat="43.40868" lon="2.08436">
        <ele>595</ele>
        <time>2012-04-05T18:05:41Z</time>
      </trkpt>
      <trkpt lat="43.40869" lon="2.08425">
        <ele>595</ele>
        <time>2012-04-05T18:05:43Z</time>
      </trkpt>
      <trkpt lat="43.40874" lon="2.08422">
        <ele>595</ele>
        <time>2012-04-05T18:05:45Z</time>
      </trkpt>
      <trkpt lat="43.40885" lon="2.08423">
        <ele>595</ele>
        <time>2012-04-05T18:05:47Z</time>
      </trkpt>
      <trkpt lat="43.40896" lon="2.08426">
        <ele>595</ele>
        <time>2012-04-05T18:05:49Z</time>
      </trkpt>
      <trkpt lat="43.40908" lon="2.08425">
        <ele>594</ele>
        <time>2012-04-05T18:05:51Z</time>
      </trkpt>
      <trkpt lat="43.40923" lon="2.0842">
        <ele>594</ele>
        <time>2012-04-05T18:05:53Z</time>
      </trkpt>
      <trkpt lat="43.40944" lon="2.08413">
        <ele>594</ele>
        <time>2012-04-05T18:05:56Z</time>
      </trkpt>
      <trkpt lat="43.40956" lon="2.08408">
        <ele>594</ele>
        <time>2012-04-05T18:05:58Z</time>
      </trkpt>
      <trkpt lat="43.40967" lon="2.08399">
        <ele>594</ele>
        <time>2012-04-05T18:06:00Z</time>
      </trkpt>
      <trkpt lat="43.40976" lon="2.08381">
        <ele>594</ele>
        <time>2012-04-05T18:06:03Z</time>
      </trkpt>
      <trkpt lat="43.40979" lon="2.08368">
        <ele>595</ele>
        <time>2012-04-05T18:06:05Z</time>
      </trkpt>
      <trkpt lat="43.40981" lon="2.08355">
        <ele>596</ele>
        <time>2012-04-05T18:06:07Z</time>
      </trkpt>
      <trkpt lat="43.40979" lon="2.08341">
        <ele>597</ele>
        <time>2012-04-05T18:06:09Z</time>
      </trkpt>
      <trkpt lat="43.40981" lon="2.08322">
        <ele>598</ele>
        <time>2012-04-05T18:06:12Z</time>
      </trkpt>
      <trkpt lat="43.40985" lon="2.08304">
        <ele>601</ele>
        <time>2012-04-05T18:06:15Z</time>
      </trkpt>
      <trkpt lat="43.40988" lon="2.0829">
        <ele>603</ele>
        <time>2012-04-05T18:06:17Z</time>
      </trkpt>
      <trkpt lat="43.40992" lon="2.08275">
        <ele>604</ele>
        <time>2012-04-05T18:06:19Z</time>
      </trkpt>
      <trkpt lat="43.40994" lon="2.0826">
        <ele>604</ele>
        <time>2012-04-05T18:06:21Z</time>
      </trkpt>
      <trkpt lat="43.40995" lon="2.08245">
        <ele>604</ele>
        <time>2012-04-05T18:06:23Z</time>
      </trkpt>
      <trkpt lat="43.40994" lon="2.08231">
        <ele>604</ele>
        <time>2012-04-05T18:06:25Z</time>
      </trkpt>
      <trkpt lat="43.40995" lon="2.08217">
        <ele>605</ele>
        <time>2012-04-05T18:06:27Z</time>
      </trkpt>
      <trkpt lat="43.40996" lon="2.08206">
        <ele>607</ele>
        <time>2012-04-05T18:06:29Z</time>
      </trkpt>
      <trkpt lat="43.40994" lon="2.08196">
        <ele>608</ele>
        <time>2012-04-05T18:06:31Z</time>
      </trkpt>
      <trkpt lat="43.40992" lon="2.08181">
        <ele>609</ele>
        <time>2012-04-05T18:06:34Z</time>
      </trkpt>
      <trkpt lat="43.40992" lon="2.08171">
        <ele>610</ele>
        <time>2012-04-05T18:06:36Z</time>
      </trkpt>
      <trkpt lat="43.40992" lon="2.08156">
        <ele>611</ele>
        <time>2012-04-05T18:06:39Z</time>
      </trkpt>
      <trkpt lat="43.40992" lon="2.08142">
        <ele>612</ele>
        <time>2012-04-05T18:06:42Z</time>
      </trkpt>
      <trkpt lat="43.40991" lon="2.08133">
        <ele>612</ele>
        <time>2012-04-05T18:06:44Z</time>
      </trkpt>
      <trkpt lat="43.40991" lon="2.08117">
        <ele>613</ele>
        <time>2012-04-05T18:06:47Z</time>
      </trkpt>
      <trkpt lat="43.4099" lon="2.08103">
        <ele>614</ele>
        <time>2012-04-05T18:06:50Z</time>
      </trkpt>
      <trkpt lat="43.40989" lon="2.08095">
        <ele>615</ele>
        <time>2012-04-05T18:06:52Z</time>
      </trkpt>
      <trkpt lat="43.40985" lon="2.08084">
        <ele>618</ele>
        <time>2012-04-05T18:06:55Z</time>
      </trkpt>
      <trkpt lat="43.40983" lon="2.08076">
        <ele>619</ele>
        <time>2012-04-05T18:06:57Z</time>
      </trkpt>
      <trkpt lat="43.40982" lon="2.08068">
        <ele>621</ele>
        <time>2012-04-05T18:06:59Z</time>
      </trkpt>
      <trkpt lat="43.40982" lon="2.0806">
        <ele>622</ele>
        <time>2012-04-05T18:07:01Z</time>
      </trkpt>
      <trkpt lat="43.40982" lon="2.08052">
        <ele>623</ele>
        <time>2012-04-05T18:07:03Z</time>
      </trkpt>
      <trkpt lat="43.40984" lon="2.08045">
        <ele>623</ele>
        <time>2012-04-05T18:07:05Z</time>
      </trkpt>
      <trkpt lat="43.40993" lon="2.08034">
        <ele>623</ele>
        <time>2012-04-05T18:07:08Z</time>
      </trkpt>
      <trkpt lat="43.41003" lon="2.08025">
        <ele>623</ele>
        <time>2012-04-05T18:07:11Z</time>
      </trkpt>
      <trkpt lat="43.41011" lon="2.08018">
        <ele>623</ele>
        <time>2012-04-05T18:07:13Z</time>
      </trkpt>
      <trkpt lat="43.41018" lon="2.08011">
        <ele>623</ele>
        <time>2012-04-05T18:07:15Z</time>
      </trkpt>
      <trkpt lat="43.41026" lon="2.08003">
        <ele>623</ele>
        <time>2012-04-05T18:07:17Z</time>
      </trkpt>
      <trkpt lat="43.41034" lon="2.07995">
        <ele>623</ele>
        <time>2012-04-05T18:07:19Z</time>
      </trkpt>
      <trkpt lat="43.41042" lon="2.07987">
        <ele>623</ele>
        <time>2012-04-05T18:07:21Z</time>
      </trkpt>
      <trkpt lat="43.41051" lon="2.0798">
        <ele>623</ele>
        <time>2012-04-05T18:07:23Z</time>
      </trkpt>
      <trkpt lat="43.4106" lon="2.07972">
        <ele>622</ele>
        <time>2012-04-05T18:07:25Z</time>
      </trkpt>
      <trkpt lat="43.41074" lon="2.0796">
        <ele>620</ele>
        <time>2012-04-05T18:07:28Z</time>
      </trkpt>
      <trkpt lat="43.41089" lon="2.07947">
        <ele>620</ele>
        <time>2012-04-05T18:07:31Z</time>
      </trkpt>
      <trkpt lat="43.411" lon="2.07939">
        <ele>620</ele>
        <time>2012-04-05T18:07:33Z</time>
      </trkpt>
      <trkpt lat="43.41111" lon="2.07932">
        <ele>619</ele>
        <time>2012-04-05T18:07:35Z</time>
      </trkpt>
      <trkpt lat="43.41123" lon="2.07924">
        <ele>619</ele>
        <time>2012-04-05T18:07:37Z</time>
      </trkpt>
      <trkpt lat="43.41135" lon="2.07914">
        <ele>619</ele>
        <time>2012-04-05T18:07:39Z</time>
      </trkpt>
      <trkpt lat="43.41145" lon="2.07903">
        <ele>618</ele>
        <time>2012-04-05T18:07:41Z</time>
      </trkpt>
      <trkpt lat="43.41156" lon="2.07893">
        <ele>617</ele>
        <time>2012-04-05T18:07:43Z</time>
      </trkpt>
      <trkpt lat="43.41172" lon="2.07878">
        <ele>617</ele>
        <time>2012-04-05T18:07:46Z</time>
      </trkpt>
      <trkpt lat="43.41183" lon="2.07871">
        <ele>617</ele>
        <time>2012-04-05T18:07:48Z</time>
      </trkpt>
      <trkpt lat="43.41193" lon="2.07862">
        <ele>617</ele>
        <time>2012-04-05T18:07:50Z</time>
      </trkpt>
      <trkpt lat="43.41202" lon="2.07854">
        <ele>617</ele>
        <time>2012-04-05T18:07:52Z</time>
      </trkpt>
      <trkpt lat="43.41211" lon="2.07844">
        <ele>617</ele>
        <time>2012-04-05T18:07:54Z</time>
      </trkpt>
      <trkpt lat="43.41219" lon="2.07833">
        <ele>617</ele>
        <time>2012-04-05T18:07:56Z</time>
      </trkpt>
      <trkpt lat="43.41225" lon="2.0782">
        <ele>617</ele>
        <time>2012-04-05T18:07:58Z</time>
      </trkpt>
      <trkpt lat="43.41231" lon="2.07805">
        <ele>617</ele>
        <time>2012-04-05T18:08:00Z</time>
      </trkpt>
      <trkpt lat="43.41239" lon="2.07784">
        <ele>617</ele>
        <time>2012-04-05T18:08:03Z</time>
      </trkpt>
      <trkpt lat="43.41243" lon="2.07769">
        <ele>617</ele>
        <time>2012-04-05T18:08:05Z</time>
      </trkpt>
      <trkpt lat="43.41247" lon="2.07746">
        <ele>616</ele>
        <time>2012-04-05T18:08:08Z</time>
      </trkpt>
      <trkpt lat="43.41251" lon="2.0772">
        <ele>616</ele>
        <time>2012-04-05T18:08:11Z</time>
      </trkpt>
      <trkpt lat="43.41254" lon="2.07696">
        <ele>616</ele>
        <time>2012-04-05T18:08:14Z</time>
      </trkpt>
      <trkpt lat="43.41254" lon="2.07681">
        <ele>616</ele>
        <time>2012-04-05T18:08:16Z</time>
      </trkpt>
      <trkpt lat="43.41254" lon="2.07667">
        <ele>616</ele>
        <time>2012-04-05T18:08:18Z</time>
      </trkpt>
      <trkpt lat="43.41251" lon="2.07652">
        <ele>616</ele>
        <time>2012-04-05T18:08:20Z</time>
      </trkpt>
      <trkpt lat="43.41248" lon="2.07638">
        <ele>616</ele>
        <time>2012-04-05T18:08:22Z</time>
      </trkpt>
      <trkpt lat="43.41244" lon="2.07624">
        <ele>616</ele>
        <time>2012-04-05T18:08:24Z</time>
      </trkpt>
      <trkpt lat="43.41239" lon="2.07611">
        <ele>616</ele>
        <time>2012-04-05T18:08:26Z</time>
      </trkpt>
      <trkpt lat="43.41234" lon="2.076">
        <ele>616</ele>
        <time>2012-04-05T18:08:28Z</time>
      </trkpt>
      <trkpt lat="43.41231" lon="2.07591">
        <ele>616</ele>
        <time>2012-04-05T18:08:30Z</time>
      </trkpt>
      <trkpt lat="43.41232" lon="2.07583">
        <ele>616</ele>
        <time>2012-04-05T18:08:32Z</time>
      </trkpt>
      <trkpt lat="43.41232" lon="2.07575">
        <ele>616</ele>
        <time>2012-04-05T18:08:34Z</time>
      </trkpt>
      <trkpt lat="43.4123" lon="2.07566">
        <ele>616</ele>
        <time>2012-04-05T18:08:36Z</time>
      </trkpt>
      <trkpt lat="43.41228" lon="2.07557">
        <ele>616</ele>
        <time>2012-04-05T18:08:38Z</time>
      </trkpt>
      <trkpt lat="43.41224" lon="2.0755">
        <ele>617</ele>
        <time>2012-04-05T18:08:40Z</time>
      </trkpt>
      <trkpt lat="43.41221" lon="2.07541">
        <ele>619</ele>
        <time>2012-04-05T18:08:42Z</time>
      </trkpt>
      <trkpt lat="43.41222" lon="2.07531">
        <ele>621</ele>
        <time>2012-04-05T18:08:44Z</time>
      </trkpt>
      <trkpt lat="43.4122" lon="2.07516">
        <ele>623</ele>
        <time>2012-04-05T18:08:47Z</time>
      </trkpt>
      <trkpt lat="43.4122" lon="2.07502">
        <ele>626</ele>
        <time>2012-04-05T18:08:50Z</time>
      </trkpt>
      <trkpt lat="43.41221" lon="2.07492">
        <ele>628</ele>
        <time>2012-04-05T18:08:52Z</time>
      </trkpt>
      <trkpt lat="43.41222" lon="2.07484">
        <ele>629</ele>
        <time>2012-04-05T18:08:54Z</time>
      </trkpt>
      <trkpt lat="43.41225" lon="2.07471">
        <ele>630</ele>
        <time>2012-04-05T18:08:57Z</time>
      </trkpt>
      <trkpt lat="43.41225" lon="2.07467">
        <ele>630</ele>
        <time>2012-04-05T18:09:00Z</time>
      </trkpt>
      <trkpt lat="43.41226" lon="2.07464">
        <ele>630</ele>
        <time>2012-04-05T18:09:02Z</time>
      </trkpt>
      <trkpt lat="43.41227" lon="2.07459">
        <ele>630</ele>
        <time>2012-04-05T18:09:04Z</time>
      </trkpt>
      <trkpt lat="43.4123" lon="2.0745">
        <ele>630</ele>
        <time>2012-04-05T18:09:07Z</time>
      </trkpt>
      <trkpt lat="43.41234" lon="2.07445">
        <ele>630</ele>
        <time>2012-04-05T18:09:09Z</time>
      </trkpt>
      <trkpt lat="43.41238" lon="2.07437">
        <ele>629</ele>
        <time>2012-04-05T18:09:11Z</time>
      </trkpt>
      <trkpt lat="43.41243" lon="2.07423">
        <ele>626</ele>
        <time>2012-04-05T18:09:14Z</time>
      </trkpt>
      <trkpt lat="43.41246" lon="2.07415">
        <ele>624</ele>
        <time>2012-04-05T18:09:16Z</time>
      </trkpt>
      <trkpt lat="43.4125" lon="2.07407">
        <ele>622</ele>
        <time>2012-04-05T18:09:18Z</time>
      </trkpt>
      <trkpt lat="43.41256" lon="2.07393">
        <ele>619</ele>
        <time>2012-04-05T18:09:21Z</time>
      </trkpt>
      <trkpt lat="43.4126" lon="2.07382">
        <ele>618</ele>
        <time>2012-04-05T18:09:23Z</time>
      </trkpt>
      <trkpt lat="43.41267" lon="2.07369">
        <ele>617</ele>
        <time>2012-04-05T18:09:26Z</time>
      </trkpt>
      <trkpt lat="43.41272" lon="2.0736">
        <ele>617</ele>
        <time>2012-04-05T18:09:28Z</time>
      </trkpt>
      <trkpt lat="43.4128" lon="2.07346">
        <ele>617</ele>
        <time>2012-04-05T18:09:31Z</time>
      </trkpt>
      <trkpt lat="43.41285" lon="2.07337">
        <ele>617</ele>
        <time>2012-04-05T18:09:33Z</time>
      </trkpt>
      <trkpt lat="43.41294" lon="2.07324">
        <ele>617</ele>
        <time>2012-04-05T18:09:36Z</time>
      </trkpt>
      <trkpt lat="43.41299" lon="2.07314">
        <ele>617</ele>
        <time>2012-04-05T18:09:38Z</time>
      </trkpt>
      <trkpt lat="43.41304" lon="2.07305">
        <ele>617</ele>
        <time>2012-04-05T18:09:40Z</time>
      </trkpt>
      <trkpt lat="43.41311" lon="2.07297">
        <ele>617</ele>
        <time>2012-04-05T18:09:42Z</time>
      </trkpt>
      <trkpt lat="43.41319" lon="2.07285">
        <ele>617</ele>
        <time>2012-04-05T18:09:45Z</time>
      </trkpt>
      <trkpt lat="43.41328" lon="2.07275">
        <ele>617</ele>
        <time>2012-04-05T18:09:48Z</time>
      </trkpt>
      <trkpt lat="43.41334" lon="2.07267">
        <ele>617</ele>
        <time>2012-04-05T18:09:50Z</time>
      </trkpt>
      <trkpt lat="43.4134" lon="2.0726">
        <ele>617</ele>
        <time>2012-04-05T18:09:52Z</time>
      </trkpt>
      <trkpt lat="43.41349" lon="2.07249">
        <ele>617</ele>
        <time>2012-04-05T18:09:55Z</time>
      </trkpt>
      <trkpt lat="43.41354" lon="2.07241">
        <ele>617</ele>
        <time>2012-04-05T18:09:57Z</time>
      </trkpt>
      <trkpt lat="43.4136" lon="2.07234">
        <ele>617</ele>
        <time>2012-04-05T18:09:59Z</time>
      </trkpt>
      <trkpt lat="43.41366" lon="2.07227">
        <ele>617</ele>
        <time>2012-04-05T18:10:01Z</time>
      </trkpt>
      <trkpt lat="43.41375" lon="2.07218">
        <ele>618</ele>
        <time>2012-04-05T18:10:04Z</time>
      </trkpt>
      <trkpt lat="43.41381" lon="2.07212">
        <ele>619</ele>
        <time>2012-04-05T18:10:06Z</time>
      </trkpt>
      <trkpt lat="43.41387" lon="2.07207">
        <ele>619</ele>
        <time>2012-04-05T18:10:08Z</time>
      </trkpt>
      <trkpt lat="43.41397" lon="2.07202">
        <ele>620</ele>
        <time>2012-04-05T18:10:11Z</time>
      </trkpt>
      <trkpt lat="43.41403" lon="2.07201">
        <ele>621</ele>
        <time>2012-04-05T18:10:13Z</time>
      </trkpt>
      <trkpt lat="43.41411" lon="2.07199">
        <ele>622</ele>
        <time>2012-04-05T18:10:16Z</time>
      </trkpt>
      <trkpt lat="43.41417" lon="2.07199">
        <ele>622</ele>
        <time>2012-04-05T18:10:18Z</time>
      </trkpt>
      <trkpt lat="43.41423" lon="2.07198">
        <ele>623</ele>
        <time>2012-04-05T18:10:20Z</time>
      </trkpt>
      <trkpt lat="43.41433" lon="2.07198">
        <ele>623</ele>
        <time>2012-04-05T18:10:22Z</time>
      </trkpt>
      <trkpt lat="43.41451" lon="2.07198">
        <ele>623</ele>
        <time>2012-04-05T18:10:25Z</time>
      </trkpt>
      <trkpt lat="43.41462" lon="2.07199">
        <ele>623</ele>
        <time>2012-04-05T18:10:27Z</time>
      </trkpt>
      <trkpt lat="43.41474" lon="2.07197">
        <ele>623</ele>
        <time>2012-04-05T18:10:29Z</time>
      </trkpt>
      <trkpt lat="43.41495" lon="2.07184">
        <ele>621</ele>
        <time>2012-04-05T18:10:32Z</time>
      </trkpt>
      <trkpt lat="43.41512" lon="2.07174">
        <ele>619</ele>
        <time>2012-04-05T18:10:34Z</time>
      </trkpt>
      <trkpt lat="43.41538" lon="2.07162">
        <ele>616</ele>
        <time>2012-04-05T18:10:37Z</time>
      </trkpt>
      <trkpt lat="43.41556" lon="2.07158">
        <ele>614</ele>
        <time>2012-04-05T18:10:39Z</time>
      </trkpt>
      <trkpt lat="43.4157" lon="2.07149">
        <ele>612</ele>
        <time>2012-04-05T18:10:41Z</time>
      </trkpt>
      <trkpt lat="43.41583" lon="2.07123">
        <ele>609</ele>
        <time>2012-04-05T18:10:44Z</time>
      </trkpt>
      <trkpt lat="43.41591" lon="2.07106">
        <ele>607</ele>
        <time>2012-04-05T18:10:46Z</time>
      </trkpt>
      <trkpt lat="43.41594" lon="2.07087">
        <ele>606</ele>
        <time>2012-04-05T18:10:48Z</time>
      </trkpt>
      <trkpt lat="43.41597" lon="2.07069">
        <ele>605</ele>
        <time>2012-04-05T18:10:50Z</time>
      </trkpt>
      <trkpt lat="43.41599" lon="2.07053">
        <ele>604</ele>
        <time>2012-04-05T18:10:52Z</time>
      </trkpt>
      <trkpt lat="43.416" lon="2.07038">
        <ele>604</ele>
        <time>2012-04-05T18:10:54Z</time>
      </trkpt>
      <trkpt lat="43.41604" lon="2.07024">
        <ele>603</ele>
        <time>2012-04-05T18:10:56Z</time>
      </trkpt>
      <trkpt lat="43.41608" lon="2.07002">
        <ele>603</ele>
        <time>2012-04-05T18:10:59Z</time>
      </trkpt>
      <trkpt lat="43.41612" lon="2.06988">
        <ele>603</ele>
        <time>2012-04-05T18:11:01Z</time>
      </trkpt>
      <trkpt lat="43.41615" lon="2.06977">
        <ele>603</ele>
        <time>2012-04-05T18:11:03Z</time>
      </trkpt>
      <trkpt lat="43.41616" lon="2.06973">
        <ele>603</ele>
        <time>2012-04-05T18:11:06Z</time>
      </trkpt>
      <trkpt lat="43.41618" lon="2.06974">
        <ele>603</ele>
        <time>2012-04-05T18:11:09Z</time>
      </trkpt>
      <trkpt lat="43.41618" lon="2.06975">
        <ele>603</ele>
        <time>2012-04-05T18:11:12Z</time>
      </trkpt>
      <trkpt lat="43.41616" lon="2.06975">
        <ele>603</ele>
        <time>2012-04-05T18:11:18Z</time>
      </trkpt>
      <trkpt lat="43.41615" lon="2.06971">
        <ele>603</ele>
        <time>2012-04-05T18:11:20Z</time>
      </trkpt>
      <trkpt lat="43.41613" lon="2.06962">
        <ele>603</ele>
        <time>2012-04-05T18:11:23Z</time>
      </trkpt>
      <trkpt lat="43.41613" lon="2.06952">
        <ele>603</ele>
        <time>2012-04-05T18:11:25Z</time>
      </trkpt>
      <trkpt lat="43.41613" lon="2.06942">
        <ele>603</ele>
        <time>2012-04-05T18:11:27Z</time>
      </trkpt>
      <trkpt lat="43.41614" lon="2.06929">
        <ele>603</ele>
        <time>2012-04-05T18:11:29Z</time>
      </trkpt>
      <trkpt lat="43.41612" lon="2.06913">
        <ele>603</ele>
        <time>2012-04-05T18:11:31Z</time>
      </trkpt>
      <trkpt lat="43.4161" lon="2.06898">
        <ele>603</ele>
        <time>2012-04-05T18:11:33Z</time>
      </trkpt>
      <trkpt lat="43.41607" lon="2.0688">
        <ele>603</ele>
        <time>2012-04-05T18:11:35Z</time>
      </trkpt>
      <trkpt lat="43.41605" lon="2.06862">
        <ele>603</ele>
        <time>2012-04-05T18:11:37Z</time>
      </trkpt>
      <trkpt lat="43.41602" lon="2.06844">
        <ele>603</ele>
        <time>2012-04-05T18:11:39Z</time>
      </trkpt>
      <trkpt lat="43.41602" lon="2.06815">
        <ele>601</ele>
        <time>2012-04-05T18:11:42Z</time>
      </trkpt>
      <trkpt lat="43.41606" lon="2.06797">
        <ele>601</ele>
        <time>2012-04-05T18:11:44Z</time>
      </trkpt>
      <trkpt lat="43.4161" lon="2.06781">
        <ele>601</ele>
        <time>2012-04-05T18:11:46Z</time>
      </trkpt>
      <trkpt lat="43.41618" lon="2.06767">
        <ele>601</ele>
        <time>2012-04-05T18:11:48Z</time>
      </trkpt>
      <trkpt lat="43.41629" lon="2.06755">
        <ele>601</ele>
        <time>2012-04-05T18:11:51Z</time>
      </trkpt>
      <trkpt lat="43.41631" lon="2.06751">
        <ele>601</ele>
        <time>2012-04-05T18:11:53Z</time>
      </trkpt>
      <trkpt lat="43.41629" lon="2.06749">
        <ele>601</ele>
        <time>2012-04-05T18:11:55Z</time>
      </trkpt>
      <trkpt lat="43.41629" lon="2.06739">
        <ele>599</ele>
        <time>2012-04-05T18:11:58Z</time>
      </trkpt>
      <trkpt lat="43.4163" lon="2.0673">
        <ele>598</ele>
        <time>2012-04-05T18:12:00Z</time>
      </trkpt>
      <trkpt lat="43.41632" lon="2.06722">
        <ele>597</ele>
        <time>2012-04-05T18:12:02Z</time>
      </trkpt>
      <trkpt lat="43.41635" lon="2.06713">
        <ele>596</ele>
        <time>2012-04-05T18:12:04Z</time>
      </trkpt>
      <trkpt lat="43.41639" lon="2.06707">
        <ele>596</ele>
        <time>2012-04-05T18:12:06Z</time>
      </trkpt>
      <trkpt lat="43.41642" lon="2.067">
        <ele>596</ele>
        <time>2012-04-05T18:12:08Z</time>
      </trkpt>
      <trkpt lat="43.41645" lon="2.06694">
        <ele>596</ele>
        <time>2012-04-05T18:12:10Z</time>
      </trkpt>
      <trkpt lat="43.41648" lon="2.06688">
        <ele>596</ele>
        <time>2012-04-05T18:12:12Z</time>
      </trkpt>
      <trkpt lat="43.4165" lon="2.06682">
        <ele>596</ele>
        <time>2012-04-05T18:12:14Z</time>
      </trkpt>
      <trkpt lat="43.41654" lon="2.06675">
        <ele>596</ele>
        <time>2012-04-05T18:12:16Z</time>
      </trkpt>
      <trkpt lat="43.41658" lon="2.06666">
        <ele>596</ele>
        <time>2012-04-05T18:12:18Z</time>
      </trkpt>
      <trkpt lat="43.41662" lon="2.06658">
        <ele>596</ele>
        <time>2012-04-05T18:12:20Z</time>
      </trkpt>
      <trkpt lat="43.41667" lon="2.06646">
        <ele>595</ele>
        <time>2012-04-05T18:12:22Z</time>
      </trkpt>
      <trkpt lat="43.41673" lon="2.06634">
        <ele>595</ele>
        <time>2012-04-05T18:12:24Z</time>
      </trkpt>
      <trkpt lat="43.41679" lon="2.06623">
        <ele>594</ele>
        <time>2012-04-05T18:12:26Z</time>
      </trkpt>
      <trkpt lat="43.41685" lon="2.06607">
        <ele>593</ele>
        <time>2012-04-05T18:12:28Z</time>
      </trkpt>
      <trkpt lat="43.41693" lon="2.06592">
        <ele>592</ele>
        <time>2012-04-05T18:12:30Z</time>
      </trkpt>
      <trkpt lat="43.41699" lon="2.06578">
        <ele>592</ele>
        <time>2012-04-05T18:12:32Z</time>
      </trkpt>
      <trkpt lat="43.41703" lon="2.06566">
        <ele>591</ele>
        <time>2012-04-05T18:12:34Z</time>
      </trkpt>
      <trkpt lat="43.41707" lon="2.06552">
        <ele>589</ele>
        <time>2012-04-05T18:12:36Z</time>
      </trkpt>
      <trkpt lat="43.41715" lon="2.06528">
        <ele>587</ele>
        <time>2012-04-05T18:12:39Z</time>
      </trkpt>
      <trkpt lat="43.41722" lon="2.06515">
        <ele>585</ele>
        <time>2012-04-05T18:12:41Z</time>
      </trkpt>
      <trkpt lat="43.41736" lon="2.06494">
        <ele>584</ele>
        <time>2012-04-05T18:12:44Z</time>
      </trkpt>
      <trkpt lat="43.41748" lon="2.06483">
        <ele>582</ele>
        <time>2012-04-05T18:12:46Z</time>
      </trkpt>
      <trkpt lat="43.41759" lon="2.06473">
        <ele>580</ele>
        <time>2012-04-05T18:12:48Z</time>
      </trkpt>
      <trkpt lat="43.41772" lon="2.06466">
        <ele>578</ele>
        <time>2012-04-05T18:12:50Z</time>
      </trkpt>
      <trkpt lat="43.41785" lon="2.06456">
        <ele>576</ele>
        <time>2012-04-05T18:12:52Z</time>
      </trkpt>
      <trkpt lat="43.41789" lon="2.06444">
        <ele>576</ele>
        <time>2012-04-05T18:12:54Z</time>
      </trkpt>
      <trkpt lat="43.41793" lon="2.06421">
        <ele>575</ele>
        <time>2012-04-05T18:12:57Z</time>
      </trkpt>
      <trkpt lat="43.41792" lon="2.06408">
        <ele>575</ele>
        <time>2012-04-05T18:12:59Z</time>
      </trkpt>
      <trkpt lat="43.41794" lon="2.06395">
        <ele>574</ele>
        <time>2012-04-05T18:13:01Z</time>
      </trkpt>
      <trkpt lat="43.41794" lon="2.06381">
        <ele>573</ele>
        <time>2012-04-05T18:13:03Z</time>
      </trkpt>
      <trkpt lat="43.41797" lon="2.06359">
        <ele>572</ele>
        <time>2012-04-05T18:13:06Z</time>
      </trkpt>
      <trkpt lat="43.41801" lon="2.06345">
        <ele>572</ele>
        <time>2012-04-05T18:13:08Z</time>
      </trkpt>
      <trkpt lat="43.41799" lon="2.0632">
        <ele>571</ele>
        <time>2012-04-05T18:13:11Z</time>
      </trkpt>
      <trkpt lat="43.41794" lon="2.06304">
        <ele>569</ele>
        <time>2012-04-05T18:13:13Z</time>
      </trkpt>
      <trkpt lat="43.4179" lon="2.06289">
        <ele>568</ele>
        <time>2012-04-05T18:13:15Z</time>
      </trkpt>
      <trkpt lat="43.41787" lon="2.06276">
        <ele>566</ele>
        <time>2012-04-05T18:13:17Z</time>
      </trkpt>
      <trkpt lat="43.41783" lon="2.06263">
        <ele>565</ele>
        <time>2012-04-05T18:13:19Z</time>
      </trkpt>
      <trkpt lat="43.41781" lon="2.06249">
        <ele>563</ele>
        <time>2012-04-05T18:13:21Z</time>
      </trkpt>
      <trkpt lat="43.41781" lon="2.06234">
        <ele>561</ele>
        <time>2012-04-05T18:13:23Z</time>
      </trkpt>
      <trkpt lat="43.4178" lon="2.06218">
        <ele>559</ele>
        <time>2012-04-05T18:13:25Z</time>
      </trkpt>
      <trkpt lat="43.41783" lon="2.06204">
        <ele>557</ele>
        <time>2012-04-05T18:13:27Z</time>
      </trkpt>
      <trkpt lat="43.41789" lon="2.06189">
        <ele>555</ele>
        <time>2012-04-05T18:13:29Z</time>
      </trkpt>
      <trkpt lat="43.41803" lon="2.06176">
        <ele>552</ele>
        <time>2012-04-05T18:13:32Z</time>
      </trkpt>
      <trkpt lat="43.41816" lon="2.06169">
        <ele>549</ele>
        <time>2012-04-05T18:13:35Z</time>
      </trkpt>
      <trkpt lat="43.41816" lon="2.06161">
        <ele>547</ele>
        <time>2012-04-05T18:13:37Z</time>
      </trkpt>
      <trkpt lat="43.4181" lon="2.06155">
        <ele>545</ele>
        <time>2012-04-05T18:13:39Z</time>
      </trkpt>
      <trkpt lat="43.41801" lon="2.06151">
        <ele>543</ele>
        <time>2012-04-05T18:13:41Z</time>
      </trkpt>
      <trkpt lat="43.41793" lon="2.06147">
        <ele>543</ele>
        <time>2012-04-05T18:13:43Z</time>
      </trkpt>
      <trkpt lat="43.41784" lon="2.06143">
        <ele>543</ele>
        <time>2012-04-05T18:13:45Z</time>
      </trkpt>
      <trkpt lat="43.4177" lon="2.06137">
        <ele>543</ele>
        <time>2012-04-05T18:13:48Z</time>
      </trkpt>
      <trkpt lat="43.41761" lon="2.06135">
        <ele>543</ele>
        <time>2012-04-05T18:13:50Z</time>
      </trkpt>
      <trkpt lat="43.4175" lon="2.06134">
        <ele>543</ele>
        <time>2012-04-05T18:13:52Z</time>
      </trkpt>
      <trkpt lat="43.41741" lon="2.06134">
        <ele>543</ele>
        <time>2012-04-05T18:13:54Z</time>
      </trkpt>
      <trkpt lat="43.41726" lon="2.06135">
        <ele>543</ele>
        <time>2012-04-05T18:13:57Z</time>
      </trkpt>
      <trkpt lat="43.41711" lon="2.06137">
        <ele>543</ele>
        <time>2012-04-05T18:14:00Z</time>
      </trkpt>
      <trkpt lat="43.41701" lon="2.06138">
        <ele>543</ele>
        <time>2012-04-05T18:14:02Z</time>
      </trkpt>
      <trkpt lat="43.41691" lon="2.06139">
        <ele>543</ele>
        <time>2012-04-05T18:14:04Z</time>
      </trkpt>
      <trkpt lat="43.41682" lon="2.0614">
        <ele>543</ele>
        <time>2012-04-05T18:14:06Z</time>
      </trkpt>
      <trkpt lat="43.41673" lon="2.06142">
        <ele>543</ele>
        <time>2012-04-05T18:14:08Z</time>
      </trkpt>
      <trkpt lat="43.41663" lon="2.06143">
        <ele>543</ele>
        <time>2012-04-05T18:14:10Z</time>
      </trkpt>
      <trkpt lat="43.4165" lon="2.06146">
        <ele>543</ele>
        <time>2012-04-05T18:14:13Z</time>
      </trkpt>
      <trkpt lat="43.4164" lon="2.06147">
        <ele>543</ele>
        <time>2012-04-05T18:14:15Z</time>
      </trkpt>
      <trkpt lat="43.41631" lon="2.06149">
        <ele>543</ele>
        <time>2012-04-05T18:14:17Z</time>
      </trkpt>
      <trkpt lat="43.41617" lon="2.0615">
        <ele>543</ele>
        <time>2012-04-05T18:14:20Z</time>
      </trkpt>
      <trkpt lat="43.41608" lon="2.06152">
        <ele>543</ele>
        <time>2012-04-05T18:14:22Z</time>
      </trkpt>
      <trkpt lat="43.41594" lon="2.06154">
        <ele>544</ele>
        <time>2012-04-05T18:14:25Z</time>
      </trkpt>
      <trkpt lat="43.41586" lon="2.06155">
        <ele>545</ele>
        <time>2012-04-05T18:14:27Z</time>
      </trkpt>
      <trkpt lat="43.41572" lon="2.06156">
        <ele>545</ele>
        <time>2012-04-05T18:14:30Z</time>
      </trkpt>
      <trkpt lat="43.41565" lon="2.06154">
        <ele>545</ele>
        <time>2012-04-05T18:14:32Z</time>
      </trkpt>
      <trkpt lat="43.41557" lon="2.06153">
        <ele>546</ele>
        <time>2012-04-05T18:14:34Z</time>
      </trkpt>
      <trkpt lat="43.41547" lon="2.0615">
        <ele>546</ele>
        <time>2012-04-05T18:14:36Z</time>
      </trkpt>
      <trkpt lat="43.41536" lon="2.06147">
        <ele>546</ele>
        <time>2012-04-05T18:14:38Z</time>
      </trkpt>
      <trkpt lat="43.41524" lon="2.06143">
        <ele>546</ele>
        <time>2012-04-05T18:14:40Z</time>
      </trkpt>
      <trkpt lat="43.4151" lon="2.06137">
        <ele>546</ele>
        <time>2012-04-05T18:14:42Z</time>
      </trkpt>
      <trkpt lat="43.41497" lon="2.0613">
        <ele>546</ele>
        <time>2012-04-05T18:14:44Z</time>
      </trkpt>
      <trkpt lat="43.41488" lon="2.06118">
        <ele>546</ele>
        <time>2012-04-05T18:14:46Z</time>
      </trkpt>
      <trkpt lat="43.41484" lon="2.06105">
        <ele>546</ele>
        <time>2012-04-05T18:14:48Z</time>
      </trkpt>
      <trkpt lat="43.41485" lon="2.06101">
        <ele>546</ele>
        <time>2012-04-05T18:14:50Z</time>
      </trkpt>
      <trkpt lat="43.41488" lon="2.06099">
        <ele>547</ele>
        <time>2012-04-05T18:14:54Z</time>
      </trkpt>
      <trkpt lat="43.41489" lon="2.061">
        <ele>550</ele>
        <time>2012-04-05T18:14:57Z</time>
      </trkpt>
      <trkpt lat="43.4149" lon="2.061">
        <ele>552</ele>
        <time>2012-04-05T18:15:01Z</time>
      </trkpt>
      <trkpt lat="43.41491" lon="2.06101">
        <ele>552</ele>
        <time>2012-04-05T18:15:03Z</time>
      </trkpt>
      <trkpt lat="43.41493" lon="2.06101">
        <ele>552</ele>
        <time>2012-04-05T18:15:05Z</time>
      </trkpt>
      <trkpt lat="43.41495" lon="2.06102">
        <ele>552</ele>
        <time>2012-04-05T18:15:10Z</time>
      </trkpt>
      <trkpt lat="43.41502" lon="2.06104">
        <ele>552</ele>
        <time>2012-04-05T18:15:12Z</time>
      </trkpt>
      <trkpt lat="43.41509" lon="2.06105">
        <ele>552</ele>
        <time>2012-04-05T18:15:14Z</time>
      </trkpt>
      <trkpt lat="43.41518" lon="2.06107">
        <ele>552</ele>
        <time>2012-04-05T18:15:16Z</time>
      </trkpt>
      <trkpt lat="43.41529" lon="2.0611">
        <ele>553</ele>
        <time>2012-04-05T18:15:18Z</time>
      </trkpt>
      <trkpt lat="43.41541" lon="2.06116">
        <ele>555</ele>
        <time>2012-04-05T18:15:20Z</time>
      </trkpt>
      <trkpt lat="43.41552" lon="2.06118">
        <ele>557</ele>
        <time>2012-04-05T18:15:22Z</time>
      </trkpt>
      <trkpt lat="43.41563" lon="2.06115">
        <ele>559</ele>
        <time>2012-04-05T18:15:24Z</time>
      </trkpt>
      <trkpt lat="43.41575" lon="2.06113">
        <ele>559</ele>
        <time>2012-04-05T18:15:26Z</time>
      </trkpt>
      <trkpt lat="43.41586" lon="2.06108">
        <ele>560</ele>
        <time>2012-04-05T18:15:28Z</time>
      </trkpt>
      <trkpt lat="43.41598" lon="2.06104">
        <ele>561</ele>
        <time>2012-04-05T18:15:30Z</time>
      </trkpt>
      <trkpt lat="43.4161" lon="2.061">
        <ele>561</ele>
        <time>2012-04-05T18:15:32Z</time>
      </trkpt>
      <trkpt lat="43.41624" lon="2.06098">
        <ele>561</ele>
        <time>2012-04-05T18:15:34Z</time>
      </trkpt>
      <trkpt lat="43.41637" lon="2.06096">
        <ele>561</ele>
        <time>2012-04-05T18:15:36Z</time>
      </trkpt>
      <trkpt lat="43.41651" lon="2.06095">
        <ele>561</ele>
        <time>2012-04-05T18:15:38Z</time>
      </trkpt>
      <trkpt lat="43.41664" lon="2.0609">
        <ele>561</ele>
        <time>2012-04-05T18:15:40Z</time>
      </trkpt>
      <trkpt lat="43.41678" lon="2.06082">
        <ele>561</ele>
        <time>2012-04-05T18:15:42Z</time>
      </trkpt>
      <trkpt lat="43.41693" lon="2.06078">
        <ele>559</ele>
        <time>2012-04-05T18:15:44Z</time>
      </trkpt>
      <trkpt lat="43.41707" lon="2.06077">
        <ele>557</ele>
        <time>2012-04-05T18:15:46Z</time>
      </trkpt>
      <trkpt lat="43.41719" lon="2.06081">
        <ele>555</ele>
        <time>2012-04-05T18:15:48Z</time>
      </trkpt>
      <trkpt lat="43.4173" lon="2.06086">
        <ele>553</ele>
        <time>2012-04-05T18:15:50Z</time>
      </trkpt>
      <trkpt lat="43.41741" lon="2.06086">
        <ele>551</ele>
        <time>2012-04-05T18:15:52Z</time>
      </trkpt>
      <trkpt lat="43.4175" lon="2.06083">
        <ele>550</ele>
        <time>2012-04-05T18:15:54Z</time>
      </trkpt>
      <trkpt lat="43.41759" lon="2.06077">
        <ele>549</ele>
        <time>2012-04-05T18:15:56Z</time>
      </trkpt>
      <trkpt lat="43.41766" lon="2.06073">
        <ele>549</ele>
        <time>2012-04-05T18:15:58Z</time>
      </trkpt>
      <trkpt lat="43.41773" lon="2.06071">
        <ele>549</ele>
        <time>2012-04-05T18:16:00Z</time>
      </trkpt>
      <trkpt lat="43.41778" lon="2.06068">
        <ele>549</ele>
        <time>2012-04-05T18:16:02Z</time>
      </trkpt>
      <trkpt lat="43.41782" lon="2.06068">
        <ele>549</ele>
        <time>2012-04-05T18:16:04Z</time>
      </trkpt>
      <trkpt lat="43.41788" lon="2.06069">
        <ele>549</ele>
        <time>2012-04-05T18:16:06Z</time>
      </trkpt>
      <trkpt lat="43.41793" lon="2.06071">
        <ele>549</ele>
        <time>2012-04-05T18:16:08Z</time>
      </trkpt>
      <trkpt lat="43.41799" lon="2.06078">
        <ele>549</ele>
        <time>2012-04-05T18:16:10Z</time>
      </trkpt>
      <trkpt lat="43.41809" lon="2.06082">
        <ele>549</ele>
        <time>2012-04-05T18:16:12Z</time>
      </trkpt>
      <trkpt lat="43.41818" lon="2.06083">
        <ele>549</ele>
        <time>2012-04-05T18:16:14Z</time>
      </trkpt>
      <trkpt lat="43.41824" lon="2.06088">
        <ele>551</ele>
        <time>2012-04-05T18:16:16Z</time>
      </trkpt>
      <trkpt lat="43.41831" lon="2.06091">
        <ele>553</ele>
        <time>2012-04-05T18:16:18Z</time>
      </trkpt>
      <trkpt lat="43.41841" lon="2.06093">
        <ele>554</ele>
        <time>2012-04-05T18:16:20Z</time>
      </trkpt>
      <trkpt lat="43.41853" lon="2.06093">
        <ele>554</ele>
        <time>2012-04-05T18:16:22Z</time>
      </trkpt>
      <trkpt lat="43.41865" lon="2.06089">
        <ele>554</ele>
        <time>2012-04-05T18:16:24Z</time>
      </trkpt>
      <trkpt lat="43.41875" lon="2.06079">
        <ele>554</ele>
        <time>2012-04-05T18:16:26Z</time>
      </trkpt>
      <trkpt lat="43.41882" lon="2.06069">
        <ele>552</ele>
        <time>2012-04-05T18:16:28Z</time>
      </trkpt>
      <trkpt lat="43.41887" lon="2.0606">
        <ele>550</ele>
        <time>2012-04-05T18:16:30Z</time>
      </trkpt>
      <trkpt lat="43.41891" lon="2.06051">
        <ele>548</ele>
        <time>2012-04-05T18:16:32Z</time>
      </trkpt>
      <trkpt lat="43.41896" lon="2.06041">
        <ele>545</ele>
        <time>2012-04-05T18:16:34Z</time>
      </trkpt>
      <trkpt lat="43.419" lon="2.06031">
        <ele>542</ele>
        <time>2012-04-05T18:16:36Z</time>
      </trkpt>
      <trkpt lat="43.41904" lon="2.06019">
        <ele>540</ele>
        <time>2012-04-05T18:16:38Z</time>
      </trkpt>
      <trkpt lat="43.41907" lon="2.0601">
        <ele>538</ele>
        <time>2012-04-05T18:16:40Z</time>
      </trkpt>
      <trkpt lat="43.41911" lon="2.06001">
        <ele>536</ele>
        <time>2012-04-05T18:16:42Z</time>
      </trkpt>
      <trkpt lat="43.41919" lon="2.05991">
        <ele>536</ele>
        <time>2012-04-05T18:16:44Z</time>
      </trkpt>
      <trkpt lat="43.4193" lon="2.05985">
        <ele>536</ele>
        <time>2012-04-05T18:16:46Z</time>
      </trkpt>
      <trkpt lat="43.41938" lon="2.05976">
        <ele>535</ele>
        <time>2012-04-05T18:16:48Z</time>
      </trkpt>
      <trkpt lat="43.41946" lon="2.05961">
        <ele>534</ele>
        <time>2012-04-05T18:16:50Z</time>
      </trkpt>
      <trkpt lat="43.41955" lon="2.05946">
        <ele>532</ele>
        <time>2012-04-05T18:16:52Z</time>
      </trkpt>
      <trkpt lat="43.41966" lon="2.05933">
        <ele>532</ele>
        <time>2012-04-05T18:16:54Z</time>
      </trkpt>
      <trkpt lat="43.41976" lon="2.05926">
        <ele>531</ele>
        <time>2012-04-05T18:16:56Z</time>
      </trkpt>
      <trkpt lat="43.41988" lon="2.05922">
        <ele>531</ele>
        <time>2012-04-05T18:16:58Z</time>
      </trkpt>
      <trkpt lat="43.41998" lon="2.05922">
        <ele>530</ele>
        <time>2012-04-05T18:17:00Z</time>
      </trkpt>
      <trkpt lat="43.42008" lon="2.05925">
        <ele>529</ele>
        <time>2012-04-05T18:17:02Z</time>
      </trkpt>
      <trkpt lat="43.4202" lon="2.05922">
        <ele>528</ele>
        <time>2012-04-05T18:17:04Z</time>
      </trkpt>
      <trkpt lat="43.42031" lon="2.05916">
        <ele>528</ele>
        <time>2012-04-05T18:17:06Z</time>
      </trkpt>
      <trkpt lat="43.4204" lon="2.05909">
        <ele>527</ele>
        <time>2012-04-05T18:17:08Z</time>
      </trkpt>
      <trkpt lat="43.4205" lon="2.05904">
        <ele>526</ele>
        <time>2012-04-05T18:17:10Z</time>
      </trkpt>
      <trkpt lat="43.42059" lon="2.05895">
        <ele>524</ele>
        <time>2012-04-05T18:17:12Z</time>
      </trkpt>
      <trkpt lat="43.4207" lon="2.05887">
        <ele>523</ele>
        <time>2012-04-05T18:17:14Z</time>
      </trkpt>
      <trkpt lat="43.42081" lon="2.05879">
        <ele>521</ele>
        <time>2012-04-05T18:17:16Z</time>
      </trkpt>
      <trkpt lat="43.42088" lon="2.05874">
        <ele>520</ele>
        <time>2012-04-05T18:17:18Z</time>
      </trkpt>
      <trkpt lat="43.42095" lon="2.05872">
        <ele>518</ele>
        <time>2012-04-05T18:17:20Z</time>
      </trkpt>
      <trkpt lat="43.42103" lon="2.05871">
        <ele>516</ele>
        <time>2012-04-05T18:17:22Z</time>
      </trkpt>
      <trkpt lat="43.42112" lon="2.05872">
        <ele>514</ele>
        <time>2012-04-05T18:17:24Z</time>
      </trkpt>
      <trkpt lat="43.42122" lon="2.0587">
        <ele>512</ele>
        <time>2012-04-05T18:17:26Z</time>
      </trkpt>
      <trkpt lat="43.42133" lon="2.05863">
        <ele>510</ele>
        <time>2012-04-05T18:17:28Z</time>
      </trkpt>
      <trkpt lat="43.42143" lon="2.05855">
        <ele>509</ele>
        <time>2012-04-05T18:17:30Z</time>
      </trkpt>
      <trkpt lat="43.42152" lon="2.05845">
        <ele>508</ele>
        <time>2012-04-05T18:17:32Z</time>
      </trkpt>
      <trkpt lat="43.42162" lon="2.05836">
        <ele>507</ele>
        <time>2012-04-05T18:17:34Z</time>
      </trkpt>
      <trkpt lat="43.4217" lon="2.05822">
        <ele>506</ele>
        <time>2012-04-05T18:17:36Z</time>
      </trkpt>
      <trkpt lat="43.42176" lon="2.05807">
        <ele>505</ele>
        <time>2012-04-05T18:17:38Z</time>
      </trkpt>
      <trkpt lat="43.42183" lon="2.05793">
        <ele>504</ele>
        <time>2012-04-05T18:17:40Z</time>
      </trkpt>
      <trkpt lat="43.42191" lon="2.05778">
        <ele>502</ele>
        <time>2012-04-05T18:17:42Z</time>
      </trkpt>
      <trkpt lat="43.42197" lon="2.05762">
        <ele>501</ele>
        <time>2012-04-05T18:17:44Z</time>
      </trkpt>
      <trkpt lat="43.42203" lon="2.05747">
        <ele>500</ele>
        <time>2012-04-05T18:17:46Z</time>
      </trkpt>
      <trkpt lat="43.42209" lon="2.05732">
        <ele>500</ele>
        <time>2012-04-05T18:17:48Z</time>
      </trkpt>
      <trkpt lat="43.42217" lon="2.0572">
        <ele>499</ele>
        <time>2012-04-05T18:17:50Z</time>
      </trkpt>
      <trkpt lat="43.42224" lon="2.0571">
        <ele>498</ele>
        <time>2012-04-05T18:17:52Z</time>
      </trkpt>
      <trkpt lat="43.42229" lon="2.05701">
        <ele>497</ele>
        <time>2012-04-05T18:17:54Z</time>
      </trkpt>
      <trkpt lat="43.42235" lon="2.05693">
        <ele>496</ele>
        <time>2012-04-05T18:17:56Z</time>
      </trkpt>
      <trkpt lat="43.42244" lon="2.05682">
        <ele>496</ele>
        <time>2012-04-05T18:17:58Z</time>
      </trkpt>
      <trkpt lat="43.42252" lon="2.05675">
        <ele>496</ele>
        <time>2012-04-05T18:18:00Z</time>
      </trkpt>
      <trkpt lat="43.42262" lon="2.05665">
        <ele>496</ele>
        <time>2012-04-05T18:18:02Z</time>
      </trkpt>
      <trkpt lat="43.42274" lon="2.05658">
        <ele>496</ele>
        <time>2012-04-05T18:18:04Z</time>
      </trkpt>
      <trkpt lat="43.42282" lon="2.0565">
        <ele>496</ele>
        <time>2012-04-05T18:18:06Z</time>
      </trkpt>
      <trkpt lat="43.4229" lon="2.05645">
        <ele>496</ele>
        <time>2012-04-05T18:18:08Z</time>
      </trkpt>
      <trkpt lat="43.42294" lon="2.0564">
        <ele>496</ele>
        <time>2012-04-05T18:18:10Z</time>
      </trkpt>
      <trkpt lat="43.423" lon="2.05636">
        <ele>496</ele>
        <time>2012-04-05T18:18:12Z</time>
      </trkpt>
      <trkpt lat="43.42305" lon="2.05632">
        <ele>496</ele>
        <time>2012-04-05T18:18:14Z</time>
      </trkpt>
      <trkpt lat="43.42309" lon="2.0563">
        <ele>496</ele>
        <time>2012-04-05T18:18:16Z</time>
      </trkpt>
      <trkpt lat="43.42313" lon="2.0563">
        <ele>496</ele>
        <time>2012-04-05T18:18:18Z</time>
      </trkpt>
      <trkpt lat="43.42315" lon="2.05631">
        <ele>496</ele>
        <time>2012-04-05T18:18:21Z</time>
      </trkpt>
      <trkpt lat="43.42316" lon="2.05633">
        <ele>496</ele>
        <time>2012-04-05T18:18:23Z</time>
      </trkpt>
      <trkpt lat="43.42317" lon="2.0563">
        <ele>496</ele>
        <time>2012-04-05T18:18:25Z</time>
      </trkpt>
      <trkpt lat="43.42323" lon="2.05624">
        <ele>496</ele>
        <time>2012-04-05T18:18:27Z</time>
      </trkpt>
      <trkpt lat="43.42328" lon="2.05617">
        <ele>496</ele>
        <time>2012-04-05T18:18:29Z</time>
      </trkpt>
      <trkpt lat="43.42331" lon="2.0561">
        <ele>494</ele>
        <time>2012-04-05T18:18:31Z</time>
      </trkpt>
      <trkpt lat="43.42335" lon="2.05604">
        <ele>492</ele>
        <time>2012-04-05T18:18:33Z</time>
      </trkpt>
      <trkpt lat="43.4234" lon="2.05599">
        <ele>490</ele>
        <time>2012-04-05T18:18:35Z</time>
      </trkpt>
      <trkpt lat="43.42345" lon="2.05593">
        <ele>488</ele>
        <time>2012-04-05T18:18:37Z</time>
      </trkpt>
      <trkpt lat="43.42351" lon="2.05586">
        <ele>486</ele>
        <time>2012-04-05T18:18:39Z</time>
      </trkpt>
      <trkpt lat="43.42357" lon="2.05578">
        <ele>484</ele>
        <time>2012-04-05T18:18:41Z</time>
      </trkpt>
      <trkpt lat="43.42365" lon="2.05571">
        <ele>482</ele>
        <time>2012-04-05T18:18:43Z</time>
      </trkpt>
      <trkpt lat="43.42372" lon="2.05563">
        <ele>480</ele>
        <time>2012-04-05T18:18:45Z</time>
      </trkpt>
      <trkpt lat="43.4238" lon="2.05556">
        <ele>478</ele>
        <time>2012-04-05T18:18:47Z</time>
      </trkpt>
      <trkpt lat="43.42387" lon="2.05551">
        <ele>476</ele>
        <time>2012-04-05T18:18:49Z</time>
      </trkpt>
      <trkpt lat="43.42395" lon="2.05543">
        <ele>474</ele>
        <time>2012-04-05T18:18:51Z</time>
      </trkpt>
      <trkpt lat="43.42401" lon="2.05534">
        <ele>472</ele>
        <time>2012-04-05T18:18:53Z</time>
      </trkpt>
      <trkpt lat="43.42405" lon="2.05525">
        <ele>470</ele>
        <time>2012-04-05T18:18:55Z</time>
      </trkpt>
      <trkpt lat="43.42407" lon="2.05514">
        <ele>468</ele>
        <time>2012-04-05T18:18:57Z</time>
      </trkpt>
      <trkpt lat="43.42408" lon="2.05504">
        <ele>467</ele>
        <time>2012-04-05T18:18:59Z</time>
      </trkpt>
      <trkpt lat="43.4241" lon="2.05499">
        <ele>467</ele>
        <time>2012-04-05T18:19:01Z</time>
      </trkpt>
      <trkpt lat="43.42414" lon="2.05498">
        <ele>466</ele>
        <time>2012-04-05T18:19:03Z</time>
      </trkpt>
      <trkpt lat="43.42421" lon="2.055">
        <ele>466</ele>
        <time>2012-04-05T18:19:05Z</time>
      </trkpt>
      <trkpt lat="43.42424" lon="2.05499">
        <ele>466</ele>
        <time>2012-04-05T18:19:07Z</time>
      </trkpt>
      <trkpt lat="43.42424" lon="2.05496">
        <ele>466</ele>
        <time>2012-04-05T18:19:10Z</time>
      </trkpt>
      <trkpt lat="43.42425" lon="2.05497">
        <ele>466</ele>
        <time>2012-04-05T18:19:15Z</time>
      </trkpt>
      <trkpt lat="43.42426" lon="2.05501">
        <ele>466</ele>
        <time>2012-04-05T18:19:17Z</time>
      </trkpt>
      <trkpt lat="43.42427" lon="2.05502">
        <ele>466</ele>
        <time>2012-04-05T18:19:19Z</time>
      </trkpt>
      <trkpt lat="43.42429" lon="2.05502">
        <ele>466</ele>
        <time>2012-04-05T18:19:21Z</time>
      </trkpt>
      <trkpt lat="43.4243" lon="2.05501">
        <ele>466</ele>
        <time>2012-04-05T18:19:23Z</time>
      </trkpt>
      <trkpt lat="43.42432" lon="2.05501">
        <ele>466</ele>
        <time>2012-04-05T18:19:25Z</time>
      </trkpt>
      <trkpt lat="43.42433" lon="2.055">
        <ele>467</ele>
        <time>2012-04-05T18:19:27Z</time>
      </trkpt>
      <trkpt lat="43.42434" lon="2.055">
        <ele>468</ele>
        <time>2012-04-05T18:19:29Z</time>
      </trkpt>
      <trkpt lat="43.42437" lon="2.05499">
        <ele>469</ele>
        <time>2012-04-05T18:19:32Z</time>
      </trkpt>
      <trkpt lat="43.42439" lon="2.05498">
        <ele>470</ele>
        <time>2012-04-05T18:19:34Z</time>
      </trkpt>
      <trkpt lat="43.42439" lon="2.05494">
        <ele>472</ele>
        <time>2012-04-05T18:19:36Z</time>
      </trkpt>
      <trkpt lat="43.42439" lon="2.0549">
        <ele>472</ele>
        <time>2012-04-05T18:19:39Z</time>
      </trkpt>
      <trkpt lat="43.4244" lon="2.0549">
        <ele>473</ele>
        <time>2012-04-05T18:19:42Z</time>
      </trkpt>
      <trkpt lat="43.42441" lon="2.05489">
        <ele>474</ele>
        <time>2012-04-05T18:19:44Z</time>
      </trkpt>
      <trkpt lat="43.42445" lon="2.05486">
        <ele>474</ele>
        <time>2012-04-05T18:19:47Z</time>
      </trkpt>
      <trkpt lat="43.42447" lon="2.05485">
        <ele>474</ele>
        <time>2012-04-05T18:19:49Z</time>
      </trkpt>
      <trkpt lat="43.42449" lon="2.05484">
        <ele>475</ele>
        <time>2012-04-05T18:19:51Z</time>
      </trkpt>
      <trkpt lat="43.42452" lon="2.05483">
        <ele>477</ele>
        <time>2012-04-05T18:19:53Z</time>
      </trkpt>
      <trkpt lat="43.42454" lon="2.05484">
        <ele>478</ele>
        <time>2012-04-05T18:19:55Z</time>
      </trkpt>
      <trkpt lat="43.42456" lon="2.05482">
        <ele>479</ele>
        <time>2012-04-05T18:19:57Z</time>
      </trkpt>
      <trkpt lat="43.42457" lon="2.0548">
        <ele>480</ele>
        <time>2012-04-05T18:20:00Z</time>
      </trkpt>
      <trkpt lat="43.42461" lon="2.05477">
        <ele>480</ele>
        <time>2012-04-05T18:20:04Z</time>
      </trkpt>
      <trkpt lat="43.42463" lon="2.05478">
        <ele>481</ele>
        <time>2012-04-05T18:20:06Z</time>
      </trkpt>
      <trkpt lat="43.42464" lon="2.05477">
        <ele>483</ele>
        <time>2012-04-05T18:20:09Z</time>
      </trkpt>
      <trkpt lat="43.42468" lon="2.05476">
        <ele>483</ele>
        <time>2012-04-05T18:20:12Z</time>
      </trkpt>
      <trkpt lat="43.4247" lon="2.05475">
        <ele>483</ele>
        <time>2012-04-05T18:20:14Z</time>
      </trkpt>
      <trkpt lat="43.42473" lon="2.05474">
        <ele>483</ele>
        <time>2012-04-05T18:20:16Z</time>
      </trkpt>
      <trkpt lat="43.42476" lon="2.05471">
        <ele>483</ele>
        <time>2012-04-05T18:20:18Z</time>
      </trkpt>
      <trkpt lat="43.42478" lon="2.05469">
        <ele>484</ele>
        <time>2012-04-05T18:20:20Z</time>
      </trkpt>
      <trkpt lat="43.42482" lon="2.05471">
        <ele>484</ele>
        <time>2012-04-05T18:20:22Z</time>
      </trkpt>
      <trkpt lat="43.42488" lon="2.05472">
        <ele>484</ele>
        <time>2012-04-05T18:20:24Z</time>
      </trkpt>
      <trkpt lat="43.42492" lon="2.05473">
        <ele>484</ele>
        <time>2012-04-05T18:20:26Z</time>
      </trkpt>
      <trkpt lat="43.42498" lon="2.05472">
        <ele>484</ele>
        <time>2012-04-05T18:20:28Z</time>
      </trkpt>
      <trkpt lat="43.42503" lon="2.05474">
        <ele>484</ele>
        <time>2012-04-05T18:20:30Z</time>
      </trkpt>
      <trkpt lat="43.42515" lon="2.05472">
        <ele>484</ele>
        <time>2012-04-05T18:20:32Z</time>
      </trkpt>
      <trkpt lat="43.42528" lon="2.05465">
        <ele>484</ele>
        <time>2012-04-05T18:20:34Z</time>
      </trkpt>
      <trkpt lat="43.42542" lon="2.05456">
        <ele>484</ele>
        <time>2012-04-05T18:20:36Z</time>
      </trkpt>
      <trkpt lat="43.42554" lon="2.05443">
        <ele>483</ele>
        <time>2012-04-05T18:20:38Z</time>
      </trkpt>
      <trkpt lat="43.42563" lon="2.05431">
        <ele>481</ele>
        <time>2012-04-05T18:20:40Z</time>
      </trkpt>
      <trkpt lat="43.42572" lon="2.05421">
        <ele>479</ele>
        <time>2012-04-05T18:20:42Z</time>
      </trkpt>
      <trkpt lat="43.42582" lon="2.05416">
        <ele>477</ele>
        <time>2012-04-05T18:20:44Z</time>
      </trkpt>
      <trkpt lat="43.42592" lon="2.05406">
        <ele>475</ele>
        <time>2012-04-05T18:20:46Z</time>
      </trkpt>
      <trkpt lat="43.42599" lon="2.05396">
        <ele>473</ele>
        <time>2012-04-05T18:20:48Z</time>
      </trkpt>
      <trkpt lat="43.42604" lon="2.05387">
        <ele>471</ele>
        <time>2012-04-05T18:20:50Z</time>
      </trkpt>
      <trkpt lat="43.42609" lon="2.05381">
        <ele>470</ele>
        <time>2012-04-05T18:20:52Z</time>
      </trkpt>
      <trkpt lat="43.42617" lon="2.05378">
        <ele>470</ele>
        <time>2012-04-05T18:20:54Z</time>
      </trkpt>
      <trkpt lat="43.42626" lon="2.05377">
        <ele>470</ele>
        <time>2012-04-05T18:20:56Z</time>
      </trkpt>
      <trkpt lat="43.42632" lon="2.05372">
        <ele>470</ele>
        <time>2012-04-05T18:20:58Z</time>
      </trkpt>
      <trkpt lat="43.42637" lon="2.05368">
        <ele>470</ele>
        <time>2012-04-05T18:21:00Z</time>
      </trkpt>
      <trkpt lat="43.42642" lon="2.05361">
        <ele>470</ele>
        <time>2012-04-05T18:21:02Z</time>
      </trkpt>
      <trkpt lat="43.42653" lon="2.05357">
        <ele>468</ele>
        <time>2012-04-05T18:21:04Z</time>
      </trkpt>
      <trkpt lat="43.42665" lon="2.05358">
        <ele>466</ele>
        <time>2012-04-05T18:21:06Z</time>
      </trkpt>
      <trkpt lat="43.42677" lon="2.05358">
        <ele>465</ele>
        <time>2012-04-05T18:21:08Z</time>
      </trkpt>
      <trkpt lat="43.4269" lon="2.0536">
        <ele>465</ele>
        <time>2012-04-05T18:21:10Z</time>
      </trkpt>
      <trkpt lat="43.42704" lon="2.05364">
        <ele>465</ele>
        <time>2012-04-05T18:21:12Z</time>
      </trkpt>
      <trkpt lat="43.42719" lon="2.05364">
        <ele>465</ele>
        <time>2012-04-05T18:21:14Z</time>
      </trkpt>
      <trkpt lat="43.42732" lon="2.05363">
        <ele>465</ele>
        <time>2012-04-05T18:21:16Z</time>
      </trkpt>
      <trkpt lat="43.42745" lon="2.05368">
        <ele>465</ele>
        <time>2012-04-05T18:21:18Z</time>
      </trkpt>
      <trkpt lat="43.4276" lon="2.05372">
        <ele>465</ele>
        <time>2012-04-05T18:21:20Z</time>
      </trkpt>
      <trkpt lat="43.42778" lon="2.05387">
        <ele>465</ele>
        <time>2012-04-05T18:21:22Z</time>
      </trkpt>
      <trkpt lat="43.42793" lon="2.05395">
        <ele>463</ele>
        <time>2012-04-05T18:21:24Z</time>
      </trkpt>
      <trkpt lat="43.42805" lon="2.05394">
        <ele>461</ele>
        <time>2012-04-05T18:21:26Z</time>
      </trkpt>
      <trkpt lat="43.42812" lon="2.0539">
        <ele>459</ele>
        <time>2012-04-05T18:21:28Z</time>
      </trkpt>
      <trkpt lat="43.4282" lon="2.05382">
        <ele>457</ele>
        <time>2012-04-05T18:21:30Z</time>
      </trkpt>
      <trkpt lat="43.42827" lon="2.05376">
        <ele>457</ele>
        <time>2012-04-05T18:21:32Z</time>
      </trkpt>
      <trkpt lat="43.42833" lon="2.0537">
        <ele>456</ele>
        <time>2012-04-05T18:21:34Z</time>
      </trkpt>
      <trkpt lat="43.42837" lon="2.05363">
        <ele>456</ele>
        <time>2012-04-05T18:21:36Z</time>
      </trkpt>
      <trkpt lat="43.42844" lon="2.05356">
        <ele>456</ele>
        <time>2012-04-05T18:21:38Z</time>
      </trkpt>
      <trkpt lat="43.42851" lon="2.05349">
        <ele>456</ele>
        <time>2012-04-05T18:21:40Z</time>
      </trkpt>
      <trkpt lat="43.42858" lon="2.05341">
        <ele>456</ele>
        <time>2012-04-05T18:21:42Z</time>
      </trkpt>
      <trkpt lat="43.42865" lon="2.05333">
        <ele>456</ele>
        <time>2012-04-05T18:21:44Z</time>
      </trkpt>
      <trkpt lat="43.42873" lon="2.05326">
        <ele>456</ele>
        <time>2012-04-05T18:21:46Z</time>
      </trkpt>
      <trkpt lat="43.42881" lon="2.0532">
        <ele>456</ele>
        <time>2012-04-05T18:21:48Z</time>
      </trkpt>
      <trkpt lat="43.42887" lon="2.05315">
        <ele>456</ele>
        <time>2012-04-05T18:21:50Z</time>
      </trkpt>
      <trkpt lat="43.42897" lon="2.05311">
        <ele>456</ele>
        <time>2012-04-05T18:21:52Z</time>
      </trkpt>
      <trkpt lat="43.42907" lon="2.05307">
        <ele>456</ele>
        <time>2012-04-05T18:21:54Z</time>
      </trkpt>
      <trkpt lat="43.42915" lon="2.05297">
        <ele>456</ele>
        <time>2012-04-05T18:21:56Z</time>
      </trkpt>
      <trkpt lat="43.42921" lon="2.05285">
        <ele>456</ele>
        <time>2012-04-05T18:21:58Z</time>
      </trkpt>
      <trkpt lat="43.42926" lon="2.05274">
        <ele>456</ele>
        <time>2012-04-05T18:22:00Z</time>
      </trkpt>
      <trkpt lat="43.42936" lon="2.05267">
        <ele>454</ele>
        <time>2012-04-05T18:22:02Z</time>
      </trkpt>
      <trkpt lat="43.42949" lon="2.05262">
        <ele>452</ele>
        <time>2012-04-05T18:22:04Z</time>
      </trkpt>
      <trkpt lat="43.4296" lon="2.05251">
        <ele>450</ele>
        <time>2012-04-05T18:22:06Z</time>
      </trkpt>
      <trkpt lat="43.42969" lon="2.05237">
        <ele>448</ele>
        <time>2012-04-05T18:22:08Z</time>
      </trkpt>
      <trkpt lat="43.42978" lon="2.05224">
        <ele>446</ele>
        <time>2012-04-05T18:22:10Z</time>
      </trkpt>
      <trkpt lat="43.4298" lon="2.05208">
        <ele>444</ele>
        <time>2012-04-05T18:22:12Z</time>
      </trkpt>
      <trkpt lat="43.42987" lon="2.05193">
        <ele>444</ele>
        <time>2012-04-05T18:22:14Z</time>
      </trkpt>
      <trkpt lat="43.4299" lon="2.05179">
        <ele>444</ele>
        <time>2012-04-05T18:22:16Z</time>
      </trkpt>
      <trkpt lat="43.42994" lon="2.05166">
        <ele>444</ele>
        <time>2012-04-05T18:22:18Z</time>
      </trkpt>
      <trkpt lat="43.42999" lon="2.05153">
        <ele>444</ele>
        <time>2012-04-05T18:22:20Z</time>
      </trkpt>
      <trkpt lat="43.43005" lon="2.0514">
        <ele>444</ele>
        <time>2012-04-05T18:22:22Z</time>
      </trkpt>
      <trkpt lat="43.43012" lon="2.05126">
        <ele>444</ele>
        <time>2012-04-05T18:22:24Z</time>
      </trkpt>
      <trkpt lat="43.43016" lon="2.05112">
        <ele>444</ele>
        <time>2012-04-05T18:22:26Z</time>
      </trkpt>
      <trkpt lat="43.43019" lon="2.05099">
        <ele>444</ele>
        <time>2012-04-05T18:22:28Z</time>
      </trkpt>
      <trkpt lat="43.43022" lon="2.05087">
        <ele>444</ele>
        <time>2012-04-05T18:22:30Z</time>
      </trkpt>
      <trkpt lat="43.4302" lon="2.05072">
        <ele>444</ele>
        <time>2012-04-05T18:22:32Z</time>
      </trkpt>
      <trkpt lat="43.43022" lon="2.05059">
        <ele>444</ele>
        <time>2012-04-05T18:22:34Z</time>
      </trkpt>
      <trkpt lat="43.43024" lon="2.05048">
        <ele>444</ele>
        <time>2012-04-05T18:22:36Z</time>
      </trkpt>
      <trkpt lat="43.43028" lon="2.05047">
        <ele>444</ele>
        <time>2012-04-05T18:22:38Z</time>
      </trkpt>
      <trkpt lat="43.43033" lon="2.05046">
        <ele>446</ele>
        <time>2012-04-05T18:22:40Z</time>
      </trkpt>
      <trkpt lat="43.43039" lon="2.05042">
        <ele>446</ele>
        <time>2012-04-05T18:22:42Z</time>
      </trkpt>
      <trkpt lat="43.43048" lon="2.05031">
        <ele>446</ele>
        <time>2012-04-05T18:22:44Z</time>
      </trkpt>
      <trkpt lat="43.43056" lon="2.0502">
        <ele>445</ele>
        <time>2012-04-05T18:22:46Z</time>
      </trkpt>
      <trkpt lat="43.43063" lon="2.0501">
        <ele>445</ele>
        <time>2012-04-05T18:22:48Z</time>
      </trkpt>
      <trkpt lat="43.43072" lon="2.04999">
        <ele>445</ele>
        <time>2012-04-05T18:22:50Z</time>
      </trkpt>
      <trkpt lat="43.43079" lon="2.04987">
        <ele>445</ele>
        <time>2012-04-05T18:22:52Z</time>
      </trkpt>
      <trkpt lat="43.43085" lon="2.04973">
        <ele>445</ele>
        <time>2012-04-05T18:22:54Z</time>
      </trkpt>
      <trkpt lat="43.43093" lon="2.04962">
        <ele>445</ele>
        <time>2012-04-05T18:22:56Z</time>
      </trkpt>
      <trkpt lat="43.43102" lon="2.04953">
        <ele>445</ele>
        <time>2012-04-05T18:22:58Z</time>
      </trkpt>
      <trkpt lat="43.4311" lon="2.04942">
        <ele>446</ele>
        <time>2012-04-05T18:23:00Z</time>
      </trkpt>
      <trkpt lat="43.43116" lon="2.04931">
        <ele>448</ele>
        <time>2012-04-05T18:23:02Z</time>
      </trkpt>
      <trkpt lat="43.43121" lon="2.04919">
        <ele>448</ele>
        <time>2012-04-05T18:23:04Z</time>
      </trkpt>
      <trkpt lat="43.43124" lon="2.04906">
        <ele>448</ele>
        <time>2012-04-05T18:23:06Z</time>
      </trkpt>
      <trkpt lat="43.4313" lon="2.04893">
        <ele>448</ele>
        <time>2012-04-05T18:23:08Z</time>
      </trkpt>
      <trkpt lat="43.43138" lon="2.0488">
        <ele>448</ele>
        <time>2012-04-05T18:23:10Z</time>
      </trkpt>
      <trkpt lat="43.43142" lon="2.04867">
        <ele>448</ele>
        <time>2012-04-05T18:23:12Z</time>
      </trkpt>
      <trkpt lat="43.43146" lon="2.04854">
        <ele>448</ele>
        <time>2012-04-05T18:23:14Z</time>
      </trkpt>
      <trkpt lat="43.43152" lon="2.04841">
        <ele>448</ele>
        <time>2012-04-05T18:23:16Z</time>
      </trkpt>
      <trkpt lat="43.43155" lon="2.04827">
        <ele>448</ele>
        <time>2012-04-05T18:23:18Z</time>
      </trkpt>
      <trkpt lat="43.4316" lon="2.04815">
        <ele>448</ele>
        <time>2012-04-05T18:23:20Z</time>
      </trkpt>
      <trkpt lat="43.43164" lon="2.04802">
        <ele>447</ele>
        <time>2012-04-05T18:23:22Z</time>
      </trkpt>
      <trkpt lat="43.43172" lon="2.04789">
        <ele>446</ele>
        <time>2012-04-05T18:23:24Z</time>
      </trkpt>
      <trkpt lat="43.43178" lon="2.04778">
        <ele>444</ele>
        <time>2012-04-05T18:23:26Z</time>
      </trkpt>
      <trkpt lat="43.43185" lon="2.04769">
        <ele>443</ele>
        <time>2012-04-05T18:23:28Z</time>
      </trkpt>
      <trkpt lat="43.43196" lon="2.04761">
        <ele>441</ele>
        <time>2012-04-05T18:23:30Z</time>
      </trkpt>
      <trkpt lat="43.43203" lon="2.04743">
        <ele>439</ele>
        <time>2012-04-05T18:23:32Z</time>
      </trkpt>
      <trkpt lat="43.43206" lon="2.0472">
        <ele>438</ele>
        <time>2012-04-05T18:23:34Z</time>
      </trkpt>
      <trkpt lat="43.43209" lon="2.04696">
        <ele>436</ele>
        <time>2012-04-05T18:23:36Z</time>
      </trkpt>
      <trkpt lat="43.43214" lon="2.04669">
        <ele>434</ele>
        <time>2012-04-05T18:23:38Z</time>
      </trkpt>
      <trkpt lat="43.4322" lon="2.04641">
        <ele>432</ele>
        <time>2012-04-05T18:23:40Z</time>
      </trkpt>
      <trkpt lat="43.43232" lon="2.04596">
        <ele>430</ele>
        <time>2012-04-05T18:23:43Z</time>
      </trkpt>
      <trkpt lat="43.43239" lon="2.04564">
        <ele>428</ele>
        <time>2012-04-05T18:23:45Z</time>
      </trkpt>
      <trkpt lat="43.43251" lon="2.04515">
        <ele>425</ele>
        <time>2012-04-05T18:23:48Z</time>
      </trkpt>
      <trkpt lat="43.43259" lon="2.04482">
        <ele>422</ele>
        <time>2012-04-05T18:23:50Z</time>
      </trkpt>
      <trkpt lat="43.43268" lon="2.04447">
        <ele>418</ele>
        <time>2012-04-05T18:23:52Z</time>
      </trkpt>
      <trkpt lat="43.43275" lon="2.04413">
        <ele>414</ele>
        <time>2012-04-05T18:23:54Z</time>
      </trkpt>
      <trkpt lat="43.43279" lon="2.04382">
        <ele>410</ele>
        <time>2012-04-05T18:23:56Z</time>
      </trkpt>
      <trkpt lat="43.43277" lon="2.04355">
        <ele>407</ele>
        <time>2012-04-05T18:23:58Z</time>
      </trkpt>
      <trkpt lat="43.43266" lon="2.04336">
        <ele>404</ele>
        <time>2012-04-05T18:24:00Z</time>
      </trkpt>
      <trkpt lat="43.43248" lon="2.04328">
        <ele>400</ele>
        <time>2012-04-05T18:24:02Z</time>
      </trkpt>
      <trkpt lat="43.43228" lon="2.04332">
        <ele>397</ele>
        <time>2012-04-05T18:24:04Z</time>
      </trkpt>
      <trkpt lat="43.43211" lon="2.04334">
        <ele>394</ele>
        <time>2012-04-05T18:24:06Z</time>
      </trkpt>
      <trkpt lat="43.43199" lon="2.04322">
        <ele>391</ele>
        <time>2012-04-05T18:24:08Z</time>
      </trkpt>
      <trkpt lat="43.43208" lon="2.043">
        <ele>389</ele>
        <time>2012-04-05T18:24:10Z</time>
      </trkpt>
      <trkpt lat="43.43235" lon="2.04271">
        <ele>385</ele>
        <time>2012-04-05T18:24:13Z</time>
      </trkpt>
      <trkpt lat="43.43251" lon="2.0425">
        <ele>383</ele>
        <time>2012-04-05T18:24:15Z</time>
      </trkpt>
      <trkpt lat="43.43267" lon="2.04225">
        <ele>381</ele>
        <time>2012-04-05T18:24:17Z</time>
      </trkpt>
      <trkpt lat="43.4328" lon="2.04196">
        <ele>379</ele>
        <time>2012-04-05T18:24:19Z</time>
      </trkpt>
      <trkpt lat="43.43295" lon="2.04167">
        <ele>377</ele>
        <time>2012-04-05T18:24:21Z</time>
      </trkpt>
      <trkpt lat="43.4331" lon="2.04136">
        <ele>374</ele>
        <time>2012-04-05T18:24:23Z</time>
      </trkpt>
      <trkpt lat="43.43325" lon="2.04103">
        <ele>372</ele>
        <time>2012-04-05T18:24:25Z</time>
      </trkpt>
      <trkpt lat="43.43344" lon="2.04057">
        <ele>369</ele>
        <time>2012-04-05T18:24:28Z</time>
      </trkpt>
      <trkpt lat="43.43354" lon="2.04034">
        <ele>367</ele>
        <time>2012-04-05T18:24:30Z</time>
      </trkpt>
      <trkpt lat="43.43362" lon="2.04017">
        <ele>365</ele>
        <time>2012-04-05T18:24:32Z</time>
      </trkpt>
      <trkpt lat="43.43367" lon="2.04012">
        <ele>363</ele>
        <time>2012-04-05T18:24:34Z</time>
      </trkpt>
      <trkpt lat="43.43373" lon="2.04019">
        <ele>361</ele>
        <time>2012-04-05T18:24:36Z</time>
      </trkpt>
      <trkpt lat="43.4338" lon="2.04035">
        <ele>360</ele>
        <time>2012-04-05T18:24:38Z</time>
      </trkpt>
      <trkpt lat="43.43387" lon="2.04051">
        <ele>360</ele>
        <time>2012-04-05T18:24:40Z</time>
      </trkpt>
      <trkpt lat="43.43396" lon="2.04063">
        <ele>360</ele>
        <time>2012-04-05T18:24:42Z</time>
      </trkpt>
      <trkpt lat="43.43408" lon="2.04069">
        <ele>360</ele>
        <time>2012-04-05T18:24:44Z</time>
      </trkpt>
      <trkpt lat="43.4342" lon="2.04074">
        <ele>360</ele>
        <time>2012-04-05T18:24:46Z</time>
      </trkpt>
      <trkpt lat="43.4343" lon="2.04078">
        <ele>360</ele>
        <time>2012-04-05T18:24:48Z</time>
      </trkpt>
      <trkpt lat="43.43441" lon="2.04081">
        <ele>360</ele>
        <time>2012-04-05T18:24:50Z</time>
      </trkpt>
      <trkpt lat="43.43453" lon="2.0408">
        <ele>359</ele>
        <time>2012-04-05T18:24:52Z</time>
      </trkpt>
      <trkpt lat="43.43463" lon="2.04075">
        <ele>359</ele>
        <time>2012-04-05T18:24:54Z</time>
      </trkpt>
      <trkpt lat="43.43472" lon="2.04066">
        <ele>359</ele>
        <time>2012-04-05T18:24:56Z</time>
      </trkpt>
      <trkpt lat="43.43478" lon="2.04053">
        <ele>358</ele>
        <time>2012-04-05T18:24:58Z</time>
      </trkpt>
      <trkpt lat="43.43483" lon="2.04038">
        <ele>358</ele>
        <time>2012-04-05T18:25:00Z</time>
      </trkpt>
      <trkpt lat="43.43489" lon="2.04024">
        <ele>358</ele>
        <time>2012-04-05T18:25:02Z</time>
      </trkpt>
      <trkpt lat="43.43494" lon="2.04009">
        <ele>357</ele>
        <time>2012-04-05T18:25:04Z</time>
      </trkpt>
      <trkpt lat="43.43497" lon="2.03995">
        <ele>356</ele>
        <time>2012-04-05T18:25:06Z</time>
      </trkpt>
      <trkpt lat="43.43497" lon="2.03983">
        <ele>355</ele>
        <time>2012-04-05T18:25:08Z</time>
      </trkpt>
      <trkpt lat="43.43498" lon="2.03975">
        <ele>355</ele>
        <time>2012-04-05T18:25:10Z</time>
      </trkpt>
      <trkpt lat="43.43503" lon="2.03966">
        <ele>355</ele>
        <time>2012-04-05T18:25:12Z</time>
      </trkpt>
      <trkpt lat="43.43512" lon="2.03959">
        <ele>355</ele>
        <time>2012-04-05T18:25:14Z</time>
      </trkpt>
      <trkpt lat="43.4352" lon="2.03952">
        <ele>355</ele>
        <time>2012-04-05T18:25:16Z</time>
      </trkpt>
      <trkpt lat="43.43528" lon="2.03942">
        <ele>355</ele>
        <time>2012-04-05T18:25:18Z</time>
      </trkpt>
      <trkpt lat="43.43536" lon="2.03931">
        <ele>355</ele>
        <time>2012-04-05T18:25:20Z</time>
      </trkpt>
      <trkpt lat="43.43543" lon="2.03921">
        <ele>355</ele>
        <time>2012-04-05T18:25:22Z</time>
      </trkpt>
      <trkpt lat="43.43551" lon="2.03912">
        <ele>355</ele>
        <time>2012-04-05T18:25:24Z</time>
      </trkpt>
      <trkpt lat="43.43559" lon="2.03906">
        <ele>355</ele>
        <time>2012-04-05T18:25:26Z</time>
      </trkpt>
      <trkpt lat="43.43567" lon="2.03903">
        <ele>355</ele>
        <time>2012-04-05T18:25:28Z</time>
      </trkpt>
      <trkpt lat="43.43575" lon="2.039">
        <ele>354</ele>
        <time>2012-04-05T18:25:30Z</time>
      </trkpt>
      <trkpt lat="43.43584" lon="2.03894">
        <ele>354</ele>
        <time>2012-04-05T18:25:32Z</time>
      </trkpt>
      <trkpt lat="43.43592" lon="2.03886">
        <ele>354</ele>
        <time>2012-04-05T18:25:34Z</time>
      </trkpt>
      <trkpt lat="43.43599" lon="2.03877">
        <ele>354</ele>
        <time>2012-04-05T18:25:36Z</time>
      </trkpt>
      <trkpt lat="43.43605" lon="2.03867">
        <ele>354</ele>
        <time>2012-04-05T18:25:38Z</time>
      </trkpt>
      <trkpt lat="43.43612" lon="2.03856">
        <ele>354</ele>
        <time>2012-04-05T18:25:40Z</time>
      </trkpt>
      <trkpt lat="43.43617" lon="2.03844">
        <ele>354</ele>
        <time>2012-04-05T18:25:42Z</time>
      </trkpt>
      <trkpt lat="43.43623" lon="2.03832">
        <ele>354</ele>
        <time>2012-04-05T18:25:44Z</time>
      </trkpt>
      <trkpt lat="43.4363" lon="2.03821">
        <ele>354</ele>
        <time>2012-04-05T18:25:46Z</time>
      </trkpt>
      <trkpt lat="43.43636" lon="2.03812">
        <ele>354</ele>
        <time>2012-04-05T18:25:48Z</time>
      </trkpt>
      <trkpt lat="43.43643" lon="2.03802">
        <ele>354</ele>
        <time>2012-04-05T18:25:50Z</time>
      </trkpt>
      <trkpt lat="43.43648" lon="2.03792">
        <ele>354</ele>
        <time>2012-04-05T18:25:52Z</time>
      </trkpt>
      <trkpt lat="43.43655" lon="2.03781">
        <ele>353</ele>
        <time>2012-04-05T18:25:54Z</time>
      </trkpt>
      <trkpt lat="43.43663" lon="2.0377">
        <ele>353</ele>
        <time>2012-04-05T18:25:56Z</time>
      </trkpt>
      <trkpt lat="43.43671" lon="2.0376">
        <ele>353</ele>
        <time>2012-04-05T18:25:58Z</time>
      </trkpt>
      <trkpt lat="43.43679" lon="2.0375">
        <ele>353</ele>
        <time>2012-04-05T18:26:00Z</time>
      </trkpt>
      <trkpt lat="43.43687" lon="2.03741">
        <ele>353</ele>
        <time>2012-04-05T18:26:02Z</time>
      </trkpt>
      <trkpt lat="43.43695" lon="2.03731">
        <ele>353</ele>
        <time>2012-04-05T18:26:04Z</time>
      </trkpt>
      <trkpt lat="43.43702" lon="2.03721">
        <ele>353</ele>
        <time>2012-04-05T18:26:06Z</time>
      </trkpt>
      <trkpt lat="43.43709" lon="2.03712">
        <ele>353</ele>
        <time>2012-04-05T18:26:08Z</time>
      </trkpt>
      <trkpt lat="43.43715" lon="2.03703">
        <ele>354</ele>
        <time>2012-04-05T18:26:10Z</time>
      </trkpt>
      <trkpt lat="43.43721" lon="2.03695">
        <ele>355</ele>
        <time>2012-04-05T18:26:12Z</time>
      </trkpt>
      <trkpt lat="43.43727" lon="2.03687">
        <ele>356</ele>
        <time>2012-04-05T18:26:14Z</time>
      </trkpt>
      <trkpt lat="43.43734" lon="2.03679">
        <ele>356</ele>
        <time>2012-04-05T18:26:16Z</time>
      </trkpt>
      <trkpt lat="43.43741" lon="2.03673">
        <ele>357</ele>
        <time>2012-04-05T18:26:18Z</time>
      </trkpt>
      <trkpt lat="43.43747" lon="2.03664">
        <ele>357</ele>
        <time>2012-04-05T18:26:20Z</time>
      </trkpt>
      <trkpt lat="43.43752" lon="2.03656">
        <ele>358</ele>
        <time>2012-04-05T18:26:22Z</time>
      </trkpt>
      <trkpt lat="43.43759" lon="2.03647">
        <ele>358</ele>
        <time>2012-04-05T18:26:24Z</time>
      </trkpt>
      <trkpt lat="43.43767" lon="2.03635">
        <ele>358</ele>
        <time>2012-04-05T18:26:26Z</time>
      </trkpt>
      <trkpt lat="43.43774" lon="2.03622">
        <ele>358</ele>
        <time>2012-04-05T18:26:28Z</time>
      </trkpt>
      <trkpt lat="43.43781" lon="2.03605">
        <ele>358</ele>
        <time>2012-04-05T18:26:30Z</time>
      </trkpt>
      <trkpt lat="43.43788" lon="2.03588">
        <ele>358</ele>
        <time>2012-04-05T18:26:32Z</time>
      </trkpt>
      <trkpt lat="43.43795" lon="2.03572">
        <ele>358</ele>
        <time>2012-04-05T18:26:34Z</time>
      </trkpt>
      <trkpt lat="43.43803" lon="2.03556">
        <ele>358</ele>
        <time>2012-04-05T18:26:36Z</time>
      </trkpt>
      <trkpt lat="43.43812" lon="2.03541">
        <ele>358</ele>
        <time>2012-04-05T18:26:38Z</time>
      </trkpt>
      <trkpt lat="43.43821" lon="2.03527">
        <ele>358</ele>
        <time>2012-04-05T18:26:40Z</time>
      </trkpt>
      <trkpt lat="43.43829" lon="2.03513">
        <ele>358</ele>
        <time>2012-04-05T18:26:42Z</time>
      </trkpt>
      <trkpt lat="43.43837" lon="2.035">
        <ele>358</ele>
        <time>2012-04-05T18:26:44Z</time>
      </trkpt>
      <trkpt lat="43.43845" lon="2.03487">
        <ele>358</ele>
        <time>2012-04-05T18:26:46Z</time>
      </trkpt>
      <trkpt lat="43.43853" lon="2.03474">
        <ele>358</ele>
        <time>2012-04-05T18:26:48Z</time>
      </trkpt>
      <trkpt lat="43.4386" lon="2.03461">
        <ele>358</ele>
        <time>2012-04-05T18:26:50Z</time>
      </trkpt>
      <trkpt lat="43.43866" lon="2.03448">
        <ele>358</ele>
        <time>2012-04-05T18:26:52Z</time>
      </trkpt>
      <trkpt lat="43.43871" lon="2.03434">
        <ele>358</ele>
        <time>2012-04-05T18:26:54Z</time>
      </trkpt>
      <trkpt lat="43.43875" lon="2.03422">
        <ele>358</ele>
        <time>2012-04-05T18:26:56Z</time>
      </trkpt>
      <trkpt lat="43.43878" lon="2.0341">
        <ele>358</ele>
        <time>2012-04-05T18:26:58Z</time>
      </trkpt>
      <trkpt lat="43.4388" lon="2.03397">
        <ele>359</ele>
        <time>2012-04-05T18:27:00Z</time>
      </trkpt>
      <trkpt lat="43.4388" lon="2.03382">
        <ele>359</ele>
        <time>2012-04-05T18:27:02Z</time>
      </trkpt>
      <trkpt lat="43.43882" lon="2.03363">
        <ele>359</ele>
        <time>2012-04-05T18:27:04Z</time>
      </trkpt>
      <trkpt lat="43.43886" lon="2.03342">
        <ele>359</ele>
        <time>2012-04-05T18:27:06Z</time>
      </trkpt>
      <trkpt lat="43.43892" lon="2.03322">
        <ele>359</ele>
        <time>2012-04-05T18:27:08Z</time>
      </trkpt>
      <trkpt lat="43.43899" lon="2.03303">
        <ele>360</ele>
        <time>2012-04-05T18:27:10Z</time>
      </trkpt>
      <trkpt lat="43.43903" lon="2.03289">
        <ele>361</ele>
        <time>2012-04-05T18:27:12Z</time>
      </trkpt>
      <trkpt lat="43.43907" lon="2.03278">
        <ele>361</ele>
        <time>2012-04-05T18:27:14Z</time>
      </trkpt>
      <trkpt lat="43.43908" lon="2.03267">
        <ele>362</ele>
        <time>2012-04-05T18:27:16Z</time>
      </trkpt>
      <trkpt lat="43.43909" lon="2.03257">
        <ele>362</ele>
        <time>2012-04-05T18:27:18Z</time>
      </trkpt>
      <trkpt lat="43.4391" lon="2.03248">
        <ele>362</ele>
        <time>2012-04-05T18:27:20Z</time>
      </trkpt>
      <trkpt lat="43.43912" lon="2.03238">
        <ele>362</ele>
        <time>2012-04-05T18:27:22Z</time>
      </trkpt>
      <trkpt lat="43.43914" lon="2.03228">
        <ele>362</ele>
        <time>2012-04-05T18:27:24Z</time>
      </trkpt>
      <trkpt lat="43.43917" lon="2.03218">
        <ele>362</ele>
        <time>2012-04-05T18:27:26Z</time>
      </trkpt>
      <trkpt lat="43.43921" lon="2.03209">
        <ele>362</ele>
        <time>2012-04-05T18:27:28Z</time>
      </trkpt>
      <trkpt lat="43.43924" lon="2.03199">
        <ele>362</ele>
        <time>2012-04-05T18:27:30Z</time>
      </trkpt>
      <trkpt lat="43.4393" lon="2.03188">
        <ele>362</ele>
        <time>2012-04-05T18:27:32Z</time>
      </trkpt>
      <trkpt lat="43.43936" lon="2.03178">
        <ele>362</ele>
        <time>2012-04-05T18:27:34Z</time>
      </trkpt>
      <trkpt lat="43.43943" lon="2.03168">
        <ele>362</ele>
        <time>2012-04-05T18:27:36Z</time>
      </trkpt>
      <trkpt lat="43.4395" lon="2.03157">
        <ele>362</ele>
        <time>2012-04-05T18:27:38Z</time>
      </trkpt>
      <trkpt lat="43.43957" lon="2.03144">
        <ele>361</ele>
        <time>2012-04-05T18:27:40Z</time>
      </trkpt>
      <trkpt lat="43.43964" lon="2.03132">
        <ele>361</ele>
        <time>2012-04-05T18:27:42Z</time>
      </trkpt>
      <trkpt lat="43.4397" lon="2.03121">
        <ele>361</ele>
        <time>2012-04-05T18:27:44Z</time>
      </trkpt>
      <trkpt lat="43.43976" lon="2.03111">
        <ele>360</ele>
        <time>2012-04-05T18:27:46Z</time>
      </trkpt>
      <trkpt lat="43.43982" lon="2.03102">
        <ele>359</ele>
        <time>2012-04-05T18:27:48Z</time>
      </trkpt>
      <trkpt lat="43.43988" lon="2.03091">
        <ele>358</ele>
        <time>2012-04-05T18:27:50Z</time>
      </trkpt>
      <trkpt lat="43.43993" lon="2.03081">
        <ele>357</ele>
        <time>2012-04-05T18:27:52Z</time>
      </trkpt>
      <trkpt lat="43.43998" lon="2.03069">
        <ele>357</ele>
        <time>2012-04-05T18:27:54Z</time>
      </trkpt>
      <trkpt lat="43.44004" lon="2.03059">
        <ele>357</ele>
        <time>2012-04-05T18:27:56Z</time>
      </trkpt>
      <trkpt lat="43.4401" lon="2.03047">
        <ele>357</ele>
        <time>2012-04-05T18:27:58Z</time>
      </trkpt>
      <trkpt lat="43.44014" lon="2.03035">
        <ele>357</ele>
        <time>2012-04-05T18:28:00Z</time>
      </trkpt>
      <trkpt lat="43.44016" lon="2.03021">
        <ele>357</ele>
        <time>2012-04-05T18:28:02Z</time>
      </trkpt>
      <trkpt lat="43.44018" lon="2.03007">
        <ele>357</ele>
        <time>2012-04-05T18:28:04Z</time>
      </trkpt>
      <trkpt lat="43.44022" lon="2.02992">
        <ele>357</ele>
        <time>2012-04-05T18:28:06Z</time>
      </trkpt>
      <trkpt lat="43.44025" lon="2.02975">
        <ele>357</ele>
        <time>2012-04-05T18:28:08Z</time>
      </trkpt>
      <trkpt lat="43.44029" lon="2.02958">
        <ele>357</ele>
        <time>2012-04-05T18:28:10Z</time>
      </trkpt>
      <trkpt lat="43.44031" lon="2.02942">
        <ele>355</ele>
        <time>2012-04-05T18:28:12Z</time>
      </trkpt>
      <trkpt lat="43.44033" lon="2.02925">
        <ele>355</ele>
        <time>2012-04-05T18:28:14Z</time>
      </trkpt>
      <trkpt lat="43.44034" lon="2.0291">
        <ele>355</ele>
        <time>2012-04-05T18:28:16Z</time>
      </trkpt>
      <trkpt lat="43.44034" lon="2.02895">
        <ele>355</ele>
        <time>2012-04-05T18:28:18Z</time>
      </trkpt>
      <trkpt lat="43.44036" lon="2.02881">
        <ele>355</ele>
        <time>2012-04-05T18:28:20Z</time>
      </trkpt>
      <trkpt lat="43.44036" lon="2.02867">
        <ele>355</ele>
        <time>2012-04-05T18:28:22Z</time>
      </trkpt>
      <trkpt lat="43.44036" lon="2.02853">
        <ele>355</ele>
        <time>2012-04-05T18:28:24Z</time>
      </trkpt>
      <trkpt lat="43.44035" lon="2.02838">
        <ele>355</ele>
        <time>2012-04-05T18:28:26Z</time>
      </trkpt>
      <trkpt lat="43.44035" lon="2.02824">
        <ele>355</ele>
        <time>2012-04-05T18:28:28Z</time>
      </trkpt>
      <trkpt lat="43.44034" lon="2.02809">
        <ele>355</ele>
        <time>2012-04-05T18:28:30Z</time>
      </trkpt>
      <trkpt lat="43.44033" lon="2.02795">
        <ele>355</ele>
        <time>2012-04-05T18:28:32Z</time>
      </trkpt>
      <trkpt lat="43.44032" lon="2.02781">
        <ele>355</ele>
        <time>2012-04-05T18:28:34Z</time>
      </trkpt>
      <trkpt lat="43.44031" lon="2.02767">
        <ele>355</ele>
        <time>2012-04-05T18:28:36Z</time>
      </trkpt>
      <trkpt lat="43.44029" lon="2.02754">
        <ele>355</ele>
        <time>2012-04-05T18:28:38Z</time>
      </trkpt>
      <trkpt lat="43.4403" lon="2.02742">
        <ele>355</ele>
        <time>2012-04-05T18:28:40Z</time>
      </trkpt>
      <trkpt lat="43.44034" lon="2.02739">
        <ele>355</ele>
        <time>2012-04-05T18:28:42Z</time>
      </trkpt>
      <trkpt lat="43.44039" lon="2.02739">
        <ele>355</ele>
        <time>2012-04-05T18:28:44Z</time>
      </trkpt>
      <trkpt lat="43.44045" lon="2.02738">
        <ele>355</ele>
        <time>2012-04-05T18:28:46Z</time>
      </trkpt>
      <trkpt lat="43.44048" lon="2.02737">
        <ele>355</ele>
        <time>2012-04-05T18:28:47Z</time>
      </trkpt>
    </trkseg>
  </trk>
</gpx>